<?xml version='1.0' encoding='UTF-8'?><gpx version="1.1" creator="JPX - https://github.com/jenetics/jpx" xmlns="http://www.topografix.com/GPX/1/1"><trk><trkseg><trkpt lat="43.0788183" lon="13.2819417"><ele>462.0</ele><time>2026-03-22T09:20:42.378Z</time></trkpt><trkpt lat="43.0789283" lon="13.2819067"><ele>462.00000000000006</ele><time>2026-03-22T09:20:44.362Z</time></trkpt><trkpt lat="43.07905" lon="13.2818717"><ele>462.00000000000006</ele><time>2026-03-22T09:20:46.374Z</time></trkpt><trkpt lat="43.0791167" lon="13.281855"><ele>462.0</ele><time>2026-03-22T09:20:47.376Z</time></trkpt><trkpt lat="43.0791883" lon="13.281855"><ele>462.0</ele><time>2026-03-22T09:20:48.381Z</time></trkpt><trkpt lat="43.07927" lon="13.2818733"><ele>462.20000000000005</ele><time>2026-03-22T09:20:49.38Z</time></trkpt><trkpt lat="43.079365" lon="13.2818983"><ele>462.40000000000003</ele><time>2026-03-22T09:20:50.383Z</time></trkpt><trkpt lat="43.0794683" lon="13.2819133"><ele>462.59999999999997</ele><time>2026-03-22T09:20:51.381Z</time></trkpt><trkpt lat="43.07958" lon="13.2819133"><ele>462.79999999999995</ele><time>2026-03-22T09:20:52.381Z</time></trkpt><trkpt lat="43.0797" lon="13.2819"><ele>463.0</ele><time>2026-03-22T09:20:53.383Z</time></trkpt><trkpt lat="43.0798183" lon="13.28188"><ele>462.75</ele><time>2026-03-22T09:20:54.375Z</time></trkpt><trkpt lat="43.0799367" lon="13.2818717"><ele>462.5</ele><time>2026-03-22T09:20:55.38Z</time></trkpt><trkpt lat="43.0800583" lon="13.28188"><ele>462.25</ele><time>2026-03-22T09:20:56.38Z</time></trkpt><trkpt lat="43.080185" lon="13.2818917"><ele>462.0</ele><time>2026-03-22T09:20:57.377Z</time></trkpt><trkpt lat="43.08031" lon="13.28189"><ele>462.0</ele><time>2026-03-22T09:20:58.376Z</time></trkpt><trkpt lat="43.080425" lon="13.2818683"><ele>462.0</ele><time>2026-03-22T09:20:59.37Z</time></trkpt><trkpt lat="43.0805383" lon="13.2818317"><ele>462.0</ele><time>2026-03-22T09:21:00.361Z</time></trkpt><trkpt lat="43.0806467" lon="13.2817683"><ele>462.0</ele><time>2026-03-22T09:21:01.377Z</time></trkpt><trkpt lat="43.0807417" lon="13.281675"><ele>464.25</ele><time>2026-03-22T09:21:02.377Z</time></trkpt><trkpt lat="43.0808183" lon="13.2815283"><ele>466.5</ele><time>2026-03-22T09:21:03.382Z</time></trkpt><trkpt lat="43.0808867" lon="13.2813617"><ele>468.75</ele><time>2026-03-22T09:21:04.37Z</time></trkpt><trkpt lat="43.080955" lon="13.28121"><ele>471.0</ele><time>2026-03-22T09:21:05.378Z</time></trkpt><trkpt lat="43.0810133" lon="13.2810467"><ele>471.0</ele><time>2026-03-22T09:21:06.369Z</time></trkpt><trkpt lat="43.081065" lon="13.2808867"><ele>471.0</ele><time>2026-03-22T09:21:07.378Z</time></trkpt><trkpt lat="43.08111" lon="13.2807317"><ele>471.0</ele><time>2026-03-22T09:21:08.379Z</time></trkpt><trkpt lat="43.08115" lon="13.2805683"><ele>471.0</ele><time>2026-03-22T09:21:09.38Z</time></trkpt><trkpt lat="43.081195" lon="13.28041"><ele>470.75</ele><time>2026-03-22T09:21:10.374Z</time></trkpt><trkpt lat="43.0812483" lon="13.2802633"><ele>470.5</ele><time>2026-03-22T09:21:11.377Z</time></trkpt><trkpt lat="43.0813183" lon="13.280125"><ele>470.25</ele><time>2026-03-22T09:21:12.376Z</time></trkpt><trkpt lat="43.08141" lon="13.2799917"><ele>470.0</ele><time>2026-03-22T09:21:13.379Z</time></trkpt><trkpt lat="43.081515" lon="13.279865"><ele>472.25</ele><time>2026-03-22T09:21:14.368Z</time></trkpt><trkpt lat="43.0816167" lon="13.27974"><ele>474.5</ele><time>2026-03-22T09:21:15.38Z</time></trkpt><trkpt lat="43.081715" lon="13.2796167"><ele>476.75</ele><time>2026-03-22T09:21:16.376Z</time></trkpt><trkpt lat="43.0818083" lon="13.27949"><ele>479.0</ele><time>2026-03-22T09:21:17.38Z</time></trkpt><trkpt lat="43.0818917" lon="13.2793517"><ele>479.0</ele><time>2026-03-22T09:21:18.374Z</time></trkpt><trkpt lat="43.0819467" lon="13.2791867"><ele>479.0</ele><time>2026-03-22T09:21:19.381Z</time></trkpt><trkpt lat="43.0820017" lon="13.2790183"><ele>479.0</ele><time>2026-03-22T09:21:20.377Z</time></trkpt><trkpt lat="43.08205" lon="13.2788417"><ele>479.0</ele><time>2026-03-22T09:21:21.377Z</time></trkpt><trkpt lat="43.0820883" lon="13.278665"><ele>478.5</ele><time>2026-03-22T09:21:22.371Z</time></trkpt><trkpt lat="43.0821167" lon="13.2784917"><ele>478.0</ele><time>2026-03-22T09:21:23.377Z</time></trkpt><trkpt lat="43.0821283" lon="13.2783267"><ele>477.5</ele><time>2026-03-22T09:21:24.382Z</time></trkpt><trkpt lat="43.0821267" lon="13.2781683"><ele>477.0</ele><time>2026-03-22T09:21:25.374Z</time></trkpt><trkpt lat="43.082105" lon="13.278005"><ele>477.0</ele><time>2026-03-22T09:21:26.374Z</time></trkpt><trkpt lat="43.0820683" lon="13.2778467"><ele>477.0</ele><time>2026-03-22T09:21:27.377Z</time></trkpt><trkpt lat="43.0820017" lon="13.2776917"><ele>477.0</ele><time>2026-03-22T09:21:28.374Z</time></trkpt><trkpt lat="43.0819283" lon="13.2775367"><ele>477.0</ele><time>2026-03-22T09:21:29.364Z</time></trkpt><trkpt lat="43.0818533" lon="13.277375"><ele>476.5</ele><time>2026-03-22T09:21:30.38Z</time></trkpt><trkpt lat="43.08178" lon="13.2772133"><ele>476.0</ele><time>2026-03-22T09:21:31.374Z</time></trkpt><trkpt lat="43.0817083" lon="13.27706"><ele>475.5</ele><time>2026-03-22T09:21:32.377Z</time></trkpt><trkpt lat="43.081625" lon="13.27691"><ele>475.0</ele><time>2026-03-22T09:21:33.374Z</time></trkpt><trkpt lat="43.08153" lon="13.2767717"><ele>475.0</ele><time>2026-03-22T09:21:34.371Z</time></trkpt><trkpt lat="43.08143" lon="13.2766367"><ele>475.0</ele><time>2026-03-22T09:21:35.38Z</time></trkpt><trkpt lat="43.081335" lon="13.276495"><ele>475.0</ele><time>2026-03-22T09:21:36.381Z</time></trkpt><trkpt lat="43.081255" lon="13.276335"><ele>475.0</ele><time>2026-03-22T09:21:37.377Z</time></trkpt><trkpt lat="43.081195" lon="13.2761633"><ele>475.0</ele><time>2026-03-22T09:21:38.377Z</time></trkpt><trkpt lat="43.08115" lon="13.27598"><ele>475.0</ele><time>2026-03-22T09:21:39.379Z</time></trkpt><trkpt lat="43.08111" lon="13.275795"><ele>475.0</ele><time>2026-03-22T09:21:40.376Z</time></trkpt><trkpt lat="43.0810717" lon="13.2756183"><ele>475.0</ele><time>2026-03-22T09:21:41.377Z</time></trkpt><trkpt lat="43.08103" lon="13.2754567"><ele>475.5</ele><time>2026-03-22T09:21:42.379Z</time></trkpt><trkpt lat="43.0809817" lon="13.275305"><ele>476.0</ele><time>2026-03-22T09:21:43.38Z</time></trkpt><trkpt lat="43.080925" lon="13.2751633"><ele>476.5</ele><time>2026-03-22T09:21:44.377Z</time></trkpt><trkpt lat="43.080855" lon="13.2750267"><ele>477.0</ele><time>2026-03-22T09:21:45.376Z</time></trkpt><trkpt lat="43.080775" lon="13.2748883"><ele>476.75</ele><time>2026-03-22T09:21:46.362Z</time></trkpt><trkpt lat="43.0806917" lon="13.2747467"><ele>476.5</ele><time>2026-03-22T09:21:47.362Z</time></trkpt><trkpt lat="43.0806067" lon="13.2746067"><ele>476.25</ele><time>2026-03-22T09:21:48.365Z</time></trkpt><trkpt lat="43.0805267" lon="13.2744717"><ele>476.0</ele><time>2026-03-22T09:21:49.38Z</time></trkpt><trkpt lat="43.0804533" lon="13.27435"><ele>475.99999999999994</ele><time>2026-03-22T09:21:50.378Z</time></trkpt><trkpt lat="43.0803883" lon="13.27424"><ele>476.0</ele><time>2026-03-22T09:21:51.375Z</time></trkpt><trkpt lat="43.0803317" lon="13.2741467"><ele>476.0</ele><time>2026-03-22T09:21:52.373Z</time></trkpt><trkpt lat="43.0802833" lon="13.27407"><ele>476.0</ele><time>2026-03-22T09:21:53.372Z</time></trkpt><trkpt lat="43.0802267" lon="13.2739683"><ele>475.99999999999994</ele><time>2026-03-22T09:21:55.375Z</time></trkpt><trkpt lat="43.0801767" lon="13.2738783"><ele>476.0</ele><time>2026-03-22T09:21:57.375Z</time></trkpt><trkpt lat="43.0801333" lon="13.273805"><ele>476.20000000000005</ele><time>2026-03-22T09:21:58.378Z</time></trkpt><trkpt lat="43.0800817" lon="13.27371"><ele>476.40000000000003</ele><time>2026-03-22T09:21:59.376Z</time></trkpt><trkpt lat="43.080025" lon="13.2735917"><ele>476.6</ele><time>2026-03-22T09:22:00.377Z</time></trkpt><trkpt lat="43.079955" lon="13.2734583"><ele>476.8</ele><time>2026-03-22T09:22:01.379Z</time></trkpt><trkpt lat="43.0798883" lon="13.273335"><ele>477.0</ele><time>2026-03-22T09:22:02.376Z</time></trkpt><trkpt lat="43.079835" lon="13.27324"><ele>477.0</ele><time>2026-03-22T09:22:03.371Z</time></trkpt><trkpt lat="43.0797917" lon="13.2731667"><ele>477.0</ele><time>2026-03-22T09:22:04.372Z</time></trkpt><trkpt lat="43.0797217" lon="13.2730567"><ele>477.0</ele><time>2026-03-22T09:22:06.374Z</time></trkpt><trkpt lat="43.0796467" lon="13.2730167"><ele>477.0</ele><time>2026-03-22T09:22:08.361Z</time></trkpt><trkpt lat="43.0795617" lon="13.2730483"><ele>477.0</ele><time>2026-03-22T09:22:10.36Z</time></trkpt><trkpt lat="43.0794867" lon="13.2730917"><ele>477.0</ele><time>2026-03-22T09:22:12.377Z</time></trkpt><trkpt lat="43.0794217" lon="13.2731283"><ele>477.0</ele><time>2026-03-22T09:22:14.38Z</time></trkpt><trkpt lat="43.0793333" lon="13.2730983"><ele>477.00000000000006</ele><time>2026-03-22T09:22:17.374Z</time></trkpt><trkpt lat="43.079295" lon="13.27294"><ele>477.00000000000006</ele><time>2026-03-22T09:22:19.374Z</time></trkpt><trkpt lat="43.079285" lon="13.2728167"><ele>477.0</ele><time>2026-03-22T09:22:20.376Z</time></trkpt><trkpt lat="43.0792783" lon="13.272685"><ele>477.0</ele><time>2026-03-22T09:22:21.377Z</time></trkpt><trkpt lat="43.0792667" lon="13.2725633"><ele>477.0</ele><time>2026-03-22T09:22:22.377Z</time></trkpt><trkpt lat="43.0792567" lon="13.2724517"><ele>477.0</ele><time>2026-03-22T09:22:23.377Z</time></trkpt><trkpt lat="43.0792467" lon="13.272355"><ele>477.0</ele><time>2026-03-22T09:22:24.368Z</time></trkpt><trkpt lat="43.07924" lon="13.27219"><ele>477.0</ele><time>2026-03-22T09:22:26.381Z</time></trkpt><trkpt lat="43.0792467" lon="13.2721"><ele>477.0</ele><time>2026-03-22T09:22:27.373Z</time></trkpt><trkpt lat="43.0792567" lon="13.27199"><ele>477.0</ele><time>2026-03-22T09:22:28.37Z</time></trkpt><trkpt lat="43.0792717" lon="13.2718717"><ele>477.1666666666667</ele><time>2026-03-22T09:22:29.377Z</time></trkpt><trkpt lat="43.079285" lon="13.2717567"><ele>477.33333333333337</ele><time>2026-03-22T09:22:30.38Z</time></trkpt><trkpt lat="43.0792983" lon="13.271655"><ele>477.5</ele><time>2026-03-22T09:22:31.379Z</time></trkpt><trkpt lat="43.0793133" lon="13.2715683"><ele>477.6666666666667</ele><time>2026-03-22T09:22:32.374Z</time></trkpt><trkpt lat="43.0793467" lon="13.2714267"><ele>477.83333333333337</ele><time>2026-03-22T09:22:34.376Z</time></trkpt><trkpt lat="43.0793683" lon="13.271345"><ele>478.0</ele><time>2026-03-22T09:22:35.365Z</time></trkpt><trkpt lat="43.0793883" lon="13.271255"><ele>478.1666666666667</ele><time>2026-03-22T09:22:36.375Z</time></trkpt><trkpt lat="43.0793967" lon="13.271155"><ele>478.33333333333337</ele><time>2026-03-22T09:22:37.377Z</time></trkpt><trkpt lat="43.07939" lon="13.27105"><ele>478.5</ele><time>2026-03-22T09:22:38.39Z</time></trkpt><trkpt lat="43.0793733" lon="13.2709317"><ele>478.66666666666663</ele><time>2026-03-22T09:22:39.377Z</time></trkpt><trkpt lat="43.0793517" lon="13.2707967"><ele>478.8333333333333</ele><time>2026-03-22T09:22:40.375Z</time></trkpt><trkpt lat="43.079335" lon="13.2706483"><ele>479.0</ele><time>2026-03-22T09:22:41.378Z</time></trkpt><trkpt lat="43.0793217" lon="13.2704883"><ele>479.25</ele><time>2026-03-22T09:22:42.379Z</time></trkpt><trkpt lat="43.079305" lon="13.270315"><ele>479.5</ele><time>2026-03-22T09:22:43.377Z</time></trkpt><trkpt lat="43.0792883" lon="13.270135"><ele>479.75</ele><time>2026-03-22T09:22:44.389Z</time></trkpt><trkpt lat="43.0792717" lon="13.2699517"><ele>480.0</ele><time>2026-03-22T09:22:45.373Z</time></trkpt><trkpt lat="43.0792567" lon="13.2697767"><ele>479.25</ele><time>2026-03-22T09:22:46.372Z</time></trkpt><trkpt lat="43.079245" lon="13.2696133"><ele>478.5</ele><time>2026-03-22T09:22:47.376Z</time></trkpt><trkpt lat="43.079235" lon="13.2694517"><ele>477.75</ele><time>2026-03-22T09:22:48.38Z</time></trkpt><trkpt lat="43.0792283" lon="13.269295"><ele>477.0</ele><time>2026-03-22T09:22:49.38Z</time></trkpt><trkpt lat="43.079225" lon="13.26915"><ele>477.0</ele><time>2026-03-22T09:22:50.385Z</time></trkpt><trkpt lat="43.0792317" lon="13.2690183"><ele>477.00000000000006</ele><time>2026-03-22T09:22:51.378Z</time></trkpt><trkpt lat="43.07926" lon="13.2689017"><ele>477.00000000000006</ele><time>2026-03-22T09:22:52.381Z</time></trkpt><trkpt lat="43.0793167" lon="13.2688033"><ele>477.0</ele><time>2026-03-22T09:22:53.377Z</time></trkpt><trkpt lat="43.0793883" lon="13.2687167"><ele>477.0</ele><time>2026-03-22T09:22:54.373Z</time></trkpt><trkpt lat="43.079455" lon="13.2686383"><ele>476.3333333333333</ele><time>2026-03-22T09:22:55.384Z</time></trkpt><trkpt lat="43.0795" lon="13.268565"><ele>475.66666666666663</ele><time>2026-03-22T09:22:56.366Z</time></trkpt><trkpt lat="43.079525" lon="13.268485"><ele>475.0</ele><time>2026-03-22T09:22:57.381Z</time></trkpt><trkpt lat="43.0795133" lon="13.2683567"><ele>474.3333333333333</ele><time>2026-03-22T09:22:59.376Z</time></trkpt><trkpt lat="43.0794283" lon="13.2683717"><ele>473.66666666666663</ele><time>2026-03-22T09:23:01.374Z</time></trkpt><trkpt lat="43.07933" lon="13.2684283"><ele>473.0</ele><time>2026-03-22T09:23:03.376Z</time></trkpt><trkpt lat="43.079255" lon="13.2683867"><ele>472.99999999999994</ele><time>2026-03-22T09:23:05.374Z</time></trkpt><trkpt lat="43.0791933" lon="13.268275"><ele>473.0</ele><time>2026-03-22T09:23:07.359Z</time></trkpt><trkpt lat="43.079175" lon="13.2681833"><ele>473.0</ele><time>2026-03-22T09:23:08.39Z</time></trkpt><trkpt lat="43.0791717" lon="13.2680717"><ele>473.0</ele><time>2026-03-22T09:23:09.377Z</time></trkpt><trkpt lat="43.0791767" lon="13.2679533"><ele>472.99999999999994</ele><time>2026-03-22T09:23:10.364Z</time></trkpt><trkpt lat="43.0791717" lon="13.2678083"><ele>473.0</ele><time>2026-03-22T09:23:11.363Z</time></trkpt><trkpt lat="43.079145" lon="13.26768"><ele>472.49999999999994</ele><time>2026-03-22T09:23:12.369Z</time></trkpt><trkpt lat="43.0791133" lon="13.26756"><ele>472.0</ele><time>2026-03-22T09:23:13.379Z</time></trkpt><trkpt lat="43.0790783" lon="13.2674583"><ele>471.5</ele><time>2026-03-22T09:23:14.371Z</time></trkpt><trkpt lat="43.079045" lon="13.2673817"><ele>471.0</ele><time>2026-03-22T09:23:15.359Z</time></trkpt><trkpt lat="43.0790017" lon="13.2673017"><ele>470.49999999999994</ele><time>2026-03-22T09:23:16.377Z</time></trkpt><trkpt lat="43.078965" lon="13.2672033"><ele>470.0</ele><time>2026-03-22T09:23:17.382Z</time></trkpt><trkpt lat="43.0789283" lon="13.2670867"><ele>470.0</ele><time>2026-03-22T09:23:18.385Z</time></trkpt><trkpt lat="43.0788867" lon="13.2669617"><ele>470.0</ele><time>2026-03-22T09:23:19.363Z</time></trkpt><trkpt lat="43.0788367" lon="13.2668233"><ele>470.0</ele><time>2026-03-22T09:23:20.394Z</time></trkpt><trkpt lat="43.0787917" lon="13.2666833"><ele>470.0</ele><time>2026-03-22T09:23:21.379Z</time></trkpt><trkpt lat="43.0787567" lon="13.2665383"><ele>470.0</ele><time>2026-03-22T09:23:22.374Z</time></trkpt><trkpt lat="43.078725" lon="13.266395"><ele>466.4</ele><time>2026-03-22T09:23:23.383Z</time></trkpt><trkpt lat="43.0786983" lon="13.2662633"><ele>462.8</ele><time>2026-03-22T09:23:24.386Z</time></trkpt><trkpt lat="43.07866" lon="13.2661417"><ele>459.20000000000005</ele><time>2026-03-22T09:23:25.377Z</time></trkpt><trkpt lat="43.0786183" lon="13.2660183"><ele>455.6</ele><time>2026-03-22T09:23:26.358Z</time></trkpt><trkpt lat="43.078575" lon="13.2658817"><ele>452.0</ele><time>2026-03-22T09:23:27.383Z</time></trkpt><trkpt lat="43.0785433" lon="13.26573"><ele>448.25</ele><time>2026-03-22T09:23:28.387Z</time></trkpt><trkpt lat="43.0785133" lon="13.2655717"><ele>444.5</ele><time>2026-03-22T09:23:29.383Z</time></trkpt><trkpt lat="43.0784783" lon="13.2654183"><ele>440.75</ele><time>2026-03-22T09:23:30.388Z</time></trkpt><trkpt lat="43.0784367" lon="13.2652667"><ele>437.0</ele><time>2026-03-22T09:23:31.358Z</time></trkpt><trkpt lat="43.0783967" lon="13.2651233"><ele>437.0</ele><time>2026-03-22T09:23:32.384Z</time></trkpt><trkpt lat="43.0783417" lon="13.264985"><ele>437.0</ele><time>2026-03-22T09:23:33.375Z</time></trkpt><trkpt lat="43.0782733" lon="13.2648517"><ele>437.0</ele><time>2026-03-22T09:23:34.382Z</time></trkpt><trkpt lat="43.0781967" lon="13.264705"><ele>437.0</ele><time>2026-03-22T09:23:35.382Z</time></trkpt><trkpt lat="43.0781167" lon="13.264535"><ele>442.25</ele><time>2026-03-22T09:23:36.384Z</time></trkpt><trkpt lat="43.078035" lon="13.2643717"><ele>447.5</ele><time>2026-03-22T09:23:37.382Z</time></trkpt><trkpt lat="43.077955" lon="13.2642317"><ele>452.75</ele><time>2026-03-22T09:23:38.402Z</time></trkpt><trkpt lat="43.0778867" lon="13.2641117"><ele>458.0</ele><time>2026-03-22T09:23:39.387Z</time></trkpt><trkpt lat="43.0778367" lon="13.26403"><ele>457.99999999999994</ele><time>2026-03-22T09:23:40.384Z</time></trkpt><trkpt lat="43.0777483" lon="13.2639583"><ele>458.0</ele><time>2026-03-22T09:23:42.377Z</time></trkpt><trkpt lat="43.0777083" lon="13.2638917"><ele>458.0</ele><time>2026-03-22T09:23:44.394Z</time></trkpt><trkpt lat="43.077655" lon="13.2637833"><ele>458.0</ele><time>2026-03-22T09:23:46.382Z</time></trkpt><trkpt lat="43.0775683" lon="13.26369"><ele>457.99999999999994</ele><time>2026-03-22T09:23:48.386Z</time></trkpt><trkpt lat="43.07751" lon="13.2636433"><ele>458.0</ele><time>2026-03-22T09:23:49.371Z</time></trkpt><trkpt lat="43.0774467" lon="13.2635933"><ele>461.66666666666663</ele><time>2026-03-22T09:23:50.389Z</time></trkpt><trkpt lat="43.07738" lon="13.26354"><ele>465.3333333333333</ele><time>2026-03-22T09:23:51.387Z</time></trkpt><trkpt lat="43.0773017" lon="13.26348"><ele>469.0</ele><time>2026-03-22T09:23:52.39Z</time></trkpt><trkpt lat="43.0772267" lon="13.2634267"><ele>472.66666666666663</ele><time>2026-03-22T09:23:53.385Z</time></trkpt><trkpt lat="43.077155" lon="13.2633833"><ele>476.3333333333333</ele><time>2026-03-22T09:23:54.388Z</time></trkpt><trkpt lat="43.077065" lon="13.2633217"><ele>480.0</ele><time>2026-03-22T09:23:56.37Z</time></trkpt><trkpt lat="43.0770417" lon="13.26318"><ele>479.8333333333333</ele><time>2026-03-22T09:23:58.387Z</time></trkpt><trkpt lat="43.07705" lon="13.2630733"><ele>479.66666666666663</ele><time>2026-03-22T09:23:59.384Z</time></trkpt><trkpt lat="43.077045" lon="13.2629833"><ele>479.5</ele><time>2026-03-22T09:24:00.383Z</time></trkpt><trkpt lat="43.0770367" lon="13.262835"><ele>479.3333333333333</ele><time>2026-03-22T09:24:02.383Z</time></trkpt><trkpt lat="43.0770567" lon="13.262735"><ele>479.16666666666663</ele><time>2026-03-22T09:24:04.385Z</time></trkpt><trkpt lat="43.0770933" lon="13.2625967"><ele>479.0</ele><time>2026-03-22T09:24:06.385Z</time></trkpt><trkpt lat="43.0771117" lon="13.2624933"><ele>478.99999999999994</ele><time>2026-03-22T09:24:07.387Z</time></trkpt><trkpt lat="43.0771283" lon="13.2623933"><ele>479.0</ele><time>2026-03-22T09:24:08.396Z</time></trkpt><trkpt lat="43.0771533" lon="13.2623083"><ele>479.0</ele><time>2026-03-22T09:24:09.386Z</time></trkpt><trkpt lat="43.0772133" lon="13.2621583"><ele>479.0</ele><time>2026-03-22T09:24:11.387Z</time></trkpt><trkpt lat="43.0772533" lon="13.262075"><ele>478.99999999999994</ele><time>2026-03-22T09:24:12.385Z</time></trkpt><trkpt lat="43.07729" lon="13.261975"><ele>479.0</ele><time>2026-03-22T09:24:13.38Z</time></trkpt><trkpt lat="43.0773233" lon="13.261875"><ele>480.6</ele><time>2026-03-22T09:24:14.397Z</time></trkpt><trkpt lat="43.0773567" lon="13.2617917"><ele>482.2</ele><time>2026-03-22T09:24:15.382Z</time></trkpt><trkpt lat="43.0773883" lon="13.2616667"><ele>483.80000000000007</ele><time>2026-03-22T09:24:17.386Z</time></trkpt><trkpt lat="43.07737" lon="13.2615067"><ele>485.40000000000003</ele><time>2026-03-22T09:24:19.389Z</time></trkpt><trkpt lat="43.0773483" lon="13.2613367"><ele>487.0</ele><time>2026-03-22T09:24:21.383Z</time></trkpt><trkpt lat="43.0773283" lon="13.261245"><ele>486.83333333333337</ele><time>2026-03-22T09:24:22.379Z</time></trkpt><trkpt lat="43.07732" lon="13.2611467"><ele>486.6666666666667</ele><time>2026-03-22T09:24:23.387Z</time></trkpt><trkpt lat="43.0773067" lon="13.2610433"><ele>486.5</ele><time>2026-03-22T09:24:24.389Z</time></trkpt><trkpt lat="43.077285" lon="13.26095"><ele>486.33333333333337</ele><time>2026-03-22T09:24:25.386Z</time></trkpt><trkpt lat="43.07727" lon="13.2608117"><ele>486.1666666666667</ele><time>2026-03-22T09:24:27.386Z</time></trkpt><trkpt lat="43.0772833" lon="13.260725"><ele>486.0</ele><time>2026-03-22T09:24:30.377Z</time></trkpt><trkpt lat="43.077205" lon="13.260605"><ele>486.0</ele><time>2026-03-22T09:27:33.364Z</time></trkpt><trkpt lat="43.0772017" lon="13.2604717"><ele>486.0</ele><time>2026-03-22T09:28:33.354Z</time></trkpt><trkpt lat="43.0772117" lon="13.26038"><ele>486.0</ele><time>2026-03-22T09:28:35.381Z</time></trkpt><trkpt lat="43.0772017" lon="13.26029"><ele>486.0</ele><time>2026-03-22T09:28:38.413Z</time></trkpt><trkpt lat="43.0771883" lon="13.2601417"><ele>486.0</ele><time>2026-03-22T09:30:28.364Z</time></trkpt><trkpt lat="43.07716" lon="13.2600467"><ele>486.0</ele><time>2026-03-22T09:30:52.365Z</time></trkpt><trkpt lat="43.07719" lon="13.2599533"><ele>486.0</ele><time>2026-03-22T09:30:55.378Z</time></trkpt><trkpt lat="43.0772167" lon="13.2598617"><ele>486.0</ele><time>2026-03-22T09:30:58.376Z</time></trkpt><trkpt lat="43.0771517" lon="13.2598017"><ele>486.0</ele><time>2026-03-22T09:31:00.377Z</time></trkpt><trkpt lat="43.0770317" lon="13.25974"><ele>486.0</ele><time>2026-03-22T09:31:02.419Z</time></trkpt><trkpt lat="43.0769633" lon="13.2597133"><ele>486.0</ele><time>2026-03-22T09:31:03.376Z</time></trkpt><trkpt lat="43.0768967" lon="13.2596833"><ele>486.0</ele><time>2026-03-22T09:31:04.382Z</time></trkpt><trkpt lat="43.0768233" lon="13.2596567"><ele>486.3333333333333</ele><time>2026-03-22T09:31:05.383Z</time></trkpt><trkpt lat="43.0767517" lon="13.2596283"><ele>486.66666666666663</ele><time>2026-03-22T09:31:06.381Z</time></trkpt><trkpt lat="43.07668" lon="13.2596083"><ele>487.0</ele><time>2026-03-22T09:31:07.382Z</time></trkpt><trkpt lat="43.0766067" lon="13.2595917"><ele>487.3333333333333</ele><time>2026-03-22T09:31:08.422Z</time></trkpt><trkpt lat="43.0765317" lon="13.259575"><ele>487.66666666666663</ele><time>2026-03-22T09:31:09.378Z</time></trkpt><trkpt lat="43.07646" lon="13.2595517"><ele>488.0</ele><time>2026-03-22T09:31:10.369Z</time></trkpt><trkpt lat="43.0763817" lon="13.25952"><ele>488.0</ele><time>2026-03-22T09:31:11.368Z</time></trkpt><trkpt lat="43.0763" lon="13.2594933"><ele>487.99999999999994</ele><time>2026-03-22T09:31:12.387Z</time></trkpt><trkpt lat="43.0762183" lon="13.259475"><ele>487.99999999999994</ele><time>2026-03-22T09:31:13.385Z</time></trkpt><trkpt lat="43.07614" lon="13.2594533"><ele>488.0</ele><time>2026-03-22T09:31:14.405Z</time></trkpt><trkpt lat="43.07607" lon="13.2594317"><ele>488.0</ele><time>2026-03-22T09:31:15.372Z</time></trkpt><trkpt lat="43.0759433" lon="13.2593783"><ele>487.99999999999994</ele><time>2026-03-22T09:31:17.381Z</time></trkpt><trkpt lat="43.075875" lon="13.2593633"><ele>488.0</ele><time>2026-03-22T09:31:18.383Z</time></trkpt><trkpt lat="43.07581" lon="13.2593517"><ele>487.99999999999994</ele><time>2026-03-22T09:31:19.364Z</time></trkpt><trkpt lat="43.075745" lon="13.2593533"><ele>487.99999999999994</ele><time>2026-03-22T09:31:20.421Z</time></trkpt><trkpt lat="43.0756467" lon="13.2593183"><ele>488.0</ele><time>2026-03-22T09:31:22.381Z</time></trkpt><trkpt lat="43.0755883" lon="13.2592417"><ele>487.99999999999994</ele><time>2026-03-22T09:31:24.373Z</time></trkpt><trkpt lat="43.0755817" lon="13.2591517"><ele>487.99999999999994</ele><time>2026-03-22T09:31:26.377Z</time></trkpt><trkpt lat="43.075505" lon="13.25909"><ele>490.0</ele><time>2026-03-22T09:31:29.375Z</time></trkpt><trkpt lat="43.0753883" lon="13.2590717"><ele>491.99999999999994</ele><time>2026-03-22T09:31:31.383Z</time></trkpt><trkpt lat="43.0752967" lon="13.25907"><ele>493.99999999999994</ele><time>2026-03-22T09:31:32.385Z</time></trkpt><trkpt lat="43.0751833" lon="13.2590717"><ele>496.0</ele><time>2026-03-22T09:31:33.383Z</time></trkpt><trkpt lat="43.0750983" lon="13.259065"><ele>498.0</ele><time>2026-03-22T09:31:34.386Z</time></trkpt><trkpt lat="43.0749883" lon="13.2590567"><ele>498.0</ele><time>2026-03-22T09:31:36.365Z</time></trkpt><trkpt lat="43.0749583" lon="13.2589717"><ele>497.99999999999994</ele><time>2026-03-22T09:31:38.421Z</time></trkpt><trkpt lat="43.0750633" lon="13.2588617"><ele>497.99999999999994</ele><time>2026-03-22T09:31:40.38Z</time></trkpt><trkpt lat="43.0751533" lon="13.2588033"><ele>498.0</ele><time>2026-03-22T09:31:41.379Z</time></trkpt><trkpt lat="43.075265" lon="13.25874"><ele>498.0</ele><time>2026-03-22T09:31:42.381Z</time></trkpt><trkpt lat="43.0754083" lon="13.2586867"><ele>505.0</ele><time>2026-03-22T09:31:43.385Z</time></trkpt><trkpt lat="43.0755767" lon="13.2586283"><ele>512.0</ele><time>2026-03-22T09:31:44.424Z</time></trkpt><trkpt lat="43.0757383" lon="13.25857"><ele>519.0</ele><time>2026-03-22T09:31:45.384Z</time></trkpt><trkpt lat="43.0758817" lon="13.2585183"><ele>519.0</ele><time>2026-03-22T09:31:46.385Z</time></trkpt><trkpt lat="43.0760167" lon="13.2584667"><ele>519.0</ele><time>2026-03-22T09:31:47.381Z</time></trkpt><trkpt lat="43.07615" lon="13.2584367"><ele>519.0</ele><time>2026-03-22T09:31:48.388Z</time></trkpt><trkpt lat="43.0762783" lon="13.25842"><ele>519.0</ele><time>2026-03-22T09:31:49.381Z</time></trkpt><trkpt lat="43.07641" lon="13.258415"><ele>519.0</ele><time>2026-03-22T09:31:50.423Z</time></trkpt><trkpt lat="43.0765367" lon="13.2583967"><ele>519.0</ele><time>2026-03-22T09:31:51.385Z</time></trkpt><trkpt lat="43.0766583" lon="13.2583567"><ele>519.0</ele><time>2026-03-22T09:31:52.384Z</time></trkpt><trkpt lat="43.0767633" lon="13.2582867"><ele>519.0</ele><time>2026-03-22T09:31:53.366Z</time></trkpt><trkpt lat="43.07684" lon="13.25818"><ele>516.0</ele><time>2026-03-22T09:31:54.388Z</time></trkpt><trkpt lat="43.0768867" lon="13.2580467"><ele>513.0</ele><time>2026-03-22T09:31:55.385Z</time></trkpt><trkpt lat="43.076915" lon="13.2578817"><ele>510.0</ele><time>2026-03-22T09:31:56.385Z</time></trkpt><trkpt lat="43.0769267" lon="13.2576967"><ele>507.0</ele><time>2026-03-22T09:31:57.386Z</time></trkpt><trkpt lat="43.076945" lon="13.2575233"><ele>507.0</ele><time>2026-03-22T09:31:58.379Z</time></trkpt><trkpt lat="43.0769467" lon="13.25735"><ele>507.0</ele><time>2026-03-22T09:31:59.384Z</time></trkpt><trkpt lat="43.0769217" lon="13.2571933"><ele>507.0</ele><time>2026-03-22T09:32:00.385Z</time></trkpt><trkpt lat="43.07687" lon="13.2570483"><ele>507.0</ele><time>2026-03-22T09:32:01.387Z</time></trkpt><trkpt lat="43.0767983" lon="13.256915"><ele>509.25</ele><time>2026-03-22T09:32:02.436Z</time></trkpt><trkpt lat="43.0767017" lon="13.2567933"><ele>511.5</ele><time>2026-03-22T09:32:03.379Z</time></trkpt><trkpt lat="43.0765867" lon="13.25667"><ele>513.75</ele><time>2026-03-22T09:32:04.384Z</time></trkpt><trkpt lat="43.076465" lon="13.2565417"><ele>516.0</ele><time>2026-03-22T09:32:05.384Z</time></trkpt><trkpt lat="43.0763433" lon="13.2564"><ele>516.0</ele><time>2026-03-22T09:32:06.378Z</time></trkpt><trkpt lat="43.076235" lon="13.2562433"><ele>516.0</ele><time>2026-03-22T09:32:07.385Z</time></trkpt><trkpt lat="43.0761417" lon="13.256065"><ele>516.0</ele><time>2026-03-22T09:32:08.421Z</time></trkpt><trkpt lat="43.0760533" lon="13.2558767"><ele>516.0</ele><time>2026-03-22T09:32:09.384Z</time></trkpt><trkpt lat="43.075955" lon="13.2557"><ele>516.0</ele><time>2026-03-22T09:32:10.378Z</time></trkpt><trkpt lat="43.075835" lon="13.25554"><ele>516.0</ele><time>2026-03-22T09:32:11.377Z</time></trkpt><trkpt lat="43.0757133" lon="13.2553917"><ele>521.3333333333334</ele><time>2026-03-22T09:32:12.383Z</time></trkpt><trkpt lat="43.07558" lon="13.2552633"><ele>526.6666666666667</ele><time>2026-03-22T09:32:13.384Z</time></trkpt><trkpt lat="43.075435" lon="13.2551633"><ele>532.0</ele><time>2026-03-22T09:32:14.406Z</time></trkpt><trkpt lat="43.0752933" lon="13.25508"><ele>532.0</ele><time>2026-03-22T09:32:15.375Z</time></trkpt><trkpt lat="43.0751467" lon="13.2549983"><ele>532.0</ele><time>2026-03-22T09:32:16.381Z</time></trkpt><trkpt lat="43.07501" lon="13.2549"><ele>532.0</ele><time>2026-03-22T09:32:17.383Z</time></trkpt><trkpt lat="43.0748967" lon="13.254775"><ele>531.25</ele><time>2026-03-22T09:32:18.385Z</time></trkpt><trkpt lat="43.074785" lon="13.25465"><ele>530.5</ele><time>2026-03-22T09:32:19.381Z</time></trkpt><trkpt lat="43.0746767" lon="13.2545567"><ele>529.75</ele><time>2026-03-22T09:32:20.422Z</time></trkpt><trkpt lat="43.0745767" lon="13.254495"><ele>529.0</ele><time>2026-03-22T09:32:21.383Z</time></trkpt><trkpt lat="43.0744567" lon="13.2544783"><ele>529.0</ele><time>2026-03-22T09:32:22.384Z</time></trkpt><trkpt lat="43.074315" lon="13.2544583"><ele>529.0</ele><time>2026-03-22T09:32:23.37Z</time></trkpt><trkpt lat="43.0742067" lon="13.2544067"><ele>529.0</ele><time>2026-03-22T09:32:24.383Z</time></trkpt><trkpt lat="43.0741133" lon="13.2543283"><ele>529.0</ele><time>2026-03-22T09:32:25.383Z</time></trkpt><trkpt lat="43.0740467" lon="13.254215"><ele>528.25</ele><time>2026-03-22T09:32:26.384Z</time></trkpt><trkpt lat="43.0740183" lon="13.254065"><ele>527.5</ele><time>2026-03-22T09:32:27.382Z</time></trkpt><trkpt lat="43.0740517" lon="13.2538867"><ele>526.75</ele><time>2026-03-22T09:32:28.382Z</time></trkpt><trkpt lat="43.0741333" lon="13.2536967"><ele>526.0</ele><time>2026-03-22T09:32:29.387Z</time></trkpt><trkpt lat="43.0742217" lon="13.2535217"><ele>526.0</ele><time>2026-03-22T09:32:30.384Z</time></trkpt><trkpt lat="43.0742917" lon="13.2533667"><ele>526.0</ele><time>2026-03-22T09:32:31.373Z</time></trkpt><trkpt lat="43.074335" lon="13.2532283"><ele>526.0</ele><time>2026-03-22T09:32:32.387Z</time></trkpt><trkpt lat="43.0743717" lon="13.253105"><ele>526.0</ele><time>2026-03-22T09:32:33.381Z</time></trkpt><trkpt lat="43.0744067" lon="13.2529967"><ele>526.0</ele><time>2026-03-22T09:32:34.387Z</time></trkpt><trkpt lat="43.0744433" lon="13.25289"><ele>525.8</ele><time>2026-03-22T09:32:35.383Z</time></trkpt><trkpt lat="43.0744683" lon="13.2527817"><ele>525.6</ele><time>2026-03-22T09:32:36.376Z</time></trkpt><trkpt lat="43.0744767" lon="13.2526683"><ele>525.4</ele><time>2026-03-22T09:32:37.382Z</time></trkpt><trkpt lat="43.074465" lon="13.2525383"><ele>525.2</ele><time>2026-03-22T09:32:38.419Z</time></trkpt><trkpt lat="43.074445" lon="13.2523933"><ele>525.0</ele><time>2026-03-22T09:32:39.386Z</time></trkpt><trkpt lat="43.0744267" lon="13.252235"><ele>523.75</ele><time>2026-03-22T09:32:40.38Z</time></trkpt><trkpt lat="43.0744067" lon="13.2520617"><ele>522.5</ele><time>2026-03-22T09:32:41.386Z</time></trkpt><trkpt lat="43.0743917" lon="13.251885"><ele>521.25</ele><time>2026-03-22T09:32:42.382Z</time></trkpt><trkpt lat="43.0743833" lon="13.25171"><ele>520.0</ele><time>2026-03-22T09:32:43.377Z</time></trkpt><trkpt lat="43.0743717" lon="13.251555"><ele>517.8</ele><time>2026-03-22T09:32:44.42Z</time></trkpt><trkpt lat="43.07436" lon="13.2514233"><ele>515.6</ele><time>2026-03-22T09:32:45.377Z</time></trkpt><trkpt lat="43.0743233" lon="13.2513"><ele>513.4</ele><time>2026-03-22T09:32:46.384Z</time></trkpt><trkpt lat="43.07428" lon="13.25118"><ele>511.2</ele><time>2026-03-22T09:32:47.387Z</time></trkpt><trkpt lat="43.07424" lon="13.2510483"><ele>509.0</ele><time>2026-03-22T09:32:48.376Z</time></trkpt><trkpt lat="43.0741883" lon="13.25091"><ele>509.0</ele><time>2026-03-22T09:32:49.384Z</time></trkpt><trkpt lat="43.0741367" lon="13.25075"><ele>509.0</ele><time>2026-03-22T09:32:50.424Z</time></trkpt><trkpt lat="43.0740917" lon="13.2505767"><ele>509.0</ele><time>2026-03-22T09:32:51.379Z</time></trkpt><trkpt lat="43.07406" lon="13.250405"><ele>509.0</ele><time>2026-03-22T09:32:52.385Z</time></trkpt><trkpt lat="43.0740317" lon="13.2502217"><ele>511.0</ele><time>2026-03-22T09:32:53.369Z</time></trkpt><trkpt lat="43.0740067" lon="13.2500333"><ele>513.0</ele><time>2026-03-22T09:32:54.369Z</time></trkpt><trkpt lat="43.0739867" lon="13.2498567"><ele>515.0</ele><time>2026-03-22T09:32:55.385Z</time></trkpt><trkpt lat="43.0739633" lon="13.2496917"><ele>517.0</ele><time>2026-03-22T09:32:56.385Z</time></trkpt><trkpt lat="43.07394" lon="13.2495333"><ele>517.0</ele><time>2026-03-22T09:32:57.385Z</time></trkpt><trkpt lat="43.0739067" lon="13.2493883"><ele>517.0</ele><time>2026-03-22T09:32:58.384Z</time></trkpt><trkpt lat="43.0738667" lon="13.2492467"><ele>517.0</ele><time>2026-03-22T09:32:59.384Z</time></trkpt><trkpt lat="43.0738267" lon="13.2491083"><ele>517.0</ele><time>2026-03-22T09:33:00.388Z</time></trkpt><trkpt lat="43.0737767" lon="13.2489867"><ele>517.0</ele><time>2026-03-22T09:33:01.362Z</time></trkpt><trkpt lat="43.073715" lon="13.2488667"><ele>513.6</ele><time>2026-03-22T09:33:02.387Z</time></trkpt><trkpt lat="43.0736533" lon="13.2487433"><ele>510.20000000000005</ele><time>2026-03-22T09:33:03.388Z</time></trkpt><trkpt lat="43.0735883" lon="13.2486167"><ele>506.8</ele><time>2026-03-22T09:33:04.383Z</time></trkpt><trkpt lat="43.0735283" lon="13.2484917"><ele>503.4</ele><time>2026-03-22T09:33:05.385Z</time></trkpt><trkpt lat="43.073475" lon="13.2483733"><ele>500.0</ele><time>2026-03-22T09:33:06.359Z</time></trkpt><trkpt lat="43.0734267" lon="13.24825"><ele>498.8</ele><time>2026-03-22T09:33:07.385Z</time></trkpt><trkpt lat="43.0733833" lon="13.2481167"><ele>497.6</ele><time>2026-03-22T09:33:08.427Z</time></trkpt><trkpt lat="43.073345" lon="13.2479833"><ele>496.4</ele><time>2026-03-22T09:33:09.366Z</time></trkpt><trkpt lat="43.0733017" lon="13.2478533"><ele>495.2</ele><time>2026-03-22T09:33:10.385Z</time></trkpt><trkpt lat="43.073255" lon="13.24771"><ele>494.0</ele><time>2026-03-22T09:33:11.387Z</time></trkpt><trkpt lat="43.07321" lon="13.2475683"><ele>494.0</ele><time>2026-03-22T09:33:12.387Z</time></trkpt><trkpt lat="43.0731783" lon="13.247435"><ele>494.0</ele><time>2026-03-22T09:33:13.385Z</time></trkpt><trkpt lat="43.0731617" lon="13.2473317"><ele>494.0</ele><time>2026-03-22T09:33:14.398Z</time></trkpt><trkpt lat="43.0731433" lon="13.2472067"><ele>494.0</ele><time>2026-03-22T09:33:16.385Z</time></trkpt><trkpt lat="43.0730667" lon="13.2471383"><ele>494.0</ele><time>2026-03-22T09:33:19.37Z</time></trkpt><trkpt lat="43.0729617" lon="13.2471117"><ele>493.6</ele><time>2026-03-22T09:33:21.386Z</time></trkpt><trkpt lat="43.0728483" lon="13.24709"><ele>493.2</ele><time>2026-03-22T09:33:23.383Z</time></trkpt><trkpt lat="43.0727267" lon="13.247045"><ele>492.80000000000007</ele><time>2026-03-22T09:33:25.365Z</time></trkpt><trkpt lat="43.0726633" lon="13.24703"><ele>492.40000000000003</ele><time>2026-03-22T09:33:26.384Z</time></trkpt><trkpt lat="43.072545" lon="13.2470117"><ele>492.0</ele><time>2026-03-22T09:33:28.382Z</time></trkpt><trkpt lat="43.0724317" lon="13.2469967"><ele>492.0</ele><time>2026-03-22T09:33:30.385Z</time></trkpt><trkpt lat="43.0723283" lon="13.2469833"><ele>492.0</ele><time>2026-03-22T09:33:32.387Z</time></trkpt><trkpt lat="43.07224" lon="13.2469533"><ele>492.0</ele><time>2026-03-22T09:33:34.381Z</time></trkpt><trkpt lat="43.0721733" lon="13.2469233"><ele>492.0</ele><time>2026-03-22T09:33:36.386Z</time></trkpt><trkpt lat="43.0720933" lon="13.2469083"><ele>492.0</ele><time>2026-03-22T09:33:38.422Z</time></trkpt><trkpt lat="43.0720167" lon="13.2469067"><ele>492.0</ele><time>2026-03-22T09:33:41.377Z</time></trkpt><trkpt lat="43.0719983" lon="13.2468"><ele>492.00000000000006</ele><time>2026-03-22T09:34:03.376Z</time></trkpt><trkpt lat="43.0720567" lon="13.246755"><ele>492.0</ele><time>2026-03-22T09:34:05.375Z</time></trkpt><trkpt lat="43.072045" lon="13.24666"><ele>492.00000000000006</ele><time>2026-03-22T09:34:18.364Z</time></trkpt><trkpt lat="43.0721017" lon="13.2465867"><ele>492.00000000000006</ele><time>2026-03-22T09:34:22.369Z</time></trkpt><trkpt lat="43.07216" lon="13.2465517"><ele>492.0</ele><time>2026-03-22T09:34:25.358Z</time></trkpt><trkpt lat="43.0722233" lon="13.2465133"><ele>492.00000000000006</ele><time>2026-03-22T09:34:27.377Z</time></trkpt><trkpt lat="43.072305" lon="13.2464733"><ele>492.00000000000006</ele><time>2026-03-22T09:34:29.369Z</time></trkpt><trkpt lat="43.0723983" lon="13.2464217"><ele>486.8</ele><time>2026-03-22T09:34:31.363Z</time></trkpt><trkpt lat="43.0724767" lon="13.24632"><ele>481.6</ele><time>2026-03-22T09:34:33.383Z</time></trkpt><trkpt lat="43.0725617" lon="13.2461883"><ele>476.40000000000003</ele><time>2026-03-22T09:34:35.37Z</time></trkpt><trkpt lat="43.0725983" lon="13.2461117"><ele>471.20000000000005</ele><time>2026-03-22T09:34:36.38Z</time></trkpt><trkpt lat="43.072655" lon="13.2460167"><ele>466.0</ele><time>2026-03-22T09:34:38.422Z</time></trkpt><trkpt lat="43.0725933" lon="13.246045"><ele>466.0</ele><time>2026-03-22T09:34:43.38Z</time></trkpt><trkpt lat="43.0725" lon="13.2460983"><ele>466.0</ele><time>2026-03-22T09:34:45.379Z</time></trkpt><trkpt lat="43.0724217" lon="13.2461117"><ele>466.0</ele><time>2026-03-22T09:34:48.378Z</time></trkpt><trkpt lat="43.0723567" lon="13.2460067"><ele>466.0</ele><time>2026-03-22T09:34:51.374Z</time></trkpt><trkpt lat="43.07225" lon="13.245935"><ele>466.0</ele><time>2026-03-22T09:34:53.371Z</time></trkpt><trkpt lat="43.07215" lon="13.2458617"><ele>475.6</ele><time>2026-03-22T09:34:55.386Z</time></trkpt><trkpt lat="43.0720933" lon="13.2457383"><ele>485.20000000000005</ele><time>2026-03-22T09:34:57.378Z</time></trkpt><trkpt lat="43.0720183" lon="13.2457233"><ele>494.79999999999995</ele><time>2026-03-22T09:35:06.379Z</time></trkpt><trkpt lat="43.0719733" lon="13.2456283"><ele>504.4</ele><time>2026-03-22T09:35:10.379Z</time></trkpt><trkpt lat="43.0719483" lon="13.2455217"><ele>514.0</ele><time>2026-03-22T09:35:12.37Z</time></trkpt><trkpt lat="43.0719317" lon="13.2453433"><ele>514.1666666666667</ele><time>2026-03-22T09:35:14.426Z</time></trkpt><trkpt lat="43.071905" lon="13.2452417"><ele>514.3333333333334</ele><time>2026-03-22T09:35:15.383Z</time></trkpt><trkpt lat="43.07188" lon="13.2451467"><ele>514.5</ele><time>2026-03-22T09:35:16.372Z</time></trkpt><trkpt lat="43.0718467" lon="13.2450417"><ele>514.6666666666666</ele><time>2026-03-22T09:35:17.375Z</time></trkpt><trkpt lat="43.0718133" lon="13.2449433"><ele>514.8333333333333</ele><time>2026-03-22T09:35:18.385Z</time></trkpt><trkpt lat="43.0717883" lon="13.2448517"><ele>515.0</ele><time>2026-03-22T09:35:19.384Z</time></trkpt><trkpt lat="43.07178" lon="13.24476"><ele>515.0</ele><time>2026-03-22T09:35:20.429Z</time></trkpt><trkpt lat="43.0717667" lon="13.244665"><ele>515.0</ele><time>2026-03-22T09:35:21.379Z</time></trkpt><trkpt lat="43.0717583" lon="13.2445783"><ele>515.0</ele><time>2026-03-22T09:35:22.389Z</time></trkpt><trkpt lat="43.0717333" lon="13.2444167"><ele>515.0</ele><time>2026-03-22T09:35:24.371Z</time></trkpt><trkpt lat="43.0716983" lon="13.2442717"><ele>515.0</ele><time>2026-03-22T09:35:26.386Z</time></trkpt><trkpt lat="43.07165" lon="13.2441317"><ele>515.0</ele><time>2026-03-22T09:35:28.37Z</time></trkpt><trkpt lat="43.0716267" lon="13.2439767"><ele>515.0</ele><time>2026-03-22T09:35:30.387Z</time></trkpt><trkpt lat="43.0716183" lon="13.243885"><ele>515.0</ele><time>2026-03-22T09:35:31.382Z</time></trkpt><trkpt lat="43.071605" lon="13.2437833"><ele>515.0</ele><time>2026-03-22T09:35:32.385Z</time></trkpt><trkpt lat="43.0715917" lon="13.243675"><ele>515.0</ele><time>2026-03-22T09:35:33.383Z</time></trkpt><trkpt lat="43.07158" lon="13.2435617"><ele>515.0</ele><time>2026-03-22T09:35:34.385Z</time></trkpt><trkpt lat="43.0715517" lon="13.243445"><ele>518.6666666666666</ele><time>2026-03-22T09:35:35.386Z</time></trkpt><trkpt lat="43.0715183" lon="13.2433283"><ele>522.3333333333333</ele><time>2026-03-22T09:35:36.39Z</time></trkpt><trkpt lat="43.07149" lon="13.243225"><ele>526.0</ele><time>2026-03-22T09:35:37.386Z</time></trkpt><trkpt lat="43.0714667" lon="13.2431183"><ele>529.6666666666666</ele><time>2026-03-22T09:35:38.431Z</time></trkpt><trkpt lat="43.07145" lon="13.243005"><ele>533.3333333333334</ele><time>2026-03-22T09:35:39.381Z</time></trkpt><trkpt lat="43.0714317" lon="13.24288"><ele>537.0</ele><time>2026-03-22T09:35:40.381Z</time></trkpt><trkpt lat="43.0714117" lon="13.2427583"><ele>537.0</ele><time>2026-03-22T09:35:41.384Z</time></trkpt><trkpt lat="43.0713917" lon="13.24264"><ele>537.0</ele><time>2026-03-22T09:35:42.382Z</time></trkpt><trkpt lat="43.0713717" lon="13.2425333"><ele>537.0</ele><time>2026-03-22T09:35:43.387Z</time></trkpt><trkpt lat="43.071345" lon="13.2424367"><ele>537.0</ele><time>2026-03-22T09:35:44.432Z</time></trkpt><trkpt lat="43.0713067" lon="13.242355"><ele>537.0</ele><time>2026-03-22T09:35:45.364Z</time></trkpt><trkpt lat="43.0712583" lon="13.2422767"><ele>537.0</ele><time>2026-03-22T09:35:46.386Z</time></trkpt><trkpt lat="43.0712067" lon="13.242185"><ele>532.5</ele><time>2026-03-22T09:35:47.386Z</time></trkpt><trkpt lat="43.07116" lon="13.2420917"><ele>528.0</ele><time>2026-03-22T09:35:48.385Z</time></trkpt><trkpt lat="43.0711117" lon="13.2419983"><ele>523.5</ele><time>2026-03-22T09:35:49.383Z</time></trkpt><trkpt lat="43.0710667" lon="13.2419083"><ele>519.0</ele><time>2026-03-22T09:35:50.431Z</time></trkpt><trkpt lat="43.0710217" lon="13.241815"><ele>514.5</ele><time>2026-03-22T09:35:51.36Z</time></trkpt><trkpt lat="43.0709717" lon="13.241725"><ele>510.0</ele><time>2026-03-22T09:35:52.358Z</time></trkpt><trkpt lat="43.070925" lon="13.24163"><ele>510.0</ele><time>2026-03-22T09:35:53.373Z</time></trkpt><trkpt lat="43.0708667" lon="13.2415333"><ele>510.0</ele><time>2026-03-22T09:35:54.356Z</time></trkpt><trkpt lat="43.070805" lon="13.2414383"><ele>510.0</ele><time>2026-03-22T09:35:55.381Z</time></trkpt><trkpt lat="43.0707417" lon="13.2413533"><ele>510.0</ele><time>2026-03-22T09:35:56.366Z</time></trkpt><trkpt lat="43.0706767" lon="13.2412717"><ele>510.0</ele><time>2026-03-22T09:35:57.38Z</time></trkpt><trkpt lat="43.070615" lon="13.2411983"><ele>510.0</ele><time>2026-03-22T09:35:58.381Z</time></trkpt><trkpt lat="43.0705583" lon="13.241125"><ele>510.8333333333333</ele><time>2026-03-22T09:35:59.378Z</time></trkpt><trkpt lat="43.070515" lon="13.2410467"><ele>511.66666666666663</ele><time>2026-03-22T09:36:00.375Z</time></trkpt><trkpt lat="43.0704867" lon="13.24096"><ele>512.5</ele><time>2026-03-22T09:36:01.37Z</time></trkpt><trkpt lat="43.070455" lon="13.240875"><ele>513.3333333333333</ele><time>2026-03-22T09:36:02.36Z</time></trkpt><trkpt lat="43.070425" lon="13.2407867"><ele>514.1666666666666</ele><time>2026-03-22T09:36:03.383Z</time></trkpt><trkpt lat="43.0703583" lon="13.2406483"><ele>515.0</ele><time>2026-03-22T09:36:05.383Z</time></trkpt><trkpt lat="43.0702667" lon="13.2405333"><ele>513.1666666666666</ele><time>2026-03-22T09:36:07.387Z</time></trkpt><trkpt lat="43.0702083" lon="13.2404867"><ele>511.3333333333333</ele><time>2026-03-22T09:36:08.432Z</time></trkpt><trkpt lat="43.070095" lon="13.2403867"><ele>509.5</ele><time>2026-03-22T09:36:10.38Z</time></trkpt><trkpt lat="43.0700417" lon="13.2403383"><ele>507.66666666666663</ele><time>2026-03-22T09:36:11.377Z</time></trkpt><trkpt lat="43.06999" lon="13.2402883"><ele>505.8333333333333</ele><time>2026-03-22T09:36:12.384Z</time></trkpt><trkpt lat="43.069995" lon="13.2401933"><ele>504.0</ele><time>2026-03-22T09:36:15.373Z</time></trkpt><trkpt lat="43.070065" lon="13.240205"><ele>504.0</ele><time>2026-03-22T09:36:16.383Z</time></trkpt><trkpt lat="43.07014" lon="13.2401883"><ele>504.0</ele><time>2026-03-22T09:36:17.375Z</time></trkpt><trkpt lat="43.07021" lon="13.240175"><ele>504.0</ele><time>2026-03-22T09:36:18.383Z</time></trkpt><trkpt lat="43.0702833" lon="13.2401667"><ele>504.0</ele><time>2026-03-22T09:36:19.383Z</time></trkpt><trkpt lat="43.0703583" lon="13.2401667"><ele>504.0</ele><time>2026-03-22T09:36:20.429Z</time></trkpt><trkpt lat="43.070455" lon="13.2401633"><ele>504.0</ele><time>2026-03-22T09:36:21.374Z</time></trkpt><trkpt lat="43.0705783" lon="13.2401633"><ele>504.0</ele><time>2026-03-22T09:36:22.382Z</time></trkpt><trkpt lat="43.0706917" lon="13.240185"><ele>504.0</ele><time>2026-03-22T09:36:23.385Z</time></trkpt><trkpt lat="43.0707883" lon="13.240225"><ele>504.0</ele><time>2026-03-22T09:36:24.376Z</time></trkpt><trkpt lat="43.07089" lon="13.2402633"><ele>504.0</ele><time>2026-03-22T09:36:25.383Z</time></trkpt><trkpt lat="43.07098" lon="13.2403167"><ele>504.0</ele><time>2026-03-22T09:36:26.39Z</time></trkpt><trkpt lat="43.0710583" lon="13.2403333"><ele>506.6666666666667</ele><time>2026-03-22T09:36:27.373Z</time></trkpt><trkpt lat="43.07114" lon="13.24035"><ele>509.33333333333337</ele><time>2026-03-22T09:36:28.382Z</time></trkpt><trkpt lat="43.0712233" lon="13.2403383"><ele>512.0</ele><time>2026-03-22T09:36:29.386Z</time></trkpt><trkpt lat="43.0713167" lon="13.2402667"><ele>514.6666666666667</ele><time>2026-03-22T09:36:31.373Z</time></trkpt><trkpt lat="43.0713517" lon="13.24018"><ele>517.3333333333334</ele><time>2026-03-22T09:36:45.374Z</time></trkpt><trkpt lat="43.0714067" lon="13.2401283"><ele>520.0</ele><time>2026-03-22T09:36:47.374Z</time></trkpt><trkpt lat="43.0714833" lon="13.239985"><ele>520.0</ele><time>2026-03-22T09:36:49.381Z</time></trkpt><trkpt lat="43.071515" lon="13.23989"><ele>520.0</ele><time>2026-03-22T09:36:50.432Z</time></trkpt><trkpt lat="43.0715417" lon="13.2397967"><ele>520.0</ele><time>2026-03-22T09:36:51.384Z</time></trkpt><trkpt lat="43.0715667" lon="13.2397167"><ele>520.0</ele><time>2026-03-22T09:36:52.384Z</time></trkpt><trkpt lat="43.071615" lon="13.23962"><ele>520.0</ele><time>2026-03-22T09:36:54.387Z</time></trkpt><trkpt lat="43.0716767" lon="13.239675"><ele>520.0</ele><time>2026-03-22T09:36:57.383Z</time></trkpt><trkpt lat="43.0717467" lon="13.239785"><ele>516.0</ele><time>2026-03-22T09:36:59.386Z</time></trkpt><trkpt lat="43.071825" lon="13.2398933"><ele>512.0</ele><time>2026-03-22T09:37:01.365Z</time></trkpt><trkpt lat="43.071945" lon="13.2399533"><ele>508.0</ele><time>2026-03-22T09:37:03.383Z</time></trkpt><trkpt lat="43.07202" lon="13.2399617"><ele>504.0</ele><time>2026-03-22T09:37:04.374Z</time></trkpt><trkpt lat="43.07209" lon="13.23995"><ele>500.0</ele><time>2026-03-22T09:37:05.383Z</time></trkpt><trkpt lat="43.0721817" lon="13.2398833"><ele>500.66666666666663</ele><time>2026-03-22T09:37:07.384Z</time></trkpt><trkpt lat="43.0721917" lon="13.2397717"><ele>501.3333333333333</ele><time>2026-03-22T09:37:09.36Z</time></trkpt><trkpt lat="43.0721567" lon="13.239655"><ele>502.0</ele><time>2026-03-22T09:37:11.369Z</time></trkpt><trkpt lat="43.0721267" lon="13.2395733"><ele>502.66666666666663</ele><time>2026-03-22T09:37:12.378Z</time></trkpt><trkpt lat="43.0721017" lon="13.239465"><ele>503.3333333333333</ele><time>2026-03-22T09:37:13.374Z</time></trkpt><trkpt lat="43.0720867" lon="13.23932"><ele>504.0</ele><time>2026-03-22T09:37:14.424Z</time></trkpt><trkpt lat="43.0720767" lon="13.2391717"><ele>504.0</ele><time>2026-03-22T09:37:15.378Z</time></trkpt><trkpt lat="43.072065" lon="13.2390333"><ele>504.0</ele><time>2026-03-22T09:37:16.375Z</time></trkpt><trkpt lat="43.072095" lon="13.238855"><ele>504.0</ele><time>2026-03-22T09:37:17.38Z</time></trkpt><trkpt lat="43.0721167" lon="13.238705"><ele>504.0</ele><time>2026-03-22T09:37:18.369Z</time></trkpt><trkpt lat="43.0721367" lon="13.2385383"><ele>508.5</ele><time>2026-03-22T09:37:19.38Z</time></trkpt><trkpt lat="43.0721933" lon="13.2383567"><ele>513.0</ele><time>2026-03-22T09:37:20.424Z</time></trkpt><trkpt lat="43.07225" lon="13.2381967"><ele>517.5</ele><time>2026-03-22T09:37:21.375Z</time></trkpt><trkpt lat="43.0723117" lon="13.2380583"><ele>522.0</ele><time>2026-03-22T09:37:22.375Z</time></trkpt><trkpt lat="43.0723667" lon="13.23793"><ele>524.5</ele><time>2026-03-22T09:37:23.377Z</time></trkpt><trkpt lat="43.0724367" lon="13.23784"><ele>527.0</ele><time>2026-03-22T09:37:24.372Z</time></trkpt><trkpt lat="43.0725117" lon="13.2377567"><ele>529.5</ele><time>2026-03-22T09:37:25.387Z</time></trkpt><trkpt lat="43.072615" lon="13.23769"><ele>532.0</ele><time>2026-03-22T09:37:26.385Z</time></trkpt><trkpt lat="43.0727517" lon="13.23763"><ele>514.6666666666667</ele><time>2026-03-22T09:37:27.382Z</time></trkpt><trkpt lat="43.072915" lon="13.237585"><ele>497.33333333333337</ele><time>2026-03-22T09:37:28.384Z</time></trkpt><trkpt lat="43.073045" lon="13.2375067"><ele>480.0</ele><time>2026-03-22T09:37:29.383Z</time></trkpt><trkpt lat="43.07318" lon="13.23741"><ele>478.75</ele><time>2026-03-22T09:37:30.386Z</time></trkpt><trkpt lat="43.0733033" lon="13.2372967"><ele>477.5</ele><time>2026-03-22T09:37:31.382Z</time></trkpt><trkpt lat="43.0733883" lon="13.237175"><ele>476.25</ele><time>2026-03-22T09:37:32.439Z</time></trkpt><trkpt lat="43.0734483" lon="13.2370467"><ele>475.0</ele><time>2026-03-22T09:37:33.378Z</time></trkpt><trkpt lat="43.0734717" lon="13.2369117"><ele>475.0</ele><time>2026-03-22T09:37:34.382Z</time></trkpt><trkpt lat="43.0733167" lon="13.236735"><ele>475.0</ele><time>2026-03-22T09:37:35.386Z</time></trkpt><trkpt lat="43.0732517" lon="13.2365883"><ele>475.0</ele><time>2026-03-22T09:37:36.386Z</time></trkpt><trkpt lat="43.07318" lon="13.2364367"><ele>474.0</ele><time>2026-03-22T09:37:37.382Z</time></trkpt><trkpt lat="43.0731083" lon="13.2362867"><ele>473.0</ele><time>2026-03-22T09:37:38.43Z</time></trkpt><trkpt lat="43.073065" lon="13.23613"><ele>472.0</ele><time>2026-03-22T09:37:39.385Z</time></trkpt><trkpt lat="43.0730517" lon="13.2359567"><ele>471.0</ele><time>2026-03-22T09:37:40.386Z</time></trkpt><trkpt lat="43.0730533" lon="13.235785"><ele>472.0</ele><time>2026-03-22T09:37:41.377Z</time></trkpt><trkpt lat="43.0730817" lon="13.2355917"><ele>473.0</ele><time>2026-03-22T09:37:42.384Z</time></trkpt><trkpt lat="43.0731117" lon="13.235385"><ele>474.0</ele><time>2026-03-22T09:37:43.387Z</time></trkpt><trkpt lat="43.073125" lon="13.235185"><ele>475.0</ele><time>2026-03-22T09:37:44.424Z</time></trkpt><trkpt lat="43.0731433" lon="13.235005"><ele>475.0</ele><time>2026-03-22T09:37:45.382Z</time></trkpt><trkpt lat="43.073175" lon="13.2348583"><ele>475.0</ele><time>2026-03-22T09:37:46.379Z</time></trkpt><trkpt lat="43.073215" lon="13.2347283"><ele>475.0</ele><time>2026-03-22T09:37:47.387Z</time></trkpt><trkpt lat="43.0732667" lon="13.234615"><ele>475.0</ele><time>2026-03-22T09:37:48.386Z</time></trkpt><trkpt lat="43.073335" lon="13.2345167"><ele>475.0</ele><time>2026-03-22T09:37:49.36Z</time></trkpt><trkpt lat="43.073425" lon="13.2344417"><ele>479.25</ele><time>2026-03-22T09:37:50.423Z</time></trkpt><trkpt lat="43.0735217" lon="13.23438"><ele>483.5</ele><time>2026-03-22T09:37:51.375Z</time></trkpt><trkpt lat="43.07364" lon="13.2343317"><ele>487.75</ele><time>2026-03-22T09:37:52.384Z</time></trkpt><trkpt lat="43.0737567" lon="13.2342667"><ele>492.0</ele><time>2026-03-22T09:37:53.379Z</time></trkpt><trkpt lat="43.0738733" lon="13.234185"><ele>492.0</ele><time>2026-03-22T09:37:54.386Z</time></trkpt><trkpt lat="43.073985" lon="13.2340867"><ele>492.0</ele><time>2026-03-22T09:37:55.369Z</time></trkpt><trkpt lat="43.0740933" lon="13.23398"><ele>492.0</ele><time>2026-03-22T09:37:56.422Z</time></trkpt><trkpt lat="43.0742017" lon="13.23388"><ele>492.0</ele><time>2026-03-22T09:37:57.373Z</time></trkpt><trkpt lat="43.0743217" lon="13.23379"><ele>500.75</ele><time>2026-03-22T09:37:58.387Z</time></trkpt><trkpt lat="43.074455" lon="13.2337233"><ele>509.5</ele><time>2026-03-22T09:37:59.385Z</time></trkpt><trkpt lat="43.0746017" lon="13.2336933"><ele>518.25</ele><time>2026-03-22T09:38:00.384Z</time></trkpt><trkpt lat="43.0747333" lon="13.2336617"><ele>527.0</ele><time>2026-03-22T09:38:01.385Z</time></trkpt><trkpt lat="43.07486" lon="13.2336333"><ele>529.25</ele><time>2026-03-22T09:38:02.415Z</time></trkpt><trkpt lat="43.0749717" lon="13.2335733"><ele>531.5</ele><time>2026-03-22T09:38:03.37Z</time></trkpt><trkpt lat="43.075075" lon="13.2335133"><ele>533.75</ele><time>2026-03-22T09:38:04.37Z</time></trkpt><trkpt lat="43.07519" lon="13.2334767"><ele>536.0</ele><time>2026-03-22T09:38:05.383Z</time></trkpt><trkpt lat="43.0753083" lon="13.2334583"><ele>536.0</ele><time>2026-03-22T09:38:06.388Z</time></trkpt><trkpt lat="43.0754317" lon="13.23344"><ele>536.0</ele><time>2026-03-22T09:38:07.383Z</time></trkpt><trkpt lat="43.0755633" lon="13.233415"><ele>536.0</ele><time>2026-03-22T09:38:08.421Z</time></trkpt><trkpt lat="43.0756933" lon="13.2333767"><ele>536.0</ele><time>2026-03-22T09:38:09.384Z</time></trkpt><trkpt lat="43.0758117" lon="13.2333283"><ele>538.5</ele><time>2026-03-22T09:38:10.382Z</time></trkpt><trkpt lat="43.07591" lon="13.2332817"><ele>541.0</ele><time>2026-03-22T09:38:11.386Z</time></trkpt><trkpt lat="43.0759883" lon="13.2332567"><ele>543.5</ele><time>2026-03-22T09:38:12.382Z</time></trkpt><trkpt lat="43.0760583" lon="13.233255"><ele>546.0</ele><time>2026-03-22T09:38:13.379Z</time></trkpt><trkpt lat="43.0761267" lon="13.2333583"><ele>548.5</ele><time>2026-03-22T09:38:15.354Z</time></trkpt><trkpt lat="43.0761033" lon="13.23347"><ele>551.0</ele><time>2026-03-22T09:38:16.379Z</time></trkpt><trkpt lat="43.0760467" lon="13.2336183"><ele>551.0</ele><time>2026-03-22T09:38:17.382Z</time></trkpt><trkpt lat="43.0759717" lon="13.23377"><ele>551.0</ele><time>2026-03-22T09:38:18.382Z</time></trkpt><trkpt lat="43.075875" lon="13.2339367"><ele>551.0</ele><time>2026-03-22T09:38:19.359Z</time></trkpt><trkpt lat="43.0757617" lon="13.2341117"><ele>548.0</ele><time>2026-03-22T09:38:20.427Z</time></trkpt><trkpt lat="43.0756667" lon="13.234295"><ele>545.0</ele><time>2026-03-22T09:38:21.385Z</time></trkpt><trkpt lat="43.0755833" lon="13.2344783"><ele>542.0</ele><time>2026-03-22T09:38:22.383Z</time></trkpt><trkpt lat="43.075515" lon="13.2346417"><ele>542.0</ele><time>2026-03-22T09:38:23.387Z</time></trkpt><trkpt lat="43.07547" lon="13.2347883"><ele>542.0</ele><time>2026-03-22T09:38:24.381Z</time></trkpt><trkpt lat="43.0754383" lon="13.2349183"><ele>542.0</ele><time>2026-03-22T09:38:25.385Z</time></trkpt><trkpt lat="43.075425" lon="13.2350383"><ele>542.0</ele><time>2026-03-22T09:38:26.44Z</time></trkpt><trkpt lat="43.0754433" lon="13.2351483"><ele>542.0</ele><time>2026-03-22T09:38:27.387Z</time></trkpt><trkpt lat="43.07549" lon="13.23524"><ele>547.75</ele><time>2026-03-22T09:38:28.384Z</time></trkpt><trkpt lat="43.0755667" lon="13.2353017"><ele>553.5</ele><time>2026-03-22T09:38:29.393Z</time></trkpt><trkpt lat="43.0756783" lon="13.23533"><ele>559.25</ele><time>2026-03-22T09:38:30.388Z</time></trkpt><trkpt lat="43.0758383" lon="13.2353167"><ele>565.0</ele><time>2026-03-22T09:38:31.384Z</time></trkpt><trkpt lat="43.0760433" lon="13.2352617"><ele>568.3333333333334</ele><time>2026-03-22T09:38:32.44Z</time></trkpt><trkpt lat="43.07624" lon="13.2352117"><ele>571.6666666666666</ele><time>2026-03-22T09:38:33.382Z</time></trkpt><trkpt lat="43.0764183" lon="13.2351833"><ele>575.0</ele><time>2026-03-22T09:38:34.385Z</time></trkpt><trkpt lat="43.0765783" lon="13.235175"><ele>579.0</ele><time>2026-03-22T09:38:35.382Z</time></trkpt><trkpt lat="43.0767333" lon="13.2351633"><ele>583.0</ele><time>2026-03-22T09:38:36.387Z</time></trkpt><trkpt lat="43.076865" lon="13.235135"><ele>587.0</ele><time>2026-03-22T09:38:37.384Z</time></trkpt><trkpt lat="43.0769617" lon="13.2350483"><ele>591.0</ele><time>2026-03-22T09:38:38.43Z</time></trkpt><trkpt lat="43.0770383" lon="13.2349133"><ele>589.0</ele><time>2026-03-22T09:38:39.38Z</time></trkpt><trkpt lat="43.0771283" lon="13.234785"><ele>587.0</ele><time>2026-03-22T09:38:40.388Z</time></trkpt><trkpt lat="43.0772317" lon="13.2346483"><ele>585.0</ele><time>2026-03-22T09:38:41.376Z</time></trkpt><trkpt lat="43.077345" lon="13.2345233"><ele>583.0</ele><time>2026-03-22T09:38:42.386Z</time></trkpt><trkpt lat="43.0774567" lon="13.23442"><ele>588.5</ele><time>2026-03-22T09:38:43.384Z</time></trkpt><trkpt lat="43.07757" lon="13.2343567"><ele>594.0</ele><time>2026-03-22T09:38:44.429Z</time></trkpt><trkpt lat="43.0776917" lon="13.2343267"><ele>599.5</ele><time>2026-03-22T09:38:45.388Z</time></trkpt><trkpt lat="43.0778217" lon="13.2343333"><ele>605.0</ele><time>2026-03-22T09:38:46.384Z</time></trkpt><trkpt lat="43.077955" lon="13.2343317"><ele>605.0</ele><time>2026-03-22T09:38:47.388Z</time></trkpt><trkpt lat="43.07808" lon="13.234295"><ele>605.0</ele><time>2026-03-22T09:38:48.391Z</time></trkpt><trkpt lat="43.0782017" lon="13.234205"><ele>605.0</ele><time>2026-03-22T09:38:49.389Z</time></trkpt><trkpt lat="43.078325" lon="13.2340633"><ele>605.0</ele><time>2026-03-22T09:38:50.439Z</time></trkpt><trkpt lat="43.0784633" lon="13.233905"><ele>608.3333333333333</ele><time>2026-03-22T09:38:51.389Z</time></trkpt><trkpt lat="43.0786017" lon="13.233755"><ele>611.6666666666666</ele><time>2026-03-22T09:38:52.389Z</time></trkpt><trkpt lat="43.0787467" lon="13.2336267"><ele>615.0</ele><time>2026-03-22T09:38:53.39Z</time></trkpt><trkpt lat="43.0788933" lon="13.23353"><ele>615.0</ele><time>2026-03-22T09:38:54.393Z</time></trkpt><trkpt lat="43.07904" lon="13.2334683"><ele>615.0</ele><time>2026-03-22T09:38:55.381Z</time></trkpt><trkpt lat="43.0791733" lon="13.233445"><ele>615.0</ele><time>2026-03-22T09:38:56.421Z</time></trkpt><trkpt lat="43.0793033" lon="13.2334533"><ele>615.0</ele><time>2026-03-22T09:38:57.391Z</time></trkpt><trkpt lat="43.079445" lon="13.2334917"><ele>621.5</ele><time>2026-03-22T09:38:58.377Z</time></trkpt><trkpt lat="43.0795917" lon="13.233555"><ele>628.0</ele><time>2026-03-22T09:38:59.387Z</time></trkpt><trkpt lat="43.0797333" lon="13.2336067"><ele>634.5</ele><time>2026-03-22T09:39:00.391Z</time></trkpt><trkpt lat="43.0798717" lon="13.2336483"><ele>641.0</ele><time>2026-03-22T09:39:01.387Z</time></trkpt><trkpt lat="43.08" lon="13.233665"><ele>646.25</ele><time>2026-03-22T09:39:02.407Z</time></trkpt><trkpt lat="43.0801183" lon="13.2336617"><ele>651.5</ele><time>2026-03-22T09:39:03.378Z</time></trkpt><trkpt lat="43.08024" lon="13.2336367"><ele>656.75</ele><time>2026-03-22T09:39:04.392Z</time></trkpt><trkpt lat="43.0803617" lon="13.2335783"><ele>662.0</ele><time>2026-03-22T09:39:05.416Z</time></trkpt><trkpt lat="43.0804783" lon="13.2334817"><ele>662.0</ele><time>2026-03-22T09:39:06.394Z</time></trkpt><trkpt lat="43.0805917" lon="13.23338"><ele>662.0</ele><time>2026-03-22T09:39:07.39Z</time></trkpt><trkpt lat="43.0807033" lon="13.23331"><ele>662.0</ele><time>2026-03-22T09:39:08.439Z</time></trkpt><trkpt lat="43.0808367" lon="13.2332667"><ele>662.0</ele><time>2026-03-22T09:39:09.392Z</time></trkpt><trkpt lat="43.08099" lon="13.2332283"><ele>664.6666666666666</ele><time>2026-03-22T09:39:10.388Z</time></trkpt><trkpt lat="43.08116" lon="13.23318"><ele>667.3333333333334</ele><time>2026-03-22T09:39:11.388Z</time></trkpt><trkpt lat="43.0813383" lon="13.2331183"><ele>670.0</ele><time>2026-03-22T09:39:12.378Z</time></trkpt><trkpt lat="43.081505" lon="13.2330467"><ele>673.75</ele><time>2026-03-22T09:39:13.391Z</time></trkpt><trkpt lat="43.08165" lon="13.2329667"><ele>677.5</ele><time>2026-03-22T09:39:14.433Z</time></trkpt><trkpt lat="43.0817767" lon="13.2328767"><ele>681.25</ele><time>2026-03-22T09:39:15.388Z</time></trkpt><trkpt lat="43.0818833" lon="13.2327867"><ele>685.0</ele><time>2026-03-22T09:39:16.388Z</time></trkpt><trkpt lat="43.0819817" lon="13.2327017"><ele>685.0</ele><time>2026-03-22T09:39:17.387Z</time></trkpt><trkpt lat="43.0820667" lon="13.2326233"><ele>685.0</ele><time>2026-03-22T09:39:18.391Z</time></trkpt><trkpt lat="43.0821533" lon="13.232565"><ele>685.0</ele><time>2026-03-22T09:39:19.367Z</time></trkpt><trkpt lat="43.0822367" lon="13.2325267"><ele>685.0</ele><time>2026-03-22T09:39:20.43Z</time></trkpt><trkpt lat="43.0823267" lon="13.2325233"><ele>685.0</ele><time>2026-03-22T09:39:21.386Z</time></trkpt><trkpt lat="43.0824183" lon="13.2325767"><ele>683.8333333333334</ele><time>2026-03-22T09:39:22.382Z</time></trkpt><trkpt lat="43.0825317" lon="13.23264"><ele>682.6666666666667</ele><time>2026-03-22T09:39:23.383Z</time></trkpt><trkpt lat="43.0826233" lon="13.2326967"><ele>681.5</ele><time>2026-03-22T09:39:24.392Z</time></trkpt><trkpt lat="43.0827067" lon="13.2327267"><ele>680.3333333333334</ele><time>2026-03-22T09:39:25.386Z</time></trkpt><trkpt lat="43.0827733" lon="13.2327433"><ele>679.1666666666666</ele><time>2026-03-22T09:39:26.446Z</time></trkpt><trkpt lat="43.08284" lon="13.2327217"><ele>678.0</ele><time>2026-03-22T09:39:27.383Z</time></trkpt><trkpt lat="43.08291" lon="13.2326683"><ele>678.0</ele><time>2026-03-22T09:39:28.389Z</time></trkpt><trkpt lat="43.08299" lon="13.2325983"><ele>678.0</ele><time>2026-03-22T09:39:29.388Z</time></trkpt><trkpt lat="43.08308" lon="13.23252"><ele>678.0</ele><time>2026-03-22T09:39:30.391Z</time></trkpt><trkpt lat="43.0831667" lon="13.2324417"><ele>678.0</ele><time>2026-03-22T09:39:31.39Z</time></trkpt><trkpt lat="43.083245" lon="13.2323633"><ele>678.0</ele><time>2026-03-22T09:39:32.39Z</time></trkpt><trkpt lat="43.08331" lon="13.2322883"><ele>680.4</ele><time>2026-03-22T09:39:33.379Z</time></trkpt><trkpt lat="43.083355" lon="13.2322117"><ele>682.8</ele><time>2026-03-22T09:39:34.365Z</time></trkpt><trkpt lat="43.083415" lon="13.2320583"><ele>685.2</ele><time>2026-03-22T09:39:36.391Z</time></trkpt><trkpt lat="43.083445" lon="13.2318883"><ele>687.6</ele><time>2026-03-22T09:39:38.437Z</time></trkpt><trkpt lat="43.0834267" lon="13.2317983"><ele>690.0</ele><time>2026-03-22T09:39:39.382Z</time></trkpt><trkpt lat="43.0833883" lon="13.23172"><ele>690.0</ele><time>2026-03-22T09:39:40.384Z</time></trkpt><trkpt lat="43.0833517" lon="13.2316017"><ele>690.0</ele><time>2026-03-22T09:39:42.372Z</time></trkpt><trkpt lat="43.08341" lon="13.2315183"><ele>690.0</ele><time>2026-03-22T09:39:44.394Z</time></trkpt><trkpt lat="43.08348" lon="13.231475"><ele>690.0</ele><time>2026-03-22T09:39:45.358Z</time></trkpt><trkpt lat="43.0835783" lon="13.2314467"><ele>690.0</ele><time>2026-03-22T09:39:46.353Z</time></trkpt><trkpt lat="43.0836667" lon="13.2314467"><ele>690.0</ele><time>2026-03-22T09:39:47.345Z</time></trkpt><trkpt lat="43.0837317" lon="13.2314567"><ele>693.8333333333334</ele><time>2026-03-22T09:39:48.353Z</time></trkpt><trkpt lat="43.0838017" lon="13.2314367"><ele>697.6666666666666</ele><time>2026-03-22T09:39:50.383Z</time></trkpt><trkpt lat="43.08382" lon="13.2313117"><ele>701.5</ele><time>2026-03-22T09:39:52.375Z</time></trkpt><trkpt lat="43.0837717" lon="13.2311967"><ele>705.3333333333333</ele><time>2026-03-22T09:39:54.39Z</time></trkpt><trkpt lat="43.0837567" lon="13.2310867"><ele>709.1666666666666</ele><time>2026-03-22T09:39:56.35Z</time></trkpt><trkpt lat="43.0837717" lon="13.230965"><ele>713.0</ele><time>2026-03-22T09:39:58.37Z</time></trkpt><trkpt lat="43.0837783" lon="13.2308117"><ele>713.0</ele><time>2026-03-22T09:40:00.367Z</time></trkpt><trkpt lat="43.0837917" lon="13.230725"><ele>713.0</ele><time>2026-03-22T09:40:01.354Z</time></trkpt><trkpt lat="43.08382" lon="13.2306467"><ele>713.0</ele><time>2026-03-22T09:40:02.385Z</time></trkpt><trkpt lat="43.0838633" lon="13.2305783"><ele>713.0</ele><time>2026-03-22T09:40:03.385Z</time></trkpt><trkpt lat="43.08395" lon="13.2304533"><ele>713.0</ele><time>2026-03-22T09:40:05.387Z</time></trkpt><trkpt lat="43.0840017" lon="13.2303917"><ele>713.0</ele><time>2026-03-22T09:40:06.377Z</time></trkpt><trkpt lat="43.0840633" lon="13.2303367"><ele>713.5</ele><time>2026-03-22T09:40:07.369Z</time></trkpt><trkpt lat="43.0841317" lon="13.2302733"><ele>714.0</ele><time>2026-03-22T09:40:08.422Z</time></trkpt><trkpt lat="43.0842017" lon="13.2302067"><ele>714.5</ele><time>2026-03-22T09:40:09.385Z</time></trkpt><trkpt lat="43.084265" lon="13.2301367"><ele>715.0</ele><time>2026-03-22T09:40:10.385Z</time></trkpt><trkpt lat="43.08432" lon="13.23005"><ele>715.5</ele><time>2026-03-22T09:40:11.378Z</time></trkpt><trkpt lat="43.084365" lon="13.2299567"><ele>716.0</ele><time>2026-03-22T09:40:12.389Z</time></trkpt><trkpt lat="43.0844117" lon="13.2298717"><ele>720.1666666666666</ele><time>2026-03-22T09:40:13.383Z</time></trkpt><trkpt lat="43.084475" lon="13.2297917"><ele>724.3333333333333</ele><time>2026-03-22T09:40:14.435Z</time></trkpt><trkpt lat="43.08454" lon="13.2297067"><ele>728.5</ele><time>2026-03-22T09:40:15.385Z</time></trkpt><trkpt lat="43.0845983" lon="13.2296217"><ele>732.6666666666666</ele><time>2026-03-22T09:40:16.377Z</time></trkpt><trkpt lat="43.0846533" lon="13.2295367"><ele>736.8333333333334</ele><time>2026-03-22T09:40:17.388Z</time></trkpt><trkpt lat="43.0846983" lon="13.22945"><ele>741.0</ele><time>2026-03-22T09:40:18.386Z</time></trkpt><trkpt lat="43.0847383" lon="13.2293767"><ele>741.0</ele><time>2026-03-22T09:40:19.386Z</time></trkpt><trkpt lat="43.08479" lon="13.22932"><ele>741.0</ele><time>2026-03-22T09:40:20.424Z</time></trkpt><trkpt lat="43.0848817" lon="13.2292383"><ele>741.0</ele><time>2026-03-22T09:40:22.389Z</time></trkpt><trkpt lat="43.084945" lon="13.2291583"><ele>741.0</ele><time>2026-03-22T09:40:24.364Z</time></trkpt><trkpt lat="43.08501" lon="13.2290567"><ele>741.0</ele><time>2026-03-22T09:40:26.434Z</time></trkpt><trkpt lat="43.0851233" lon="13.228945"><ele>741.6666666666666</ele><time>2026-03-22T09:40:28.384Z</time></trkpt><trkpt lat="43.0852017" lon="13.2288733"><ele>742.3333333333334</ele><time>2026-03-22T09:40:29.363Z</time></trkpt><trkpt lat="43.085275" lon="13.22881"><ele>743.0</ele><time>2026-03-22T09:40:30.385Z</time></trkpt><trkpt lat="43.0853467" lon="13.22875"><ele>743.6666666666667</ele><time>2026-03-22T09:40:31.388Z</time></trkpt><trkpt lat="43.0854133" lon="13.22869"><ele>744.3333333333334</ele><time>2026-03-22T09:40:32.439Z</time></trkpt><trkpt lat="43.085465" lon="13.228625"><ele>745.0</ele><time>2026-03-22T09:40:33.382Z</time></trkpt><trkpt lat="43.085495" lon="13.22847"><ele>745.0</ele><time>2026-03-22T09:40:35.388Z</time></trkpt><trkpt lat="43.08547" lon="13.228365"><ele>745.0</ele><time>2026-03-22T09:40:36.39Z</time></trkpt><trkpt lat="43.0854417" lon="13.228235"><ele>745.0</ele><time>2026-03-22T09:40:37.389Z</time></trkpt><trkpt lat="43.08542" lon="13.2281033"><ele>745.0</ele><time>2026-03-22T09:40:38.434Z</time></trkpt><trkpt lat="43.0854" lon="13.2279917"><ele>745.0</ele><time>2026-03-22T09:40:39.387Z</time></trkpt><trkpt lat="43.0853517" lon="13.2278683"><ele>748.8333333333334</ele><time>2026-03-22T09:40:41.387Z</time></trkpt><trkpt lat="43.085285" lon="13.2278583"><ele>752.6666666666667</ele><time>2026-03-22T09:40:43.378Z</time></trkpt><trkpt lat="43.0852067" lon="13.2278617"><ele>756.5</ele><time>2026-03-22T09:40:45.363Z</time></trkpt><trkpt lat="43.0851267" lon="13.2279017"><ele>760.3333333333334</ele><time>2026-03-22T09:40:47.377Z</time></trkpt><trkpt lat="43.0850117" lon="13.22795"><ele>764.1666666666666</ele><time>2026-03-22T09:40:49.388Z</time></trkpt><trkpt lat="43.084935" lon="13.2279467"><ele>768.0</ele><time>2026-03-22T09:40:50.435Z</time></trkpt><trkpt lat="43.0848383" lon="13.2279217"><ele>773.8</ele><time>2026-03-22T09:40:51.382Z</time></trkpt><trkpt lat="43.08475" lon="13.22791"><ele>779.5999999999999</ele><time>2026-03-22T09:40:52.389Z</time></trkpt><trkpt lat="43.0846583" lon="13.227915"><ele>785.4000000000001</ele><time>2026-03-22T09:40:53.385Z</time></trkpt><trkpt lat="43.0845633" lon="13.2279567"><ele>791.2</ele><time>2026-03-22T09:40:54.389Z</time></trkpt><trkpt lat="43.0844583" lon="13.2280267"><ele>797.0</ele><time>2026-03-22T09:40:55.385Z</time></trkpt><trkpt lat="43.0843433" lon="13.22811"><ele>796.5</ele><time>2026-03-22T09:40:56.394Z</time></trkpt><trkpt lat="43.0842333" lon="13.2281967"><ele>796.0</ele><time>2026-03-22T09:40:57.388Z</time></trkpt><trkpt lat="43.084135" lon="13.228295"><ele>795.5</ele><time>2026-03-22T09:40:58.388Z</time></trkpt><trkpt lat="43.0840483" lon="13.2283917"><ele>795.0</ele><time>2026-03-22T09:40:59.393Z</time></trkpt><trkpt lat="43.0839583" lon="13.2284717"><ele>795.0</ele><time>2026-03-22T09:41:00.373Z</time></trkpt><trkpt lat="43.0838633" lon="13.2285433"><ele>795.0</ele><time>2026-03-22T09:41:01.387Z</time></trkpt><trkpt lat="43.08377" lon="13.2286"><ele>795.0</ele><time>2026-03-22T09:41:02.38Z</time></trkpt><trkpt lat="43.083675" lon="13.228645"><ele>795.0</ele><time>2026-03-22T09:41:03.371Z</time></trkpt><trkpt lat="43.083575" lon="13.228665"><ele>795.0</ele><time>2026-03-22T09:41:04.388Z</time></trkpt><trkpt lat="43.0834667" lon="13.2286667"><ele>795.0</ele><time>2026-03-22T09:41:05.384Z</time></trkpt><trkpt lat="43.0833517" lon="13.228655"><ele>795.0</ele><time>2026-03-22T09:41:06.386Z</time></trkpt><trkpt lat="43.083235" lon="13.2286483"><ele>795.0</ele><time>2026-03-22T09:41:07.383Z</time></trkpt><trkpt lat="43.0831283" lon="13.2286217"><ele>795.0</ele><time>2026-03-22T09:41:08.433Z</time></trkpt><trkpt lat="43.0830383" lon="13.22859"><ele>795.0</ele><time>2026-03-22T09:41:09.389Z</time></trkpt><trkpt lat="43.0829583" lon="13.2285367"><ele>795.2</ele><time>2026-03-22T09:41:10.387Z</time></trkpt><trkpt lat="43.08287" lon="13.2284883"><ele>795.4</ele><time>2026-03-22T09:41:11.386Z</time></trkpt><trkpt lat="43.0827633" lon="13.228465"><ele>795.5999999999999</ele><time>2026-03-22T09:41:12.393Z</time></trkpt><trkpt lat="43.0826483" lon="13.228435"><ele>795.8</ele><time>2026-03-22T09:41:13.386Z</time></trkpt><trkpt lat="43.08253" lon="13.228385"><ele>796.0</ele><time>2026-03-22T09:41:14.436Z</time></trkpt><trkpt lat="43.0824217" lon="13.2283117"><ele>796.0</ele><time>2026-03-22T09:41:15.388Z</time></trkpt><trkpt lat="43.0823283" lon="13.2282217"><ele>796.0</ele><time>2026-03-22T09:41:16.382Z</time></trkpt><trkpt lat="43.0822617" lon="13.2281433"><ele>796.0</ele><time>2026-03-22T09:41:17.386Z</time></trkpt><trkpt lat="43.08222" lon="13.2280683"><ele>796.0</ele><time>2026-03-22T09:41:18.387Z</time></trkpt><trkpt lat="43.082215" lon="13.22791"><ele>796.0</ele><time>2026-03-22T09:41:20.419Z</time></trkpt><trkpt lat="43.08234" lon="13.2278133"><ele>801.4</ele><time>2026-03-22T09:41:22.387Z</time></trkpt><trkpt lat="43.082435" lon="13.2277817"><ele>806.8</ele><time>2026-03-22T09:41:23.387Z</time></trkpt><trkpt lat="43.0824967" lon="13.2277367"><ele>812.1999999999999</ele><time>2026-03-22T09:41:24.391Z</time></trkpt><trkpt lat="43.0825233" lon="13.2276217"><ele>817.5999999999999</ele><time>2026-03-22T09:41:26.384Z</time></trkpt><trkpt lat="43.08239" lon="13.2274917"><ele>823.0</ele><time>2026-03-22T09:41:28.386Z</time></trkpt><trkpt lat="43.0822783" lon="13.2274117"><ele>823.0</ele><time>2026-03-22T09:41:29.386Z</time></trkpt><trkpt lat="43.0821783" lon="13.2273217"><ele>823.0</ele><time>2026-03-22T09:41:30.385Z</time></trkpt><trkpt lat="43.082095" lon="13.2272067"><ele>823.0</ele><time>2026-03-22T09:41:31.386Z</time></trkpt><trkpt lat="43.082015" lon="13.227065"><ele>823.0</ele><time>2026-03-22T09:41:32.382Z</time></trkpt><trkpt lat="43.081935" lon="13.2269017"><ele>826.5</ele><time>2026-03-22T09:41:33.386Z</time></trkpt><trkpt lat="43.0818533" lon="13.2267583"><ele>830.0</ele><time>2026-03-22T09:41:34.372Z</time></trkpt><trkpt lat="43.0817767" lon="13.2266433"><ele>833.5</ele><time>2026-03-22T09:41:35.386Z</time></trkpt><trkpt lat="43.0816833" lon="13.2265633"><ele>837.0</ele><time>2026-03-22T09:41:36.388Z</time></trkpt><trkpt lat="43.08159" lon="13.2264833"><ele>843.6</ele><time>2026-03-22T09:41:37.382Z</time></trkpt><trkpt lat="43.0815033" lon="13.2263867"><ele>850.2</ele><time>2026-03-22T09:41:38.433Z</time></trkpt><trkpt lat="43.0814233" lon="13.226295"><ele>856.8</ele><time>2026-03-22T09:41:39.377Z</time></trkpt><trkpt lat="43.0813483" lon="13.2262"><ele>863.4</ele><time>2026-03-22T09:41:40.373Z</time></trkpt><trkpt lat="43.0812683" lon="13.2260983"><ele>870.0</ele><time>2026-03-22T09:41:41.381Z</time></trkpt><trkpt lat="43.08119" lon="13.2259933"><ele>870.0</ele><time>2026-03-22T09:41:42.388Z</time></trkpt><trkpt lat="43.081105" lon="13.22589"><ele>870.0</ele><time>2026-03-22T09:41:43.384Z</time></trkpt><trkpt lat="43.0810233" lon="13.2258183"><ele>870.0</ele><time>2026-03-22T09:41:44.426Z</time></trkpt><trkpt lat="43.0809433" lon="13.2257433"><ele>870.0</ele><time>2026-03-22T09:41:45.366Z</time></trkpt><trkpt lat="43.0808683" lon="13.2256617"><ele>870.0</ele><time>2026-03-22T09:41:46.385Z</time></trkpt><trkpt lat="43.0807967" lon="13.2255733"><ele>868.8</ele><time>2026-03-22T09:41:47.367Z</time></trkpt><trkpt lat="43.0807333" lon="13.22548"><ele>867.6</ele><time>2026-03-22T09:41:48.389Z</time></trkpt><trkpt lat="43.0806733" lon="13.2253683"><ele>866.4000000000001</ele><time>2026-03-22T09:41:49.39Z</time></trkpt><trkpt lat="43.0806133" lon="13.2252333"><ele>865.2</ele><time>2026-03-22T09:41:50.433Z</time></trkpt><trkpt lat="43.0805567" lon="13.2250983"><ele>864.0</ele><time>2026-03-22T09:41:51.379Z</time></trkpt><trkpt lat="43.080505" lon="13.22496"><ele>864.0</ele><time>2026-03-22T09:41:52.385Z</time></trkpt><trkpt lat="43.0804667" lon="13.2248383"><ele>864.0000000000001</ele><time>2026-03-22T09:41:53.379Z</time></trkpt><trkpt lat="43.08044" lon="13.2247067"><ele>864.0000000000001</ele><time>2026-03-22T09:41:54.389Z</time></trkpt><trkpt lat="43.0804183" lon="13.2245667"><ele>864.0</ele><time>2026-03-22T09:41:55.389Z</time></trkpt><trkpt lat="43.0804017" lon="13.2244067"><ele>864.0</ele><time>2026-03-22T09:41:56.449Z</time></trkpt><trkpt lat="43.0803817" lon="13.2242517"><ele>866.5</ele><time>2026-03-22T09:41:57.373Z</time></trkpt><trkpt lat="43.080365" lon="13.2241067"><ele>869.0</ele><time>2026-03-22T09:41:58.375Z</time></trkpt><trkpt lat="43.0803517" lon="13.2239933"><ele>871.5</ele><time>2026-03-22T09:41:59.38Z</time></trkpt><trkpt lat="43.0803417" lon="13.223905"><ele>874.0</ele><time>2026-03-22T09:42:00.387Z</time></trkpt><trkpt lat="43.080355" lon="13.2238033"><ele>876.5</ele><time>2026-03-22T09:42:02.439Z</time></trkpt><trkpt lat="43.0804167" lon="13.22378"><ele>879.0</ele><time>2026-03-22T09:42:04.372Z</time></trkpt><trkpt lat="43.0805267" lon="13.2238617"><ele>879.0</ele><time>2026-03-22T09:42:06.38Z</time></trkpt><trkpt lat="43.0806" lon="13.2239367"><ele>879.0000000000001</ele><time>2026-03-22T09:42:07.381Z</time></trkpt><trkpt lat="43.0806883" lon="13.2240217"><ele>879.0000000000001</ele><time>2026-03-22T09:42:08.422Z</time></trkpt><trkpt lat="43.0807933" lon="13.2241083"><ele>879.0</ele><time>2026-03-22T09:42:09.378Z</time></trkpt><trkpt lat="43.080905" lon="13.22419"><ele>879.0</ele><time>2026-03-22T09:42:10.39Z</time></trkpt><trkpt lat="43.0810167" lon="13.224255"><ele>889.0</ele><time>2026-03-22T09:42:11.383Z</time></trkpt><trkpt lat="43.0811317" lon="13.22431"><ele>899.0</ele><time>2026-03-22T09:42:12.391Z</time></trkpt><trkpt lat="43.081235" lon="13.2243483"><ele>909.0</ele><time>2026-03-22T09:42:13.367Z</time></trkpt><trkpt lat="43.0813417" lon="13.2243783"><ele>919.0</ele><time>2026-03-22T09:42:14.434Z</time></trkpt><trkpt lat="43.0814533" lon="13.22439"><ele>919.0</ele><time>2026-03-22T09:42:15.384Z</time></trkpt><trkpt lat="43.0815667" lon="13.2243883"><ele>919.0000000000001</ele><time>2026-03-22T09:42:16.38Z</time></trkpt><trkpt lat="43.0816833" lon="13.22437"><ele>919.0000000000001</ele><time>2026-03-22T09:42:17.376Z</time></trkpt><trkpt lat="43.08179" lon="13.2243567"><ele>919.0</ele><time>2026-03-22T09:42:18.371Z</time></trkpt><trkpt lat="43.08189" lon="13.2243333"><ele>919.0</ele><time>2026-03-22T09:42:19.395Z</time></trkpt><trkpt lat="43.0819883" lon="13.2243083"><ele>924.0</ele><time>2026-03-22T09:42:20.433Z</time></trkpt><trkpt lat="43.082095" lon="13.2242833"><ele>929.0000000000001</ele><time>2026-03-22T09:42:21.389Z</time></trkpt><trkpt lat="43.0821967" lon="13.22426"><ele>934.0000000000001</ele><time>2026-03-22T09:42:22.384Z</time></trkpt><trkpt lat="43.082285" lon="13.2242283"><ele>939.0</ele><time>2026-03-22T09:42:23.39Z</time></trkpt><trkpt lat="43.08236" lon="13.224185"><ele>944.0</ele><time>2026-03-22T09:42:24.374Z</time></trkpt><trkpt lat="43.0824267" lon="13.2241167"><ele>944.1666666666667</ele><time>2026-03-22T09:42:25.387Z</time></trkpt><trkpt lat="43.0824983" lon="13.224035"><ele>944.3333333333334</ele><time>2026-03-22T09:42:26.377Z</time></trkpt><trkpt lat="43.08258" lon="13.223945"><ele>944.5</ele><time>2026-03-22T09:42:27.365Z</time></trkpt><trkpt lat="43.0826533" lon="13.223855"><ele>944.6666666666667</ele><time>2026-03-22T09:42:28.389Z</time></trkpt><trkpt lat="43.0827083" lon="13.2237683"><ele>944.8333333333334</ele><time>2026-03-22T09:42:29.392Z</time></trkpt><trkpt lat="43.0827267" lon="13.22368"><ele>945.0</ele><time>2026-03-22T09:42:30.391Z</time></trkpt><trkpt lat="43.0826833" lon="13.2235"><ele>947.8333333333334</ele><time>2026-03-22T09:42:32.436Z</time></trkpt><trkpt lat="43.0826083" lon="13.2234"><ele>950.6666666666667</ele><time>2026-03-22T09:42:33.381Z</time></trkpt><trkpt lat="43.0825483" lon="13.2233217"><ele>953.5</ele><time>2026-03-22T09:42:34.381Z</time></trkpt><trkpt lat="43.0825067" lon="13.2232533"><ele>956.3333333333334</ele><time>2026-03-22T09:42:35.385Z</time></trkpt><trkpt lat="43.0825" lon="13.22309"><ele>959.1666666666667</ele><time>2026-03-22T09:42:37.372Z</time></trkpt><trkpt lat="43.0825333" lon="13.2230167"><ele>962.0</ele><time>2026-03-22T09:42:38.427Z</time></trkpt><trkpt lat="43.082585" lon="13.22294"><ele>963.1666666666667</ele><time>2026-03-22T09:42:39.388Z</time></trkpt><trkpt lat="43.0826467" lon="13.2228667"><ele>964.3333333333334</ele><time>2026-03-22T09:42:40.383Z</time></trkpt><trkpt lat="43.08271" lon="13.2227883"><ele>965.5</ele><time>2026-03-22T09:42:41.377Z</time></trkpt><trkpt lat="43.0827717" lon="13.2227033"><ele>966.6666666666667</ele><time>2026-03-22T09:42:42.382Z</time></trkpt><trkpt lat="43.08283" lon="13.2226067"><ele>967.8333333333334</ele><time>2026-03-22T09:42:43.384Z</time></trkpt><trkpt lat="43.0828817" lon="13.2225"><ele>969.0</ele><time>2026-03-22T09:42:44.434Z</time></trkpt><trkpt lat="43.082915" lon="13.2223867"><ele>970.5</ele><time>2026-03-22T09:42:45.379Z</time></trkpt><trkpt lat="43.0829283" lon="13.2222717"><ele>972.0</ele><time>2026-03-22T09:42:46.388Z</time></trkpt><trkpt lat="43.082925" lon="13.222155"><ele>973.5</ele><time>2026-03-22T09:42:47.39Z</time></trkpt><trkpt lat="43.0829083" lon="13.2220467"><ele>975.0</ele><time>2026-03-22T09:42:48.381Z</time></trkpt><trkpt lat="43.0828917" lon="13.221935"><ele>976.5</ele><time>2026-03-22T09:42:49.389Z</time></trkpt><trkpt lat="43.08288" lon="13.2218133"><ele>978.0</ele><time>2026-03-22T09:42:50.429Z</time></trkpt><trkpt lat="43.082875" lon="13.2216883"><ele>978.0</ele><time>2026-03-22T09:42:51.381Z</time></trkpt><trkpt lat="43.08287" lon="13.221575"><ele>978.0</ele><time>2026-03-22T09:42:52.39Z</time></trkpt><trkpt lat="43.0828567" lon="13.2214617"><ele>978.0</ele><time>2026-03-22T09:42:53.39Z</time></trkpt><trkpt lat="43.0828383" lon="13.2213383"><ele>978.0</ele><time>2026-03-22T09:42:54.38Z</time></trkpt><trkpt lat="43.0828283" lon="13.221215"><ele>978.0</ele><time>2026-03-22T09:42:55.373Z</time></trkpt><trkpt lat="43.0828367" lon="13.2210883"><ele>978.0</ele><time>2026-03-22T09:42:56.446Z</time></trkpt><trkpt lat="43.0828533" lon="13.2209667"><ele>979.0</ele><time>2026-03-22T09:42:57.366Z</time></trkpt><trkpt lat="43.08288" lon="13.2208533"><ele>980.0</ele><time>2026-03-22T09:42:58.37Z</time></trkpt><trkpt lat="43.0829133" lon="13.2207583"><ele>981.0</ele><time>2026-03-22T09:42:59.373Z</time></trkpt><trkpt lat="43.0829433" lon="13.2206733"><ele>982.0</ele><time>2026-03-22T09:43:00.386Z</time></trkpt><trkpt lat="43.0829933" lon="13.2205367"><ele>983.0</ele><time>2026-03-22T09:43:02.448Z</time></trkpt><trkpt lat="43.083075" lon="13.2204233"><ele>984.1666666666667</ele><time>2026-03-22T09:43:04.388Z</time></trkpt><trkpt lat="43.08313" lon="13.220265"><ele>985.3333333333334</ele><time>2026-03-22T09:43:06.387Z</time></trkpt><trkpt lat="43.0831483" lon="13.22017"><ele>986.5</ele><time>2026-03-22T09:43:07.387Z</time></trkpt><trkpt lat="43.083175" lon="13.22007"><ele>987.6666666666667</ele><time>2026-03-22T09:43:08.434Z</time></trkpt><trkpt lat="43.08321" lon="13.2199667"><ele>988.8333333333334</ele><time>2026-03-22T09:43:09.378Z</time></trkpt><trkpt lat="43.08325" lon="13.219865"><ele>990.0</ele><time>2026-03-22T09:43:10.384Z</time></trkpt><trkpt lat="43.0832867" lon="13.2197767"><ele>995.1666666666666</ele><time>2026-03-22T09:43:11.384Z</time></trkpt><trkpt lat="43.08332" lon="13.2196833"><ele>1000.3333333333333</ele><time>2026-03-22T09:43:12.391Z</time></trkpt><trkpt lat="43.0833517" lon="13.2195917"><ele>1005.5</ele><time>2026-03-22T09:43:13.376Z</time></trkpt><trkpt lat="43.08338" lon="13.2195033"><ele>1010.6666666666666</ele><time>2026-03-22T09:43:14.403Z</time></trkpt><trkpt lat="43.083425" lon="13.219365"><ele>1015.8333333333333</ele><time>2026-03-22T09:43:16.38Z</time></trkpt><trkpt lat="43.0834717" lon="13.2192417"><ele>1021.0</ele><time>2026-03-22T09:43:18.389Z</time></trkpt><trkpt lat="43.0835233" lon="13.2190883"><ele>1021.0</ele><time>2026-03-22T09:43:20.419Z</time></trkpt><trkpt lat="43.083565" lon="13.2189933"><ele>1020.9999999999999</ele><time>2026-03-22T09:43:21.376Z</time></trkpt><trkpt lat="43.0836067" lon="13.2189133"><ele>1020.9999999999999</ele><time>2026-03-22T09:43:22.385Z</time></trkpt><trkpt lat="43.0836583" lon="13.2187633"><ele>1021.0</ele><time>2026-03-22T09:43:24.386Z</time></trkpt><trkpt lat="43.0837217" lon="13.2186283"><ele>1021.0</ele><time>2026-03-22T09:43:26.391Z</time></trkpt><trkpt lat="43.0837883" lon="13.2185083"><ele>1019.6666666666666</ele><time>2026-03-22T09:43:28.367Z</time></trkpt><trkpt lat="43.0838417" lon="13.2184"><ele>1018.3333333333333</ele><time>2026-03-22T09:43:30.382Z</time></trkpt><trkpt lat="43.0838767" lon="13.2182333"><ele>1017.0</ele><time>2026-03-22T09:43:32.441Z</time></trkpt><trkpt lat="43.0839067" lon="13.2181383"><ele>1015.6666666666667</ele><time>2026-03-22T09:43:33.38Z</time></trkpt><trkpt lat="43.0839367" lon="13.2180433"><ele>1014.3333333333334</ele><time>2026-03-22T09:43:34.384Z</time></trkpt><trkpt lat="43.0839617" lon="13.2179517"><ele>1013.0</ele><time>2026-03-22T09:43:35.389Z</time></trkpt><trkpt lat="43.083985" lon="13.2178633"><ele>1011.0000000000001</ele><time>2026-03-22T09:43:36.377Z</time></trkpt><trkpt lat="43.0840133" lon="13.2177717"><ele>1009.0</ele><time>2026-03-22T09:43:37.391Z</time></trkpt><trkpt lat="43.08404" lon="13.2176733"><ele>1007.0</ele><time>2026-03-22T09:43:38.432Z</time></trkpt><trkpt lat="43.0840683" lon="13.21757"><ele>1005.0</ele><time>2026-03-22T09:43:39.385Z</time></trkpt><trkpt lat="43.0840983" lon="13.2174633"><ele>1003.0000000000001</ele><time>2026-03-22T09:43:40.369Z</time></trkpt><trkpt lat="43.0841333" lon="13.2173533"><ele>1001.0</ele><time>2026-03-22T09:43:41.388Z</time></trkpt><trkpt lat="43.08417" lon="13.21725"><ele>1008.0000000000001</ele><time>2026-03-22T09:43:42.388Z</time></trkpt><trkpt lat="43.0842033" lon="13.2171517"><ele>1015.0</ele><time>2026-03-22T09:43:43.388Z</time></trkpt><trkpt lat="43.0842383" lon="13.2170517"><ele>1022.0</ele><time>2026-03-22T09:43:44.411Z</time></trkpt><trkpt lat="43.0842783" lon="13.21695"><ele>1029.0</ele><time>2026-03-22T09:43:45.38Z</time></trkpt><trkpt lat="43.08432" lon="13.2168617"><ele>1036.0</ele><time>2026-03-22T09:43:46.384Z</time></trkpt><trkpt lat="43.0843617" lon="13.2167883"><ele>1043.0</ele><time>2026-03-22T09:43:47.387Z</time></trkpt><trkpt lat="43.08443" lon="13.216705"><ele>1043.0</ele><time>2026-03-22T09:43:49.379Z</time></trkpt><trkpt lat="43.0844767" lon="13.2166367"><ele>1043.0</ele><time>2026-03-22T09:43:55.382Z</time></trkpt><trkpt lat="43.0845517" lon="13.2165517"><ele>1043.0</ele><time>2026-03-22T09:43:58.369Z</time></trkpt><trkpt lat="43.0845867" lon="13.21644"><ele>1043.0</ele><time>2026-03-22T09:44:00.377Z</time></trkpt><trkpt lat="43.084635" lon="13.2163217"><ele>1043.0</ele><time>2026-03-22T09:44:02.391Z</time></trkpt><trkpt lat="43.0846967" lon="13.216175"><ele>1041.1666666666667</ele><time>2026-03-22T09:44:04.388Z</time></trkpt><trkpt lat="43.08473" lon="13.2160967"><ele>1039.3333333333335</ele><time>2026-03-22T09:44:05.386Z</time></trkpt><trkpt lat="43.08477" lon="13.21595"><ele>1037.5</ele><time>2026-03-22T09:44:07.36Z</time></trkpt><trkpt lat="43.08477" lon="13.215845"><ele>1035.6666666666667</ele><time>2026-03-22T09:44:09.363Z</time></trkpt><trkpt lat="43.0847683" lon="13.2157133"><ele>1033.8333333333333</ele><time>2026-03-22T09:44:11.385Z</time></trkpt><trkpt lat="43.0847667" lon="13.21562"><ele>1032.0</ele><time>2026-03-22T09:44:12.382Z</time></trkpt><trkpt lat="43.0847567" lon="13.2155183"><ele>1031.6</ele><time>2026-03-22T09:44:13.391Z</time></trkpt><trkpt lat="43.0847467" lon="13.2154067"><ele>1031.2</ele><time>2026-03-22T09:44:14.431Z</time></trkpt><trkpt lat="43.084745" lon="13.21528"><ele>1030.8</ele><time>2026-03-22T09:44:15.377Z</time></trkpt><trkpt lat="43.08474" lon="13.21513"><ele>1030.4</ele><time>2026-03-22T09:44:16.387Z</time></trkpt><trkpt lat="43.0847317" lon="13.2149917"><ele>1030.0</ele><time>2026-03-22T09:44:17.39Z</time></trkpt><trkpt lat="43.0847283" lon="13.214885"><ele>1029.6666666666665</ele><time>2026-03-22T09:44:18.385Z</time></trkpt><trkpt lat="43.084745" lon="13.2147867"><ele>1029.3333333333333</ele><time>2026-03-22T09:44:19.378Z</time></trkpt><trkpt lat="43.08476" lon="13.21469"><ele>1029.0</ele><time>2026-03-22T09:44:20.434Z</time></trkpt><trkpt lat="43.0847667" lon="13.21458"><ele>1028.6666666666667</ele><time>2026-03-22T09:44:21.389Z</time></trkpt><trkpt lat="43.0847733" lon="13.214435"><ele>1028.3333333333335</ele><time>2026-03-22T09:44:22.388Z</time></trkpt><trkpt lat="43.08478" lon="13.21428"><ele>1028.0</ele><time>2026-03-22T09:44:23.382Z</time></trkpt><trkpt lat="43.0847817" lon="13.2141267"><ele>1028.3333333333335</ele><time>2026-03-22T09:44:24.389Z</time></trkpt><trkpt lat="43.0847883" lon="13.2139817"><ele>1028.6666666666667</ele><time>2026-03-22T09:44:25.39Z</time></trkpt><trkpt lat="43.084795" lon="13.2138533"><ele>1029.0</ele><time>2026-03-22T09:44:26.383Z</time></trkpt><trkpt lat="43.0847933" lon="13.2137433"><ele>1029.3333333333333</ele><time>2026-03-22T09:44:27.391Z</time></trkpt><trkpt lat="43.084795" lon="13.2136433"><ele>1029.6666666666665</ele><time>2026-03-22T09:44:28.383Z</time></trkpt><trkpt lat="43.0848033" lon="13.2135533"><ele>1030.0</ele><time>2026-03-22T09:44:29.385Z</time></trkpt><trkpt lat="43.0848267" lon="13.2133917"><ele>1030.0</ele><time>2026-03-22T09:44:31.391Z</time></trkpt><trkpt lat="43.0848017" lon="13.2132383"><ele>1030.0</ele><time>2026-03-22T09:44:33.382Z</time></trkpt><trkpt lat="43.084785" lon="13.2131417"><ele>1030.0</ele><time>2026-03-22T09:44:34.386Z</time></trkpt><trkpt lat="43.084765" lon="13.2130517"><ele>1030.0</ele><time>2026-03-22T09:44:35.39Z</time></trkpt><trkpt lat="43.084715" lon="13.2128967"><ele>1030.0</ele><time>2026-03-22T09:44:37.385Z</time></trkpt><trkpt lat="43.0846933" lon="13.21281"><ele>1030.0</ele><time>2026-03-22T09:44:38.434Z</time></trkpt><trkpt lat="43.08468" lon="13.21272"><ele>1032.0</ele><time>2026-03-22T09:44:39.388Z</time></trkpt><trkpt lat="43.0846733" lon="13.2126333"><ele>1034.0</ele><time>2026-03-22T09:44:40.386Z</time></trkpt><trkpt lat="43.08464" lon="13.21247"><ele>1036.0</ele><time>2026-03-22T09:44:42.388Z</time></trkpt><trkpt lat="43.0846233" lon="13.2123833"><ele>1038.0</ele><time>2026-03-22T09:44:43.387Z</time></trkpt><trkpt lat="43.084615" lon="13.2122767"><ele>1040.0</ele><time>2026-03-22T09:44:45.362Z</time></trkpt><trkpt lat="43.0846533" lon="13.2122"><ele>1042.0</ele><time>2026-03-22T09:44:47.377Z</time></trkpt><trkpt lat="43.0846733" lon="13.2121017"><ele>1045.6</ele><time>2026-03-22T09:44:49.369Z</time></trkpt><trkpt lat="43.0847017" lon="13.2119783"><ele>1049.2</ele><time>2026-03-22T09:44:51.381Z</time></trkpt><trkpt lat="43.0847617" lon="13.2118467"><ele>1052.8</ele><time>2026-03-22T09:44:53.374Z</time></trkpt><trkpt lat="43.0847967" lon="13.2117467"><ele>1056.4</ele><time>2026-03-22T09:44:55.389Z</time></trkpt><trkpt lat="43.0847767" lon="13.2116633"><ele>1060.0</ele><time>2026-03-22T09:44:57.378Z</time></trkpt><trkpt lat="43.0847067" lon="13.211565"><ele>1061.8</ele><time>2026-03-22T09:44:59.357Z</time></trkpt><trkpt lat="43.0846517" lon="13.21148"><ele>1063.6</ele><time>2026-03-22T09:45:00.363Z</time></trkpt><trkpt lat="43.08457" lon="13.2113833"><ele>1065.4</ele><time>2026-03-22T09:45:02.369Z</time></trkpt><trkpt lat="43.0844817" lon="13.2112883"><ele>1067.2</ele><time>2026-03-22T09:45:04.388Z</time></trkpt><trkpt lat="43.0844133" lon="13.2112067"><ele>1069.0</ele><time>2026-03-22T09:45:06.386Z</time></trkpt><trkpt lat="43.0843533" lon="13.2111083"><ele>1069.0</ele><time>2026-03-22T09:45:08.422Z</time></trkpt><trkpt lat="43.0843217" lon="13.2109567"><ele>1069.0</ele><time>2026-03-22T09:45:10.387Z</time></trkpt><trkpt lat="43.0842983" lon="13.2108283"><ele>1069.0</ele><time>2026-03-22T09:45:12.388Z</time></trkpt><trkpt lat="43.084255" lon="13.2107233"><ele>1069.0</ele><time>2026-03-22T09:45:14.429Z</time></trkpt><trkpt lat="43.0841833" lon="13.2105983"><ele>1069.0</ele><time>2026-03-22T09:45:16.388Z</time></trkpt><trkpt lat="43.08414" lon="13.21052"><ele>1070.3333333333333</ele><time>2026-03-22T09:45:17.388Z</time></trkpt><trkpt lat="43.0840967" lon="13.2104417"><ele>1071.6666666666665</ele><time>2026-03-22T09:45:18.392Z</time></trkpt><trkpt lat="43.0840533" lon="13.2103583"><ele>1073.0</ele><time>2026-03-22T09:45:19.381Z</time></trkpt><trkpt lat="43.0840167" lon="13.2102817"><ele>1074.3333333333333</ele><time>2026-03-22T09:45:20.432Z</time></trkpt><trkpt lat="43.0839933" lon="13.2101317"><ele>1075.6666666666667</ele><time>2026-03-22T09:45:22.384Z</time></trkpt><trkpt lat="43.084005" lon="13.2100467"><ele>1077.0</ele><time>2026-03-22T09:45:23.387Z</time></trkpt><trkpt lat="43.084025" lon="13.2099633"><ele>1079.0</ele><time>2026-03-22T09:45:24.391Z</time></trkpt><trkpt lat="43.08407" lon="13.209825"><ele>1081.0</ele><time>2026-03-22T09:45:26.386Z</time></trkpt><trkpt lat="43.0841183" lon="13.2097133"><ele>1083.0</ele><time>2026-03-22T09:45:28.38Z</time></trkpt><trkpt lat="43.0841633" lon="13.20958"><ele>1085.0</ele><time>2026-03-22T09:45:30.393Z</time></trkpt><trkpt lat="43.0842117" lon="13.209475"><ele>1087.0</ele><time>2026-03-22T09:45:32.388Z</time></trkpt><trkpt lat="43.0842717" lon="13.2093517"><ele>1087.0</ele><time>2026-03-22T09:45:34.387Z</time></trkpt><trkpt lat="43.0843083" lon="13.209275"><ele>1087.0</ele><time>2026-03-22T09:45:35.383Z</time></trkpt><trkpt lat="43.084345" lon="13.2092"><ele>1087.0</ele><time>2026-03-22T09:45:36.392Z</time></trkpt><trkpt lat="43.0844067" lon="13.20906"><ele>1087.0</ele><time>2026-03-22T09:45:38.435Z</time></trkpt><trkpt lat="43.0844483" lon="13.2089317"><ele>1087.0</ele><time>2026-03-22T09:45:40.389Z</time></trkpt><trkpt lat="43.0844983" lon="13.208805"><ele>1088.1666666666665</ele><time>2026-03-22T09:45:42.384Z</time></trkpt><trkpt lat="43.084525" lon="13.2087167"><ele>1089.3333333333333</ele><time>2026-03-22T09:45:43.388Z</time></trkpt><trkpt lat="43.0845533" lon="13.2086217"><ele>1090.5</ele><time>2026-03-22T09:45:44.429Z</time></trkpt><trkpt lat="43.08458" lon="13.20854"><ele>1091.6666666666667</ele><time>2026-03-22T09:45:45.386Z</time></trkpt><trkpt lat="43.084635" lon="13.2083933"><ele>1092.8333333333335</ele><time>2026-03-22T09:45:47.388Z</time></trkpt><trkpt lat="43.0846733" lon="13.2083217"><ele>1094.0</ele><time>2026-03-22T09:45:48.387Z</time></trkpt><trkpt lat="43.0847183" lon="13.2082567"><ele>1094.0</ele><time>2026-03-22T09:45:49.393Z</time></trkpt><trkpt lat="43.0847917" lon="13.2081617"><ele>1094.0</ele><time>2026-03-22T09:45:51.377Z</time></trkpt><trkpt lat="43.084845" lon="13.2080617"><ele>1094.0</ele><time>2026-03-22T09:45:53.383Z</time></trkpt><trkpt lat="43.0848517" lon="13.2079467"><ele>1094.0</ele><time>2026-03-22T09:45:55.378Z</time></trkpt><trkpt lat="43.0848317" lon="13.207835"><ele>1094.0</ele><time>2026-03-22T09:45:57.377Z</time></trkpt><trkpt lat="43.084805" lon="13.2077333"><ele>1094.0</ele><time>2026-03-22T09:45:59.378Z</time></trkpt><trkpt lat="43.0848" lon="13.2075983"><ele>1096.0</ele><time>2026-03-22T09:46:01.37Z</time></trkpt><trkpt lat="43.084805" lon="13.2074617"><ele>1098.0</ele><time>2026-03-22T09:46:03.384Z</time></trkpt><trkpt lat="43.0848" lon="13.2073517"><ele>1100.0</ele><time>2026-03-22T09:46:05.365Z</time></trkpt><trkpt lat="43.0848017" lon="13.207185"><ele>1102.0</ele><time>2026-03-22T09:46:07.381Z</time></trkpt><trkpt lat="43.0848067" lon="13.207075"><ele>1104.0</ele><time>2026-03-22T09:46:08.431Z</time></trkpt><trkpt lat="43.0848133" lon="13.2069617"><ele>1104.6666666666667</ele><time>2026-03-22T09:46:09.379Z</time></trkpt><trkpt lat="43.0848233" lon="13.2068583"><ele>1105.3333333333333</ele><time>2026-03-22T09:46:10.387Z</time></trkpt><trkpt lat="43.0848233" lon="13.2067583"><ele>1106.0</ele><time>2026-03-22T09:46:11.383Z</time></trkpt><trkpt lat="43.084815" lon="13.20665"><ele>1106.6666666666665</ele><time>2026-03-22T09:46:12.346Z</time></trkpt><trkpt lat="43.0848033" lon="13.2065383"><ele>1107.3333333333333</ele><time>2026-03-22T09:46:13.383Z</time></trkpt><trkpt lat="43.0847967" lon="13.2064283"><ele>1108.0</ele><time>2026-03-22T09:46:14.423Z</time></trkpt><trkpt lat="43.0847917" lon="13.206325"><ele>1108.4285714285713</ele><time>2026-03-22T09:46:15.377Z</time></trkpt><trkpt lat="43.08479" lon="13.2062267"><ele>1108.8571428571427</ele><time>2026-03-22T09:46:16.379Z</time></trkpt><trkpt lat="43.08479" lon="13.20613"><ele>1109.2857142857142</ele><time>2026-03-22T09:46:17.379Z</time></trkpt><trkpt lat="43.0847833" lon="13.2060317"><ele>1109.7142857142858</ele><time>2026-03-22T09:46:18.392Z</time></trkpt><trkpt lat="43.084775" lon="13.2059317"><ele>1110.1428571428573</ele><time>2026-03-22T09:46:19.386Z</time></trkpt><trkpt lat="43.0847683" lon="13.2058367"><ele>1110.5714285714287</ele><time>2026-03-22T09:46:20.43Z</time></trkpt><trkpt lat="43.0847683" lon="13.20574"><ele>1111.0</ele><time>2026-03-22T09:46:21.386Z</time></trkpt><trkpt lat="43.084765" lon="13.2056283"><ele>1111.1666666666665</ele><time>2026-03-22T09:46:22.382Z</time></trkpt><trkpt lat="43.0847583" lon="13.2054933"><ele>1111.3333333333333</ele><time>2026-03-22T09:46:23.385Z</time></trkpt><trkpt lat="43.0847517" lon="13.2053567"><ele>1111.5</ele><time>2026-03-22T09:46:24.387Z</time></trkpt><trkpt lat="43.084745" lon="13.2052383"><ele>1111.6666666666667</ele><time>2026-03-22T09:46:25.375Z</time></trkpt><trkpt lat="43.0847383" lon="13.2051483"><ele>1111.8333333333335</ele><time>2026-03-22T09:46:26.449Z</time></trkpt><trkpt lat="43.0847483" lon="13.2050217"><ele>1112.0</ele><time>2026-03-22T09:46:28.381Z</time></trkpt><trkpt lat="43.08476" lon="13.2049017"><ele>1111.6666666666667</ele><time>2026-03-22T09:46:30.38Z</time></trkpt><trkpt lat="43.0847633" lon="13.2047667"><ele>1111.3333333333335</ele><time>2026-03-22T09:46:32.447Z</time></trkpt><trkpt lat="43.084775" lon="13.2046817"><ele>1111.0</ele><time>2026-03-22T09:46:33.378Z</time></trkpt><trkpt lat="43.0847983" lon="13.204595"><ele>1110.6666666666667</ele><time>2026-03-22T09:46:34.372Z</time></trkpt><trkpt lat="43.0848317" lon="13.2045017"><ele>1110.3333333333333</ele><time>2026-03-22T09:46:35.388Z</time></trkpt><trkpt lat="43.0848667" lon="13.20441"><ele>1110.0</ele><time>2026-03-22T09:46:36.389Z</time></trkpt><trkpt lat="43.0848983" lon="13.2043183"><ele>1110.0000000000002</ele><time>2026-03-22T09:46:37.379Z</time></trkpt><trkpt lat="43.0849283" lon="13.2042333"><ele>1110.0</ele><time>2026-03-22T09:46:38.426Z</time></trkpt><trkpt lat="43.0849533" lon="13.2041483"><ele>1110.0</ele><time>2026-03-22T09:46:39.376Z</time></trkpt><trkpt lat="43.0849717" lon="13.2040617"><ele>1110.0</ele><time>2026-03-22T09:46:40.376Z</time></trkpt><trkpt lat="43.084985" lon="13.203975"><ele>1110.0</ele><time>2026-03-22T09:46:41.382Z</time></trkpt><trkpt lat="43.0850083" lon="13.2038883"><ele>1110.0000000000002</ele><time>2026-03-22T09:46:42.388Z</time></trkpt><trkpt lat="43.085045" lon="13.2038017"><ele>1110.0</ele><time>2026-03-22T09:46:43.382Z</time></trkpt><trkpt lat="43.085085" lon="13.2037233"><ele>1107.3333333333333</ele><time>2026-03-22T09:46:44.431Z</time></trkpt><trkpt lat="43.08513" lon="13.2036583"><ele>1104.6666666666667</ele><time>2026-03-22T09:46:45.385Z</time></trkpt><trkpt lat="43.0852433" lon="13.2035833"><ele>1102.0</ele><time>2026-03-22T09:46:47.358Z</time></trkpt><trkpt lat="43.085305" lon="13.20356"><ele>1099.3333333333335</ele><time>2026-03-22T09:46:48.383Z</time></trkpt><trkpt lat="43.0853667" lon="13.2035133"><ele>1096.6666666666667</ele><time>2026-03-22T09:46:50.432Z</time></trkpt><trkpt lat="43.085405" lon="13.2033883"><ele>1094.0</ele><time>2026-03-22T09:46:57.362Z</time></trkpt><trkpt lat="43.0854533" lon="13.203285"><ele>1096.0</ele><time>2026-03-22T09:46:58.363Z</time></trkpt><trkpt lat="43.0855333" lon="13.2031217"><ele>1098.0</ele><time>2026-03-22T09:46:59.376Z</time></trkpt><trkpt lat="43.08562" lon="13.2029367"><ele>1100.0</ele><time>2026-03-22T09:47:00.384Z</time></trkpt><trkpt lat="43.0856883" lon="13.2027583"><ele>1100.0</ele><time>2026-03-22T09:47:01.388Z</time></trkpt><trkpt lat="43.0857367" lon="13.2025867"><ele>1100.0</ele><time>2026-03-22T09:47:02.39Z</time></trkpt><trkpt lat="43.085765" lon="13.20243"><ele>1100.0</ele><time>2026-03-22T09:47:03.385Z</time></trkpt><trkpt lat="43.0857717" lon="13.2022883"><ele>1100.0</ele><time>2026-03-22T09:47:04.391Z</time></trkpt><trkpt lat="43.0857667" lon="13.2021583"><ele>1101.0</ele><time>2026-03-22T09:47:05.387Z</time></trkpt><trkpt lat="43.08576" lon="13.20205"><ele>1102.0</ele><time>2026-03-22T09:47:06.39Z</time></trkpt><trkpt lat="43.0857617" lon="13.20196"><ele>1103.0</ele><time>2026-03-22T09:47:07.389Z</time></trkpt><trkpt lat="43.08577" lon="13.2018683"><ele>1104.0</ele><time>2026-03-22T09:47:08.426Z</time></trkpt><trkpt lat="43.0857783" lon="13.20177"><ele>1105.0</ele><time>2026-03-22T09:47:09.38Z</time></trkpt><trkpt lat="43.085785" lon="13.2016717"><ele>1106.0</ele><time>2026-03-22T09:47:10.386Z</time></trkpt><trkpt lat="43.0857917" lon="13.2015217"><ele>1108.7142857142858</ele><time>2026-03-22T09:47:12.389Z</time></trkpt><trkpt lat="43.0858033" lon="13.2014267"><ele>1111.4285714285716</ele><time>2026-03-22T09:47:14.413Z</time></trkpt><trkpt lat="43.0858633" lon="13.20139"><ele>1114.142857142857</ele><time>2026-03-22T09:47:16.376Z</time></trkpt><trkpt lat="43.0859267" lon="13.2013917"><ele>1116.857142857143</ele><time>2026-03-22T09:47:17.38Z</time></trkpt><trkpt lat="43.086" lon="13.2013933"><ele>1119.5714285714287</ele><time>2026-03-22T09:47:18.387Z</time></trkpt><trkpt lat="43.08608" lon="13.2013817"><ele>1122.2857142857142</ele><time>2026-03-22T09:47:19.387Z</time></trkpt><trkpt lat="43.0861633" lon="13.2013567"><ele>1125.0</ele><time>2026-03-22T09:47:20.432Z</time></trkpt><trkpt lat="43.0862583" lon="13.2013117"><ele>1125.0</ele><time>2026-03-22T09:47:21.39Z</time></trkpt><trkpt lat="43.0863617" lon="13.2012583"><ele>1125.0</ele><time>2026-03-22T09:47:22.383Z</time></trkpt><trkpt lat="43.0864817" lon="13.201205"><ele>1125.0</ele><time>2026-03-22T09:47:23.386Z</time></trkpt><trkpt lat="43.0866017" lon="13.20115"><ele>1125.0</ele><time>2026-03-22T09:47:24.388Z</time></trkpt><trkpt lat="43.0867167" lon="13.20109"><ele>1129.0</ele><time>2026-03-22T09:47:25.389Z</time></trkpt><trkpt lat="43.08682" lon="13.201035"><ele>1133.0</ele><time>2026-03-22T09:47:26.386Z</time></trkpt><trkpt lat="43.086905" lon="13.2009767"><ele>1137.0</ele><time>2026-03-22T09:47:27.384Z</time></trkpt><trkpt lat="43.0869683" lon="13.2009167"><ele>1141.0</ele><time>2026-03-22T09:47:28.38Z</time></trkpt><trkpt lat="43.0870183" lon="13.200855"><ele>1145.0</ele><time>2026-03-22T09:47:29.38Z</time></trkpt><trkpt lat="43.0871067" lon="13.2007633"><ele>1145.0</ele><time>2026-03-22T09:47:31.375Z</time></trkpt><trkpt lat="43.0871967" lon="13.2006733"><ele>1145.0</ele><time>2026-03-22T09:47:33.385Z</time></trkpt><trkpt lat="43.0872533" lon="13.2005567"><ele>1145.0</ele><time>2026-03-22T09:47:35.387Z</time></trkpt><trkpt lat="43.08727" lon="13.2004633"><ele>1145.0</ele><time>2026-03-22T09:47:37.37Z</time></trkpt><trkpt lat="43.087325" lon="13.2004117"><ele>1145.0</ele><time>2026-03-22T09:47:40.385Z</time></trkpt><trkpt lat="43.08741" lon="13.2004417"><ele>1145.0</ele><time>2026-03-22T09:47:42.385Z</time></trkpt><trkpt lat="43.0875217" lon="13.20052"><ele>1149.0</ele><time>2026-03-22T09:47:44.423Z</time></trkpt><trkpt lat="43.0875967" lon="13.2005733"><ele>1153.0</ele><time>2026-03-22T09:47:45.374Z</time></trkpt><trkpt lat="43.0876817" lon="13.2006317"><ele>1157.0</ele><time>2026-03-22T09:47:46.377Z</time></trkpt><trkpt lat="43.08777" lon="13.2006817"><ele>1161.0</ele><time>2026-03-22T09:47:47.387Z</time></trkpt><trkpt lat="43.0878583" lon="13.2007217"><ele>1165.0</ele><time>2026-03-22T09:47:48.382Z</time></trkpt><trkpt lat="43.0879467" lon="13.200755"><ele>1165.0</ele><time>2026-03-22T09:47:49.364Z</time></trkpt><trkpt lat="43.0880383" lon="13.20079"><ele>1165.0</ele><time>2026-03-22T09:47:50.43Z</time></trkpt><trkpt lat="43.0881283" lon="13.20083"><ele>1165.0</ele><time>2026-03-22T09:47:51.392Z</time></trkpt><trkpt lat="43.08822" lon="13.2008667"><ele>1165.0</ele><time>2026-03-22T09:47:52.386Z</time></trkpt><trkpt lat="43.08831" lon="13.200905"><ele>1165.0</ele><time>2026-03-22T09:47:53.387Z</time></trkpt><trkpt lat="43.0884033" lon="13.20094"><ele>1169.8</ele><time>2026-03-22T09:47:54.387Z</time></trkpt><trkpt lat="43.0885017" lon="13.2009767"><ele>1174.6</ele><time>2026-03-22T09:47:55.387Z</time></trkpt><trkpt lat="43.0885967" lon="13.2010217"><ele>1179.4</ele><time>2026-03-22T09:47:56.389Z</time></trkpt><trkpt lat="43.0886867" lon="13.2010633"><ele>1184.2</ele><time>2026-03-22T09:47:57.387Z</time></trkpt><trkpt lat="43.08877" lon="13.201095"><ele>1189.0</ele><time>2026-03-22T09:47:58.385Z</time></trkpt><trkpt lat="43.08885" lon="13.2011267"><ele>1189.0</ele><time>2026-03-22T09:47:59.39Z</time></trkpt><trkpt lat="43.0889317" lon="13.2011683"><ele>1189.0</ele><time>2026-03-22T09:48:00.372Z</time></trkpt><trkpt lat="43.0890083" lon="13.2012233"><ele>1189.0</ele><time>2026-03-22T09:48:01.373Z</time></trkpt><trkpt lat="43.0890867" lon="13.2012733"><ele>1189.0</ele><time>2026-03-22T09:48:02.374Z</time></trkpt><trkpt lat="43.0891633" lon="13.2013167"><ele>1189.0</ele><time>2026-03-22T09:48:03.383Z</time></trkpt><trkpt lat="43.089235" lon="13.2013617"><ele>1189.0</ele><time>2026-03-22T09:48:04.386Z</time></trkpt><trkpt lat="43.089305" lon="13.2014133"><ele>1190.3333333333333</ele><time>2026-03-22T09:48:05.37Z</time></trkpt><trkpt lat="43.0893733" lon="13.2014633"><ele>1191.6666666666665</ele><time>2026-03-22T09:48:06.386Z</time></trkpt><trkpt lat="43.0894367" lon="13.201515"><ele>1193.0</ele><time>2026-03-22T09:48:07.383Z</time></trkpt><trkpt lat="43.0894933" lon="13.2015683"><ele>1194.3333333333333</ele><time>2026-03-22T09:48:08.433Z</time></trkpt><trkpt lat="43.0895533" lon="13.2016283"><ele>1195.6666666666667</ele><time>2026-03-22T09:48:09.381Z</time></trkpt><trkpt lat="43.0896217" lon="13.2017017"><ele>1197.0</ele><time>2026-03-22T09:48:10.386Z</time></trkpt><trkpt lat="43.0896883" lon="13.2017733"><ele>1197.0</ele><time>2026-03-22T09:48:11.383Z</time></trkpt><trkpt lat="43.0897533" lon="13.2018333"><ele>1197.0</ele><time>2026-03-22T09:48:12.389Z</time></trkpt><trkpt lat="43.0898167" lon="13.2018833"><ele>1197.0</ele><time>2026-03-22T09:48:13.385Z</time></trkpt><trkpt lat="43.0898783" lon="13.2019233"><ele>1197.0</ele><time>2026-03-22T09:48:14.406Z</time></trkpt><trkpt lat="43.0899733" lon="13.2019967"><ele>1197.0</ele><time>2026-03-22T09:48:16.37Z</time></trkpt><trkpt lat="43.090045" lon="13.2020383"><ele>1197.0</ele><time>2026-03-22T09:48:18.365Z</time></trkpt><trkpt lat="43.0901383" lon="13.2020567"><ele>1200.0</ele><time>2026-03-22T09:48:20.426Z</time></trkpt><trkpt lat="43.0902317" lon="13.2020683"><ele>1203.0</ele><time>2026-03-22T09:48:22.389Z</time></trkpt><trkpt lat="43.0903483" lon="13.20208"><ele>1206.0</ele><time>2026-03-22T09:48:24.378Z</time></trkpt><trkpt lat="43.09042" lon="13.2020767"><ele>1209.0</ele><time>2026-03-22T09:48:25.368Z</time></trkpt><trkpt lat="43.090485" lon="13.202065"><ele>1212.0</ele><time>2026-03-22T09:48:26.379Z</time></trkpt><trkpt lat="43.0905783" lon="13.2020233"><ele>1215.0</ele><time>2026-03-22T09:48:28.379Z</time></trkpt><trkpt lat="43.090645" lon="13.2019733"><ele>1215.0</ele><time>2026-03-22T09:48:30.364Z</time></trkpt><trkpt lat="43.0907" lon="13.2019233"><ele>1215.0</ele><time>2026-03-22T09:48:32.374Z</time></trkpt><trkpt lat="43.0907567" lon="13.2018433"><ele>1215.0</ele><time>2026-03-22T09:48:35.382Z</time></trkpt><trkpt lat="43.0908417" lon="13.20175"><ele>1215.0</ele><time>2026-03-22T09:48:37.375Z</time></trkpt><trkpt lat="43.090895" lon="13.2016933"><ele>1215.0</ele><time>2026-03-22T09:48:38.418Z</time></trkpt><trkpt lat="43.0909467" lon="13.2016367"><ele>1215.0</ele><time>2026-03-22T09:48:39.368Z</time></trkpt><trkpt lat="43.091035" lon="13.2015383"><ele>1216.6666666666667</ele><time>2026-03-22T09:48:41.384Z</time></trkpt><trkpt lat="43.0911183" lon="13.2014433"><ele>1218.3333333333333</ele><time>2026-03-22T09:48:43.368Z</time></trkpt><trkpt lat="43.0912017" lon="13.2013783"><ele>1220.0</ele><time>2026-03-22T09:48:45.376Z</time></trkpt><trkpt lat="43.0912683" lon="13.201365"><ele>1221.6666666666665</ele><time>2026-03-22T09:48:47.369Z</time></trkpt><trkpt lat="43.09133" lon="13.20131"><ele>1223.3333333333333</ele><time>2026-03-22T09:50:18.378Z</time></trkpt><trkpt lat="43.0914033" lon="13.2012483"><ele>1225.0</ele><time>2026-03-22T09:50:21.36Z</time></trkpt><trkpt lat="43.0914567" lon="13.2012017"><ele>1225.0</ele><time>2026-03-22T09:50:23.377Z</time></trkpt><trkpt lat="43.0915317" lon="13.2011217"><ele>1225.0</ele><time>2026-03-22T09:50:26.424Z</time></trkpt><trkpt lat="43.0915933" lon="13.2010467"><ele>1225.0</ele><time>2026-03-22T09:50:28.376Z</time></trkpt><trkpt lat="43.09165" lon="13.200975"><ele>1225.0</ele><time>2026-03-22T09:50:30.383Z</time></trkpt><trkpt lat="43.0917117" lon="13.2008883"><ele>1225.0</ele><time>2026-03-22T09:50:32.408Z</time></trkpt><trkpt lat="43.0917783" lon="13.2008083"><ele>1225.0</ele><time>2026-03-22T09:50:34.377Z</time></trkpt><trkpt lat="43.0918517" lon="13.20073"><ele>1222.8</ele><time>2026-03-22T09:50:36.374Z</time></trkpt><trkpt lat="43.0919383" lon="13.200635"><ele>1220.6</ele><time>2026-03-22T09:50:38.418Z</time></trkpt><trkpt lat="43.0920267" lon="13.200525"><ele>1218.4</ele><time>2026-03-22T09:50:40.375Z</time></trkpt><trkpt lat="43.092105" lon="13.2004183"><ele>1216.2</ele><time>2026-03-22T09:50:42.378Z</time></trkpt><trkpt lat="43.0921767" lon="13.2003183"><ele>1214.0</ele><time>2026-03-22T09:50:44.418Z</time></trkpt><trkpt lat="43.0922583" lon="13.2002133"><ele>1214.0</ele><time>2026-03-22T09:50:46.377Z</time></trkpt><trkpt lat="43.0923483" lon="13.2001083"><ele>1214.0</ele><time>2026-03-22T09:50:48.383Z</time></trkpt><trkpt lat="43.0924333" lon="13.2000217"><ele>1214.0</ele><time>2026-03-22T09:50:50.417Z</time></trkpt><trkpt lat="43.0925117" lon="13.199945"><ele>1214.0</ele><time>2026-03-22T09:50:52.372Z</time></trkpt><trkpt lat="43.0925883" lon="13.199885"><ele>1214.0</ele><time>2026-03-22T09:50:54.352Z</time></trkpt><trkpt lat="43.0926717" lon="13.1998167"><ele>1211.6000000000001</ele><time>2026-03-22T09:50:56.426Z</time></trkpt><trkpt lat="43.09275" lon="13.19975"><ele>1209.2</ele><time>2026-03-22T09:50:58.368Z</time></trkpt><trkpt lat="43.0928267" lon="13.199675"><ele>1206.8000000000002</ele><time>2026-03-22T09:51:00.38Z</time></trkpt><trkpt lat="43.0928967" lon="13.1995933"><ele>1204.4</ele><time>2026-03-22T09:51:02.427Z</time></trkpt><trkpt lat="43.0929617" lon="13.1995067"><ele>1202.0</ele><time>2026-03-22T09:51:04.363Z</time></trkpt><trkpt lat="43.0930267" lon="13.1994183"><ele>1202.0</ele><time>2026-03-22T09:51:06.376Z</time></trkpt><trkpt lat="43.0930917" lon="13.1993183"><ele>1202.0</ele><time>2026-03-22T09:51:08.425Z</time></trkpt><trkpt lat="43.093145" lon="13.1992333"><ele>1202.0</ele><time>2026-03-22T09:51:10.359Z</time></trkpt><trkpt lat="43.093195" lon="13.19914"><ele>1202.0</ele><time>2026-03-22T09:51:13.371Z</time></trkpt><trkpt lat="43.0932483" lon="13.1990617"><ele>1202.0</ele><time>2026-03-22T09:51:16.377Z</time></trkpt><trkpt lat="43.0933017" lon="13.1989983"><ele>1202.0</ele><time>2026-03-22T09:51:18.376Z</time></trkpt><trkpt lat="43.09335" lon="13.1989083"><ele>1199.3333333333335</ele><time>2026-03-22T09:51:20.423Z</time></trkpt><trkpt lat="43.0933933" lon="13.1988233"><ele>1196.6666666666667</ele><time>2026-03-22T09:51:22.376Z</time></trkpt><trkpt lat="43.09344" lon="13.198745"><ele>1194.0</ele><time>2026-03-22T09:51:24.377Z</time></trkpt><trkpt lat="43.0935033" lon="13.1986583"><ele>1191.3333333333333</ele><time>2026-03-22T09:51:26.397Z</time></trkpt><trkpt lat="43.0935783" lon="13.198575"><ele>1188.6666666666665</ele><time>2026-03-22T09:51:28.374Z</time></trkpt><trkpt lat="43.0936467" lon="13.1984967"><ele>1186.0</ele><time>2026-03-22T09:51:30.378Z</time></trkpt><trkpt lat="43.0937167" lon="13.198415"><ele>1186.0</ele><time>2026-03-22T09:51:32.389Z</time></trkpt><trkpt lat="43.0937883" lon="13.198345"><ele>1186.0</ele><time>2026-03-22T09:51:34.365Z</time></trkpt><trkpt lat="43.09388" lon="13.198275"><ele>1186.0</ele><time>2026-03-22T09:51:36.347Z</time></trkpt><trkpt lat="43.0939883" lon="13.1982067"><ele>1186.0</ele><time>2026-03-22T09:51:38.4Z</time></trkpt><trkpt lat="43.0940983" lon="13.198155"><ele>1186.0</ele><time>2026-03-22T09:51:40.37Z</time></trkpt><trkpt lat="43.09421" lon="13.1980817"><ele>1182.8333333333333</ele><time>2026-03-22T09:51:42.382Z</time></trkpt><trkpt lat="43.0942717" lon="13.198045"><ele>1179.6666666666665</ele><time>2026-03-22T09:51:43.375Z</time></trkpt><trkpt lat="43.0943333" lon="13.1980183"><ele>1176.5</ele><time>2026-03-22T09:51:44.422Z</time></trkpt><trkpt lat="43.094395" lon="13.197995"><ele>1173.3333333333333</ele><time>2026-03-22T09:51:45.374Z</time></trkpt><trkpt lat="43.09446" lon="13.197985"><ele>1170.1666666666667</ele><time>2026-03-22T09:51:46.358Z</time></trkpt><trkpt lat="43.0945783" lon="13.1979533"><ele>1167.0</ele><time>2026-03-22T09:51:48.381Z</time></trkpt><trkpt lat="43.0946867" lon="13.1978883"><ele>1167.0</ele><time>2026-03-22T09:51:50.415Z</time></trkpt><trkpt lat="43.09479" lon="13.1977983"><ele>1167.0</ele><time>2026-03-22T09:51:52.376Z</time></trkpt><trkpt lat="43.0949017" lon="13.1977133"><ele>1167.0</ele><time>2026-03-22T09:51:54.385Z</time></trkpt><trkpt lat="43.0949617" lon="13.1976767"><ele>1167.0</ele><time>2026-03-22T09:51:55.375Z</time></trkpt><trkpt lat="43.0950533" lon="13.1976"><ele>1167.0</ele><time>2026-03-22T09:51:57.374Z</time></trkpt><trkpt lat="43.09513" lon="13.197515"><ele>1163.4</ele><time>2026-03-22T09:51:59.375Z</time></trkpt><trkpt lat="43.0952" lon="13.19744"><ele>1159.8000000000002</ele><time>2026-03-22T09:52:01.368Z</time></trkpt><trkpt lat="43.0952767" lon="13.1973883"><ele>1156.2</ele><time>2026-03-22T09:52:03.374Z</time></trkpt><trkpt lat="43.09539" lon="13.197325"><ele>1152.6000000000001</ele><time>2026-03-22T09:52:05.374Z</time></trkpt><trkpt lat="43.09548" lon="13.1972833"><ele>1149.0</ele><time>2026-03-22T09:52:06.384Z</time></trkpt><trkpt lat="43.0955817" lon="13.1972383"><ele>1149.0</ele><time>2026-03-22T09:52:07.379Z</time></trkpt><trkpt lat="43.0956833" lon="13.1972"><ele>1149.0</ele><time>2026-03-22T09:52:08.425Z</time></trkpt><trkpt lat="43.0957933" lon="13.19716"><ele>1149.0</ele><time>2026-03-22T09:52:09.373Z</time></trkpt><trkpt lat="43.0959183" lon="13.1971117"><ele>1149.0</ele><time>2026-03-22T09:52:10.377Z</time></trkpt><trkpt lat="43.0960383" lon="13.19706"><ele>1146.0</ele><time>2026-03-22T09:52:11.378Z</time></trkpt><trkpt lat="43.0961467" lon="13.1970117"><ele>1143.0</ele><time>2026-03-22T09:52:12.381Z</time></trkpt><trkpt lat="43.096235" lon="13.196965"><ele>1140.0</ele><time>2026-03-22T09:52:13.378Z</time></trkpt><trkpt lat="43.096305" lon="13.196915"><ele>1137.0</ele><time>2026-03-22T09:52:14.418Z</time></trkpt><trkpt lat="43.0964017" lon="13.1968217"><ele>1134.0</ele><time>2026-03-22T09:52:16.378Z</time></trkpt><trkpt lat="43.0964867" lon="13.1967317"><ele>1131.0</ele><time>2026-03-22T09:52:18.382Z</time></trkpt><trkpt lat="43.0965867" lon="13.196645"><ele>1128.0</ele><time>2026-03-22T09:52:20.408Z</time></trkpt><trkpt lat="43.0966417" lon="13.196595"><ele>1125.0</ele><time>2026-03-22T09:52:21.375Z</time></trkpt><trkpt lat="43.0966933" lon="13.19654"><ele>1122.0</ele><time>2026-03-22T09:52:22.378Z</time></trkpt><trkpt lat="43.096745" lon="13.1964833"><ele>1119.0</ele><time>2026-03-22T09:52:23.376Z</time></trkpt><trkpt lat="43.0968" lon="13.1964267"><ele>1116.0</ele><time>2026-03-22T09:52:24.372Z</time></trkpt><trkpt lat="43.0968567" lon="13.1963783"><ele>1116.0</ele><time>2026-03-22T09:52:25.375Z</time></trkpt><trkpt lat="43.096915" lon="13.196325"><ele>1116.0</ele><time>2026-03-22T09:52:26.382Z</time></trkpt><trkpt lat="43.096975" lon="13.1962567"><ele>1116.0</ele><time>2026-03-22T09:52:27.377Z</time></trkpt><trkpt lat="43.0970433" lon="13.1961683"><ele>1116.0</ele><time>2026-03-22T09:52:28.376Z</time></trkpt><trkpt lat="43.0971183" lon="13.1960683"><ele>1116.0</ele><time>2026-03-22T09:52:29.38Z</time></trkpt><trkpt lat="43.0972017" lon="13.1959617"><ele>1116.0</ele><time>2026-03-22T09:52:30.378Z</time></trkpt><trkpt lat="43.097285" lon="13.19586"><ele>1116.0</ele><time>2026-03-22T09:52:31.377Z</time></trkpt><trkpt lat="43.0973667" lon="13.195765"><ele>1116.0</ele><time>2026-03-22T09:52:32.363Z</time></trkpt><trkpt lat="43.0974483" lon="13.1956767"><ele>1116.0</ele><time>2026-03-22T09:52:33.377Z</time></trkpt><trkpt lat="43.09753" lon="13.1956"><ele>1116.0</ele><time>2026-03-22T09:52:34.379Z</time></trkpt><trkpt lat="43.097615" lon="13.195535"><ele>1112.6</ele><time>2026-03-22T09:52:35.378Z</time></trkpt><trkpt lat="43.097705" lon="13.1954767"><ele>1109.1999999999998</ele><time>2026-03-22T09:52:36.379Z</time></trkpt><trkpt lat="43.0977933" lon="13.195415"><ele>1105.8000000000002</ele><time>2026-03-22T09:52:37.377Z</time></trkpt><trkpt lat="43.09788" lon="13.1953417"><ele>1102.4</ele><time>2026-03-22T09:52:38.425Z</time></trkpt><trkpt lat="43.09796" lon="13.1952683"><ele>1099.0</ele><time>2026-03-22T09:52:39.375Z</time></trkpt><trkpt lat="43.0980317" lon="13.1952017"><ele>1099.0</ele><time>2026-03-22T09:52:40.38Z</time></trkpt><trkpt lat="43.0980933" lon="13.1951433"><ele>1099.0</ele><time>2026-03-22T09:52:41.379Z</time></trkpt><trkpt lat="43.0981917" lon="13.1950883"><ele>1099.0</ele><time>2026-03-22T09:52:43.379Z</time></trkpt><trkpt lat="43.0982533" lon="13.1951283"><ele>1099.0</ele><time>2026-03-22T09:52:45.363Z</time></trkpt><trkpt lat="43.0983" lon="13.195215"><ele>1099.0</ele><time>2026-03-22T09:52:48.365Z</time></trkpt><trkpt lat="43.098375" lon="13.1952717"><ele>1099.0</ele><time>2026-03-22T09:53:05.37Z</time></trkpt><trkpt lat="43.0984333" lon="13.1953083"><ele>1098.8</ele><time>2026-03-22T09:53:06.38Z</time></trkpt><trkpt lat="43.0985067" lon="13.1953583"><ele>1098.6000000000001</ele><time>2026-03-22T09:53:07.376Z</time></trkpt><trkpt lat="43.0985883" lon="13.195415"><ele>1098.4</ele><time>2026-03-22T09:53:08.423Z</time></trkpt><trkpt lat="43.0986667" lon="13.19548"><ele>1098.2</ele><time>2026-03-22T09:53:09.376Z</time></trkpt><trkpt lat="43.0987467" lon="13.1955533"><ele>1098.0</ele><time>2026-03-22T09:53:10.383Z</time></trkpt><trkpt lat="43.09883" lon="13.1956317"><ele>1098.2</ele><time>2026-03-22T09:53:11.379Z</time></trkpt><trkpt lat="43.0989183" lon="13.1957067"><ele>1098.4</ele><time>2026-03-22T09:53:12.377Z</time></trkpt><trkpt lat="43.099005" lon="13.1957783"><ele>1098.6000000000001</ele><time>2026-03-22T09:53:13.375Z</time></trkpt><trkpt lat="43.0990883" lon="13.19584"><ele>1098.8</ele><time>2026-03-22T09:53:14.402Z</time></trkpt><trkpt lat="43.0991683" lon="13.19589"><ele>1099.0</ele><time>2026-03-22T09:53:15.36Z</time></trkpt><trkpt lat="43.0992483" lon="13.1959233"><ele>1099.0</ele><time>2026-03-22T09:53:16.385Z</time></trkpt><trkpt lat="43.09934" lon="13.1959333"><ele>1099.0</ele><time>2026-03-22T09:53:17.389Z</time></trkpt><trkpt lat="43.09944" lon="13.1959417"><ele>1099.0</ele><time>2026-03-22T09:53:18.388Z</time></trkpt><trkpt lat="43.0995467" lon="13.1959583"><ele>1099.0</ele><time>2026-03-22T09:53:19.386Z</time></trkpt><trkpt lat="43.09966" lon="13.1959833"><ele>1099.0</ele><time>2026-03-22T09:53:20.435Z</time></trkpt><trkpt lat="43.0997783" lon="13.19601"><ele>1099.0</ele><time>2026-03-22T09:53:21.383Z</time></trkpt><trkpt lat="43.0999" lon="13.1960483"><ele>1099.0</ele><time>2026-03-22T09:53:22.387Z</time></trkpt><trkpt lat="43.1000167" lon="13.1960983"><ele>1099.0</ele><time>2026-03-22T09:53:23.388Z</time></trkpt><trkpt lat="43.1001233" lon="13.1961483"><ele>1099.0</ele><time>2026-03-22T09:53:24.386Z</time></trkpt><trkpt lat="43.1002183" lon="13.1961917"><ele>1099.8</ele><time>2026-03-22T09:53:25.386Z</time></trkpt><trkpt lat="43.1003117" lon="13.1962283"><ele>1100.6000000000001</ele><time>2026-03-22T09:53:26.39Z</time></trkpt><trkpt lat="43.1004067" lon="13.1962567"><ele>1101.4</ele><time>2026-03-22T09:53:27.384Z</time></trkpt><trkpt lat="43.100505" lon="13.1962883"><ele>1102.2</ele><time>2026-03-22T09:53:28.388Z</time></trkpt><trkpt lat="43.100615" lon="13.1963217"><ele>1103.0</ele><time>2026-03-22T09:53:29.386Z</time></trkpt><trkpt lat="43.100735" lon="13.1963533"><ele>1102.25</ele><time>2026-03-22T09:53:30.385Z</time></trkpt><trkpt lat="43.10086" lon="13.1963883"><ele>1101.5</ele><time>2026-03-22T09:53:31.371Z</time></trkpt><trkpt lat="43.1009817" lon="13.1964217"><ele>1100.75</ele><time>2026-03-22T09:53:32.388Z</time></trkpt><trkpt lat="43.1011033" lon="13.19644"><ele>1100.0</ele><time>2026-03-22T09:53:33.386Z</time></trkpt><trkpt lat="43.1012267" lon="13.1964467"><ele>1100.0</ele><time>2026-03-22T09:53:34.385Z</time></trkpt><trkpt lat="43.1013617" lon="13.19646"><ele>1100.0</ele><time>2026-03-22T09:53:35.388Z</time></trkpt><trkpt lat="43.10151" lon="13.19649"><ele>1100.0</ele><time>2026-03-22T09:53:36.385Z</time></trkpt><trkpt lat="43.101665" lon="13.19652"><ele>1100.0</ele><time>2026-03-22T09:53:37.389Z</time></trkpt><trkpt lat="43.10183" lon="13.19655"><ele>1099.0</ele><time>2026-03-22T09:53:38.434Z</time></trkpt><trkpt lat="43.101995" lon="13.196575"><ele>1098.0</ele><time>2026-03-22T09:53:39.385Z</time></trkpt><trkpt lat="43.102145" lon="13.1966067"><ele>1097.0</ele><time>2026-03-22T09:53:40.386Z</time></trkpt><trkpt lat="43.1022783" lon="13.1966483"><ele>1097.0</ele><time>2026-03-22T09:53:41.389Z</time></trkpt><trkpt lat="43.1023983" lon="13.1967017"><ele>1097.0</ele><time>2026-03-22T09:53:42.387Z</time></trkpt><trkpt lat="43.1025" lon="13.1967567"><ele>1097.0</ele><time>2026-03-22T09:53:43.388Z</time></trkpt><trkpt lat="43.1025967" lon="13.1968017"><ele>1097.0</ele><time>2026-03-22T09:53:44.403Z</time></trkpt><trkpt lat="43.1026983" lon="13.1968217"><ele>1097.0</ele><time>2026-03-22T09:53:45.376Z</time></trkpt><trkpt lat="43.1028017" lon="13.196815"><ele>1097.6</ele><time>2026-03-22T09:53:46.391Z</time></trkpt><trkpt lat="43.10291" lon="13.1968083"><ele>1098.2</ele><time>2026-03-22T09:53:47.388Z</time></trkpt><trkpt lat="43.10302" lon="13.1968083"><ele>1098.8</ele><time>2026-03-22T09:53:48.374Z</time></trkpt><trkpt lat="43.1031333" lon="13.1968083"><ele>1099.4</ele><time>2026-03-22T09:53:49.358Z</time></trkpt><trkpt lat="43.1032467" lon="13.1967983"><ele>1100.0</ele><time>2026-03-22T09:53:50.426Z</time></trkpt><trkpt lat="43.10336" lon="13.19679"><ele>1098.0</ele><time>2026-03-22T09:53:51.378Z</time></trkpt><trkpt lat="43.10347" lon="13.1967833"><ele>1096.0</ele><time>2026-03-22T09:53:52.387Z</time></trkpt><trkpt lat="43.1035817" lon="13.1967833"><ele>1094.0</ele><time>2026-03-22T09:53:53.386Z</time></trkpt><trkpt lat="43.103695" lon="13.196775"><ele>1092.0</ele><time>2026-03-22T09:53:54.381Z</time></trkpt><trkpt lat="43.1038117" lon="13.1967617"><ele>1092.0</ele><time>2026-03-22T09:53:55.385Z</time></trkpt><trkpt lat="43.1039233" lon="13.19672"><ele>1092.0</ele><time>2026-03-22T09:53:56.442Z</time></trkpt><trkpt lat="43.10403" lon="13.196655"><ele>1092.0</ele><time>2026-03-22T09:53:57.38Z</time></trkpt><trkpt lat="43.1041467" lon="13.1965817"><ele>1092.0</ele><time>2026-03-22T09:53:58.386Z</time></trkpt><trkpt lat="43.1042683" lon="13.19651"><ele>1088.75</ele><time>2026-03-22T09:53:59.354Z</time></trkpt><trkpt lat="43.1043867" lon="13.1964367"><ele>1085.5</ele><time>2026-03-22T09:54:00.387Z</time></trkpt><trkpt lat="43.1045033" lon="13.1963633"><ele>1082.25</ele><time>2026-03-22T09:54:01.387Z</time></trkpt><trkpt lat="43.104625" lon="13.196275"><ele>1079.0</ele><time>2026-03-22T09:54:02.391Z</time></trkpt><trkpt lat="43.1047617" lon="13.196185"><ele>1079.0</ele><time>2026-03-22T09:54:03.387Z</time></trkpt><trkpt lat="43.1049033" lon="13.1960867"><ele>1079.0</ele><time>2026-03-22T09:54:04.384Z</time></trkpt><trkpt lat="43.105055" lon="13.195985"><ele>1079.0</ele><time>2026-03-22T09:54:05.385Z</time></trkpt><trkpt lat="43.1052117" lon="13.1958767"><ele>1075.3333333333335</ele><time>2026-03-22T09:54:06.385Z</time></trkpt><trkpt lat="43.1053633" lon="13.1957683"><ele>1071.6666666666667</ele><time>2026-03-22T09:54:07.39Z</time></trkpt><trkpt lat="43.1055083" lon="13.195665"><ele>1068.0</ele><time>2026-03-22T09:54:08.421Z</time></trkpt><trkpt lat="43.10565" lon="13.1955767"><ele>1065.25</ele><time>2026-03-22T09:54:09.391Z</time></trkpt><trkpt lat="43.1057867" lon="13.1954933"><ele>1062.5</ele><time>2026-03-22T09:54:10.389Z</time></trkpt><trkpt lat="43.105925" lon="13.1954183"><ele>1059.75</ele><time>2026-03-22T09:54:11.387Z</time></trkpt><trkpt lat="43.1060633" lon="13.195355"><ele>1057.0</ele><time>2026-03-22T09:54:12.361Z</time></trkpt><trkpt lat="43.1062083" lon="13.1953033"><ele>1057.0</ele><time>2026-03-22T09:54:13.368Z</time></trkpt><trkpt lat="43.1063467" lon="13.1952433"><ele>1057.0</ele><time>2026-03-22T09:54:14.417Z</time></trkpt><trkpt lat="43.106475" lon="13.1951817"><ele>1057.0</ele><time>2026-03-22T09:54:15.382Z</time></trkpt><trkpt lat="43.10659" lon="13.1951317"><ele>1057.0</ele><time>2026-03-22T09:54:16.366Z</time></trkpt><trkpt lat="43.1066933" lon="13.1951117"><ele>1054.25</ele><time>2026-03-22T09:54:17.376Z</time></trkpt><trkpt lat="43.1067983" lon="13.1951117"><ele>1051.5</ele><time>2026-03-22T09:54:18.383Z</time></trkpt><trkpt lat="43.10691" lon="13.1951"><ele>1048.75</ele><time>2026-03-22T09:54:19.387Z</time></trkpt><trkpt lat="43.10703" lon="13.1950733"><ele>1046.0</ele><time>2026-03-22T09:54:20.434Z</time></trkpt><trkpt lat="43.1071517" lon="13.19504"><ele>1046.0</ele><time>2026-03-22T09:54:21.388Z</time></trkpt><trkpt lat="43.10728" lon="13.1949983"><ele>1046.0</ele><time>2026-03-22T09:54:22.386Z</time></trkpt><trkpt lat="43.1074083" lon="13.1949517"><ele>1046.0</ele><time>2026-03-22T09:54:23.38Z</time></trkpt><trkpt lat="43.1075367" lon="13.1949033"><ele>1046.0</ele><time>2026-03-22T09:54:24.386Z</time></trkpt><trkpt lat="43.1076617" lon="13.1948533"><ele>1045.75</ele><time>2026-03-22T09:54:25.386Z</time></trkpt><trkpt lat="43.107785" lon="13.1948067"><ele>1045.5</ele><time>2026-03-22T09:54:26.451Z</time></trkpt><trkpt lat="43.1079117" lon="13.194765"><ele>1045.25</ele><time>2026-03-22T09:54:27.383Z</time></trkpt><trkpt lat="43.108045" lon="13.19474"><ele>1045.0</ele><time>2026-03-22T09:54:28.39Z</time></trkpt><trkpt lat="43.10818" lon="13.1947217"><ele>1042.0</ele><time>2026-03-22T09:54:29.385Z</time></trkpt><trkpt lat="43.1083083" lon="13.194715"><ele>1039.0</ele><time>2026-03-22T09:54:30.387Z</time></trkpt><trkpt lat="43.1084333" lon="13.1947217"><ele>1036.0</ele><time>2026-03-22T09:54:31.389Z</time></trkpt><trkpt lat="43.1085583" lon="13.194735"><ele>1033.0</ele><time>2026-03-22T09:54:32.444Z</time></trkpt><trkpt lat="43.1086867" lon="13.1947467"><ele>1033.0</ele><time>2026-03-22T09:54:33.378Z</time></trkpt><trkpt lat="43.10882" lon="13.194745"><ele>1033.0</ele><time>2026-03-22T09:54:34.379Z</time></trkpt><trkpt lat="43.1089583" lon="13.1947433"><ele>1033.0</ele><time>2026-03-22T09:54:35.38Z</time></trkpt><trkpt lat="43.109095" lon="13.194745"><ele>1033.0</ele><time>2026-03-22T09:54:36.386Z</time></trkpt><trkpt lat="43.10923" lon="13.1947533"><ele>1030.25</ele><time>2026-03-22T09:54:37.386Z</time></trkpt><trkpt lat="43.1093617" lon="13.1947633"><ele>1027.5</ele><time>2026-03-22T09:54:38.426Z</time></trkpt><trkpt lat="43.109495" lon="13.1947583"><ele>1024.75</ele><time>2026-03-22T09:54:39.372Z</time></trkpt><trkpt lat="43.109625" lon="13.1947417"><ele>1022.0</ele><time>2026-03-22T09:54:40.387Z</time></trkpt><trkpt lat="43.1097583" lon="13.194715"><ele>1022.0</ele><time>2026-03-22T09:54:41.388Z</time></trkpt><trkpt lat="43.1098933" lon="13.1946783"><ele>1022.0</ele><time>2026-03-22T09:54:42.38Z</time></trkpt><trkpt lat="43.1100267" lon="13.1946267"><ele>1022.0</ele><time>2026-03-22T09:54:43.389Z</time></trkpt><trkpt lat="43.1101617" lon="13.19456"><ele>1022.0</ele><time>2026-03-22T09:54:44.423Z</time></trkpt><trkpt lat="43.1102983" lon="13.1944967"><ele>1018.25</ele><time>2026-03-22T09:54:45.39Z</time></trkpt><trkpt lat="43.1104317" lon="13.1944283"><ele>1014.5</ele><time>2026-03-22T09:54:46.387Z</time></trkpt><trkpt lat="43.1105583" lon="13.1943583"><ele>1010.75</ele><time>2026-03-22T09:54:47.388Z</time></trkpt><trkpt lat="43.1106767" lon="13.1942983"><ele>1007.0</ele><time>2026-03-22T09:54:48.389Z</time></trkpt><trkpt lat="43.1107933" lon="13.194265"><ele>1002.75</ele><time>2026-03-22T09:54:49.386Z</time></trkpt><trkpt lat="43.1109133" lon="13.1942533"><ele>998.5</ele><time>2026-03-22T09:54:50.428Z</time></trkpt><trkpt lat="43.1110383" lon="13.1942433"><ele>994.25</ele><time>2026-03-22T09:54:51.39Z</time></trkpt><trkpt lat="43.1111633" lon="13.19423"><ele>990.0</ele><time>2026-03-22T09:54:52.39Z</time></trkpt><trkpt lat="43.1112883" lon="13.1942133"><ele>990.0</ele><time>2026-03-22T09:54:53.383Z</time></trkpt><trkpt lat="43.1114133" lon="13.1942017"><ele>990.0</ele><time>2026-03-22T09:54:54.385Z</time></trkpt><trkpt lat="43.1115367" lon="13.19419"><ele>990.0</ele><time>2026-03-22T09:54:55.388Z</time></trkpt><trkpt lat="43.1116583" lon="13.1941733"><ele>990.0</ele><time>2026-03-22T09:54:56.391Z</time></trkpt><trkpt lat="43.1117667" lon="13.1941633"><ele>987.4</ele><time>2026-03-22T09:54:57.388Z</time></trkpt><trkpt lat="43.111865" lon="13.19417"><ele>984.8</ele><time>2026-03-22T09:54:58.389Z</time></trkpt><trkpt lat="43.111965" lon="13.1942083"><ele>982.2</ele><time>2026-03-22T09:54:59.383Z</time></trkpt><trkpt lat="43.1120683" lon="13.194265"><ele>979.6</ele><time>2026-03-22T09:55:00.389Z</time></trkpt><trkpt lat="43.1121767" lon="13.1943167"><ele>977.0</ele><time>2026-03-22T09:55:01.381Z</time></trkpt><trkpt lat="43.1122833" lon="13.1943417"><ele>977.0</ele><time>2026-03-22T09:55:02.435Z</time></trkpt><trkpt lat="43.11239" lon="13.19435"><ele>977.0</ele><time>2026-03-22T09:55:03.387Z</time></trkpt><trkpt lat="43.1124883" lon="13.194335"><ele>977.0</ele><time>2026-03-22T09:55:04.39Z</time></trkpt><trkpt lat="43.1126" lon="13.19428"><ele>977.0</ele><time>2026-03-22T09:55:05.388Z</time></trkpt><trkpt lat="43.1127133" lon="13.1942017"><ele>974.8</ele><time>2026-03-22T09:55:06.387Z</time></trkpt><trkpt lat="43.112815" lon="13.1941133"><ele>972.6</ele><time>2026-03-22T09:55:07.39Z</time></trkpt><trkpt lat="43.11291" lon="13.1940317"><ele>970.3999999999999</ele><time>2026-03-22T09:55:08.427Z</time></trkpt><trkpt lat="43.113005" lon="13.1939683"><ele>968.1999999999999</ele><time>2026-03-22T09:55:09.375Z</time></trkpt><trkpt lat="43.1131033" lon="13.19391"><ele>966.0</ele><time>2026-03-22T09:55:10.39Z</time></trkpt><trkpt lat="43.1132017" lon="13.193845"><ele>961.0</ele><time>2026-03-22T09:55:11.386Z</time></trkpt><trkpt lat="43.113305" lon="13.19378"><ele>956.0</ele><time>2026-03-22T09:55:12.38Z</time></trkpt><trkpt lat="43.113415" lon="13.19372"><ele>951.0</ele><time>2026-03-22T09:55:13.387Z</time></trkpt><trkpt lat="43.11353" lon="13.1936783"><ele>946.0</ele><time>2026-03-22T09:55:14.422Z</time></trkpt><trkpt lat="43.1136467" lon="13.1936483"><ele>946.0</ele><time>2026-03-22T09:55:15.389Z</time></trkpt><trkpt lat="43.11376" lon="13.1936067"><ele>946.0</ele><time>2026-03-22T09:55:16.365Z</time></trkpt><trkpt lat="43.1138683" lon="13.19355"><ele>946.0</ele><time>2026-03-22T09:55:17.389Z</time></trkpt><trkpt lat="43.11398" lon="13.1934967"><ele>946.0</ele><time>2026-03-22T09:55:18.387Z</time></trkpt><trkpt lat="43.114095" lon="13.1934533"><ele>942.5999999999999</ele><time>2026-03-22T09:55:19.388Z</time></trkpt><trkpt lat="43.1142033" lon="13.193415"><ele>939.1999999999999</ele><time>2026-03-22T09:55:20.427Z</time></trkpt><trkpt lat="43.1143133" lon="13.19337"><ele>935.8000000000001</ele><time>2026-03-22T09:55:21.386Z</time></trkpt><trkpt lat="43.1144217" lon="13.1933217"><ele>932.4000000000001</ele><time>2026-03-22T09:55:22.387Z</time></trkpt><trkpt lat="43.11452" lon="13.1932717"><ele>929.0</ele><time>2026-03-22T09:55:23.382Z</time></trkpt><trkpt lat="43.11461" lon="13.1932233"><ele>929.0000000000001</ele><time>2026-03-22T09:55:24.39Z</time></trkpt><trkpt lat="43.1146883" lon="13.1931933"><ele>929.0</ele><time>2026-03-22T09:55:25.387Z</time></trkpt><trkpt lat="43.1147583" lon="13.19319"><ele>929.0</ele><time>2026-03-22T09:55:26.449Z</time></trkpt><trkpt lat="43.1148633" lon="13.19323"><ele>929.0</ele><time>2026-03-22T09:55:28.393Z</time></trkpt><trkpt lat="43.1149233" lon="13.1932"><ele>929.0000000000001</ele><time>2026-03-22T09:55:31.38Z</time></trkpt><trkpt lat="43.114905" lon="13.1931017"><ele>929.0</ele><time>2026-03-22T09:55:33.374Z</time></trkpt><trkpt lat="43.1148783" lon="13.1930183"><ele>929.8000000000001</ele><time>2026-03-22T09:55:34.382Z</time></trkpt><trkpt lat="43.114855" lon="13.1929217"><ele>930.6000000000001</ele><time>2026-03-22T09:55:35.389Z</time></trkpt><trkpt lat="43.114825" lon="13.1928167"><ele>931.4</ele><time>2026-03-22T09:55:36.387Z</time></trkpt><trkpt lat="43.1147933" lon="13.1926883"><ele>932.2</ele><time>2026-03-22T09:55:37.376Z</time></trkpt><trkpt lat="43.11476" lon="13.1925467"><ele>933.0</ele><time>2026-03-22T09:55:38.434Z</time></trkpt><trkpt lat="43.1147217" lon="13.1923983"><ele>932.75</ele><time>2026-03-22T09:55:39.382Z</time></trkpt><trkpt lat="43.1146783" lon="13.1922433"><ele>932.5</ele><time>2026-03-22T09:55:40.389Z</time></trkpt><trkpt lat="43.1146317" lon="13.192075"><ele>932.25</ele><time>2026-03-22T09:55:41.389Z</time></trkpt><trkpt lat="43.1145867" lon="13.1919067"><ele>932.0</ele><time>2026-03-22T09:55:42.39Z</time></trkpt><trkpt lat="43.1145433" lon="13.1917533"><ele>932.0</ele><time>2026-03-22T09:55:43.387Z</time></trkpt><trkpt lat="43.1144983" lon="13.1916083"><ele>932.0</ele><time>2026-03-22T09:55:44.424Z</time></trkpt><trkpt lat="43.11445" lon="13.1914633"><ele>932.0</ele><time>2026-03-22T09:55:45.39Z</time></trkpt><trkpt lat="43.114395" lon="13.1913233"><ele>932.0</ele><time>2026-03-22T09:55:46.386Z</time></trkpt><trkpt lat="43.1143417" lon="13.1911883"><ele>932.0</ele><time>2026-03-22T09:55:47.392Z</time></trkpt><trkpt lat="43.1142867" lon="13.1910467"><ele>932.0</ele><time>2026-03-22T09:55:48.391Z</time></trkpt><trkpt lat="43.11423" lon="13.1908983"><ele>932.0</ele><time>2026-03-22T09:55:49.39Z</time></trkpt><trkpt lat="43.114175" lon="13.1907433"><ele>932.0</ele><time>2026-03-22T09:55:50.404Z</time></trkpt><trkpt lat="43.1141183" lon="13.1905817"><ele>937.25</ele><time>2026-03-22T09:55:51.379Z</time></trkpt><trkpt lat="43.1140583" lon="13.1904167"><ele>942.5</ele><time>2026-03-22T09:55:52.391Z</time></trkpt><trkpt lat="43.1140017" lon="13.1902483"><ele>947.75</ele><time>2026-03-22T09:55:53.391Z</time></trkpt><trkpt lat="43.1139467" lon="13.1900883"><ele>953.0</ele><time>2026-03-22T09:55:54.394Z</time></trkpt><trkpt lat="43.1138983" lon="13.189945"><ele>952.5000000000001</ele><time>2026-03-22T09:55:55.388Z</time></trkpt><trkpt lat="43.1138583" lon="13.1898217"><ele>952.0</ele><time>2026-03-22T09:55:56.383Z</time></trkpt><trkpt lat="43.1138317" lon="13.189715"><ele>951.5</ele><time>2026-03-22T09:55:57.387Z</time></trkpt><trkpt lat="43.1138217" lon="13.1896217"><ele>951.0</ele><time>2026-03-22T09:55:58.39Z</time></trkpt><trkpt lat="43.1138367" lon="13.1895267"><ele>950.5000000000001</ele><time>2026-03-22T09:55:59.39Z</time></trkpt><trkpt lat="43.1138667" lon="13.1894117"><ele>950.0</ele><time>2026-03-22T09:56:00.387Z</time></trkpt><trkpt lat="43.1139067" lon="13.18928"><ele>950.0</ele><time>2026-03-22T09:56:01.389Z</time></trkpt><trkpt lat="43.113955" lon="13.189145"><ele>950.0</ele><time>2026-03-22T09:56:02.437Z</time></trkpt><trkpt lat="43.1140067" lon="13.1890117"><ele>950.0</ele><time>2026-03-22T09:56:03.375Z</time></trkpt><trkpt lat="43.1140633" lon="13.188875"><ele>950.0</ele><time>2026-03-22T09:56:04.388Z</time></trkpt><trkpt lat="43.1141267" lon="13.18874"><ele>945.75</ele><time>2026-03-22T09:56:05.384Z</time></trkpt><trkpt lat="43.1141967" lon="13.1886033"><ele>941.5</ele><time>2026-03-22T09:56:06.388Z</time></trkpt><trkpt lat="43.11427" lon="13.18846"><ele>937.25</ele><time>2026-03-22T09:56:07.384Z</time></trkpt><trkpt lat="43.11434" lon="13.1883183"><ele>933.0</ele><time>2026-03-22T09:56:08.428Z</time></trkpt><trkpt lat="43.1144033" lon="13.1881783"><ele>931.75</ele><time>2026-03-22T09:56:09.386Z</time></trkpt><trkpt lat="43.1144617" lon="13.18804"><ele>930.5</ele><time>2026-03-22T09:56:10.387Z</time></trkpt><trkpt lat="43.1145167" lon="13.1878967"><ele>929.25</ele><time>2026-03-22T09:56:11.389Z</time></trkpt><trkpt lat="43.11457" lon="13.1877467"><ele>928.0</ele><time>2026-03-22T09:56:12.387Z</time></trkpt><trkpt lat="43.1146233" lon="13.1875867"><ele>928.0</ele><time>2026-03-22T09:56:13.389Z</time></trkpt><trkpt lat="43.1146767" lon="13.1874283"><ele>928.0</ele><time>2026-03-22T09:56:14.431Z</time></trkpt><trkpt lat="43.1147333" lon="13.187275"><ele>928.0</ele><time>2026-03-22T09:56:15.38Z</time></trkpt><trkpt lat="43.1147917" lon="13.1871317"><ele>928.0</ele><time>2026-03-22T09:56:16.365Z</time></trkpt><trkpt lat="43.1148567" lon="13.1870033"><ele>925.0</ele><time>2026-03-22T09:56:17.387Z</time></trkpt><trkpt lat="43.1149283" lon="13.1868917"><ele>922.0</ele><time>2026-03-22T09:56:18.387Z</time></trkpt><trkpt lat="43.1150033" lon="13.1867983"><ele>919.0</ele><time>2026-03-22T09:56:19.388Z</time></trkpt><trkpt lat="43.1150783" lon="13.1867217"><ele>916.0</ele><time>2026-03-22T09:56:20.433Z</time></trkpt><trkpt lat="43.1151567" lon="13.1866683"><ele>913.0</ele><time>2026-03-22T09:56:21.378Z</time></trkpt><trkpt lat="43.115235" lon="13.1866483"><ele>913.0</ele><time>2026-03-22T09:56:22.39Z</time></trkpt><trkpt lat="43.1153167" lon="13.186645"><ele>913.0</ele><time>2026-03-22T09:56:23.389Z</time></trkpt><trkpt lat="43.1154083" lon="13.1866683"><ele>913.0</ele><time>2026-03-22T09:56:24.388Z</time></trkpt><trkpt lat="43.115515" lon="13.1867033"><ele>913.0</ele><time>2026-03-22T09:56:25.386Z</time></trkpt><trkpt lat="43.1156183" lon="13.1867417"><ele>913.0</ele><time>2026-03-22T09:56:26.392Z</time></trkpt><trkpt lat="43.1157183" lon="13.1867917"><ele>910.8</ele><time>2026-03-22T09:56:27.387Z</time></trkpt><trkpt lat="43.1158083" lon="13.1868617"><ele>908.5999999999999</ele><time>2026-03-22T09:56:28.388Z</time></trkpt><trkpt lat="43.1158883" lon="13.18696"><ele>906.4000000000001</ele><time>2026-03-22T09:56:29.385Z</time></trkpt><trkpt lat="43.115975" lon="13.1870617"><ele>904.2</ele><time>2026-03-22T09:56:30.39Z</time></trkpt><trkpt lat="43.1160783" lon="13.1871533"><ele>902.0</ele><time>2026-03-22T09:56:31.388Z</time></trkpt><trkpt lat="43.1162" lon="13.1872317"><ele>902.0</ele><time>2026-03-22T09:56:32.387Z</time></trkpt><trkpt lat="43.116335" lon="13.1872867"><ele>902.0</ele><time>2026-03-22T09:56:33.39Z</time></trkpt><trkpt lat="43.1164683" lon="13.1873267"><ele>902.0</ele><time>2026-03-22T09:56:34.378Z</time></trkpt><trkpt lat="43.1165933" lon="13.1873717"><ele>902.0</ele><time>2026-03-22T09:56:35.389Z</time></trkpt><trkpt lat="43.1167083" lon="13.1874383"><ele>899.25</ele><time>2026-03-22T09:56:36.39Z</time></trkpt><trkpt lat="43.1168133" lon="13.18752"><ele>896.5</ele><time>2026-03-22T09:56:37.371Z</time></trkpt><trkpt lat="43.116915" lon="13.1875967"><ele>893.75</ele><time>2026-03-22T09:56:38.425Z</time></trkpt><trkpt lat="43.11702" lon="13.1876567"><ele>891.0</ele><time>2026-03-22T09:56:39.389Z</time></trkpt><trkpt lat="43.1171233" lon="13.1877083"><ele>891.0</ele><time>2026-03-22T09:56:40.385Z</time></trkpt><trkpt lat="43.1172183" lon="13.1877633"><ele>890.9999999999999</ele><time>2026-03-22T09:56:41.388Z</time></trkpt><trkpt lat="43.117305" lon="13.1878233"><ele>890.9999999999999</ele><time>2026-03-22T09:56:42.375Z</time></trkpt><trkpt lat="43.1173883" lon="13.187895"><ele>891.0</ele><time>2026-03-22T09:56:43.387Z</time></trkpt><trkpt lat="43.1174817" lon="13.1879967"><ele>891.0</ele><time>2026-03-22T09:56:44.429Z</time></trkpt><trkpt lat="43.1175833" lon="13.1881067"><ele>889.0</ele><time>2026-03-22T09:56:45.386Z</time></trkpt><trkpt lat="43.11768" lon="13.1882133"><ele>887.0</ele><time>2026-03-22T09:56:46.389Z</time></trkpt><trkpt lat="43.1177733" lon="13.1883167"><ele>885.0</ele><time>2026-03-22T09:56:47.388Z</time></trkpt><trkpt lat="43.1178667" lon="13.1884167"><ele>883.0</ele><time>2026-03-22T09:56:48.391Z</time></trkpt><trkpt lat="43.1179683" lon="13.1885033"><ele>883.0</ele><time>2026-03-22T09:56:49.385Z</time></trkpt><trkpt lat="43.1180817" lon="13.1885733"><ele>883.0</ele><time>2026-03-22T09:56:50.428Z</time></trkpt><trkpt lat="43.1182067" lon="13.1886317"><ele>883.0</ele><time>2026-03-22T09:56:51.389Z</time></trkpt><trkpt lat="43.1183417" lon="13.18869"><ele>883.0</ele><time>2026-03-22T09:56:52.389Z</time></trkpt><trkpt lat="43.1184733" lon="13.1887433"><ele>878.25</ele><time>2026-03-22T09:56:53.388Z</time></trkpt><trkpt lat="43.1185967" lon="13.1887883"><ele>873.5</ele><time>2026-03-22T09:56:54.368Z</time></trkpt><trkpt lat="43.11872" lon="13.188825"><ele>868.75</ele><time>2026-03-22T09:56:55.387Z</time></trkpt><trkpt lat="43.1188417" lon="13.1888667"><ele>864.0</ele><time>2026-03-22T09:56:56.447Z</time></trkpt><trkpt lat="43.118965" lon="13.1889283"><ele>860.25</ele><time>2026-03-22T09:56:57.382Z</time></trkpt><trkpt lat="43.1190817" lon="13.1889917"><ele>856.5</ele><time>2026-03-22T09:56:58.379Z</time></trkpt><trkpt lat="43.1191917" lon="13.189035"><ele>852.75</ele><time>2026-03-22T09:56:59.386Z</time></trkpt><trkpt lat="43.1193017" lon="13.1890717"><ele>849.0</ele><time>2026-03-22T09:57:00.368Z</time></trkpt><trkpt lat="43.11943" lon="13.1891033"><ele>849.0</ele><time>2026-03-22T09:57:01.386Z</time></trkpt><trkpt lat="43.11956" lon="13.189135"><ele>849.0</ele><time>2026-03-22T09:57:02.438Z</time></trkpt><trkpt lat="43.1196883" lon="13.189175"><ele>849.0</ele><time>2026-03-22T09:57:03.382Z</time></trkpt><trkpt lat="43.119815" lon="13.1892233"><ele>849.0</ele><time>2026-03-22T09:57:04.382Z</time></trkpt><trkpt lat="43.119945" lon="13.1892767"><ele>845.75</ele><time>2026-03-22T09:57:05.386Z</time></trkpt><trkpt lat="43.1200717" lon="13.1893333"><ele>842.5</ele><time>2026-03-22T09:57:06.376Z</time></trkpt><trkpt lat="43.1202" lon="13.1893867"><ele>839.25</ele><time>2026-03-22T09:57:07.389Z</time></trkpt><trkpt lat="43.12033" lon="13.1894383"><ele>836.0</ele><time>2026-03-22T09:57:08.424Z</time></trkpt><trkpt lat="43.12046" lon="13.189485"><ele>836.0</ele><time>2026-03-22T09:57:09.388Z</time></trkpt><trkpt lat="43.1205867" lon="13.189515"><ele>836.0</ele><time>2026-03-22T09:57:10.386Z</time></trkpt><trkpt lat="43.12071" lon="13.1895267"><ele>836.0</ele><time>2026-03-22T09:57:11.387Z</time></trkpt><trkpt lat="43.1208267" lon="13.1895267"><ele>836.0</ele><time>2026-03-22T09:57:12.388Z</time></trkpt><trkpt lat="43.12095" lon="13.189515"><ele>832.75</ele><time>2026-03-22T09:57:13.387Z</time></trkpt><trkpt lat="43.1210783" lon="13.1894967"><ele>829.5</ele><time>2026-03-22T09:57:14.426Z</time></trkpt><trkpt lat="43.12121" lon="13.1894783"><ele>826.25</ele><time>2026-03-22T09:57:15.383Z</time></trkpt><trkpt lat="43.121345" lon="13.18946"><ele>823.0</ele><time>2026-03-22T09:57:16.387Z</time></trkpt><trkpt lat="43.1214833" lon="13.18945"><ele>820.0</ele><time>2026-03-22T09:57:17.376Z</time></trkpt><trkpt lat="43.1216183" lon="13.1894467"><ele>817.0</ele><time>2026-03-22T09:57:18.374Z</time></trkpt><trkpt lat="43.1217483" lon="13.1894433"><ele>814.0</ele><time>2026-03-22T09:57:19.377Z</time></trkpt><trkpt lat="43.1218733" lon="13.189435"><ele>811.0</ele><time>2026-03-22T09:57:20.43Z</time></trkpt><trkpt lat="43.121995" lon="13.1894217"><ele>811.0</ele><time>2026-03-22T09:57:21.387Z</time></trkpt><trkpt lat="43.12211" lon="13.1894083"><ele>811.0</ele><time>2026-03-22T09:57:22.372Z</time></trkpt><trkpt lat="43.1222233" lon="13.1894133"><ele>811.0</ele><time>2026-03-22T09:57:23.388Z</time></trkpt><trkpt lat="43.122345" lon="13.1894417"><ele>811.0</ele><time>2026-03-22T09:57:24.39Z</time></trkpt><trkpt lat="43.122475" lon="13.189475"><ele>808.25</ele><time>2026-03-22T09:57:25.389Z</time></trkpt><trkpt lat="43.122605" lon="13.1895067"><ele>805.5</ele><time>2026-03-22T09:57:26.393Z</time></trkpt><trkpt lat="43.12273" lon="13.1895333"><ele>802.75</ele><time>2026-03-22T09:57:27.382Z</time></trkpt><trkpt lat="43.1228583" lon="13.1895567"><ele>800.0</ele><time>2026-03-22T09:57:28.39Z</time></trkpt><trkpt lat="43.1229883" lon="13.189585"><ele>800.0</ele><time>2026-03-22T09:57:29.38Z</time></trkpt><trkpt lat="43.1231217" lon="13.1896217"><ele>800.0</ele><time>2026-03-22T09:57:30.391Z</time></trkpt><trkpt lat="43.123265" lon="13.18967"><ele>800.0</ele><time>2026-03-22T09:57:31.388Z</time></trkpt><trkpt lat="43.123415" lon="13.1897217"><ele>800.0</ele><time>2026-03-22T09:57:32.39Z</time></trkpt><trkpt lat="43.12356" lon="13.1897633"><ele>797.5</ele><time>2026-03-22T09:57:33.389Z</time></trkpt><trkpt lat="43.1236917" lon="13.1897967"><ele>795.0</ele><time>2026-03-22T09:57:34.386Z</time></trkpt><trkpt lat="43.123815" lon="13.18981"><ele>792.5</ele><time>2026-03-22T09:57:35.389Z</time></trkpt><trkpt lat="43.12392" lon="13.1898117"><ele>790.0</ele><time>2026-03-22T09:57:36.392Z</time></trkpt><trkpt lat="43.124015" lon="13.1898183"><ele>788.4999999999999</ele><time>2026-03-22T09:57:37.388Z</time></trkpt><trkpt lat="43.1241033" lon="13.1898283"><ele>787.0</ele><time>2026-03-22T09:57:38.431Z</time></trkpt><trkpt lat="43.1241883" lon="13.1898317"><ele>785.5</ele><time>2026-03-22T09:57:39.387Z</time></trkpt><trkpt lat="43.1242683" lon="13.1898217"><ele>784.0</ele><time>2026-03-22T09:57:40.39Z</time></trkpt><trkpt lat="43.1243483" lon="13.1898083"><ele>782.4999999999999</ele><time>2026-03-22T09:57:41.386Z</time></trkpt><trkpt lat="43.1244317" lon="13.1897883"><ele>781.0</ele><time>2026-03-22T09:57:42.387Z</time></trkpt><trkpt lat="43.1245183" lon="13.18978"><ele>781.0</ele><time>2026-03-22T09:57:43.387Z</time></trkpt><trkpt lat="43.1246083" lon="13.1897917"><ele>781.0</ele><time>2026-03-22T09:57:44.429Z</time></trkpt><trkpt lat="43.124695" lon="13.1898317"><ele>781.0</ele><time>2026-03-22T09:57:45.378Z</time></trkpt><trkpt lat="43.1247817" lon="13.1898767"><ele>781.0</ele><time>2026-03-22T09:57:46.383Z</time></trkpt><trkpt lat="43.1248683" lon="13.1899167"><ele>781.0</ele><time>2026-03-22T09:57:47.386Z</time></trkpt><trkpt lat="43.1249517" lon="13.1899517"><ele>778.9999999999999</ele><time>2026-03-22T09:57:48.389Z</time></trkpt><trkpt lat="43.125035" lon="13.18998"><ele>777.0</ele><time>2026-03-22T09:57:49.37Z</time></trkpt><trkpt lat="43.1251167" lon="13.190005"><ele>775.0</ele><time>2026-03-22T09:57:50.427Z</time></trkpt><trkpt lat="43.12519" lon="13.1900467"><ele>773.0</ele><time>2026-03-22T09:57:51.385Z</time></trkpt><trkpt lat="43.125265" lon="13.1900917"><ele>770.9999999999999</ele><time>2026-03-22T09:57:52.391Z</time></trkpt><trkpt lat="43.1253467" lon="13.1901283"><ele>769.0</ele><time>2026-03-22T09:57:53.386Z</time></trkpt><trkpt lat="43.1254317" lon="13.1901533"><ele>768.9999999999999</ele><time>2026-03-22T09:57:54.389Z</time></trkpt><trkpt lat="43.1255083" lon="13.1901683"><ele>769.0</ele><time>2026-03-22T09:57:55.388Z</time></trkpt><trkpt lat="43.12558" lon="13.190165"><ele>769.0</ele><time>2026-03-22T09:57:56.393Z</time></trkpt><trkpt lat="43.125695" lon="13.1901167"><ele>769.0</ele><time>2026-03-22T09:57:58.389Z</time></trkpt><trkpt lat="43.1257883" lon="13.1901167"><ele>768.9999999999999</ele><time>2026-03-22T09:58:00.386Z</time></trkpt><trkpt lat="43.1258433" lon="13.1901633"><ele>769.0</ele><time>2026-03-22T09:58:01.387Z</time></trkpt><trkpt lat="43.1259117" lon="13.19023"><ele>765.8000000000001</ele><time>2026-03-22T09:58:02.377Z</time></trkpt><trkpt lat="43.1259867" lon="13.1903067"><ele>762.6</ele><time>2026-03-22T09:58:03.389Z</time></trkpt><trkpt lat="43.126065" lon="13.1903883"><ele>759.4</ele><time>2026-03-22T09:58:04.385Z</time></trkpt><trkpt lat="43.1261317" lon="13.1904733"><ele>756.2</ele><time>2026-03-22T09:58:05.375Z</time></trkpt><trkpt lat="43.12619" lon="13.190575"><ele>753.0</ele><time>2026-03-22T09:58:06.371Z</time></trkpt><trkpt lat="43.12625" lon="13.1906933"><ele>753.0</ele><time>2026-03-22T09:58:07.367Z</time></trkpt><trkpt lat="43.1263133" lon="13.1908167"><ele>753.0</ele><time>2026-03-22T09:58:08.426Z</time></trkpt><trkpt lat="43.1263817" lon="13.1909233"><ele>753.0</ele><time>2026-03-22T09:58:09.384Z</time></trkpt><trkpt lat="43.126455" lon="13.1910083"><ele>753.0</ele><time>2026-03-22T09:58:10.389Z</time></trkpt><trkpt lat="43.1265333" lon="13.191065"><ele>753.0</ele><time>2026-03-22T09:58:11.388Z</time></trkpt><trkpt lat="43.1266067" lon="13.191095"><ele>750.6666666666666</ele><time>2026-03-22T09:58:12.386Z</time></trkpt><trkpt lat="43.1266767" lon="13.1911"><ele>748.3333333333334</ele><time>2026-03-22T09:58:13.386Z</time></trkpt><trkpt lat="43.1267717" lon="13.19108"><ele>746.0</ele><time>2026-03-22T09:58:15.347Z</time></trkpt><trkpt lat="43.1267517" lon="13.1909633"><ele>743.6666666666667</ele><time>2026-03-22T09:58:18.367Z</time></trkpt><trkpt lat="43.126715" lon="13.1908733"><ele>741.3333333333334</ele><time>2026-03-22T09:58:19.352Z</time></trkpt><trkpt lat="43.1266717" lon="13.1907633"><ele>739.0</ele><time>2026-03-22T09:58:20.415Z</time></trkpt><trkpt lat="43.12662" lon="13.1906317"><ele>738.4000000000001</ele><time>2026-03-22T09:58:21.379Z</time></trkpt><trkpt lat="43.12657" lon="13.1904917"><ele>737.8</ele><time>2026-03-22T09:58:22.389Z</time></trkpt><trkpt lat="43.126525" lon="13.1903567"><ele>737.2</ele><time>2026-03-22T09:58:23.353Z</time></trkpt><trkpt lat="43.1264867" lon="13.1902317"><ele>736.5999999999999</ele><time>2026-03-22T09:58:24.374Z</time></trkpt><trkpt lat="43.1264433" lon="13.1901167"><ele>736.0</ele><time>2026-03-22T09:58:25.389Z</time></trkpt><trkpt lat="43.1263983" lon="13.190025"><ele>737.5999999999999</ele><time>2026-03-22T09:58:26.38Z</time></trkpt><trkpt lat="43.1263383" lon="13.1899483"><ele>739.2</ele><time>2026-03-22T09:58:27.386Z</time></trkpt><trkpt lat="43.12627" lon="13.1898633"><ele>740.8</ele><time>2026-03-22T09:58:28.383Z</time></trkpt><trkpt lat="43.126185" lon="13.1897717"><ele>742.4000000000001</ele><time>2026-03-22T09:58:29.387Z</time></trkpt><trkpt lat="43.1260967" lon="13.18968"><ele>744.0</ele><time>2026-03-22T09:58:30.365Z</time></trkpt><trkpt lat="43.1260133" lon="13.1895933"><ele>744.0</ele><time>2026-03-22T09:58:31.381Z</time></trkpt><trkpt lat="43.12594" lon="13.1895183"><ele>744.0</ele><time>2026-03-22T09:58:32.393Z</time></trkpt><trkpt lat="43.1258817" lon="13.1894583"><ele>744.0</ele><time>2026-03-22T09:58:33.387Z</time></trkpt><trkpt lat="43.125805" lon="13.18937"><ele>744.0</ele><time>2026-03-22T09:58:35.38Z</time></trkpt><trkpt lat="43.125815" lon="13.1892533"><ele>744.0</ele><time>2026-03-22T09:58:37.348Z</time></trkpt><trkpt lat="43.1258417" lon="13.1891717"><ele>744.0</ele><time>2026-03-22T09:58:38.425Z</time></trkpt><trkpt lat="43.1258567" lon="13.1890783"><ele>746.8333333333334</ele><time>2026-03-22T09:58:39.382Z</time></trkpt><trkpt lat="43.1258533" lon="13.188965"><ele>749.6666666666666</ele><time>2026-03-22T09:58:40.383Z</time></trkpt><trkpt lat="43.1258317" lon="13.1888467"><ele>752.5</ele><time>2026-03-22T09:58:41.373Z</time></trkpt><trkpt lat="43.1258" lon="13.18873"><ele>755.3333333333333</ele><time>2026-03-22T09:58:42.385Z</time></trkpt><trkpt lat="43.125765" lon="13.1886233"><ele>758.1666666666666</ele><time>2026-03-22T09:58:43.383Z</time></trkpt><trkpt lat="43.12572" lon="13.1885217"><ele>761.0</ele><time>2026-03-22T09:58:44.433Z</time></trkpt><trkpt lat="43.1256617" lon="13.18842"><ele>761.0</ele><time>2026-03-22T09:58:45.378Z</time></trkpt><trkpt lat="43.125595" lon="13.1883167"><ele>761.0</ele><time>2026-03-22T09:58:46.388Z</time></trkpt><trkpt lat="43.1255267" lon="13.18821"><ele>761.0</ele><time>2026-03-22T09:58:47.379Z</time></trkpt><trkpt lat="43.1254567" lon="13.1881"><ele>761.0</ele><time>2026-03-22T09:58:48.386Z</time></trkpt><trkpt lat="43.1253867" lon="13.1879933"><ele>761.0</ele><time>2026-03-22T09:58:49.367Z</time></trkpt><trkpt lat="43.1253167" lon="13.1879"><ele>761.8</ele><time>2026-03-22T09:58:50.425Z</time></trkpt><trkpt lat="43.1252417" lon="13.1878167"><ele>762.5999999999999</ele><time>2026-03-22T09:58:51.38Z</time></trkpt><trkpt lat="43.12516" lon="13.187735"><ele>763.4</ele><time>2026-03-22T09:58:52.387Z</time></trkpt><trkpt lat="43.1250717" lon="13.187645"><ele>764.2</ele><time>2026-03-22T09:58:53.391Z</time></trkpt><trkpt lat="43.1249717" lon="13.187565"><ele>765.0</ele><time>2026-03-22T09:58:54.39Z</time></trkpt><trkpt lat="43.1248683" lon="13.187475"><ele>765.0</ele><time>2026-03-22T09:58:55.386Z</time></trkpt><trkpt lat="43.1247667" lon="13.1873833"><ele>765.0</ele><time>2026-03-22T09:58:56.445Z</time></trkpt><trkpt lat="43.1246683" lon="13.187295"><ele>765.0</ele><time>2026-03-22T09:58:57.374Z</time></trkpt><trkpt lat="43.1245817" lon="13.1872233"><ele>765.0</ele><time>2026-03-22T09:58:58.389Z</time></trkpt><trkpt lat="43.12451" lon="13.18715"><ele>765.0</ele><time>2026-03-22T09:58:59.388Z</time></trkpt><trkpt lat="43.1244517" lon="13.1870867"><ele>761.1666666666666</ele><time>2026-03-22T09:59:00.389Z</time></trkpt><trkpt lat="43.1244117" lon="13.1870017"><ele>757.3333333333334</ele><time>2026-03-22T09:59:01.387Z</time></trkpt><trkpt lat="43.1243633" lon="13.186915"><ele>753.5</ele><time>2026-03-22T09:59:02.444Z</time></trkpt><trkpt lat="43.1243117" lon="13.1868267"><ele>749.6666666666667</ele><time>2026-03-22T09:59:03.379Z</time></trkpt><trkpt lat="43.1242517" lon="13.18674"><ele>745.8333333333334</ele><time>2026-03-22T09:59:04.386Z</time></trkpt><trkpt lat="43.1241767" lon="13.186665"><ele>742.0</ele><time>2026-03-22T09:59:05.366Z</time></trkpt><trkpt lat="43.1240817" lon="13.1866"><ele>739.75</ele><time>2026-03-22T09:59:06.363Z</time></trkpt><trkpt lat="43.1239767" lon="13.1865283"><ele>737.5</ele><time>2026-03-22T09:59:07.38Z</time></trkpt><trkpt lat="43.1238667" lon="13.186455"><ele>735.25</ele><time>2026-03-22T09:59:08.429Z</time></trkpt><trkpt lat="43.1237583" lon="13.1863833"><ele>733.0</ele><time>2026-03-22T09:59:09.388Z</time></trkpt><trkpt lat="43.1236533" lon="13.1863267"><ele>733.0</ele><time>2026-03-22T09:59:10.386Z</time></trkpt><trkpt lat="43.1235517" lon="13.1862817"><ele>733.0</ele><time>2026-03-22T09:59:11.38Z</time></trkpt><trkpt lat="43.12345" lon="13.186235"><ele>733.0</ele><time>2026-03-22T09:59:12.391Z</time></trkpt><trkpt lat="43.1233533" lon="13.186185"><ele>733.0</ele><time>2026-03-22T09:59:13.386Z</time></trkpt><trkpt lat="43.1232483" lon="13.1861217"><ele>733.0</ele><time>2026-03-22T09:59:14.431Z</time></trkpt><trkpt lat="43.12314" lon="13.1860583"><ele>737.0</ele><time>2026-03-22T09:59:15.384Z</time></trkpt><trkpt lat="43.1230333" lon="13.1860067"><ele>741.0</ele><time>2026-03-22T09:59:16.381Z</time></trkpt><trkpt lat="43.1229267" lon="13.1859617"><ele>745.0</ele><time>2026-03-22T09:59:17.38Z</time></trkpt><trkpt lat="43.1228183" lon="13.1859133"><ele>749.0</ele><time>2026-03-22T09:59:18.38Z</time></trkpt><trkpt lat="43.1227067" lon="13.1858533"><ele>749.0</ele><time>2026-03-22T09:59:19.381Z</time></trkpt><trkpt lat="43.1225883" lon="13.1857917"><ele>749.0</ele><time>2026-03-22T09:59:20.427Z</time></trkpt><trkpt lat="43.1224667" lon="13.1857333"><ele>749.0</ele><time>2026-03-22T09:59:21.382Z</time></trkpt><trkpt lat="43.1223467" lon="13.185675"><ele>749.0</ele><time>2026-03-22T09:59:22.382Z</time></trkpt><trkpt lat="43.122235" lon="13.18561"><ele>745.75</ele><time>2026-03-22T09:59:23.362Z</time></trkpt><trkpt lat="43.1221183" lon="13.18554"><ele>742.5</ele><time>2026-03-22T09:59:24.39Z</time></trkpt><trkpt lat="43.1219933" lon="13.18548"><ele>739.25</ele><time>2026-03-22T09:59:25.389Z</time></trkpt><trkpt lat="43.12187" lon="13.1854283"><ele>736.0</ele><time>2026-03-22T09:59:26.444Z</time></trkpt><trkpt lat="43.1217533" lon="13.1853667"><ele>736.0</ele><time>2026-03-22T09:59:27.381Z</time></trkpt><trkpt lat="43.121645" lon="13.1853133"><ele>736.0</ele><time>2026-03-22T09:59:28.388Z</time></trkpt><trkpt lat="43.121535" lon="13.1852667"><ele>736.0</ele><time>2026-03-22T09:59:29.381Z</time></trkpt><trkpt lat="43.12142" lon="13.1852433"><ele>736.0</ele><time>2026-03-22T09:59:30.379Z</time></trkpt><trkpt lat="43.12131" lon="13.1852117"><ele>739.75</ele><time>2026-03-22T09:59:31.386Z</time></trkpt><trkpt lat="43.1212067" lon="13.185175"><ele>743.5</ele><time>2026-03-22T09:59:32.44Z</time></trkpt><trkpt lat="43.1210933" lon="13.185125"><ele>747.25</ele><time>2026-03-22T09:59:33.39Z</time></trkpt><trkpt lat="43.1209667" lon="13.1850583"><ele>751.0</ele><time>2026-03-22T09:59:34.377Z</time></trkpt><trkpt lat="43.1208417" lon="13.1849783"><ele>749.25</ele><time>2026-03-22T09:59:35.385Z</time></trkpt><trkpt lat="43.12072" lon="13.18489"><ele>747.5</ele><time>2026-03-22T09:59:36.384Z</time></trkpt><trkpt lat="43.1206033" lon="13.1847983"><ele>745.75</ele><time>2026-03-22T09:59:37.387Z</time></trkpt><trkpt lat="43.1204933" lon="13.1847133"><ele>744.0</ele><time>2026-03-22T09:59:38.387Z</time></trkpt><trkpt lat="43.1203883" lon="13.1846417"><ele>744.0</ele><time>2026-03-22T09:59:39.384Z</time></trkpt><trkpt lat="43.120285" lon="13.18457"><ele>744.0</ele><time>2026-03-22T09:59:40.362Z</time></trkpt><trkpt lat="43.12018" lon="13.1844983"><ele>744.0</ele><time>2026-03-22T09:59:41.383Z</time></trkpt><trkpt lat="43.12008" lon="13.18443"><ele>744.0</ele><time>2026-03-22T09:59:42.385Z</time></trkpt><trkpt lat="43.1199817" lon="13.1843717"><ele>747.6</ele><time>2026-03-22T09:59:43.386Z</time></trkpt><trkpt lat="43.1198917" lon="13.1843283"><ele>751.2</ele><time>2026-03-22T09:59:44.384Z</time></trkpt><trkpt lat="43.1198083" lon="13.1842917"><ele>754.8000000000001</ele><time>2026-03-22T09:59:45.381Z</time></trkpt><trkpt lat="43.1197267" lon="13.1842367"><ele>758.4000000000001</ele><time>2026-03-22T09:59:46.387Z</time></trkpt><trkpt lat="43.119645" lon="13.1841767"><ele>762.0</ele><time>2026-03-22T09:59:47.385Z</time></trkpt><trkpt lat="43.1195667" lon="13.1841183"><ele>762.0</ele><time>2026-03-22T09:59:48.379Z</time></trkpt><trkpt lat="43.1194817" lon="13.184065"><ele>762.0</ele><time>2026-03-22T09:59:49.386Z</time></trkpt><trkpt lat="43.1193833" lon="13.1840133"><ele>762.0</ele><time>2026-03-22T09:59:50.384Z</time></trkpt><trkpt lat="43.1192783" lon="13.1839483"><ele>762.0</ele><time>2026-03-22T09:59:51.385Z</time></trkpt><trkpt lat="43.119165" lon="13.1838767"><ele>762.0</ele><time>2026-03-22T09:59:52.385Z</time></trkpt><trkpt lat="43.1190417" lon="13.1837983"><ele>762.5</ele><time>2026-03-22T09:59:53.383Z</time></trkpt><trkpt lat="43.1189283" lon="13.1837117"><ele>763.0</ele><time>2026-03-22T09:59:54.386Z</time></trkpt><trkpt lat="43.118825" lon="13.1836117"><ele>763.5</ele><time>2026-03-22T09:59:55.377Z</time></trkpt><trkpt lat="43.1187383" lon="13.1835133"><ele>764.0</ele><time>2026-03-22T09:59:56.388Z</time></trkpt><trkpt lat="43.1186783" lon="13.183415"><ele>764.0</ele><time>2026-03-22T09:59:57.361Z</time></trkpt><trkpt lat="43.1186333" lon="13.1833183"><ele>764.0</ele><time>2026-03-22T09:59:58.386Z</time></trkpt><trkpt lat="43.1185817" lon="13.1832133"><ele>764.0</ele><time>2026-03-22T09:59:59.38Z</time></trkpt><trkpt lat="43.118515" lon="13.1830917"><ele>764.0</ele><time>2026-03-22T10:00:00.388Z</time></trkpt><trkpt lat="43.1184383" lon="13.1829617"><ele>764.0</ele><time>2026-03-22T10:00:01.385Z</time></trkpt><trkpt lat="43.1183733" lon="13.1828283"><ele>762.6</ele><time>2026-03-22T10:00:02.383Z</time></trkpt><trkpt lat="43.11833" lon="13.182705"><ele>761.2</ele><time>2026-03-22T10:00:03.384Z</time></trkpt><trkpt lat="43.1183083" lon="13.1825817"><ele>759.8000000000001</ele><time>2026-03-22T10:00:04.385Z</time></trkpt><trkpt lat="43.1183083" lon="13.1824683"><ele>758.4000000000001</ele><time>2026-03-22T10:00:05.386Z</time></trkpt><trkpt lat="43.11833" lon="13.182375"><ele>757.0</ele><time>2026-03-22T10:00:06.386Z</time></trkpt><trkpt lat="43.1184233" lon="13.1822733"><ele>757.0</ele><time>2026-03-22T10:00:08.385Z</time></trkpt><trkpt lat="43.1185083" lon="13.1822883"><ele>757.0</ele><time>2026-03-22T10:00:09.382Z</time></trkpt><trkpt lat="43.1185917" lon="13.18233"><ele>757.0</ele><time>2026-03-22T10:00:10.387Z</time></trkpt><trkpt lat="43.1186633" lon="13.18237"><ele>757.0</ele><time>2026-03-22T10:00:11.384Z</time></trkpt><trkpt lat="43.1187317" lon="13.1824117"><ele>757.0</ele><time>2026-03-22T10:00:12.386Z</time></trkpt><trkpt lat="43.1188017" lon="13.18245"><ele>757.0</ele><time>2026-03-22T10:00:13.387Z</time></trkpt><trkpt lat="43.1188767" lon="13.1824833"><ele>757.0</ele><time>2026-03-22T10:00:14.366Z</time></trkpt><trkpt lat="43.1189533" lon="13.1825167"><ele>757.0</ele><time>2026-03-22T10:00:15.388Z</time></trkpt><trkpt lat="43.1190267" lon="13.1825517"><ele>757.0</ele><time>2026-03-22T10:00:16.379Z</time></trkpt><trkpt lat="43.1191017" lon="13.1825767"><ele>757.0</ele><time>2026-03-22T10:00:17.388Z</time></trkpt><trkpt lat="43.1191817" lon="13.1825933"><ele>757.0</ele><time>2026-03-22T10:00:18.384Z</time></trkpt><trkpt lat="43.119275" lon="13.1825983"><ele>757.0</ele><time>2026-03-22T10:00:19.388Z</time></trkpt><trkpt lat="43.119375" lon="13.1826067"><ele>754.8</ele><time>2026-03-22T10:00:20.392Z</time></trkpt><trkpt lat="43.11947" lon="13.1826283"><ele>752.6</ele><time>2026-03-22T10:00:21.384Z</time></trkpt><trkpt lat="43.1195583" lon="13.18267"><ele>750.4</ele><time>2026-03-22T10:00:22.381Z</time></trkpt><trkpt lat="43.1196483" lon="13.1827167"><ele>748.1999999999999</ele><time>2026-03-22T10:00:23.376Z</time></trkpt><trkpt lat="43.11974" lon="13.1827533"><ele>746.0</ele><time>2026-03-22T10:00:24.385Z</time></trkpt><trkpt lat="43.1198367" lon="13.1827817"><ele>744.8</ele><time>2026-03-22T10:00:25.387Z</time></trkpt><trkpt lat="43.1199367" lon="13.1828133"><ele>743.5999999999999</ele><time>2026-03-22T10:00:26.384Z</time></trkpt><trkpt lat="43.1200433" lon="13.18285"><ele>742.4</ele><time>2026-03-22T10:00:27.382Z</time></trkpt><trkpt lat="43.1201583" lon="13.182895"><ele>741.2</ele><time>2026-03-22T10:00:28.389Z</time></trkpt><trkpt lat="43.12027" lon="13.1829417"><ele>740.0</ele><time>2026-03-22T10:00:29.378Z</time></trkpt><trkpt lat="43.12038" lon="13.1829883"><ele>740.0</ele><time>2026-03-22T10:00:30.386Z</time></trkpt><trkpt lat="43.12049" lon="13.1830267"><ele>740.0</ele><time>2026-03-22T10:00:31.382Z</time></trkpt><trkpt lat="43.1205933" lon="13.18307"><ele>740.0</ele><time>2026-03-22T10:00:32.387Z</time></trkpt><trkpt lat="43.12069" lon="13.1831233"><ele>740.0</ele><time>2026-03-22T10:00:33.384Z</time></trkpt><trkpt lat="43.1207817" lon="13.1831917"><ele>740.0</ele><time>2026-03-22T10:00:34.383Z</time></trkpt><trkpt lat="43.1208717" lon="13.1832633"><ele>734.5</ele><time>2026-03-22T10:00:35.377Z</time></trkpt><trkpt lat="43.1209683" lon="13.1833317"><ele>729.0</ele><time>2026-03-22T10:00:36.386Z</time></trkpt><trkpt lat="43.1210717" lon="13.1834017"><ele>723.5</ele><time>2026-03-22T10:00:37.386Z</time></trkpt><trkpt lat="43.1211783" lon="13.18348"><ele>718.0</ele><time>2026-03-22T10:00:38.375Z</time></trkpt><trkpt lat="43.1212833" lon="13.1835567"><ele>718.0</ele><time>2026-03-22T10:00:39.389Z</time></trkpt><trkpt lat="43.12139" lon="13.183625"><ele>718.0</ele><time>2026-03-22T10:00:40.38Z</time></trkpt><trkpt lat="43.1215" lon="13.18368"><ele>718.0</ele><time>2026-03-22T10:00:41.373Z</time></trkpt><trkpt lat="43.1216117" lon="13.18372"><ele>718.0</ele><time>2026-03-22T10:00:42.388Z</time></trkpt><trkpt lat="43.1217317" lon="13.18374"><ele>718.0</ele><time>2026-03-22T10:00:43.386Z</time></trkpt><trkpt lat="43.1218533" lon="13.1837483"><ele>718.0</ele><time>2026-03-22T10:00:44.387Z</time></trkpt><trkpt lat="43.1219717" lon="13.1837617"><ele>718.0</ele><time>2026-03-22T10:00:45.39Z</time></trkpt><trkpt lat="43.1220833" lon="13.1837883"><ele>718.0</ele><time>2026-03-22T10:00:46.376Z</time></trkpt><trkpt lat="43.122185" lon="13.1838067"><ele>718.0</ele><time>2026-03-22T10:00:47.387Z</time></trkpt><trkpt lat="43.1222917" lon="13.18381"><ele>718.0</ele><time>2026-03-22T10:00:48.387Z</time></trkpt><trkpt lat="43.1223983" lon="13.1838133"><ele>718.0</ele><time>2026-03-22T10:00:49.381Z</time></trkpt><trkpt lat="43.1225" lon="13.1838317"><ele>718.0</ele><time>2026-03-22T10:00:50.377Z</time></trkpt><trkpt lat="43.1225933" lon="13.183855"><ele>718.0</ele><time>2026-03-22T10:00:51.383Z</time></trkpt><trkpt lat="43.1226867" lon="13.1838733"><ele>716.5999999999999</ele><time>2026-03-22T10:00:52.384Z</time></trkpt><trkpt lat="43.122795" lon="13.1838933"><ele>715.1999999999999</ele><time>2026-03-22T10:00:53.384Z</time></trkpt><trkpt lat="43.122905" lon="13.18392"><ele>713.8</ele><time>2026-03-22T10:00:54.38Z</time></trkpt><trkpt lat="43.1230117" lon="13.1839433"><ele>712.4</ele><time>2026-03-22T10:00:55.383Z</time></trkpt><trkpt lat="43.123115" lon="13.183975"><ele>711.0</ele><time>2026-03-22T10:00:56.391Z</time></trkpt><trkpt lat="43.1232133" lon="13.1840217"><ele>705.4</ele><time>2026-03-22T10:00:57.386Z</time></trkpt><trkpt lat="43.12331" lon="13.184065"><ele>699.8</ele><time>2026-03-22T10:00:58.371Z</time></trkpt><trkpt lat="43.1234117" lon="13.1840933"><ele>694.1999999999999</ele><time>2026-03-22T10:00:59.39Z</time></trkpt><trkpt lat="43.12351" lon="13.18412"><ele>688.5999999999999</ele><time>2026-03-22T10:01:00.39Z</time></trkpt><trkpt lat="43.123605" lon="13.184125"><ele>683.0</ele><time>2026-03-22T10:01:01.386Z</time></trkpt><trkpt lat="43.123705" lon="13.1841183"><ele>683.0</ele><time>2026-03-22T10:01:02.389Z</time></trkpt><trkpt lat="43.1238017" lon="13.1841167"><ele>683.0</ele><time>2026-03-22T10:01:03.389Z</time></trkpt><trkpt lat="43.1239067" lon="13.1841367"><ele>683.0</ele><time>2026-03-22T10:01:04.385Z</time></trkpt><trkpt lat="43.12401" lon="13.184165"><ele>683.0</ele><time>2026-03-22T10:01:05.387Z</time></trkpt><trkpt lat="43.1241133" lon="13.1842017"><ele>683.0</ele><time>2026-03-22T10:01:06.387Z</time></trkpt><trkpt lat="43.1242117" lon="13.184255"><ele>681.1666666666666</ele><time>2026-03-22T10:01:07.38Z</time></trkpt><trkpt lat="43.1243033" lon="13.1843"><ele>679.3333333333333</ele><time>2026-03-22T10:01:08.365Z</time></trkpt><trkpt lat="43.124385" lon="13.18435"><ele>677.5</ele><time>2026-03-22T10:01:09.39Z</time></trkpt><trkpt lat="43.1244583" lon="13.1843983"><ele>675.6666666666666</ele><time>2026-03-22T10:01:10.386Z</time></trkpt><trkpt lat="43.1245317" lon="13.1844433"><ele>673.8333333333334</ele><time>2026-03-22T10:01:11.376Z</time></trkpt><trkpt lat="43.1246083" lon="13.1844833"><ele>672.0</ele><time>2026-03-22T10:01:12.386Z</time></trkpt><trkpt lat="43.1246883" lon="13.1845233"><ele>672.0</ele><time>2026-03-22T10:01:13.38Z</time></trkpt><trkpt lat="43.12476" lon="13.1845783"><ele>672.0</ele><time>2026-03-22T10:01:14.386Z</time></trkpt><trkpt lat="43.1248283" lon="13.1846283"><ele>672.0</ele><time>2026-03-22T10:01:15.377Z</time></trkpt><trkpt lat="43.124905" lon="13.184665"><ele>672.0</ele><time>2026-03-22T10:01:16.388Z</time></trkpt><trkpt lat="43.1249817" lon="13.1847117"><ele>672.0</ele><time>2026-03-22T10:01:17.385Z</time></trkpt><trkpt lat="43.1250617" lon="13.184755"><ele>672.0</ele><time>2026-03-22T10:01:18.374Z</time></trkpt><trkpt lat="43.1251467" lon="13.1847917"><ele>670.4000000000001</ele><time>2026-03-22T10:01:19.366Z</time></trkpt><trkpt lat="43.1252383" lon="13.184835"><ele>668.8000000000001</ele><time>2026-03-22T10:01:20.376Z</time></trkpt><trkpt lat="43.1253367" lon="13.1848917"><ele>667.2</ele><time>2026-03-22T10:01:21.383Z</time></trkpt><trkpt lat="43.1254283" lon="13.1849533"><ele>665.6</ele><time>2026-03-22T10:01:22.384Z</time></trkpt><trkpt lat="43.1255067" lon="13.1850267"><ele>664.0</ele><time>2026-03-22T10:01:23.385Z</time></trkpt><trkpt lat="43.1255717" lon="13.1851133"><ele>661.0</ele><time>2026-03-22T10:01:24.388Z</time></trkpt><trkpt lat="43.12565" lon="13.1852133"><ele>658.0</ele><time>2026-03-22T10:01:25.386Z</time></trkpt><trkpt lat="43.125735" lon="13.1853233"><ele>655.0</ele><time>2026-03-22T10:01:26.386Z</time></trkpt><trkpt lat="43.125835" lon="13.1854417"><ele>652.0</ele><time>2026-03-22T10:01:27.387Z</time></trkpt><trkpt lat="43.1259417" lon="13.1855583"><ele>646.75</ele><time>2026-03-22T10:01:28.382Z</time></trkpt><trkpt lat="43.1260517" lon="13.1856667"><ele>641.5</ele><time>2026-03-22T10:01:29.387Z</time></trkpt><trkpt lat="43.1261617" lon="13.1857717"><ele>636.25</ele><time>2026-03-22T10:01:30.389Z</time></trkpt><trkpt lat="43.1262683" lon="13.1858733"><ele>631.0</ele><time>2026-03-22T10:01:31.385Z</time></trkpt><trkpt lat="43.126375" lon="13.1859733"><ele>631.0</ele><time>2026-03-22T10:01:32.439Z</time></trkpt><trkpt lat="43.12648" lon="13.18607"><ele>631.0</ele><time>2026-03-22T10:01:33.378Z</time></trkpt><trkpt lat="43.1265817" lon="13.1861667"><ele>631.0</ele><time>2026-03-22T10:01:34.382Z</time></trkpt><trkpt lat="43.1266833" lon="13.1862633"><ele>631.0</ele><time>2026-03-22T10:01:35.383Z</time></trkpt><trkpt lat="43.1267783" lon="13.1863567"><ele>628.0</ele><time>2026-03-22T10:01:36.386Z</time></trkpt><trkpt lat="43.1268717" lon="13.1864533"><ele>625.0</ele><time>2026-03-22T10:01:37.386Z</time></trkpt><trkpt lat="43.1269633" lon="13.1865467"><ele>622.0</ele><time>2026-03-22T10:01:38.383Z</time></trkpt><trkpt lat="43.1270617" lon="13.1866283"><ele>619.0</ele><time>2026-03-22T10:01:39.388Z</time></trkpt><trkpt lat="43.127165" lon="13.1866967"><ele>619.0</ele><time>2026-03-22T10:01:40.387Z</time></trkpt><trkpt lat="43.127275" lon="13.1867633"><ele>619.0</ele><time>2026-03-22T10:01:41.387Z</time></trkpt><trkpt lat="43.1273867" lon="13.1868283"><ele>619.0</ele><time>2026-03-22T10:01:42.388Z</time></trkpt><trkpt lat="43.1275033" lon="13.1868933"><ele>619.0</ele><time>2026-03-22T10:01:43.377Z</time></trkpt><trkpt lat="43.1276217" lon="13.1869617"><ele>608.75</ele><time>2026-03-22T10:01:44.385Z</time></trkpt><trkpt lat="43.12774" lon="13.1870333"><ele>598.5</ele><time>2026-03-22T10:01:45.388Z</time></trkpt><trkpt lat="43.1278567" lon="13.1871067"><ele>588.25</ele><time>2026-03-22T10:01:46.386Z</time></trkpt><trkpt lat="43.1279717" lon="13.1871733"><ele>578.0</ele><time>2026-03-22T10:01:47.382Z</time></trkpt><trkpt lat="43.1280867" lon="13.1872333"><ele>578.0</ele><time>2026-03-22T10:01:48.387Z</time></trkpt><trkpt lat="43.1282033" lon="13.187285"><ele>578.0</ele><time>2026-03-22T10:01:49.384Z</time></trkpt><trkpt lat="43.1283217" lon="13.1873283"><ele>578.0</ele><time>2026-03-22T10:01:50.386Z</time></trkpt><trkpt lat="43.1284417" lon="13.1873683"><ele>578.0</ele><time>2026-03-22T10:01:51.389Z</time></trkpt><trkpt lat="43.1285583" lon="13.1874033"><ele>577.5</ele><time>2026-03-22T10:01:52.378Z</time></trkpt><trkpt lat="43.1286733" lon="13.1874417"><ele>577.0</ele><time>2026-03-22T10:01:53.383Z</time></trkpt><trkpt lat="43.1287883" lon="13.1874767"><ele>576.5</ele><time>2026-03-22T10:01:54.383Z</time></trkpt><trkpt lat="43.1289017" lon="13.1875217"><ele>576.0</ele><time>2026-03-22T10:01:55.384Z</time></trkpt><trkpt lat="43.1290083" lon="13.1875683"><ele>568.5</ele><time>2026-03-22T10:01:56.417Z</time></trkpt><trkpt lat="43.12911" lon="13.1876333"><ele>561.0</ele><time>2026-03-22T10:01:57.388Z</time></trkpt><trkpt lat="43.1292083" lon="13.1877117"><ele>553.5</ele><time>2026-03-22T10:01:58.373Z</time></trkpt><trkpt lat="43.129305" lon="13.1877867"><ele>546.0</ele><time>2026-03-22T10:01:59.384Z</time></trkpt><trkpt lat="43.1294083" lon="13.1878483"><ele>546.0</ele><time>2026-03-22T10:02:00.387Z</time></trkpt><trkpt lat="43.1295183" lon="13.18789"><ele>546.0</ele><time>2026-03-22T10:02:01.386Z</time></trkpt><trkpt lat="43.1296383" lon="13.1879233"><ele>546.0</ele><time>2026-03-22T10:02:02.444Z</time></trkpt><trkpt lat="43.1297617" lon="13.1879467"><ele>546.0</ele><time>2026-03-22T10:02:03.388Z</time></trkpt><trkpt lat="43.129885" lon="13.1879683"><ele>540.25</ele><time>2026-03-22T10:02:04.383Z</time></trkpt><trkpt lat="43.1300083" lon="13.1879867"><ele>534.5</ele><time>2026-03-22T10:02:05.387Z</time></trkpt><trkpt lat="43.1301317" lon="13.1880117"><ele>528.75</ele><time>2026-03-22T10:02:06.388Z</time></trkpt><trkpt lat="43.1302517" lon="13.1880317"><ele>523.0</ele><time>2026-03-22T10:02:07.38Z</time></trkpt><trkpt lat="43.1303767" lon="13.1880433"><ele>523.0</ele><time>2026-03-22T10:02:08.38Z</time></trkpt><trkpt lat="43.1305017" lon="13.188045"><ele>523.0</ele><time>2026-03-22T10:02:09.379Z</time></trkpt><trkpt lat="43.1306233" lon="13.188055"><ele>523.0</ele><time>2026-03-22T10:02:10.374Z</time></trkpt><trkpt lat="43.1307467" lon="13.1880733"><ele>523.0</ele><time>2026-03-22T10:02:11.384Z</time></trkpt><trkpt lat="43.1308717" lon="13.1880917"><ele>524.25</ele><time>2026-03-22T10:02:12.386Z</time></trkpt><trkpt lat="43.1309933" lon="13.1881233"><ele>525.5</ele><time>2026-03-22T10:02:13.371Z</time></trkpt><trkpt lat="43.1311133" lon="13.1881783"><ele>526.75</ele><time>2026-03-22T10:02:14.393Z</time></trkpt><trkpt lat="43.1312333" lon="13.1882433"><ele>528.0</ele><time>2026-03-22T10:02:15.386Z</time></trkpt><trkpt lat="43.1313583" lon="13.1883067"><ele>528.0</ele><time>2026-03-22T10:02:16.386Z</time></trkpt><trkpt lat="43.131485" lon="13.1883733"><ele>528.0</ele><time>2026-03-22T10:02:17.367Z</time></trkpt><trkpt lat="43.13161" lon="13.1884483"><ele>528.0</ele><time>2026-03-22T10:02:18.391Z</time></trkpt><trkpt lat="43.13173" lon="13.1885317"><ele>528.0</ele><time>2026-03-22T10:02:19.387Z</time></trkpt><trkpt lat="43.1318517" lon="13.188615"><ele>521.75</ele><time>2026-03-22T10:02:20.389Z</time></trkpt><trkpt lat="43.1319717" lon="13.1886933"><ele>515.5</ele><time>2026-03-22T10:02:21.387Z</time></trkpt><trkpt lat="43.13209" lon="13.1887683"><ele>509.25</ele><time>2026-03-22T10:02:22.386Z</time></trkpt><trkpt lat="43.132205" lon="13.1888517"><ele>503.0</ele><time>2026-03-22T10:02:23.382Z</time></trkpt><trkpt lat="43.1323167" lon="13.1889433"><ele>500.5</ele><time>2026-03-22T10:02:24.391Z</time></trkpt><trkpt lat="43.13243" lon="13.18904"><ele>498.0</ele><time>2026-03-22T10:02:25.385Z</time></trkpt><trkpt lat="43.1325483" lon="13.1891433"><ele>495.5</ele><time>2026-03-22T10:02:26.388Z</time></trkpt><trkpt lat="43.1326633" lon="13.1892433"><ele>493.0</ele><time>2026-03-22T10:02:27.388Z</time></trkpt><trkpt lat="43.1327767" lon="13.1893417"><ele>493.0</ele><time>2026-03-22T10:02:28.383Z</time></trkpt><trkpt lat="43.13289" lon="13.1894417"><ele>493.0</ele><time>2026-03-22T10:02:29.388Z</time></trkpt><trkpt lat="43.133005" lon="13.189535"><ele>493.0</ele><time>2026-03-22T10:02:30.383Z</time></trkpt><trkpt lat="43.133115" lon="13.1896383"><ele>493.0</ele><time>2026-03-22T10:02:31.386Z</time></trkpt><trkpt lat="43.1332183" lon="13.1897533"><ele>489.5</ele><time>2026-03-22T10:02:32.436Z</time></trkpt><trkpt lat="43.1333233" lon="13.1898667"><ele>486.0</ele><time>2026-03-22T10:02:33.375Z</time></trkpt><trkpt lat="43.1334283" lon="13.189985"><ele>482.5</ele><time>2026-03-22T10:02:34.369Z</time></trkpt><trkpt lat="43.1335317" lon="13.1901117"><ele>479.0</ele><time>2026-03-22T10:02:35.386Z</time></trkpt><trkpt lat="43.1336367" lon="13.1902383"><ele>479.0</ele><time>2026-03-22T10:02:36.387Z</time></trkpt><trkpt lat="43.133745" lon="13.19037"><ele>479.0</ele><time>2026-03-22T10:02:37.38Z</time></trkpt><trkpt lat="43.13386" lon="13.1905033"><ele>479.0</ele><time>2026-03-22T10:02:38.395Z</time></trkpt><trkpt lat="43.1339767" lon="13.19063"><ele>479.0</ele><time>2026-03-22T10:02:39.362Z</time></trkpt><trkpt lat="43.13409" lon="13.1907533"><ele>473.75</ele><time>2026-03-22T10:02:40.369Z</time></trkpt><trkpt lat="43.1342017" lon="13.1908783"><ele>468.5</ele><time>2026-03-22T10:02:41.385Z</time></trkpt><trkpt lat="43.1343133" lon="13.191"><ele>463.25</ele><time>2026-03-22T10:02:42.384Z</time></trkpt><trkpt lat="43.1344183" lon="13.1911167"><ele>458.0</ele><time>2026-03-22T10:02:43.368Z</time></trkpt><trkpt lat="43.1345267" lon="13.1912217"><ele>458.0</ele><time>2026-03-22T10:02:44.393Z</time></trkpt><trkpt lat="43.13464" lon="13.191335"><ele>458.0</ele><time>2026-03-22T10:02:45.384Z</time></trkpt><trkpt lat="43.13476" lon="13.1914667"><ele>458.0</ele><time>2026-03-22T10:02:46.386Z</time></trkpt><trkpt lat="43.1348883" lon="13.1916067"><ele>454.3333333333333</ele><time>2026-03-22T10:02:47.38Z</time></trkpt><trkpt lat="43.1350283" lon="13.1917483"><ele>450.66666666666663</ele><time>2026-03-22T10:02:48.378Z</time></trkpt><trkpt lat="43.13517" lon="13.1918883"><ele>447.0</ele><time>2026-03-22T10:02:49.386Z</time></trkpt><trkpt lat="43.1353017" lon="13.1920167"><ele>447.0</ele><time>2026-03-22T10:02:50.395Z</time></trkpt><trkpt lat="43.1354283" lon="13.1921333"><ele>447.0</ele><time>2026-03-22T10:02:51.374Z</time></trkpt><trkpt lat="43.13554" lon="13.192245"><ele>447.0</ele><time>2026-03-22T10:02:52.362Z</time></trkpt><trkpt lat="43.1356467" lon="13.1923533"><ele>447.0</ele><time>2026-03-22T10:02:53.386Z</time></trkpt><trkpt lat="43.1357483" lon="13.1924567"><ele>444.25</ele><time>2026-03-22T10:02:54.387Z</time></trkpt><trkpt lat="43.1358517" lon="13.1925533"><ele>441.5</ele><time>2026-03-22T10:02:55.387Z</time></trkpt><trkpt lat="43.1359533" lon="13.1926433"><ele>438.75</ele><time>2026-03-22T10:02:56.43Z</time></trkpt><trkpt lat="43.13605" lon="13.1927317"><ele>436.0</ele><time>2026-03-22T10:02:57.381Z</time></trkpt><trkpt lat="43.1361417" lon="13.1928133"><ele>436.0</ele><time>2026-03-22T10:02:58.384Z</time></trkpt><trkpt lat="43.136235" lon="13.1928917"><ele>436.0</ele><time>2026-03-22T10:02:59.386Z</time></trkpt><trkpt lat="43.136325" lon="13.192965"><ele>436.0</ele><time>2026-03-22T10:03:00.389Z</time></trkpt><trkpt lat="43.1364133" lon="13.1930367"><ele>436.0</ele><time>2026-03-22T10:03:01.379Z</time></trkpt><trkpt lat="43.1365067" lon="13.19311"><ele>436.0</ele><time>2026-03-22T10:03:02.415Z</time></trkpt><trkpt lat="43.1366017" lon="13.1931817"><ele>435.75</ele><time>2026-03-22T10:03:03.389Z</time></trkpt><trkpt lat="43.1367033" lon="13.1932517"><ele>435.5</ele><time>2026-03-22T10:03:04.375Z</time></trkpt><trkpt lat="43.1368133" lon="13.1933267"><ele>435.25</ele><time>2026-03-22T10:03:05.386Z</time></trkpt><trkpt lat="43.1369367" lon="13.193405"><ele>435.0</ele><time>2026-03-22T10:03:06.387Z</time></trkpt><trkpt lat="43.1370767" lon="13.1934933"><ele>435.0</ele><time>2026-03-22T10:03:07.384Z</time></trkpt><trkpt lat="43.13722" lon="13.1935883"><ele>435.0</ele><time>2026-03-22T10:03:08.377Z</time></trkpt><trkpt lat="43.137355" lon="13.19368"><ele>435.0</ele><time>2026-03-22T10:03:09.372Z</time></trkpt><trkpt lat="43.1374817" lon="13.1937633"><ele>434.25</ele><time>2026-03-22T10:03:10.388Z</time></trkpt><trkpt lat="43.137605" lon="13.1938433"><ele>433.5</ele><time>2026-03-22T10:03:11.382Z</time></trkpt><trkpt lat="43.1377267" lon="13.1939267"><ele>432.75</ele><time>2026-03-22T10:03:12.381Z</time></trkpt><trkpt lat="43.1378517" lon="13.19401"><ele>432.0</ele><time>2026-03-22T10:03:13.379Z</time></trkpt><trkpt lat="43.1379833" lon="13.1940833"><ele>432.0</ele><time>2026-03-22T10:03:14.357Z</time></trkpt><trkpt lat="43.1381133" lon="13.1941483"><ele>432.0</ele><time>2026-03-22T10:03:15.366Z</time></trkpt><trkpt lat="43.13824" lon="13.19421"><ele>432.0</ele><time>2026-03-22T10:03:16.387Z</time></trkpt><trkpt lat="43.13836" lon="13.19427"><ele>432.0</ele><time>2026-03-22T10:03:17.384Z</time></trkpt><trkpt lat="43.1384733" lon="13.1943333"><ele>426.8</ele><time>2026-03-22T10:03:18.383Z</time></trkpt><trkpt lat="43.13857" lon="13.1943933"><ele>421.6</ele><time>2026-03-22T10:03:19.384Z</time></trkpt><trkpt lat="43.1386483" lon="13.1944567"><ele>416.40000000000003</ele><time>2026-03-22T10:03:20.388Z</time></trkpt><trkpt lat="43.138705" lon="13.19451"><ele>411.20000000000005</ele><time>2026-03-22T10:03:21.387Z</time></trkpt><trkpt lat="43.13878" lon="13.1945667"><ele>406.0</ele><time>2026-03-22T10:03:23.381Z</time></trkpt><trkpt lat="43.1387467" lon="13.1944183"><ele>406.0</ele><time>2026-03-22T10:03:26.437Z</time></trkpt><trkpt lat="43.13868" lon="13.1943333"><ele>406.0</ele><time>2026-03-22T10:03:27.381Z</time></trkpt><trkpt lat="43.1385783" lon="13.1942183"><ele>406.0</ele><time>2026-03-22T10:03:28.384Z</time></trkpt><trkpt lat="43.1384783" lon="13.1941017"><ele>406.0</ele><time>2026-03-22T10:03:29.39Z</time></trkpt><trkpt lat="43.13838" lon="13.19399"><ele>406.25</ele><time>2026-03-22T10:03:30.384Z</time></trkpt><trkpt lat="43.1382833" lon="13.1938833"><ele>406.5</ele><time>2026-03-22T10:03:31.389Z</time></trkpt><trkpt lat="43.13819" lon="13.1937917"><ele>406.75</ele><time>2026-03-22T10:03:32.437Z</time></trkpt><trkpt lat="43.1380967" lon="13.1937083"><ele>407.0</ele><time>2026-03-22T10:03:33.383Z</time></trkpt><trkpt lat="43.1380033" lon="13.19364"><ele>407.0</ele><time>2026-03-22T10:03:34.389Z</time></trkpt><trkpt lat="43.1379183" lon="13.19358"><ele>407.0</ele><time>2026-03-22T10:03:35.388Z</time></trkpt><trkpt lat="43.137845" lon="13.1935133"><ele>407.0</ele><time>2026-03-22T10:03:36.388Z</time></trkpt><trkpt lat="43.1377817" lon="13.1934317"><ele>407.0</ele><time>2026-03-22T10:03:37.385Z</time></trkpt><trkpt lat="43.13772" lon="13.1933383"><ele>407.0</ele><time>2026-03-22T10:03:38.394Z</time></trkpt><trkpt lat="43.1376533" lon="13.1932417"><ele>406.5</ele><time>2026-03-22T10:03:39.385Z</time></trkpt><trkpt lat="43.13758" lon="13.19313"><ele>406.0</ele><time>2026-03-22T10:03:40.385Z</time></trkpt><trkpt lat="43.1374933" lon="13.1930083"><ele>405.5</ele><time>2026-03-22T10:03:41.382Z</time></trkpt><trkpt lat="43.137405" lon="13.1928817"><ele>405.0</ele><time>2026-03-22T10:03:42.39Z</time></trkpt><trkpt lat="43.13731" lon="13.1927567"><ele>405.0</ele><time>2026-03-22T10:03:43.388Z</time></trkpt><trkpt lat="43.1372167" lon="13.1926267"><ele>405.0</ele><time>2026-03-22T10:03:44.39Z</time></trkpt><trkpt lat="43.1371183" lon="13.1924917"><ele>405.0</ele><time>2026-03-22T10:03:45.389Z</time></trkpt><trkpt lat="43.1370233" lon="13.1923533"><ele>405.0</ele><time>2026-03-22T10:03:46.386Z</time></trkpt><trkpt lat="43.13693" lon="13.19222"><ele>399.75</ele><time>2026-03-22T10:03:47.39Z</time></trkpt><trkpt lat="43.1368367" lon="13.1920933"><ele>394.5</ele><time>2026-03-22T10:03:48.378Z</time></trkpt><trkpt lat="43.1367433" lon="13.1919667"><ele>389.25</ele><time>2026-03-22T10:03:49.375Z</time></trkpt><trkpt lat="43.1366467" lon="13.1918383"><ele>384.0</ele><time>2026-03-22T10:03:50.37Z</time></trkpt><trkpt lat="43.1365533" lon="13.1917067"><ele>385.25</ele><time>2026-03-22T10:03:51.387Z</time></trkpt><trkpt lat="43.1364633" lon="13.19157"><ele>386.5</ele><time>2026-03-22T10:03:52.387Z</time></trkpt><trkpt lat="43.1363767" lon="13.1914217"><ele>387.75</ele><time>2026-03-22T10:03:53.385Z</time></trkpt><trkpt lat="43.1362933" lon="13.191265"><ele>389.0</ele><time>2026-03-22T10:03:54.388Z</time></trkpt><trkpt lat="43.13622" lon="13.1911183"><ele>388.99999999999994</ele><time>2026-03-22T10:03:55.386Z</time></trkpt><trkpt lat="43.1361567" lon="13.1909917"><ele>389.0</ele><time>2026-03-22T10:03:56.42Z</time></trkpt><trkpt lat="43.136105" lon="13.1908817"><ele>389.0</ele><time>2026-03-22T10:03:57.388Z</time></trkpt><trkpt lat="43.1360683" lon="13.1907867"><ele>389.0</ele><time>2026-03-22T10:03:58.389Z</time></trkpt><trkpt lat="43.136055" lon="13.1906967"><ele>388.99999999999994</ele><time>2026-03-22T10:03:59.379Z</time></trkpt><trkpt lat="43.1360633" lon="13.1906067"><ele>389.0</ele><time>2026-03-22T10:04:00.39Z</time></trkpt><trkpt lat="43.13608" lon="13.1905117"><ele>389.2857142857143</ele><time>2026-03-22T10:04:01.38Z</time></trkpt><trkpt lat="43.13609" lon="13.190415"><ele>389.57142857142856</ele><time>2026-03-22T10:04:02.438Z</time></trkpt><trkpt lat="43.1360883" lon="13.1903233"><ele>389.85714285714283</ele><time>2026-03-22T10:04:03.38Z</time></trkpt><trkpt lat="43.1360767" lon="13.1902267"><ele>390.1428571428571</ele><time>2026-03-22T10:04:04.387Z</time></trkpt><trkpt lat="43.1360517" lon="13.1901233"><ele>390.42857142857144</ele><time>2026-03-22T10:04:05.388Z</time></trkpt><trkpt lat="43.1360233" lon="13.19002"><ele>390.71428571428567</ele><time>2026-03-22T10:04:06.389Z</time></trkpt><trkpt lat="43.135995" lon="13.189925"><ele>391.0</ele><time>2026-03-22T10:04:07.383Z</time></trkpt><trkpt lat="43.135975" lon="13.1898367"><ele>392.50000000000006</ele><time>2026-03-22T10:04:08.396Z</time></trkpt><trkpt lat="43.1359917" lon="13.1896867"><ele>394.0</ele><time>2026-03-22T10:04:10.387Z</time></trkpt><trkpt lat="43.1360383" lon="13.1896283"><ele>395.5</ele><time>2026-03-22T10:04:11.388Z</time></trkpt><trkpt lat="43.1361017" lon="13.1895733"><ele>397.0</ele><time>2026-03-22T10:04:12.379Z</time></trkpt><trkpt lat="43.1361583" lon="13.189505"><ele>398.50000000000006</ele><time>2026-03-22T10:04:13.384Z</time></trkpt><trkpt lat="43.1362117" lon="13.189415"><ele>400.0</ele><time>2026-03-22T10:04:14.394Z</time></trkpt><trkpt lat="43.1362683" lon="13.1893017"><ele>400.0</ele><time>2026-03-22T10:04:15.381Z</time></trkpt><trkpt lat="43.1363233" lon="13.18918"><ele>400.0</ele><time>2026-03-22T10:04:16.386Z</time></trkpt><trkpt lat="43.1363833" lon="13.1890733"><ele>400.0</ele><time>2026-03-22T10:04:17.374Z</time></trkpt><trkpt lat="43.1364583" lon="13.188995"><ele>400.0</ele><time>2026-03-22T10:04:18.38Z</time></trkpt><trkpt lat="43.1365467" lon="13.188955"><ele>400.0</ele><time>2026-03-22T10:04:19.386Z</time></trkpt><trkpt lat="43.13664" lon="13.1889433"><ele>405.2</ele><time>2026-03-22T10:04:20.395Z</time></trkpt><trkpt lat="43.1367283" lon="13.18892"><ele>410.4</ele><time>2026-03-22T10:04:21.387Z</time></trkpt><trkpt lat="43.1368167" lon="13.1888867"><ele>415.6</ele><time>2026-03-22T10:04:22.386Z</time></trkpt><trkpt lat="43.1369067" lon="13.18885"><ele>420.8</ele><time>2026-03-22T10:04:23.386Z</time></trkpt><trkpt lat="43.1369983" lon="13.188815"><ele>426.0</ele><time>2026-03-22T10:04:24.387Z</time></trkpt><trkpt lat="43.137075" lon="13.1887767"><ele>426.0</ele><time>2026-03-22T10:04:25.388Z</time></trkpt><trkpt lat="43.137145" lon="13.1887317"><ele>426.0</ele><time>2026-03-22T10:04:26.438Z</time></trkpt><trkpt lat="43.1371967" lon="13.18867"><ele>426.0</ele><time>2026-03-22T10:04:27.383Z</time></trkpt><trkpt lat="43.137235" lon="13.1885883"><ele>426.0</ele><time>2026-03-22T10:04:28.389Z</time></trkpt><trkpt lat="43.1372767" lon="13.1884983"><ele>426.0</ele><time>2026-03-22T10:04:29.374Z</time></trkpt><trkpt lat="43.1373283" lon="13.188405"><ele>426.0</ele><time>2026-03-22T10:04:30.393Z</time></trkpt><trkpt lat="43.1373783" lon="13.1883067"><ele>425.8333333333333</ele><time>2026-03-22T10:04:31.383Z</time></trkpt><trkpt lat="43.1374133" lon="13.1882017"><ele>425.66666666666663</ele><time>2026-03-22T10:04:32.389Z</time></trkpt><trkpt lat="43.137435" lon="13.1880867"><ele>425.5</ele><time>2026-03-22T10:04:33.385Z</time></trkpt><trkpt lat="43.1374483" lon="13.1879567"><ele>425.3333333333333</ele><time>2026-03-22T10:04:34.384Z</time></trkpt><trkpt lat="43.1374567" lon="13.1878267"><ele>425.16666666666663</ele><time>2026-03-22T10:04:35.386Z</time></trkpt><trkpt lat="43.13746" lon="13.18771"><ele>425.0</ele><time>2026-03-22T10:04:36.39Z</time></trkpt><trkpt lat="43.137455" lon="13.1876117"><ele>425.0</ele><time>2026-03-22T10:04:37.389Z</time></trkpt><trkpt lat="43.137435" lon="13.1874417"><ele>425.0</ele><time>2026-03-22T10:04:39.388Z</time></trkpt><trkpt lat="43.1374167" lon="13.187345"><ele>425.0</ele><time>2026-03-22T10:04:40.386Z</time></trkpt><trkpt lat="43.1373917" lon="13.1872383"><ele>425.0</ele><time>2026-03-22T10:04:41.379Z</time></trkpt><trkpt lat="43.1373567" lon="13.1871233"><ele>425.0</ele><time>2026-03-22T10:04:42.365Z</time></trkpt><trkpt lat="43.1373167" lon="13.18701"><ele>429.6</ele><time>2026-03-22T10:04:43.39Z</time></trkpt><trkpt lat="43.1372783" lon="13.1868967"><ele>434.2</ele><time>2026-03-22T10:04:44.395Z</time></trkpt><trkpt lat="43.1372333" lon="13.1867867"><ele>438.79999999999995</ele><time>2026-03-22T10:04:45.382Z</time></trkpt><trkpt lat="43.137175" lon="13.1866867"><ele>443.4</ele><time>2026-03-22T10:04:46.379Z</time></trkpt><trkpt lat="43.1371183" lon="13.18659"><ele>448.0</ele><time>2026-03-22T10:04:47.391Z</time></trkpt><trkpt lat="43.1370567" lon="13.1864983"><ele>448.0</ele><time>2026-03-22T10:04:48.389Z</time></trkpt><trkpt lat="43.1369933" lon="13.1864067"><ele>447.99999999999994</ele><time>2026-03-22T10:04:49.388Z</time></trkpt><trkpt lat="43.1369317" lon="13.186305"><ele>447.99999999999994</ele><time>2026-03-22T10:04:50.393Z</time></trkpt><trkpt lat="43.1368683" lon="13.1862033"><ele>448.0</ele><time>2026-03-22T10:04:51.387Z</time></trkpt><trkpt lat="43.1368033" lon="13.1860867"><ele>448.0</ele><time>2026-03-22T10:04:52.39Z</time></trkpt><trkpt lat="43.1367417" lon="13.1859567"><ele>448.0</ele><time>2026-03-22T10:04:53.388Z</time></trkpt><trkpt lat="43.1366883" lon="13.1858233"><ele>447.99999999999994</ele><time>2026-03-22T10:04:54.385Z</time></trkpt><trkpt lat="43.1366317" lon="13.1856967"><ele>447.99999999999994</ele><time>2026-03-22T10:04:55.385Z</time></trkpt><trkpt lat="43.13657" lon="13.1855817"><ele>448.0</ele><time>2026-03-22T10:04:56.387Z</time></trkpt><trkpt lat="43.13649" lon="13.1854633"><ele>448.0</ele><time>2026-03-22T10:04:57.384Z</time></trkpt><trkpt lat="43.1364133" lon="13.18533"><ele>455.5</ele><time>2026-03-22T10:04:58.387Z</time></trkpt><trkpt lat="43.1363383" lon="13.185195"><ele>463.0</ele><time>2026-03-22T10:04:59.388Z</time></trkpt><trkpt lat="43.1362667" lon="13.1850633"><ele>470.5</ele><time>2026-03-22T10:05:00.379Z</time></trkpt><trkpt lat="43.1362067" lon="13.1849283"><ele>478.0</ele><time>2026-03-22T10:05:01.385Z</time></trkpt><trkpt lat="43.1361567" lon="13.18479"><ele>478.0</ele><time>2026-03-22T10:05:02.387Z</time></trkpt><trkpt lat="43.1361083" lon="13.1846567"><ele>478.0</ele><time>2026-03-22T10:05:03.388Z</time></trkpt><trkpt lat="43.1360483" lon="13.1845267"><ele>478.0</ele><time>2026-03-22T10:05:04.376Z</time></trkpt><trkpt lat="43.1359817" lon="13.1843983"><ele>478.0</ele><time>2026-03-22T10:05:05.382Z</time></trkpt><trkpt lat="43.1359183" lon="13.184265"><ele>478.0</ele><time>2026-03-22T10:05:06.392Z</time></trkpt><trkpt lat="43.1358633" lon="13.1841117"><ele>478.0</ele><time>2026-03-22T10:05:07.386Z</time></trkpt><trkpt lat="43.1358267" lon="13.1839383"><ele>478.0</ele><time>2026-03-22T10:05:08.395Z</time></trkpt><trkpt lat="43.135805" lon="13.1837467"><ele>478.0</ele><time>2026-03-22T10:05:09.377Z</time></trkpt><trkpt lat="43.1357917" lon="13.18355"><ele>476.0</ele><time>2026-03-22T10:05:10.387Z</time></trkpt><trkpt lat="43.13578" lon="13.1833617"><ele>474.0</ele><time>2026-03-22T10:05:11.376Z</time></trkpt><trkpt lat="43.1357683" lon="13.18319"><ele>472.0</ele><time>2026-03-22T10:05:12.387Z</time></trkpt><trkpt lat="43.135755" lon="13.18304"><ele>470.0</ele><time>2026-03-22T10:05:13.387Z</time></trkpt><trkpt lat="43.1357167" lon="13.18291"><ele>475.2</ele><time>2026-03-22T10:05:14.392Z</time></trkpt><trkpt lat="43.135675" lon="13.18278"><ele>480.4</ele><time>2026-03-22T10:05:15.39Z</time></trkpt><trkpt lat="43.1356417" lon="13.1826383"><ele>485.6</ele><time>2026-03-22T10:05:16.389Z</time></trkpt><trkpt lat="43.1356133" lon="13.1824983"><ele>490.8</ele><time>2026-03-22T10:05:17.364Z</time></trkpt><trkpt lat="43.13558" lon="13.182375"><ele>496.0</ele><time>2026-03-22T10:05:18.388Z</time></trkpt><trkpt lat="43.13553" lon="13.18226"><ele>496.0</ele><time>2026-03-22T10:05:19.389Z</time></trkpt><trkpt lat="43.1354733" lon="13.18214"><ele>496.0</ele><time>2026-03-22T10:05:20.394Z</time></trkpt><trkpt lat="43.1354133" lon="13.1820183"><ele>496.0</ele><time>2026-03-22T10:05:21.387Z</time></trkpt><trkpt lat="43.1353583" lon="13.1819033"><ele>496.0</ele><time>2026-03-22T10:05:22.387Z</time></trkpt><trkpt lat="43.1353217" lon="13.1817867"><ele>496.0</ele><time>2026-03-22T10:05:23.388Z</time></trkpt><trkpt lat="43.135295" lon="13.181655"><ele>496.00000000000006</ele><time>2026-03-22T10:05:24.387Z</time></trkpt><trkpt lat="43.1352683" lon="13.18152"><ele>496.0</ele><time>2026-03-22T10:05:25.387Z</time></trkpt><trkpt lat="43.135235" lon="13.1813983"><ele>496.0</ele><time>2026-03-22T10:05:26.449Z</time></trkpt><trkpt lat="43.1351983" lon="13.1812883"><ele>496.0</ele><time>2026-03-22T10:05:27.379Z</time></trkpt><trkpt lat="43.1351583" lon="13.1811933"><ele>496.00000000000006</ele><time>2026-03-22T10:05:28.39Z</time></trkpt><trkpt lat="43.1351117" lon="13.1811033"><ele>496.0</ele><time>2026-03-22T10:05:29.387Z</time></trkpt><trkpt lat="43.135055" lon="13.1810217"><ele>494.1666666666667</ele><time>2026-03-22T10:05:30.39Z</time></trkpt><trkpt lat="43.134995" lon="13.1809467"><ele>492.33333333333337</ele><time>2026-03-22T10:05:31.382Z</time></trkpt><trkpt lat="43.1349383" lon="13.1808767"><ele>490.5</ele><time>2026-03-22T10:05:32.441Z</time></trkpt><trkpt lat="43.1348767" lon="13.180815"><ele>488.66666666666663</ele><time>2026-03-22T10:05:33.384Z</time></trkpt><trkpt lat="43.1348183" lon="13.1807467"><ele>486.8333333333333</ele><time>2026-03-22T10:05:34.384Z</time></trkpt><trkpt lat="43.1347583" lon="13.1806683"><ele>485.0</ele><time>2026-03-22T10:05:35.387Z</time></trkpt><trkpt lat="43.1346967" lon="13.18059"><ele>489.8571428571429</ele><time>2026-03-22T10:05:36.387Z</time></trkpt><trkpt lat="43.1346333" lon="13.18052"><ele>494.7142857142857</ele><time>2026-03-22T10:05:37.388Z</time></trkpt><trkpt lat="43.1345833" lon="13.1804383"><ele>499.57142857142856</ele><time>2026-03-22T10:05:38.394Z</time></trkpt><trkpt lat="43.1345433" lon="13.1803533"><ele>504.42857142857144</ele><time>2026-03-22T10:05:39.38Z</time></trkpt><trkpt lat="43.1344967" lon="13.1802817"><ele>509.2857142857142</ele><time>2026-03-22T10:05:40.389Z</time></trkpt><trkpt lat="43.1344433" lon="13.1802267"><ele>514.1428571428571</ele><time>2026-03-22T10:05:41.39Z</time></trkpt><trkpt lat="43.1343867" lon="13.1801867"><ele>519.0</ele><time>2026-03-22T10:05:42.39Z</time></trkpt><trkpt lat="43.1342883" lon="13.1801033"><ele>519.0</ele><time>2026-03-22T10:05:44.391Z</time></trkpt><trkpt lat="43.134205" lon="13.18"><ele>519.0</ele><time>2026-03-22T10:05:46.384Z</time></trkpt><trkpt lat="43.1341167" lon="13.179895"><ele>519.0</ele><time>2026-03-22T10:05:48.389Z</time></trkpt><trkpt lat="43.1340317" lon="13.1797867"><ele>519.0</ele><time>2026-03-22T10:05:50.392Z</time></trkpt><trkpt lat="43.1339417" lon="13.1797033"><ele>526.8</ele><time>2026-03-22T10:05:52.372Z</time></trkpt><trkpt lat="43.1338533" lon="13.17963"><ele>534.5999999999999</ele><time>2026-03-22T10:05:54.389Z</time></trkpt><trkpt lat="43.13377" lon="13.17956"><ele>542.4</ele><time>2026-03-22T10:05:56.382Z</time></trkpt><trkpt lat="43.1337017" lon="13.1794733"><ele>550.1999999999999</ele><time>2026-03-22T10:05:58.382Z</time></trkpt><trkpt lat="43.1336283" lon="13.1794067"><ele>558.0</ele><time>2026-03-22T10:06:00.386Z</time></trkpt><trkpt lat="43.1335633" lon="13.1793517"><ele>558.0</ele><time>2026-03-22T10:06:02.379Z</time></trkpt><trkpt lat="43.1334867" lon="13.179305"><ele>558.0</ele><time>2026-03-22T10:06:04.367Z</time></trkpt><trkpt lat="43.1334217" lon="13.1792817"><ele>558.0</ele><time>2026-03-22T10:06:07.39Z</time></trkpt><trkpt lat="43.13335" lon="13.17922"><ele>558.0</ele><time>2026-03-22T10:06:11.363Z</time></trkpt><trkpt lat="43.1334117" lon="13.1792667"><ele>558.0</ele><time>2026-03-22T10:08:25.361Z</time></trkpt><trkpt lat="43.1334917" lon="13.1792983"><ele>558.0</ele><time>2026-03-22T10:08:27.374Z</time></trkpt><trkpt lat="43.1335717" lon="13.1793567"><ele>558.0</ele><time>2026-03-22T10:08:29.377Z</time></trkpt><trkpt lat="43.1336283" lon="13.179405"><ele>558.0</ele><time>2026-03-22T10:08:31.376Z</time></trkpt><trkpt lat="43.133695" lon="13.1794783"><ele>558.0</ele><time>2026-03-22T10:08:34.36Z</time></trkpt><trkpt lat="43.1337567" lon="13.1795533"><ele>558.0</ele><time>2026-03-22T10:08:37.36Z</time></trkpt><trkpt lat="43.133835" lon="13.1796217"><ele>558.0</ele><time>2026-03-22T10:08:40.376Z</time></trkpt><trkpt lat="43.1338967" lon="13.17967"><ele>558.0</ele><time>2026-03-22T10:08:42.381Z</time></trkpt><trkpt lat="43.1339533" lon="13.17972"><ele>558.0</ele><time>2026-03-22T10:08:44.388Z</time></trkpt><trkpt lat="43.1340217" lon="13.1797833"><ele>558.0</ele><time>2026-03-22T10:08:47.376Z</time></trkpt><trkpt lat="43.134075" lon="13.1798517"><ele>558.0</ele><time>2026-03-22T10:08:50.388Z</time></trkpt><trkpt lat="43.1341333" lon="13.179915"><ele>558.0</ele><time>2026-03-22T10:08:53.363Z</time></trkpt><trkpt lat="43.1342017" lon="13.1799917"><ele>558.0</ele><time>2026-03-22T10:08:56.379Z</time></trkpt><trkpt lat="43.1342517" lon="13.1800867"><ele>558.0</ele><time>2026-03-22T10:08:59.359Z</time></trkpt><trkpt lat="43.1342967" lon="13.1801483"><ele>551.5</ele><time>2026-03-22T10:09:01.38Z</time></trkpt><trkpt lat="43.1343617" lon="13.1801933"><ele>545.0</ele><time>2026-03-22T10:09:03.371Z</time></trkpt><trkpt lat="43.1344217" lon="13.1802283"><ele>538.5</ele><time>2026-03-22T10:09:05.376Z</time></trkpt><trkpt lat="43.1344833" lon="13.1803067"><ele>532.0</ele><time>2026-03-22T10:09:07.371Z</time></trkpt><trkpt lat="43.1345383" lon="13.1804267"><ele>525.5</ele><time>2026-03-22T10:09:09.375Z</time></trkpt><trkpt lat="43.1346167" lon="13.1805367"><ele>519.0</ele><time>2026-03-22T10:09:11.377Z</time></trkpt><trkpt lat="43.1347083" lon="13.180665"><ele>520.6666666666666</ele><time>2026-03-22T10:09:13.367Z</time></trkpt><trkpt lat="43.134755" lon="13.1807367"><ele>522.3333333333334</ele><time>2026-03-22T10:09:14.391Z</time></trkpt><trkpt lat="43.134805" lon="13.1808033"><ele>524.0</ele><time>2026-03-22T10:09:15.383Z</time></trkpt><trkpt lat="43.134855" lon="13.1808633"><ele>525.6666666666667</ele><time>2026-03-22T10:09:16.376Z</time></trkpt><trkpt lat="43.13494" lon="13.1809817"><ele>527.3333333333334</ele><time>2026-03-22T10:09:18.374Z</time></trkpt><trkpt lat="43.134985" lon="13.1810467"><ele>529.0</ele><time>2026-03-22T10:09:19.373Z</time></trkpt><trkpt lat="43.1350267" lon="13.1811217"><ele>523.5</ele><time>2026-03-22T10:09:20.387Z</time></trkpt><trkpt lat="43.1350683" lon="13.1811883"><ele>518.0</ele><time>2026-03-22T10:09:21.374Z</time></trkpt><trkpt lat="43.1351433" lon="13.18128"><ele>512.5</ele><time>2026-03-22T10:09:23.378Z</time></trkpt><trkpt lat="43.1351967" lon="13.1814167"><ele>507.0</ele><time>2026-03-22T10:09:25.374Z</time></trkpt><trkpt lat="43.1352217" lon="13.1815167"><ele>501.50000000000006</ele><time>2026-03-22T10:09:26.443Z</time></trkpt><trkpt lat="43.1352417" lon="13.1816133"><ele>496.0</ele><time>2026-03-22T10:09:27.376Z</time></trkpt><trkpt lat="43.135265" lon="13.1817117"><ele>496.00000000000006</ele><time>2026-03-22T10:09:28.374Z</time></trkpt><trkpt lat="43.1352817" lon="13.181805"><ele>496.0</ele><time>2026-03-22T10:09:29.376Z</time></trkpt><trkpt lat="43.1353033" lon="13.1818883"><ele>496.0</ele><time>2026-03-22T10:09:30.382Z</time></trkpt><trkpt lat="43.1353633" lon="13.182015"><ele>496.0</ele><time>2026-03-22T10:09:32.429Z</time></trkpt><trkpt lat="43.1353967" lon="13.18209"><ele>496.00000000000006</ele><time>2026-03-22T10:09:34.377Z</time></trkpt><trkpt lat="43.1353733" lon="13.1819983"><ele>496.0</ele><time>2026-03-22T10:09:42.378Z</time></trkpt><trkpt lat="43.135315" lon="13.181855"><ele>496.00000000000006</ele><time>2026-03-22T10:09:44.398Z</time></trkpt><trkpt lat="43.135295" lon="13.1817533"><ele>496.0</ele><time>2026-03-22T10:09:45.374Z</time></trkpt><trkpt lat="43.1352783" lon="13.18164"><ele>496.0</ele><time>2026-03-22T10:09:46.38Z</time></trkpt><trkpt lat="43.13525" lon="13.181525"><ele>496.0</ele><time>2026-03-22T10:09:47.378Z</time></trkpt><trkpt lat="43.135215" lon="13.1814117"><ele>496.00000000000006</ele><time>2026-03-22T10:09:48.378Z</time></trkpt><trkpt lat="43.135175" lon="13.1813033"><ele>496.0</ele><time>2026-03-22T10:09:49.378Z</time></trkpt><trkpt lat="43.135125" lon="13.1812083"><ele>494.42857142857144</ele><time>2026-03-22T10:09:50.391Z</time></trkpt><trkpt lat="43.1350683" lon="13.181125"><ele>492.8571428571429</ele><time>2026-03-22T10:09:51.375Z</time></trkpt><trkpt lat="43.1350083" lon="13.181055"><ele>491.28571428571433</ele><time>2026-03-22T10:09:52.373Z</time></trkpt><trkpt lat="43.13496" lon="13.180985"><ele>489.7142857142858</ele><time>2026-03-22T10:09:53.376Z</time></trkpt><trkpt lat="43.13491" lon="13.1809167"><ele>488.14285714285717</ele><time>2026-03-22T10:09:54.374Z</time></trkpt><trkpt lat="43.13486" lon="13.180855"><ele>486.57142857142867</ele><time>2026-03-22T10:09:55.374Z</time></trkpt><trkpt lat="43.13481" lon="13.1807933"><ele>485.00000000000006</ele><time>2026-03-22T10:09:56.38Z</time></trkpt><trkpt lat="43.13476" lon="13.1807283"><ele>490.66666666666663</ele><time>2026-03-22T10:09:57.377Z</time></trkpt><trkpt lat="43.134715" lon="13.18066"><ele>496.3333333333333</ele><time>2026-03-22T10:09:58.375Z</time></trkpt><trkpt lat="43.1346733" lon="13.1805933"><ele>502.0</ele><time>2026-03-22T10:09:59.38Z</time></trkpt><trkpt lat="43.1346267" lon="13.1805267"><ele>507.66666666666663</ele><time>2026-03-22T10:10:00.376Z</time></trkpt><trkpt lat="43.1345767" lon="13.1804667"><ele>513.3333333333334</ele><time>2026-03-22T10:10:01.373Z</time></trkpt><trkpt lat="43.1345083" lon="13.1803433"><ele>519.0</ele><time>2026-03-22T10:10:03.371Z</time></trkpt><trkpt lat="43.1344417" lon="13.1802733"><ele>519.0</ele><time>2026-03-22T10:10:05.361Z</time></trkpt><trkpt lat="43.1344733" lon="13.1803583"><ele>519.0</ele><time>2026-03-22T10:10:30.378Z</time></trkpt><trkpt lat="43.1345333" lon="13.180475"><ele>519.0</ele><time>2026-03-22T10:10:33.375Z</time></trkpt><trkpt lat="43.134625" lon="13.1805817"><ele>519.0</ele><time>2026-03-22T10:10:35.377Z</time></trkpt><trkpt lat="43.1346817" lon="13.18066"><ele>519.0</ele><time>2026-03-22T10:10:36.376Z</time></trkpt><trkpt lat="43.1347417" lon="13.180745"><ele>520.6666666666666</ele><time>2026-03-22T10:10:37.383Z</time></trkpt><trkpt lat="43.1348033" lon="13.1808183"><ele>522.3333333333334</ele><time>2026-03-22T10:10:38.395Z</time></trkpt><trkpt lat="43.1348683" lon="13.180885"><ele>524.0</ele><time>2026-03-22T10:10:39.38Z</time></trkpt><trkpt lat="43.1349317" lon="13.1809567"><ele>525.6666666666667</ele><time>2026-03-22T10:10:40.376Z</time></trkpt><trkpt lat="43.1349883" lon="13.18103"><ele>527.3333333333334</ele><time>2026-03-22T10:10:41.378Z</time></trkpt><trkpt lat="43.1350433" lon="13.1811167"><ele>529.0</ele><time>2026-03-22T10:10:42.368Z</time></trkpt><trkpt lat="43.135095" lon="13.1811967"><ele>523.5</ele><time>2026-03-22T10:10:43.375Z</time></trkpt><trkpt lat="43.1351467" lon="13.18127"><ele>518.0</ele><time>2026-03-22T10:10:44.379Z</time></trkpt><trkpt lat="43.1351933" lon="13.1813367"><ele>512.5</ele><time>2026-03-22T10:10:45.37Z</time></trkpt><trkpt lat="43.13523" lon="13.1814217"><ele>507.0</ele><time>2026-03-22T10:10:46.373Z</time></trkpt><trkpt lat="43.1352667" lon="13.1815167"><ele>501.50000000000006</ele><time>2026-03-22T10:10:47.374Z</time></trkpt><trkpt lat="43.135295" lon="13.1816283"><ele>496.0</ele><time>2026-03-22T10:10:48.371Z</time></trkpt><trkpt lat="43.1353183" lon="13.18174"><ele>496.0</ele><time>2026-03-22T10:10:49.378Z</time></trkpt><trkpt lat="43.1353433" lon="13.1818417"><ele>496.0</ele><time>2026-03-22T10:10:50.399Z</time></trkpt><trkpt lat="43.135385" lon="13.1819883"><ele>496.0</ele><time>2026-03-22T10:10:52.366Z</time></trkpt><trkpt lat="43.1354467" lon="13.1821367"><ele>496.0</ele><time>2026-03-22T10:10:54.378Z</time></trkpt><trkpt lat="43.1354967" lon="13.1822817"><ele>496.0</ele><time>2026-03-22T10:10:56.379Z</time></trkpt><trkpt lat="43.13557" lon="13.18231"><ele>496.0</ele><time>2026-03-22T10:11:14.38Z</time></trkpt><trkpt lat="43.135595" lon="13.182205"><ele>496.0</ele><time>2026-03-22T10:11:17.377Z</time></trkpt><trkpt lat="43.1356017" lon="13.1821033"><ele>496.0</ele><time>2026-03-22T10:11:18.38Z</time></trkpt><trkpt lat="43.1355933" lon="13.1819417"><ele>496.0</ele><time>2026-03-22T10:11:19.377Z</time></trkpt><trkpt lat="43.1355767" lon="13.181745"><ele>496.0</ele><time>2026-03-22T10:11:20.392Z</time></trkpt><trkpt lat="43.1355267" lon="13.1815083"><ele>492.33333333333337</ele><time>2026-03-22T10:11:21.38Z</time></trkpt><trkpt lat="43.1354783" lon="13.1812983"><ele>488.66666666666663</ele><time>2026-03-22T10:11:22.377Z</time></trkpt><trkpt lat="43.135415" lon="13.1810817"><ele>485.0</ele><time>2026-03-22T10:11:23.378Z</time></trkpt><trkpt lat="43.1353433" lon="13.1808667"><ele>480.66666666666663</ele><time>2026-03-22T10:11:24.384Z</time></trkpt><trkpt lat="43.13526" lon="13.1806633"><ele>476.33333333333337</ele><time>2026-03-22T10:11:25.377Z</time></trkpt><trkpt lat="43.135175" lon="13.1804933"><ele>472.0</ele><time>2026-03-22T10:11:26.442Z</time></trkpt><trkpt lat="43.1350833" lon="13.1803417"><ele>472.0</ele><time>2026-03-22T10:11:27.374Z</time></trkpt><trkpt lat="43.1349967" lon="13.1801967"><ele>472.0</ele><time>2026-03-22T10:11:28.376Z</time></trkpt><trkpt lat="43.1349217" lon="13.180055"><ele>472.0</ele><time>2026-03-22T10:11:29.376Z</time></trkpt><trkpt lat="43.1348517" lon="13.1799167"><ele>472.0</ele><time>2026-03-22T10:11:30.382Z</time></trkpt><trkpt lat="43.13478" lon="13.179785"><ele>479.40000000000003</ele><time>2026-03-22T10:11:31.375Z</time></trkpt><trkpt lat="43.1347117" lon="13.1796683"><ele>486.80000000000007</ele><time>2026-03-22T10:11:32.421Z</time></trkpt><trkpt lat="43.1346367" lon="13.1795583"><ele>494.2</ele><time>2026-03-22T10:11:33.371Z</time></trkpt><trkpt lat="43.1345617" lon="13.1794433"><ele>501.6</ele><time>2026-03-22T10:11:34.376Z</time></trkpt><trkpt lat="43.13449" lon="13.1793367"><ele>509.0</ele><time>2026-03-22T10:11:35.374Z</time></trkpt><trkpt lat="43.1344183" lon="13.179225"><ele>509.0</ele><time>2026-03-22T10:11:36.377Z</time></trkpt><trkpt lat="43.134345" lon="13.179125"><ele>509.0</ele><time>2026-03-22T10:11:37.375Z</time></trkpt><trkpt lat="43.13427" lon="13.1790333"><ele>509.0</ele><time>2026-03-22T10:11:38.395Z</time></trkpt><trkpt lat="43.1341983" lon="13.1789417"><ele>509.0</ele><time>2026-03-22T10:11:39.375Z</time></trkpt><trkpt lat="43.1341183" lon="13.1788383"><ele>509.0</ele><time>2026-03-22T10:11:40.373Z</time></trkpt><trkpt lat="43.13403" lon="13.1787317"><ele>513.6</ele><time>2026-03-22T10:11:41.376Z</time></trkpt><trkpt lat="43.133945" lon="13.1786217"><ele>518.2</ele><time>2026-03-22T10:11:42.377Z</time></trkpt><trkpt lat="43.1338633" lon="13.1785167"><ele>522.8000000000001</ele><time>2026-03-22T10:11:43.375Z</time></trkpt><trkpt lat="43.1337883" lon="13.17841"><ele>527.4</ele><time>2026-03-22T10:11:44.393Z</time></trkpt><trkpt lat="43.13372" lon="13.1782983"><ele>532.0</ele><time>2026-03-22T10:11:45.374Z</time></trkpt><trkpt lat="43.1336517" lon="13.1781733"><ele>532.0</ele><time>2026-03-22T10:11:46.373Z</time></trkpt><trkpt lat="43.1335767" lon="13.1780433"><ele>532.0</ele><time>2026-03-22T10:11:47.368Z</time></trkpt><trkpt lat="43.133495" lon="13.1779083"><ele>532.0</ele><time>2026-03-22T10:11:48.378Z</time></trkpt><trkpt lat="43.133405" lon="13.1777767"><ele>532.0</ele><time>2026-03-22T10:11:49.383Z</time></trkpt><trkpt lat="43.1333183" lon="13.17765"><ele>532.0</ele><time>2026-03-22T10:11:50.393Z</time></trkpt><trkpt lat="43.13323" lon="13.177535"><ele>532.0</ele><time>2026-03-22T10:11:51.376Z</time></trkpt><trkpt lat="43.1331483" lon="13.1774283"><ele>532.0</ele><time>2026-03-22T10:11:52.379Z</time></trkpt><trkpt lat="43.13307" lon="13.1773317"><ele>532.0</ele><time>2026-03-22T10:11:53.373Z</time></trkpt><trkpt lat="43.1329967" lon="13.1772417"><ele>532.0</ele><time>2026-03-22T10:11:54.376Z</time></trkpt><trkpt lat="43.13293" lon="13.17714"><ele>540.0</ele><time>2026-03-22T10:11:55.38Z</time></trkpt><trkpt lat="43.1328683" lon="13.17703"><ele>548.0</ele><time>2026-03-22T10:11:56.437Z</time></trkpt><trkpt lat="43.1328033" lon="13.1769217"><ele>556.0</ele><time>2026-03-22T10:11:57.374Z</time></trkpt><trkpt lat="43.13273" lon="13.1768117"><ele>564.0</ele><time>2026-03-22T10:11:58.375Z</time></trkpt><trkpt lat="43.1326567" lon="13.1766967"><ele>572.0</ele><time>2026-03-22T10:11:59.377Z</time></trkpt><trkpt lat="43.1325733" lon="13.17657"><ele>565.75</ele><time>2026-03-22T10:12:00.377Z</time></trkpt><trkpt lat="43.1324917" lon="13.1764417"><ele>559.5</ele><time>2026-03-22T10:12:01.372Z</time></trkpt><trkpt lat="43.1324133" lon="13.1763083"><ele>553.25</ele><time>2026-03-22T10:12:02.441Z</time></trkpt><trkpt lat="43.132335" lon="13.17617"><ele>547.0</ele><time>2026-03-22T10:12:03.365Z</time></trkpt><trkpt lat="43.132265" lon="13.176035"><ele>553.2</ele><time>2026-03-22T10:12:04.373Z</time></trkpt><trkpt lat="43.1322017" lon="13.1759133"><ele>559.4000000000001</ele><time>2026-03-22T10:12:05.373Z</time></trkpt><trkpt lat="43.132145" lon="13.1758017"><ele>565.5999999999999</ele><time>2026-03-22T10:12:06.368Z</time></trkpt><trkpt lat="43.13209" lon="13.17569"><ele>571.8</ele><time>2026-03-22T10:12:07.35Z</time></trkpt><trkpt lat="43.1320383" lon="13.17558"><ele>578.0</ele><time>2026-03-22T10:12:08.378Z</time></trkpt><trkpt lat="43.1319817" lon="13.17548"><ele>578.0</ele><time>2026-03-22T10:12:09.34Z</time></trkpt><trkpt lat="43.1319317" lon="13.1753933"><ele>578.0</ele><time>2026-03-22T10:12:10.334Z</time></trkpt><trkpt lat="43.1319567" lon="13.1754917"><ele>578.0</ele><time>2026-03-22T10:12:58.363Z</time></trkpt><trkpt lat="43.1320067" lon="13.1755683"><ele>578.0</ele><time>2026-03-22T10:13:00.376Z</time></trkpt><trkpt lat="43.1320567" lon="13.175645"><ele>578.0</ele><time>2026-03-22T10:13:01.378Z</time></trkpt><trkpt lat="43.1321283" lon="13.1757533"><ele>578.0</ele><time>2026-03-22T10:13:02.351Z</time></trkpt><trkpt lat="43.1322017" lon="13.1758783"><ele>581.8333333333333</ele><time>2026-03-22T10:13:03.364Z</time></trkpt><trkpt lat="43.1322617" lon="13.175995"><ele>585.6666666666666</ele><time>2026-03-22T10:13:04.364Z</time></trkpt><trkpt lat="43.1323117" lon="13.1760983"><ele>589.5</ele><time>2026-03-22T10:13:05.358Z</time></trkpt><trkpt lat="43.13233" lon="13.1762033"><ele>593.3333333333334</ele><time>2026-03-22T10:13:06.377Z</time></trkpt><trkpt lat="43.1323283" lon="13.176295"><ele>597.1666666666667</ele><time>2026-03-22T10:13:07.358Z</time></trkpt><trkpt lat="43.1323217" lon="13.1763983"><ele>601.0</ele><time>2026-03-22T10:13:08.382Z</time></trkpt><trkpt lat="43.1323083" lon="13.1765217"><ele>604.2</ele><time>2026-03-22T10:13:09.37Z</time></trkpt><trkpt lat="43.13229" lon="13.1766517"><ele>607.4000000000001</ele><time>2026-03-22T10:13:10.376Z</time></trkpt><trkpt lat="43.1322617" lon="13.1767867"><ele>610.6</ele><time>2026-03-22T10:13:11.357Z</time></trkpt><trkpt lat="43.1322433" lon="13.17692"><ele>613.8000000000001</ele><time>2026-03-22T10:13:12.361Z</time></trkpt><trkpt lat="43.13224" lon="13.17705"><ele>617.0</ele><time>2026-03-22T10:13:13.371Z</time></trkpt><trkpt lat="43.1322433" lon="13.1771883"><ele>617.0</ele><time>2026-03-22T10:13:14.378Z</time></trkpt><trkpt lat="43.13226" lon="13.1773267"><ele>617.0</ele><time>2026-03-22T10:13:15.363Z</time></trkpt><trkpt lat="43.1322717" lon="13.1774633"><ele>617.0</ele><time>2026-03-22T10:13:16.375Z</time></trkpt><trkpt lat="43.1322767" lon="13.1775933"><ele>617.0</ele><time>2026-03-22T10:13:17.377Z</time></trkpt><trkpt lat="43.1322733" lon="13.1777117"><ele>617.0</ele><time>2026-03-22T10:13:18.377Z</time></trkpt><trkpt lat="43.13227" lon="13.1778283"><ele>618.8333333333333</ele><time>2026-03-22T10:13:19.381Z</time></trkpt><trkpt lat="43.1322717" lon="13.1779433"><ele>620.6666666666666</ele><time>2026-03-22T10:13:20.403Z</time></trkpt><trkpt lat="43.132275" lon="13.1780483"><ele>622.5</ele><time>2026-03-22T10:13:21.382Z</time></trkpt><trkpt lat="43.132275" lon="13.1781367"><ele>624.3333333333334</ele><time>2026-03-22T10:13:22.374Z</time></trkpt><trkpt lat="43.132305" lon="13.1782233"><ele>626.1666666666667</ele><time>2026-03-22T10:13:25.357Z</time></trkpt><trkpt lat="43.1323833" lon="13.1782567"><ele>628.0</ele><time>2026-03-22T10:13:27.375Z</time></trkpt><trkpt lat="43.1324833" lon="13.1783033"><ele>621.6</ele><time>2026-03-22T10:13:29.382Z</time></trkpt><trkpt lat="43.1325833" lon="13.1783683"><ele>615.1999999999999</ele><time>2026-03-22T10:13:31.386Z</time></trkpt><trkpt lat="43.1326817" lon="13.178475"><ele>608.8</ele><time>2026-03-22T10:13:33.381Z</time></trkpt><trkpt lat="43.1327333" lon="13.1785267"><ele>602.4</ele><time>2026-03-22T10:13:34.379Z</time></trkpt><trkpt lat="43.1328267" lon="13.1785983"><ele>596.0</ele><time>2026-03-22T10:13:36.388Z</time></trkpt><trkpt lat="43.1328967" lon="13.1786333"><ele>596.0</ele><time>2026-03-22T10:13:38.382Z</time></trkpt><trkpt lat="43.1329733" lon="13.1786567"><ele>596.0</ele><time>2026-03-22T10:13:40.369Z</time></trkpt><trkpt lat="43.133045" lon="13.1787083"><ele>596.0</ele><time>2026-03-22T10:13:42.381Z</time></trkpt><trkpt lat="43.13311" lon="13.178785"><ele>596.0</ele><time>2026-03-22T10:13:44.395Z</time></trkpt><trkpt lat="43.1331683" lon="13.1788667"><ele>596.0</ele><time>2026-03-22T10:13:46.377Z</time></trkpt><trkpt lat="43.133225" lon="13.178935"><ele>596.0</ele><time>2026-03-22T10:13:48.376Z</time></trkpt><trkpt lat="43.1332717" lon="13.1790033"><ele>589.6666666666666</ele><time>2026-03-22T10:13:50.396Z</time></trkpt><trkpt lat="43.1333317" lon="13.1790567"><ele>583.3333333333333</ele><time>2026-03-22T10:13:52.377Z</time></trkpt><trkpt lat="43.1334017" lon="13.1791067"><ele>577.0</ele><time>2026-03-22T10:13:54.37Z</time></trkpt><trkpt lat="43.1334767" lon="13.1791633"><ele>570.6666666666666</ele><time>2026-03-22T10:13:56.419Z</time></trkpt><trkpt lat="43.133565" lon="13.1792433"><ele>564.3333333333334</ele><time>2026-03-22T10:13:58.362Z</time></trkpt><trkpt lat="43.1336517" lon="13.1793283"><ele>558.0</ele><time>2026-03-22T10:14:00.37Z</time></trkpt><trkpt lat="43.133705" lon="13.179405"><ele>558.0</ele><time>2026-03-22T10:14:02.43Z</time></trkpt><trkpt lat="43.133775" lon="13.17949"><ele>558.0</ele><time>2026-03-22T10:14:04.363Z</time></trkpt><trkpt lat="43.13386" lon="13.179575"><ele>558.0</ele><time>2026-03-22T10:14:06.375Z</time></trkpt><trkpt lat="43.133935" lon="13.17965"><ele>558.0</ele><time>2026-03-22T10:14:08.386Z</time></trkpt><trkpt lat="43.134015" lon="13.1797517"><ele>558.0</ele><time>2026-03-22T10:14:10.376Z</time></trkpt><trkpt lat="43.1340883" lon="13.1798467"><ele>550.1999999999999</ele><time>2026-03-22T10:14:12.388Z</time></trkpt><trkpt lat="43.1341567" lon="13.1799483"><ele>542.4</ele><time>2026-03-22T10:14:14.381Z</time></trkpt><trkpt lat="43.1342467" lon="13.18005"><ele>534.5999999999999</ele><time>2026-03-22T10:14:16.371Z</time></trkpt><trkpt lat="43.1343417" lon="13.18011"><ele>526.8</ele><time>2026-03-22T10:14:18.388Z</time></trkpt><trkpt lat="43.134425" lon="13.1802117"><ele>519.0</ele><time>2026-03-22T10:14:20.402Z</time></trkpt><trkpt lat="43.1344733" lon="13.18028"><ele>519.0</ele><time>2026-03-22T10:14:21.383Z</time></trkpt><trkpt lat="43.1345233" lon="13.180355"><ele>519.0</ele><time>2026-03-22T10:14:22.372Z</time></trkpt><trkpt lat="43.1345783" lon="13.1804317"><ele>519.0</ele><time>2026-03-22T10:14:23.389Z</time></trkpt><trkpt lat="43.13464" lon="13.180515"><ele>519.0</ele><time>2026-03-22T10:14:24.387Z</time></trkpt><trkpt lat="43.1346983" lon="13.1806067"><ele>519.0</ele><time>2026-03-22T10:14:25.379Z</time></trkpt><trkpt lat="43.1347667" lon="13.1807"><ele>519.0</ele><time>2026-03-22T10:14:26.394Z</time></trkpt><trkpt lat="43.134825" lon="13.1807833"><ele>520.6666666666666</ele><time>2026-03-22T10:14:27.375Z</time></trkpt><trkpt lat="43.1348833" lon="13.18087"><ele>522.3333333333334</ele><time>2026-03-22T10:14:28.384Z</time></trkpt><trkpt lat="43.1349383" lon="13.1809617"><ele>524.0</ele><time>2026-03-22T10:14:29.385Z</time></trkpt><trkpt lat="43.1349933" lon="13.1810567"><ele>525.6666666666667</ele><time>2026-03-22T10:14:30.388Z</time></trkpt><trkpt lat="43.1350533" lon="13.1811467"><ele>527.3333333333334</ele><time>2026-03-22T10:14:31.384Z</time></trkpt><trkpt lat="43.1351017" lon="13.1812283"><ele>529.0</ele><time>2026-03-22T10:14:32.43Z</time></trkpt><trkpt lat="43.1351467" lon="13.1813183"><ele>522.4</ele><time>2026-03-22T10:14:33.384Z</time></trkpt><trkpt lat="43.13519" lon="13.181425"><ele>515.8</ele><time>2026-03-22T10:14:34.383Z</time></trkpt><trkpt lat="43.1352417" lon="13.1815633"><ele>509.20000000000005</ele><time>2026-03-22T10:14:35.383Z</time></trkpt><trkpt lat="43.1352817" lon="13.1817183"><ele>502.6</ele><time>2026-03-22T10:14:36.38Z</time></trkpt><trkpt lat="43.1353267" lon="13.18187"><ele>496.0</ele><time>2026-03-22T10:14:37.368Z</time></trkpt><trkpt lat="43.1353817" lon="13.1820017"><ele>496.0</ele><time>2026-03-22T10:14:38.403Z</time></trkpt><trkpt lat="43.1354383" lon="13.1821267"><ele>496.0</ele><time>2026-03-22T10:14:39.378Z</time></trkpt><trkpt lat="43.135495" lon="13.182255"><ele>496.0</ele><time>2026-03-22T10:14:40.381Z</time></trkpt><trkpt lat="43.1355467" lon="13.1823833"><ele>496.0</ele><time>2026-03-22T10:14:41.383Z</time></trkpt><trkpt lat="43.1355983" lon="13.182525"><ele>496.0</ele><time>2026-03-22T10:14:42.386Z</time></trkpt><trkpt lat="43.1356417" lon="13.1827"><ele>499.25</ele><time>2026-03-22T10:14:43.385Z</time></trkpt><trkpt lat="43.135685" lon="13.182865"><ele>502.5</ele><time>2026-03-22T10:14:44.405Z</time></trkpt><trkpt lat="43.13573" lon="13.183005"><ele>505.75</ele><time>2026-03-22T10:14:45.382Z</time></trkpt><trkpt lat="43.1357683" lon="13.1831383"><ele>509.0</ele><time>2026-03-22T10:14:46.382Z</time></trkpt><trkpt lat="43.1357967" lon="13.1832833"><ele>501.25</ele><time>2026-03-22T10:14:47.385Z</time></trkpt><trkpt lat="43.135825" lon="13.18346"><ele>493.5</ele><time>2026-03-22T10:14:48.379Z</time></trkpt><trkpt lat="43.1358433" lon="13.1836683"><ele>485.75</ele><time>2026-03-22T10:14:49.382Z</time></trkpt><trkpt lat="43.1358667" lon="13.1838817"><ele>478.0</ele><time>2026-03-22T10:14:50.399Z</time></trkpt><trkpt lat="43.13589" lon="13.1840733"><ele>478.0</ele><time>2026-03-22T10:14:51.379Z</time></trkpt><trkpt lat="43.135925" lon="13.18424"><ele>478.0</ele><time>2026-03-22T10:14:52.382Z</time></trkpt><trkpt lat="43.1359717" lon="13.184385"><ele>478.0</ele><time>2026-03-22T10:14:53.366Z</time></trkpt><trkpt lat="43.1360317" lon="13.1845217"><ele>478.0</ele><time>2026-03-22T10:14:54.387Z</time></trkpt><trkpt lat="43.1360983" lon="13.1846517"><ele>478.0</ele><time>2026-03-22T10:14:55.381Z</time></trkpt><trkpt lat="43.136155" lon="13.1847883"><ele>478.0</ele><time>2026-03-22T10:14:56.389Z</time></trkpt><trkpt lat="43.1362017" lon="13.18493"><ele>478.0</ele><time>2026-03-22T10:14:57.385Z</time></trkpt><trkpt lat="43.136255" lon="13.1850683"><ele>478.0</ele><time>2026-03-22T10:14:58.383Z</time></trkpt><trkpt lat="43.13631" lon="13.1852017"><ele>481.25</ele><time>2026-03-22T10:14:59.383Z</time></trkpt><trkpt lat="43.136375" lon="13.1853267"><ele>484.5</ele><time>2026-03-22T10:15:00.387Z</time></trkpt><trkpt lat="43.1364483" lon="13.18545"><ele>487.75</ele><time>2026-03-22T10:15:01.357Z</time></trkpt><trkpt lat="43.1365167" lon="13.18557"><ele>491.0</ele><time>2026-03-22T10:15:02.437Z</time></trkpt><trkpt lat="43.1365933" lon="13.1856817"><ele>480.25</ele><time>2026-03-22T10:15:03.377Z</time></trkpt><trkpt lat="43.1366633" lon="13.18579"><ele>469.5</ele><time>2026-03-22T10:15:04.384Z</time></trkpt><trkpt lat="43.1367317" lon="13.185905"><ele>458.75</ele><time>2026-03-22T10:15:05.382Z</time></trkpt><trkpt lat="43.1367967" lon="13.1860383"><ele>448.0</ele><time>2026-03-22T10:15:06.389Z</time></trkpt><trkpt lat="43.1368617" lon="13.1861783"><ele>448.0</ele><time>2026-03-22T10:15:07.382Z</time></trkpt><trkpt lat="43.13693" lon="13.18631"><ele>448.0</ele><time>2026-03-22T10:15:08.404Z</time></trkpt><trkpt lat="43.137005" lon="13.1864333"><ele>448.0</ele><time>2026-03-22T10:15:09.384Z</time></trkpt><trkpt lat="43.1370867" lon="13.1865533"><ele>448.0</ele><time>2026-03-22T10:15:10.379Z</time></trkpt><trkpt lat="43.1371633" lon="13.186675"><ele>451.25</ele><time>2026-03-22T10:15:11.382Z</time></trkpt><trkpt lat="43.13723" lon="13.1868017"><ele>454.5</ele><time>2026-03-22T10:15:12.384Z</time></trkpt><trkpt lat="43.1372867" lon="13.1869383"><ele>457.75</ele><time>2026-03-22T10:15:13.38Z</time></trkpt><trkpt lat="43.137335" lon="13.18708"><ele>461.0</ele><time>2026-03-22T10:15:14.398Z</time></trkpt><trkpt lat="43.137375" lon="13.18722"><ele>453.8</ele><time>2026-03-22T10:15:15.367Z</time></trkpt><trkpt lat="43.1374133" lon="13.1873467"><ele>446.6</ele><time>2026-03-22T10:15:16.357Z</time></trkpt><trkpt lat="43.137445" lon="13.1874517"><ele>439.4</ele><time>2026-03-22T10:15:17.387Z</time></trkpt><trkpt lat="43.1374783" lon="13.187575"><ele>432.2</ele><time>2026-03-22T10:15:19.387Z</time></trkpt><trkpt lat="43.1375317" lon="13.1874417"><ele>425.0</ele><time>2026-03-22T10:15:23.385Z</time></trkpt><trkpt lat="43.13754" lon="13.1873333"><ele>423.2</ele><time>2026-03-22T10:15:24.388Z</time></trkpt><trkpt lat="43.137525" lon="13.1872083"><ele>421.4</ele><time>2026-03-22T10:15:25.388Z</time></trkpt><trkpt lat="43.1374933" lon="13.1870817"><ele>419.6</ele><time>2026-03-22T10:15:26.432Z</time></trkpt><trkpt lat="43.1374617" lon="13.1869583"><ele>417.8</ele><time>2026-03-22T10:15:27.379Z</time></trkpt><trkpt lat="43.1374217" lon="13.1868383"><ele>416.0</ele><time>2026-03-22T10:15:28.384Z</time></trkpt><trkpt lat="43.1373783" lon="13.1867183"><ele>424.0</ele><time>2026-03-22T10:15:29.381Z</time></trkpt><trkpt lat="43.13733" lon="13.1865933"><ele>432.0</ele><time>2026-03-22T10:15:30.387Z</time></trkpt><trkpt lat="43.1372767" lon="13.18646"><ele>440.0</ele><time>2026-03-22T10:15:31.366Z</time></trkpt><trkpt lat="43.1372217" lon="13.1863117"><ele>448.0</ele><time>2026-03-22T10:15:32.415Z</time></trkpt><trkpt lat="43.1371817" lon="13.1861517"><ele>448.0</ele><time>2026-03-22T10:15:33.386Z</time></trkpt><trkpt lat="43.13714" lon="13.1859967"><ele>448.0</ele><time>2026-03-22T10:15:34.385Z</time></trkpt><trkpt lat="43.137095" lon="13.1858417"><ele>448.0</ele><time>2026-03-22T10:15:35.386Z</time></trkpt><trkpt lat="43.1370583" lon="13.18567"><ele>448.0</ele><time>2026-03-22T10:15:36.389Z</time></trkpt><trkpt lat="43.13703" lon="13.1854917"><ele>445.0</ele><time>2026-03-22T10:15:37.381Z</time></trkpt><trkpt lat="43.1370067" lon="13.185305"><ele>442.0</ele><time>2026-03-22T10:15:38.405Z</time></trkpt><trkpt lat="43.1369783" lon="13.1851217"><ele>439.0</ele><time>2026-03-22T10:15:39.383Z</time></trkpt><trkpt lat="43.1369467" lon="13.1849483"><ele>436.0</ele><time>2026-03-22T10:15:40.385Z</time></trkpt><trkpt lat="43.1369183" lon="13.184775"><ele>433.75</ele><time>2026-03-22T10:15:41.388Z</time></trkpt><trkpt lat="43.136905" lon="13.1846017"><ele>431.5</ele><time>2026-03-22T10:15:42.383Z</time></trkpt><trkpt lat="43.1368983" lon="13.1844283"><ele>429.25</ele><time>2026-03-22T10:15:43.381Z</time></trkpt><trkpt lat="43.1368933" lon="13.18425"><ele>427.0</ele><time>2026-03-22T10:15:44.379Z</time></trkpt><trkpt lat="43.1368817" lon="13.1840717"><ele>424.25</ele><time>2026-03-22T10:15:45.376Z</time></trkpt><trkpt lat="43.13687" lon="13.1838933"><ele>421.5</ele><time>2026-03-22T10:15:46.379Z</time></trkpt><trkpt lat="43.1368683" lon="13.1837167"><ele>418.75</ele><time>2026-03-22T10:15:47.384Z</time></trkpt><trkpt lat="43.1368667" lon="13.18354"><ele>416.0</ele><time>2026-03-22T10:15:48.386Z</time></trkpt><trkpt lat="43.1368617" lon="13.1833667"><ele>416.0</ele><time>2026-03-22T10:15:49.379Z</time></trkpt><trkpt lat="43.1368517" lon="13.1832"><ele>416.0</ele><time>2026-03-22T10:15:50.4Z</time></trkpt><trkpt lat="43.1368417" lon="13.183035"><ele>416.0</ele><time>2026-03-22T10:15:51.385Z</time></trkpt><trkpt lat="43.1368467" lon="13.1828817"><ele>416.0</ele><time>2026-03-22T10:15:52.383Z</time></trkpt><trkpt lat="43.1368583" lon="13.1827283"><ele>414.75</ele><time>2026-03-22T10:15:53.365Z</time></trkpt><trkpt lat="43.136865" lon="13.1825817"><ele>413.5</ele><time>2026-03-22T10:15:54.368Z</time></trkpt><trkpt lat="43.136865" lon="13.182425"><ele>412.25</ele><time>2026-03-22T10:15:55.359Z</time></trkpt><trkpt lat="43.1368583" lon="13.1822633"><ele>411.0</ele><time>2026-03-22T10:15:56.438Z</time></trkpt><trkpt lat="43.1368483" lon="13.1821067"><ele>409.5</ele><time>2026-03-22T10:15:57.376Z</time></trkpt><trkpt lat="43.13684" lon="13.181965"><ele>408.0</ele><time>2026-03-22T10:15:58.361Z</time></trkpt><trkpt lat="43.1368183" lon="13.1818383"><ele>406.5</ele><time>2026-03-22T10:15:59.383Z</time></trkpt><trkpt lat="43.1368033" lon="13.1817383"><ele>405.0</ele><time>2026-03-22T10:16:00.383Z</time></trkpt><trkpt lat="43.136755" lon="13.181655"><ele>403.5</ele><time>2026-03-22T10:16:01.385Z</time></trkpt><trkpt lat="43.13669" lon="13.181585"><ele>402.0</ele><time>2026-03-22T10:16:02.446Z</time></trkpt><trkpt lat="43.1366417" lon="13.1815083"><ele>398.40000000000003</ele><time>2026-03-22T10:16:03.388Z</time></trkpt><trkpt lat="43.136605" lon="13.1814333"><ele>394.8</ele><time>2026-03-22T10:16:04.381Z</time></trkpt><trkpt lat="43.136575" lon="13.1813283"><ele>391.2</ele><time>2026-03-22T10:16:05.382Z</time></trkpt><trkpt lat="43.1365333" lon="13.181205"><ele>387.6</ele><time>2026-03-22T10:16:06.387Z</time></trkpt><trkpt lat="43.1364817" lon="13.1810583"><ele>384.0</ele><time>2026-03-22T10:16:07.383Z</time></trkpt><trkpt lat="43.1364283" lon="13.1808967"><ele>392.25</ele><time>2026-03-22T10:16:08.401Z</time></trkpt><trkpt lat="43.1363683" lon="13.180735"><ele>400.5</ele><time>2026-03-22T10:16:09.37Z</time></trkpt><trkpt lat="43.13632" lon="13.1805733"><ele>408.75</ele><time>2026-03-22T10:16:10.359Z</time></trkpt><trkpt lat="43.1362833" lon="13.180415"><ele>417.0</ele><time>2026-03-22T10:16:11.386Z</time></trkpt><trkpt lat="43.1362583" lon="13.18026"><ele>417.0</ele><time>2026-03-22T10:16:12.386Z</time></trkpt><trkpt lat="43.1362333" lon="13.1801117"><ele>417.0</ele><time>2026-03-22T10:16:13.384Z</time></trkpt><trkpt lat="43.1362033" lon="13.1799633"><ele>417.0</ele><time>2026-03-22T10:16:14.407Z</time></trkpt><trkpt lat="43.1361767" lon="13.179815"><ele>417.0</ele><time>2026-03-22T10:16:15.387Z</time></trkpt><trkpt lat="43.1361533" lon="13.1796633"><ele>417.0</ele><time>2026-03-22T10:16:16.385Z</time></trkpt><trkpt lat="43.13613" lon="13.1795133"><ele>415.0</ele><time>2026-03-22T10:16:17.385Z</time></trkpt><trkpt lat="43.1361067" lon="13.17936"><ele>413.0</ele><time>2026-03-22T10:16:18.378Z</time></trkpt><trkpt lat="43.1360767" lon="13.1792117"><ele>411.0</ele><time>2026-03-22T10:16:19.383Z</time></trkpt><trkpt lat="43.1360417" lon="13.179075"><ele>409.0</ele><time>2026-03-22T10:16:20.404Z</time></trkpt><trkpt lat="43.136" lon="13.1789517"><ele>407.0</ele><time>2026-03-22T10:16:21.382Z</time></trkpt><trkpt lat="43.1359667" lon="13.17884"><ele>405.16666666666663</ele><time>2026-03-22T10:16:22.383Z</time></trkpt><trkpt lat="43.1359417" lon="13.1787417"><ele>403.3333333333333</ele><time>2026-03-22T10:16:23.38Z</time></trkpt><trkpt lat="43.13592" lon="13.178645"><ele>401.5</ele><time>2026-03-22T10:16:24.384Z</time></trkpt><trkpt lat="43.1359" lon="13.17855"><ele>399.66666666666663</ele><time>2026-03-22T10:16:25.386Z</time></trkpt><trkpt lat="43.1358783" lon="13.1784533"><ele>397.8333333333333</ele><time>2026-03-22T10:16:26.406Z</time></trkpt><trkpt lat="43.1358667" lon="13.1783633"><ele>396.0</ele><time>2026-03-22T10:16:27.366Z</time></trkpt><trkpt lat="43.1358533" lon="13.1781967"><ele>394.4</ele><time>2026-03-22T10:16:29.385Z</time></trkpt><trkpt lat="43.1358333" lon="13.17804"><ele>392.8</ele><time>2026-03-22T10:16:31.384Z</time></trkpt><trkpt lat="43.1358" lon="13.1779083"><ele>391.2</ele><time>2026-03-22T10:16:33.375Z</time></trkpt><trkpt lat="43.1357583" lon="13.1778267"><ele>389.59999999999997</ele><time>2026-03-22T10:16:35.36Z</time></trkpt><trkpt lat="43.1357367" lon="13.1777183"><ele>388.0</ele><time>2026-03-22T10:16:38.392Z</time></trkpt><trkpt lat="43.1357067" lon="13.1775783"><ele>393.00000000000006</ele><time>2026-03-22T10:16:40.373Z</time></trkpt><trkpt lat="43.1356883" lon="13.1774917"><ele>398.0</ele><time>2026-03-22T10:16:41.387Z</time></trkpt><trkpt lat="43.1356717" lon="13.17739"><ele>403.0</ele><time>2026-03-22T10:16:42.387Z</time></trkpt><trkpt lat="43.1356517" lon="13.1772683"><ele>408.0</ele><time>2026-03-22T10:16:43.384Z</time></trkpt><trkpt lat="43.1356283" lon="13.1771383"><ele>413.00000000000006</ele><time>2026-03-22T10:16:44.395Z</time></trkpt><trkpt lat="43.13561" lon="13.1769917"><ele>418.0</ele><time>2026-03-22T10:16:45.378Z</time></trkpt><trkpt lat="43.1355983" lon="13.1768383"><ele>418.00000000000006</ele><time>2026-03-22T10:16:46.381Z</time></trkpt><trkpt lat="43.135595" lon="13.1766983"><ele>418.0</ele><time>2026-03-22T10:16:47.387Z</time></trkpt><trkpt lat="43.1356017" lon="13.1765783"><ele>418.0</ele><time>2026-03-22T10:16:48.388Z</time></trkpt><trkpt lat="43.1356067" lon="13.17648"><ele>418.0</ele><time>2026-03-22T10:16:49.378Z</time></trkpt><trkpt lat="43.135605" lon="13.1763933"><ele>418.00000000000006</ele><time>2026-03-22T10:16:50.406Z</time></trkpt><trkpt lat="43.13559" lon="13.1762467"><ele>418.0</ele><time>2026-03-22T10:16:52.382Z</time></trkpt><trkpt lat="43.1355717" lon="13.176125"><ele>417.4</ele><time>2026-03-22T10:16:54.385Z</time></trkpt><trkpt lat="43.1355467" lon="13.1760233"><ele>416.79999999999995</ele><time>2026-03-22T10:16:56.427Z</time></trkpt><trkpt lat="43.1355233" lon="13.1759033"><ele>416.2</ele><time>2026-03-22T10:16:58.378Z</time></trkpt><trkpt lat="43.1354983" lon="13.17574"><ele>415.6</ele><time>2026-03-22T10:17:00.384Z</time></trkpt><trkpt lat="43.1354867" lon="13.17565"><ele>415.0</ele><time>2026-03-22T10:17:01.38Z</time></trkpt><trkpt lat="43.13547" lon="13.1754833"><ele>414.8</ele><time>2026-03-22T10:17:03.387Z</time></trkpt><trkpt lat="43.1354633" lon="13.1753933"><ele>414.6</ele><time>2026-03-22T10:17:04.385Z</time></trkpt><trkpt lat="43.1354367" lon="13.175235"><ele>414.4</ele><time>2026-03-22T10:17:06.376Z</time></trkpt><trkpt lat="43.1354117" lon="13.17506"><ele>414.2</ele><time>2026-03-22T10:17:08.403Z</time></trkpt><trkpt lat="43.1354017" lon="13.174955"><ele>414.0</ele><time>2026-03-22T10:17:09.384Z</time></trkpt><trkpt lat="43.135395" lon="13.174845"><ele>413.2</ele><time>2026-03-22T10:17:10.383Z</time></trkpt><trkpt lat="43.1354033" lon="13.1747417"><ele>412.4</ele><time>2026-03-22T10:17:11.376Z</time></trkpt><trkpt lat="43.1354233" lon="13.174655"><ele>411.6</ele><time>2026-03-22T10:17:12.385Z</time></trkpt><trkpt lat="43.13544" lon="13.1745133"><ele>410.8</ele><time>2026-03-22T10:17:14.394Z</time></trkpt><trkpt lat="43.135425" lon="13.17433"><ele>410.0</ele><time>2026-03-22T10:17:16.384Z</time></trkpt><trkpt lat="43.1354267" lon="13.174235"><ele>410.0</ele><time>2026-03-22T10:17:17.381Z</time></trkpt><trkpt lat="43.135445" lon="13.1740917"><ele>410.0</ele><time>2026-03-22T10:17:19.368Z</time></trkpt><trkpt lat="43.135445" lon="13.1739583"><ele>410.0</ele><time>2026-03-22T10:17:21.384Z</time></trkpt><trkpt lat="43.1354533" lon="13.1738017"><ele>410.0</ele><time>2026-03-22T10:17:23.374Z</time></trkpt><trkpt lat="43.13546" lon="13.1737083"><ele>410.0</ele><time>2026-03-22T10:17:24.386Z</time></trkpt><trkpt lat="43.13545" lon="13.1736067"><ele>407.49999999999994</ele><time>2026-03-22T10:17:25.381Z</time></trkpt><trkpt lat="43.1354283" lon="13.1735"><ele>405.0</ele><time>2026-03-22T10:17:26.445Z</time></trkpt><trkpt lat="43.1354083" lon="13.1733983"><ele>402.5</ele><time>2026-03-22T10:17:27.377Z</time></trkpt><trkpt lat="43.1353917" lon="13.1733133"><ele>400.0</ele><time>2026-03-22T10:17:28.386Z</time></trkpt><trkpt lat="43.13537" lon="13.1731633"><ele>397.49999999999994</ele><time>2026-03-22T10:17:30.383Z</time></trkpt><trkpt lat="43.1353383" lon="13.17305"><ele>395.0</ele><time>2026-03-22T10:17:32.36Z</time></trkpt><trkpt lat="43.1352717" lon="13.1729283"><ele>393.0</ele><time>2026-03-22T10:17:34.382Z</time></trkpt><trkpt lat="43.1352167" lon="13.1728567"><ele>391.0</ele><time>2026-03-22T10:17:35.383Z</time></trkpt><trkpt lat="43.1351467" lon="13.1727717"><ele>389.0</ele><time>2026-03-22T10:17:36.381Z</time></trkpt><trkpt lat="43.135065" lon="13.1726867"><ele>387.0</ele><time>2026-03-22T10:17:37.381Z</time></trkpt><trkpt lat="43.134995" lon="13.1726033"><ele>385.0</ele><time>2026-03-22T10:17:38.403Z</time></trkpt><trkpt lat="43.13491" lon="13.1725467"><ele>388.1666666666667</ele><time>2026-03-22T10:17:39.386Z</time></trkpt><trkpt lat="43.134825" lon="13.1725067"><ele>391.33333333333337</ele><time>2026-03-22T10:17:40.382Z</time></trkpt><trkpt lat="43.13474" lon="13.17248"><ele>394.5</ele><time>2026-03-22T10:17:41.381Z</time></trkpt><trkpt lat="43.1346733" lon="13.172445"><ele>397.66666666666663</ele><time>2026-03-22T10:17:42.382Z</time></trkpt><trkpt lat="43.1345883" lon="13.1723667"><ele>400.8333333333333</ele><time>2026-03-22T10:17:44.381Z</time></trkpt><trkpt lat="43.1345783" lon="13.172275"><ele>404.0</ele><time>2026-03-22T10:17:46.382Z</time></trkpt><trkpt lat="43.1346233" lon="13.1721633"><ele>405.49999999999994</ele><time>2026-03-22T10:17:48.386Z</time></trkpt><trkpt lat="43.1346783" lon="13.172095"><ele>407.0</ele><time>2026-03-22T10:17:49.379Z</time></trkpt><trkpt lat="43.1347333" lon="13.1720217"><ele>408.5</ele><time>2026-03-22T10:17:50.401Z</time></trkpt><trkpt lat="43.1348" lon="13.17193"><ele>410.0</ele><time>2026-03-22T10:17:51.386Z</time></trkpt><trkpt lat="43.134875" lon="13.1718517"><ele>411.49999999999994</ele><time>2026-03-22T10:17:52.38Z</time></trkpt><trkpt lat="43.1349467" lon="13.1717783"><ele>413.0</ele><time>2026-03-22T10:17:53.383Z</time></trkpt><trkpt lat="43.1350233" lon="13.1717133"><ele>414.59999999999997</ele><time>2026-03-22T10:17:54.375Z</time></trkpt><trkpt lat="43.1351117" lon="13.171665"><ele>416.2</ele><time>2026-03-22T10:17:55.386Z</time></trkpt><trkpt lat="43.1352167" lon="13.1716167"><ele>417.8</ele><time>2026-03-22T10:17:56.442Z</time></trkpt><trkpt lat="43.135335" lon="13.17157"><ele>419.4</ele><time>2026-03-22T10:17:57.377Z</time></trkpt><trkpt lat="43.1354483" lon="13.17153"><ele>421.0</ele><time>2026-03-22T10:17:58.381Z</time></trkpt><trkpt lat="43.1355517" lon="13.171475"><ele>421.0</ele><time>2026-03-22T10:17:59.386Z</time></trkpt><trkpt lat="43.1356333" lon="13.17142"><ele>421.0</ele><time>2026-03-22T10:18:00.392Z</time></trkpt><trkpt lat="43.1357" lon="13.1713467"><ele>421.0</ele><time>2026-03-22T10:18:01.382Z</time></trkpt><trkpt lat="43.1357617" lon="13.1712617"><ele>421.0</ele><time>2026-03-22T10:18:02.429Z</time></trkpt><trkpt lat="43.1358283" lon="13.1711683"><ele>421.0</ele><time>2026-03-22T10:18:03.378Z</time></trkpt><trkpt lat="43.1358883" lon="13.1710717"><ele>417.4</ele><time>2026-03-22T10:18:04.384Z</time></trkpt><trkpt lat="43.135925" lon="13.1709617"><ele>413.8</ele><time>2026-03-22T10:18:05.382Z</time></trkpt><trkpt lat="43.1359483" lon="13.1708433"><ele>410.2</ele><time>2026-03-22T10:18:06.386Z</time></trkpt><trkpt lat="43.1359583" lon="13.1707033"><ele>406.59999999999997</ele><time>2026-03-22T10:18:07.384Z</time></trkpt><trkpt lat="43.135965" lon="13.170545"><ele>403.0</ele><time>2026-03-22T10:18:08.404Z</time></trkpt><trkpt lat="43.13597" lon="13.1703867"><ele>403.0</ele><time>2026-03-22T10:18:09.383Z</time></trkpt><trkpt lat="43.135965" lon="13.170235"><ele>403.0</ele><time>2026-03-22T10:18:10.368Z</time></trkpt><trkpt lat="43.1359483" lon="13.170095"><ele>403.0</ele><time>2026-03-22T10:18:11.387Z</time></trkpt><trkpt lat="43.1359167" lon="13.1699667"><ele>403.0</ele><time>2026-03-22T10:18:12.387Z</time></trkpt><trkpt lat="43.1358633" lon="13.1698383"><ele>403.0</ele><time>2026-03-22T10:18:13.382Z</time></trkpt><trkpt lat="43.1358033" lon="13.1697067"><ele>402.25</ele><time>2026-03-22T10:18:14.379Z</time></trkpt><trkpt lat="43.1357283" lon="13.169555"><ele>401.5</ele><time>2026-03-22T10:18:15.369Z</time></trkpt><trkpt lat="43.1356567" lon="13.1693933"><ele>400.75</ele><time>2026-03-22T10:18:16.353Z</time></trkpt><trkpt lat="43.135595" lon="13.1692383"><ele>400.0</ele><time>2026-03-22T10:18:17.375Z</time></trkpt><trkpt lat="43.1355783" lon="13.169095"><ele>412.75</ele><time>2026-03-22T10:18:18.367Z</time></trkpt><trkpt lat="43.1355917" lon="13.1689517"><ele>425.5</ele><time>2026-03-22T10:18:19.38Z</time></trkpt><trkpt lat="43.1356267" lon="13.168805"><ele>438.25</ele><time>2026-03-22T10:18:20.393Z</time></trkpt><trkpt lat="43.135675" lon="13.1686567"><ele>451.0</ele><time>2026-03-22T10:18:21.373Z</time></trkpt><trkpt lat="43.1357167" lon="13.1685017"><ele>440.5</ele><time>2026-03-22T10:18:22.367Z</time></trkpt><trkpt lat="43.1357433" lon="13.168345"><ele>430.0</ele><time>2026-03-22T10:18:23.373Z</time></trkpt><trkpt lat="43.1357633" lon="13.1681783"><ele>419.5</ele><time>2026-03-22T10:18:24.378Z</time></trkpt><trkpt lat="43.1357783" lon="13.168005"><ele>409.0</ele><time>2026-03-22T10:18:25.376Z</time></trkpt><trkpt lat="43.135785" lon="13.16783"><ele>409.0</ele><time>2026-03-22T10:18:26.378Z</time></trkpt><trkpt lat="43.1357867" lon="13.167655"><ele>409.0</ele><time>2026-03-22T10:18:27.366Z</time></trkpt><trkpt lat="43.1357783" lon="13.16748"><ele>409.0</ele><time>2026-03-22T10:18:28.375Z</time></trkpt><trkpt lat="43.1357683" lon="13.1673067"><ele>409.0</ele><time>2026-03-22T10:18:29.375Z</time></trkpt><trkpt lat="43.1357483" lon="13.167135"><ele>409.0</ele><time>2026-03-22T10:18:30.375Z</time></trkpt><trkpt lat="43.1357383" lon="13.1669583"><ele>409.0</ele><time>2026-03-22T10:18:31.374Z</time></trkpt><trkpt lat="43.1357433" lon="13.166775"><ele>409.0</ele><time>2026-03-22T10:18:32.36Z</time></trkpt><trkpt lat="43.1357583" lon="13.166585"><ele>409.0</ele><time>2026-03-22T10:18:33.37Z</time></trkpt><trkpt lat="43.135775" lon="13.166405"><ele>408.79999999999995</ele><time>2026-03-22T10:18:34.361Z</time></trkpt><trkpt lat="43.1357833" lon="13.1662417"><ele>408.59999999999997</ele><time>2026-03-22T10:18:35.374Z</time></trkpt><trkpt lat="43.1357817" lon="13.1660867"><ele>408.4</ele><time>2026-03-22T10:18:36.375Z</time></trkpt><trkpt lat="43.1357717" lon="13.165945"><ele>408.2</ele><time>2026-03-22T10:18:37.377Z</time></trkpt><trkpt lat="43.1357667" lon="13.1658133"><ele>408.0</ele><time>2026-03-22T10:18:38.396Z</time></trkpt><trkpt lat="43.1357667" lon="13.165665"><ele>408.5</ele><time>2026-03-22T10:18:39.371Z</time></trkpt><trkpt lat="43.1357667" lon="13.1654967"><ele>409.0</ele><time>2026-03-22T10:18:40.376Z</time></trkpt><trkpt lat="43.13577" lon="13.16532"><ele>409.5</ele><time>2026-03-22T10:18:41.38Z</time></trkpt><trkpt lat="43.1357633" lon="13.1651333"><ele>410.0</ele><time>2026-03-22T10:18:42.377Z</time></trkpt><trkpt lat="43.1357517" lon="13.16494"><ele>410.5</ele><time>2026-03-22T10:18:43.368Z</time></trkpt><trkpt lat="43.1357433" lon="13.1647533"><ele>411.0</ele><time>2026-03-22T10:18:44.386Z</time></trkpt><trkpt lat="43.13574" lon="13.1645817"><ele>411.5</ele><time>2026-03-22T10:18:45.381Z</time></trkpt><trkpt lat="43.1357433" lon="13.1644233"><ele>412.0</ele><time>2026-03-22T10:18:46.373Z</time></trkpt><trkpt lat="43.13575" lon="13.1642767"><ele>412.0</ele><time>2026-03-22T10:18:47.38Z</time></trkpt><trkpt lat="43.1357667" lon="13.1641467"><ele>412.0</ele><time>2026-03-22T10:18:48.376Z</time></trkpt><trkpt lat="43.1357733" lon="13.1640233"><ele>412.0</ele><time>2026-03-22T10:18:49.376Z</time></trkpt><trkpt lat="43.1357733" lon="13.1639083"><ele>412.0</ele><time>2026-03-22T10:18:50.392Z</time></trkpt><trkpt lat="43.1357567" lon="13.163795"><ele>412.0</ele><time>2026-03-22T10:18:51.373Z</time></trkpt><trkpt lat="43.13572" lon="13.163675"><ele>416.40000000000003</ele><time>2026-03-22T10:18:52.375Z</time></trkpt><trkpt lat="43.1356717" lon="13.163555"><ele>420.8</ele><time>2026-03-22T10:18:53.373Z</time></trkpt><trkpt lat="43.13562" lon="13.1634483"><ele>425.2</ele><time>2026-03-22T10:18:54.379Z</time></trkpt><trkpt lat="43.1355433" lon="13.163375"><ele>429.6</ele><time>2026-03-22T10:18:55.379Z</time></trkpt><trkpt lat="43.13548" lon="13.16329"><ele>434.0</ele><time>2026-03-22T10:18:56.441Z</time></trkpt><trkpt lat="43.135425" lon="13.1631917"><ele>434.0</ele><time>2026-03-22T10:18:57.374Z</time></trkpt><trkpt lat="43.13539" lon="13.1630683"><ele>434.0</ele><time>2026-03-22T10:18:58.375Z</time></trkpt><trkpt lat="43.1353517" lon="13.1629467"><ele>434.0</ele><time>2026-03-22T10:18:59.375Z</time></trkpt><trkpt lat="43.1353033" lon="13.1628383"><ele>434.0</ele><time>2026-03-22T10:19:00.38Z</time></trkpt><trkpt lat="43.1352483" lon="13.1627467"><ele>434.0</ele><time>2026-03-22T10:19:01.374Z</time></trkpt><trkpt lat="43.1351833" lon="13.1626617"><ele>433.99999999999994</ele><time>2026-03-22T10:19:02.422Z</time></trkpt><trkpt lat="43.1351267" lon="13.1625667"><ele>434.0</ele><time>2026-03-22T10:19:03.372Z</time></trkpt><trkpt lat="43.1350833" lon="13.162465"><ele>434.0</ele><time>2026-03-22T10:19:04.374Z</time></trkpt><trkpt lat="43.1350367" lon="13.1623817"><ele>434.0</ele><time>2026-03-22T10:19:05.378Z</time></trkpt><trkpt lat="43.1349867" lon="13.162305"><ele>433.99999999999994</ele><time>2026-03-22T10:19:06.378Z</time></trkpt><trkpt lat="43.13493" lon="13.16223"><ele>434.0</ele><time>2026-03-22T10:19:07.381Z</time></trkpt><trkpt lat="43.1348583" lon="13.1621567"><ele>442.4</ele><time>2026-03-22T10:19:08.391Z</time></trkpt><trkpt lat="43.1347917" lon="13.1620717"><ele>450.79999999999995</ele><time>2026-03-22T10:19:09.378Z</time></trkpt><trkpt lat="43.13474" lon="13.161975"><ele>459.20000000000005</ele><time>2026-03-22T10:19:10.372Z</time></trkpt><trkpt lat="43.1346967" lon="13.1618617"><ele>467.6</ele><time>2026-03-22T10:19:11.375Z</time></trkpt><trkpt lat="43.13466" lon="13.1617383"><ele>476.0</ele><time>2026-03-22T10:19:12.375Z</time></trkpt><trkpt lat="43.1346217" lon="13.161605"><ele>471.0</ele><time>2026-03-22T10:19:13.375Z</time></trkpt><trkpt lat="43.1345817" lon="13.16147"><ele>466.0</ele><time>2026-03-22T10:19:14.392Z</time></trkpt><trkpt lat="43.134555" lon="13.1613367"><ele>461.0</ele><time>2026-03-22T10:19:15.373Z</time></trkpt><trkpt lat="43.13454" lon="13.1612133"><ele>456.0</ele><time>2026-03-22T10:19:16.373Z</time></trkpt><trkpt lat="43.1345183" lon="13.1611033"><ele>451.0</ele><time>2026-03-22T10:19:17.375Z</time></trkpt><trkpt lat="43.13449" lon="13.1610033"><ele>451.0</ele><time>2026-03-22T10:19:18.385Z</time></trkpt><trkpt lat="43.1344367" lon="13.160905"><ele>451.0</ele><time>2026-03-22T10:19:19.375Z</time></trkpt><trkpt lat="43.1343983" lon="13.1607983"><ele>451.0</ele><time>2026-03-22T10:19:20.393Z</time></trkpt><trkpt lat="43.1343633" lon="13.1606783"><ele>451.0</ele><time>2026-03-22T10:19:21.381Z</time></trkpt><trkpt lat="43.1343533" lon="13.1605433"><ele>451.0</ele><time>2026-03-22T10:19:22.377Z</time></trkpt><trkpt lat="43.134355" lon="13.1603983"><ele>448.5</ele><time>2026-03-22T10:19:23.374Z</time></trkpt><trkpt lat="43.1343683" lon="13.160235"><ele>446.0</ele><time>2026-03-22T10:19:24.374Z</time></trkpt><trkpt lat="43.1343733" lon="13.160065"><ele>443.5</ele><time>2026-03-22T10:19:25.378Z</time></trkpt><trkpt lat="43.1343733" lon="13.1598883"><ele>441.0</ele><time>2026-03-22T10:19:26.439Z</time></trkpt><trkpt lat="43.134365" lon="13.159705"><ele>440.20000000000005</ele><time>2026-03-22T10:19:27.372Z</time></trkpt><trkpt lat="43.134355" lon="13.15953"><ele>439.40000000000003</ele><time>2026-03-22T10:19:28.375Z</time></trkpt><trkpt lat="43.1343533" lon="13.159375"><ele>438.6</ele><time>2026-03-22T10:19:29.377Z</time></trkpt><trkpt lat="43.1343767" lon="13.1592417"><ele>437.8</ele><time>2026-03-22T10:19:30.376Z</time></trkpt><trkpt lat="43.13441" lon="13.1591433"><ele>437.0</ele><time>2026-03-22T10:19:31.365Z</time></trkpt><trkpt lat="43.1344617" lon="13.1590067"><ele>432.0</ele><time>2026-03-22T10:19:33.374Z</time></trkpt><trkpt lat="43.134505" lon="13.1588817"><ele>427.0</ele><time>2026-03-22T10:19:35.379Z</time></trkpt><trkpt lat="43.1345333" lon="13.158715"><ele>422.0</ele><time>2026-03-22T10:19:37.376Z</time></trkpt><trkpt lat="43.1345117" lon="13.158575"><ele>417.0</ele><time>2026-03-22T10:19:39.377Z</time></trkpt><trkpt lat="43.134405" lon="13.1585017"><ele>417.0</ele><time>2026-03-22T10:19:41.378Z</time></trkpt><trkpt lat="43.134315" lon="13.1584733"><ele>417.0</ele><time>2026-03-22T10:19:42.38Z</time></trkpt><trkpt lat="43.1342233" lon="13.158435"><ele>417.0</ele><time>2026-03-22T10:19:43.373Z</time></trkpt><trkpt lat="43.1341267" lon="13.1583867"><ele>417.0</ele><time>2026-03-22T10:19:44.392Z</time></trkpt><trkpt lat="43.1340317" lon="13.158325"><ele>417.0</ele><time>2026-03-22T10:19:45.375Z</time></trkpt><trkpt lat="43.13394" lon="13.1582567"><ele>421.8</ele><time>2026-03-22T10:19:46.373Z</time></trkpt><trkpt lat="43.1338633" lon="13.1581783"><ele>426.6</ele><time>2026-03-22T10:19:47.368Z</time></trkpt><trkpt lat="43.1338033" lon="13.1580933"><ele>431.40000000000003</ele><time>2026-03-22T10:19:48.382Z</time></trkpt><trkpt lat="43.1337533" lon="13.1580217"><ele>436.20000000000005</ele><time>2026-03-22T10:19:49.375Z</time></trkpt><trkpt lat="43.1336833" lon="13.15791"><ele>441.0</ele><time>2026-03-22T10:19:51.375Z</time></trkpt><trkpt lat="43.1338217" lon="13.157935"><ele>441.0</ele><time>2026-03-22T10:19:57.372Z</time></trkpt><trkpt lat="43.1339067" lon="13.157995"><ele>441.0</ele><time>2026-03-22T10:19:58.371Z</time></trkpt><trkpt lat="43.1339967" lon="13.1580533"><ele>441.0</ele><time>2026-03-22T10:19:59.378Z</time></trkpt><trkpt lat="43.1340833" lon="13.1581017"><ele>441.0</ele><time>2026-03-22T10:20:00.376Z</time></trkpt><trkpt lat="43.1341633" lon="13.158135"><ele>441.0</ele><time>2026-03-22T10:20:01.374Z</time></trkpt><trkpt lat="43.1342433" lon="13.1581533"><ele>431.8333333333333</ele><time>2026-03-22T10:20:02.423Z</time></trkpt><trkpt lat="43.1343167" lon="13.158155"><ele>422.66666666666663</ele><time>2026-03-22T10:20:03.376Z</time></trkpt><trkpt lat="43.1343917" lon="13.1581317"><ele>413.5</ele><time>2026-03-22T10:20:04.375Z</time></trkpt><trkpt lat="43.1344683" lon="13.1581017"><ele>404.3333333333333</ele><time>2026-03-22T10:20:05.377Z</time></trkpt><trkpt lat="43.1345483" lon="13.1580583"><ele>395.16666666666663</ele><time>2026-03-22T10:20:06.376Z</time></trkpt><trkpt lat="43.13463" lon="13.1580167"><ele>386.0</ele><time>2026-03-22T10:20:07.373Z</time></trkpt><trkpt lat="43.1347117" lon="13.15798"><ele>386.0</ele><time>2026-03-22T10:20:08.392Z</time></trkpt><trkpt lat="43.1347933" lon="13.1579417"><ele>386.0</ele><time>2026-03-22T10:20:09.375Z</time></trkpt><trkpt lat="43.134885" lon="13.15791"><ele>386.0</ele><time>2026-03-22T10:20:10.374Z</time></trkpt><trkpt lat="43.1349833" lon="13.1578883"><ele>386.0</ele><time>2026-03-22T10:20:11.362Z</time></trkpt><trkpt lat="43.1350767" lon="13.15787"><ele>386.0</ele><time>2026-03-22T10:20:12.359Z</time></trkpt><trkpt lat="43.1351633" lon="13.1578567"><ele>381.0</ele><time>2026-03-22T10:20:13.378Z</time></trkpt><trkpt lat="43.1352333" lon="13.1578467"><ele>376.0</ele><time>2026-03-22T10:20:14.383Z</time></trkpt><trkpt lat="43.1353317" lon="13.1578133"><ele>371.0</ele><time>2026-03-22T10:20:16.388Z</time></trkpt><trkpt lat="43.1354183" lon="13.1577867"><ele>366.0</ele><time>2026-03-22T10:20:18.368Z</time></trkpt><trkpt lat="43.135515" lon="13.1578467"><ele>361.0</ele><time>2026-03-22T10:20:20.394Z</time></trkpt><trkpt lat="43.135595" lon="13.1579617"><ele>361.0</ele><time>2026-03-22T10:20:22.373Z</time></trkpt><trkpt lat="43.1356583" lon="13.1580683"><ele>361.0</ele><time>2026-03-22T10:20:24.372Z</time></trkpt><trkpt lat="43.1357167" lon="13.158145"><ele>361.0</ele><time>2026-03-22T10:20:26.436Z</time></trkpt><trkpt lat="43.1357617" lon="13.1582117"><ele>361.0</ele><time>2026-03-22T10:20:28.357Z</time></trkpt><trkpt lat="43.135745" lon="13.15832"><ele>361.0</ele><time>2026-03-22T10:20:31.363Z</time></trkpt><trkpt lat="43.1357267" lon="13.1584317"><ele>361.0</ele><time>2026-03-22T10:20:34.373Z</time></trkpt><trkpt lat="43.13583" lon="13.1584633"><ele>360.20000000000005</ele><time>2026-03-22T10:20:37.373Z</time></trkpt><trkpt lat="43.1359383" lon="13.15845"><ele>359.40000000000003</ele><time>2026-03-22T10:20:39.377Z</time></trkpt><trkpt lat="43.13605" lon="13.1584067"><ele>358.6</ele><time>2026-03-22T10:20:41.377Z</time></trkpt><trkpt lat="43.1361417" lon="13.1583483"><ele>357.8</ele><time>2026-03-22T10:20:43.375Z</time></trkpt><trkpt lat="43.1362417" lon="13.1583533"><ele>357.0</ele><time>2026-03-22T10:20:45.361Z</time></trkpt><trkpt lat="43.13635" lon="13.1583917"><ele>357.0</ele><time>2026-03-22T10:20:47.378Z</time></trkpt><trkpt lat="43.1364117" lon="13.158415"><ele>357.0</ele><time>2026-03-22T10:20:48.377Z</time></trkpt><trkpt lat="43.13648" lon="13.1584433"><ele>357.0</ele><time>2026-03-22T10:20:49.372Z</time></trkpt><trkpt lat="43.1365467" lon="13.1584767"><ele>357.0</ele><time>2026-03-22T10:20:50.392Z</time></trkpt><trkpt lat="43.1366117" lon="13.1585083"><ele>357.0</ele><time>2026-03-22T10:20:51.374Z</time></trkpt><trkpt lat="43.136675" lon="13.1585317"><ele>357.0</ele><time>2026-03-22T10:20:52.368Z</time></trkpt><trkpt lat="43.1367617" lon="13.1585317"><ele>357.0</ele><time>2026-03-22T10:20:54.375Z</time></trkpt><trkpt lat="43.1368067" lon="13.1584617"><ele>351.0</ele><time>2026-03-22T10:20:56.361Z</time></trkpt><trkpt lat="43.136835" lon="13.1583383"><ele>345.0</ele><time>2026-03-22T10:20:58.376Z</time></trkpt><trkpt lat="43.1368783" lon="13.1582"><ele>339.0</ele><time>2026-03-22T10:21:00.374Z</time></trkpt><trkpt lat="43.1369533" lon="13.1581133"><ele>333.0</ele><time>2026-03-22T10:21:02.424Z</time></trkpt><trkpt lat="43.137055" lon="13.1581233"><ele>327.0</ele><time>2026-03-22T10:21:04.372Z</time></trkpt><trkpt lat="43.1371183" lon="13.1581717"><ele>327.0</ele><time>2026-03-22T10:21:05.376Z</time></trkpt><trkpt lat="43.1371767" lon="13.1582533"><ele>327.0</ele><time>2026-03-22T10:21:06.38Z</time></trkpt><trkpt lat="43.1372517" lon="13.1583783"><ele>327.0</ele><time>2026-03-22T10:21:07.375Z</time></trkpt><trkpt lat="43.1373233" lon="13.1585383"><ele>327.0</ele><time>2026-03-22T10:21:08.393Z</time></trkpt><trkpt lat="43.1374083" lon="13.1587167"><ele>324.0</ele><time>2026-03-22T10:21:09.369Z</time></trkpt><trkpt lat="43.1374917" lon="13.158875"><ele>321.0</ele><time>2026-03-22T10:21:10.374Z</time></trkpt><trkpt lat="43.137575" lon="13.159005"><ele>318.0</ele><time>2026-03-22T10:21:11.372Z</time></trkpt><trkpt lat="43.1376517" lon="13.159105"><ele>315.0</ele><time>2026-03-22T10:21:12.376Z</time></trkpt><trkpt lat="43.1377083" lon="13.1591583"><ele>312.0</ele><time>2026-03-22T10:21:13.378Z</time></trkpt><trkpt lat="43.1377467" lon="13.1592267"><ele>311.3333333333333</ele><time>2026-03-22T10:21:14.404Z</time></trkpt><trkpt lat="43.1377733" lon="13.1593233"><ele>310.6666666666667</ele><time>2026-03-22T10:21:15.375Z</time></trkpt><trkpt lat="43.1377883" lon="13.1594333"><ele>310.0</ele><time>2026-03-22T10:21:16.376Z</time></trkpt><trkpt lat="43.1378017" lon="13.1595533"><ele>309.33333333333337</ele><time>2026-03-22T10:21:17.373Z</time></trkpt><trkpt lat="43.1378117" lon="13.159675"><ele>308.6666666666667</ele><time>2026-03-22T10:21:18.37Z</time></trkpt><trkpt lat="43.13782" lon="13.1597933"><ele>308.0</ele><time>2026-03-22T10:21:19.369Z</time></trkpt><trkpt lat="43.1378317" lon="13.1598967"><ele>308.0</ele><time>2026-03-22T10:21:20.386Z</time></trkpt><trkpt lat="43.137845" lon="13.160005"><ele>308.0</ele><time>2026-03-22T10:21:21.372Z</time></trkpt><trkpt lat="43.1378483" lon="13.1601467"><ele>308.0</ele><time>2026-03-22T10:21:23.375Z</time></trkpt><trkpt lat="43.13795" lon="13.1601933"><ele>308.0</ele><time>2026-03-22T10:21:26.374Z</time></trkpt><trkpt lat="43.1380183" lon="13.1601717"><ele>308.0</ele><time>2026-03-22T10:21:27.375Z</time></trkpt><trkpt lat="43.1381033" lon="13.160145"><ele>308.0</ele><time>2026-03-22T10:21:29.363Z</time></trkpt><trkpt lat="43.1381667" lon="13.160125"><ele>308.33333333333337</ele><time>2026-03-22T10:21:31.373Z</time></trkpt><trkpt lat="43.13827" lon="13.1600683"><ele>308.6666666666667</ele><time>2026-03-22T10:21:33.371Z</time></trkpt><trkpt lat="43.1383317" lon="13.1600233"><ele>309.0</ele><time>2026-03-22T10:21:34.373Z</time></trkpt><trkpt lat="43.1384" lon="13.1599667"><ele>309.3333333333333</ele><time>2026-03-22T10:21:35.374Z</time></trkpt><trkpt lat="43.13847" lon="13.1598967"><ele>309.66666666666663</ele><time>2026-03-22T10:21:36.377Z</time></trkpt><trkpt lat="43.138535" lon="13.1598"><ele>310.0</ele><time>2026-03-22T10:21:37.371Z</time></trkpt><trkpt lat="43.1385983" lon="13.1596817"><ele>310.0</ele><time>2026-03-22T10:21:38.389Z</time></trkpt><trkpt lat="43.1386533" lon="13.1595483"><ele>310.0</ele><time>2026-03-22T10:21:39.37Z</time></trkpt><trkpt lat="43.1386967" lon="13.1594133"><ele>310.0</ele><time>2026-03-22T10:21:40.377Z</time></trkpt><trkpt lat="43.1387267" lon="13.1592767"><ele>310.0</ele><time>2026-03-22T10:21:41.372Z</time></trkpt><trkpt lat="43.138745" lon="13.15913"><ele>310.0</ele><time>2026-03-22T10:21:42.382Z</time></trkpt><trkpt lat="43.13874" lon="13.1589767"><ele>310.75</ele><time>2026-03-22T10:21:43.375Z</time></trkpt><trkpt lat="43.13871" lon="13.1588167"><ele>311.5</ele><time>2026-03-22T10:21:44.379Z</time></trkpt><trkpt lat="43.1386733" lon="13.15866"><ele>312.25</ele><time>2026-03-22T10:21:45.375Z</time></trkpt><trkpt lat="43.1386383" lon="13.1585167"><ele>313.0</ele><time>2026-03-22T10:21:46.37Z</time></trkpt><trkpt lat="43.1386083" lon="13.158385"><ele>313.0</ele><time>2026-03-22T10:21:47.371Z</time></trkpt><trkpt lat="43.1385767" lon="13.1582633"><ele>313.0</ele><time>2026-03-22T10:21:48.372Z</time></trkpt><trkpt lat="43.1385433" lon="13.158145"><ele>313.0</ele><time>2026-03-22T10:21:49.371Z</time></trkpt><trkpt lat="43.1385067" lon="13.1580383"><ele>313.0</ele><time>2026-03-22T10:21:50.388Z</time></trkpt><trkpt lat="43.138465" lon="13.1579467"><ele>313.0</ele><time>2026-03-22T10:21:51.372Z</time></trkpt><trkpt lat="43.13841" lon="13.157865"><ele>313.0</ele><time>2026-03-22T10:21:52.373Z</time></trkpt><trkpt lat="43.138345" lon="13.15779"><ele>313.4</ele><time>2026-03-22T10:21:53.371Z</time></trkpt><trkpt lat="43.13827" lon="13.1577233"><ele>313.8</ele><time>2026-03-22T10:21:54.372Z</time></trkpt><trkpt lat="43.138195" lon="13.1576517"><ele>314.2</ele><time>2026-03-22T10:21:55.375Z</time></trkpt><trkpt lat="43.1381183" lon="13.1575783"><ele>314.6</ele><time>2026-03-22T10:21:56.439Z</time></trkpt><trkpt lat="43.13804" lon="13.1574933"><ele>315.0</ele><time>2026-03-22T10:21:57.375Z</time></trkpt><trkpt lat="43.137955" lon="13.1574017"><ele>316.75</ele><time>2026-03-22T10:21:58.372Z</time></trkpt><trkpt lat="43.13787" lon="13.1572933"><ele>318.5</ele><time>2026-03-22T10:21:59.378Z</time></trkpt><trkpt lat="43.1377883" lon="13.1571617"><ele>320.25</ele><time>2026-03-22T10:22:00.378Z</time></trkpt><trkpt lat="43.1377167" lon="13.1570067"><ele>322.0</ele><time>2026-03-22T10:22:01.373Z</time></trkpt><trkpt lat="43.1376583" lon="13.1568233"><ele>322.0</ele><time>2026-03-22T10:22:02.418Z</time></trkpt><trkpt lat="43.1376183" lon="13.15663"><ele>322.0</ele><time>2026-03-22T10:22:03.375Z</time></trkpt><trkpt lat="43.1375867" lon="13.1564383"><ele>322.0</ele><time>2026-03-22T10:22:04.375Z</time></trkpt><trkpt lat="43.137575" lon="13.15625"><ele>322.0</ele><time>2026-03-22T10:22:05.374Z</time></trkpt><trkpt lat="43.1375733" lon="13.156075"><ele>322.75</ele><time>2026-03-22T10:22:06.368Z</time></trkpt><trkpt lat="43.1375733" lon="13.1559117"><ele>323.5</ele><time>2026-03-22T10:22:07.377Z</time></trkpt><trkpt lat="43.1375767" lon="13.1557517"><ele>324.25</ele><time>2026-03-22T10:22:08.392Z</time></trkpt><trkpt lat="43.1375767" lon="13.1555983"><ele>325.0</ele><time>2026-03-22T10:22:09.377Z</time></trkpt><trkpt lat="43.137575" lon="13.15545"><ele>325.0</ele><time>2026-03-22T10:22:10.374Z</time></trkpt><trkpt lat="43.13758" lon="13.1553033"><ele>325.0</ele><time>2026-03-22T10:22:11.378Z</time></trkpt><trkpt lat="43.1376017" lon="13.15516"><ele>325.0</ele><time>2026-03-22T10:22:12.377Z</time></trkpt><trkpt lat="43.1376433" lon="13.1550217"><ele>325.0</ele><time>2026-03-22T10:22:13.375Z</time></trkpt><trkpt lat="43.1377083" lon="13.15489"><ele>325.0</ele><time>2026-03-22T10:22:14.385Z</time></trkpt><trkpt lat="43.1377833" lon="13.1547633"><ele>324.5</ele><time>2026-03-22T10:22:15.375Z</time></trkpt><trkpt lat="43.1378583" lon="13.1546383"><ele>324.0</ele><time>2026-03-22T10:22:16.372Z</time></trkpt><trkpt lat="43.13792" lon="13.1545033"><ele>323.5</ele><time>2026-03-22T10:22:17.376Z</time></trkpt><trkpt lat="43.137965" lon="13.1543617"><ele>323.0</ele><time>2026-03-22T10:22:18.375Z</time></trkpt><trkpt lat="43.1380083" lon="13.1542233"><ele>323.0</ele><time>2026-03-22T10:22:19.368Z</time></trkpt><trkpt lat="43.1380617" lon="13.1540967"><ele>323.0</ele><time>2026-03-22T10:22:20.391Z</time></trkpt><trkpt lat="43.13813" lon="13.1539917"><ele>323.0</ele><time>2026-03-22T10:22:21.377Z</time></trkpt><trkpt lat="43.1382133" lon="13.1539217"><ele>323.0</ele><time>2026-03-22T10:22:22.382Z</time></trkpt><trkpt lat="43.13829" lon="13.153845"><ele>323.0</ele><time>2026-03-22T10:22:23.377Z</time></trkpt><trkpt lat="43.1383583" lon="13.1537517"><ele>323.79999999999995</ele><time>2026-03-22T10:22:24.376Z</time></trkpt><trkpt lat="43.1384083" lon="13.153645"><ele>324.6</ele><time>2026-03-22T10:22:25.376Z</time></trkpt><trkpt lat="43.13844" lon="13.1535233"><ele>325.4</ele><time>2026-03-22T10:22:26.433Z</time></trkpt><trkpt lat="43.1384467" lon="13.1534017"><ele>326.20000000000005</ele><time>2026-03-22T10:22:27.372Z</time></trkpt><trkpt lat="43.1384283" lon="13.1532783"><ele>327.0</ele><time>2026-03-22T10:22:28.374Z</time></trkpt><trkpt lat="43.1384083" lon="13.1531617"><ele>327.0</ele><time>2026-03-22T10:22:29.378Z</time></trkpt><trkpt lat="43.1383983" lon="13.1530533"><ele>327.0</ele><time>2026-03-22T10:22:30.378Z</time></trkpt><trkpt lat="43.1384083" lon="13.1529483"><ele>327.0</ele><time>2026-03-22T10:22:31.374Z</time></trkpt><trkpt lat="43.1384433" lon="13.152855"><ele>327.0</ele><time>2026-03-22T10:22:32.375Z</time></trkpt><trkpt lat="43.138505" lon="13.1527833"><ele>327.0</ele><time>2026-03-22T10:22:33.374Z</time></trkpt><trkpt lat="43.1385867" lon="13.1527217"><ele>327.0</ele><time>2026-03-22T10:22:34.372Z</time></trkpt><trkpt lat="43.1386667" lon="13.1526433"><ele>327.0</ele><time>2026-03-22T10:22:35.375Z</time></trkpt><trkpt lat="43.1387517" lon="13.1525433"><ele>327.0</ele><time>2026-03-22T10:22:36.377Z</time></trkpt><trkpt lat="43.1388267" lon="13.1524233"><ele>327.0</ele><time>2026-03-22T10:22:37.376Z</time></trkpt><trkpt lat="43.1388767" lon="13.1522683"><ele>327.0</ele><time>2026-03-22T10:22:38.382Z</time></trkpt><trkpt lat="43.1389083" lon="13.1521017"><ele>327.0</ele><time>2026-03-22T10:22:39.363Z</time></trkpt><trkpt lat="43.1389217" lon="13.151935"><ele>327.0</ele><time>2026-03-22T10:22:40.378Z</time></trkpt><trkpt lat="43.1389133" lon="13.1517733"><ele>327.0</ele><time>2026-03-22T10:22:41.377Z</time></trkpt><trkpt lat="43.1389067" lon="13.151625"><ele>327.0</ele><time>2026-03-22T10:22:42.379Z</time></trkpt><trkpt lat="43.138915" lon="13.1514767"><ele>329.5</ele><time>2026-03-22T10:22:43.378Z</time></trkpt><trkpt lat="43.1389533" lon="13.1513433"><ele>332.0</ele><time>2026-03-22T10:22:44.394Z</time></trkpt><trkpt lat="43.1390117" lon="13.1512117"><ele>334.5</ele><time>2026-03-22T10:22:45.374Z</time></trkpt><trkpt lat="43.139075" lon="13.1510733"><ele>337.0</ele><time>2026-03-22T10:22:46.367Z</time></trkpt><trkpt lat="43.1391283" lon="13.1509233"><ele>337.5</ele><time>2026-03-22T10:22:47.375Z</time></trkpt><trkpt lat="43.1391767" lon="13.1507633"><ele>338.0</ele><time>2026-03-22T10:22:48.375Z</time></trkpt><trkpt lat="43.1392133" lon="13.1505917"><ele>338.5</ele><time>2026-03-22T10:22:49.374Z</time></trkpt><trkpt lat="43.1392467" lon="13.1504117"><ele>339.0</ele><time>2026-03-22T10:22:50.386Z</time></trkpt><trkpt lat="43.1392833" lon="13.1502317"><ele>339.0</ele><time>2026-03-22T10:22:51.376Z</time></trkpt><trkpt lat="43.1393233" lon="13.1500483"><ele>339.0</ele><time>2026-03-22T10:22:52.376Z</time></trkpt><trkpt lat="43.13936" lon="13.1498617"><ele>339.0</ele><time>2026-03-22T10:22:53.378Z</time></trkpt><trkpt lat="43.13939" lon="13.1496767"><ele>339.0</ele><time>2026-03-22T10:22:54.377Z</time></trkpt><trkpt lat="43.1394217" lon="13.1494883"><ele>339.25</ele><time>2026-03-22T10:22:55.371Z</time></trkpt><trkpt lat="43.1394517" lon="13.1492967"><ele>339.5</ele><time>2026-03-22T10:22:56.37Z</time></trkpt><trkpt lat="43.139475" lon="13.149105"><ele>339.75</ele><time>2026-03-22T10:22:57.377Z</time></trkpt><trkpt lat="43.13949" lon="13.148905"><ele>340.0</ele><time>2026-03-22T10:22:58.382Z</time></trkpt><trkpt lat="43.139505" lon="13.1487067"><ele>341.5</ele><time>2026-03-22T10:22:59.375Z</time></trkpt><trkpt lat="43.1395283" lon="13.148515"><ele>343.0</ele><time>2026-03-22T10:23:00.385Z</time></trkpt><trkpt lat="43.1395667" lon="13.1483317"><ele>344.5</ele><time>2026-03-22T10:23:01.378Z</time></trkpt><trkpt lat="43.1396133" lon="13.148155"><ele>346.0</ele><time>2026-03-22T10:23:02.375Z</time></trkpt><trkpt lat="43.139665" lon="13.1479767"><ele>346.75</ele><time>2026-03-22T10:23:03.377Z</time></trkpt><trkpt lat="43.1397183" lon="13.1477967"><ele>347.5</ele><time>2026-03-22T10:23:04.373Z</time></trkpt><trkpt lat="43.1397633" lon="13.1476167"><ele>348.25</ele><time>2026-03-22T10:23:05.38Z</time></trkpt><trkpt lat="43.1398083" lon="13.1474467"><ele>349.0</ele><time>2026-03-22T10:23:06.379Z</time></trkpt><trkpt lat="43.1398667" lon="13.1472867"><ele>347.5</ele><time>2026-03-22T10:23:07.376Z</time></trkpt><trkpt lat="43.13994" lon="13.1471367"><ele>346.0</ele><time>2026-03-22T10:23:08.389Z</time></trkpt><trkpt lat="43.1400233" lon="13.1469983"><ele>344.5</ele><time>2026-03-22T10:23:09.376Z</time></trkpt><trkpt lat="43.1401167" lon="13.14687"><ele>343.0</ele><time>2026-03-22T10:23:10.373Z</time></trkpt><trkpt lat="43.14022" lon="13.14675"><ele>343.0</ele><time>2026-03-22T10:23:11.377Z</time></trkpt><trkpt lat="43.1403317" lon="13.146645"><ele>343.0</ele><time>2026-03-22T10:23:12.376Z</time></trkpt><trkpt lat="43.1404517" lon="13.146555"><ele>343.0</ele><time>2026-03-22T10:23:13.374Z</time></trkpt><trkpt lat="43.1405733" lon="13.1464833"><ele>343.0</ele><time>2026-03-22T10:23:14.371Z</time></trkpt><trkpt lat="43.140695" lon="13.1464283"><ele>343.2</ele><time>2026-03-22T10:23:15.359Z</time></trkpt><trkpt lat="43.1408183" lon="13.14637"><ele>343.4</ele><time>2026-03-22T10:23:16.381Z</time></trkpt><trkpt lat="43.14092" lon="13.1463017"><ele>343.59999999999997</ele><time>2026-03-22T10:23:17.382Z</time></trkpt><trkpt lat="43.1409883" lon="13.1462133"><ele>343.79999999999995</ele><time>2026-03-22T10:23:18.382Z</time></trkpt><trkpt lat="43.1410183" lon="13.1460983"><ele>344.0</ele><time>2026-03-22T10:23:19.387Z</time></trkpt><trkpt lat="43.141035" lon="13.1459783"><ele>344.0</ele><time>2026-03-22T10:23:20.393Z</time></trkpt><trkpt lat="43.14107" lon="13.1458683"><ele>344.0</ele><time>2026-03-22T10:23:21.394Z</time></trkpt><trkpt lat="43.14113" lon="13.145775"><ele>344.0</ele><time>2026-03-22T10:23:22.37Z</time></trkpt><trkpt lat="43.1412133" lon="13.1457"><ele>344.0</ele><time>2026-03-22T10:23:23.383Z</time></trkpt><trkpt lat="43.1413117" lon="13.1456417"><ele>344.0</ele><time>2026-03-22T10:23:24.382Z</time></trkpt><trkpt lat="43.141425" lon="13.1455867"><ele>346.25</ele><time>2026-03-22T10:23:25.387Z</time></trkpt><trkpt lat="43.1415417" lon="13.1455267"><ele>348.5</ele><time>2026-03-22T10:23:26.387Z</time></trkpt><trkpt lat="43.1416533" lon="13.1454633"><ele>350.75</ele><time>2026-03-22T10:23:27.383Z</time></trkpt><trkpt lat="43.14177" lon="13.1454"><ele>353.0</ele><time>2026-03-22T10:23:28.386Z</time></trkpt><trkpt lat="43.1418767" lon="13.14532"><ele>353.0</ele><time>2026-03-22T10:23:29.388Z</time></trkpt><trkpt lat="43.1419783" lon="13.1452283"><ele>353.0</ele><time>2026-03-22T10:23:30.383Z</time></trkpt><trkpt lat="43.1420733" lon="13.1451267"><ele>353.0</ele><time>2026-03-22T10:23:31.384Z</time></trkpt><trkpt lat="43.1421667" lon="13.1450167"><ele>353.0</ele><time>2026-03-22T10:23:32.384Z</time></trkpt><trkpt lat="43.1422483" lon="13.14489"><ele>355.0</ele><time>2026-03-22T10:23:33.382Z</time></trkpt><trkpt lat="43.1423167" lon="13.1447483"><ele>357.0</ele><time>2026-03-22T10:23:34.358Z</time></trkpt><trkpt lat="43.14237" lon="13.144595"><ele>359.0</ele><time>2026-03-22T10:23:35.381Z</time></trkpt><trkpt lat="43.1424167" lon="13.14444"><ele>361.0</ele><time>2026-03-22T10:23:36.388Z</time></trkpt><trkpt lat="43.1424633" lon="13.144285"><ele>361.0</ele><time>2026-03-22T10:23:37.386Z</time></trkpt><trkpt lat="43.1425167" lon="13.1441267"><ele>361.0</ele><time>2026-03-22T10:23:38.395Z</time></trkpt><trkpt lat="43.1425783" lon="13.1439733"><ele>361.0</ele><time>2026-03-22T10:23:39.383Z</time></trkpt><trkpt lat="43.1426417" lon="13.1438217"><ele>361.0</ele><time>2026-03-22T10:23:40.384Z</time></trkpt><trkpt lat="43.1427067" lon="13.1436767"><ele>362.0</ele><time>2026-03-22T10:23:41.385Z</time></trkpt><trkpt lat="43.1427767" lon="13.1435333"><ele>363.0</ele><time>2026-03-22T10:23:42.386Z</time></trkpt><trkpt lat="43.142855" lon="13.1433917"><ele>364.0</ele><time>2026-03-22T10:23:43.383Z</time></trkpt><trkpt lat="43.142945" lon="13.1432483"><ele>365.0</ele><time>2026-03-22T10:23:44.39Z</time></trkpt><trkpt lat="43.1430267" lon="13.1431033"><ele>365.75</ele><time>2026-03-22T10:23:45.383Z</time></trkpt><trkpt lat="43.1431017" lon="13.14295"><ele>366.5</ele><time>2026-03-22T10:23:46.385Z</time></trkpt><trkpt lat="43.14317" lon="13.142785"><ele>367.25</ele><time>2026-03-22T10:23:47.371Z</time></trkpt><trkpt lat="43.1432367" lon="13.1426117"><ele>368.0</ele><time>2026-03-22T10:23:48.359Z</time></trkpt><trkpt lat="43.1432967" lon="13.142435"><ele>368.5</ele><time>2026-03-22T10:23:49.378Z</time></trkpt><trkpt lat="43.1433567" lon="13.1422583"><ele>369.0</ele><time>2026-03-22T10:23:50.392Z</time></trkpt><trkpt lat="43.1434167" lon="13.1420833"><ele>369.5</ele><time>2026-03-22T10:23:51.383Z</time></trkpt><trkpt lat="43.14347" lon="13.141905"><ele>370.0</ele><time>2026-03-22T10:23:52.382Z</time></trkpt><trkpt lat="43.1435167" lon="13.14172"><ele>370.25</ele><time>2026-03-22T10:23:53.381Z</time></trkpt><trkpt lat="43.143555" lon="13.1415317"><ele>370.5</ele><time>2026-03-22T10:23:54.382Z</time></trkpt><trkpt lat="43.1435917" lon="13.14134"><ele>370.75</ele><time>2026-03-22T10:23:55.384Z</time></trkpt><trkpt lat="43.1436267" lon="13.14115"><ele>371.0</ele><time>2026-03-22T10:23:56.447Z</time></trkpt><trkpt lat="43.1436633" lon="13.1409667"><ele>371.0</ele><time>2026-03-22T10:23:57.379Z</time></trkpt><trkpt lat="43.1437017" lon="13.1407883"><ele>371.0</ele><time>2026-03-22T10:23:58.386Z</time></trkpt><trkpt lat="43.14374" lon="13.1406083"><ele>371.0</ele><time>2026-03-22T10:23:59.387Z</time></trkpt><trkpt lat="43.14378" lon="13.1404233"><ele>371.0</ele><time>2026-03-22T10:24:00.384Z</time></trkpt><trkpt lat="43.14381" lon="13.14024"><ele>373.25</ele><time>2026-03-22T10:24:01.381Z</time></trkpt><trkpt lat="43.1438417" lon="13.1400667"><ele>375.5</ele><time>2026-03-22T10:24:02.425Z</time></trkpt><trkpt lat="43.1438917" lon="13.1399067"><ele>377.75</ele><time>2026-03-22T10:24:03.384Z</time></trkpt><trkpt lat="43.1439667" lon="13.139755"><ele>380.0</ele><time>2026-03-22T10:24:04.383Z</time></trkpt><trkpt lat="43.144045" lon="13.1396"><ele>380.5</ele><time>2026-03-22T10:24:05.385Z</time></trkpt><trkpt lat="43.14412" lon="13.1394383"><ele>381.0</ele><time>2026-03-22T10:24:06.386Z</time></trkpt><trkpt lat="43.144195" lon="13.139275"><ele>381.5</ele><time>2026-03-22T10:24:07.385Z</time></trkpt><trkpt lat="43.1442617" lon="13.1391033"><ele>382.0</ele><time>2026-03-22T10:24:08.397Z</time></trkpt><trkpt lat="43.1443217" lon="13.1389233"><ele>382.5</ele><time>2026-03-22T10:24:09.38Z</time></trkpt><trkpt lat="43.1443767" lon="13.1387417"><ele>383.0</ele><time>2026-03-22T10:24:10.381Z</time></trkpt><trkpt lat="43.1444233" lon="13.1385583"><ele>383.5</ele><time>2026-03-22T10:24:11.384Z</time></trkpt><trkpt lat="43.1444667" lon="13.1383733"><ele>384.0</ele><time>2026-03-22T10:24:12.383Z</time></trkpt><trkpt lat="43.1445067" lon="13.1381817"><ele>385.5</ele><time>2026-03-22T10:24:13.366Z</time></trkpt><trkpt lat="43.1445433" lon="13.1379883"><ele>387.0</ele><time>2026-03-22T10:24:14.392Z</time></trkpt><trkpt lat="43.144575" lon="13.1377883"><ele>388.5</ele><time>2026-03-22T10:24:15.385Z</time></trkpt><trkpt lat="43.1446017" lon="13.1375883"><ele>390.0</ele><time>2026-03-22T10:24:16.385Z</time></trkpt><trkpt lat="43.14463" lon="13.1373917"><ele>391.0</ele><time>2026-03-22T10:24:17.387Z</time></trkpt><trkpt lat="43.1446567" lon="13.1372033"><ele>392.0</ele><time>2026-03-22T10:24:18.383Z</time></trkpt><trkpt lat="43.1446833" lon="13.1370183"><ele>393.0</ele><time>2026-03-22T10:24:19.386Z</time></trkpt><trkpt lat="43.144705" lon="13.1368333"><ele>394.0</ele><time>2026-03-22T10:24:20.394Z</time></trkpt><trkpt lat="43.14472" lon="13.1366467"><ele>396.0</ele><time>2026-03-22T10:24:21.381Z</time></trkpt><trkpt lat="43.1447233" lon="13.1364567"><ele>398.0</ele><time>2026-03-22T10:24:22.387Z</time></trkpt><trkpt lat="43.1447183" lon="13.136265"><ele>400.0</ele><time>2026-03-22T10:24:23.385Z</time></trkpt><trkpt lat="43.1447083" lon="13.1360783"><ele>402.0</ele><time>2026-03-22T10:24:24.381Z</time></trkpt><trkpt lat="43.144695" lon="13.1359017"><ele>402.0</ele><time>2026-03-22T10:24:25.386Z</time></trkpt><trkpt lat="43.1446767" lon="13.1357317"><ele>402.0</ele><time>2026-03-22T10:24:26.445Z</time></trkpt><trkpt lat="43.144665" lon="13.13556"><ele>402.0</ele><time>2026-03-22T10:24:27.379Z</time></trkpt><trkpt lat="43.1446617" lon="13.135395"><ele>402.0</ele><time>2026-03-22T10:24:28.383Z</time></trkpt><trkpt lat="43.1446733" lon="13.1352367"><ele>403.75</ele><time>2026-03-22T10:24:29.385Z</time></trkpt><trkpt lat="43.1447017" lon="13.1350867"><ele>405.5</ele><time>2026-03-22T10:24:30.39Z</time></trkpt><trkpt lat="43.1447533" lon="13.134945"><ele>407.25</ele><time>2026-03-22T10:24:31.382Z</time></trkpt><trkpt lat="43.14482" lon="13.1348017"><ele>409.0</ele><time>2026-03-22T10:24:32.445Z</time></trkpt><trkpt lat="43.14489" lon="13.13465"><ele>405.25</ele><time>2026-03-22T10:24:33.377Z</time></trkpt><trkpt lat="43.1449483" lon="13.134485"><ele>401.5</ele><time>2026-03-22T10:24:34.365Z</time></trkpt><trkpt lat="43.14499" lon="13.1343267"><ele>397.75</ele><time>2026-03-22T10:24:35.378Z</time></trkpt><trkpt lat="43.1450233" lon="13.1341883"><ele>394.0</ele><time>2026-03-22T10:24:36.383Z</time></trkpt><trkpt lat="43.145045" lon="13.1340733"><ele>394.00000000000006</ele><time>2026-03-22T10:24:37.384Z</time></trkpt><trkpt lat="43.14506" lon="13.1339817"><ele>394.0</ele><time>2026-03-22T10:24:38.379Z</time></trkpt><trkpt lat="43.1451233" lon="13.1339717"><ele>394.0</ele><time>2026-03-22T10:24:45.375Z</time></trkpt><trkpt lat="43.1451483" lon="13.1340683"><ele>394.0</ele><time>2026-03-22T10:24:47.374Z</time></trkpt><trkpt lat="43.1452033" lon="13.134135"><ele>394.00000000000006</ele><time>2026-03-22T10:24:49.376Z</time></trkpt><trkpt lat="43.14529" lon="13.1341583"><ele>394.0</ele><time>2026-03-22T10:24:51.368Z</time></trkpt><trkpt lat="43.145405" lon="13.1341617"><ele>394.0</ele><time>2026-03-22T10:24:53.383Z</time></trkpt><trkpt lat="43.1454733" lon="13.13417"><ele>394.0</ele><time>2026-03-22T10:24:54.373Z</time></trkpt><trkpt lat="43.1455433" lon="13.134185"><ele>394.0</ele><time>2026-03-22T10:24:55.386Z</time></trkpt><trkpt lat="43.1456217" lon="13.134215"><ele>394.0</ele><time>2026-03-22T10:24:56.45Z</time></trkpt><trkpt lat="43.1456933" lon="13.13424"><ele>394.0</ele><time>2026-03-22T10:24:57.379Z</time></trkpt><trkpt lat="43.1457617" lon="13.134245"><ele>394.0</ele><time>2026-03-22T10:24:58.386Z</time></trkpt><trkpt lat="43.1458267" lon="13.1342217"><ele>394.0</ele><time>2026-03-22T10:24:59.385Z</time></trkpt><trkpt lat="43.1458783" lon="13.1341633"><ele>395.33333333333337</ele><time>2026-03-22T10:25:00.384Z</time></trkpt><trkpt lat="43.1459383" lon="13.134115"><ele>396.6666666666667</ele><time>2026-03-22T10:25:01.366Z</time></trkpt><trkpt lat="43.1460083" lon="13.1340583"><ele>398.0</ele><time>2026-03-22T10:25:02.387Z</time></trkpt><trkpt lat="43.146075" lon="13.1340067"><ele>399.33333333333337</ele><time>2026-03-22T10:25:03.385Z</time></trkpt><trkpt lat="43.14613" lon="13.133945"><ele>400.6666666666667</ele><time>2026-03-22T10:25:04.382Z</time></trkpt><trkpt lat="43.146175" lon="13.1338667"><ele>402.0</ele><time>2026-03-22T10:25:05.382Z</time></trkpt><trkpt lat="43.1462017" lon="13.133765"><ele>402.0</ele><time>2026-03-22T10:25:06.382Z</time></trkpt><trkpt lat="43.14624" lon="13.13368"><ele>402.0</ele><time>2026-03-22T10:25:07.378Z</time></trkpt><trkpt lat="43.14628" lon="13.1336117"><ele>402.0</ele><time>2026-03-22T10:25:08.387Z</time></trkpt><trkpt lat="43.1464" lon="13.1335267"><ele>402.0</ele><time>2026-03-22T10:25:10.384Z</time></trkpt><trkpt lat="43.1464667" lon="13.1334983"><ele>402.0</ele><time>2026-03-22T10:25:11.383Z</time></trkpt><trkpt lat="43.1465833" lon="13.13348"><ele>404.5</ele><time>2026-03-22T10:25:13.37Z</time></trkpt><trkpt lat="43.1466267" lon="13.1335817"><ele>407.0</ele><time>2026-03-22T10:25:15.368Z</time></trkpt><trkpt lat="43.1466083" lon="13.1336867"><ele>409.5</ele><time>2026-03-22T10:25:16.385Z</time></trkpt><trkpt lat="43.1465767" lon="13.1338083"><ele>412.0</ele><time>2026-03-22T10:25:17.383Z</time></trkpt><trkpt lat="43.1465517" lon="13.1339417"><ele>414.5</ele><time>2026-03-22T10:25:18.386Z</time></trkpt><trkpt lat="43.14654" lon="13.1340633"><ele>417.0</ele><time>2026-03-22T10:25:19.386Z</time></trkpt><trkpt lat="43.146545" lon="13.1341817"><ele>417.0</ele><time>2026-03-22T10:25:20.39Z</time></trkpt><trkpt lat="43.1465483" lon="13.134305"><ele>417.0</ele><time>2026-03-22T10:25:21.383Z</time></trkpt><trkpt lat="43.1465483" lon="13.13444"><ele>417.0</ele><time>2026-03-22T10:25:22.371Z</time></trkpt><trkpt lat="43.14655" lon="13.1345833"><ele>417.0</ele><time>2026-03-22T10:25:23.384Z</time></trkpt><trkpt lat="43.14654" lon="13.1347167"><ele>417.0</ele><time>2026-03-22T10:25:24.382Z</time></trkpt><trkpt lat="43.14653" lon="13.1348467"><ele>419.6666666666667</ele><time>2026-03-22T10:25:25.384Z</time></trkpt><trkpt lat="43.1465183" lon="13.1349817"><ele>422.33333333333337</ele><time>2026-03-22T10:25:26.385Z</time></trkpt><trkpt lat="43.1465033" lon="13.1351083"><ele>425.0</ele><time>2026-03-22T10:25:27.363Z</time></trkpt><trkpt lat="43.1464867" lon="13.1352167"><ele>427.6666666666667</ele><time>2026-03-22T10:25:28.383Z</time></trkpt><trkpt lat="43.1464633" lon="13.1353067"><ele>430.33333333333337</ele><time>2026-03-22T10:25:29.381Z</time></trkpt><trkpt lat="43.146445" lon="13.1354"><ele>433.0</ele><time>2026-03-22T10:25:30.377Z</time></trkpt><trkpt lat="43.146435" lon="13.1354983"><ele>433.00000000000006</ele><time>2026-03-22T10:25:31.382Z</time></trkpt><trkpt lat="43.1464283" lon="13.1356083"><ele>433.0</ele><time>2026-03-22T10:25:32.385Z</time></trkpt><trkpt lat="43.1464267" lon="13.1357217"><ele>433.0</ele><time>2026-03-22T10:25:33.384Z</time></trkpt><trkpt lat="43.1464317" lon="13.135835"><ele>433.0</ele><time>2026-03-22T10:25:34.378Z</time></trkpt><trkpt lat="43.14644" lon="13.13595"><ele>433.00000000000006</ele><time>2026-03-22T10:25:35.386Z</time></trkpt><trkpt lat="43.1464517" lon="13.1360667"><ele>433.0</ele><time>2026-03-22T10:25:36.389Z</time></trkpt><trkpt lat="43.146465" lon="13.1361933"><ele>434.83333333333337</ele><time>2026-03-22T10:25:37.382Z</time></trkpt><trkpt lat="43.1464733" lon="13.136325"><ele>436.6666666666667</ele><time>2026-03-22T10:25:38.397Z</time></trkpt><trkpt lat="43.1464867" lon="13.13645"><ele>438.5</ele><time>2026-03-22T10:25:39.372Z</time></trkpt><trkpt lat="43.1464967" lon="13.13656"><ele>440.33333333333337</ele><time>2026-03-22T10:25:40.382Z</time></trkpt><trkpt lat="43.1465117" lon="13.136675"><ele>442.1666666666667</ele><time>2026-03-22T10:25:41.383Z</time></trkpt><trkpt lat="43.14652" lon="13.1367933"><ele>444.0</ele><time>2026-03-22T10:25:42.385Z</time></trkpt><trkpt lat="43.14653" lon="13.1369067"><ele>444.8333333333333</ele><time>2026-03-22T10:25:43.381Z</time></trkpt><trkpt lat="43.1465417" lon="13.137015"><ele>445.66666666666663</ele><time>2026-03-22T10:25:44.402Z</time></trkpt><trkpt lat="43.1465567" lon="13.137125"><ele>446.5</ele><time>2026-03-22T10:25:45.383Z</time></trkpt><trkpt lat="43.1465767" lon="13.1372483"><ele>447.3333333333333</ele><time>2026-03-22T10:25:46.383Z</time></trkpt><trkpt lat="43.1466017" lon="13.137375"><ele>448.16666666666663</ele><time>2026-03-22T10:25:47.382Z</time></trkpt><trkpt lat="43.14663" lon="13.1374983"><ele>449.0</ele><time>2026-03-22T10:25:48.385Z</time></trkpt><trkpt lat="43.1466583" lon="13.1376183"><ele>455.4</ele><time>2026-03-22T10:25:49.384Z</time></trkpt><trkpt lat="43.1466867" lon="13.13774"><ele>461.79999999999995</ele><time>2026-03-22T10:25:50.401Z</time></trkpt><trkpt lat="43.1467133" lon="13.1378683"><ele>468.20000000000005</ele><time>2026-03-22T10:25:51.371Z</time></trkpt><trkpt lat="43.1467383" lon="13.1380083"><ele>474.6</ele><time>2026-03-22T10:25:52.384Z</time></trkpt><trkpt lat="43.14677" lon="13.1381633"><ele>481.0</ele><time>2026-03-22T10:25:53.383Z</time></trkpt><trkpt lat="43.1468017" lon="13.1383167"><ele>483.0</ele><time>2026-03-22T10:25:54.388Z</time></trkpt><trkpt lat="43.1468317" lon="13.1384683"><ele>485.0</ele><time>2026-03-22T10:25:55.371Z</time></trkpt><trkpt lat="43.1468483" lon="13.13862"><ele>487.0</ele><time>2026-03-22T10:25:56.406Z</time></trkpt><trkpt lat="43.14685" lon="13.1387683"><ele>489.0</ele><time>2026-03-22T10:25:57.386Z</time></trkpt><trkpt lat="43.146835" lon="13.1389283"><ele>491.75</ele><time>2026-03-22T10:25:58.386Z</time></trkpt><trkpt lat="43.1468117" lon="13.1391067"><ele>494.5</ele><time>2026-03-22T10:25:59.386Z</time></trkpt><trkpt lat="43.1467817" lon="13.139285"><ele>497.25</ele><time>2026-03-22T10:26:00.385Z</time></trkpt><trkpt lat="43.1467433" lon="13.139445"><ele>500.0</ele><time>2026-03-22T10:26:01.382Z</time></trkpt><trkpt lat="43.1466917" lon="13.1395833"><ele>500.0</ele><time>2026-03-22T10:26:02.412Z</time></trkpt><trkpt lat="43.14664" lon="13.1396983"><ele>500.0</ele><time>2026-03-22T10:26:03.371Z</time></trkpt><trkpt lat="43.146605" lon="13.139815"><ele>500.0</ele><time>2026-03-22T10:26:04.38Z</time></trkpt><trkpt lat="43.1465767" lon="13.1399467"><ele>500.0</ele><time>2026-03-22T10:26:05.385Z</time></trkpt><trkpt lat="43.1465467" lon="13.140095"><ele>500.0</ele><time>2026-03-22T10:26:06.382Z</time></trkpt><trkpt lat="43.1465217" lon="13.1402583"><ele>496.0</ele><time>2026-03-22T10:26:07.384Z</time></trkpt><trkpt lat="43.1464983" lon="13.1404283"><ele>492.0</ele><time>2026-03-22T10:26:08.398Z</time></trkpt><trkpt lat="43.1464817" lon="13.140605"><ele>488.0</ele><time>2026-03-22T10:26:09.382Z</time></trkpt><trkpt lat="43.1464717" lon="13.140785"><ele>484.0</ele><time>2026-03-22T10:26:10.382Z</time></trkpt><trkpt lat="43.1464683" lon="13.140965"><ele>484.0</ele><time>2026-03-22T10:26:11.384Z</time></trkpt><trkpt lat="43.146465" lon="13.14113"><ele>484.0</ele><time>2026-03-22T10:26:12.386Z</time></trkpt><trkpt lat="43.1464783" lon="13.141275"><ele>484.0</ele><time>2026-03-22T10:26:13.381Z</time></trkpt><trkpt lat="43.1465033" lon="13.1413917"><ele>484.0</ele><time>2026-03-22T10:26:14.398Z</time></trkpt><trkpt lat="43.14655" lon="13.141505"><ele>484.0</ele><time>2026-03-22T10:26:15.381Z</time></trkpt><trkpt lat="43.1465983" lon="13.141625"><ele>496.5</ele><time>2026-03-22T10:26:16.379Z</time></trkpt><trkpt lat="43.1466467" lon="13.1417583"><ele>509.0</ele><time>2026-03-22T10:26:17.388Z</time></trkpt><trkpt lat="43.1466833" lon="13.1419067"><ele>521.5</ele><time>2026-03-22T10:26:18.382Z</time></trkpt><trkpt lat="43.1467167" lon="13.142065"><ele>534.0</ele><time>2026-03-22T10:26:19.384Z</time></trkpt><trkpt lat="43.1467467" lon="13.142215"><ele>534.0</ele><time>2026-03-22T10:26:20.389Z</time></trkpt><trkpt lat="43.1467733" lon="13.14233"><ele>534.0</ele><time>2026-03-22T10:26:21.374Z</time></trkpt><trkpt lat="43.1467767" lon="13.1424933"><ele>534.0</ele><time>2026-03-22T10:26:23.387Z</time></trkpt><trkpt lat="43.1467733" lon="13.1425917"><ele>534.0</ele><time>2026-03-22T10:26:24.389Z</time></trkpt><trkpt lat="43.146765" lon="13.142715"><ele>534.0</ele><time>2026-03-22T10:26:25.372Z</time></trkpt><trkpt lat="43.1467517" lon="13.1428583"><ele>535.75</ele><time>2026-03-22T10:26:26.432Z</time></trkpt><trkpt lat="43.14673" lon="13.14302"><ele>537.5</ele><time>2026-03-22T10:26:27.385Z</time></trkpt><trkpt lat="43.1467067" lon="13.1431933"><ele>539.25</ele><time>2026-03-22T10:26:28.386Z</time></trkpt><trkpt lat="43.1466867" lon="13.1433767"><ele>541.0</ele><time>2026-03-22T10:26:29.387Z</time></trkpt><trkpt lat="43.146675" lon="13.143555"><ele>543.25</ele><time>2026-03-22T10:26:30.383Z</time></trkpt><trkpt lat="43.146655" lon="13.1437317"><ele>545.5</ele><time>2026-03-22T10:26:31.387Z</time></trkpt><trkpt lat="43.1466317" lon="13.143895"><ele>547.75</ele><time>2026-03-22T10:26:32.424Z</time></trkpt><trkpt lat="43.14661" lon="13.1440417"><ele>550.0</ele><time>2026-03-22T10:26:33.38Z</time></trkpt><trkpt lat="43.1465967" lon="13.14418"><ele>551.1666666666667</ele><time>2026-03-22T10:26:34.384Z</time></trkpt><trkpt lat="43.1465817" lon="13.1443033"><ele>552.3333333333334</ele><time>2026-03-22T10:26:35.387Z</time></trkpt><trkpt lat="43.1465683" lon="13.1444133"><ele>553.5</ele><time>2026-03-22T10:26:36.386Z</time></trkpt><trkpt lat="43.1465583" lon="13.14452"><ele>554.6666666666666</ele><time>2026-03-22T10:26:37.385Z</time></trkpt><trkpt lat="43.1465517" lon="13.1446317"><ele>555.8333333333333</ele><time>2026-03-22T10:26:38.376Z</time></trkpt><trkpt lat="43.1465467" lon="13.1447483"><ele>557.0</ele><time>2026-03-22T10:26:39.375Z</time></trkpt><trkpt lat="43.1465433" lon="13.1448683"><ele>549.8333333333333</ele><time>2026-03-22T10:26:40.384Z</time></trkpt><trkpt lat="43.14654" lon="13.14499"><ele>542.6666666666666</ele><time>2026-03-22T10:26:41.386Z</time></trkpt><trkpt lat="43.14653" lon="13.145115"><ele>535.5</ele><time>2026-03-22T10:26:42.377Z</time></trkpt><trkpt lat="43.146515" lon="13.1452383"><ele>528.3333333333334</ele><time>2026-03-22T10:26:43.379Z</time></trkpt><trkpt lat="43.146505" lon="13.14536"><ele>521.1666666666667</ele><time>2026-03-22T10:26:44.396Z</time></trkpt><trkpt lat="43.1464983" lon="13.1454767"><ele>514.0</ele><time>2026-03-22T10:26:45.381Z</time></trkpt><trkpt lat="43.14649" lon="13.1455917"><ele>514.0</ele><time>2026-03-22T10:26:46.374Z</time></trkpt><trkpt lat="43.14648" lon="13.1457017"><ele>514.0</ele><time>2026-03-22T10:26:47.383Z</time></trkpt><trkpt lat="43.14647" lon="13.14581"><ele>514.0</ele><time>2026-03-22T10:26:48.356Z</time></trkpt><trkpt lat="43.146465" lon="13.1459217"><ele>514.0</ele><time>2026-03-22T10:26:49.382Z</time></trkpt><trkpt lat="43.1464683" lon="13.1460383"><ele>514.0</ele><time>2026-03-22T10:26:50.392Z</time></trkpt><trkpt lat="43.1464833" lon="13.1461567"><ele>514.0</ele><time>2026-03-22T10:26:51.381Z</time></trkpt><trkpt lat="43.1465017" lon="13.146275"><ele>515.8333333333334</ele><time>2026-03-22T10:26:52.39Z</time></trkpt><trkpt lat="43.1465167" lon="13.1463867"><ele>517.6666666666667</ele><time>2026-03-22T10:26:53.381Z</time></trkpt><trkpt lat="43.1465217" lon="13.146485"><ele>519.5</ele><time>2026-03-22T10:26:54.385Z</time></trkpt><trkpt lat="43.146475" lon="13.146625"><ele>521.3333333333334</ele><time>2026-03-22T10:26:56.405Z</time></trkpt><trkpt lat="43.1464117" lon="13.1466633"><ele>523.1666666666666</ele><time>2026-03-22T10:26:57.386Z</time></trkpt><trkpt lat="43.146325" lon="13.1466833"><ele>525.0</ele><time>2026-03-22T10:26:58.382Z</time></trkpt><trkpt lat="43.1462567" lon="13.1467167"><ele>528.6</ele><time>2026-03-22T10:26:59.377Z</time></trkpt><trkpt lat="43.146195" lon="13.14681"><ele>532.2</ele><time>2026-03-22T10:27:01.384Z</time></trkpt><trkpt lat="43.14618" lon="13.1469683"><ele>535.8</ele><time>2026-03-22T10:27:03.364Z</time></trkpt><trkpt lat="43.146185" lon="13.14708"><ele>539.4</ele><time>2026-03-22T10:27:04.382Z</time></trkpt><trkpt lat="43.1462033" lon="13.1472167"><ele>543.0</ele><time>2026-03-22T10:27:05.382Z</time></trkpt><trkpt lat="43.1462233" lon="13.1473783"><ele>546.6</ele><time>2026-03-22T10:27:06.389Z</time></trkpt><trkpt lat="43.1462333" lon="13.1475433"><ele>550.1999999999999</ele><time>2026-03-22T10:27:07.366Z</time></trkpt><trkpt lat="43.1462433" lon="13.1476817"><ele>553.8</ele><time>2026-03-22T10:27:08.399Z</time></trkpt><trkpt lat="43.146235" lon="13.1477967"><ele>557.4</ele><time>2026-03-22T10:27:09.382Z</time></trkpt><trkpt lat="43.1461983" lon="13.1479033"><ele>561.0</ele><time>2026-03-22T10:27:10.383Z</time></trkpt><trkpt lat="43.14614" lon="13.1479883"><ele>561.0</ele><time>2026-03-22T10:27:11.372Z</time></trkpt><trkpt lat="43.14608" lon="13.1480483"><ele>561.0</ele><time>2026-03-22T10:27:12.39Z</time></trkpt><trkpt lat="43.146015" lon="13.148075"><ele>561.0</ele><time>2026-03-22T10:27:13.38Z</time></trkpt><trkpt lat="43.1459483" lon="13.14806"><ele>561.0</ele><time>2026-03-22T10:27:14.394Z</time></trkpt><trkpt lat="43.1458867" lon="13.14803"><ele>561.0</ele><time>2026-03-22T10:27:15.381Z</time></trkpt><trkpt lat="43.14582" lon="13.1480017"><ele>561.0</ele><time>2026-03-22T10:27:16.386Z</time></trkpt><trkpt lat="43.1457517" lon="13.1479833"><ele>561.0</ele><time>2026-03-22T10:27:17.385Z</time></trkpt><trkpt lat="43.145675" lon="13.1479833"><ele>558.5</ele><time>2026-03-22T10:27:18.387Z</time></trkpt><trkpt lat="43.1455933" lon="13.1479883"><ele>556.0</ele><time>2026-03-22T10:27:19.369Z</time></trkpt><trkpt lat="43.1455283" lon="13.1479933"><ele>553.5</ele><time>2026-03-22T10:27:20.396Z</time></trkpt><trkpt lat="43.1454683" lon="13.14804"><ele>551.0</ele><time>2026-03-22T10:27:22.382Z</time></trkpt><trkpt lat="43.1455833" lon="13.148135"><ele>548.5</ele><time>2026-03-22T10:27:25.38Z</time></trkpt><trkpt lat="43.1456583" lon="13.1481967"><ele>546.0</ele><time>2026-03-22T10:27:26.44Z</time></trkpt><trkpt lat="43.145725" lon="13.1482633"><ele>554.4</ele><time>2026-03-22T10:27:27.385Z</time></trkpt><trkpt lat="43.1457833" lon="13.1483483"><ele>562.8</ele><time>2026-03-22T10:27:28.386Z</time></trkpt><trkpt lat="43.1458367" lon="13.1484517"><ele>571.1999999999999</ele><time>2026-03-22T10:27:29.386Z</time></trkpt><trkpt lat="43.1458783" lon="13.1485617"><ele>579.6</ele><time>2026-03-22T10:27:30.386Z</time></trkpt><trkpt lat="43.1459067" lon="13.1486833"><ele>588.0</ele><time>2026-03-22T10:27:31.385Z</time></trkpt><trkpt lat="43.1459233" lon="13.1488233"><ele>588.0</ele><time>2026-03-22T10:27:32.433Z</time></trkpt><trkpt lat="43.145945" lon="13.14896"><ele>588.0</ele><time>2026-03-22T10:27:33.374Z</time></trkpt><trkpt lat="43.145975" lon="13.1490767"><ele>588.0</ele><time>2026-03-22T10:27:34.382Z</time></trkpt><trkpt lat="43.14602" lon="13.1491683"><ele>588.0</ele><time>2026-03-22T10:27:35.382Z</time></trkpt><trkpt lat="43.1460783" lon="13.1492317"><ele>588.0</ele><time>2026-03-22T10:27:36.378Z</time></trkpt><trkpt lat="43.1461567" lon="13.1492583"><ele>588.0</ele><time>2026-03-22T10:27:37.385Z</time></trkpt><trkpt lat="43.1462467" lon="13.1492633"><ele>587.8</ele><time>2026-03-22T10:27:38.394Z</time></trkpt><trkpt lat="43.1463617" lon="13.14925"><ele>587.5999999999999</ele><time>2026-03-22T10:27:39.383Z</time></trkpt><trkpt lat="43.146475" lon="13.1492517"><ele>587.4000000000001</ele><time>2026-03-22T10:27:40.381Z</time></trkpt><trkpt lat="43.146575" lon="13.149265"><ele>587.2</ele><time>2026-03-22T10:27:41.366Z</time></trkpt><trkpt lat="43.14665" lon="13.1492833"><ele>587.0</ele><time>2026-03-22T10:27:42.387Z</time></trkpt><trkpt lat="43.146715" lon="13.1492983"><ele>590.3333333333333</ele><time>2026-03-22T10:27:43.384Z</time></trkpt><trkpt lat="43.14678" lon="13.149295"><ele>593.6666666666666</ele><time>2026-03-22T10:27:44.377Z</time></trkpt><trkpt lat="43.14686" lon="13.1492883"><ele>597.0</ele><time>2026-03-22T10:27:45.377Z</time></trkpt><trkpt lat="43.146945" lon="13.1492867"><ele>600.3333333333334</ele><time>2026-03-22T10:27:46.383Z</time></trkpt><trkpt lat="43.147035" lon="13.1493017"><ele>603.6666666666667</ele><time>2026-03-22T10:27:47.385Z</time></trkpt><trkpt lat="43.1471333" lon="13.1493333"><ele>607.0</ele><time>2026-03-22T10:27:48.388Z</time></trkpt><trkpt lat="43.1472233" lon="13.1493783"><ele>607.0</ele><time>2026-03-22T10:27:49.384Z</time></trkpt><trkpt lat="43.1473067" lon="13.1494433"><ele>607.0</ele><time>2026-03-22T10:27:50.414Z</time></trkpt><trkpt lat="43.1473933" lon="13.14951"><ele>607.0</ele><time>2026-03-22T10:27:51.38Z</time></trkpt><trkpt lat="43.1474817" lon="13.14956"><ele>607.0</ele><time>2026-03-22T10:27:52.381Z</time></trkpt><trkpt lat="43.1475717" lon="13.149605"><ele>607.0</ele><time>2026-03-22T10:27:53.377Z</time></trkpt><trkpt lat="43.1476667" lon="13.1496333"><ele>609.4</ele><time>2026-03-22T10:27:54.379Z</time></trkpt><trkpt lat="43.1477683" lon="13.149655"><ele>611.8000000000001</ele><time>2026-03-22T10:27:55.385Z</time></trkpt><trkpt lat="43.1478683" lon="13.14967"><ele>614.2</ele><time>2026-03-22T10:27:56.433Z</time></trkpt><trkpt lat="43.1479683" lon="13.1496733"><ele>616.6</ele><time>2026-03-22T10:27:57.387Z</time></trkpt><trkpt lat="43.148065" lon="13.1496733"><ele>619.0</ele><time>2026-03-22T10:27:58.382Z</time></trkpt><trkpt lat="43.1481567" lon="13.1496617"><ele>622.0</ele><time>2026-03-22T10:27:59.375Z</time></trkpt><trkpt lat="43.1482433" lon="13.1496383"><ele>625.0</ele><time>2026-03-22T10:28:00.378Z</time></trkpt><trkpt lat="43.1483183" lon="13.149595"><ele>628.0</ele><time>2026-03-22T10:28:01.386Z</time></trkpt><trkpt lat="43.1483883" lon="13.1495183"><ele>631.0</ele><time>2026-03-22T10:28:02.4Z</time></trkpt><trkpt lat="43.1484533" lon="13.1494133"><ele>634.0</ele><time>2026-03-22T10:28:03.38Z</time></trkpt><trkpt lat="43.1484933" lon="13.14927"><ele>634.0</ele><time>2026-03-22T10:28:04.378Z</time></trkpt><trkpt lat="43.1485183" lon="13.1491033"><ele>634.0</ele><time>2026-03-22T10:28:05.383Z</time></trkpt><trkpt lat="43.1485517" lon="13.148945"><ele>634.0</ele><time>2026-03-22T10:28:06.384Z</time></trkpt><trkpt lat="43.1485817" lon="13.1487967"><ele>634.0</ele><time>2026-03-22T10:28:07.385Z</time></trkpt><trkpt lat="43.1486117" lon="13.1486567"><ele>634.6</ele><time>2026-03-22T10:28:08.385Z</time></trkpt><trkpt lat="43.148645" lon="13.1485183"><ele>635.2</ele><time>2026-03-22T10:28:09.383Z</time></trkpt><trkpt lat="43.1486733" lon="13.1483767"><ele>635.8000000000001</ele><time>2026-03-22T10:28:10.377Z</time></trkpt><trkpt lat="43.1487" lon="13.1482417"><ele>636.4</ele><time>2026-03-22T10:28:11.384Z</time></trkpt><trkpt lat="43.14873" lon="13.148115"><ele>637.0</ele><time>2026-03-22T10:28:12.383Z</time></trkpt><trkpt lat="43.1487717" lon="13.1479967"><ele>637.0</ele><time>2026-03-22T10:28:13.376Z</time></trkpt><trkpt lat="43.1488167" lon="13.1478867"><ele>637.0</ele><time>2026-03-22T10:28:14.362Z</time></trkpt><trkpt lat="43.148865" lon="13.1477667"><ele>637.0</ele><time>2026-03-22T10:28:15.353Z</time></trkpt><trkpt lat="43.148915" lon="13.147635"><ele>637.0</ele><time>2026-03-22T10:28:16.366Z</time></trkpt><trkpt lat="43.1489583" lon="13.1474983"><ele>637.0</ele><time>2026-03-22T10:28:17.358Z</time></trkpt><trkpt lat="43.1490067" lon="13.14735"><ele>637.0</ele><time>2026-03-22T10:28:18.354Z</time></trkpt><trkpt lat="43.1490383" lon="13.14721"><ele>637.0</ele><time>2026-03-22T10:28:19.362Z</time></trkpt><trkpt lat="43.1490617" lon="13.147085"><ele>637.0</ele><time>2026-03-22T10:28:20.371Z</time></trkpt><trkpt lat="43.14908" lon="13.1469683"><ele>637.0</ele><time>2026-03-22T10:28:21.354Z</time></trkpt><trkpt lat="43.1490967" lon="13.146855"><ele>637.0</ele><time>2026-03-22T10:28:22.357Z</time></trkpt><trkpt lat="43.1491183" lon="13.1467483"><ele>643.0</ele><time>2026-03-22T10:28:23.371Z</time></trkpt><trkpt lat="43.1491367" lon="13.1466467"><ele>649.0</ele><time>2026-03-22T10:28:24.359Z</time></trkpt><trkpt lat="43.149145" lon="13.1465267"><ele>655.0</ele><time>2026-03-22T10:28:25.38Z</time></trkpt><trkpt lat="43.1491417" lon="13.1464"><ele>661.0</ele><time>2026-03-22T10:28:26.419Z</time></trkpt><trkpt lat="43.1491417" lon="13.1462783"><ele>667.0</ele><time>2026-03-22T10:28:27.366Z</time></trkpt><trkpt lat="43.1491383" lon="13.14614"><ele>673.0</ele><time>2026-03-22T10:28:28.38Z</time></trkpt><trkpt lat="43.1491383" lon="13.1459783"><ele>673.25</ele><time>2026-03-22T10:28:29.375Z</time></trkpt><trkpt lat="43.149135" lon="13.14582"><ele>673.5</ele><time>2026-03-22T10:28:30.377Z</time></trkpt><trkpt lat="43.149135" lon="13.1456667"><ele>673.75</ele><time>2026-03-22T10:28:31.373Z</time></trkpt><trkpt lat="43.1491317" lon="13.14551"><ele>674.0</ele><time>2026-03-22T10:28:32.424Z</time></trkpt><trkpt lat="43.14912" lon="13.1453517"><ele>674.0</ele><time>2026-03-22T10:28:33.376Z</time></trkpt><trkpt lat="43.1491183" lon="13.1451917"><ele>674.0</ele><time>2026-03-22T10:28:34.376Z</time></trkpt><trkpt lat="43.1491183" lon="13.1450283"><ele>674.0</ele><time>2026-03-22T10:28:35.362Z</time></trkpt><trkpt lat="43.1491233" lon="13.1448583"><ele>674.0</ele><time>2026-03-22T10:28:36.377Z</time></trkpt><trkpt lat="43.1491317" lon="13.14468"><ele>672.75</ele><time>2026-03-22T10:28:37.381Z</time></trkpt><trkpt lat="43.1491483" lon="13.144505"><ele>671.5</ele><time>2026-03-22T10:28:38.393Z</time></trkpt><trkpt lat="43.1491717" lon="13.1443417"><ele>670.25</ele><time>2026-03-22T10:28:39.367Z</time></trkpt><trkpt lat="43.1491967" lon="13.144175"><ele>669.0</ele><time>2026-03-22T10:28:40.376Z</time></trkpt><trkpt lat="43.149225" lon="13.1440033"><ele>665.75</ele><time>2026-03-22T10:28:41.378Z</time></trkpt><trkpt lat="43.1492583" lon="13.1438233"><ele>662.5</ele><time>2026-03-22T10:28:42.363Z</time></trkpt><trkpt lat="43.1492983" lon="13.1436333"><ele>659.25</ele><time>2026-03-22T10:28:43.36Z</time></trkpt><trkpt lat="43.1493367" lon="13.1434367"><ele>656.0</ele><time>2026-03-22T10:28:44.389Z</time></trkpt><trkpt lat="43.14938" lon="13.1432417"><ele>652.0</ele><time>2026-03-22T10:28:45.367Z</time></trkpt><trkpt lat="43.1494233" lon="13.1430383"><ele>648.0</ele><time>2026-03-22T10:28:46.371Z</time></trkpt><trkpt lat="43.1494667" lon="13.1428317"><ele>644.0</ele><time>2026-03-22T10:28:47.376Z</time></trkpt><trkpt lat="43.149515" lon="13.1426317"><ele>644.0</ele><time>2026-03-22T10:28:48.378Z</time></trkpt><trkpt lat="43.14956" lon="13.1424317"><ele>644.0</ele><time>2026-03-22T10:28:49.377Z</time></trkpt><trkpt lat="43.1496067" lon="13.1422333"><ele>644.0</ele><time>2026-03-22T10:28:50.387Z</time></trkpt><trkpt lat="43.149645" lon="13.14204"><ele>641.5</ele><time>2026-03-22T10:28:51.375Z</time></trkpt><trkpt lat="43.1496783" lon="13.1418567"><ele>639.0</ele><time>2026-03-22T10:28:52.374Z</time></trkpt><trkpt lat="43.1497117" lon="13.1416817"><ele>636.5</ele><time>2026-03-22T10:28:53.378Z</time></trkpt><trkpt lat="43.149745" lon="13.1415067"><ele>634.0</ele><time>2026-03-22T10:28:54.373Z</time></trkpt><trkpt lat="43.149775" lon="13.1413383"><ele>631.75</ele><time>2026-03-22T10:28:55.372Z</time></trkpt><trkpt lat="43.14981" lon="13.1411683"><ele>629.5</ele><time>2026-03-22T10:28:56.392Z</time></trkpt><trkpt lat="43.149845" lon="13.1409933"><ele>627.25</ele><time>2026-03-22T10:28:57.376Z</time></trkpt><trkpt lat="43.149875" lon="13.1408167"><ele>625.0</ele><time>2026-03-22T10:28:58.376Z</time></trkpt><trkpt lat="43.14991" lon="13.14064"><ele>637.5</ele><time>2026-03-22T10:28:59.378Z</time></trkpt><trkpt lat="43.14995" lon="13.140465"><ele>650.0</ele><time>2026-03-22T10:29:00.369Z</time></trkpt><trkpt lat="43.14999" lon="13.1402983"><ele>662.5</ele><time>2026-03-22T10:29:01.376Z</time></trkpt><trkpt lat="43.1500333" lon="13.14014"><ele>675.0</ele><time>2026-03-22T10:29:02.404Z</time></trkpt><trkpt lat="43.1500783" lon="13.1399883"><ele>672.0</ele><time>2026-03-22T10:29:03.365Z</time></trkpt><trkpt lat="43.1501217" lon="13.139835"><ele>669.0</ele><time>2026-03-22T10:29:04.373Z</time></trkpt><trkpt lat="43.1501633" lon="13.1396783"><ele>666.0</ele><time>2026-03-22T10:29:05.372Z</time></trkpt><trkpt lat="43.1502117" lon="13.1395217"><ele>663.0</ele><time>2026-03-22T10:29:06.378Z</time></trkpt><trkpt lat="43.150265" lon="13.13937"><ele>663.0</ele><time>2026-03-22T10:29:07.368Z</time></trkpt><trkpt lat="43.1503167" lon="13.1392183"><ele>663.0</ele><time>2026-03-22T10:29:08.38Z</time></trkpt><trkpt lat="43.1503667" lon="13.1390683"><ele>663.0</ele><time>2026-03-22T10:29:09.376Z</time></trkpt><trkpt lat="43.15042" lon="13.138925"><ele>663.0</ele><time>2026-03-22T10:29:10.372Z</time></trkpt><trkpt lat="43.1504783" lon="13.1387883"><ele>660.0</ele><time>2026-03-22T10:29:11.377Z</time></trkpt><trkpt lat="43.15054" lon="13.1386533"><ele>657.0</ele><time>2026-03-22T10:29:12.362Z</time></trkpt><trkpt lat="43.1506067" lon="13.1385183"><ele>654.0</ele><time>2026-03-22T10:29:13.375Z</time></trkpt><trkpt lat="43.1506817" lon="13.13838"><ele>651.0</ele><time>2026-03-22T10:29:14.388Z</time></trkpt><trkpt lat="43.150765" lon="13.1382367"><ele>655.5</ele><time>2026-03-22T10:29:15.379Z</time></trkpt><trkpt lat="43.15085" lon="13.1380867"><ele>660.0</ele><time>2026-03-22T10:29:16.377Z</time></trkpt><trkpt lat="43.1509383" lon="13.13794"><ele>664.5</ele><time>2026-03-22T10:29:17.371Z</time></trkpt><trkpt lat="43.1510283" lon="13.1378067"><ele>669.0</ele><time>2026-03-22T10:29:18.373Z</time></trkpt><trkpt lat="43.1511133" lon="13.1376967"><ele>669.0</ele><time>2026-03-22T10:29:19.367Z</time></trkpt><trkpt lat="43.1512033" lon="13.137605"><ele>669.0</ele><time>2026-03-22T10:29:20.384Z</time></trkpt><trkpt lat="43.1513033" lon="13.1375067"><ele>669.0</ele><time>2026-03-22T10:29:21.376Z</time></trkpt><trkpt lat="43.15141" lon="13.1374033"><ele>669.0</ele><time>2026-03-22T10:29:22.376Z</time></trkpt><trkpt lat="43.15153" lon="13.1372933"><ele>671.6666666666666</ele><time>2026-03-22T10:29:23.374Z</time></trkpt><trkpt lat="43.1516583" lon="13.1371717"><ele>674.3333333333333</ele><time>2026-03-22T10:29:24.366Z</time></trkpt><trkpt lat="43.151785" lon="13.1370383"><ele>677.0</ele><time>2026-03-22T10:29:25.375Z</time></trkpt><trkpt lat="43.1519117" lon="13.1369083"><ele>677.0</ele><time>2026-03-22T10:29:26.413Z</time></trkpt><trkpt lat="43.1520283" lon="13.136795"><ele>677.0</ele><time>2026-03-22T10:29:27.376Z</time></trkpt><trkpt lat="43.1521333" lon="13.1366983"><ele>677.0</ele><time>2026-03-22T10:29:28.38Z</time></trkpt><trkpt lat="43.1522267" lon="13.1366117"><ele>677.0</ele><time>2026-03-22T10:29:29.383Z</time></trkpt><trkpt lat="43.152315" lon="13.1365433"><ele>678.6666666666666</ele><time>2026-03-22T10:29:30.362Z</time></trkpt><trkpt lat="43.1524" lon="13.1364983"><ele>680.3333333333333</ele><time>2026-03-22T10:29:31.377Z</time></trkpt><trkpt lat="43.1524733" lon="13.1364633"><ele>682.0</ele><time>2026-03-22T10:29:32.375Z</time></trkpt><trkpt lat="43.1525367" lon="13.1364117"><ele>683.6666666666666</ele><time>2026-03-22T10:29:33.376Z</time></trkpt><trkpt lat="43.1525867" lon="13.13635"><ele>685.3333333333334</ele><time>2026-03-22T10:29:34.376Z</time></trkpt><trkpt lat="43.1526083" lon="13.1362467"><ele>687.0</ele><time>2026-03-22T10:29:35.38Z</time></trkpt><trkpt lat="43.15264" lon="13.1361433"><ele>687.0</ele><time>2026-03-22T10:29:36.376Z</time></trkpt><trkpt lat="43.1526883" lon="13.13603"><ele>687.0</ele><time>2026-03-22T10:29:37.374Z</time></trkpt><trkpt lat="43.1527617" lon="13.1359"><ele>687.0</ele><time>2026-03-22T10:29:38.385Z</time></trkpt><trkpt lat="43.15285" lon="13.13575"><ele>687.0</ele><time>2026-03-22T10:29:39.377Z</time></trkpt><trkpt lat="43.1529367" lon="13.1355983"><ele>682.5</ele><time>2026-03-22T10:29:40.373Z</time></trkpt><trkpt lat="43.1530217" lon="13.1354517"><ele>678.0</ele><time>2026-03-22T10:29:41.377Z</time></trkpt><trkpt lat="43.153095" lon="13.13532"><ele>673.5</ele><time>2026-03-22T10:29:42.381Z</time></trkpt><trkpt lat="43.1531533" lon="13.13519"><ele>669.0</ele><time>2026-03-22T10:29:43.374Z</time></trkpt><trkpt lat="43.1532083" lon="13.1350467"><ele>674.25</ele><time>2026-03-22T10:29:44.392Z</time></trkpt><trkpt lat="43.153265" lon="13.1348983"><ele>679.5</ele><time>2026-03-22T10:29:45.369Z</time></trkpt><trkpt lat="43.153315" lon="13.134755"><ele>684.75</ele><time>2026-03-22T10:29:46.379Z</time></trkpt><trkpt lat="43.1533617" lon="13.1346183"><ele>690.0</ele><time>2026-03-22T10:29:47.374Z</time></trkpt><trkpt lat="43.1534033" lon="13.1344867"><ele>690.0</ele><time>2026-03-22T10:29:48.384Z</time></trkpt><trkpt lat="43.1534467" lon="13.1343567"><ele>690.0</ele><time>2026-03-22T10:29:49.376Z</time></trkpt><trkpt lat="43.1534967" lon="13.13423"><ele>690.0</ele><time>2026-03-22T10:29:50.395Z</time></trkpt><trkpt lat="43.153555" lon="13.134105"><ele>690.0</ele><time>2026-03-22T10:29:51.377Z</time></trkpt><trkpt lat="43.1536167" lon="13.1339883"><ele>690.0</ele><time>2026-03-22T10:29:52.372Z</time></trkpt><trkpt lat="43.153675" lon="13.13388"><ele>685.8</ele><time>2026-03-22T10:29:53.379Z</time></trkpt><trkpt lat="43.15373" lon="13.1337683"><ele>681.6</ele><time>2026-03-22T10:29:54.378Z</time></trkpt><trkpt lat="43.1537733" lon="13.1336517"><ele>677.4000000000001</ele><time>2026-03-22T10:29:55.371Z</time></trkpt><trkpt lat="43.153815" lon="13.1335317"><ele>673.2</ele><time>2026-03-22T10:29:56.437Z</time></trkpt><trkpt lat="43.15386" lon="13.13341"><ele>669.0</ele><time>2026-03-22T10:29:57.368Z</time></trkpt><trkpt lat="43.15391" lon="13.1332883"><ele>666.4000000000001</ele><time>2026-03-22T10:29:58.378Z</time></trkpt><trkpt lat="43.1539617" lon="13.1331583"><ele>663.8</ele><time>2026-03-22T10:29:59.37Z</time></trkpt><trkpt lat="43.1540217" lon="13.1330267"><ele>661.2</ele><time>2026-03-22T10:30:00.373Z</time></trkpt><trkpt lat="43.15409" lon="13.132905"><ele>658.5999999999999</ele><time>2026-03-22T10:30:01.375Z</time></trkpt><trkpt lat="43.1541633" lon="13.1328"><ele>656.0</ele><time>2026-03-22T10:30:02.41Z</time></trkpt><trkpt lat="43.1542467" lon="13.1327233"><ele>663.4</ele><time>2026-03-22T10:30:03.373Z</time></trkpt><trkpt lat="43.1543383" lon="13.1326783"><ele>670.8</ele><time>2026-03-22T10:30:04.372Z</time></trkpt><trkpt lat="43.15444" lon="13.132655"><ele>678.1999999999999</ele><time>2026-03-22T10:30:05.377Z</time></trkpt><trkpt lat="43.1545417" lon="13.132645"><ele>685.5999999999999</ele><time>2026-03-22T10:30:06.377Z</time></trkpt><trkpt lat="43.15463" lon="13.13265"><ele>693.0</ele><time>2026-03-22T10:30:07.375Z</time></trkpt><trkpt lat="43.1547183" lon="13.1326783"><ele>693.0</ele><time>2026-03-22T10:30:08.395Z</time></trkpt><trkpt lat="43.1548017" lon="13.1327117"><ele>693.0</ele><time>2026-03-22T10:30:09.375Z</time></trkpt><trkpt lat="43.1548883" lon="13.132735"><ele>693.0</ele><time>2026-03-22T10:30:10.362Z</time></trkpt><trkpt lat="43.1549983" lon="13.1326833"><ele>693.0</ele><time>2026-03-22T10:30:12.376Z</time></trkpt><trkpt lat="43.1550217" lon="13.1325967"><ele>693.0</ele><time>2026-03-22T10:30:13.373Z</time></trkpt><trkpt lat="43.15501" lon="13.1324717"><ele>694.2</ele><time>2026-03-22T10:30:14.379Z</time></trkpt><trkpt lat="43.1549967" lon="13.1323417"><ele>695.4</ele><time>2026-03-22T10:30:15.371Z</time></trkpt><trkpt lat="43.1550017" lon="13.1322183"><ele>696.6</ele><time>2026-03-22T10:30:16.365Z</time></trkpt><trkpt lat="43.1550283" lon="13.1320983"><ele>697.8000000000001</ele><time>2026-03-22T10:30:17.364Z</time></trkpt><trkpt lat="43.1550733" lon="13.131985"><ele>699.0</ele><time>2026-03-22T10:30:18.365Z</time></trkpt><trkpt lat="43.155135" lon="13.131875"><ele>699.0</ele><time>2026-03-22T10:30:19.38Z</time></trkpt><trkpt lat="43.15521" lon="13.1317667"><ele>699.0</ele><time>2026-03-22T10:30:20.391Z</time></trkpt><trkpt lat="43.1552967" lon="13.131665"><ele>699.0</ele><time>2026-03-22T10:30:21.375Z</time></trkpt><trkpt lat="43.1553983" lon="13.1315717"><ele>699.0</ele><time>2026-03-22T10:30:22.375Z</time></trkpt><trkpt lat="43.15551" lon="13.1314833"><ele>701.25</ele><time>2026-03-22T10:30:23.377Z</time></trkpt><trkpt lat="43.15563" lon="13.1313867"><ele>703.5</ele><time>2026-03-22T10:30:24.376Z</time></trkpt><trkpt lat="43.1557433" lon="13.1312817"><ele>705.75</ele><time>2026-03-22T10:30:25.376Z</time></trkpt><trkpt lat="43.1558517" lon="13.1311767"><ele>708.0</ele><time>2026-03-22T10:30:26.433Z</time></trkpt><trkpt lat="43.1559483" lon="13.13108"><ele>708.0</ele><time>2026-03-22T10:30:27.378Z</time></trkpt><trkpt lat="43.1560317" lon="13.131"><ele>708.0</ele><time>2026-03-22T10:30:28.377Z</time></trkpt><trkpt lat="43.1561117" lon="13.1309417"><ele>708.0</ele><time>2026-03-22T10:30:29.376Z</time></trkpt><trkpt lat="43.1561983" lon="13.1309"><ele>708.0</ele><time>2026-03-22T10:30:30.377Z</time></trkpt><trkpt lat="43.1562983" lon="13.1308633"><ele>708.0</ele><time>2026-03-22T10:30:31.374Z</time></trkpt><trkpt lat="43.1564017" lon="13.130815"><ele>708.0</ele><time>2026-03-22T10:30:32.422Z</time></trkpt><trkpt lat="43.1565083" lon="13.1307367"><ele>708.0</ele><time>2026-03-22T10:30:33.37Z</time></trkpt><trkpt lat="43.1566067" lon="13.1306517"><ele>708.0</ele><time>2026-03-22T10:30:34.367Z</time></trkpt><trkpt lat="43.156705" lon="13.1305767"><ele>708.0</ele><time>2026-03-22T10:30:35.362Z</time></trkpt><trkpt lat="43.1568033" lon="13.1305217"><ele>709.8</ele><time>2026-03-22T10:30:36.384Z</time></trkpt><trkpt lat="43.1568983" lon="13.130475"><ele>711.5999999999999</ele><time>2026-03-22T10:30:37.377Z</time></trkpt><trkpt lat="43.1569833" lon="13.1304367"><ele>713.4000000000001</ele><time>2026-03-22T10:30:38.394Z</time></trkpt><trkpt lat="43.1570833" lon="13.1303733"><ele>715.2</ele><time>2026-03-22T10:30:40.374Z</time></trkpt><trkpt lat="43.1571133" lon="13.13029"><ele>717.0</ele><time>2026-03-22T10:30:41.378Z</time></trkpt><trkpt lat="43.1571333" lon="13.1301733"><ele>717.0</ele><time>2026-03-22T10:30:42.372Z</time></trkpt><trkpt lat="43.1571517" lon="13.1300283"><ele>717.0</ele><time>2026-03-22T10:30:43.378Z</time></trkpt><trkpt lat="43.1571817" lon="13.129895"><ele>717.0</ele><time>2026-03-22T10:30:44.391Z</time></trkpt><trkpt lat="43.1572133" lon="13.1297617"><ele>717.0</ele><time>2026-03-22T10:30:45.366Z</time></trkpt><trkpt lat="43.1572467" lon="13.1296383"><ele>717.0</ele><time>2026-03-22T10:30:46.383Z</time></trkpt><trkpt lat="43.1572783" lon="13.12953"><ele>717.5714285714286</ele><time>2026-03-22T10:30:47.376Z</time></trkpt><trkpt lat="43.1573167" lon="13.1294333"><ele>718.1428571428571</ele><time>2026-03-22T10:30:48.375Z</time></trkpt><trkpt lat="43.157365" lon="13.12935"><ele>718.7142857142858</ele><time>2026-03-22T10:30:49.375Z</time></trkpt><trkpt lat="43.15742" lon="13.1292717"><ele>719.2857142857142</ele><time>2026-03-22T10:30:50.39Z</time></trkpt><trkpt lat="43.1574667" lon="13.129195"><ele>719.8571428571429</ele><time>2026-03-22T10:30:51.366Z</time></trkpt><trkpt lat="43.1575083" lon="13.1291217"><ele>720.4285714285714</ele><time>2026-03-22T10:30:52.373Z</time></trkpt><trkpt lat="43.1575467" lon="13.12905"><ele>721.0</ele><time>2026-03-22T10:30:53.381Z</time></trkpt><trkpt lat="43.15759" lon="13.1289683"><ele>721.0</ele><time>2026-03-22T10:30:54.378Z</time></trkpt><trkpt lat="43.157625" lon="13.1288633"><ele>721.0</ele><time>2026-03-22T10:30:55.377Z</time></trkpt><trkpt lat="43.1576533" lon="13.1287483"><ele>721.0</ele><time>2026-03-22T10:30:56.378Z</time></trkpt><trkpt lat="43.157675" lon="13.128635"><ele>721.0</ele><time>2026-03-22T10:30:57.376Z</time></trkpt><trkpt lat="43.1576967" lon="13.12852"><ele>721.0</ele><time>2026-03-22T10:30:58.368Z</time></trkpt><trkpt lat="43.1577167" lon="13.1284083"><ele>721.0</ele><time>2026-03-22T10:30:59.384Z</time></trkpt><trkpt lat="43.1577433" lon="13.1283"><ele>718.0</ele><time>2026-03-22T10:31:00.377Z</time></trkpt><trkpt lat="43.1577667" lon="13.128185"><ele>715.0</ele><time>2026-03-22T10:31:01.373Z</time></trkpt><trkpt lat="43.157795" lon="13.1280583"><ele>712.0</ele><time>2026-03-22T10:31:02.374Z</time></trkpt><trkpt lat="43.1578283" lon="13.1279317"><ele>709.0</ele><time>2026-03-22T10:31:03.377Z</time></trkpt><trkpt lat="43.1578617" lon="13.127805"><ele>706.0</ele><time>2026-03-22T10:31:04.378Z</time></trkpt><trkpt lat="43.1579033" lon="13.127685"><ele>706.0</ele><time>2026-03-22T10:31:05.377Z</time></trkpt><trkpt lat="43.1579517" lon="13.1275667"><ele>706.0</ele><time>2026-03-22T10:31:06.378Z</time></trkpt><trkpt lat="43.1580067" lon="13.12745"><ele>706.0</ele><time>2026-03-22T10:31:07.375Z</time></trkpt><trkpt lat="43.15808" lon="13.1273433"><ele>706.0</ele><time>2026-03-22T10:31:08.389Z</time></trkpt><trkpt lat="43.1581667" lon="13.1272567"><ele>706.0</ele><time>2026-03-22T10:31:09.367Z</time></trkpt><trkpt lat="43.1582567" lon="13.1271783"><ele>706.0</ele><time>2026-03-22T10:31:10.374Z</time></trkpt><trkpt lat="43.158345" lon="13.1271067"><ele>706.0</ele><time>2026-03-22T10:31:11.373Z</time></trkpt><trkpt lat="43.15843" lon="13.12704"><ele>706.0</ele><time>2026-03-22T10:31:12.363Z</time></trkpt><trkpt lat="43.1585167" lon="13.1269783"><ele>706.0</ele><time>2026-03-22T10:31:13.376Z</time></trkpt><trkpt lat="43.1586133" lon="13.1269383"><ele>706.0</ele><time>2026-03-22T10:31:14.392Z</time></trkpt><trkpt lat="43.1587117" lon="13.1269083"><ele>706.0</ele><time>2026-03-22T10:31:15.374Z</time></trkpt><trkpt lat="43.1588067" lon="13.12688"><ele>706.0</ele><time>2026-03-22T10:31:16.368Z</time></trkpt><trkpt lat="43.158895" lon="13.126855"><ele>706.0</ele><time>2026-03-22T10:31:17.373Z</time></trkpt><trkpt lat="43.1589767" lon="13.1268333"><ele>706.0</ele><time>2026-03-22T10:31:18.378Z</time></trkpt><trkpt lat="43.1590533" lon="13.12681"><ele>706.0</ele><time>2026-03-22T10:31:19.377Z</time></trkpt><trkpt lat="43.159115" lon="13.1267717"><ele>706.0</ele><time>2026-03-22T10:31:20.389Z</time></trkpt><trkpt lat="43.1591667" lon="13.1267117"><ele>705.5</ele><time>2026-03-22T10:31:21.371Z</time></trkpt><trkpt lat="43.1591967" lon="13.12663"><ele>705.0</ele><time>2026-03-22T10:31:22.373Z</time></trkpt><trkpt lat="43.1592117" lon="13.1265267"><ele>704.5</ele><time>2026-03-22T10:31:23.38Z</time></trkpt><trkpt lat="43.1592283" lon="13.126415"><ele>704.0</ele><time>2026-03-22T10:31:24.374Z</time></trkpt><trkpt lat="43.1592433" lon="13.1263067"><ele>703.5</ele><time>2026-03-22T10:31:25.37Z</time></trkpt><trkpt lat="43.159265" lon="13.1262033"><ele>703.0</ele><time>2026-03-22T10:31:26.432Z</time></trkpt><trkpt lat="43.1593" lon="13.1261067"><ele>703.0</ele><time>2026-03-22T10:31:27.372Z</time></trkpt><trkpt lat="43.1593483" lon="13.1260167"><ele>703.0</ele><time>2026-03-22T10:31:28.374Z</time></trkpt><trkpt lat="43.15941" lon="13.1259433"><ele>703.0</ele><time>2026-03-22T10:31:29.375Z</time></trkpt><trkpt lat="43.1594783" lon="13.125875"><ele>703.0</ele><time>2026-03-22T10:31:30.377Z</time></trkpt><trkpt lat="43.1595417" lon="13.1258033"><ele>703.0</ele><time>2026-03-22T10:31:31.377Z</time></trkpt><trkpt lat="43.159595" lon="13.1257167"><ele>703.0</ele><time>2026-03-22T10:31:32.418Z</time></trkpt><trkpt lat="43.1596533" lon="13.1256167"><ele>700.5999999999999</ele><time>2026-03-22T10:31:33.371Z</time></trkpt><trkpt lat="43.159715" lon="13.1255117"><ele>698.1999999999999</ele><time>2026-03-22T10:31:34.378Z</time></trkpt><trkpt lat="43.1597783" lon="13.1253917"><ele>695.8</ele><time>2026-03-22T10:31:35.378Z</time></trkpt><trkpt lat="43.15984" lon="13.12526"><ele>693.4</ele><time>2026-03-22T10:31:36.384Z</time></trkpt><trkpt lat="43.1598967" lon="13.125125"><ele>691.0</ele><time>2026-03-22T10:31:37.377Z</time></trkpt><trkpt lat="43.1599483" lon="13.1249883"><ele>695.5999999999999</ele><time>2026-03-22T10:31:38.395Z</time></trkpt><trkpt lat="43.160005" lon="13.1248533"><ele>700.2</ele><time>2026-03-22T10:31:39.375Z</time></trkpt><trkpt lat="43.160065" lon="13.1247283"><ele>704.8</ele><time>2026-03-22T10:31:40.376Z</time></trkpt><trkpt lat="43.1601217" lon="13.124595"><ele>709.4000000000001</ele><time>2026-03-22T10:31:41.371Z</time></trkpt><trkpt lat="43.16018" lon="13.12447"><ele>714.0</ele><time>2026-03-22T10:31:42.376Z</time></trkpt><trkpt lat="43.16024" lon="13.12434"><ele>714.0</ele><time>2026-03-22T10:31:43.372Z</time></trkpt><trkpt lat="43.1602967" lon="13.1242083"><ele>714.0</ele><time>2026-03-22T10:31:44.39Z</time></trkpt><trkpt lat="43.160355" lon="13.1240933"><ele>714.0</ele><time>2026-03-22T10:31:45.371Z</time></trkpt><trkpt lat="43.16042" lon="13.1239983"><ele>714.0</ele><time>2026-03-22T10:31:46.373Z</time></trkpt><trkpt lat="43.160495" lon="13.1239217"><ele>714.0</ele><time>2026-03-22T10:31:47.381Z</time></trkpt><trkpt lat="43.160575" lon="13.1238533"><ele>714.8333333333334</ele><time>2026-03-22T10:31:48.376Z</time></trkpt><trkpt lat="43.1606533" lon="13.1238067"><ele>715.6666666666666</ele><time>2026-03-22T10:31:49.369Z</time></trkpt><trkpt lat="43.160735" lon="13.12378"><ele>716.5</ele><time>2026-03-22T10:31:50.393Z</time></trkpt><trkpt lat="43.16082" lon="13.1237733"><ele>717.3333333333333</ele><time>2026-03-22T10:31:51.377Z</time></trkpt><trkpt lat="43.1609133" lon="13.12377"><ele>718.1666666666666</ele><time>2026-03-22T10:31:52.374Z</time></trkpt><trkpt lat="43.1610117" lon="13.1237517"><ele>719.0</ele><time>2026-03-22T10:31:53.373Z</time></trkpt><trkpt lat="43.1611267" lon="13.1237233"><ele>719.0</ele><time>2026-03-22T10:31:54.379Z</time></trkpt><trkpt lat="43.1612433" lon="13.1236883"><ele>719.0</ele><time>2026-03-22T10:31:55.377Z</time></trkpt><trkpt lat="43.1613533" lon="13.1236517"><ele>719.0</ele><time>2026-03-22T10:31:56.432Z</time></trkpt><trkpt lat="43.161455" lon="13.123605"><ele>719.0</ele><time>2026-03-22T10:31:57.372Z</time></trkpt><trkpt lat="43.1615483" lon="13.123555"><ele>719.0</ele><time>2026-03-22T10:31:58.372Z</time></trkpt><trkpt lat="43.1616433" lon="13.1235017"><ele>720.4000000000001</ele><time>2026-03-22T10:31:59.376Z</time></trkpt><trkpt lat="43.16173" lon="13.1234683"><ele>721.8</ele><time>2026-03-22T10:32:00.377Z</time></trkpt><trkpt lat="43.161815" lon="13.123445"><ele>723.2</ele><time>2026-03-22T10:32:01.374Z</time></trkpt><trkpt lat="43.16191" lon="13.12345"><ele>724.5999999999999</ele><time>2026-03-22T10:32:02.426Z</time></trkpt><trkpt lat="43.162015" lon="13.12346"><ele>726.0</ele><time>2026-03-22T10:32:03.376Z</time></trkpt><trkpt lat="43.1621217" lon="13.1234783"><ele>726.0</ele><time>2026-03-22T10:32:04.377Z</time></trkpt><trkpt lat="43.16222" lon="13.1234833"><ele>726.0</ele><time>2026-03-22T10:32:05.375Z</time></trkpt><trkpt lat="43.1623033" lon="13.1234733"><ele>726.0</ele><time>2026-03-22T10:32:06.372Z</time></trkpt><trkpt lat="43.16238" lon="13.1234617"><ele>726.0</ele><time>2026-03-22T10:32:07.376Z</time></trkpt><trkpt lat="43.1624567" lon="13.123445"><ele>726.0</ele><time>2026-03-22T10:32:08.39Z</time></trkpt><trkpt lat="43.1625317" lon="13.1234267"><ele>726.0</ele><time>2026-03-22T10:32:09.375Z</time></trkpt><trkpt lat="43.1625983" lon="13.1234167"><ele>724.5999999999999</ele><time>2026-03-22T10:32:10.366Z</time></trkpt><trkpt lat="43.1626917" lon="13.1234633"><ele>723.2</ele><time>2026-03-22T10:32:12.375Z</time></trkpt><trkpt lat="43.1627317" lon="13.1235517"><ele>721.8</ele><time>2026-03-22T10:32:13.377Z</time></trkpt><trkpt lat="43.16278" lon="13.1237083"><ele>720.4000000000001</ele><time>2026-03-22T10:32:14.399Z</time></trkpt><trkpt lat="43.16283" lon="13.12389"><ele>719.0</ele><time>2026-03-22T10:32:15.37Z</time></trkpt><trkpt lat="43.1628767" lon="13.1240817"><ele>722.5</ele><time>2026-03-22T10:32:16.37Z</time></trkpt><trkpt lat="43.1629333" lon="13.1242667"><ele>726.0</ele><time>2026-03-22T10:32:17.376Z</time></trkpt><trkpt lat="43.1629867" lon="13.1244533"><ele>729.5</ele><time>2026-03-22T10:32:18.376Z</time></trkpt><trkpt lat="43.163035" lon="13.1246517"><ele>733.0</ele><time>2026-03-22T10:32:19.369Z</time></trkpt><trkpt lat="43.1630767" lon="13.12487"><ele>736.6666666666667</ele><time>2026-03-22T10:32:20.389Z</time></trkpt><trkpt lat="43.163115" lon="13.125105"><ele>740.3333333333334</ele><time>2026-03-22T10:32:21.371Z</time></trkpt><trkpt lat="43.1631533" lon="13.1253283"><ele>744.0</ele><time>2026-03-22T10:32:22.376Z</time></trkpt><trkpt lat="43.1631967" lon="13.1255383"><ele>737.75</ele><time>2026-03-22T10:32:23.372Z</time></trkpt><trkpt lat="43.1632483" lon="13.125735"><ele>731.5</ele><time>2026-03-22T10:32:24.376Z</time></trkpt><trkpt lat="43.1633033" lon="13.1259217"><ele>725.25</ele><time>2026-03-22T10:32:25.374Z</time></trkpt><trkpt lat="43.1633717" lon="13.1260983"><ele>719.0</ele><time>2026-03-22T10:32:26.439Z</time></trkpt><trkpt lat="43.163445" lon="13.126265"><ele>719.0</ele><time>2026-03-22T10:32:27.366Z</time></trkpt><trkpt lat="43.16353" lon="13.1264167"><ele>719.0</ele><time>2026-03-22T10:32:28.377Z</time></trkpt><trkpt lat="43.1636267" lon="13.12656"><ele>719.0</ele><time>2026-03-22T10:32:29.374Z</time></trkpt><trkpt lat="43.163725" lon="13.1267"><ele>719.0</ele><time>2026-03-22T10:32:30.381Z</time></trkpt><trkpt lat="43.16383" lon="13.126835"><ele>718.0</ele><time>2026-03-22T10:32:31.377Z</time></trkpt><trkpt lat="43.1639417" lon="13.1269583"><ele>717.0</ele><time>2026-03-22T10:32:32.424Z</time></trkpt><trkpt lat="43.1640483" lon="13.12706"><ele>716.0</ele><time>2026-03-22T10:32:33.373Z</time></trkpt><trkpt lat="43.164145" lon="13.127145"><ele>715.0</ele><time>2026-03-22T10:32:34.37Z</time></trkpt><trkpt lat="43.1642417" lon="13.127205"><ele>715.0</ele><time>2026-03-22T10:32:35.38Z</time></trkpt><trkpt lat="43.1643383" lon="13.1272383"><ele>715.0</ele><time>2026-03-22T10:32:36.365Z</time></trkpt><trkpt lat="43.164415" lon="13.1272567"><ele>715.0</ele><time>2026-03-22T10:32:37.377Z</time></trkpt><trkpt lat="43.16451" lon="13.1271917"><ele>715.0</ele><time>2026-03-22T10:32:39.374Z</time></trkpt><trkpt lat="43.1645283" lon="13.1269817"><ele>715.0</ele><time>2026-03-22T10:32:41.374Z</time></trkpt><trkpt lat="43.1645283" lon="13.1268533"><ele>715.0</ele><time>2026-03-22T10:32:42.372Z</time></trkpt><trkpt lat="43.164535" lon="13.1267433"><ele>715.0</ele><time>2026-03-22T10:32:43.369Z</time></trkpt><trkpt lat="43.1645433" lon="13.12665"><ele>715.0</ele><time>2026-03-22T10:32:44.391Z</time></trkpt><trkpt lat="43.1645517" lon="13.1265483"><ele>715.0</ele><time>2026-03-22T10:32:45.373Z</time></trkpt><trkpt lat="43.1645617" lon="13.126435"><ele>715.0</ele><time>2026-03-22T10:32:46.378Z</time></trkpt><trkpt lat="43.1645783" lon="13.1262967"><ele>715.0</ele><time>2026-03-22T10:32:47.377Z</time></trkpt><trkpt lat="43.1645983" lon="13.12614"><ele>712.25</ele><time>2026-03-22T10:32:48.376Z</time></trkpt><trkpt lat="43.164625" lon="13.125965"><ele>709.5</ele><time>2026-03-22T10:32:49.376Z</time></trkpt><trkpt lat="43.1646567" lon="13.12578"><ele>706.75</ele><time>2026-03-22T10:32:50.39Z</time></trkpt><trkpt lat="43.1646983" lon="13.1255867"><ele>704.0</ele><time>2026-03-22T10:32:51.37Z</time></trkpt><trkpt lat="43.1647483" lon="13.1253833"><ele>707.0</ele><time>2026-03-22T10:32:52.365Z</time></trkpt><trkpt lat="43.164805" lon="13.1251817"><ele>710.0</ele><time>2026-03-22T10:32:53.368Z</time></trkpt><trkpt lat="43.1648667" lon="13.1249817"><ele>713.0</ele><time>2026-03-22T10:32:54.378Z</time></trkpt><trkpt lat="43.1649317" lon="13.1247883"><ele>713.0</ele><time>2026-03-22T10:32:55.36Z</time></trkpt><trkpt lat="43.1649983" lon="13.124605"><ele>713.0</ele><time>2026-03-22T10:32:56.434Z</time></trkpt><trkpt lat="43.16506" lon="13.1244383"><ele>713.0</ele><time>2026-03-22T10:32:57.373Z</time></trkpt><trkpt lat="43.1651233" lon="13.124295"><ele>713.0</ele><time>2026-03-22T10:32:58.363Z</time></trkpt><trkpt lat="43.1651867" lon="13.1241833"><ele>713.0</ele><time>2026-03-22T10:32:59.373Z</time></trkpt><trkpt lat="43.1652367" lon="13.1241033"><ele>713.0</ele><time>2026-03-22T10:33:00.38Z</time></trkpt><trkpt lat="43.165275" lon="13.1240233"><ele>713.0</ele><time>2026-03-22T10:33:01.378Z</time></trkpt><trkpt lat="43.1652867" lon="13.12392"><ele>713.0</ele><time>2026-03-22T10:33:02.429Z</time></trkpt><trkpt lat="43.16529" lon="13.123785"><ele>713.0</ele><time>2026-03-22T10:33:03.371Z</time></trkpt><trkpt lat="43.1653033" lon="13.1236283"><ele>713.0</ele><time>2026-03-22T10:33:04.374Z</time></trkpt><trkpt lat="43.1653233" lon="13.1234767"><ele>710.0</ele><time>2026-03-22T10:33:05.374Z</time></trkpt><trkpt lat="43.16536" lon="13.1233333"><ele>707.0</ele><time>2026-03-22T10:33:06.381Z</time></trkpt><trkpt lat="43.1653983" lon="13.1231867"><ele>704.0</ele><time>2026-03-22T10:33:07.372Z</time></trkpt><trkpt lat="43.16543" lon="13.1230333"><ele>701.0</ele><time>2026-03-22T10:33:08.395Z</time></trkpt><trkpt lat="43.1654633" lon="13.1228817"><ele>699.0</ele><time>2026-03-22T10:33:09.374Z</time></trkpt><trkpt lat="43.1655083" lon="13.1227333"><ele>697.0</ele><time>2026-03-22T10:33:10.372Z</time></trkpt><trkpt lat="43.1655683" lon="13.1225933"><ele>695.0</ele><time>2026-03-22T10:33:11.377Z</time></trkpt><trkpt lat="43.1656367" lon="13.122475"><ele>693.0</ele><time>2026-03-22T10:33:12.377Z</time></trkpt><trkpt lat="43.1657133" lon="13.1223717"><ele>699.4</ele><time>2026-03-22T10:33:13.369Z</time></trkpt><trkpt lat="43.1657933" lon="13.1222767"><ele>705.8</ele><time>2026-03-22T10:33:14.38Z</time></trkpt><trkpt lat="43.165875" lon="13.1221783"><ele>712.2</ele><time>2026-03-22T10:33:15.359Z</time></trkpt><trkpt lat="43.1659533" lon="13.1220883"><ele>718.6</ele><time>2026-03-22T10:33:16.367Z</time></trkpt><trkpt lat="43.1660317" lon="13.1220133"><ele>725.0</ele><time>2026-03-22T10:33:17.378Z</time></trkpt><trkpt lat="43.1661233" lon="13.12196"><ele>725.0</ele><time>2026-03-22T10:33:18.391Z</time></trkpt><trkpt lat="43.1662333" lon="13.1219117"><ele>725.0</ele><time>2026-03-22T10:33:19.383Z</time></trkpt><trkpt lat="43.1663483" lon="13.1218817"><ele>725.0</ele><time>2026-03-22T10:33:20.391Z</time></trkpt><trkpt lat="43.16647" lon="13.1218683"><ele>725.0</ele><time>2026-03-22T10:33:21.38Z</time></trkpt><trkpt lat="43.1666017" lon="13.1218717"><ele>728.25</ele><time>2026-03-22T10:33:22.386Z</time></trkpt><trkpt lat="43.1667283" lon="13.12189"><ele>731.5</ele><time>2026-03-22T10:33:23.352Z</time></trkpt><trkpt lat="43.1668417" lon="13.121925"><ele>734.75</ele><time>2026-03-22T10:33:24.378Z</time></trkpt><trkpt lat="43.1669567" lon="13.1219733"><ele>738.0</ele><time>2026-03-22T10:33:25.383Z</time></trkpt><trkpt lat="43.1670833" lon="13.1220183"><ele>738.0</ele><time>2026-03-22T10:33:26.384Z</time></trkpt><trkpt lat="43.1672133" lon="13.1220583"><ele>738.0</ele><time>2026-03-22T10:33:27.381Z</time></trkpt><trkpt lat="43.1673383" lon="13.1220917"><ele>738.0</ele><time>2026-03-22T10:33:28.383Z</time></trkpt><trkpt lat="43.1674583" lon="13.12212"><ele>738.0</ele><time>2026-03-22T10:33:29.387Z</time></trkpt><trkpt lat="43.1675683" lon="13.1221583"><ele>739.0</ele><time>2026-03-22T10:33:30.385Z</time></trkpt><trkpt lat="43.1676717" lon="13.1221917"><ele>740.0</ele><time>2026-03-22T10:33:31.384Z</time></trkpt><trkpt lat="43.1677717" lon="13.122215"><ele>741.0</ele><time>2026-03-22T10:33:32.425Z</time></trkpt><trkpt lat="43.1678683" lon="13.122235"><ele>742.0</ele><time>2026-03-22T10:33:33.38Z</time></trkpt><trkpt lat="43.1679583" lon="13.122255"><ele>743.0</ele><time>2026-03-22T10:33:34.382Z</time></trkpt><trkpt lat="43.1680433" lon="13.1222867"><ele>743.0</ele><time>2026-03-22T10:33:35.38Z</time></trkpt><trkpt lat="43.168125" lon="13.1223367"><ele>743.0</ele><time>2026-03-22T10:33:36.382Z</time></trkpt><trkpt lat="43.1682067" lon="13.122405"><ele>743.0</ele><time>2026-03-22T10:33:37.382Z</time></trkpt><trkpt lat="43.16829" lon="13.122485"><ele>743.0</ele><time>2026-03-22T10:33:38.4Z</time></trkpt><trkpt lat="43.1683867" lon="13.12256"><ele>743.0</ele><time>2026-03-22T10:33:39.383Z</time></trkpt><trkpt lat="43.1684983" lon="13.122625"><ele>746.5</ele><time>2026-03-22T10:33:40.371Z</time></trkpt><trkpt lat="43.168615" lon="13.122695"><ele>750.0</ele><time>2026-03-22T10:33:41.384Z</time></trkpt><trkpt lat="43.16873" lon="13.122775"><ele>753.5</ele><time>2026-03-22T10:33:42.384Z</time></trkpt><trkpt lat="43.1688483" lon="13.1228567"><ele>757.0</ele><time>2026-03-22T10:33:43.385Z</time></trkpt><trkpt lat="43.1689667" lon="13.1229383"><ele>759.25</ele><time>2026-03-22T10:33:44.402Z</time></trkpt><trkpt lat="43.16907" lon="13.123025"><ele>761.5</ele><time>2026-03-22T10:33:45.385Z</time></trkpt><trkpt lat="43.1691617" lon="13.1231217"><ele>763.75</ele><time>2026-03-22T10:33:46.385Z</time></trkpt><trkpt lat="43.169245" lon="13.12323"><ele>766.0</ele><time>2026-03-22T10:33:47.384Z</time></trkpt><trkpt lat="43.1693267" lon="13.1233333"><ele>766.0</ele><time>2026-03-22T10:33:48.385Z</time></trkpt><trkpt lat="43.1694117" lon="13.1234317"><ele>766.0</ele><time>2026-03-22T10:33:49.382Z</time></trkpt><trkpt lat="43.169505" lon="13.12353"><ele>766.0</ele><time>2026-03-22T10:33:50.405Z</time></trkpt><trkpt lat="43.1696017" lon="13.12363"><ele>766.0</ele><time>2026-03-22T10:33:51.387Z</time></trkpt><trkpt lat="43.1697033" lon="13.1237317"><ele>766.0</ele><time>2026-03-22T10:33:52.387Z</time></trkpt><trkpt lat="43.1698117" lon="13.12384"><ele>766.0</ele><time>2026-03-22T10:33:53.359Z</time></trkpt><trkpt lat="43.1699233" lon="13.1239583"><ele>766.0</ele><time>2026-03-22T10:33:54.387Z</time></trkpt><trkpt lat="43.170035" lon="13.1240867"><ele>766.0</ele><time>2026-03-22T10:33:55.388Z</time></trkpt><trkpt lat="43.1701417" lon="13.1242133"><ele>767.0</ele><time>2026-03-22T10:33:56.439Z</time></trkpt><trkpt lat="43.17024" lon="13.1243333"><ele>768.0</ele><time>2026-03-22T10:33:57.366Z</time></trkpt><trkpt lat="43.1703233" lon="13.1244583"><ele>769.0</ele><time>2026-03-22T10:33:58.387Z</time></trkpt><trkpt lat="43.1704017" lon="13.1245967"><ele>770.0</ele><time>2026-03-22T10:33:59.386Z</time></trkpt><trkpt lat="43.1704783" lon="13.1247367"><ele>770.0</ele><time>2026-03-22T10:34:00.385Z</time></trkpt><trkpt lat="43.1705617" lon="13.1248733"><ele>770.0</ele><time>2026-03-22T10:34:01.385Z</time></trkpt><trkpt lat="43.1706567" lon="13.1250167"><ele>770.0</ele><time>2026-03-22T10:34:02.384Z</time></trkpt><trkpt lat="43.1707467" lon="13.1251617"><ele>770.0</ele><time>2026-03-22T10:34:03.382Z</time></trkpt><trkpt lat="43.1708317" lon="13.12531"><ele>771.0</ele><time>2026-03-22T10:34:04.389Z</time></trkpt><trkpt lat="43.1709117" lon="13.12546"><ele>772.0</ele><time>2026-03-22T10:34:05.383Z</time></trkpt><trkpt lat="43.1709967" lon="13.12561"><ele>773.0</ele><time>2026-03-22T10:34:06.373Z</time></trkpt><trkpt lat="43.1710767" lon="13.1257567"><ele>774.0</ele><time>2026-03-22T10:34:07.386Z</time></trkpt><trkpt lat="43.171145" lon="13.125905"><ele>774.0</ele><time>2026-03-22T10:34:08.401Z</time></trkpt><trkpt lat="43.17121" lon="13.1260483"><ele>774.0</ele><time>2026-03-22T10:34:09.382Z</time></trkpt><trkpt lat="43.17128" lon="13.1261817"><ele>774.0</ele><time>2026-03-22T10:34:10.385Z</time></trkpt><trkpt lat="43.1713517" lon="13.1263033"><ele>774.0</ele><time>2026-03-22T10:34:11.381Z</time></trkpt><trkpt lat="43.17143" lon="13.1264183"><ele>774.0</ele><time>2026-03-22T10:34:12.387Z</time></trkpt><trkpt lat="43.1715217" lon="13.126535"><ele>774.0</ele><time>2026-03-22T10:34:13.384Z</time></trkpt><trkpt lat="43.1716167" lon="13.1266467"><ele>774.0</ele><time>2026-03-22T10:34:14.4Z</time></trkpt><trkpt lat="43.1717017" lon="13.1267567"><ele>774.0</ele><time>2026-03-22T10:34:15.384Z</time></trkpt><trkpt lat="43.1717733" lon="13.1268683"><ele>774.5</ele><time>2026-03-22T10:34:16.385Z</time></trkpt><trkpt lat="43.1718333" lon="13.1269883"><ele>775.0</ele><time>2026-03-22T10:34:17.374Z</time></trkpt><trkpt lat="43.1718883" lon="13.1271267"><ele>775.5</ele><time>2026-03-22T10:34:18.383Z</time></trkpt><trkpt lat="43.171935" lon="13.1272817"><ele>776.0</ele><time>2026-03-22T10:34:19.361Z</time></trkpt><trkpt lat="43.1719817" lon="13.1274317"><ele>776.0</ele><time>2026-03-22T10:34:20.396Z</time></trkpt><trkpt lat="43.1720217" lon="13.1275533"><ele>776.0</ele><time>2026-03-22T10:34:21.381Z</time></trkpt><trkpt lat="43.1720767" lon="13.127675"><ele>776.0</ele><time>2026-03-22T10:34:22.383Z</time></trkpt><trkpt lat="43.1721483" lon="13.1278033"><ele>776.0</ele><time>2026-03-22T10:34:23.384Z</time></trkpt><trkpt lat="43.1722117" lon="13.1279233"><ele>776.0</ele><time>2026-03-22T10:34:24.383Z</time></trkpt><trkpt lat="43.172255" lon="13.1280417"><ele>776.0000000000001</ele><time>2026-03-22T10:34:25.385Z</time></trkpt><trkpt lat="43.1722933" lon="13.1281517"><ele>776.0</ele><time>2026-03-22T10:34:26.44Z</time></trkpt><trkpt lat="43.1723467" lon="13.1282467"><ele>776.0</ele><time>2026-03-22T10:34:27.362Z</time></trkpt><trkpt lat="43.1724117" lon="13.1283333"><ele>776.0</ele><time>2026-03-22T10:34:28.387Z</time></trkpt><trkpt lat="43.1724783" lon="13.1284067"><ele>776.0000000000001</ele><time>2026-03-22T10:34:29.385Z</time></trkpt><trkpt lat="43.1725467" lon="13.1284583"><ele>776.0</ele><time>2026-03-22T10:34:30.384Z</time></trkpt><trkpt lat="43.1726133" lon="13.1284817"><ele>776.25</ele><time>2026-03-22T10:34:31.375Z</time></trkpt><trkpt lat="43.1727233" lon="13.1284017"><ele>776.5</ele><time>2026-03-22T10:34:33.384Z</time></trkpt><trkpt lat="43.172775" lon="13.1282967"><ele>776.75</ele><time>2026-03-22T10:34:34.381Z</time></trkpt><trkpt lat="43.172845" lon="13.1281683"><ele>777.0</ele><time>2026-03-22T10:34:35.382Z</time></trkpt><trkpt lat="43.172945" lon="13.1280417"><ele>774.75</ele><time>2026-03-22T10:34:36.367Z</time></trkpt><trkpt lat="43.17305" lon="13.1279183"><ele>772.5</ele><time>2026-03-22T10:34:37.353Z</time></trkpt><trkpt lat="43.17316" lon="13.127805"><ele>770.25</ele><time>2026-03-22T10:34:38.383Z</time></trkpt><trkpt lat="43.1732717" lon="13.127705"><ele>768.0</ele><time>2026-03-22T10:34:39.381Z</time></trkpt><trkpt lat="43.1733783" lon="13.1276083"><ele>768.0</ele><time>2026-03-22T10:34:40.377Z</time></trkpt><trkpt lat="43.1734833" lon="13.127515"><ele>768.0</ele><time>2026-03-22T10:34:41.357Z</time></trkpt><trkpt lat="43.173595" lon="13.1274333"><ele>768.0</ele><time>2026-03-22T10:34:42.386Z</time></trkpt><trkpt lat="43.1737083" lon="13.1273617"><ele>768.0</ele><time>2026-03-22T10:34:43.385Z</time></trkpt><trkpt lat="43.1738183" lon="13.1273067"><ele>763.25</ele><time>2026-03-22T10:34:44.394Z</time></trkpt><trkpt lat="43.1739267" lon="13.12725"><ele>758.5</ele><time>2026-03-22T10:34:45.384Z</time></trkpt><trkpt lat="43.1740367" lon="13.1272"><ele>753.75</ele><time>2026-03-22T10:34:46.386Z</time></trkpt><trkpt lat="43.1741467" lon="13.1271583"><ele>749.0</ele><time>2026-03-22T10:34:47.378Z</time></trkpt><trkpt lat="43.174265" lon="13.1271367"><ele>749.0</ele><time>2026-03-22T10:34:48.385Z</time></trkpt><trkpt lat="43.1743817" lon="13.1271117"><ele>749.0</ele><time>2026-03-22T10:34:49.381Z</time></trkpt><trkpt lat="43.1744933" lon="13.1270833"><ele>749.0</ele><time>2026-03-22T10:34:50.402Z</time></trkpt><trkpt lat="43.1746" lon="13.1270533"><ele>749.0</ele><time>2026-03-22T10:34:51.385Z</time></trkpt><trkpt lat="43.1747" lon="13.127025"><ele>749.0</ele><time>2026-03-22T10:34:52.385Z</time></trkpt><trkpt lat="43.1748083" lon="13.1270083"><ele>750.6</ele><time>2026-03-22T10:34:53.38Z</time></trkpt><trkpt lat="43.17492" lon="13.1270017"><ele>752.2</ele><time>2026-03-22T10:34:54.39Z</time></trkpt><trkpt lat="43.1750283" lon="13.1269967"><ele>753.8000000000001</ele><time>2026-03-22T10:34:55.381Z</time></trkpt><trkpt lat="43.1751333" lon="13.1269817"><ele>755.4000000000001</ele><time>2026-03-22T10:34:56.443Z</time></trkpt><trkpt lat="43.1752367" lon="13.1269483"><ele>757.0</ele><time>2026-03-22T10:34:57.378Z</time></trkpt><trkpt lat="43.1753233" lon="13.1268867"><ele>757.0</ele><time>2026-03-22T10:34:58.38Z</time></trkpt><trkpt lat="43.1754033" lon="13.12682"><ele>757.0</ele><time>2026-03-22T10:34:59.383Z</time></trkpt><trkpt lat="43.1754833" lon="13.1267767"><ele>757.0</ele><time>2026-03-22T10:35:00.387Z</time></trkpt><trkpt lat="43.1755717" lon="13.1267567"><ele>757.0</ele><time>2026-03-22T10:35:01.388Z</time></trkpt><trkpt lat="43.175675" lon="13.12676"><ele>757.0</ele><time>2026-03-22T10:35:02.385Z</time></trkpt><trkpt lat="43.17578" lon="13.1267767"><ele>757.4000000000001</ele><time>2026-03-22T10:35:03.386Z</time></trkpt><trkpt lat="43.1758783" lon="13.126785"><ele>757.8000000000001</ele><time>2026-03-22T10:35:04.38Z</time></trkpt><trkpt lat="43.1759717" lon="13.126775"><ele>758.2</ele><time>2026-03-22T10:35:05.383Z</time></trkpt><trkpt lat="43.1760517" lon="13.1267317"><ele>758.6</ele><time>2026-03-22T10:35:06.382Z</time></trkpt><trkpt lat="43.1761217" lon="13.1266583"><ele>759.0</ele><time>2026-03-22T10:35:07.384Z</time></trkpt><trkpt lat="43.1761983" lon="13.1265533"><ele>755.0</ele><time>2026-03-22T10:35:08.399Z</time></trkpt><trkpt lat="43.1762917" lon="13.1264617"><ele>751.0</ele><time>2026-03-22T10:35:09.383Z</time></trkpt><trkpt lat="43.1763967" lon="13.1263833"><ele>747.0</ele><time>2026-03-22T10:35:10.374Z</time></trkpt><trkpt lat="43.1765017" lon="13.1263233"><ele>743.0</ele><time>2026-03-22T10:35:11.382Z</time></trkpt><trkpt lat="43.17661" lon="13.1262933"><ele>743.0</ele><time>2026-03-22T10:35:12.389Z</time></trkpt><trkpt lat="43.1767233" lon="13.126285"><ele>743.0</ele><time>2026-03-22T10:35:13.383Z</time></trkpt><trkpt lat="43.176835" lon="13.12627"><ele>743.0</ele><time>2026-03-22T10:35:14.398Z</time></trkpt><trkpt lat="43.176955" lon="13.126245"><ele>743.0</ele><time>2026-03-22T10:35:15.379Z</time></trkpt><trkpt lat="43.1770933" lon="13.1262"><ele>743.0</ele><time>2026-03-22T10:35:16.382Z</time></trkpt><trkpt lat="43.1772483" lon="13.12615"><ele>743.0</ele><time>2026-03-22T10:35:17.359Z</time></trkpt><trkpt lat="43.177415" lon="13.1261217"><ele>743.0</ele><time>2026-03-22T10:35:18.387Z</time></trkpt><trkpt lat="43.1775733" lon="13.1261117"><ele>742.5</ele><time>2026-03-22T10:35:19.369Z</time></trkpt><trkpt lat="43.1777183" lon="13.1261017"><ele>742.0</ele><time>2026-03-22T10:35:20.384Z</time></trkpt><trkpt lat="43.1778633" lon="13.1261017"><ele>741.5</ele><time>2026-03-22T10:35:21.369Z</time></trkpt><trkpt lat="43.1780117" lon="13.1261167"><ele>741.0</ele><time>2026-03-22T10:35:22.378Z</time></trkpt><trkpt lat="43.1781617" lon="13.1261383"><ele>741.75</ele><time>2026-03-22T10:35:23.37Z</time></trkpt><trkpt lat="43.1783083" lon="13.1261467"><ele>742.5</ele><time>2026-03-22T10:35:24.383Z</time></trkpt><trkpt lat="43.1784517" lon="13.1261483"><ele>743.25</ele><time>2026-03-22T10:35:25.381Z</time></trkpt><trkpt lat="43.1785967" lon="13.1261483"><ele>744.0</ele><time>2026-03-22T10:35:26.446Z</time></trkpt><trkpt lat="43.1787433" lon="13.1261433"><ele>744.0</ele><time>2026-03-22T10:35:27.376Z</time></trkpt><trkpt lat="43.1788867" lon="13.1261383"><ele>744.0</ele><time>2026-03-22T10:35:28.382Z</time></trkpt><trkpt lat="43.1790333" lon="13.1261283"><ele>744.0</ele><time>2026-03-22T10:35:29.382Z</time></trkpt><trkpt lat="43.179185" lon="13.1261117"><ele>744.0</ele><time>2026-03-22T10:35:30.381Z</time></trkpt><trkpt lat="43.17935" lon="13.1260817"><ele>743.6666666666666</ele><time>2026-03-22T10:35:31.384Z</time></trkpt><trkpt lat="43.1795283" lon="13.12604"><ele>743.3333333333333</ele><time>2026-03-22T10:35:32.403Z</time></trkpt><trkpt lat="43.1797017" lon="13.1259967"><ele>743.0</ele><time>2026-03-22T10:35:33.383Z</time></trkpt><trkpt lat="43.1798583" lon="13.125955"><ele>742.5999999999999</ele><time>2026-03-22T10:35:34.384Z</time></trkpt><trkpt lat="43.1799983" lon="13.125915"><ele>742.1999999999999</ele><time>2026-03-22T10:35:35.386Z</time></trkpt><trkpt lat="43.1800983" lon="13.1258867"><ele>741.8</ele><time>2026-03-22T10:35:36.363Z</time></trkpt><trkpt lat="43.180175" lon="13.1258717"><ele>741.4</ele><time>2026-03-22T10:35:37.382Z</time></trkpt><trkpt lat="43.180255" lon="13.125865"><ele>741.0</ele><time>2026-03-22T10:35:38.399Z</time></trkpt><trkpt lat="43.1803383" lon="13.1258683"><ele>741.0</ele><time>2026-03-22T10:35:39.38Z</time></trkpt><trkpt lat="43.1804183" lon="13.12588"><ele>741.0</ele><time>2026-03-22T10:35:40.381Z</time></trkpt><trkpt lat="43.1804967" lon="13.1258917"><ele>741.0</ele><time>2026-03-22T10:35:41.384Z</time></trkpt><trkpt lat="43.1805733" lon="13.12591"><ele>741.0</ele><time>2026-03-22T10:35:42.383Z</time></trkpt><trkpt lat="43.18065" lon="13.1259267"><ele>741.0</ele><time>2026-03-22T10:35:43.386Z</time></trkpt><trkpt lat="43.180725" lon="13.1259517"><ele>741.0</ele><time>2026-03-22T10:35:44.398Z</time></trkpt><trkpt lat="43.1808017" lon="13.1259817"><ele>740.4</ele><time>2026-03-22T10:35:45.382Z</time></trkpt><trkpt lat="43.1808817" lon="13.1260183"><ele>739.8</ele><time>2026-03-22T10:35:46.383Z</time></trkpt><trkpt lat="43.1809683" lon="13.1260633"><ele>739.1999999999999</ele><time>2026-03-22T10:35:47.382Z</time></trkpt><trkpt lat="43.1810683" lon="13.1261167"><ele>738.5999999999999</ele><time>2026-03-22T10:35:48.377Z</time></trkpt><trkpt lat="43.1811883" lon="13.12618"><ele>738.0</ele><time>2026-03-22T10:35:49.368Z</time></trkpt><trkpt lat="43.18131" lon="13.1262467"><ele>738.0</ele><time>2026-03-22T10:35:50.404Z</time></trkpt><trkpt lat="43.181425" lon="13.1263"><ele>738.0</ele><time>2026-03-22T10:35:51.376Z</time></trkpt><trkpt lat="43.181535" lon="13.1263283"><ele>738.0</ele><time>2026-03-22T10:35:52.382Z</time></trkpt><trkpt lat="43.181635" lon="13.1263183"><ele>738.0</ele><time>2026-03-22T10:35:53.387Z</time></trkpt><trkpt lat="43.1817467" lon="13.1262683"><ele>737.1666666666666</ele><time>2026-03-22T10:35:54.384Z</time></trkpt><trkpt lat="43.181855" lon="13.12622"><ele>736.3333333333334</ele><time>2026-03-22T10:35:55.386Z</time></trkpt><trkpt lat="43.18195" lon="13.1261733"><ele>735.5</ele><time>2026-03-22T10:35:56.388Z</time></trkpt><trkpt lat="43.1820283" lon="13.1261267"><ele>734.6666666666667</ele><time>2026-03-22T10:35:57.382Z</time></trkpt><trkpt lat="43.1820983" lon="13.126075"><ele>733.8333333333334</ele><time>2026-03-22T10:35:58.383Z</time></trkpt><trkpt lat="43.1821583" lon="13.1260267"><ele>733.0</ele><time>2026-03-22T10:35:59.383Z</time></trkpt><trkpt lat="43.182215" lon="13.1259767"><ele>733.0</ele><time>2026-03-22T10:36:00.382Z</time></trkpt><trkpt lat="43.1822817" lon="13.1259233"><ele>733.0</ele><time>2026-03-22T10:36:01.385Z</time></trkpt><trkpt lat="43.1823667" lon="13.12587"><ele>733.0</ele><time>2026-03-22T10:36:02.363Z</time></trkpt><trkpt lat="43.1824733" lon="13.1258067"><ele>733.0</ele><time>2026-03-22T10:36:03.384Z</time></trkpt><trkpt lat="43.182585" lon="13.1257483"><ele>733.0</ele><time>2026-03-22T10:36:04.385Z</time></trkpt><trkpt lat="43.1827017" lon="13.1256983"><ele>733.2</ele><time>2026-03-22T10:36:05.383Z</time></trkpt><trkpt lat="43.1828117" lon="13.1256517"><ele>733.4</ele><time>2026-03-22T10:36:06.386Z</time></trkpt><trkpt lat="43.1829117" lon="13.125595"><ele>733.6</ele><time>2026-03-22T10:36:07.384Z</time></trkpt><trkpt lat="43.183" lon="13.125525"><ele>733.8000000000001</ele><time>2026-03-22T10:36:08.406Z</time></trkpt><trkpt lat="43.1830833" lon="13.1254467"><ele>734.0</ele><time>2026-03-22T10:36:09.385Z</time></trkpt><trkpt lat="43.1831617" lon="13.125365"><ele>734.2</ele><time>2026-03-22T10:36:10.398Z</time></trkpt><trkpt lat="43.1832417" lon="13.1252783"><ele>734.4000000000001</ele><time>2026-03-22T10:36:11.381Z</time></trkpt><trkpt lat="43.1833183" lon="13.1251883"><ele>734.6</ele><time>2026-03-22T10:36:12.385Z</time></trkpt><trkpt lat="43.1833817" lon="13.1250917"><ele>734.8</ele><time>2026-03-22T10:36:13.386Z</time></trkpt><trkpt lat="43.1834367" lon="13.1249967"><ele>735.0</ele><time>2026-03-22T10:36:14.409Z</time></trkpt><trkpt lat="43.1834917" lon="13.124915"><ele>734.4</ele><time>2026-03-22T10:36:15.371Z</time></trkpt><trkpt lat="43.1835467" lon="13.1248583"><ele>733.8</ele><time>2026-03-22T10:36:16.388Z</time></trkpt><trkpt lat="43.18364" lon="13.1248017"><ele>733.2</ele><time>2026-03-22T10:36:18.384Z</time></trkpt><trkpt lat="43.183675" lon="13.124725"><ele>732.6</ele><time>2026-03-22T10:36:20.393Z</time></trkpt><trkpt lat="43.1836967" lon="13.124635"><ele>732.0</ele><time>2026-03-22T10:36:22.379Z</time></trkpt><trkpt lat="43.1837883" lon="13.1244717"><ele>732.0</ele><time>2026-03-22T10:36:24.385Z</time></trkpt><trkpt lat="43.183855" lon="13.12435"><ele>732.0</ele><time>2026-03-22T10:36:25.389Z</time></trkpt><trkpt lat="43.183915" lon="13.1242067"><ele>732.0</ele><time>2026-03-22T10:36:26.444Z</time></trkpt><trkpt lat="43.1839633" lon="13.1240667"><ele>732.0</ele><time>2026-03-22T10:36:27.378Z</time></trkpt><trkpt lat="43.1840083" lon="13.12394"><ele>732.0</ele><time>2026-03-22T10:36:28.373Z</time></trkpt><trkpt lat="43.1840583" lon="13.123825"><ele>734.1666666666666</ele><time>2026-03-22T10:36:29.386Z</time></trkpt><trkpt lat="43.1841033" lon="13.1237167"><ele>736.3333333333334</ele><time>2026-03-22T10:36:30.384Z</time></trkpt><trkpt lat="43.18414" lon="13.1236183"><ele>738.5</ele><time>2026-03-22T10:36:31.374Z</time></trkpt><trkpt lat="43.1841833" lon="13.1235383"><ele>740.6666666666667</ele><time>2026-03-22T10:36:32.431Z</time></trkpt><trkpt lat="43.1842383" lon="13.1234783"><ele>742.8333333333334</ele><time>2026-03-22T10:36:33.378Z</time></trkpt><trkpt lat="43.1843067" lon="13.1234367"><ele>745.0</ele><time>2026-03-22T10:36:34.382Z</time></trkpt><trkpt lat="43.18438" lon="13.1233933"><ele>745.0</ele><time>2026-03-22T10:36:35.379Z</time></trkpt><trkpt lat="43.184455" lon="13.1233533"><ele>745.0</ele><time>2026-03-22T10:36:36.382Z</time></trkpt><trkpt lat="43.1845233" lon="13.1233183"><ele>745.0</ele><time>2026-03-22T10:36:37.377Z</time></trkpt><trkpt lat="43.1845867" lon="13.1232917"><ele>745.0</ele><time>2026-03-22T10:36:38.405Z</time></trkpt><trkpt lat="43.184685" lon="13.12326"><ele>745.0</ele><time>2026-03-22T10:36:40.383Z</time></trkpt><trkpt lat="43.1847517" lon="13.12321"><ele>745.0</ele><time>2026-03-22T10:36:42.366Z</time></trkpt><trkpt lat="43.184795" lon="13.123125"><ele>746.4</ele><time>2026-03-22T10:36:44.436Z</time></trkpt><trkpt lat="43.1848717" lon="13.1229517"><ele>747.8</ele><time>2026-03-22T10:36:47.395Z</time></trkpt><trkpt lat="43.1849283" lon="13.1228683"><ele>749.2</ele><time>2026-03-22T10:36:48.414Z</time></trkpt><trkpt lat="43.1849883" lon="13.122785"><ele>750.6</ele><time>2026-03-22T10:36:49.367Z</time></trkpt><trkpt lat="43.185055" lon="13.1226933"><ele>752.0</ele><time>2026-03-22T10:36:50.4Z</time></trkpt><trkpt lat="43.1851333" lon="13.1225733"><ele>752.0</ele><time>2026-03-22T10:36:51.39Z</time></trkpt><trkpt lat="43.18523" lon="13.1224383"><ele>752.0</ele><time>2026-03-22T10:36:52.348Z</time></trkpt><trkpt lat="43.1853367" lon="13.1223667"><ele>752.0</ele><time>2026-03-22T10:36:53.363Z</time></trkpt><trkpt lat="43.1854017" lon="13.1223267"><ele>752.0</ele><time>2026-03-22T10:36:54.378Z</time></trkpt><trkpt lat="43.1854767" lon="13.12225"><ele>752.0</ele><time>2026-03-22T10:36:55.374Z</time></trkpt><trkpt lat="43.1855583" lon="13.122155"><ele>752.0</ele><time>2026-03-22T10:36:56.415Z</time></trkpt><trkpt lat="43.18565" lon="13.12204"><ele>752.0</ele><time>2026-03-22T10:36:57.354Z</time></trkpt><trkpt lat="43.1857567" lon="13.1219517"><ele>752.0</ele><time>2026-03-22T10:36:58.379Z</time></trkpt><trkpt lat="43.18588" lon="13.1218783"><ele>752.0</ele><time>2026-03-22T10:36:59.358Z</time></trkpt><trkpt lat="43.1860067" lon="13.121825"><ele>752.0</ele><time>2026-03-22T10:37:00.356Z</time></trkpt><trkpt lat="43.1861367" lon="13.1217867"><ele>752.0</ele><time>2026-03-22T10:37:01.382Z</time></trkpt><trkpt lat="43.1862683" lon="13.121765"><ele>752.0</ele><time>2026-03-22T10:37:02.42Z</time></trkpt><trkpt lat="43.1863983" lon="13.121755"><ele>752.0</ele><time>2026-03-22T10:37:03.366Z</time></trkpt><trkpt lat="43.186525" lon="13.1217617"><ele>751.75</ele><time>2026-03-22T10:37:04.369Z</time></trkpt><trkpt lat="43.1866433" lon="13.121775"><ele>751.5</ele><time>2026-03-22T10:37:05.382Z</time></trkpt><trkpt lat="43.18676" lon="13.1217783"><ele>751.25</ele><time>2026-03-22T10:37:06.383Z</time></trkpt><trkpt lat="43.18688" lon="13.1217533"><ele>751.0</ele><time>2026-03-22T10:37:07.368Z</time></trkpt><trkpt lat="43.1870083" lon="13.1217033"><ele>751.0</ele><time>2026-03-22T10:37:08.409Z</time></trkpt><trkpt lat="43.18714" lon="13.12163"><ele>751.0</ele><time>2026-03-22T10:37:09.379Z</time></trkpt><trkpt lat="43.187285" lon="13.1215433"><ele>751.0</ele><time>2026-03-22T10:37:10.384Z</time></trkpt><trkpt lat="43.1874383" lon="13.1214533"><ele>750.6666666666667</ele><time>2026-03-22T10:37:11.363Z</time></trkpt><trkpt lat="43.1875917" lon="13.12137"><ele>750.3333333333334</ele><time>2026-03-22T10:37:12.38Z</time></trkpt><trkpt lat="43.187745" lon="13.121305"><ele>750.0</ele><time>2026-03-22T10:37:13.385Z</time></trkpt><trkpt lat="43.1878933" lon="13.1212533"><ele>750.0</ele><time>2026-03-22T10:37:14.407Z</time></trkpt><trkpt lat="43.1880367" lon="13.1212067"><ele>750.0</ele><time>2026-03-22T10:37:15.374Z</time></trkpt><trkpt lat="43.1881667" lon="13.121165"><ele>750.0</ele><time>2026-03-22T10:37:16.383Z</time></trkpt><trkpt lat="43.1882917" lon="13.1211083"><ele>750.0</ele><time>2026-03-22T10:37:17.379Z</time></trkpt><trkpt lat="43.1884083" lon="13.1210333"><ele>749.75</ele><time>2026-03-22T10:37:18.386Z</time></trkpt><trkpt lat="43.1885233" lon="13.1209517"><ele>749.5</ele><time>2026-03-22T10:37:19.381Z</time></trkpt><trkpt lat="43.188635" lon="13.1208633"><ele>749.25</ele><time>2026-03-22T10:37:20.405Z</time></trkpt><trkpt lat="43.18875" lon="13.1207767"><ele>749.0</ele><time>2026-03-22T10:37:21.358Z</time></trkpt><trkpt lat="43.188865" lon="13.1206883"><ele>749.25</ele><time>2026-03-22T10:37:22.383Z</time></trkpt><trkpt lat="43.188985" lon="13.1205883"><ele>749.5</ele><time>2026-03-22T10:37:23.382Z</time></trkpt><trkpt lat="43.18911" lon="13.1204867"><ele>749.75</ele><time>2026-03-22T10:37:24.378Z</time></trkpt><trkpt lat="43.1892317" lon="13.1203833"><ele>750.0</ele><time>2026-03-22T10:37:25.381Z</time></trkpt><trkpt lat="43.1893433" lon="13.1202883"><ele>750.0</ele><time>2026-03-22T10:37:26.446Z</time></trkpt><trkpt lat="43.1894417" lon="13.1202117"><ele>750.0</ele><time>2026-03-22T10:37:27.376Z</time></trkpt><trkpt lat="43.189545" lon="13.120155"><ele>750.0</ele><time>2026-03-22T10:37:28.376Z</time></trkpt><trkpt lat="43.189655" lon="13.1201167"><ele>750.0</ele><time>2026-03-22T10:37:29.383Z</time></trkpt><trkpt lat="43.1897633" lon="13.120085"><ele>750.0</ele><time>2026-03-22T10:37:30.385Z</time></trkpt><trkpt lat="43.1898667" lon="13.1200417"><ele>749.0</ele><time>2026-03-22T10:37:31.385Z</time></trkpt><trkpt lat="43.189965" lon="13.1199817"><ele>748.0</ele><time>2026-03-22T10:37:32.391Z</time></trkpt><trkpt lat="43.1900617" lon="13.119915"><ele>747.0</ele><time>2026-03-22T10:37:33.383Z</time></trkpt><trkpt lat="43.190155" lon="13.119855"><ele>746.0</ele><time>2026-03-22T10:37:34.384Z</time></trkpt><trkpt lat="43.19024" lon="13.1198017"><ele>745.0</ele><time>2026-03-22T10:37:35.382Z</time></trkpt><trkpt lat="43.190315" lon="13.11974"><ele>743.8</ele><time>2026-03-22T10:37:36.385Z</time></trkpt><trkpt lat="43.190375" lon="13.1196683"><ele>742.6</ele><time>2026-03-22T10:37:37.386Z</time></trkpt><trkpt lat="43.19042" lon="13.1195867"><ele>741.4000000000001</ele><time>2026-03-22T10:37:38.416Z</time></trkpt><trkpt lat="43.1904433" lon="13.1194733"><ele>740.2</ele><time>2026-03-22T10:37:39.382Z</time></trkpt><trkpt lat="43.190445" lon="13.11933"><ele>739.0</ele><time>2026-03-22T10:37:40.385Z</time></trkpt><trkpt lat="43.19042" lon="13.119165"><ele>737.0</ele><time>2026-03-22T10:37:41.383Z</time></trkpt><trkpt lat="43.1904117" lon="13.1190067"><ele>735.0</ele><time>2026-03-22T10:37:42.381Z</time></trkpt><trkpt lat="43.19041" lon="13.1188433"><ele>733.0</ele><time>2026-03-22T10:37:43.384Z</time></trkpt><trkpt lat="43.1904083" lon="13.1186883"><ele>731.0</ele><time>2026-03-22T10:37:44.412Z</time></trkpt><trkpt lat="43.1904017" lon="13.11854"><ele>731.0</ele><time>2026-03-22T10:37:45.379Z</time></trkpt><trkpt lat="43.1904" lon="13.1184"><ele>731.0</ele><time>2026-03-22T10:37:46.38Z</time></trkpt><trkpt lat="43.1904117" lon="13.1182667"><ele>731.0</ele><time>2026-03-22T10:37:47.384Z</time></trkpt><trkpt lat="43.1904433" lon="13.1181383"><ele>731.0</ele><time>2026-03-22T10:37:48.385Z</time></trkpt><trkpt lat="43.190485" lon="13.1180183"><ele>731.0</ele><time>2026-03-22T10:37:49.371Z</time></trkpt><trkpt lat="43.1905333" lon="13.117905"><ele>732.5</ele><time>2026-03-22T10:37:50.41Z</time></trkpt><trkpt lat="43.1905983" lon="13.1178017"><ele>734.0</ele><time>2026-03-22T10:37:51.383Z</time></trkpt><trkpt lat="43.19068" lon="13.117695"><ele>735.5</ele><time>2026-03-22T10:37:52.382Z</time></trkpt><trkpt lat="43.1907783" lon="13.11758"><ele>737.0</ele><time>2026-03-22T10:37:53.383Z</time></trkpt><trkpt lat="43.19089" lon="13.1174683"><ele>734.0</ele><time>2026-03-22T10:37:54.383Z</time></trkpt><trkpt lat="43.1910033" lon="13.117375"><ele>731.0</ele><time>2026-03-22T10:37:55.384Z</time></trkpt><trkpt lat="43.1911183" lon="13.1173"><ele>728.0</ele><time>2026-03-22T10:37:56.384Z</time></trkpt><trkpt lat="43.1912267" lon="13.1172383"><ele>725.0</ele><time>2026-03-22T10:37:57.364Z</time></trkpt><trkpt lat="43.1913283" lon="13.1171917"><ele>725.0</ele><time>2026-03-22T10:37:58.381Z</time></trkpt><trkpt lat="43.1914183" lon="13.1171717"><ele>725.0</ele><time>2026-03-22T10:37:59.385Z</time></trkpt><trkpt lat="43.1915017" lon="13.1171833"><ele>725.0</ele><time>2026-03-22T10:38:00.385Z</time></trkpt><trkpt lat="43.1915833" lon="13.117215"><ele>725.0</ele><time>2026-03-22T10:38:01.381Z</time></trkpt><trkpt lat="43.1916633" lon="13.11726"><ele>725.0</ele><time>2026-03-22T10:38:02.353Z</time></trkpt><trkpt lat="43.1917433" lon="13.1173017"><ele>725.0</ele><time>2026-03-22T10:38:03.38Z</time></trkpt><trkpt lat="43.191825" lon="13.1173333"><ele>725.2</ele><time>2026-03-22T10:38:04.383Z</time></trkpt><trkpt lat="43.1919017" lon="13.11732"><ele>725.4</ele><time>2026-03-22T10:38:05.384Z</time></trkpt><trkpt lat="43.1919483" lon="13.1172467"><ele>725.5999999999999</ele><time>2026-03-22T10:38:06.384Z</time></trkpt><trkpt lat="43.1919567" lon="13.117105"><ele>725.8</ele><time>2026-03-22T10:38:07.38Z</time></trkpt><trkpt lat="43.1919217" lon="13.116915"><ele>726.0</ele><time>2026-03-22T10:38:08.408Z</time></trkpt><trkpt lat="43.1918867" lon="13.1167417"><ele>726.0</ele><time>2026-03-22T10:38:09.385Z</time></trkpt><trkpt lat="43.1918333" lon="13.1165767"><ele>726.0</ele><time>2026-03-22T10:38:10.378Z</time></trkpt><trkpt lat="43.1917817" lon="13.116425"><ele>726.0</ele><time>2026-03-22T10:38:11.383Z</time></trkpt><trkpt lat="43.1917367" lon="13.11628"><ele>726.0</ele><time>2026-03-22T10:38:12.386Z</time></trkpt><trkpt lat="43.1917017" lon="13.1161417"><ele>724.1999999999999</ele><time>2026-03-22T10:38:13.376Z</time></trkpt><trkpt lat="43.1916867" lon="13.1160083"><ele>722.4</ele><time>2026-03-22T10:38:14.386Z</time></trkpt><trkpt lat="43.1916833" lon="13.1158767"><ele>720.6</ele><time>2026-03-22T10:38:15.357Z</time></trkpt><trkpt lat="43.1916833" lon="13.1157467"><ele>718.8</ele><time>2026-03-22T10:38:16.358Z</time></trkpt><trkpt lat="43.191685" lon="13.11563"><ele>717.0</ele><time>2026-03-22T10:38:17.373Z</time></trkpt><trkpt lat="43.1917" lon="13.1155217"><ele>716.2</ele><time>2026-03-22T10:38:18.385Z</time></trkpt><trkpt lat="43.191735" lon="13.11541"><ele>715.4000000000001</ele><time>2026-03-22T10:38:19.374Z</time></trkpt><trkpt lat="43.1917667" lon="13.11529"><ele>714.5999999999999</ele><time>2026-03-22T10:38:20.402Z</time></trkpt><trkpt lat="43.1917783" lon="13.1151567"><ele>713.8</ele><time>2026-03-22T10:38:21.372Z</time></trkpt><trkpt lat="43.1917717" lon="13.1149983"><ele>713.0</ele><time>2026-03-22T10:38:22.377Z</time></trkpt><trkpt lat="43.1917667" lon="13.1148333"><ele>711.5999999999999</ele><time>2026-03-22T10:38:23.372Z</time></trkpt><trkpt lat="43.1917667" lon="13.114675"><ele>710.1999999999999</ele><time>2026-03-22T10:38:24.376Z</time></trkpt><trkpt lat="43.1917633" lon="13.1145283"><ele>708.8</ele><time>2026-03-22T10:38:25.378Z</time></trkpt><trkpt lat="43.19176" lon="13.1143833"><ele>707.4</ele><time>2026-03-22T10:38:26.41Z</time></trkpt><trkpt lat="43.1917583" lon="13.1142517"><ele>706.0</ele><time>2026-03-22T10:38:27.373Z</time></trkpt><trkpt lat="43.1917583" lon="13.11414"><ele>704.8333333333334</ele><time>2026-03-22T10:38:28.371Z</time></trkpt><trkpt lat="43.1917617" lon="13.1140417"><ele>703.6666666666667</ele><time>2026-03-22T10:38:29.373Z</time></trkpt><trkpt lat="43.19179" lon="13.11396"><ele>702.5</ele><time>2026-03-22T10:38:30.375Z</time></trkpt><trkpt lat="43.191835" lon="13.1138883"><ele>701.3333333333334</ele><time>2026-03-22T10:38:31.368Z</time></trkpt><trkpt lat="43.1918817" lon="13.1138233"><ele>700.1666666666666</ele><time>2026-03-22T10:38:32.378Z</time></trkpt><trkpt lat="43.1919533" lon="13.11368"><ele>699.0</ele><time>2026-03-22T10:38:34.378Z</time></trkpt><trkpt lat="43.1919733" lon="13.1135733"><ele>699.0</ele><time>2026-03-22T10:38:35.373Z</time></trkpt><trkpt lat="43.1919883" lon="13.1134533"><ele>699.0</ele><time>2026-03-22T10:38:36.375Z</time></trkpt><trkpt lat="43.192015" lon="13.11334"><ele>699.0</ele><time>2026-03-22T10:38:37.372Z</time></trkpt><trkpt lat="43.19205" lon="13.1132283"><ele>699.0</ele><time>2026-03-22T10:38:38.394Z</time></trkpt><trkpt lat="43.1920833" lon="13.113115"><ele>699.0</ele><time>2026-03-22T10:38:39.373Z</time></trkpt><trkpt lat="43.1921133" lon="13.113005"><ele>699.0</ele><time>2026-03-22T10:38:40.377Z</time></trkpt><trkpt lat="43.1921383" lon="13.1128917"><ele>697.1666666666666</ele><time>2026-03-22T10:38:41.38Z</time></trkpt><trkpt lat="43.1921533" lon="13.112775"><ele>695.3333333333334</ele><time>2026-03-22T10:38:42.373Z</time></trkpt><trkpt lat="43.1921567" lon="13.11266"><ele>693.5</ele><time>2026-03-22T10:38:43.378Z</time></trkpt><trkpt lat="43.1921683" lon="13.1125583"><ele>691.6666666666667</ele><time>2026-03-22T10:38:44.403Z</time></trkpt><trkpt lat="43.1921983" lon="13.112475"><ele>689.8333333333334</ele><time>2026-03-22T10:38:45.373Z</time></trkpt><trkpt lat="43.1922417" lon="13.1123983"><ele>688.0</ele><time>2026-03-22T10:38:46.359Z</time></trkpt><trkpt lat="43.1922783" lon="13.112315"><ele>686.0</ele><time>2026-03-22T10:38:47.364Z</time></trkpt><trkpt lat="43.1923" lon="13.112225"><ele>684.0</ele><time>2026-03-22T10:38:48.375Z</time></trkpt><trkpt lat="43.192315" lon="13.11212"><ele>682.0</ele><time>2026-03-22T10:38:49.377Z</time></trkpt><trkpt lat="43.1923383" lon="13.11201"><ele>680.0</ele><time>2026-03-22T10:38:50.404Z</time></trkpt><trkpt lat="43.192365" lon="13.1118983"><ele>678.0</ele><time>2026-03-22T10:38:51.373Z</time></trkpt><trkpt lat="43.1923933" lon="13.111785"><ele>676.0</ele><time>2026-03-22T10:38:52.38Z</time></trkpt><trkpt lat="43.1924167" lon="13.1116767"><ele>673.6666666666667</ele><time>2026-03-22T10:38:53.371Z</time></trkpt><trkpt lat="43.192435" lon="13.1115733"><ele>671.3333333333334</ele><time>2026-03-22T10:38:54.376Z</time></trkpt><trkpt lat="43.192445" lon="13.1114667"><ele>669.0</ele><time>2026-03-22T10:38:55.379Z</time></trkpt><trkpt lat="43.19245" lon="13.1113567"><ele>666.6666666666666</ele><time>2026-03-22T10:38:56.42Z</time></trkpt><trkpt lat="43.1924467" lon="13.11125"><ele>664.3333333333333</ele><time>2026-03-22T10:38:57.367Z</time></trkpt><trkpt lat="43.1924533" lon="13.1111517"><ele>662.0</ele><time>2026-03-22T10:38:58.379Z</time></trkpt><trkpt lat="43.1924767" lon="13.1110567"><ele>662.0</ele><time>2026-03-22T10:38:59.378Z</time></trkpt><trkpt lat="43.1925083" lon="13.1109617"><ele>662.0</ele><time>2026-03-22T10:39:00.373Z</time></trkpt><trkpt lat="43.1925317" lon="13.1108633"><ele>662.0</ele><time>2026-03-22T10:39:01.358Z</time></trkpt><trkpt lat="43.1925467" lon="13.1107633"><ele>662.0</ele><time>2026-03-22T10:39:02.427Z</time></trkpt><trkpt lat="43.19256" lon="13.1106633"><ele>662.0</ele><time>2026-03-22T10:39:03.371Z</time></trkpt><trkpt lat="43.1925767" lon="13.1105667"><ele>662.0</ele><time>2026-03-22T10:39:04.377Z</time></trkpt><trkpt lat="43.1925967" lon="13.110475"><ele>662.0</ele><time>2026-03-22T10:39:05.375Z</time></trkpt><trkpt lat="43.1926217" lon="13.1103867"><ele>659.8</ele><time>2026-03-22T10:39:06.377Z</time></trkpt><trkpt lat="43.192655" lon="13.1103117"><ele>657.6</ele><time>2026-03-22T10:39:07.38Z</time></trkpt><trkpt lat="43.19276" lon="13.1102167"><ele>655.4</ele><time>2026-03-22T10:39:09.374Z</time></trkpt><trkpt lat="43.1928733" lon="13.1101617"><ele>653.1999999999999</ele><time>2026-03-22T10:39:11.376Z</time></trkpt><trkpt lat="43.1929783" lon="13.1101433"><ele>651.0</ele><time>2026-03-22T10:39:13.372Z</time></trkpt><trkpt lat="43.1930817" lon="13.11015"><ele>651.0</ele><time>2026-03-22T10:39:15.371Z</time></trkpt><trkpt lat="43.1931567" lon="13.1101"><ele>651.0</ele><time>2026-03-22T10:39:17.36Z</time></trkpt><trkpt lat="43.193195" lon="13.109975"><ele>651.0</ele><time>2026-03-22T10:39:19.367Z</time></trkpt><trkpt lat="43.19319" lon="13.109885"><ele>651.0</ele><time>2026-03-22T10:39:20.404Z</time></trkpt><trkpt lat="43.1931867" lon="13.109785"><ele>651.0</ele><time>2026-03-22T10:39:21.376Z</time></trkpt><trkpt lat="43.1931867" lon="13.1096883"><ele>651.0</ele><time>2026-03-22T10:39:22.377Z</time></trkpt><trkpt lat="43.1932" lon="13.1095917"><ele>646.0</ele><time>2026-03-22T10:39:23.378Z</time></trkpt><trkpt lat="43.1932167" lon="13.109495"><ele>641.0</ele><time>2026-03-22T10:39:24.381Z</time></trkpt><trkpt lat="43.1932367" lon="13.1093933"><ele>636.0</ele><time>2026-03-22T10:39:25.38Z</time></trkpt><trkpt lat="43.1932633" lon="13.1092767"><ele>631.0</ele><time>2026-03-22T10:39:26.395Z</time></trkpt><trkpt lat="43.19329" lon="13.10914"><ele>626.0</ele><time>2026-03-22T10:39:27.371Z</time></trkpt><trkpt lat="43.1933167" lon="13.1089833"><ele>623.0</ele><time>2026-03-22T10:39:28.376Z</time></trkpt><trkpt lat="43.1933417" lon="13.1088133"><ele>620.0</ele><time>2026-03-22T10:39:29.376Z</time></trkpt><trkpt lat="43.1933583" lon="13.10864"><ele>617.0</ele><time>2026-03-22T10:39:30.383Z</time></trkpt><trkpt lat="43.1933617" lon="13.1084583"><ele>614.0</ele><time>2026-03-22T10:39:31.379Z</time></trkpt><trkpt lat="43.19335" lon="13.1082717"><ele>612.5</ele><time>2026-03-22T10:39:32.433Z</time></trkpt><trkpt lat="43.19333" lon="13.1080783"><ele>611.0</ele><time>2026-03-22T10:39:33.375Z</time></trkpt><trkpt lat="43.193315" lon="13.1078833"><ele>609.5</ele><time>2026-03-22T10:39:34.369Z</time></trkpt><trkpt lat="43.193295" lon="13.1076867"><ele>608.0</ele><time>2026-03-22T10:39:35.377Z</time></trkpt><trkpt lat="43.19327" lon="13.1075083"><ele>606.6</ele><time>2026-03-22T10:39:36.381Z</time></trkpt><trkpt lat="43.1932383" lon="13.1073433"><ele>605.1999999999999</ele><time>2026-03-22T10:39:37.368Z</time></trkpt><trkpt lat="43.19321" lon="13.1071883"><ele>603.8</ele><time>2026-03-22T10:39:38.407Z</time></trkpt><trkpt lat="43.19319" lon="13.10705"><ele>602.4</ele><time>2026-03-22T10:39:39.38Z</time></trkpt><trkpt lat="43.19318" lon="13.1069267"><ele>601.0</ele><time>2026-03-22T10:39:40.379Z</time></trkpt><trkpt lat="43.193195" lon="13.1068067"><ele>601.0</ele><time>2026-03-22T10:39:41.377Z</time></trkpt><trkpt lat="43.1932433" lon="13.1066867"><ele>601.0</ele><time>2026-03-22T10:39:42.377Z</time></trkpt><trkpt lat="43.1933133" lon="13.1065533"><ele>601.0</ele><time>2026-03-22T10:39:43.374Z</time></trkpt><trkpt lat="43.193385" lon="13.106415"><ele>601.0</ele><time>2026-03-22T10:39:44.402Z</time></trkpt><trkpt lat="43.1934533" lon="13.10627"><ele>598.75</ele><time>2026-03-22T10:39:45.376Z</time></trkpt><trkpt lat="43.1935133" lon="13.1061217"><ele>596.5</ele><time>2026-03-22T10:39:46.372Z</time></trkpt><trkpt lat="43.1935567" lon="13.1059683"><ele>594.25</ele><time>2026-03-22T10:39:47.377Z</time></trkpt><trkpt lat="43.193585" lon="13.1058033"><ele>592.0</ele><time>2026-03-22T10:39:48.379Z</time></trkpt><trkpt lat="43.1935983" lon="13.1056217"><ele>589.75</ele><time>2026-03-22T10:39:49.381Z</time></trkpt><trkpt lat="43.1936033" lon="13.1054367"><ele>587.5</ele><time>2026-03-22T10:39:50.409Z</time></trkpt><trkpt lat="43.193595" lon="13.1052467"><ele>585.25</ele><time>2026-03-22T10:39:51.378Z</time></trkpt><trkpt lat="43.1935883" lon="13.1050567"><ele>583.0</ele><time>2026-03-22T10:39:52.373Z</time></trkpt><trkpt lat="43.193585" lon="13.104865"><ele>580.5</ele><time>2026-03-22T10:39:53.375Z</time></trkpt><trkpt lat="43.193585" lon="13.1046783"><ele>578.0</ele><time>2026-03-22T10:39:54.377Z</time></trkpt><trkpt lat="43.19359" lon="13.1044883"><ele>575.5</ele><time>2026-03-22T10:39:55.377Z</time></trkpt><trkpt lat="43.1935983" lon="13.1042967"><ele>573.0</ele><time>2026-03-22T10:39:56.438Z</time></trkpt><trkpt lat="43.19362" lon="13.1041017"><ele>570.0</ele><time>2026-03-22T10:39:57.377Z</time></trkpt><trkpt lat="43.1936483" lon="13.1039"><ele>567.0</ele><time>2026-03-22T10:39:58.375Z</time></trkpt><trkpt lat="43.1936683" lon="13.1036983"><ele>564.0</ele><time>2026-03-22T10:39:59.373Z</time></trkpt><trkpt lat="43.1936717" lon="13.1034867"><ele>564.0</ele><time>2026-03-22T10:40:00.378Z</time></trkpt><trkpt lat="43.193655" lon="13.1032783"><ele>564.0</ele><time>2026-03-22T10:40:01.377Z</time></trkpt><trkpt lat="43.19362" lon="13.10308"><ele>564.0</ele><time>2026-03-22T10:40:02.43Z</time></trkpt><trkpt lat="43.1935833" lon="13.1028833"><ele>562.25</ele><time>2026-03-22T10:40:03.372Z</time></trkpt><trkpt lat="43.1935667" lon="13.1026917"><ele>560.5</ele><time>2026-03-22T10:40:04.378Z</time></trkpt><trkpt lat="43.19357" lon="13.1025083"><ele>558.75</ele><time>2026-03-22T10:40:05.371Z</time></trkpt><trkpt lat="43.19358" lon="13.1023383"><ele>557.0</ele><time>2026-03-22T10:40:06.392Z</time></trkpt><trkpt lat="43.19359" lon="13.1021783"><ele>556.4</ele><time>2026-03-22T10:40:07.366Z</time></trkpt><trkpt lat="43.1936" lon="13.1020217"><ele>555.8000000000001</ele><time>2026-03-22T10:40:08.407Z</time></trkpt><trkpt lat="43.1936083" lon="13.1018683"><ele>555.2</ele><time>2026-03-22T10:40:09.377Z</time></trkpt><trkpt lat="43.19362" lon="13.1017217"><ele>554.6</ele><time>2026-03-22T10:40:10.379Z</time></trkpt><trkpt lat="43.193635" lon="13.101585"><ele>554.0</ele><time>2026-03-22T10:40:11.368Z</time></trkpt><trkpt lat="43.1936567" lon="13.1014483"><ele>554.0</ele><time>2026-03-22T10:40:12.38Z</time></trkpt><trkpt lat="43.19368" lon="13.1013117"><ele>554.0</ele><time>2026-03-22T10:40:13.378Z</time></trkpt><trkpt lat="43.1936933" lon="13.1011683"><ele>554.0</ele><time>2026-03-22T10:40:14.404Z</time></trkpt><trkpt lat="43.1936983" lon="13.1010217"><ele>554.0</ele><time>2026-03-22T10:40:15.377Z</time></trkpt><trkpt lat="43.1936967" lon="13.10088"><ele>554.0</ele><time>2026-03-22T10:40:16.374Z</time></trkpt><trkpt lat="43.1936883" lon="13.1007367"><ele>555.8</ele><time>2026-03-22T10:40:17.368Z</time></trkpt><trkpt lat="43.193685" lon="13.1005933"><ele>557.5999999999999</ele><time>2026-03-22T10:40:18.375Z</time></trkpt><trkpt lat="43.1936917" lon="13.100445"><ele>559.4</ele><time>2026-03-22T10:40:19.373Z</time></trkpt><trkpt lat="43.193715" lon="13.1002983"><ele>561.1999999999999</ele><time>2026-03-22T10:40:20.406Z</time></trkpt><trkpt lat="43.19376" lon="13.1001567"><ele>563.0</ele><time>2026-03-22T10:40:21.368Z</time></trkpt><trkpt lat="43.1938333" lon="13.1000233"><ele>562.0</ele><time>2026-03-22T10:40:22.362Z</time></trkpt><trkpt lat="43.1939283" lon="13.0999083"><ele>561.0</ele><time>2026-03-22T10:40:23.352Z</time></trkpt><trkpt lat="43.1940483" lon="13.0997933"><ele>560.0</ele><time>2026-03-22T10:40:24.364Z</time></trkpt><trkpt lat="43.1941783" lon="13.0996833"><ele>559.0</ele><time>2026-03-22T10:40:25.373Z</time></trkpt><trkpt lat="43.1943083" lon="13.09957"><ele>564.0</ele><time>2026-03-22T10:40:26.43Z</time></trkpt><trkpt lat="43.19444" lon="13.0994633"><ele>569.0</ele><time>2026-03-22T10:40:27.37Z</time></trkpt><trkpt lat="43.19457" lon="13.0993583"><ele>574.0</ele><time>2026-03-22T10:40:28.365Z</time></trkpt><trkpt lat="43.1946917" lon="13.0992483"><ele>574.0</ele><time>2026-03-22T10:40:29.377Z</time></trkpt><trkpt lat="43.194805" lon="13.0991283"><ele>574.0</ele><time>2026-03-22T10:40:30.377Z</time></trkpt><trkpt lat="43.1949083" lon="13.0990067"><ele>574.0</ele><time>2026-03-22T10:40:31.367Z</time></trkpt><trkpt lat="43.1950117" lon="13.0988833"><ele>574.0</ele><time>2026-03-22T10:40:32.424Z</time></trkpt><trkpt lat="43.1951167" lon="13.098785"><ele>576.75</ele><time>2026-03-22T10:40:33.376Z</time></trkpt><trkpt lat="43.1952267" lon="13.0987"><ele>579.5</ele><time>2026-03-22T10:40:34.378Z</time></trkpt><trkpt lat="43.19534" lon="13.0986283"><ele>582.25</ele><time>2026-03-22T10:40:35.373Z</time></trkpt><trkpt lat="43.1954567" lon="13.0985667"><ele>585.0</ele><time>2026-03-22T10:40:36.374Z</time></trkpt><trkpt lat="43.1955667" lon="13.0985183"><ele>585.0</ele><time>2026-03-22T10:40:37.372Z</time></trkpt><trkpt lat="43.195665" lon="13.09847"><ele>585.0</ele><time>2026-03-22T10:40:38.411Z</time></trkpt><trkpt lat="43.1957483" lon="13.0984233"><ele>585.0</ele><time>2026-03-22T10:40:39.376Z</time></trkpt><trkpt lat="43.1958267" lon="13.0983733"><ele>585.0</ele><time>2026-03-22T10:40:40.372Z</time></trkpt><trkpt lat="43.19591" lon="13.0983317"><ele>585.0</ele><time>2026-03-22T10:40:41.375Z</time></trkpt><trkpt lat="43.1959883" lon="13.0982933"><ele>585.6</ele><time>2026-03-22T10:40:42.379Z</time></trkpt><trkpt lat="43.1960583" lon="13.0982533"><ele>586.2</ele><time>2026-03-22T10:40:43.376Z</time></trkpt><trkpt lat="43.1961567" lon="13.09816"><ele>586.8</ele><time>2026-03-22T10:40:45.376Z</time></trkpt><trkpt lat="43.196245" lon="13.0980383"><ele>587.4</ele><time>2026-03-22T10:40:47.382Z</time></trkpt><trkpt lat="43.1963033" lon="13.0979683"><ele>588.0</ele><time>2026-03-22T10:40:48.377Z</time></trkpt><trkpt lat="43.196355" lon="13.0978883"><ele>588.0</ele><time>2026-03-22T10:40:49.374Z</time></trkpt><trkpt lat="43.1963983" lon="13.097805"><ele>588.0</ele><time>2026-03-22T10:40:50.404Z</time></trkpt><trkpt lat="43.1964283" lon="13.0977217"><ele>588.0</ele><time>2026-03-22T10:40:51.374Z</time></trkpt><trkpt lat="43.1964583" lon="13.0976"><ele>588.0</ele><time>2026-03-22T10:40:53.373Z</time></trkpt><trkpt lat="43.196485" lon="13.0974783"><ele>588.0</ele><time>2026-03-22T10:41:02.411Z</time></trkpt><trkpt lat="43.1964967" lon="13.0973617"><ele>588.0</ele><time>2026-03-22T10:41:13.373Z</time></trkpt><trkpt lat="43.196535" lon="13.097255"><ele>588.0</ele><time>2026-03-22T10:41:15.375Z</time></trkpt><trkpt lat="43.1965267" lon="13.0973817"><ele>588.0</ele><time>2026-03-22T10:41:22.375Z</time></trkpt><trkpt lat="43.1965017" lon="13.0974717"><ele>588.0</ele><time>2026-03-22T10:41:24.381Z</time></trkpt><trkpt lat="43.1964653" lon="13.0975462"><ele>588.0</ele><time>2026-03-22T10:43:09.378Z</time></trkpt><trkpt lat="43.1964773" lon="13.0974614"><ele>588.0</ele><time>2026-03-22T10:50:24.365Z</time></trkpt><trkpt lat="43.1965037" lon="13.0973496"><ele>588.0</ele><time>2026-03-22T10:50:28.354Z</time></trkpt><trkpt lat="43.1965287" lon="13.0972495"><ele>588.5</ele><time>2026-03-22T10:50:30.373Z</time></trkpt><trkpt lat="43.196565" lon="13.0971322"><ele>589.0</ele><time>2026-03-22T10:50:32.376Z</time></trkpt><trkpt lat="43.1965677" lon="13.0970155"><ele>589.5</ele><time>2026-03-22T10:50:34.375Z</time></trkpt><trkpt lat="43.1965389" lon="13.0969225"><ele>590.0</ele><time>2026-03-22T10:50:36.377Z</time></trkpt><trkpt lat="43.1965032" lon="13.0968188"><ele>590.5</ele><time>2026-03-22T10:50:38.349Z</time></trkpt><trkpt lat="43.1964789" lon="13.096682"><ele>591.0</ele><time>2026-03-22T10:50:40.376Z</time></trkpt><trkpt lat="43.1964713" lon="13.096515"><ele>590.1666666666666</ele><time>2026-03-22T10:50:42.37Z</time></trkpt><trkpt lat="43.1964717" lon="13.096425"><ele>589.3333333333334</ele><time>2026-03-22T10:50:43.377Z</time></trkpt><trkpt lat="43.19648" lon="13.0963317"><ele>588.5</ele><time>2026-03-22T10:50:44.418Z</time></trkpt><trkpt lat="43.1964917" lon="13.0962283"><ele>587.6666666666667</ele><time>2026-03-22T10:50:45.373Z</time></trkpt><trkpt lat="43.1965067" lon="13.0961167"><ele>586.8333333333334</ele><time>2026-03-22T10:50:46.379Z</time></trkpt><trkpt lat="43.1965283" lon="13.0960067"><ele>586.0</ele><time>2026-03-22T10:50:47.374Z</time></trkpt><trkpt lat="43.1965533" lon="13.0959"><ele>586.0</ele><time>2026-03-22T10:50:48.376Z</time></trkpt><trkpt lat="43.1965817" lon="13.095795"><ele>586.0</ele><time>2026-03-22T10:50:49.37Z</time></trkpt><trkpt lat="43.1966133" lon="13.0956917"><ele>586.0</ele><time>2026-03-22T10:50:50.416Z</time></trkpt><trkpt lat="43.1966483" lon="13.0955917"><ele>586.0</ele><time>2026-03-22T10:50:51.374Z</time></trkpt><trkpt lat="43.1966817" lon="13.0954933"><ele>586.0</ele><time>2026-03-22T10:50:52.372Z</time></trkpt><trkpt lat="43.1967133" lon="13.0953933"><ele>586.0</ele><time>2026-03-22T10:50:53.376Z</time></trkpt><trkpt lat="43.1967483" lon="13.0952917"><ele>584.6666666666667</ele><time>2026-03-22T10:50:54.375Z</time></trkpt><trkpt lat="43.1967833" lon="13.095185"><ele>583.3333333333334</ele><time>2026-03-22T10:50:55.376Z</time></trkpt><trkpt lat="43.1968183" lon="13.09508"><ele>582.0</ele><time>2026-03-22T10:50:56.417Z</time></trkpt><trkpt lat="43.19685" lon="13.0949717"><ele>580.6666666666666</ele><time>2026-03-22T10:50:57.373Z</time></trkpt><trkpt lat="43.1968817" lon="13.0948567"><ele>579.3333333333333</ele><time>2026-03-22T10:50:58.368Z</time></trkpt><trkpt lat="43.19691" lon="13.0947383"><ele>578.0</ele><time>2026-03-22T10:50:59.374Z</time></trkpt><trkpt lat="43.1969283" lon="13.09461"><ele>576.6</ele><time>2026-03-22T10:51:00.376Z</time></trkpt><trkpt lat="43.196925" lon="13.094485"><ele>575.1999999999999</ele><time>2026-03-22T10:51:01.37Z</time></trkpt><trkpt lat="43.1969017" lon="13.0943583"><ele>573.8</ele><time>2026-03-22T10:51:02.399Z</time></trkpt><trkpt lat="43.1968483" lon="13.0942383"><ele>572.4</ele><time>2026-03-22T10:51:03.377Z</time></trkpt><trkpt lat="43.1967717" lon="13.0941467"><ele>571.0</ele><time>2026-03-22T10:51:04.375Z</time></trkpt><trkpt lat="43.1966883" lon="13.094075"><ele>571.0</ele><time>2026-03-22T10:51:05.376Z</time></trkpt><trkpt lat="43.1966083" lon="13.0940067"><ele>571.0</ele><time>2026-03-22T10:51:06.382Z</time></trkpt><trkpt lat="43.1965267" lon="13.0939317"><ele>571.0</ele><time>2026-03-22T10:51:07.379Z</time></trkpt><trkpt lat="43.1964517" lon="13.093855"><ele>571.0</ele><time>2026-03-22T10:51:08.416Z</time></trkpt><trkpt lat="43.196375" lon="13.093775"><ele>571.0</ele><time>2026-03-22T10:51:09.376Z</time></trkpt><trkpt lat="43.1963033" lon="13.0936983"><ele>571.0</ele><time>2026-03-22T10:51:10.376Z</time></trkpt><trkpt lat="43.1962483" lon="13.0936267"><ele>571.0</ele><time>2026-03-22T10:51:11.376Z</time></trkpt><trkpt lat="43.1962" lon="13.0935583"><ele>571.0</ele><time>2026-03-22T10:51:12.375Z</time></trkpt><trkpt lat="43.19615" lon="13.093485"><ele>571.0</ele><time>2026-03-22T10:51:13.373Z</time></trkpt><trkpt lat="43.1960933" lon="13.09341"><ele>571.0</ele><time>2026-03-22T10:51:14.414Z</time></trkpt><trkpt lat="43.1960317" lon="13.093325"><ele>571.0</ele><time>2026-03-22T10:51:15.372Z</time></trkpt><trkpt lat="43.195965" lon="13.0932317"><ele>569.8</ele><time>2026-03-22T10:51:16.377Z</time></trkpt><trkpt lat="43.1958917" lon="13.0931283"><ele>568.6</ele><time>2026-03-22T10:51:17.375Z</time></trkpt><trkpt lat="43.195815" lon="13.0930183"><ele>567.4</ele><time>2026-03-22T10:51:18.377Z</time></trkpt><trkpt lat="43.1957383" lon="13.092905"><ele>566.2</ele><time>2026-03-22T10:51:19.376Z</time></trkpt><trkpt lat="43.19566" lon="13.09279"><ele>565.0</ele><time>2026-03-22T10:51:20.414Z</time></trkpt><trkpt lat="43.19559" lon="13.0926717"><ele>565.0</ele><time>2026-03-22T10:51:21.372Z</time></trkpt><trkpt lat="43.19553" lon="13.0925533"><ele>565.0</ele><time>2026-03-22T10:51:22.377Z</time></trkpt><trkpt lat="43.195485" lon="13.09245"><ele>565.0</ele><time>2026-03-22T10:51:23.36Z</time></trkpt><trkpt lat="43.1954533" lon="13.0923567"><ele>565.0</ele><time>2026-03-22T10:51:24.378Z</time></trkpt><trkpt lat="43.1954283" lon="13.0922767"><ele>565.0</ele><time>2026-03-22T10:51:25.386Z</time></trkpt><trkpt lat="43.1953667" lon="13.0921967"><ele>565.0</ele><time>2026-03-22T10:51:27.376Z</time></trkpt><trkpt lat="43.1953733" lon="13.0923167"><ele>565.0</ele><time>2026-03-22T10:51:31.377Z</time></trkpt><trkpt lat="43.1953983" lon="13.092435"><ele>565.0</ele><time>2026-03-22T10:51:33.37Z</time></trkpt><trkpt lat="43.1954283" lon="13.09254"><ele>565.0</ele><time>2026-03-22T10:51:35.363Z</time></trkpt><trkpt lat="43.1955" lon="13.0925633"><ele>565.0</ele><time>2026-03-22T10:51:38.416Z</time></trkpt><trkpt lat="43.1955533" lon="13.09245"><ele>565.0</ele><time>2026-03-22T10:51:40.365Z</time></trkpt><trkpt lat="43.1955717" lon="13.09236"><ele>565.0</ele><time>2026-03-22T10:51:41.374Z</time></trkpt><trkpt lat="43.195585" lon="13.0922533"><ele>566.6666666666667</ele><time>2026-03-22T10:51:42.385Z</time></trkpt><trkpt lat="43.1955883" lon="13.0921383"><ele>568.3333333333334</ele><time>2026-03-22T10:51:43.381Z</time></trkpt><trkpt lat="43.1955983" lon="13.0920217"><ele>570.0</ele><time>2026-03-22T10:51:44.411Z</time></trkpt><trkpt lat="43.1955983" lon="13.0919067"><ele>571.6666666666666</ele><time>2026-03-22T10:51:45.378Z</time></trkpt><trkpt lat="43.195595" lon="13.09179"><ele>573.3333333333333</ele><time>2026-03-22T10:51:46.377Z</time></trkpt><trkpt lat="43.195575" lon="13.0916717"><ele>575.0</ele><time>2026-03-22T10:51:47.379Z</time></trkpt><trkpt lat="43.19555" lon="13.0915483"><ele>576.8</ele><time>2026-03-22T10:51:48.381Z</time></trkpt><trkpt lat="43.1955167" lon="13.0914267"><ele>578.6</ele><time>2026-03-22T10:51:49.375Z</time></trkpt><trkpt lat="43.1954767" lon="13.091305"><ele>580.4</ele><time>2026-03-22T10:51:50.416Z</time></trkpt><trkpt lat="43.19543" lon="13.0911783"><ele>582.2</ele><time>2026-03-22T10:51:51.372Z</time></trkpt><trkpt lat="43.195375" lon="13.0910517"><ele>584.0</ele><time>2026-03-22T10:51:52.376Z</time></trkpt><trkpt lat="43.19532" lon="13.0909233"><ele>584.0</ele><time>2026-03-22T10:51:53.381Z</time></trkpt><trkpt lat="43.195265" lon="13.090795"><ele>584.0</ele><time>2026-03-22T10:51:54.38Z</time></trkpt><trkpt lat="43.19521" lon="13.0906683"><ele>584.0</ele><time>2026-03-22T10:51:55.377Z</time></trkpt><trkpt lat="43.19515" lon="13.09055"><ele>584.0</ele><time>2026-03-22T10:51:56.403Z</time></trkpt><trkpt lat="43.19509" lon="13.0904383"><ele>584.0</ele><time>2026-03-22T10:51:57.375Z</time></trkpt><trkpt lat="43.195035" lon="13.0903317"><ele>583.4</ele><time>2026-03-22T10:51:58.378Z</time></trkpt><trkpt lat="43.1949867" lon="13.09022"><ele>582.8</ele><time>2026-03-22T10:51:59.374Z</time></trkpt><trkpt lat="43.19494" lon="13.0901017"><ele>582.2</ele><time>2026-03-22T10:52:00.378Z</time></trkpt><trkpt lat="43.1949" lon="13.0899717"><ele>581.6</ele><time>2026-03-22T10:52:01.374Z</time></trkpt><trkpt lat="43.1948617" lon="13.0898283"><ele>581.0</ele><time>2026-03-22T10:52:02.441Z</time></trkpt><trkpt lat="43.1948217" lon="13.08967"><ele>584.0</ele><time>2026-03-22T10:52:03.375Z</time></trkpt><trkpt lat="43.1947783" lon="13.08951"><ele>587.0</ele><time>2026-03-22T10:52:04.376Z</time></trkpt><trkpt lat="43.19473" lon="13.089345"><ele>590.0</ele><time>2026-03-22T10:52:05.359Z</time></trkpt><trkpt lat="43.1946717" lon="13.0891867"><ele>593.0</ele><time>2026-03-22T10:52:06.382Z</time></trkpt><trkpt lat="43.194615" lon="13.0890217"><ele>593.0</ele><time>2026-03-22T10:52:07.378Z</time></trkpt><trkpt lat="43.1945683" lon="13.0888467"><ele>593.0</ele><time>2026-03-22T10:52:08.417Z</time></trkpt><trkpt lat="43.194525" lon="13.0886633"><ele>593.0</ele><time>2026-03-22T10:52:09.374Z</time></trkpt><trkpt lat="43.19449" lon="13.0884683"><ele>593.0</ele><time>2026-03-22T10:52:10.373Z</time></trkpt><trkpt lat="43.194465" lon="13.0882667"><ele>591.75</ele><time>2026-03-22T10:52:11.376Z</time></trkpt><trkpt lat="43.1944617" lon="13.0880633"><ele>590.5</ele><time>2026-03-22T10:52:12.38Z</time></trkpt><trkpt lat="43.1944683" lon="13.087865"><ele>589.25</ele><time>2026-03-22T10:52:13.377Z</time></trkpt><trkpt lat="43.1944933" lon="13.0876767"><ele>588.0</ele><time>2026-03-22T10:52:14.413Z</time></trkpt><trkpt lat="43.194525" lon="13.0875033"><ele>587.25</ele><time>2026-03-22T10:52:15.378Z</time></trkpt><trkpt lat="43.1945683" lon="13.0873367"><ele>586.5</ele><time>2026-03-22T10:52:16.38Z</time></trkpt><trkpt lat="43.1946117" lon="13.0871767"><ele>585.75</ele><time>2026-03-22T10:52:17.37Z</time></trkpt><trkpt lat="43.19465" lon="13.0870233"><ele>585.0</ele><time>2026-03-22T10:52:18.371Z</time></trkpt><trkpt lat="43.19468" lon="13.08688"><ele>585.0</ele><time>2026-03-22T10:52:19.363Z</time></trkpt><trkpt lat="43.194685" lon="13.086745"><ele>585.0</ele><time>2026-03-22T10:52:20.391Z</time></trkpt><trkpt lat="43.1946767" lon="13.0866067"><ele>585.0</ele><time>2026-03-22T10:52:21.348Z</time></trkpt><trkpt lat="43.19465" lon="13.0864717"><ele>585.0</ele><time>2026-03-22T10:52:22.348Z</time></trkpt><trkpt lat="43.19463" lon="13.08632"><ele>585.0</ele><time>2026-03-22T10:52:23.375Z</time></trkpt><trkpt lat="43.1946067" lon="13.0861483"><ele>583.0</ele><time>2026-03-22T10:52:24.355Z</time></trkpt><trkpt lat="43.1945817" lon="13.0859633"><ele>581.0</ele><time>2026-03-22T10:52:25.366Z</time></trkpt><trkpt lat="43.19455" lon="13.085795"><ele>579.0</ele><time>2026-03-22T10:52:26.43Z</time></trkpt><trkpt lat="43.1945217" lon="13.0856267"><ele>577.0</ele><time>2026-03-22T10:52:27.358Z</time></trkpt><trkpt lat="43.1944817" lon="13.08547"><ele>575.75</ele><time>2026-03-22T10:52:28.351Z</time></trkpt><trkpt lat="43.1944383" lon="13.08531"><ele>574.5</ele><time>2026-03-22T10:52:29.349Z</time></trkpt><trkpt lat="43.1943833" lon="13.08515"><ele>573.25</ele><time>2026-03-22T10:52:30.351Z</time></trkpt><trkpt lat="43.1943267" lon="13.0849883"><ele>572.0</ele><time>2026-03-22T10:52:31.352Z</time></trkpt><trkpt lat="43.194285" lon="13.0848133"><ele>572.0</ele><time>2026-03-22T10:52:32.417Z</time></trkpt><trkpt lat="43.1942633" lon="13.0846217"><ele>572.0</ele><time>2026-03-22T10:52:33.351Z</time></trkpt><trkpt lat="43.1942583" lon="13.0844367"><ele>572.0</ele><time>2026-03-22T10:52:34.361Z</time></trkpt><trkpt lat="43.19425" lon="13.0842467"><ele>572.0</ele><time>2026-03-22T10:52:35.374Z</time></trkpt><trkpt lat="43.1942383" lon="13.0840567"><ele>572.5</ele><time>2026-03-22T10:52:36.372Z</time></trkpt><trkpt lat="43.194235" lon="13.083865"><ele>573.0</ele><time>2026-03-22T10:52:37.373Z</time></trkpt><trkpt lat="43.1942283" lon="13.0836733"><ele>573.5</ele><time>2026-03-22T10:52:38.388Z</time></trkpt><trkpt lat="43.1942233" lon="13.0834883"><ele>574.0</ele><time>2026-03-22T10:52:39.368Z</time></trkpt><trkpt lat="43.1942267" lon="13.0833117"><ele>574.5</ele><time>2026-03-22T10:52:40.354Z</time></trkpt><trkpt lat="43.1942333" lon="13.0831333"><ele>575.0</ele><time>2026-03-22T10:52:41.376Z</time></trkpt><trkpt lat="43.19424" lon="13.0829617"><ele>575.5</ele><time>2026-03-22T10:52:42.361Z</time></trkpt><trkpt lat="43.1942517" lon="13.082795"><ele>576.0</ele><time>2026-03-22T10:52:43.361Z</time></trkpt><trkpt lat="43.1942767" lon="13.082635"><ele>576.0</ele><time>2026-03-22T10:52:44.394Z</time></trkpt><trkpt lat="43.194315" lon="13.0824767"><ele>576.0</ele><time>2026-03-22T10:52:45.373Z</time></trkpt><trkpt lat="43.1943567" lon="13.08232"><ele>576.0</ele><time>2026-03-22T10:52:46.401Z</time></trkpt><trkpt lat="43.1943967" lon="13.0821733"><ele>576.0</ele><time>2026-03-22T10:52:47.347Z</time></trkpt><trkpt lat="43.1944367" lon="13.0820383"><ele>576.5</ele><time>2026-03-22T10:52:48.379Z</time></trkpt><trkpt lat="43.1944667" lon="13.081925"><ele>577.0</ele><time>2026-03-22T10:52:49.369Z</time></trkpt><trkpt lat="43.1944783" lon="13.081835"><ele>577.5</ele><time>2026-03-22T10:52:50.409Z</time></trkpt><trkpt lat="43.19443" lon="13.08171"><ele>578.0</ele><time>2026-03-22T10:52:52.378Z</time></trkpt><trkpt lat="43.1943633" lon="13.0816617"><ele>578.5</ele><time>2026-03-22T10:52:53.378Z</time></trkpt><trkpt lat="43.1942783" lon="13.0816"><ele>579.0</ele><time>2026-03-22T10:52:54.35Z</time></trkpt><trkpt lat="43.1941883" lon="13.0815233"><ele>579.0</ele><time>2026-03-22T10:52:55.342Z</time></trkpt><trkpt lat="43.1941" lon="13.0814333"><ele>579.0</ele><time>2026-03-22T10:52:56.433Z</time></trkpt><trkpt lat="43.1940117" lon="13.0813267"><ele>579.0</ele><time>2026-03-22T10:52:57.382Z</time></trkpt><trkpt lat="43.193925" lon="13.081215"><ele>579.0</ele><time>2026-03-22T10:52:58.382Z</time></trkpt><trkpt lat="43.1938367" lon="13.08111"><ele>579.0</ele><time>2026-03-22T10:52:59.385Z</time></trkpt><trkpt lat="43.1937483" lon="13.081015"><ele>579.0</ele><time>2026-03-22T10:53:00.383Z</time></trkpt><trkpt lat="43.19367" lon="13.0809233"><ele>579.0</ele><time>2026-03-22T10:53:01.38Z</time></trkpt><trkpt lat="43.1936033" lon="13.0808333"><ele>579.0</ele><time>2026-03-22T10:53:02.442Z</time></trkpt><trkpt lat="43.1935433" lon="13.0807483"><ele>579.0</ele><time>2026-03-22T10:53:03.378Z</time></trkpt><trkpt lat="43.1934883" lon="13.080685"><ele>578.2</ele><time>2026-03-22T10:53:04.375Z</time></trkpt><trkpt lat="43.1934333" lon="13.0806383"><ele>577.4</ele><time>2026-03-22T10:53:05.387Z</time></trkpt><trkpt lat="43.1933167" lon="13.0805617"><ele>576.6</ele><time>2026-03-22T10:53:07.383Z</time></trkpt><trkpt lat="43.1932217" lon="13.08047"><ele>575.8</ele><time>2026-03-22T10:53:09.364Z</time></trkpt><trkpt lat="43.1931617" lon="13.0803883"><ele>575.0</ele><time>2026-03-22T10:53:11.387Z</time></trkpt><trkpt lat="43.19315" lon="13.080285"><ele>572.2</ele><time>2026-03-22T10:53:14.389Z</time></trkpt><trkpt lat="43.1930767" lon="13.0802083"><ele>569.4</ele><time>2026-03-22T10:53:18.366Z</time></trkpt><trkpt lat="43.1929983" lon="13.0801167"><ele>566.6</ele><time>2026-03-22T10:53:20.41Z</time></trkpt><trkpt lat="43.1929183" lon="13.0799917"><ele>563.8</ele><time>2026-03-22T10:53:22.39Z</time></trkpt><trkpt lat="43.1928717" lon="13.0799167"><ele>561.0</ele><time>2026-03-22T10:53:23.352Z</time></trkpt><trkpt lat="43.1928283" lon="13.0798433"><ele>559.8333333333334</ele><time>2026-03-22T10:53:24.385Z</time></trkpt><trkpt lat="43.1927733" lon="13.0797717"><ele>558.6666666666666</ele><time>2026-03-22T10:53:25.386Z</time></trkpt><trkpt lat="43.19271" lon="13.0796983"><ele>557.5</ele><time>2026-03-22T10:53:26.449Z</time></trkpt><trkpt lat="43.19264" lon="13.0796283"><ele>556.3333333333333</ele><time>2026-03-22T10:53:27.374Z</time></trkpt><trkpt lat="43.192565" lon="13.079555"><ele>555.1666666666666</ele><time>2026-03-22T10:53:28.371Z</time></trkpt><trkpt lat="43.1924867" lon="13.0794883"><ele>554.0</ele><time>2026-03-22T10:53:29.385Z</time></trkpt><trkpt lat="43.1924083" lon="13.0794117"><ele>550.4</ele><time>2026-03-22T10:53:30.38Z</time></trkpt><trkpt lat="43.1923317" lon="13.07933"><ele>546.8</ele><time>2026-03-22T10:53:31.386Z</time></trkpt><trkpt lat="43.1922517" lon="13.07924"><ele>543.2</ele><time>2026-03-22T10:53:32.444Z</time></trkpt><trkpt lat="43.192165" lon="13.0791483"><ele>539.6</ele><time>2026-03-22T10:53:33.379Z</time></trkpt><trkpt lat="43.19207" lon="13.0790533"><ele>536.0</ele><time>2026-03-22T10:53:34.385Z</time></trkpt><trkpt lat="43.1919733" lon="13.0789517"><ele>535.6</ele><time>2026-03-22T10:53:35.381Z</time></trkpt><trkpt lat="43.1918783" lon="13.0788417"><ele>535.2</ele><time>2026-03-22T10:53:36.391Z</time></trkpt><trkpt lat="43.19179" lon="13.0787367"><ele>534.8</ele><time>2026-03-22T10:53:37.384Z</time></trkpt><trkpt lat="43.19171" lon="13.0786383"><ele>534.4</ele><time>2026-03-22T10:53:38.417Z</time></trkpt><trkpt lat="43.1916533" lon="13.0785583"><ele>534.0</ele><time>2026-03-22T10:53:39.376Z</time></trkpt><trkpt lat="43.1915817" lon="13.07846"><ele>534.0</ele><time>2026-03-22T10:53:41.387Z</time></trkpt><trkpt lat="43.1915333" lon="13.0783617"><ele>534.0</ele><time>2026-03-22T10:53:43.363Z</time></trkpt><trkpt lat="43.1915017" lon="13.0782217"><ele>534.0</ele><time>2026-03-22T10:53:45.377Z</time></trkpt><trkpt lat="43.1914633" lon="13.0780717"><ele>534.0</ele><time>2026-03-22T10:53:47.385Z</time></trkpt><trkpt lat="43.1914417" lon="13.0779833"><ele>534.0</ele><time>2026-03-22T10:53:48.387Z</time></trkpt><trkpt lat="43.191415" lon="13.0778883"><ele>531.4285714285714</ele><time>2026-03-22T10:53:49.386Z</time></trkpt><trkpt lat="43.1913883" lon="13.0777967"><ele>528.8571428571429</ele><time>2026-03-22T10:53:50.42Z</time></trkpt><trkpt lat="43.1913483" lon="13.0777117"><ele>526.2857142857142</ele><time>2026-03-22T10:53:51.372Z</time></trkpt><trkpt lat="43.1913" lon="13.0776383"><ele>523.7142857142858</ele><time>2026-03-22T10:53:52.378Z</time></trkpt><trkpt lat="43.191245" lon="13.0775683"><ele>521.1428571428571</ele><time>2026-03-22T10:53:53.37Z</time></trkpt><trkpt lat="43.1911933" lon="13.0774967"><ele>518.5714285714286</ele><time>2026-03-22T10:53:54.387Z</time></trkpt><trkpt lat="43.191145" lon="13.0774233"><ele>516.0</ele><time>2026-03-22T10:53:55.382Z</time></trkpt><trkpt lat="43.1911033" lon="13.0773517"><ele>515.6666666666666</ele><time>2026-03-22T10:53:56.438Z</time></trkpt><trkpt lat="43.191035" lon="13.0772717"><ele>515.3333333333334</ele><time>2026-03-22T10:53:58.384Z</time></trkpt><trkpt lat="43.1909933" lon="13.0771967"><ele>515.0</ele><time>2026-03-22T10:54:00.364Z</time></trkpt><trkpt lat="43.1909383" lon="13.07711"><ele>514.6666666666667</ele><time>2026-03-22T10:54:02.438Z</time></trkpt><trkpt lat="43.1909017" lon="13.0770367"><ele>514.3333333333334</ele><time>2026-03-22T10:54:03.38Z</time></trkpt><trkpt lat="43.1908683" lon="13.0769417"><ele>514.0</ele><time>2026-03-22T10:54:04.39Z</time></trkpt><trkpt lat="43.1908383" lon="13.0768383"><ele>514.0</ele><time>2026-03-22T10:54:05.385Z</time></trkpt><trkpt lat="43.19081" lon="13.07674"><ele>514.0</ele><time>2026-03-22T10:54:06.385Z</time></trkpt><trkpt lat="43.19078" lon="13.07665"><ele>514.0</ele><time>2026-03-22T10:54:07.388Z</time></trkpt><trkpt lat="43.190745" lon="13.0765633"><ele>514.0</ele><time>2026-03-22T10:54:08.426Z</time></trkpt><trkpt lat="43.1906983" lon="13.076485"><ele>514.0</ele><time>2026-03-22T10:54:09.384Z</time></trkpt><trkpt lat="43.1906517" lon="13.0764117"><ele>514.0</ele><time>2026-03-22T10:54:10.375Z</time></trkpt><trkpt lat="43.1906017" lon="13.0763383"><ele>514.0</ele><time>2026-03-22T10:54:11.384Z</time></trkpt><trkpt lat="43.1905533" lon="13.0762683"><ele>511.00000000000006</ele><time>2026-03-22T10:54:12.382Z</time></trkpt><trkpt lat="43.19051" lon="13.0762"><ele>508.0</ele><time>2026-03-22T10:54:13.384Z</time></trkpt><trkpt lat="43.19044" lon="13.0760833"><ele>505.0</ele><time>2026-03-22T10:54:15.377Z</time></trkpt><trkpt lat="43.190405" lon="13.0760017"><ele>502.0</ele><time>2026-03-22T10:54:17.367Z</time></trkpt><trkpt lat="43.1904333" lon="13.0760967"><ele>499.00000000000006</ele><time>2026-03-22T10:54:23.377Z</time></trkpt><trkpt lat="43.19048" lon="13.0761567"><ele>496.0</ele><time>2026-03-22T10:54:24.377Z</time></trkpt><trkpt lat="43.19053" lon="13.0762267"><ele>496.0</ele><time>2026-03-22T10:54:25.383Z</time></trkpt><trkpt lat="43.1905833" lon="13.0763033"><ele>496.0</ele><time>2026-03-22T10:54:26.446Z</time></trkpt><trkpt lat="43.1906417" lon="13.0763933"><ele>496.0</ele><time>2026-03-22T10:54:27.376Z</time></trkpt><trkpt lat="43.1907083" lon="13.0765"><ele>496.0</ele><time>2026-03-22T10:54:28.384Z</time></trkpt><trkpt lat="43.1907733" lon="13.0766167"><ele>496.0</ele><time>2026-03-22T10:54:29.386Z</time></trkpt><trkpt lat="43.19083" lon="13.0767467"><ele>499.00000000000006</ele><time>2026-03-22T10:54:30.388Z</time></trkpt><trkpt lat="43.190875" lon="13.0768733"><ele>502.0</ele><time>2026-03-22T10:54:31.371Z</time></trkpt><trkpt lat="43.190915" lon="13.0769933"><ele>505.0</ele><time>2026-03-22T10:54:32.408Z</time></trkpt><trkpt lat="43.190945" lon="13.0770867"><ele>508.0</ele><time>2026-03-22T10:54:33.39Z</time></trkpt><trkpt lat="43.19097" lon="13.0771667"><ele>511.00000000000006</ele><time>2026-03-22T10:54:34.387Z</time></trkpt><trkpt lat="43.191045" lon="13.07718"><ele>514.0</ele><time>2026-03-22T10:54:36.388Z</time></trkpt><trkpt lat="43.1910917" lon="13.0771067"><ele>514.0</ele><time>2026-03-22T10:54:37.365Z</time></trkpt><trkpt lat="43.19117" lon="13.07702"><ele>514.0</ele><time>2026-03-22T10:54:38.425Z</time></trkpt><trkpt lat="43.1912567" lon="13.0769483"><ele>514.0</ele><time>2026-03-22T10:54:39.373Z</time></trkpt><trkpt lat="43.1913533" lon="13.0768933"><ele>514.0</ele><time>2026-03-22T10:54:40.384Z</time></trkpt><trkpt lat="43.1914567" lon="13.0768667"><ele>514.0</ele><time>2026-03-22T10:54:41.387Z</time></trkpt><trkpt lat="43.191555" lon="13.0768533"><ele>514.1666666666667</ele><time>2026-03-22T10:54:42.387Z</time></trkpt><trkpt lat="43.1916467" lon="13.0768367"><ele>514.3333333333334</ele><time>2026-03-22T10:54:43.385Z</time></trkpt><trkpt lat="43.1917283" lon="13.076805"><ele>514.5</ele><time>2026-03-22T10:54:44.413Z</time></trkpt><trkpt lat="43.1918067" lon="13.0767617"><ele>514.6666666666666</ele><time>2026-03-22T10:54:45.368Z</time></trkpt><trkpt lat="43.1918867" lon="13.0767017"><ele>514.8333333333333</ele><time>2026-03-22T10:54:46.38Z</time></trkpt><trkpt lat="43.191965" lon="13.076625"><ele>515.0</ele><time>2026-03-22T10:54:47.384Z</time></trkpt><trkpt lat="43.1920367" lon="13.0765267"><ele>513.5</ele><time>2026-03-22T10:54:48.388Z</time></trkpt><trkpt lat="43.1921133" lon="13.07642"><ele>512.0</ele><time>2026-03-22T10:54:49.383Z</time></trkpt><trkpt lat="43.1921983" lon="13.076305"><ele>510.5</ele><time>2026-03-22T10:54:50.424Z</time></trkpt><trkpt lat="43.1922833" lon="13.0761817"><ele>509.0</ele><time>2026-03-22T10:54:51.383Z</time></trkpt><trkpt lat="43.1923783" lon="13.076055"><ele>509.0</ele><time>2026-03-22T10:54:52.387Z</time></trkpt><trkpt lat="43.1924817" lon="13.075915"><ele>509.0</ele><time>2026-03-22T10:54:53.387Z</time></trkpt><trkpt lat="43.1926017" lon="13.0757683"><ele>509.0</ele><time>2026-03-22T10:54:54.384Z</time></trkpt><trkpt lat="43.1927333" lon="13.07564"><ele>504.66666666666663</ele><time>2026-03-22T10:54:55.383Z</time></trkpt><trkpt lat="43.192875" lon="13.0755367"><ele>500.33333333333337</ele><time>2026-03-22T10:54:56.443Z</time></trkpt><trkpt lat="43.1930367" lon="13.0754733"><ele>496.0</ele><time>2026-03-22T10:54:57.38Z</time></trkpt><trkpt lat="43.1932017" lon="13.0754333"><ele>495.6666666666667</ele><time>2026-03-22T10:54:58.388Z</time></trkpt><trkpt lat="43.1933617" lon="13.0753967"><ele>495.33333333333337</ele><time>2026-03-22T10:54:59.384Z</time></trkpt><trkpt lat="43.1935217" lon="13.0753683"><ele>495.0</ele><time>2026-03-22T10:55:00.374Z</time></trkpt><trkpt lat="43.1936783" lon="13.0753433"><ele>495.0</ele><time>2026-03-22T10:55:01.369Z</time></trkpt><trkpt lat="43.193825" lon="13.0753083"><ele>495.0</ele><time>2026-03-22T10:55:02.422Z</time></trkpt><trkpt lat="43.1939667" lon="13.0752567"><ele>495.0</ele><time>2026-03-22T10:55:03.385Z</time></trkpt><trkpt lat="43.1940817" lon="13.0751617"><ele>495.0</ele><time>2026-03-22T10:55:04.383Z</time></trkpt><trkpt lat="43.19415" lon="13.0750033"><ele>496.0</ele><time>2026-03-22T10:55:05.382Z</time></trkpt><trkpt lat="43.1941483" lon="13.0748033"><ele>497.0</ele><time>2026-03-22T10:55:06.386Z</time></trkpt><trkpt lat="43.19408" lon="13.07458"><ele>498.0</ele><time>2026-03-22T10:55:07.384Z</time></trkpt><trkpt lat="43.1939817" lon="13.0743567"><ele>494.33333333333337</ele><time>2026-03-22T10:55:08.424Z</time></trkpt><trkpt lat="43.1938783" lon="13.074135"><ele>490.6666666666667</ele><time>2026-03-22T10:55:09.382Z</time></trkpt><trkpt lat="43.1938217" lon="13.07392"><ele>487.0</ele><time>2026-03-22T10:55:10.386Z</time></trkpt><trkpt lat="43.1938067" lon="13.0737083"><ele>484.0</ele><time>2026-03-22T10:55:11.386Z</time></trkpt><trkpt lat="43.1938433" lon="13.073495"><ele>481.0</ele><time>2026-03-22T10:55:12.386Z</time></trkpt><trkpt lat="43.1939033" lon="13.0732833"><ele>478.0</ele><time>2026-03-22T10:55:13.383Z</time></trkpt><trkpt lat="43.1939783" lon="13.0730767"><ele>477.25</ele><time>2026-03-22T10:55:14.415Z</time></trkpt><trkpt lat="43.1940483" lon="13.0728783"><ele>476.5</ele><time>2026-03-22T10:55:15.379Z</time></trkpt><trkpt lat="43.1940933" lon="13.0726867"><ele>475.75</ele><time>2026-03-22T10:55:16.382Z</time></trkpt><trkpt lat="43.1941067" lon="13.07251"><ele>475.0</ele><time>2026-03-22T10:55:17.382Z</time></trkpt><trkpt lat="43.1940983" lon="13.072355"><ele>475.0</ele><time>2026-03-22T10:55:18.375Z</time></trkpt><trkpt lat="43.1940883" lon="13.0722033"><ele>475.0</ele><time>2026-03-22T10:55:19.385Z</time></trkpt><trkpt lat="43.1940967" lon="13.0720517"><ele>475.0</ele><time>2026-03-22T10:55:20.427Z</time></trkpt><trkpt lat="43.194135" lon="13.0719033"><ele>475.0</ele><time>2026-03-22T10:55:21.387Z</time></trkpt><trkpt lat="43.1942" lon="13.0717683"><ele>475.0</ele><time>2026-03-22T10:55:22.384Z</time></trkpt><trkpt lat="43.1942967" lon="13.071655"><ele>475.0</ele><time>2026-03-22T10:55:23.383Z</time></trkpt><trkpt lat="43.1944233" lon="13.071575"><ele>475.0</ele><time>2026-03-22T10:55:24.386Z</time></trkpt><trkpt lat="43.19457" lon="13.0715383"><ele>475.0</ele><time>2026-03-22T10:55:25.383Z</time></trkpt><trkpt lat="43.1946983" lon="13.0714933"><ele>474.8</ele><time>2026-03-22T10:55:26.442Z</time></trkpt><trkpt lat="43.1948167" lon="13.0714483"><ele>474.6</ele><time>2026-03-22T10:55:27.36Z</time></trkpt><trkpt lat="43.1949233" lon="13.0713867"><ele>474.4</ele><time>2026-03-22T10:55:28.389Z</time></trkpt><trkpt lat="43.195015" lon="13.0713183"><ele>474.2</ele><time>2026-03-22T10:55:29.377Z</time></trkpt><trkpt lat="43.195075" lon="13.0712183"><ele>474.0</ele><time>2026-03-22T10:55:30.372Z</time></trkpt><trkpt lat="43.19509" lon="13.0710817"><ele>474.0</ele><time>2026-03-22T10:55:31.369Z</time></trkpt><trkpt lat="43.19506" lon="13.0709017"><ele>474.0</ele><time>2026-03-22T10:55:32.446Z</time></trkpt><trkpt lat="43.19499" lon="13.0706883"><ele>474.0</ele><time>2026-03-22T10:55:33.376Z</time></trkpt><trkpt lat="43.1948883" lon="13.070455"><ele>467.33333333333337</ele><time>2026-03-22T10:55:34.383Z</time></trkpt><trkpt lat="43.1947583" lon="13.0702317"><ele>460.6666666666667</ele><time>2026-03-22T10:55:35.385Z</time></trkpt><trkpt lat="43.1946333" lon="13.07004"><ele>454.0</ele><time>2026-03-22T10:55:36.386Z</time></trkpt><trkpt lat="43.19452" lon="13.0698733"><ele>454.0</ele><time>2026-03-22T10:55:37.386Z</time></trkpt><trkpt lat="43.1944067" lon="13.0697183"><ele>454.0</ele><time>2026-03-22T10:55:38.425Z</time></trkpt><trkpt lat="43.1943033" lon="13.069575"><ele>454.0</ele><time>2026-03-22T10:55:39.384Z</time></trkpt><trkpt lat="43.1942117" lon="13.0694367"><ele>454.0</ele><time>2026-03-22T10:55:40.371Z</time></trkpt><trkpt lat="43.1941317" lon="13.0692983"><ele>454.0</ele><time>2026-03-22T10:55:41.384Z</time></trkpt><trkpt lat="43.19407" lon="13.0691567"><ele>454.0</ele><time>2026-03-22T10:55:42.387Z</time></trkpt><trkpt lat="43.1940367" lon="13.0690033"><ele>454.0</ele><time>2026-03-22T10:55:43.375Z</time></trkpt><trkpt lat="43.19404" lon="13.068845"><ele>454.0</ele><time>2026-03-22T10:55:44.426Z</time></trkpt><trkpt lat="43.1940733" lon="13.06868"><ele>452.25</ele><time>2026-03-22T10:55:45.384Z</time></trkpt><trkpt lat="43.1941267" lon="13.0685133"><ele>450.5</ele><time>2026-03-22T10:55:46.38Z</time></trkpt><trkpt lat="43.194185" lon="13.0683467"><ele>448.75</ele><time>2026-03-22T10:55:47.385Z</time></trkpt><trkpt lat="43.1942433" lon="13.068195"><ele>447.0</ele><time>2026-03-22T10:55:48.385Z</time></trkpt><trkpt lat="43.1943067" lon="13.06805"><ele>444.5</ele><time>2026-03-22T10:55:49.383Z</time></trkpt><trkpt lat="43.19436" lon="13.0678983"><ele>442.0</ele><time>2026-03-22T10:55:50.425Z</time></trkpt><trkpt lat="43.194405" lon="13.0677367"><ele>439.5</ele><time>2026-03-22T10:55:51.382Z</time></trkpt><trkpt lat="43.1944233" lon="13.0675633"><ele>437.0</ele><time>2026-03-22T10:55:52.382Z</time></trkpt><trkpt lat="43.194415" lon="13.0673883"><ele>435.5</ele><time>2026-03-22T10:55:53.361Z</time></trkpt><trkpt lat="43.1943817" lon="13.06723"><ele>434.0</ele><time>2026-03-22T10:55:54.384Z</time></trkpt><trkpt lat="43.1943567" lon="13.06707"><ele>432.5</ele><time>2026-03-22T10:55:55.387Z</time></trkpt><trkpt lat="43.1943583" lon="13.0669267"><ele>431.0</ele><time>2026-03-22T10:55:56.389Z</time></trkpt><trkpt lat="43.1943883" lon="13.066785"><ele>431.0</ele><time>2026-03-22T10:55:57.386Z</time></trkpt><trkpt lat="43.194455" lon="13.0666717"><ele>431.0</ele><time>2026-03-22T10:55:58.385Z</time></trkpt><trkpt lat="43.1945433" lon="13.066595"><ele>431.0</ele><time>2026-03-22T10:55:59.369Z</time></trkpt><trkpt lat="43.1946433" lon="13.0665617"><ele>431.0</ele><time>2026-03-22T10:56:00.387Z</time></trkpt><trkpt lat="43.1947417" lon="13.06657"><ele>431.0</ele><time>2026-03-22T10:56:01.382Z</time></trkpt><trkpt lat="43.1948133" lon="13.066595"><ele>430.16666666666663</ele><time>2026-03-22T10:56:02.386Z</time></trkpt><trkpt lat="43.1949117" lon="13.0666183"><ele>429.3333333333333</ele><time>2026-03-22T10:56:04.374Z</time></trkpt><trkpt lat="43.1948617" lon="13.0664867"><ele>428.5</ele><time>2026-03-22T10:56:10.374Z</time></trkpt><trkpt lat="43.19481" lon="13.066355"><ele>427.66666666666663</ele><time>2026-03-22T10:56:12.386Z</time></trkpt><trkpt lat="43.19482" lon="13.0662683"><ele>426.8333333333333</ele><time>2026-03-22T10:56:14.427Z</time></trkpt><trkpt lat="43.1948733" lon="13.06621"><ele>426.0</ele><time>2026-03-22T10:56:17.36Z</time></trkpt><trkpt lat="43.19486" lon="13.06611"><ele>425.20000000000005</ele><time>2026-03-22T10:56:19.377Z</time></trkpt><trkpt lat="43.1948267" lon="13.0659317"><ele>424.40000000000003</ele><time>2026-03-22T10:56:21.368Z</time></trkpt><trkpt lat="43.19482" lon="13.0658183"><ele>423.6</ele><time>2026-03-22T10:56:22.388Z</time></trkpt><trkpt lat="43.1948233" lon="13.0657033"><ele>422.8</ele><time>2026-03-22T10:56:23.373Z</time></trkpt><trkpt lat="43.1948317" lon="13.0655817"><ele>422.0</ele><time>2026-03-22T10:56:24.385Z</time></trkpt><trkpt lat="43.1948383" lon="13.06546"><ele>420.49999999999994</ele><time>2026-03-22T10:56:25.381Z</time></trkpt><trkpt lat="43.194845" lon="13.0653417"><ele>419.0</ele><time>2026-03-22T10:56:26.441Z</time></trkpt><trkpt lat="43.1948517" lon="13.0652333"><ele>417.5</ele><time>2026-03-22T10:56:27.38Z</time></trkpt><trkpt lat="43.1948583" lon="13.0651467"><ele>416.0</ele><time>2026-03-22T10:56:28.385Z</time></trkpt><trkpt lat="43.1948567" lon="13.06506"><ele>414.49999999999994</ele><time>2026-03-22T10:56:30.388Z</time></trkpt><trkpt lat="43.1947917" lon="13.0650283"><ele>413.0</ele><time>2026-03-22T10:56:32.425Z</time></trkpt><trkpt lat="43.1946817" lon="13.06498"><ele>410.99999999999994</ele><time>2026-03-22T10:56:34.388Z</time></trkpt><trkpt lat="43.1946033" lon="13.06486"><ele>409.0</ele><time>2026-03-22T10:56:36.387Z</time></trkpt><trkpt lat="43.1945767" lon="13.06477"><ele>407.0</ele><time>2026-03-22T10:56:37.387Z</time></trkpt><trkpt lat="43.1945683" lon="13.0646583"><ele>405.0</ele><time>2026-03-22T10:56:38.419Z</time></trkpt><trkpt lat="43.19456" lon="13.06454"><ele>402.99999999999994</ele><time>2026-03-22T10:56:39.38Z</time></trkpt><trkpt lat="43.19456" lon="13.0644183"><ele>401.0</ele><time>2026-03-22T10:56:40.388Z</time></trkpt><trkpt lat="43.19457" lon="13.0643033"><ele>400.99999999999994</ele><time>2026-03-22T10:56:41.384Z</time></trkpt><trkpt lat="43.1945883" lon="13.06421"><ele>401.0</ele><time>2026-03-22T10:56:42.386Z</time></trkpt><trkpt lat="43.19461" lon="13.0640933"><ele>401.0</ele><time>2026-03-22T10:56:44.432Z</time></trkpt><trkpt lat="43.1945483" lon="13.06398"><ele>401.0</ele><time>2026-03-22T10:56:46.364Z</time></trkpt><trkpt lat="43.1944933" lon="13.063895"><ele>400.99999999999994</ele><time>2026-03-22T10:56:47.386Z</time></trkpt><trkpt lat="43.1944467" lon="13.06379"><ele>401.0</ele><time>2026-03-22T10:56:48.383Z</time></trkpt><trkpt lat="43.19442" lon="13.0636817"><ele>398.8333333333333</ele><time>2026-03-22T10:56:49.387Z</time></trkpt><trkpt lat="43.1944133" lon="13.063575"><ele>396.66666666666663</ele><time>2026-03-22T10:56:50.421Z</time></trkpt><trkpt lat="43.19442" lon="13.06347"><ele>394.5</ele><time>2026-03-22T10:56:51.384Z</time></trkpt><trkpt lat="43.1944467" lon="13.0633767"><ele>392.33333333333337</ele><time>2026-03-22T10:56:52.382Z</time></trkpt><trkpt lat="43.1944917" lon="13.0632967"><ele>390.1666666666667</ele><time>2026-03-22T10:56:53.386Z</time></trkpt><trkpt lat="43.194535" lon="13.0632067"><ele>388.0</ele><time>2026-03-22T10:56:54.388Z</time></trkpt><trkpt lat="43.19458" lon="13.0631117"><ele>386.33333333333337</ele><time>2026-03-22T10:56:55.385Z</time></trkpt><trkpt lat="43.194625" lon="13.0630217"><ele>384.6666666666667</ele><time>2026-03-22T10:56:56.448Z</time></trkpt><trkpt lat="43.1946667" lon="13.0629417"><ele>383.0</ele><time>2026-03-22T10:56:57.373Z</time></trkpt><trkpt lat="43.1947067" lon="13.062865"><ele>381.33333333333337</ele><time>2026-03-22T10:56:58.387Z</time></trkpt><trkpt lat="43.19477" lon="13.0627367"><ele>379.6666666666667</ele><time>2026-03-22T10:57:00.387Z</time></trkpt><trkpt lat="43.194835" lon="13.062655"><ele>378.0</ele><time>2026-03-22T10:57:02.448Z</time></trkpt><trkpt lat="43.19488" lon="13.062585"><ele>378.0</ele><time>2026-03-22T10:57:04.363Z</time></trkpt><trkpt lat="43.19489" lon="13.06248"><ele>378.0</ele><time>2026-03-22T10:57:06.381Z</time></trkpt><trkpt lat="43.19489" lon="13.0622983"><ele>378.0</ele><time>2026-03-22T10:57:08.417Z</time></trkpt><trkpt lat="43.194875" lon="13.062195"><ele>378.0</ele><time>2026-03-22T10:57:09.381Z</time></trkpt><trkpt lat="43.1948533" lon="13.062085"><ele>378.0</ele><time>2026-03-22T10:57:10.382Z</time></trkpt><trkpt lat="43.1948317" lon="13.0619817"><ele>378.0</ele><time>2026-03-22T10:57:11.386Z</time></trkpt><trkpt lat="43.194805" lon="13.0619"><ele>375.0</ele><time>2026-03-22T10:57:12.388Z</time></trkpt><trkpt lat="43.1947583" lon="13.0618267"><ele>372.0</ele><time>2026-03-22T10:57:13.39Z</time></trkpt><trkpt lat="43.1947133" lon="13.061745"><ele>369.0</ele><time>2026-03-22T10:57:14.416Z</time></trkpt><trkpt lat="43.19468" lon="13.0616417"><ele>366.0</ele><time>2026-03-22T10:57:15.378Z</time></trkpt><trkpt lat="43.19466" lon="13.0615267"><ele>363.0</ele><time>2026-03-22T10:57:16.377Z</time></trkpt><trkpt lat="43.1946383" lon="13.0614"><ele>360.0</ele><time>2026-03-22T10:57:17.387Z</time></trkpt><trkpt lat="43.1946167" lon="13.06127"><ele>358.0</ele><time>2026-03-22T10:57:18.363Z</time></trkpt><trkpt lat="43.1945983" lon="13.0611517"><ele>356.0</ele><time>2026-03-22T10:57:19.386Z</time></trkpt><trkpt lat="43.1945817" lon="13.0610567"><ele>354.0</ele><time>2026-03-22T10:57:20.427Z</time></trkpt><trkpt lat="43.19456" lon="13.0609317"><ele>352.0</ele><time>2026-03-22T10:57:22.386Z</time></trkpt><trkpt lat="43.194555" lon="13.06078"><ele>350.0</ele><time>2026-03-22T10:57:24.388Z</time></trkpt><trkpt lat="43.19455" lon="13.0606817"><ele>348.0</ele><time>2026-03-22T10:57:25.377Z</time></trkpt><trkpt lat="43.1945467" lon="13.06057"><ele>345.3333333333333</ele><time>2026-03-22T10:57:26.435Z</time></trkpt><trkpt lat="43.19455" lon="13.0604567"><ele>342.6666666666667</ele><time>2026-03-22T10:57:27.368Z</time></trkpt><trkpt lat="43.1945517" lon="13.060355"><ele>340.0</ele><time>2026-03-22T10:57:28.385Z</time></trkpt><trkpt lat="43.1945467" lon="13.0602217"><ele>337.33333333333337</ele><time>2026-03-22T10:57:30.389Z</time></trkpt><trkpt lat="43.194545" lon="13.0601317"><ele>334.6666666666667</ele><time>2026-03-22T10:57:35.372Z</time></trkpt><trkpt lat="43.194485" lon="13.0600883"><ele>332.0</ele><time>2026-03-22T10:57:37.344Z</time></trkpt><trkpt lat="43.1944233" lon="13.0599533"><ele>329.83333333333337</ele><time>2026-03-22T10:57:39.354Z</time></trkpt><trkpt lat="43.1943783" lon="13.0598617"><ele>327.6666666666667</ele><time>2026-03-22T10:57:40.359Z</time></trkpt><trkpt lat="43.1943083" lon="13.0598067"><ele>325.5</ele><time>2026-03-22T10:57:41.365Z</time></trkpt><trkpt lat="43.1942217" lon="13.0597783"><ele>323.3333333333333</ele><time>2026-03-22T10:57:42.382Z</time></trkpt><trkpt lat="43.1941317" lon="13.0597583"><ele>321.16666666666663</ele><time>2026-03-22T10:57:43.379Z</time></trkpt><trkpt lat="43.1940367" lon="13.0597383"><ele>319.0</ele><time>2026-03-22T10:57:44.411Z</time></trkpt><trkpt lat="43.1939417" lon="13.0597067"><ele>317.59999999999997</ele><time>2026-03-22T10:57:45.376Z</time></trkpt><trkpt lat="43.1938417" lon="13.05967"><ele>316.2</ele><time>2026-03-22T10:57:46.377Z</time></trkpt><trkpt lat="43.1937267" lon="13.0596367"><ele>314.79999999999995</ele><time>2026-03-22T10:57:47.373Z</time></trkpt><trkpt lat="43.1936183" lon="13.0595983"><ele>313.4</ele><time>2026-03-22T10:57:48.386Z</time></trkpt><trkpt lat="43.1935133" lon="13.0595467"><ele>312.0</ele><time>2026-03-22T10:57:49.377Z</time></trkpt><trkpt lat="43.1934033" lon="13.05948"><ele>312.0</ele><time>2026-03-22T10:57:50.425Z</time></trkpt><trkpt lat="43.1932983" lon="13.059395"><ele>312.0</ele><time>2026-03-22T10:57:51.357Z</time></trkpt><trkpt lat="43.1931983" lon="13.059305"><ele>312.0</ele><time>2026-03-22T10:57:52.384Z</time></trkpt><trkpt lat="43.1931017" lon="13.0592183"><ele>312.0</ele><time>2026-03-22T10:57:53.388Z</time></trkpt><trkpt lat="43.1930083" lon="13.0591317"><ele>310.6</ele><time>2026-03-22T10:57:54.391Z</time></trkpt><trkpt lat="43.19292" lon="13.05905"><ele>309.2</ele><time>2026-03-22T10:57:55.387Z</time></trkpt><trkpt lat="43.1928317" lon="13.05898"><ele>307.8</ele><time>2026-03-22T10:57:56.446Z</time></trkpt><trkpt lat="43.192745" lon="13.0589217"><ele>306.4</ele><time>2026-03-22T10:57:57.361Z</time></trkpt><trkpt lat="43.1926583" lon="13.0588783"><ele>305.0</ele><time>2026-03-22T10:57:58.357Z</time></trkpt><trkpt lat="43.19257" lon="13.058845"><ele>305.0</ele><time>2026-03-22T10:57:59.387Z</time></trkpt><trkpt lat="43.1924833" lon="13.058825"><ele>305.0</ele><time>2026-03-22T10:58:00.388Z</time></trkpt><trkpt lat="43.1924033" lon="13.0588117"><ele>305.0</ele><time>2026-03-22T10:58:01.371Z</time></trkpt><trkpt lat="43.1923233" lon="13.0587933"><ele>305.0</ele><time>2026-03-22T10:58:02.442Z</time></trkpt><trkpt lat="43.1922417" lon="13.0587517"><ele>305.0</ele><time>2026-03-22T10:58:03.358Z</time></trkpt><trkpt lat="43.1921683" lon="13.0586767"><ele>305.0</ele><time>2026-03-22T10:58:04.381Z</time></trkpt><trkpt lat="43.1921033" lon="13.058585"><ele>304.83333333333337</ele><time>2026-03-22T10:58:05.38Z</time></trkpt><trkpt lat="43.1920467" lon="13.0584883"><ele>304.6666666666667</ele><time>2026-03-22T10:58:06.383Z</time></trkpt><trkpt lat="43.1920083" lon="13.058385"><ele>304.5</ele><time>2026-03-22T10:58:07.385Z</time></trkpt><trkpt lat="43.1919933" lon="13.0582783"><ele>304.3333333333333</ele><time>2026-03-22T10:58:08.424Z</time></trkpt><trkpt lat="43.1919983" lon="13.058165"><ele>304.16666666666663</ele><time>2026-03-22T10:58:09.387Z</time></trkpt><trkpt lat="43.1920217" lon="13.0580417"><ele>304.0</ele><time>2026-03-22T10:58:10.368Z</time></trkpt><trkpt lat="43.1920467" lon="13.0579167"><ele>304.0</ele><time>2026-03-22T10:58:11.382Z</time></trkpt><trkpt lat="43.1920633" lon="13.0577783"><ele>304.0</ele><time>2026-03-22T10:58:12.391Z</time></trkpt><trkpt lat="43.192065" lon="13.057635"><ele>304.0</ele><time>2026-03-22T10:58:13.388Z</time></trkpt><trkpt lat="43.192055" lon="13.057485"><ele>304.0</ele><time>2026-03-22T10:58:14.4Z</time></trkpt><trkpt lat="43.1920333" lon="13.0573317"><ele>304.0</ele><time>2026-03-22T10:58:15.366Z</time></trkpt><trkpt lat="43.1920083" lon="13.0571783"><ele>305.0</ele><time>2026-03-22T10:58:16.366Z</time></trkpt><trkpt lat="43.1919817" lon="13.0570283"><ele>306.0</ele><time>2026-03-22T10:58:17.379Z</time></trkpt><trkpt lat="43.19195" lon="13.0568767"><ele>307.0</ele><time>2026-03-22T10:58:18.379Z</time></trkpt><trkpt lat="43.191925" lon="13.0567317"><ele>308.0</ele><time>2026-03-22T10:58:19.375Z</time></trkpt><trkpt lat="43.191905" lon="13.0565917"><ele>309.0</ele><time>2026-03-22T10:58:20.422Z</time></trkpt><trkpt lat="43.191895" lon="13.056445"><ele>311.0</ele><time>2026-03-22T10:58:21.382Z</time></trkpt><trkpt lat="43.191895" lon="13.0563"><ele>313.0</ele><time>2026-03-22T10:58:22.375Z</time></trkpt><trkpt lat="43.191915" lon="13.0561483"><ele>315.0</ele><time>2026-03-22T10:58:23.373Z</time></trkpt><trkpt lat="43.1919633" lon="13.0560183"><ele>317.0</ele><time>2026-03-22T10:58:24.38Z</time></trkpt><trkpt lat="43.1920383" lon="13.0559233"><ele>319.0</ele><time>2026-03-22T10:58:25.375Z</time></trkpt><trkpt lat="43.1921367" lon="13.05587"><ele>319.0</ele><time>2026-03-22T10:58:26.388Z</time></trkpt><trkpt lat="43.1922367" lon="13.0558333"><ele>319.0</ele><time>2026-03-22T10:58:27.364Z</time></trkpt><trkpt lat="43.192345" lon="13.0558133"><ele>319.0</ele><time>2026-03-22T10:58:28.376Z</time></trkpt><trkpt lat="43.1924467" lon="13.0557833"><ele>319.0</ele><time>2026-03-22T10:58:29.375Z</time></trkpt><trkpt lat="43.19255" lon="13.05575"><ele>319.0</ele><time>2026-03-22T10:58:30.387Z</time></trkpt><trkpt lat="43.1926533" lon="13.055715"><ele>319.75</ele><time>2026-03-22T10:58:31.378Z</time></trkpt><trkpt lat="43.1927567" lon="13.0556583"><ele>320.5</ele><time>2026-03-22T10:58:32.443Z</time></trkpt><trkpt lat="43.192865" lon="13.0555933"><ele>321.25</ele><time>2026-03-22T10:58:33.377Z</time></trkpt><trkpt lat="43.1929833" lon="13.0555267"><ele>322.0</ele><time>2026-03-22T10:58:34.381Z</time></trkpt><trkpt lat="43.19311" lon="13.0554567"><ele>321.5</ele><time>2026-03-22T10:58:35.377Z</time></trkpt><trkpt lat="43.1932317" lon="13.0553833"><ele>321.0</ele><time>2026-03-22T10:58:36.378Z</time></trkpt><trkpt lat="43.1933483" lon="13.0553117"><ele>320.5</ele><time>2026-03-22T10:58:37.37Z</time></trkpt><trkpt lat="43.1934617" lon="13.0552417"><ele>320.0</ele><time>2026-03-22T10:58:38.417Z</time></trkpt><trkpt lat="43.193575" lon="13.0551617"><ele>320.0</ele><time>2026-03-22T10:58:39.381Z</time></trkpt><trkpt lat="43.1936817" lon="13.0550717"><ele>320.0</ele><time>2026-03-22T10:58:40.378Z</time></trkpt><trkpt lat="43.193775" lon="13.0549683"><ele>320.0</ele><time>2026-03-22T10:58:41.376Z</time></trkpt><trkpt lat="43.1938467" lon="13.0548583"><ele>320.0</ele><time>2026-03-22T10:58:42.378Z</time></trkpt><trkpt lat="43.1938933" lon="13.05474"><ele>320.0</ele><time>2026-03-22T10:58:43.38Z</time></trkpt><trkpt lat="43.1938767" lon="13.0545983"><ele>320.0</ele><time>2026-03-22T10:58:44.416Z</time></trkpt><trkpt lat="43.19384" lon="13.0544583"><ele>320.0</ele><time>2026-03-22T10:58:45.379Z</time></trkpt><trkpt lat="43.193785" lon="13.0543217"><ele>320.0</ele><time>2026-03-22T10:58:46.381Z</time></trkpt><trkpt lat="43.193725" lon="13.0541817"><ele>320.0</ele><time>2026-03-22T10:58:47.369Z</time></trkpt><trkpt lat="43.1936683" lon="13.0540383"><ele>319.75</ele><time>2026-03-22T10:58:48.379Z</time></trkpt><trkpt lat="43.1936133" lon="13.05389"><ele>319.5</ele><time>2026-03-22T10:58:49.38Z</time></trkpt><trkpt lat="43.1935583" lon="13.05374"><ele>319.25</ele><time>2026-03-22T10:58:50.42Z</time></trkpt><trkpt lat="43.1935083" lon="13.0535983"><ele>319.0</ele><time>2026-03-22T10:58:51.375Z</time></trkpt><trkpt lat="43.19346" lon="13.05346"><ele>319.0</ele><time>2026-03-22T10:58:52.378Z</time></trkpt><trkpt lat="43.193425" lon="13.05332"><ele>319.0</ele><time>2026-03-22T10:58:53.378Z</time></trkpt><trkpt lat="43.1934083" lon="13.0531817"><ele>319.0</ele><time>2026-03-22T10:58:54.383Z</time></trkpt><trkpt lat="43.19341" lon="13.0530483"><ele>319.0</ele><time>2026-03-22T10:58:55.379Z</time></trkpt><trkpt lat="43.1934317" lon="13.0529283"><ele>319.0</ele><time>2026-03-22T10:58:56.441Z</time></trkpt><trkpt lat="43.1934717" lon="13.0528233"><ele>319.4</ele><time>2026-03-22T10:58:57.377Z</time></trkpt><trkpt lat="43.193525" lon="13.0527267"><ele>319.79999999999995</ele><time>2026-03-22T10:58:58.382Z</time></trkpt><trkpt lat="43.193595" lon="13.0526367"><ele>320.20000000000005</ele><time>2026-03-22T10:58:59.371Z</time></trkpt><trkpt lat="43.1936867" lon="13.05255"><ele>320.6</ele><time>2026-03-22T10:59:00.382Z</time></trkpt><trkpt lat="43.1937917" lon="13.0524783"><ele>321.0</ele><time>2026-03-22T10:59:01.38Z</time></trkpt><trkpt lat="43.193895" lon="13.0524133"><ele>321.25</ele><time>2026-03-22T10:59:02.364Z</time></trkpt><trkpt lat="43.1940017" lon="13.0523433"><ele>321.5</ele><time>2026-03-22T10:59:03.362Z</time></trkpt><trkpt lat="43.194115" lon="13.05227"><ele>321.75</ele><time>2026-03-22T10:59:04.371Z</time></trkpt><trkpt lat="43.194235" lon="13.052195"><ele>322.0</ele><time>2026-03-22T10:59:05.376Z</time></trkpt><trkpt lat="43.194355" lon="13.052115"><ele>321.25</ele><time>2026-03-22T10:59:06.378Z</time></trkpt><trkpt lat="43.1944767" lon="13.0520317"><ele>320.5</ele><time>2026-03-22T10:59:07.373Z</time></trkpt><trkpt lat="43.194595" lon="13.051945"><ele>319.75</ele><time>2026-03-22T10:59:08.409Z</time></trkpt><trkpt lat="43.1947083" lon="13.05186"><ele>319.0</ele><time>2026-03-22T10:59:09.378Z</time></trkpt><trkpt lat="43.1948217" lon="13.05177"><ele>318.5</ele><time>2026-03-22T10:59:10.384Z</time></trkpt><trkpt lat="43.1949317" lon="13.0516767"><ele>318.0</ele><time>2026-03-22T10:59:11.38Z</time></trkpt><trkpt lat="43.19504" lon="13.05158"><ele>317.5</ele><time>2026-03-22T10:59:12.385Z</time></trkpt><trkpt lat="43.1951433" lon="13.0514783"><ele>317.0</ele><time>2026-03-22T10:59:13.376Z</time></trkpt><trkpt lat="43.1952433" lon="13.0513767"><ele>316.5</ele><time>2026-03-22T10:59:14.418Z</time></trkpt><trkpt lat="43.195345" lon="13.0512733"><ele>316.0</ele><time>2026-03-22T10:59:15.38Z</time></trkpt><trkpt lat="43.1954467" lon="13.0511733"><ele>315.5</ele><time>2026-03-22T10:59:16.374Z</time></trkpt><trkpt lat="43.1955533" lon="13.0510733"><ele>315.0</ele><time>2026-03-22T10:59:17.372Z</time></trkpt><trkpt lat="43.195665" lon="13.050975"><ele>314.0</ele><time>2026-03-22T10:59:18.378Z</time></trkpt><trkpt lat="43.19578" lon="13.0508817"><ele>313.0</ele><time>2026-03-22T10:59:19.374Z</time></trkpt><trkpt lat="43.1958967" lon="13.0507967"><ele>312.0</ele><time>2026-03-22T10:59:20.415Z</time></trkpt><trkpt lat="43.1960133" lon="13.0507167"><ele>311.0</ele><time>2026-03-22T10:59:21.376Z</time></trkpt><trkpt lat="43.1961317" lon="13.050645"><ele>311.0</ele><time>2026-03-22T10:59:22.375Z</time></trkpt><trkpt lat="43.19625" lon="13.050585"><ele>311.0</ele><time>2026-03-22T10:59:23.376Z</time></trkpt><trkpt lat="43.196365" lon="13.0505283"><ele>311.0</ele><time>2026-03-22T10:59:24.376Z</time></trkpt><trkpt lat="43.19648" lon="13.0504767"><ele>311.0</ele><time>2026-03-22T10:59:25.374Z</time></trkpt><trkpt lat="43.19659" lon="13.05043"><ele>310.6</ele><time>2026-03-22T10:59:26.438Z</time></trkpt><trkpt lat="43.196695" lon="13.0503833"><ele>310.20000000000005</ele><time>2026-03-22T10:59:27.368Z</time></trkpt><trkpt lat="43.196795" lon="13.0503617"><ele>309.79999999999995</ele><time>2026-03-22T10:59:28.376Z</time></trkpt><trkpt lat="43.196905" lon="13.050375"><ele>309.4</ele><time>2026-03-22T10:59:29.376Z</time></trkpt><trkpt lat="43.1970183" lon="13.0503867"><ele>309.0</ele><time>2026-03-22T10:59:30.381Z</time></trkpt><trkpt lat="43.1971383" lon="13.050375"><ele>309.0</ele><time>2026-03-22T10:59:31.38Z</time></trkpt><trkpt lat="43.1972583" lon="13.0503517"><ele>309.0</ele><time>2026-03-22T10:59:32.442Z</time></trkpt><trkpt lat="43.1973817" lon="13.0503483"><ele>309.0</ele><time>2026-03-22T10:59:33.369Z</time></trkpt><trkpt lat="43.19751" lon="13.0503717"><ele>309.0</ele><time>2026-03-22T10:59:34.383Z</time></trkpt><trkpt lat="43.1976283" lon="13.0504433"><ele>309.25</ele><time>2026-03-22T10:59:35.376Z</time></trkpt><trkpt lat="43.1977267" lon="13.0505617"><ele>309.5</ele><time>2026-03-22T10:59:36.378Z</time></trkpt><trkpt lat="43.1978167" lon="13.0506783"><ele>309.75</ele><time>2026-03-22T10:59:37.373Z</time></trkpt><trkpt lat="43.1979033" lon="13.0507783"><ele>310.0</ele><time>2026-03-22T10:59:38.421Z</time></trkpt><trkpt lat="43.1979833" lon="13.0508683"><ele>309.5</ele><time>2026-03-22T10:59:39.374Z</time></trkpt><trkpt lat="43.1980567" lon="13.050955"><ele>309.0</ele><time>2026-03-22T10:59:40.376Z</time></trkpt><trkpt lat="43.198125" lon="13.0510333"><ele>308.5</ele><time>2026-03-22T10:59:41.362Z</time></trkpt><trkpt lat="43.1981883" lon="13.0511067"><ele>308.0</ele><time>2026-03-22T10:59:42.381Z</time></trkpt><trkpt lat="43.1982467" lon="13.0511733"><ele>307.5</ele><time>2026-03-22T10:59:43.378Z</time></trkpt><trkpt lat="43.1982933" lon="13.0512317"><ele>307.0</ele><time>2026-03-22T10:59:44.419Z</time></trkpt><trkpt lat="43.19835" lon="13.0513217"><ele>306.85714285714283</ele><time>2026-03-22T10:59:46.375Z</time></trkpt><trkpt lat="43.19838" lon="13.0514033"><ele>306.7142857142857</ele><time>2026-03-22T10:59:48.381Z</time></trkpt><trkpt lat="43.1984033" lon="13.0514883"><ele>306.57142857142856</ele><time>2026-03-22T10:59:51.378Z</time></trkpt><trkpt lat="43.1984483" lon="13.0516033"><ele>306.42857142857144</ele><time>2026-03-22T10:59:54.368Z</time></trkpt><trkpt lat="43.1984033" lon="13.05153"><ele>306.2857142857143</ele><time>2026-03-22T11:01:59.365Z</time></trkpt><trkpt lat="43.1983506" lon="13.0514411"><ele>306.1428571428571</ele><time>2026-03-22T11:02:12.372Z</time></trkpt><trkpt lat="43.198312" lon="13.0513712"><ele>306.0</ele><time>2026-03-22T11:02:19.367Z</time></trkpt><trkpt lat="43.1982477" lon="13.0515374"><ele>306.0</ele><time>2026-03-22T11:08:37.339Z</time></trkpt><trkpt lat="43.1982823" lon="13.0514546"><ele>306.0</ele><time>2026-03-22T11:08:50.403Z</time></trkpt><trkpt lat="43.1982109" lon="13.0513899"><ele>306.0</ele><time>2026-03-22T11:27:30.375Z</time></trkpt><trkpt lat="43.1982958" lon="13.0513406"><ele>306.0</ele><time>2026-03-22T11:27:59.36Z</time></trkpt><trkpt lat="43.1983614" lon="13.0513138"><ele>306.0</ele><time>2026-03-22T11:28:04.368Z</time></trkpt><trkpt lat="43.1984208" lon="13.0512713"><ele>306.0</ele><time>2026-03-22T11:28:08.416Z</time></trkpt><trkpt lat="43.1984893" lon="13.0512847"><ele>306.0</ele><time>2026-03-22T11:28:21.359Z</time></trkpt><trkpt lat="43.1985399" lon="13.0513378"><ele>306.0</ele><time>2026-03-22T11:28:25.375Z</time></trkpt><trkpt lat="43.1986011" lon="13.0514025"><ele>306.0</ele><time>2026-03-22T11:28:31.36Z</time></trkpt><trkpt lat="43.1986595" lon="13.0514389"><ele>306.0</ele><time>2026-03-22T11:28:37.359Z</time></trkpt><trkpt lat="43.1987326" lon="13.0514188"><ele>306.0</ele><time>2026-03-22T11:28:43.363Z</time></trkpt><trkpt lat="43.1987204" lon="13.051326"><ele>306.0</ele><time>2026-03-22T11:28:50.434Z</time></trkpt><trkpt lat="43.1986848" lon="13.0512333"><ele>306.0</ele><time>2026-03-22T11:28:56.295Z</time></trkpt><trkpt lat="43.1986212" lon="13.0511959"><ele>306.0</ele><time>2026-03-22T11:29:01.362Z</time></trkpt><trkpt lat="43.1986783" lon="13.051245"><ele>306.0</ele><time>2026-03-22T11:32:24.359Z</time></trkpt><trkpt lat="43.19872" lon="13.0513217"><ele>306.0</ele><time>2026-03-22T11:32:30.369Z</time></trkpt><trkpt lat="43.1987498" lon="13.0514111"><ele>306.0</ele><time>2026-03-22T11:32:36.368Z</time></trkpt><trkpt lat="43.1986959" lon="13.051482"><ele>306.0</ele><time>2026-03-22T11:32:45.374Z</time></trkpt><trkpt lat="43.1986292" lon="13.0515309"><ele>306.0</ele><time>2026-03-22T11:32:50.427Z</time></trkpt><trkpt lat="43.1985664" lon="13.0515743"><ele>306.0</ele><time>2026-03-22T11:32:55.357Z</time></trkpt><trkpt lat="43.1984946" lon="13.051561"><ele>306.0</ele><time>2026-03-22T11:33:01.355Z</time></trkpt><trkpt lat="43.1984216" lon="13.0515634"><ele>306.0</ele><time>2026-03-22T11:33:06.376Z</time></trkpt><trkpt lat="43.1983532" lon="13.0515381"><ele>306.0</ele><time>2026-03-22T11:33:12.361Z</time></trkpt><trkpt lat="43.1983059" lon="13.0514745"><ele>306.0</ele><time>2026-03-22T11:33:18.363Z</time></trkpt><trkpt lat="43.1983809" lon="13.0514923"><ele>306.0</ele><time>2026-03-22T11:36:18.379Z</time></trkpt><trkpt lat="43.1984431" lon="13.051582"><ele>306.0</ele><time>2026-03-22T11:36:21.357Z</time></trkpt><trkpt lat="43.1984233" lon="13.0514741"><ele>306.0</ele><time>2026-03-22T11:41:24.374Z</time></trkpt><trkpt lat="43.1984041" lon="13.0513853"><ele>306.0</ele><time>2026-03-22T11:41:26.434Z</time></trkpt><trkpt lat="43.1983731" lon="13.0512864"><ele>306.0</ele><time>2026-03-22T11:41:30.369Z</time></trkpt><trkpt lat="43.1983429" lon="13.0511999"><ele>306.0</ele><time>2026-03-22T11:41:32.438Z</time></trkpt><trkpt lat="43.1982817" lon="13.051087"><ele>306.0</ele><time>2026-03-22T11:41:34.365Z</time></trkpt><trkpt lat="43.1982233" lon="13.0510125"><ele>306.0</ele><time>2026-03-22T11:41:35.372Z</time></trkpt><trkpt lat="43.1981555" lon="13.0509368"><ele>306.2</ele><time>2026-03-22T11:41:36.374Z</time></trkpt><trkpt lat="43.1980841" lon="13.0508578"><ele>306.40000000000003</ele><time>2026-03-22T11:41:37.376Z</time></trkpt><trkpt lat="43.1980092" lon="13.0507802"><ele>306.6</ele><time>2026-03-22T11:41:38.434Z</time></trkpt><trkpt lat="43.1979328" lon="13.0507014"><ele>306.8</ele><time>2026-03-22T11:41:39.373Z</time></trkpt><trkpt lat="43.1978488" lon="13.0506137"><ele>307.0</ele><time>2026-03-22T11:41:40.372Z</time></trkpt><trkpt lat="43.1977607" lon="13.0505201"><ele>307.75</ele><time>2026-03-22T11:41:41.37Z</time></trkpt><trkpt lat="43.1976712" lon="13.0504284"><ele>308.5</ele><time>2026-03-22T11:41:42.375Z</time></trkpt><trkpt lat="43.1975809" lon="13.0503417"><ele>309.25</ele><time>2026-03-22T11:41:43.372Z</time></trkpt><trkpt lat="43.1974781" lon="13.0502576"><ele>310.0</ele><time>2026-03-22T11:41:44.43Z</time></trkpt><trkpt lat="43.1973726" lon="13.0501806"><ele>309.8</ele><time>2026-03-22T11:41:45.372Z</time></trkpt><trkpt lat="43.1972708" lon="13.0501013"><ele>309.6</ele><time>2026-03-22T11:41:46.378Z</time></trkpt><trkpt lat="43.197181" lon="13.050035"><ele>309.4</ele><time>2026-03-22T11:41:47.375Z</time></trkpt><trkpt lat="43.1970949" lon="13.0499929"><ele>309.2</ele><time>2026-03-22T11:41:48.366Z</time></trkpt><trkpt lat="43.1970097" lon="13.0499812"><ele>309.0</ele><time>2026-03-22T11:41:49.373Z</time></trkpt><trkpt lat="43.1969256" lon="13.0500171"><ele>309.0</ele><time>2026-03-22T11:41:50.418Z</time></trkpt><trkpt lat="43.1968471" lon="13.0500985"><ele>309.0</ele><time>2026-03-22T11:41:51.366Z</time></trkpt><trkpt lat="43.1967643" lon="13.0501994"><ele>309.0</ele><time>2026-03-22T11:41:52.38Z</time></trkpt><trkpt lat="43.1966719" lon="13.0502971"><ele>309.0</ele><time>2026-03-22T11:41:53.371Z</time></trkpt><trkpt lat="43.1965666" lon="13.050383"><ele>309.0</ele><time>2026-03-22T11:41:54.363Z</time></trkpt><trkpt lat="43.1964544" lon="13.0504525"><ele>309.3333333333333</ele><time>2026-03-22T11:41:55.36Z</time></trkpt><trkpt lat="43.1963473" lon="13.0505112"><ele>309.6666666666667</ele><time>2026-03-22T11:41:56.427Z</time></trkpt><trkpt lat="43.1962672" lon="13.0505465"><ele>310.0</ele><time>2026-03-22T11:41:57.371Z</time></trkpt><trkpt lat="43.196198" lon="13.0505571"><ele>310.33333333333337</ele><time>2026-03-22T11:41:58.373Z</time></trkpt><trkpt lat="43.1961294" lon="13.0505313"><ele>310.6666666666667</ele><time>2026-03-22T11:41:59.374Z</time></trkpt><trkpt lat="43.1960461" lon="13.050486"><ele>311.0</ele><time>2026-03-22T11:42:00.375Z</time></trkpt><trkpt lat="43.1959436" lon="13.0504511"><ele>311.0</ele><time>2026-03-22T11:42:01.374Z</time></trkpt><trkpt lat="43.1958287" lon="13.0504349"><ele>311.0</ele><time>2026-03-22T11:42:02.441Z</time></trkpt><trkpt lat="43.1957154" lon="13.0504281"><ele>311.0</ele><time>2026-03-22T11:42:03.37Z</time></trkpt><trkpt lat="43.195599" lon="13.050418"><ele>311.0</ele><time>2026-03-22T11:42:04.374Z</time></trkpt><trkpt lat="43.19548" lon="13.0504"><ele>310.75</ele><time>2026-03-22T11:42:05.374Z</time></trkpt><trkpt lat="43.195355" lon="13.0503783"><ele>310.5</ele><time>2026-03-22T11:42:06.371Z</time></trkpt><trkpt lat="43.1952283" lon="13.0503583"><ele>310.25</ele><time>2026-03-22T11:42:07.367Z</time></trkpt><trkpt lat="43.1950967" lon="13.0503317"><ele>310.0</ele><time>2026-03-22T11:42:08.427Z</time></trkpt><trkpt lat="43.1949617" lon="13.05031"><ele>311.5</ele><time>2026-03-22T11:42:09.372Z</time></trkpt><trkpt lat="43.1948267" lon="13.050295"><ele>313.0</ele><time>2026-03-22T11:42:10.371Z</time></trkpt><trkpt lat="43.194685" lon="13.0502833"><ele>314.5</ele><time>2026-03-22T11:42:11.37Z</time></trkpt><trkpt lat="43.1945483" lon="13.0502733"><ele>316.0</ele><time>2026-03-22T11:42:12.375Z</time></trkpt><trkpt lat="43.1944167" lon="13.0502533"><ele>316.0</ele><time>2026-03-22T11:42:13.376Z</time></trkpt><trkpt lat="43.1942967" lon="13.0502283"><ele>316.0</ele><time>2026-03-22T11:42:14.431Z</time></trkpt><trkpt lat="43.194185" lon="13.05019"><ele>316.0</ele><time>2026-03-22T11:42:15.363Z</time></trkpt><trkpt lat="43.1940783" lon="13.0501367"><ele>316.0</ele><time>2026-03-22T11:42:16.373Z</time></trkpt><trkpt lat="43.19397" lon="13.0500567"><ele>316.5</ele><time>2026-03-22T11:42:17.375Z</time></trkpt><trkpt lat="43.1938617" lon="13.0499517"><ele>317.0</ele><time>2026-03-22T11:42:18.373Z</time></trkpt><trkpt lat="43.1937533" lon="13.0498483"><ele>317.5</ele><time>2026-03-22T11:42:19.376Z</time></trkpt><trkpt lat="43.19365" lon="13.0497467"><ele>318.0</ele><time>2026-03-22T11:42:20.431Z</time></trkpt><trkpt lat="43.19355" lon="13.049625"><ele>318.0</ele><time>2026-03-22T11:42:21.37Z</time></trkpt><trkpt lat="43.1934533" lon="13.04948"><ele>318.0</ele><time>2026-03-22T11:42:22.372Z</time></trkpt><trkpt lat="43.1933633" lon="13.049325"><ele>318.0</ele><time>2026-03-22T11:42:23.374Z</time></trkpt><trkpt lat="43.1932817" lon="13.0491733"><ele>318.0</ele><time>2026-03-22T11:42:24.375Z</time></trkpt><trkpt lat="43.19321" lon="13.049035"><ele>318.75</ele><time>2026-03-22T11:42:25.364Z</time></trkpt><trkpt lat="43.193135" lon="13.048905"><ele>319.5</ele><time>2026-03-22T11:42:26.432Z</time></trkpt><trkpt lat="43.1930567" lon="13.048775"><ele>320.25</ele><time>2026-03-22T11:42:27.367Z</time></trkpt><trkpt lat="43.1929667" lon="13.04865"><ele>321.0</ele><time>2026-03-22T11:42:28.371Z</time></trkpt><trkpt lat="43.1928667" lon="13.048525"><ele>321.0</ele><time>2026-03-22T11:42:29.374Z</time></trkpt><trkpt lat="43.1927633" lon="13.0484017"><ele>321.0</ele><time>2026-03-22T11:42:30.371Z</time></trkpt><trkpt lat="43.1926583" lon="13.0482783"><ele>321.0</ele><time>2026-03-22T11:42:31.373Z</time></trkpt><trkpt lat="43.1925517" lon="13.0481517"><ele>321.0</ele><time>2026-03-22T11:42:32.427Z</time></trkpt><trkpt lat="43.1924517" lon="13.0480133"><ele>321.0</ele><time>2026-03-22T11:42:33.37Z</time></trkpt><trkpt lat="43.19236" lon="13.04787"><ele>321.0</ele><time>2026-03-22T11:42:34.374Z</time></trkpt><trkpt lat="43.19227" lon="13.047725"><ele>321.0</ele><time>2026-03-22T11:42:35.376Z</time></trkpt><trkpt lat="43.1921833" lon="13.0475833"><ele>321.0</ele><time>2026-03-22T11:42:36.376Z</time></trkpt><trkpt lat="43.1920983" lon="13.0474583"><ele>320.40000000000003</ele><time>2026-03-22T11:42:37.373Z</time></trkpt><trkpt lat="43.1920183" lon="13.04734"><ele>319.8</ele><time>2026-03-22T11:42:38.424Z</time></trkpt><trkpt lat="43.1919433" lon="13.0472267"><ele>319.20000000000005</ele><time>2026-03-22T11:42:39.369Z</time></trkpt><trkpt lat="43.1918667" lon="13.0471233"><ele>318.6</ele><time>2026-03-22T11:42:40.352Z</time></trkpt><trkpt lat="43.19178" lon="13.0470417"><ele>318.0</ele><time>2026-03-22T11:42:41.353Z</time></trkpt><trkpt lat="43.1916833" lon="13.046975"><ele>318.0</ele><time>2026-03-22T11:42:42.372Z</time></trkpt><trkpt lat="43.19158" lon="13.046925"><ele>318.0</ele><time>2026-03-22T11:42:43.371Z</time></trkpt><trkpt lat="43.1914683" lon="13.0468983"><ele>318.0</ele><time>2026-03-22T11:42:44.427Z</time></trkpt><trkpt lat="43.1913433" lon="13.0468817"><ele>318.0</ele><time>2026-03-22T11:42:45.367Z</time></trkpt><trkpt lat="43.1912167" lon="13.04686"><ele>319.75</ele><time>2026-03-22T11:42:46.372Z</time></trkpt><trkpt lat="43.1910933" lon="13.046845"><ele>321.5</ele><time>2026-03-22T11:42:47.375Z</time></trkpt><trkpt lat="43.1909667" lon="13.04685"><ele>323.25</ele><time>2026-03-22T11:42:48.373Z</time></trkpt><trkpt lat="43.1908467" lon="13.0468783"><ele>325.0</ele><time>2026-03-22T11:42:49.359Z</time></trkpt><trkpt lat="43.19073" lon="13.04691"><ele>325.75</ele><time>2026-03-22T11:42:50.433Z</time></trkpt><trkpt lat="43.19061" lon="13.0469333"><ele>326.5</ele><time>2026-03-22T11:42:51.373Z</time></trkpt><trkpt lat="43.1904883" lon="13.0469367"><ele>327.25</ele><time>2026-03-22T11:42:52.373Z</time></trkpt><trkpt lat="43.190375" lon="13.0469117"><ele>328.0</ele><time>2026-03-22T11:42:53.373Z</time></trkpt><trkpt lat="43.1902667" lon="13.0468567"><ele>328.0</ele><time>2026-03-22T11:42:54.376Z</time></trkpt><trkpt lat="43.1901833" lon="13.04677"><ele>328.0</ele><time>2026-03-22T11:42:55.378Z</time></trkpt><trkpt lat="43.19013" lon="13.046665"><ele>328.0</ele><time>2026-03-22T11:42:56.416Z</time></trkpt><trkpt lat="43.1901167" lon="13.04655"><ele>328.0</ele><time>2026-03-22T11:42:57.351Z</time></trkpt><trkpt lat="43.1901283" lon="13.0464467"><ele>328.0</ele><time>2026-03-22T11:42:58.349Z</time></trkpt><trkpt lat="43.1901417" lon="13.04635"><ele>328.0</ele><time>2026-03-22T11:42:59.374Z</time></trkpt><trkpt lat="43.1901483" lon="13.0462517"><ele>327.0</ele><time>2026-03-22T11:43:00.37Z</time></trkpt><trkpt lat="43.1901483" lon="13.0461467"><ele>326.0</ele><time>2026-03-22T11:43:01.372Z</time></trkpt><trkpt lat="43.1901467" lon="13.0460333"><ele>325.0</ele><time>2026-03-22T11:43:02.432Z</time></trkpt><trkpt lat="43.1901317" lon="13.0459117"><ele>324.0</ele><time>2026-03-22T11:43:03.365Z</time></trkpt><trkpt lat="43.1901167" lon="13.0457983"><ele>323.0</ele><time>2026-03-22T11:43:04.37Z</time></trkpt><trkpt lat="43.1901017" lon="13.0456917"><ele>322.0</ele><time>2026-03-22T11:43:05.374Z</time></trkpt><trkpt lat="43.19008" lon="13.0456067"><ele>322.5</ele><time>2026-03-22T11:43:06.375Z</time></trkpt><trkpt lat="43.1900583" lon="13.045515"><ele>323.0</ele><time>2026-03-22T11:43:08.424Z</time></trkpt><trkpt lat="43.1900067" lon="13.0453867"><ele>323.5</ele><time>2026-03-22T11:43:11.37Z</time></trkpt><trkpt lat="43.1899333" lon="13.0452717"><ele>324.0</ele><time>2026-03-22T11:43:13.363Z</time></trkpt><trkpt lat="43.1898817" lon="13.0452167"><ele>324.5</ele><time>2026-03-22T11:43:14.418Z</time></trkpt><trkpt lat="43.1898283" lon="13.0451667"><ele>325.0</ele><time>2026-03-22T11:43:15.358Z</time></trkpt><trkpt lat="43.18974" lon="13.0450933"><ele>325.0</ele><time>2026-03-22T11:43:17.382Z</time></trkpt><trkpt lat="43.1896617" lon="13.0450517"><ele>325.0</ele><time>2026-03-22T11:43:20.419Z</time></trkpt><trkpt lat="43.1895933" lon="13.04502"><ele>325.0</ele><time>2026-03-22T11:43:23.376Z</time></trkpt><trkpt lat="43.189535" lon="13.0449817"><ele>325.0</ele><time>2026-03-22T11:43:26.435Z</time></trkpt><trkpt lat="43.1894583" lon="13.04494"><ele>325.0</ele><time>2026-03-22T11:43:29.371Z</time></trkpt><trkpt lat="43.1893817" lon="13.0448983"><ele>325.0</ele><time>2026-03-22T11:43:32.436Z</time></trkpt><trkpt lat="43.18932" lon="13.044835"><ele>324.1428571428571</ele><time>2026-03-22T11:43:35.375Z</time></trkpt><trkpt lat="43.1892683" lon="13.0447583"><ele>323.28571428571433</ele><time>2026-03-22T11:43:37.373Z</time></trkpt><trkpt lat="43.1892033" lon="13.0446483"><ele>322.42857142857144</ele><time>2026-03-22T11:43:39.361Z</time></trkpt><trkpt lat="43.1891717" lon="13.0445717"><ele>321.57142857142856</ele><time>2026-03-22T11:43:40.375Z</time></trkpt><trkpt lat="43.18915" lon="13.0444833"><ele>320.71428571428567</ele><time>2026-03-22T11:43:41.374Z</time></trkpt><trkpt lat="43.1891267" lon="13.0443933"><ele>319.8571428571429</ele><time>2026-03-22T11:43:42.361Z</time></trkpt><trkpt lat="43.1891083" lon="13.0443083"><ele>319.0</ele><time>2026-03-22T11:43:43.377Z</time></trkpt><trkpt lat="43.1890883" lon="13.0441583"><ele>319.16666666666663</ele><time>2026-03-22T11:43:45.367Z</time></trkpt><trkpt lat="43.1891067" lon="13.04403"><ele>319.3333333333333</ele><time>2026-03-22T11:43:47.372Z</time></trkpt><trkpt lat="43.189125" lon="13.04392"><ele>319.5</ele><time>2026-03-22T11:43:49.375Z</time></trkpt><trkpt lat="43.189145" lon="13.04383"><ele>319.6666666666667</ele><time>2026-03-22T11:43:51.369Z</time></trkpt><trkpt lat="43.1891867" lon="13.0437483"><ele>319.83333333333337</ele><time>2026-03-22T11:43:53.372Z</time></trkpt><trkpt lat="43.1892217" lon="13.0436383"><ele>320.0</ele><time>2026-03-22T11:43:55.37Z</time></trkpt><trkpt lat="43.1892467" lon="13.043555"><ele>320.0</ele><time>2026-03-22T11:43:56.436Z</time></trkpt><trkpt lat="43.1892733" lon="13.043445"><ele>320.0</ele><time>2026-03-22T11:43:57.355Z</time></trkpt><trkpt lat="43.1892917" lon="13.0433117"><ele>320.0</ele><time>2026-03-22T11:43:58.357Z</time></trkpt><trkpt lat="43.189305" lon="13.0431767"><ele>320.0</ele><time>2026-03-22T11:43:59.342Z</time></trkpt><trkpt lat="43.1893083" lon="13.0430517"><ele>320.0</ele><time>2026-03-22T11:44:00.374Z</time></trkpt><trkpt lat="43.1893217" lon="13.042935"><ele>319.83333333333337</ele><time>2026-03-22T11:44:01.372Z</time></trkpt><trkpt lat="43.189325" lon="13.0428267"><ele>319.6666666666667</ele><time>2026-03-22T11:44:02.439Z</time></trkpt><trkpt lat="43.1893183" lon="13.0427267"><ele>319.5</ele><time>2026-03-22T11:44:03.371Z</time></trkpt><trkpt lat="43.1893167" lon="13.0426333"><ele>319.3333333333333</ele><time>2026-03-22T11:44:04.377Z</time></trkpt><trkpt lat="43.18931" lon="13.0424917"><ele>319.16666666666663</ele><time>2026-03-22T11:44:06.382Z</time></trkpt><trkpt lat="43.1892783" lon="13.04235"><ele>319.0</ele><time>2026-03-22T11:44:08.435Z</time></trkpt><trkpt lat="43.1892167" lon="13.0422317"><ele>318.0</ele><time>2026-03-22T11:44:10.378Z</time></trkpt><trkpt lat="43.1891567" lon="13.0421483"><ele>317.0</ele><time>2026-03-22T11:44:12.381Z</time></trkpt><trkpt lat="43.1890333" lon="13.0420583"><ele>316.0</ele><time>2026-03-22T11:44:14.437Z</time></trkpt><trkpt lat="43.1889617" lon="13.0419767"><ele>315.0</ele><time>2026-03-22T11:44:15.371Z</time></trkpt><trkpt lat="43.188905" lon="13.0419167"><ele>314.0</ele><time>2026-03-22T11:44:16.36Z</time></trkpt><trkpt lat="43.1888117" lon="13.0418267"><ele>314.59999999999997</ele><time>2026-03-22T11:44:18.38Z</time></trkpt><trkpt lat="43.1887117" lon="13.0417633"><ele>315.2</ele><time>2026-03-22T11:44:20.438Z</time></trkpt><trkpt lat="43.1886033" lon="13.0416967"><ele>315.79999999999995</ele><time>2026-03-22T11:44:22.381Z</time></trkpt><trkpt lat="43.18851" lon="13.04159"><ele>316.4</ele><time>2026-03-22T11:44:24.379Z</time></trkpt><trkpt lat="43.18845" lon="13.0415117"><ele>317.0</ele><time>2026-03-22T11:44:25.379Z</time></trkpt><trkpt lat="43.188385" lon="13.0414117"><ele>317.0</ele><time>2026-03-22T11:44:26.442Z</time></trkpt><trkpt lat="43.188315" lon="13.041295"><ele>317.0</ele><time>2026-03-22T11:44:27.377Z</time></trkpt><trkpt lat="43.1882517" lon="13.0411833"><ele>317.0</ele><time>2026-03-22T11:44:28.378Z</time></trkpt><trkpt lat="43.1882083" lon="13.0410617"><ele>317.0</ele><time>2026-03-22T11:44:29.376Z</time></trkpt><trkpt lat="43.188165" lon="13.04096"><ele>317.0</ele><time>2026-03-22T11:44:30.377Z</time></trkpt><trkpt lat="43.1881133" lon="13.0408767"><ele>318.2</ele><time>2026-03-22T11:44:31.375Z</time></trkpt><trkpt lat="43.188055" lon="13.0407833"><ele>319.4</ele><time>2026-03-22T11:44:32.405Z</time></trkpt><trkpt lat="43.1880017" lon="13.0406833"><ele>320.59999999999997</ele><time>2026-03-22T11:44:33.38Z</time></trkpt><trkpt lat="43.1879467" lon="13.0405833"><ele>321.79999999999995</ele><time>2026-03-22T11:44:34.385Z</time></trkpt><trkpt lat="43.1879017" lon="13.0404967"><ele>323.0</ele><time>2026-03-22T11:44:35.381Z</time></trkpt><trkpt lat="43.1878383" lon="13.0403817"><ele>323.0</ele><time>2026-03-22T11:44:37.369Z</time></trkpt><trkpt lat="43.187815" lon="13.0403"><ele>323.0</ele><time>2026-03-22T11:44:39.37Z</time></trkpt><trkpt lat="43.1877767" lon="13.0402183"><ele>323.0</ele><time>2026-03-22T11:44:42.37Z</time></trkpt><trkpt lat="43.1877533" lon="13.040085"><ele>323.0</ele><time>2026-03-22T11:44:46.365Z</time></trkpt><trkpt lat="43.1877183" lon="13.0399333"><ele>323.0</ele><time>2026-03-22T11:44:48.363Z</time></trkpt><trkpt lat="43.1876933" lon="13.039805"><ele>323.0</ele><time>2026-03-22T11:44:50.43Z</time></trkpt><trkpt lat="43.1876567" lon="13.03967"><ele>322.6666666666667</ele><time>2026-03-22T11:44:52.371Z</time></trkpt><trkpt lat="43.18762" lon="13.0395533"><ele>322.33333333333337</ele><time>2026-03-22T11:44:54.373Z</time></trkpt><trkpt lat="43.1875633" lon="13.0394517"><ele>322.0</ele><time>2026-03-22T11:44:56.435Z</time></trkpt><trkpt lat="43.1875033" lon="13.0394133"><ele>321.6666666666667</ele><time>2026-03-22T11:44:57.356Z</time></trkpt><trkpt lat="43.1874333" lon="13.03936"><ele>321.3333333333333</ele><time>2026-03-22T11:44:58.359Z</time></trkpt><trkpt lat="43.1873383" lon="13.039325"><ele>321.0</ele><time>2026-03-22T11:44:59.37Z</time></trkpt><trkpt lat="43.187245" lon="13.039315"><ele>321.0</ele><time>2026-03-22T11:45:00.357Z</time></trkpt><trkpt lat="43.1871633" lon="13.039285"><ele>321.0</ele><time>2026-03-22T11:45:01.368Z</time></trkpt><trkpt lat="43.1870867" lon="13.0392567"><ele>321.0</ele><time>2026-03-22T11:45:02.439Z</time></trkpt><trkpt lat="43.1870167" lon="13.0392283"><ele>321.0</ele><time>2026-03-22T11:45:03.375Z</time></trkpt><trkpt lat="43.1869433" lon="13.0392"><ele>321.0</ele><time>2026-03-22T11:45:04.379Z</time></trkpt><trkpt lat="43.186855" lon="13.0391767"><ele>321.0</ele><time>2026-03-22T11:45:05.381Z</time></trkpt><trkpt lat="43.1867633" lon="13.039155"><ele>321.0</ele><time>2026-03-22T11:45:06.379Z</time></trkpt><trkpt lat="43.18668" lon="13.039145"><ele>321.0</ele><time>2026-03-22T11:45:07.383Z</time></trkpt><trkpt lat="43.1865967" lon="13.039135"><ele>321.0</ele><time>2026-03-22T11:45:08.429Z</time></trkpt><trkpt lat="43.1865133" lon="13.0391183"><ele>321.0</ele><time>2026-03-22T11:45:09.373Z</time></trkpt><trkpt lat="43.1864317" lon="13.0391033"><ele>321.0</ele><time>2026-03-22T11:45:10.381Z</time></trkpt><trkpt lat="43.1863517" lon="13.0390817"><ele>321.0</ele><time>2026-03-22T11:45:11.375Z</time></trkpt><trkpt lat="43.1862783" lon="13.0390567"><ele>319.40000000000003</ele><time>2026-03-22T11:45:12.38Z</time></trkpt><trkpt lat="43.1862083" lon="13.0390317"><ele>317.8</ele><time>2026-03-22T11:45:13.38Z</time></trkpt><trkpt lat="43.1861183" lon="13.0389983"><ele>316.20000000000005</ele><time>2026-03-22T11:45:14.436Z</time></trkpt><trkpt lat="43.18601" lon="13.0389567"><ele>314.6</ele><time>2026-03-22T11:45:15.374Z</time></trkpt><trkpt lat="43.1859133" lon="13.0389"><ele>313.0</ele><time>2026-03-22T11:45:16.39Z</time></trkpt><trkpt lat="43.1858217" lon="13.03885"><ele>313.0</ele><time>2026-03-22T11:45:17.372Z</time></trkpt><trkpt lat="43.1857283" lon="13.0387967"><ele>313.0</ele><time>2026-03-22T11:45:18.381Z</time></trkpt><trkpt lat="43.1856583" lon="13.03876"><ele>313.0</ele><time>2026-03-22T11:45:19.369Z</time></trkpt><trkpt lat="43.18553" lon="13.0387517"><ele>313.0</ele><time>2026-03-22T11:45:21.378Z</time></trkpt><trkpt lat="43.1854467" lon="13.0387667"><ele>313.0</ele><time>2026-03-22T11:45:22.375Z</time></trkpt><trkpt lat="43.1853483" lon="13.038785"><ele>313.8333333333333</ele><time>2026-03-22T11:45:23.383Z</time></trkpt><trkpt lat="43.1852433" lon="13.0388033"><ele>314.66666666666663</ele><time>2026-03-22T11:45:24.37Z</time></trkpt><trkpt lat="43.1851467" lon="13.0388133"><ele>315.5</ele><time>2026-03-22T11:45:25.38Z</time></trkpt><trkpt lat="43.18506" lon="13.0388133"><ele>316.3333333333333</ele><time>2026-03-22T11:45:26.441Z</time></trkpt><trkpt lat="43.184975" lon="13.0387967"><ele>317.1666666666667</ele><time>2026-03-22T11:45:27.373Z</time></trkpt><trkpt lat="43.18491" lon="13.0387683"><ele>318.0</ele><time>2026-03-22T11:45:28.38Z</time></trkpt><trkpt lat="43.18484" lon="13.0386517"><ele>318.0</ele><time>2026-03-22T11:45:30.378Z</time></trkpt><trkpt lat="43.1848467" lon="13.03854"><ele>318.0</ele><time>2026-03-22T11:45:31.383Z</time></trkpt><trkpt lat="43.1848483" lon="13.0384333"><ele>318.0</ele><time>2026-03-22T11:45:32.44Z</time></trkpt><trkpt lat="43.1848483" lon="13.0382983"><ele>318.0</ele><time>2026-03-22T11:45:33.377Z</time></trkpt><trkpt lat="43.1848433" lon="13.038165"><ele>318.0</ele><time>2026-03-22T11:45:34.377Z</time></trkpt><trkpt lat="43.1848283" lon="13.0380283"><ele>320.6</ele><time>2026-03-22T11:45:35.361Z</time></trkpt><trkpt lat="43.1848117" lon="13.0378917"><ele>323.20000000000005</ele><time>2026-03-22T11:45:36.369Z</time></trkpt><trkpt lat="43.1847967" lon="13.037755"><ele>325.8</ele><time>2026-03-22T11:45:37.376Z</time></trkpt><trkpt lat="43.1847783" lon="13.0376217"><ele>328.40000000000003</ele><time>2026-03-22T11:45:38.435Z</time></trkpt><trkpt lat="43.1847617" lon="13.0374817"><ele>331.0</ele><time>2026-03-22T11:45:39.375Z</time></trkpt><trkpt lat="43.1847367" lon="13.03735"><ele>331.0</ele><time>2026-03-22T11:45:40.381Z</time></trkpt><trkpt lat="43.1847067" lon="13.0372233"><ele>331.0</ele><time>2026-03-22T11:45:41.381Z</time></trkpt><trkpt lat="43.1846733" lon="13.0371067"><ele>331.0</ele><time>2026-03-22T11:45:42.377Z</time></trkpt><trkpt lat="43.184625" lon="13.0370083"><ele>331.0</ele><time>2026-03-22T11:45:43.379Z</time></trkpt><trkpt lat="43.18457" lon="13.0369217"><ele>331.0</ele><time>2026-03-22T11:45:44.432Z</time></trkpt><trkpt lat="43.184495" lon="13.0368483"><ele>331.0</ele><time>2026-03-22T11:45:45.377Z</time></trkpt><trkpt lat="43.18441" lon="13.036775"><ele>331.0</ele><time>2026-03-22T11:45:46.378Z</time></trkpt><trkpt lat="43.1843167" lon="13.036685"><ele>331.0</ele><time>2026-03-22T11:45:47.365Z</time></trkpt><trkpt lat="43.1842183" lon="13.0365783"><ele>331.0</ele><time>2026-03-22T11:45:48.375Z</time></trkpt><trkpt lat="43.184115" lon="13.0364783"><ele>329.0</ele><time>2026-03-22T11:45:49.374Z</time></trkpt><trkpt lat="43.1840117" lon="13.0363933"><ele>327.0</ele><time>2026-03-22T11:45:50.438Z</time></trkpt><trkpt lat="43.183895" lon="13.036335"><ele>325.0</ele><time>2026-03-22T11:45:51.376Z</time></trkpt><trkpt lat="43.18377" lon="13.0362967"><ele>323.0</ele><time>2026-03-22T11:45:52.358Z</time></trkpt><trkpt lat="43.1836467" lon="13.0362833"><ele>323.0</ele><time>2026-03-22T11:45:53.378Z</time></trkpt><trkpt lat="43.18353" lon="13.0362933"><ele>323.0</ele><time>2026-03-22T11:45:54.382Z</time></trkpt><trkpt lat="43.183415" lon="13.036315"><ele>323.0</ele><time>2026-03-22T11:45:55.38Z</time></trkpt><trkpt lat="43.1833083" lon="13.03634"><ele>323.0</ele><time>2026-03-22T11:45:56.404Z</time></trkpt><trkpt lat="43.1832083" lon="13.0363717"><ele>323.0</ele><time>2026-03-22T11:45:57.38Z</time></trkpt><trkpt lat="43.1831033" lon="13.0364383"><ele>324.79999999999995</ele><time>2026-03-22T11:45:58.379Z</time></trkpt><trkpt lat="43.183005" lon="13.0365117"><ele>326.6</ele><time>2026-03-22T11:45:59.38Z</time></trkpt><trkpt lat="43.182905" lon="13.03657"><ele>328.4</ele><time>2026-03-22T11:46:00.384Z</time></trkpt><trkpt lat="43.1827983" lon="13.0366067"><ele>330.20000000000005</ele><time>2026-03-22T11:46:01.38Z</time></trkpt><trkpt lat="43.18268" lon="13.0366167"><ele>332.0</ele><time>2026-03-22T11:46:02.447Z</time></trkpt><trkpt lat="43.1825383" lon="13.0366017"><ele>332.0</ele><time>2026-03-22T11:46:03.377Z</time></trkpt><trkpt lat="43.1823767" lon="13.0365567"><ele>332.0</ele><time>2026-03-22T11:46:04.373Z</time></trkpt><trkpt lat="43.1822183" lon="13.0364917"><ele>332.0</ele><time>2026-03-22T11:46:05.382Z</time></trkpt><trkpt lat="43.1820783" lon="13.0364317"><ele>333.0</ele><time>2026-03-22T11:46:06.355Z</time></trkpt><trkpt lat="43.1819383" lon="13.0363767"><ele>334.0</ele><time>2026-03-22T11:46:07.378Z</time></trkpt><trkpt lat="43.1818033" lon="13.036335"><ele>335.0</ele><time>2026-03-22T11:46:08.438Z</time></trkpt><trkpt lat="43.181675" lon="13.0362983"><ele>336.0</ele><time>2026-03-22T11:46:09.375Z</time></trkpt><trkpt lat="43.1815483" lon="13.0362667"><ele>336.6</ele><time>2026-03-22T11:46:10.383Z</time></trkpt><trkpt lat="43.1814333" lon="13.036235"><ele>337.20000000000005</ele><time>2026-03-22T11:46:11.38Z</time></trkpt><trkpt lat="43.1813317" lon="13.0361933"><ele>337.79999999999995</ele><time>2026-03-22T11:46:12.372Z</time></trkpt><trkpt lat="43.1812533" lon="13.036125"><ele>338.4</ele><time>2026-03-22T11:46:13.38Z</time></trkpt><trkpt lat="43.1811967" lon="13.0360167"><ele>339.0</ele><time>2026-03-22T11:46:14.438Z</time></trkpt><trkpt lat="43.1811733" lon="13.0358567"><ele>338.5</ele><time>2026-03-22T11:46:15.377Z</time></trkpt><trkpt lat="43.1811667" lon="13.03567"><ele>338.0</ele><time>2026-03-22T11:46:16.378Z</time></trkpt><trkpt lat="43.1811667" lon="13.0354583"><ele>337.5</ele><time>2026-03-22T11:46:17.392Z</time></trkpt><trkpt lat="43.18116" lon="13.0352583"><ele>337.0</ele><time>2026-03-22T11:46:18.38Z</time></trkpt><trkpt lat="43.181145" lon="13.03507"><ele>337.25</ele><time>2026-03-22T11:46:19.382Z</time></trkpt><trkpt lat="43.1811333" lon="13.0348833"><ele>337.5</ele><time>2026-03-22T11:46:20.435Z</time></trkpt><trkpt lat="43.1811183" lon="13.0346917"><ele>337.75</ele><time>2026-03-22T11:46:21.376Z</time></trkpt><trkpt lat="43.1811033" lon="13.0344983"><ele>338.0</ele><time>2026-03-22T11:46:22.376Z</time></trkpt><trkpt lat="43.1810833" lon="13.0343033"><ele>338.5</ele><time>2026-03-22T11:46:23.358Z</time></trkpt><trkpt lat="43.1810617" lon="13.0341083"><ele>339.0</ele><time>2026-03-22T11:46:24.382Z</time></trkpt><trkpt lat="43.18104" lon="13.03392"><ele>339.5</ele><time>2026-03-22T11:46:25.383Z</time></trkpt><trkpt lat="43.18102" lon="13.0337383"><ele>340.0</ele><time>2026-03-22T11:46:26.436Z</time></trkpt><trkpt lat="43.1810017" lon="13.0335583"><ele>340.0</ele><time>2026-03-22T11:46:27.377Z</time></trkpt><trkpt lat="43.1809817" lon="13.0333867"><ele>340.0</ele><time>2026-03-22T11:46:28.379Z</time></trkpt><trkpt lat="43.1809583" lon="13.033235"><ele>340.0</ele><time>2026-03-22T11:46:29.38Z</time></trkpt><trkpt lat="43.18094" lon="13.0330983"><ele>340.0</ele><time>2026-03-22T11:46:30.381Z</time></trkpt><trkpt lat="43.180925" lon="13.0329717"><ele>340.0</ele><time>2026-03-22T11:46:31.378Z</time></trkpt><trkpt lat="43.1809167" lon="13.0328617"><ele>340.5</ele><time>2026-03-22T11:46:32.439Z</time></trkpt><trkpt lat="43.180915" lon="13.032765"><ele>341.0</ele><time>2026-03-22T11:46:33.377Z</time></trkpt><trkpt lat="43.18096" lon="13.0326267"><ele>341.5</ele><time>2026-03-22T11:46:35.382Z</time></trkpt><trkpt lat="43.1810483" lon="13.0326283"><ele>342.0</ele><time>2026-03-22T11:46:37.38Z</time></trkpt><trkpt lat="43.18111" lon="13.0326933"><ele>342.5</ele><time>2026-03-22T11:46:38.435Z</time></trkpt><trkpt lat="43.181185" lon="13.0327833"><ele>343.0</ele><time>2026-03-22T11:46:39.376Z</time></trkpt><trkpt lat="43.1812783" lon="13.0328867"><ele>343.0</ele><time>2026-03-22T11:46:40.363Z</time></trkpt><trkpt lat="43.1813767" lon="13.0329933"><ele>343.0</ele><time>2026-03-22T11:46:41.378Z</time></trkpt><trkpt lat="43.1814817" lon="13.0330983"><ele>343.0</ele><time>2026-03-22T11:46:42.38Z</time></trkpt><trkpt lat="43.181595" lon="13.0331983"><ele>343.0</ele><time>2026-03-22T11:46:43.384Z</time></trkpt><trkpt lat="43.1817117" lon="13.0333017"><ele>341.5</ele><time>2026-03-22T11:46:44.438Z</time></trkpt><trkpt lat="43.1818333" lon="13.033405"><ele>340.0</ele><time>2026-03-22T11:46:45.38Z</time></trkpt><trkpt lat="43.1819583" lon="13.0334933"><ele>338.5</ele><time>2026-03-22T11:46:46.379Z</time></trkpt><trkpt lat="43.1820817" lon="13.0335567"><ele>337.0</ele><time>2026-03-22T11:46:47.381Z</time></trkpt><trkpt lat="43.18221" lon="13.0335817"><ele>337.0</ele><time>2026-03-22T11:46:48.38Z</time></trkpt><trkpt lat="43.1823333" lon="13.03357"><ele>337.0</ele><time>2026-03-22T11:46:49.384Z</time></trkpt><trkpt lat="43.1824583" lon="13.0335183"><ele>337.0</ele><time>2026-03-22T11:46:50.439Z</time></trkpt><trkpt lat="43.1825483" lon="13.0334117"><ele>337.0</ele><time>2026-03-22T11:46:51.376Z</time></trkpt><trkpt lat="43.1826167" lon="13.0332767"><ele>333.3333333333333</ele><time>2026-03-22T11:46:52.383Z</time></trkpt><trkpt lat="43.1826367" lon="13.0330783"><ele>329.6666666666667</ele><time>2026-03-22T11:46:53.37Z</time></trkpt><trkpt lat="43.1826333" lon="13.0328517"><ele>326.0</ele><time>2026-03-22T11:46:54.383Z</time></trkpt><trkpt lat="43.1825517" lon="13.0325"><ele>325.6666666666667</ele><time>2026-03-22T11:46:55.381Z</time></trkpt><trkpt lat="43.1825383" lon="13.032265"><ele>325.3333333333333</ele><time>2026-03-22T11:46:56.441Z</time></trkpt><trkpt lat="43.1825317" lon="13.0320583"><ele>325.0</ele><time>2026-03-22T11:46:57.377Z</time></trkpt><trkpt lat="43.182535" lon="13.03186"><ele>325.0</ele><time>2026-03-22T11:46:58.381Z</time></trkpt><trkpt lat="43.1825533" lon="13.031685"><ele>325.0</ele><time>2026-03-22T11:46:59.379Z</time></trkpt><trkpt lat="43.18258" lon="13.0315333"><ele>325.0</ele><time>2026-03-22T11:47:00.383Z</time></trkpt><trkpt lat="43.18263" lon="13.0314217"><ele>325.0</ele><time>2026-03-22T11:47:01.382Z</time></trkpt><trkpt lat="43.1827" lon="13.03136"><ele>325.0</ele><time>2026-03-22T11:47:02.444Z</time></trkpt><trkpt lat="43.1827867" lon="13.0313433"><ele>324.2</ele><time>2026-03-22T11:47:03.376Z</time></trkpt><trkpt lat="43.1828667" lon="13.0313633"><ele>323.4</ele><time>2026-03-22T11:47:04.378Z</time></trkpt><trkpt lat="43.1829433" lon="13.0314167"><ele>322.6</ele><time>2026-03-22T11:47:05.381Z</time></trkpt><trkpt lat="43.1830233" lon="13.0314983"><ele>321.8</ele><time>2026-03-22T11:47:06.382Z</time></trkpt><trkpt lat="43.1831183" lon="13.0315933"><ele>321.0</ele><time>2026-03-22T11:47:07.377Z</time></trkpt><trkpt lat="43.1832283" lon="13.0317"><ele>320.5</ele><time>2026-03-22T11:47:08.437Z</time></trkpt><trkpt lat="43.1833417" lon="13.0318117"><ele>320.0</ele><time>2026-03-22T11:47:09.378Z</time></trkpt><trkpt lat="43.1834567" lon="13.031915"><ele>319.5</ele><time>2026-03-22T11:47:10.371Z</time></trkpt><trkpt lat="43.1835717" lon="13.03201"><ele>319.0</ele><time>2026-03-22T11:47:11.38Z</time></trkpt><trkpt lat="43.1836783" lon="13.0321017"><ele>319.0</ele><time>2026-03-22T11:47:12.38Z</time></trkpt><trkpt lat="43.1837783" lon="13.0321933"><ele>319.0</ele><time>2026-03-22T11:47:13.383Z</time></trkpt><trkpt lat="43.1838917" lon="13.0322667"><ele>319.0</ele><time>2026-03-22T11:47:14.433Z</time></trkpt><trkpt lat="43.1840117" lon="13.0323167"><ele>319.0</ele><time>2026-03-22T11:47:15.375Z</time></trkpt><trkpt lat="43.1841383" lon="13.0323383"><ele>321.25</ele><time>2026-03-22T11:47:16.373Z</time></trkpt><trkpt lat="43.184265" lon="13.0323517"><ele>323.5</ele><time>2026-03-22T11:47:17.379Z</time></trkpt><trkpt lat="43.1843933" lon="13.0323633"><ele>325.75</ele><time>2026-03-22T11:47:18.381Z</time></trkpt><trkpt lat="43.184525" lon="13.0323733"><ele>328.0</ele><time>2026-03-22T11:47:19.38Z</time></trkpt><trkpt lat="43.1846533" lon="13.0323717"><ele>328.0</ele><time>2026-03-22T11:47:20.437Z</time></trkpt><trkpt lat="43.18478" lon="13.03236"><ele>328.0</ele><time>2026-03-22T11:47:21.376Z</time></trkpt><trkpt lat="43.1849067" lon="13.0323417"><ele>328.0</ele><time>2026-03-22T11:47:22.381Z</time></trkpt><trkpt lat="43.1850317" lon="13.0323017"><ele>328.0</ele><time>2026-03-22T11:47:23.383Z</time></trkpt><trkpt lat="43.185155" lon="13.0322417"><ele>328.5</ele><time>2026-03-22T11:47:24.379Z</time></trkpt><trkpt lat="43.1852733" lon="13.0321617"><ele>329.0</ele><time>2026-03-22T11:47:25.381Z</time></trkpt><trkpt lat="43.185385" lon="13.0320717"><ele>329.5</ele><time>2026-03-22T11:47:26.441Z</time></trkpt><trkpt lat="43.1854983" lon="13.03198"><ele>330.0</ele><time>2026-03-22T11:47:27.372Z</time></trkpt><trkpt lat="43.1856133" lon="13.03189"><ele>330.75</ele><time>2026-03-22T11:47:28.38Z</time></trkpt><trkpt lat="43.1857283" lon="13.0318"><ele>331.5</ele><time>2026-03-22T11:47:29.383Z</time></trkpt><trkpt lat="43.18583" lon="13.03172"><ele>332.25</ele><time>2026-03-22T11:47:30.377Z</time></trkpt><trkpt lat="43.1859217" lon="13.0316517"><ele>333.0</ele><time>2026-03-22T11:47:31.382Z</time></trkpt><trkpt lat="43.1860083" lon="13.03159"><ele>333.0</ele><time>2026-03-22T11:47:32.442Z</time></trkpt><trkpt lat="43.18609" lon="13.031535"><ele>333.0</ele><time>2026-03-22T11:47:33.371Z</time></trkpt><trkpt lat="43.1861633" lon="13.031485"><ele>333.0</ele><time>2026-03-22T11:47:34.377Z</time></trkpt><trkpt lat="43.1862317" lon="13.0314433"><ele>333.0</ele><time>2026-03-22T11:47:35.38Z</time></trkpt><trkpt lat="43.186315" lon="13.0313867"><ele>333.0</ele><time>2026-03-22T11:47:37.381Z</time></trkpt><trkpt lat="43.18637" lon="13.0312783"><ele>333.0</ele><time>2026-03-22T11:47:42.371Z</time></trkpt><trkpt lat="43.1864" lon="13.0311167"><ele>333.0</ele><time>2026-03-22T11:47:44.422Z</time></trkpt><trkpt lat="43.1864217" lon="13.0310133"><ele>333.0</ele><time>2026-03-22T11:47:45.367Z</time></trkpt><trkpt lat="43.1864483" lon="13.03091"><ele>333.0</ele><time>2026-03-22T11:47:46.37Z</time></trkpt><trkpt lat="43.1864767" lon="13.030805"><ele>333.0</ele><time>2026-03-22T11:47:47.378Z</time></trkpt><trkpt lat="43.186495" lon="13.0307067"><ele>333.0</ele><time>2026-03-22T11:47:48.379Z</time></trkpt><trkpt lat="43.186505" lon="13.0306017"><ele>333.0</ele><time>2026-03-22T11:47:49.379Z</time></trkpt><trkpt lat="43.18652" lon="13.0305067"><ele>333.3333333333333</ele><time>2026-03-22T11:47:50.437Z</time></trkpt><trkpt lat="43.186545" lon="13.0304267"><ele>333.6666666666667</ele><time>2026-03-22T11:47:51.376Z</time></trkpt><trkpt lat="43.1865817" lon="13.0303517"><ele>334.0</ele><time>2026-03-22T11:47:52.381Z</time></trkpt><trkpt lat="43.1866333" lon="13.0302633"><ele>334.33333333333337</ele><time>2026-03-22T11:47:53.382Z</time></trkpt><trkpt lat="43.186685" lon="13.03016"><ele>334.6666666666667</ele><time>2026-03-22T11:47:54.385Z</time></trkpt><trkpt lat="43.1867267" lon="13.0300533"><ele>335.0</ele><time>2026-03-22T11:47:55.382Z</time></trkpt><trkpt lat="43.1867533" lon="13.0299333"><ele>335.6</ele><time>2026-03-22T11:47:56.437Z</time></trkpt><trkpt lat="43.1867733" lon="13.0298"><ele>336.2</ele><time>2026-03-22T11:47:57.376Z</time></trkpt><trkpt lat="43.1867917" lon="13.0296633"><ele>336.79999999999995</ele><time>2026-03-22T11:47:58.361Z</time></trkpt><trkpt lat="43.1867967" lon="13.0295317"><ele>337.4</ele><time>2026-03-22T11:47:59.379Z</time></trkpt><trkpt lat="43.1867867" lon="13.0294083"><ele>338.0</ele><time>2026-03-22T11:48:00.388Z</time></trkpt><trkpt lat="43.1867483" lon="13.0292833"><ele>338.0</ele><time>2026-03-22T11:48:01.373Z</time></trkpt><trkpt lat="43.1866883" lon="13.0291483"><ele>338.0</ele><time>2026-03-22T11:48:02.443Z</time></trkpt><trkpt lat="43.1866133" lon="13.0290083"><ele>338.0</ele><time>2026-03-22T11:48:03.376Z</time></trkpt><trkpt lat="43.1865383" lon="13.02887"><ele>338.0</ele><time>2026-03-22T11:48:04.376Z</time></trkpt><trkpt lat="43.1864567" lon="13.0287233"><ele>338.25</ele><time>2026-03-22T11:48:05.382Z</time></trkpt><trkpt lat="43.186375" lon="13.0285667"><ele>338.5</ele><time>2026-03-22T11:48:06.378Z</time></trkpt><trkpt lat="43.18629" lon="13.0284083"><ele>338.75</ele><time>2026-03-22T11:48:07.38Z</time></trkpt><trkpt lat="43.18621" lon="13.0282583"><ele>339.0</ele><time>2026-03-22T11:48:08.433Z</time></trkpt><trkpt lat="43.1861317" lon="13.0281183"><ele>339.2</ele><time>2026-03-22T11:48:09.37Z</time></trkpt><trkpt lat="43.1860617" lon="13.0279867"><ele>339.4</ele><time>2026-03-22T11:48:10.379Z</time></trkpt><trkpt lat="43.1859983" lon="13.02786"><ele>339.6</ele><time>2026-03-22T11:48:11.382Z</time></trkpt><trkpt lat="43.1859433" lon="13.0277417"><ele>339.8</ele><time>2026-03-22T11:48:12.383Z</time></trkpt><trkpt lat="43.1859067" lon="13.02763"><ele>340.0</ele><time>2026-03-22T11:48:13.383Z</time></trkpt><trkpt lat="43.1858933" lon="13.027515"><ele>340.2</ele><time>2026-03-22T11:48:14.417Z</time></trkpt><trkpt lat="43.1859033" lon="13.0274033"><ele>340.4</ele><time>2026-03-22T11:48:15.356Z</time></trkpt><trkpt lat="43.185945" lon="13.0273"><ele>340.6</ele><time>2026-03-22T11:48:16.35Z</time></trkpt><trkpt lat="43.1860133" lon="13.027205"><ele>340.8</ele><time>2026-03-22T11:48:17.373Z</time></trkpt><trkpt lat="43.1861133" lon="13.0271233"><ele>341.0</ele><time>2026-03-22T11:48:18.372Z</time></trkpt><trkpt lat="43.1862167" lon="13.0270317"><ele>341.0</ele><time>2026-03-22T11:48:19.357Z</time></trkpt><trkpt lat="43.1863217" lon="13.0269383"><ele>341.0</ele><time>2026-03-22T11:48:20.429Z</time></trkpt><trkpt lat="43.1864167" lon="13.0268417"><ele>341.0</ele><time>2026-03-22T11:48:21.374Z</time></trkpt><trkpt lat="43.1865017" lon="13.0267417"><ele>341.0</ele><time>2026-03-22T11:48:22.37Z</time></trkpt><trkpt lat="43.186575" lon="13.02666"><ele>342.6</ele><time>2026-03-22T11:48:23.372Z</time></trkpt><trkpt lat="43.1866483" lon="13.0266017"><ele>344.20000000000005</ele><time>2026-03-22T11:48:24.373Z</time></trkpt><trkpt lat="43.1867083" lon="13.02656"><ele>345.79999999999995</ele><time>2026-03-22T11:48:25.349Z</time></trkpt><trkpt lat="43.18678" lon="13.02649"><ele>347.4</ele><time>2026-03-22T11:48:27.362Z</time></trkpt><trkpt lat="43.1867917" lon="13.0263267"><ele>349.0</ele><time>2026-03-22T11:48:29.355Z</time></trkpt><trkpt lat="43.18678" lon="13.0261967"><ele>349.0</ele><time>2026-03-22T11:48:30.368Z</time></trkpt><trkpt lat="43.1867633" lon="13.02603"><ele>349.0</ele><time>2026-03-22T11:48:31.371Z</time></trkpt><trkpt lat="43.1867367" lon="13.0258217"><ele>349.0</ele><time>2026-03-22T11:48:32.438Z</time></trkpt><trkpt lat="43.1867033" lon="13.0255967"><ele>349.0</ele><time>2026-03-22T11:48:33.371Z</time></trkpt><trkpt lat="43.1866733" lon="13.02538"><ele>352.66666666666663</ele><time>2026-03-22T11:48:34.373Z</time></trkpt><trkpt lat="43.1866417" lon="13.025165"><ele>356.3333333333333</ele><time>2026-03-22T11:48:35.375Z</time></trkpt><trkpt lat="43.1866067" lon="13.0249567"><ele>360.0</ele><time>2026-03-22T11:48:36.372Z</time></trkpt><trkpt lat="43.18657" lon="13.0247483"><ele>360.6666666666667</ele><time>2026-03-22T11:48:37.366Z</time></trkpt><trkpt lat="43.1865233" lon="13.0245383"><ele>361.33333333333337</ele><time>2026-03-22T11:48:38.434Z</time></trkpt><trkpt lat="43.186475" lon="13.0243283"><ele>362.0</ele><time>2026-03-22T11:48:39.364Z</time></trkpt><trkpt lat="43.1864217" lon="13.0241233"><ele>364.33333333333337</ele><time>2026-03-22T11:48:40.365Z</time></trkpt><trkpt lat="43.1863767" lon="13.0239167"><ele>366.6666666666667</ele><time>2026-03-22T11:48:41.377Z</time></trkpt><trkpt lat="43.1863483" lon="13.02371"><ele>369.0</ele><time>2026-03-22T11:48:42.373Z</time></trkpt><trkpt lat="43.18633" lon="13.023515"><ele>369.0</ele><time>2026-03-22T11:48:43.372Z</time></trkpt><trkpt lat="43.1863367" lon="13.0233233"><ele>369.0</ele><time>2026-03-22T11:48:44.417Z</time></trkpt><trkpt lat="43.186375" lon="13.0231233"><ele>369.0</ele><time>2026-03-22T11:48:45.364Z</time></trkpt><trkpt lat="43.1864267" lon="13.0229167"><ele>372.0</ele><time>2026-03-22T11:48:46.372Z</time></trkpt><trkpt lat="43.1864933" lon="13.0227017"><ele>375.0</ele><time>2026-03-22T11:48:47.372Z</time></trkpt><trkpt lat="43.1865583" lon="13.02248"><ele>378.0</ele><time>2026-03-22T11:48:48.376Z</time></trkpt><trkpt lat="43.186625" lon="13.02227"><ele>380.0</ele><time>2026-03-22T11:48:49.371Z</time></trkpt><trkpt lat="43.1866833" lon="13.0220783"><ele>382.0</ele><time>2026-03-22T11:48:50.416Z</time></trkpt><trkpt lat="43.1867317" lon="13.02191"><ele>384.0</ele><time>2026-03-22T11:48:51.367Z</time></trkpt><trkpt lat="43.186765" lon="13.0217567"><ele>386.0</ele><time>2026-03-22T11:48:52.374Z</time></trkpt><trkpt lat="43.186775" lon="13.02161"><ele>386.4</ele><time>2026-03-22T11:48:53.371Z</time></trkpt><trkpt lat="43.1867467" lon="13.0214667"><ele>386.8</ele><time>2026-03-22T11:48:54.374Z</time></trkpt><trkpt lat="43.1866933" lon="13.0213283"><ele>387.2</ele><time>2026-03-22T11:48:55.373Z</time></trkpt><trkpt lat="43.18664" lon="13.02121"><ele>387.59999999999997</ele><time>2026-03-22T11:48:56.436Z</time></trkpt><trkpt lat="43.1866017" lon="13.0211183"><ele>388.0</ele><time>2026-03-22T11:48:57.372Z</time></trkpt><trkpt lat="43.1866267" lon="13.02097"><ele>388.0</ele><time>2026-03-22T11:48:59.37Z</time></trkpt><trkpt lat="43.1866717" lon="13.0208883"><ele>388.0</ele><time>2026-03-22T11:49:00.377Z</time></trkpt><trkpt lat="43.1867033" lon="13.020775"><ele>388.0</ele><time>2026-03-22T11:49:01.37Z</time></trkpt><trkpt lat="43.1867117" lon="13.020635"><ele>388.0</ele><time>2026-03-22T11:49:02.421Z</time></trkpt><trkpt lat="43.1867017" lon="13.020475"><ele>388.0</ele><time>2026-03-22T11:49:03.363Z</time></trkpt><trkpt lat="43.186685" lon="13.0202917"><ele>388.79999999999995</ele><time>2026-03-22T11:49:04.369Z</time></trkpt><trkpt lat="43.1866717" lon="13.020135"><ele>389.6</ele><time>2026-03-22T11:49:05.37Z</time></trkpt><trkpt lat="43.186665" lon="13.01998"><ele>390.4</ele><time>2026-03-22T11:49:06.373Z</time></trkpt><trkpt lat="43.18667" lon="13.0198433"><ele>391.20000000000005</ele><time>2026-03-22T11:49:07.369Z</time></trkpt><trkpt lat="43.18669" lon="13.0197467"><ele>392.0</ele><time>2026-03-22T11:49:08.431Z</time></trkpt><trkpt lat="43.18672" lon="13.019665"><ele>393.16666666666663</ele><time>2026-03-22T11:49:09.37Z</time></trkpt><trkpt lat="43.1867667" lon="13.0196017"><ele>394.3333333333333</ele><time>2026-03-22T11:49:10.37Z</time></trkpt><trkpt lat="43.1868817" lon="13.0195483"><ele>395.5</ele><time>2026-03-22T11:49:12.367Z</time></trkpt><trkpt lat="43.186955" lon="13.019555"><ele>396.66666666666663</ele><time>2026-03-22T11:49:13.373Z</time></trkpt><trkpt lat="43.1870433" lon="13.019555"><ele>397.8333333333333</ele><time>2026-03-22T11:49:14.429Z</time></trkpt><trkpt lat="43.1871233" lon="13.0195517"><ele>399.0</ele><time>2026-03-22T11:49:15.361Z</time></trkpt><trkpt lat="43.187195" lon="13.0195433"><ele>399.0</ele><time>2026-03-22T11:49:16.373Z</time></trkpt><trkpt lat="43.1872667" lon="13.01953"><ele>399.0</ele><time>2026-03-22T11:49:17.37Z</time></trkpt><trkpt lat="43.1873467" lon="13.019515"><ele>399.0</ele><time>2026-03-22T11:49:18.359Z</time></trkpt><trkpt lat="43.18743" lon="13.0194967"><ele>399.0</ele><time>2026-03-22T11:49:19.373Z</time></trkpt><trkpt lat="43.1875067" lon="13.0194733"><ele>399.0</ele><time>2026-03-22T11:49:20.426Z</time></trkpt><trkpt lat="43.18759" lon="13.0194483"><ele>399.0</ele><time>2026-03-22T11:49:21.373Z</time></trkpt><trkpt lat="43.1877033" lon="13.0194233"><ele>400.4</ele><time>2026-03-22T11:49:22.368Z</time></trkpt><trkpt lat="43.18781" lon="13.0193983"><ele>401.79999999999995</ele><time>2026-03-22T11:49:23.375Z</time></trkpt><trkpt lat="43.18792" lon="13.019375"><ele>403.20000000000005</ele><time>2026-03-22T11:49:24.377Z</time></trkpt><trkpt lat="43.1880383" lon="13.0193567"><ele>404.6</ele><time>2026-03-22T11:49:25.374Z</time></trkpt><trkpt lat="43.188135" lon="13.01934"><ele>406.0</ele><time>2026-03-22T11:49:26.437Z</time></trkpt><trkpt lat="43.188245" lon="13.0193217"><ele>407.75</ele><time>2026-03-22T11:49:27.369Z</time></trkpt><trkpt lat="43.1883617" lon="13.0192883"><ele>409.5</ele><time>2026-03-22T11:49:28.369Z</time></trkpt><trkpt lat="43.188465" lon="13.0192217"><ele>411.25</ele><time>2026-03-22T11:49:29.373Z</time></trkpt><trkpt lat="43.1885517" lon="13.0191267"><ele>413.0</ele><time>2026-03-22T11:49:30.377Z</time></trkpt><trkpt lat="43.188625" lon="13.0190117"><ele>413.59999999999997</ele><time>2026-03-22T11:49:31.372Z</time></trkpt><trkpt lat="43.188695" lon="13.0189083"><ele>414.2</ele><time>2026-03-22T11:49:32.433Z</time></trkpt><trkpt lat="43.1887683" lon="13.0188117"><ele>414.8</ele><time>2026-03-22T11:49:33.37Z</time></trkpt><trkpt lat="43.188845" lon="13.01872"><ele>415.4</ele><time>2026-03-22T11:49:34.371Z</time></trkpt><trkpt lat="43.188935" lon="13.01862"><ele>416.0</ele><time>2026-03-22T11:49:35.374Z</time></trkpt><trkpt lat="43.1890217" lon="13.0185083"><ele>418.25</ele><time>2026-03-22T11:49:36.376Z</time></trkpt><trkpt lat="43.1891017" lon="13.01839"><ele>420.5</ele><time>2026-03-22T11:49:37.374Z</time></trkpt><trkpt lat="43.18917" lon="13.0182533"><ele>422.75</ele><time>2026-03-22T11:49:38.429Z</time></trkpt><trkpt lat="43.1892317" lon="13.0181083"><ele>425.0</ele><time>2026-03-22T11:49:39.368Z</time></trkpt><trkpt lat="43.1892967" lon="13.0179617"><ele>426.4</ele><time>2026-03-22T11:49:40.373Z</time></trkpt><trkpt lat="43.1893683" lon="13.0178033"><ele>427.8</ele><time>2026-03-22T11:49:41.371Z</time></trkpt><trkpt lat="43.1894483" lon="13.0176683"><ele>429.20000000000005</ele><time>2026-03-22T11:49:42.378Z</time></trkpt><trkpt lat="43.1895183" lon="13.0176033"><ele>430.6</ele><time>2026-03-22T11:49:43.367Z</time></trkpt><trkpt lat="43.1895983" lon="13.01761"><ele>432.0</ele><time>2026-03-22T11:49:44.433Z</time></trkpt><trkpt lat="43.1896983" lon="13.0176317"><ele>432.0</ele><time>2026-03-22T11:49:45.372Z</time></trkpt><trkpt lat="43.1897867" lon="13.0176233"><ele>432.00000000000006</ele><time>2026-03-22T11:49:46.368Z</time></trkpt><trkpt lat="43.1898717" lon="13.0175733"><ele>432.00000000000006</ele><time>2026-03-22T11:49:47.37Z</time></trkpt><trkpt lat="43.18995" lon="13.0174983"><ele>432.0</ele><time>2026-03-22T11:49:48.374Z</time></trkpt><trkpt lat="43.1899967" lon="13.0174083"><ele>432.0</ele><time>2026-03-22T11:49:49.37Z</time></trkpt><trkpt lat="43.190025" lon="13.01728"><ele>434.75</ele><time>2026-03-22T11:49:50.422Z</time></trkpt><trkpt lat="43.1900267" lon="13.0171233"><ele>437.5</ele><time>2026-03-22T11:49:51.368Z</time></trkpt><trkpt lat="43.19004" lon="13.0169567"><ele>440.25</ele><time>2026-03-22T11:49:52.368Z</time></trkpt><trkpt lat="43.1900633" lon="13.0167917"><ele>443.0</ele><time>2026-03-22T11:49:53.37Z</time></trkpt><trkpt lat="43.1900967" lon="13.0166183"><ele>444.25</ele><time>2026-03-22T11:49:54.369Z</time></trkpt><trkpt lat="43.19013" lon="13.0164483"><ele>445.5</ele><time>2026-03-22T11:49:55.371Z</time></trkpt><trkpt lat="43.1901667" lon="13.0162817"><ele>446.75</ele><time>2026-03-22T11:49:56.425Z</time></trkpt><trkpt lat="43.1902017" lon="13.0161167"><ele>448.0</ele><time>2026-03-22T11:49:57.371Z</time></trkpt><trkpt lat="43.19024" lon="13.0159483"><ele>449.25</ele><time>2026-03-22T11:49:58.365Z</time></trkpt><trkpt lat="43.19028" lon="13.01578"><ele>450.5</ele><time>2026-03-22T11:49:59.363Z</time></trkpt><trkpt lat="43.1903183" lon="13.015615"><ele>451.75</ele><time>2026-03-22T11:50:00.363Z</time></trkpt><trkpt lat="43.1903533" lon="13.01545"><ele>453.0</ele><time>2026-03-22T11:50:01.373Z</time></trkpt><trkpt lat="43.190385" lon="13.0152817"><ele>453.0</ele><time>2026-03-22T11:50:02.429Z</time></trkpt><trkpt lat="43.1904083" lon="13.0151117"><ele>453.0</ele><time>2026-03-22T11:50:03.365Z</time></trkpt><trkpt lat="43.19043" lon="13.01494"><ele>453.0</ele><time>2026-03-22T11:50:04.372Z</time></trkpt><trkpt lat="43.1904467" lon="13.0147667"><ele>453.0</ele><time>2026-03-22T11:50:05.372Z</time></trkpt><trkpt lat="43.1904617" lon="13.0145867"><ele>455.25</ele><time>2026-03-22T11:50:06.371Z</time></trkpt><trkpt lat="43.1904683" lon="13.0144067"><ele>457.5</ele><time>2026-03-22T11:50:07.373Z</time></trkpt><trkpt lat="43.1904717" lon="13.0142283"><ele>459.75</ele><time>2026-03-22T11:50:08.424Z</time></trkpt><trkpt lat="43.1904683" lon="13.0140517"><ele>462.0</ele><time>2026-03-22T11:50:09.371Z</time></trkpt><trkpt lat="43.1904583" lon="13.0138817"><ele>464.5</ele><time>2026-03-22T11:50:10.367Z</time></trkpt><trkpt lat="43.19045" lon="13.0137167"><ele>467.0</ele><time>2026-03-22T11:50:11.372Z</time></trkpt><trkpt lat="43.19044" lon="13.0135517"><ele>469.5</ele><time>2026-03-22T11:50:12.374Z</time></trkpt><trkpt lat="43.19042" lon="13.0133917"><ele>472.0</ele><time>2026-03-22T11:50:13.373Z</time></trkpt><trkpt lat="43.1903867" lon="13.0132283"><ele>475.0</ele><time>2026-03-22T11:50:14.42Z</time></trkpt><trkpt lat="43.19034" lon="13.01307"><ele>478.0</ele><time>2026-03-22T11:50:15.372Z</time></trkpt><trkpt lat="43.19028" lon="13.0129267"><ele>481.0</ele><time>2026-03-22T11:50:16.373Z</time></trkpt><trkpt lat="43.1901967" lon="13.0128133"><ele>484.0</ele><time>2026-03-22T11:50:17.375Z</time></trkpt><trkpt lat="43.1900917" lon="13.0127233"><ele>484.0</ele><time>2026-03-22T11:50:18.37Z</time></trkpt><trkpt lat="43.18998" lon="13.0126467"><ele>484.0</ele><time>2026-03-22T11:50:19.369Z</time></trkpt><trkpt lat="43.1898717" lon="13.0125717"><ele>484.0</ele><time>2026-03-22T11:50:20.424Z</time></trkpt><trkpt lat="43.1897817" lon="13.0124867"><ele>484.0</ele><time>2026-03-22T11:50:21.37Z</time></trkpt><trkpt lat="43.18971" lon="13.012385"><ele>485.83333333333337</ele><time>2026-03-22T11:50:22.373Z</time></trkpt><trkpt lat="43.18966" lon="13.0122767"><ele>487.6666666666667</ele><time>2026-03-22T11:50:23.38Z</time></trkpt><trkpt lat="43.1896367" lon="13.0121667"><ele>489.5</ele><time>2026-03-22T11:50:24.37Z</time></trkpt><trkpt lat="43.1896083" lon="13.012055"><ele>491.33333333333337</ele><time>2026-03-22T11:50:25.365Z</time></trkpt><trkpt lat="43.1895817" lon="13.0119417"><ele>493.1666666666667</ele><time>2026-03-22T11:50:26.428Z</time></trkpt><trkpt lat="43.1895517" lon="13.01182"><ele>495.0</ele><time>2026-03-22T11:50:27.37Z</time></trkpt><trkpt lat="43.1895283" lon="13.0116983"><ele>496.8333333333333</ele><time>2026-03-22T11:50:28.364Z</time></trkpt><trkpt lat="43.1895167" lon="13.01159"><ele>498.66666666666663</ele><time>2026-03-22T11:50:29.374Z</time></trkpt><trkpt lat="43.1895167" lon="13.0114983"><ele>500.5</ele><time>2026-03-22T11:50:30.371Z</time></trkpt><trkpt lat="43.18955" lon="13.011345"><ele>502.3333333333333</ele><time>2026-03-22T11:50:32.434Z</time></trkpt><trkpt lat="43.1895933" lon="13.0111967"><ele>504.16666666666663</ele><time>2026-03-22T11:50:34.372Z</time></trkpt><trkpt lat="43.1896183" lon="13.0111133"><ele>506.0</ele><time>2026-03-22T11:50:35.374Z</time></trkpt><trkpt lat="43.1896433" lon="13.01102"><ele>505.99999999999994</ele><time>2026-03-22T11:50:36.374Z</time></trkpt><trkpt lat="43.1896667" lon="13.0109233"><ele>506.0</ele><time>2026-03-22T11:50:37.374Z</time></trkpt><trkpt lat="43.1896817" lon="13.010815"><ele>506.0</ele><time>2026-03-22T11:50:38.426Z</time></trkpt><trkpt lat="43.1896933" lon="13.010715"><ele>506.0</ele><time>2026-03-22T11:50:39.375Z</time></trkpt><trkpt lat="43.1896983" lon="13.0106283"><ele>505.99999999999994</ele><time>2026-03-22T11:50:40.372Z</time></trkpt><trkpt lat="43.18967" lon="13.0104883"><ele>506.0</ele><time>2026-03-22T11:50:42.362Z</time></trkpt><trkpt lat="43.1896417" lon="13.0104083"><ele>508.16666666666663</ele><time>2026-03-22T11:50:43.375Z</time></trkpt><trkpt lat="43.189625" lon="13.0103133"><ele>510.3333333333333</ele><time>2026-03-22T11:50:44.424Z</time></trkpt><trkpt lat="43.18961" lon="13.0102083"><ele>512.5</ele><time>2026-03-22T11:50:45.367Z</time></trkpt><trkpt lat="43.189585" lon="13.0100983"><ele>514.6666666666666</ele><time>2026-03-22T11:50:46.368Z</time></trkpt><trkpt lat="43.189555" lon="13.0099867"><ele>516.8333333333334</ele><time>2026-03-22T11:50:47.372Z</time></trkpt><trkpt lat="43.1895217" lon="13.0098767"><ele>519.0</ele><time>2026-03-22T11:50:48.374Z</time></trkpt><trkpt lat="43.1894883" lon="13.009775"><ele>522.8</ele><time>2026-03-22T11:50:49.375Z</time></trkpt><trkpt lat="43.18946" lon="13.009665"><ele>526.5999999999999</ele><time>2026-03-22T11:50:50.429Z</time></trkpt><trkpt lat="43.1894283" lon="13.0095433"><ele>530.4</ele><time>2026-03-22T11:50:51.372Z</time></trkpt><trkpt lat="43.1894083" lon="13.0094167"><ele>534.1999999999999</ele><time>2026-03-22T11:50:52.373Z</time></trkpt><trkpt lat="43.1893917" lon="13.0092883"><ele>538.0</ele><time>2026-03-22T11:50:53.373Z</time></trkpt><trkpt lat="43.189375" lon="13.0091617"><ele>541.0</ele><time>2026-03-22T11:50:54.375Z</time></trkpt><trkpt lat="43.189345" lon="13.009045"><ele>544.0</ele><time>2026-03-22T11:50:55.372Z</time></trkpt><trkpt lat="43.18931" lon="13.0089167"><ele>547.0</ele><time>2026-03-22T11:50:56.422Z</time></trkpt><trkpt lat="43.1892767" lon="13.0087833"><ele>550.0</ele><time>2026-03-22T11:50:57.363Z</time></trkpt><trkpt lat="43.1892467" lon="13.008655"><ele>553.0</ele><time>2026-03-22T11:50:58.364Z</time></trkpt><trkpt lat="43.189235" lon="13.0085383"><ele>553.0</ele><time>2026-03-22T11:50:59.367Z</time></trkpt><trkpt lat="43.18923" lon="13.00843"><ele>553.0</ele><time>2026-03-22T11:51:00.376Z</time></trkpt><trkpt lat="43.1892283" lon="13.0083333"><ele>553.0</ele><time>2026-03-22T11:51:01.377Z</time></trkpt><trkpt lat="43.189225" lon="13.00824"><ele>553.0</ele><time>2026-03-22T11:51:02.43Z</time></trkpt><trkpt lat="43.1892167" lon="13.00814"><ele>553.0</ele><time>2026-03-22T11:51:03.372Z</time></trkpt><trkpt lat="43.189195" lon="13.00803"><ele>553.0</ele><time>2026-03-22T11:51:04.368Z</time></trkpt><trkpt lat="43.18917" lon="13.0079233"><ele>555.5</ele><time>2026-03-22T11:51:05.37Z</time></trkpt><trkpt lat="43.18914" lon="13.0078117"><ele>558.0</ele><time>2026-03-22T11:51:06.379Z</time></trkpt><trkpt lat="43.1890983" lon="13.0077"><ele>560.5</ele><time>2026-03-22T11:51:07.373Z</time></trkpt><trkpt lat="43.189065" lon="13.007595"><ele>563.0</ele><time>2026-03-22T11:51:08.425Z</time></trkpt><trkpt lat="43.1890433" lon="13.0074883"><ele>565.5</ele><time>2026-03-22T11:51:09.369Z</time></trkpt><trkpt lat="43.189025" lon="13.00739"><ele>568.0</ele><time>2026-03-22T11:51:10.369Z</time></trkpt><trkpt lat="43.1889983" lon="13.0072767"><ele>569.3333333333334</ele><time>2026-03-22T11:51:11.367Z</time></trkpt><trkpt lat="43.1889683" lon="13.0071633"><ele>570.6666666666667</ele><time>2026-03-22T11:51:12.372Z</time></trkpt><trkpt lat="43.18894" lon="13.0070533"><ele>572.0</ele><time>2026-03-22T11:51:13.373Z</time></trkpt><trkpt lat="43.1889167" lon="13.0069383"><ele>573.3333333333334</ele><time>2026-03-22T11:51:14.426Z</time></trkpt><trkpt lat="43.1889033" lon="13.0068283"><ele>574.6666666666666</ele><time>2026-03-22T11:51:15.369Z</time></trkpt><trkpt lat="43.1888883" lon="13.0067133"><ele>576.0</ele><time>2026-03-22T11:51:16.368Z</time></trkpt><trkpt lat="43.1888667" lon="13.006605"><ele>580.4</ele><time>2026-03-22T11:51:17.373Z</time></trkpt><trkpt lat="43.188845" lon="13.0065133"><ele>584.8</ele><time>2026-03-22T11:51:18.379Z</time></trkpt><trkpt lat="43.1888317" lon="13.006425"><ele>589.1999999999999</ele><time>2026-03-22T11:51:19.373Z</time></trkpt><trkpt lat="43.1888683" lon="13.0062833"><ele>593.6</ele><time>2026-03-22T11:51:21.371Z</time></trkpt><trkpt lat="43.18893" lon="13.0061783"><ele>598.0</ele><time>2026-03-22T11:51:23.373Z</time></trkpt><trkpt lat="43.1890383" lon="13.006135"><ele>598.0</ele><time>2026-03-22T11:51:25.372Z</time></trkpt><trkpt lat="43.1891133" lon="13.0060767"><ele>598.0</ele><time>2026-03-22T11:51:27.368Z</time></trkpt><trkpt lat="43.1890567" lon="13.0060133"><ele>598.0</ele><time>2026-03-22T11:51:30.375Z</time></trkpt><trkpt lat="43.1889933" lon="13.0059633"><ele>598.0</ele><time>2026-03-22T11:51:31.375Z</time></trkpt><trkpt lat="43.1889" lon="13.0059017"><ele>598.0</ele><time>2026-03-22T11:51:32.43Z</time></trkpt><trkpt lat="43.188765" lon="13.00583"><ele>601.75</ele><time>2026-03-22T11:51:33.367Z</time></trkpt><trkpt lat="43.18862" lon="13.0057533"><ele>605.5</ele><time>2026-03-22T11:51:34.376Z</time></trkpt><trkpt lat="43.1884933" lon="13.0056683"><ele>609.25</ele><time>2026-03-22T11:51:35.374Z</time></trkpt><trkpt lat="43.188375" lon="13.0055683"><ele>613.0</ele><time>2026-03-22T11:51:36.375Z</time></trkpt><trkpt lat="43.1882667" lon="13.00545"><ele>611.25</ele><time>2026-03-22T11:51:37.371Z</time></trkpt><trkpt lat="43.1881583" lon="13.00531"><ele>609.5</ele><time>2026-03-22T11:51:38.427Z</time></trkpt><trkpt lat="43.1880533" lon="13.0051583"><ele>607.75</ele><time>2026-03-22T11:51:39.371Z</time></trkpt><trkpt lat="43.1879533" lon="13.005015"><ele>606.0</ele><time>2026-03-22T11:51:40.375Z</time></trkpt><trkpt lat="43.187865" lon="13.0048933"><ele>609.0</ele><time>2026-03-22T11:51:41.367Z</time></trkpt><trkpt lat="43.1877833" lon="13.004795"><ele>612.0</ele><time>2026-03-22T11:51:42.373Z</time></trkpt><trkpt lat="43.1877083" lon="13.0047017"><ele>615.0</ele><time>2026-03-22T11:51:43.372Z</time></trkpt><trkpt lat="43.1876567" lon="13.004625"><ele>618.0</ele><time>2026-03-22T11:51:44.427Z</time></trkpt><trkpt lat="43.1876383" lon="13.0045117"><ele>621.0</ele><time>2026-03-22T11:51:46.372Z</time></trkpt><trkpt lat="43.1877167" lon="13.0044783"><ele>621.0</ele><time>2026-03-22T11:51:48.371Z</time></trkpt><trkpt lat="43.1878117" lon="13.004485"><ele>621.0</ele><time>2026-03-22T11:51:49.369Z</time></trkpt><trkpt lat="43.187935" lon="13.0044883"><ele>621.0</ele><time>2026-03-22T11:51:50.428Z</time></trkpt><trkpt lat="43.1880733" lon="13.00448"><ele>621.0</ele><time>2026-03-22T11:51:51.374Z</time></trkpt><trkpt lat="43.1882167" lon="13.0044733"><ele>623.5</ele><time>2026-03-22T11:51:52.376Z</time></trkpt><trkpt lat="43.18836" lon="13.0044617"><ele>626.0</ele><time>2026-03-22T11:51:53.371Z</time></trkpt><trkpt lat="43.1885033" lon="13.004445"><ele>628.5</ele><time>2026-03-22T11:51:54.372Z</time></trkpt><trkpt lat="43.1886433" lon="13.004425"><ele>631.0</ele><time>2026-03-22T11:51:55.371Z</time></trkpt><trkpt lat="43.1887817" lon="13.0044067"><ele>631.0</ele><time>2026-03-22T11:51:56.439Z</time></trkpt><trkpt lat="43.188915" lon="13.0043967"><ele>631.0</ele><time>2026-03-22T11:51:57.372Z</time></trkpt><trkpt lat="43.1890517" lon="13.004405"><ele>631.0</ele><time>2026-03-22T11:51:58.356Z</time></trkpt><trkpt lat="43.1891883" lon="13.0044383"><ele>631.0</ele><time>2026-03-22T11:51:59.372Z</time></trkpt><trkpt lat="43.1893183" lon="13.00449"><ele>632.2</ele><time>2026-03-22T11:52:00.378Z</time></trkpt><trkpt lat="43.189435" lon="13.0045483"><ele>633.4000000000001</ele><time>2026-03-22T11:52:01.366Z</time></trkpt><trkpt lat="43.1895367" lon="13.0046067"><ele>634.6</ele><time>2026-03-22T11:52:02.437Z</time></trkpt><trkpt lat="43.189605" lon="13.00465"><ele>635.8000000000001</ele><time>2026-03-22T11:52:03.371Z</time></trkpt><trkpt lat="43.18969" lon="13.0046133"><ele>637.0</ele><time>2026-03-22T11:52:05.374Z</time></trkpt><trkpt lat="43.1896967" lon="13.004525"><ele>637.0</ele><time>2026-03-22T11:52:06.372Z</time></trkpt><trkpt lat="43.1896617" lon="13.0043933"><ele>637.0</ele><time>2026-03-22T11:52:07.372Z</time></trkpt><trkpt lat="43.1896317" lon="13.004275"><ele>637.0</ele><time>2026-03-22T11:52:08.424Z</time></trkpt><trkpt lat="43.1895933" lon="13.00414"><ele>637.0</ele><time>2026-03-22T11:52:09.369Z</time></trkpt><trkpt lat="43.1895367" lon="13.004005"><ele>637.0</ele><time>2026-03-22T11:52:10.372Z</time></trkpt><trkpt lat="43.1894833" lon="13.0038867"><ele>641.4000000000001</ele><time>2026-03-22T11:52:11.374Z</time></trkpt><trkpt lat="43.1894367" lon="13.0037933"><ele>645.8000000000001</ele><time>2026-03-22T11:52:12.379Z</time></trkpt><trkpt lat="43.1894117" lon="13.0037117"><ele>650.2</ele><time>2026-03-22T11:52:13.37Z</time></trkpt><trkpt lat="43.18939" lon="13.00356"><ele>654.6</ele><time>2026-03-22T11:52:15.374Z</time></trkpt><trkpt lat="43.18935" lon="13.0034533"><ele>659.0</ele><time>2026-03-22T11:52:17.365Z</time></trkpt><trkpt lat="43.1892417" lon="13.003355"><ele>663.6</ele><time>2026-03-22T11:52:19.371Z</time></trkpt><trkpt lat="43.1891633" lon="13.0032967"><ele>668.2</ele><time>2026-03-22T11:52:20.424Z</time></trkpt><trkpt lat="43.1890683" lon="13.0032483"><ele>672.8000000000001</ele><time>2026-03-22T11:52:21.37Z</time></trkpt><trkpt lat="43.18897" lon="13.0031967"><ele>677.4000000000001</ele><time>2026-03-22T11:52:22.372Z</time></trkpt><trkpt lat="43.18888" lon="13.003145"><ele>682.0</ele><time>2026-03-22T11:52:23.37Z</time></trkpt><trkpt lat="43.1887967" lon="13.0030867"><ele>682.0</ele><time>2026-03-22T11:52:24.374Z</time></trkpt><trkpt lat="43.1887217" lon="13.0030167"><ele>682.0</ele><time>2026-03-22T11:52:25.37Z</time></trkpt><trkpt lat="43.1886467" lon="13.0029417"><ele>682.0</ele><time>2026-03-22T11:52:26.438Z</time></trkpt><trkpt lat="43.1885783" lon="13.00287"><ele>682.0</ele><time>2026-03-22T11:52:27.37Z</time></trkpt><trkpt lat="43.1885133" lon="13.0027917"><ele>682.0</ele><time>2026-03-22T11:52:28.372Z</time></trkpt><trkpt lat="43.1884467" lon="13.0027017"><ele>682.0</ele><time>2026-03-22T11:52:29.376Z</time></trkpt><trkpt lat="43.1883767" lon="13.0026117"><ele>682.0</ele><time>2026-03-22T11:52:30.37Z</time></trkpt><trkpt lat="43.1883083" lon="13.0025217"><ele>682.0</ele><time>2026-03-22T11:52:31.376Z</time></trkpt><trkpt lat="43.18826" lon="13.0024217"><ele>682.0</ele><time>2026-03-22T11:52:32.43Z</time></trkpt><trkpt lat="43.1882217" lon="13.0023067"><ele>682.0</ele><time>2026-03-22T11:52:33.37Z</time></trkpt><trkpt lat="43.188195" lon="13.0021783"><ele>680.2</ele><time>2026-03-22T11:52:34.37Z</time></trkpt><trkpt lat="43.1881767" lon="13.00205"><ele>678.4000000000001</ele><time>2026-03-22T11:52:35.374Z</time></trkpt><trkpt lat="43.1881717" lon="13.0019183"><ele>676.5999999999999</ele><time>2026-03-22T11:52:36.373Z</time></trkpt><trkpt lat="43.1881833" lon="13.00178"><ele>674.8</ele><time>2026-03-22T11:52:37.372Z</time></trkpt><trkpt lat="43.1882117" lon="13.0016417"><ele>673.0</ele><time>2026-03-22T11:52:38.425Z</time></trkpt><trkpt lat="43.1882683" lon="13.0015283"><ele>679.3333333333334</ele><time>2026-03-22T11:52:39.37Z</time></trkpt><trkpt lat="43.18834" lon="13.0014333"><ele>685.6666666666667</ele><time>2026-03-22T11:52:40.373Z</time></trkpt><trkpt lat="43.1884083" lon="13.0013467"><ele>692.0</ele><time>2026-03-22T11:52:41.374Z</time></trkpt><trkpt lat="43.1884533" lon="13.0012583"><ele>698.3333333333334</ele><time>2026-03-22T11:52:42.372Z</time></trkpt><trkpt lat="43.188465" lon="13.0011633"><ele>704.6666666666666</ele><time>2026-03-22T11:52:43.371Z</time></trkpt><trkpt lat="43.1884367" lon="13.0010683"><ele>711.0</ele><time>2026-03-22T11:52:44.425Z</time></trkpt><trkpt lat="43.18838" lon="13.0009783"><ele>711.0</ele><time>2026-03-22T11:52:45.371Z</time></trkpt><trkpt lat="43.188315" lon="13.000885"><ele>711.0</ele><time>2026-03-22T11:52:46.375Z</time></trkpt><trkpt lat="43.1882417" lon="13.0007983"><ele>711.0</ele><time>2026-03-22T11:52:47.373Z</time></trkpt><trkpt lat="43.188155" lon="13.0007217"><ele>711.0</ele><time>2026-03-22T11:52:48.365Z</time></trkpt><trkpt lat="43.188065" lon="13.00065"><ele>711.0</ele><time>2026-03-22T11:52:49.368Z</time></trkpt><trkpt lat="43.1879783" lon="13.00058"><ele>715.5</ele><time>2026-03-22T11:52:50.43Z</time></trkpt><trkpt lat="43.1878967" lon="13.0005067"><ele>720.0</ele><time>2026-03-22T11:52:51.369Z</time></trkpt><trkpt lat="43.1878167" lon="13.0004317"><ele>724.5</ele><time>2026-03-22T11:52:52.371Z</time></trkpt><trkpt lat="43.18775" lon="13.000355"><ele>729.0</ele><time>2026-03-22T11:52:53.373Z</time></trkpt><trkpt lat="43.1876967" lon="13.0002883"><ele>733.5</ele><time>2026-03-22T11:52:54.369Z</time></trkpt><trkpt lat="43.18764" lon="13.000235"><ele>738.0</ele><time>2026-03-22T11:52:55.374Z</time></trkpt><trkpt lat="43.1875717" lon="13.000195"><ele>738.0</ele><time>2026-03-22T11:52:56.428Z</time></trkpt><trkpt lat="43.1874983" lon="13.0001733"><ele>738.0</ele><time>2026-03-22T11:52:57.372Z</time></trkpt><trkpt lat="43.1874133" lon="13.0001533"><ele>738.0</ele><time>2026-03-22T11:52:58.369Z</time></trkpt><trkpt lat="43.1873283" lon="13.0001383"><ele>738.0</ele><time>2026-03-22T11:52:59.366Z</time></trkpt><trkpt lat="43.1872533" lon="13.0000917"><ele>738.0</ele><time>2026-03-22T11:53:00.368Z</time></trkpt><trkpt lat="43.187175" lon="13.0000433"><ele>738.0</ele><time>2026-03-22T11:53:01.37Z</time></trkpt><trkpt lat="43.187085" lon="12.999975"><ele>735.8</ele><time>2026-03-22T11:53:02.431Z</time></trkpt><trkpt lat="43.1869967" lon="12.9999017"><ele>733.5999999999999</ele><time>2026-03-22T11:53:03.371Z</time></trkpt><trkpt lat="43.18691" lon="12.9998433"><ele>731.4000000000001</ele><time>2026-03-22T11:53:04.359Z</time></trkpt><trkpt lat="43.186825" lon="12.999805"><ele>729.2</ele><time>2026-03-22T11:53:05.357Z</time></trkpt><trkpt lat="43.18673" lon="12.9997717"><ele>727.0</ele><time>2026-03-22T11:53:06.373Z</time></trkpt><trkpt lat="43.1866383" lon="12.9997283"><ele>727.0</ele><time>2026-03-22T11:53:07.368Z</time></trkpt><trkpt lat="43.18655" lon="12.99969"><ele>727.0</ele><time>2026-03-22T11:53:08.423Z</time></trkpt><trkpt lat="43.1864733" lon="12.9996633"><ele>727.0</ele><time>2026-03-22T11:53:09.373Z</time></trkpt><trkpt lat="43.1864033" lon="12.9996433"><ele>727.0</ele><time>2026-03-22T11:53:10.365Z</time></trkpt><trkpt lat="43.1863317" lon="12.9996133"><ele>727.0</ele><time>2026-03-22T11:53:11.362Z</time></trkpt><trkpt lat="43.186255" lon="12.9995783"><ele>727.0</ele><time>2026-03-22T11:53:12.368Z</time></trkpt><trkpt lat="43.1861733" lon="12.9995383"><ele>724.8</ele><time>2026-03-22T11:53:13.371Z</time></trkpt><trkpt lat="43.1860817" lon="12.9995033"><ele>722.6</ele><time>2026-03-22T11:53:14.414Z</time></trkpt><trkpt lat="43.185985" lon="12.9994733"><ele>720.4</ele><time>2026-03-22T11:53:15.357Z</time></trkpt><trkpt lat="43.185895" lon="12.999445"><ele>718.1999999999999</ele><time>2026-03-22T11:53:16.351Z</time></trkpt><trkpt lat="43.1858067" lon="12.9994083"><ele>716.0</ele><time>2026-03-22T11:53:17.375Z</time></trkpt><trkpt lat="43.185715" lon="12.9993617"><ele>714.0</ele><time>2026-03-22T11:53:18.382Z</time></trkpt><trkpt lat="43.18563" lon="12.99931"><ele>712.0</ele><time>2026-03-22T11:53:19.358Z</time></trkpt><trkpt lat="43.1855517" lon="12.9992483"><ele>710.0</ele><time>2026-03-22T11:53:20.433Z</time></trkpt><trkpt lat="43.18548" lon="12.99919"><ele>708.0</ele><time>2026-03-22T11:53:21.374Z</time></trkpt><trkpt lat="43.185405" lon="12.99914"><ele>706.0</ele><time>2026-03-22T11:53:22.378Z</time></trkpt><trkpt lat="43.185325" lon="12.999085"><ele>704.0</ele><time>2026-03-22T11:53:23.383Z</time></trkpt><trkpt lat="43.1852433" lon="12.999025"><ele>711.0</ele><time>2026-03-22T11:53:24.372Z</time></trkpt><trkpt lat="43.1851567" lon="12.9989583"><ele>718.0</ele><time>2026-03-22T11:53:25.364Z</time></trkpt><trkpt lat="43.1850667" lon="12.99889"><ele>725.0</ele><time>2026-03-22T11:53:26.435Z</time></trkpt><trkpt lat="43.1849733" lon="12.99883"><ele>732.0</ele><time>2026-03-22T11:53:27.381Z</time></trkpt><trkpt lat="43.1848867" lon="12.998775"><ele>739.0</ele><time>2026-03-22T11:53:28.38Z</time></trkpt><trkpt lat="43.1848033" lon="12.998725"><ele>739.0</ele><time>2026-03-22T11:53:29.391Z</time></trkpt><trkpt lat="43.18472" lon="12.9986783"><ele>739.0</ele><time>2026-03-22T11:53:30.382Z</time></trkpt><trkpt lat="43.18464" lon="12.9986333"><ele>739.0</ele><time>2026-03-22T11:53:31.354Z</time></trkpt><trkpt lat="43.184555" lon="12.9985917"><ele>739.0</ele><time>2026-03-22T11:53:32.436Z</time></trkpt><trkpt lat="43.184475" lon="12.99855"><ele>739.0</ele><time>2026-03-22T11:53:33.363Z</time></trkpt><trkpt lat="43.1843933" lon="12.9985133"><ele>739.0</ele><time>2026-03-22T11:53:34.38Z</time></trkpt><trkpt lat="43.1843167" lon="12.9984667"><ele>739.0</ele><time>2026-03-22T11:53:35.382Z</time></trkpt><trkpt lat="43.1842533" lon="12.9984067"><ele>739.0</ele><time>2026-03-22T11:53:36.385Z</time></trkpt><trkpt lat="43.1841967" lon="12.99833"><ele>739.0</ele><time>2026-03-22T11:53:37.381Z</time></trkpt><trkpt lat="43.1841483" lon="12.998235"><ele>739.0</ele><time>2026-03-22T11:53:38.427Z</time></trkpt><trkpt lat="43.1841" lon="12.9981383"><ele>739.0</ele><time>2026-03-22T11:53:39.379Z</time></trkpt><trkpt lat="43.1840567" lon="12.9980383"><ele>739.0</ele><time>2026-03-22T11:53:40.383Z</time></trkpt><trkpt lat="43.1840117" lon="12.99794"><ele>739.8000000000001</ele><time>2026-03-22T11:53:41.372Z</time></trkpt><trkpt lat="43.183965" lon="12.9978367"><ele>740.6</ele><time>2026-03-22T11:53:42.386Z</time></trkpt><trkpt lat="43.1839017" lon="12.99772"><ele>741.4</ele><time>2026-03-22T11:53:43.38Z</time></trkpt><trkpt lat="43.183835" lon="12.9976"><ele>742.2</ele><time>2026-03-22T11:53:44.431Z</time></trkpt><trkpt lat="43.1837667" lon="12.9975017"><ele>743.0</ele><time>2026-03-22T11:53:45.383Z</time></trkpt><trkpt lat="43.1837167" lon="12.9974167"><ele>746.3333333333333</ele><time>2026-03-22T11:53:46.38Z</time></trkpt><trkpt lat="43.183685" lon="12.9973283"><ele>749.6666666666666</ele><time>2026-03-22T11:53:47.385Z</time></trkpt><trkpt lat="43.1836733" lon="12.9972433"><ele>753.0</ele><time>2026-03-22T11:53:48.385Z</time></trkpt><trkpt lat="43.1836867" lon="12.9971583"><ele>756.3333333333334</ele><time>2026-03-22T11:53:49.381Z</time></trkpt><trkpt lat="43.183725" lon="12.9970667"><ele>759.6666666666667</ele><time>2026-03-22T11:53:50.433Z</time></trkpt><trkpt lat="43.1837833" lon="12.9969667"><ele>763.0</ele><time>2026-03-22T11:53:51.376Z</time></trkpt><trkpt lat="43.18384" lon="12.9968617"><ele>763.0</ele><time>2026-03-22T11:53:52.38Z</time></trkpt><trkpt lat="43.1838967" lon="12.99676"><ele>763.0</ele><time>2026-03-22T11:53:53.38Z</time></trkpt><trkpt lat="43.18395" lon="12.996665"><ele>763.0</ele><time>2026-03-22T11:53:54.376Z</time></trkpt><trkpt lat="43.1839983" lon="12.99658"><ele>763.0</ele><time>2026-03-22T11:53:55.359Z</time></trkpt><trkpt lat="43.1840417" lon="12.9965"><ele>763.0</ele><time>2026-03-22T11:53:56.434Z</time></trkpt><trkpt lat="43.1840833" lon="12.9964317"><ele>763.0</ele><time>2026-03-22T11:53:57.376Z</time></trkpt><trkpt lat="43.1841283" lon="12.9963683"><ele>767.3333333333334</ele><time>2026-03-22T11:53:58.374Z</time></trkpt><trkpt lat="43.1841733" lon="12.9962933"><ele>771.6666666666667</ele><time>2026-03-22T11:53:59.38Z</time></trkpt><trkpt lat="43.1842183" lon="12.9961983"><ele>776.0</ele><time>2026-03-22T11:54:00.385Z</time></trkpt><trkpt lat="43.1842617" lon="12.9960917"><ele>780.3333333333334</ele><time>2026-03-22T11:54:01.382Z</time></trkpt><trkpt lat="43.1843017" lon="12.995975"><ele>784.6666666666666</ele><time>2026-03-22T11:54:02.437Z</time></trkpt><trkpt lat="43.1843383" lon="12.99585"><ele>789.0</ele><time>2026-03-22T11:54:03.378Z</time></trkpt><trkpt lat="43.18437" lon="12.9957217"><ele>789.0</ele><time>2026-03-22T11:54:04.373Z</time></trkpt><trkpt lat="43.1843983" lon="12.9956017"><ele>789.0</ele><time>2026-03-22T11:54:05.354Z</time></trkpt><trkpt lat="43.1844267" lon="12.9954917"><ele>789.0</ele><time>2026-03-22T11:54:06.37Z</time></trkpt><trkpt lat="43.1844533" lon="12.9953917"><ele>789.0</ele><time>2026-03-22T11:54:07.381Z</time></trkpt><trkpt lat="43.184475" lon="12.9952933"><ele>789.0</ele><time>2026-03-22T11:54:08.422Z</time></trkpt><trkpt lat="43.1844967" lon="12.9951883"><ele>789.0</ele><time>2026-03-22T11:54:09.371Z</time></trkpt><trkpt lat="43.1845267" lon="12.99508"><ele>788.1666666666666</ele><time>2026-03-22T11:54:10.376Z</time></trkpt><trkpt lat="43.1845583" lon="12.9949783"><ele>787.3333333333333</ele><time>2026-03-22T11:54:11.38Z</time></trkpt><trkpt lat="43.1845783" lon="12.99487"><ele>786.5</ele><time>2026-03-22T11:54:12.384Z</time></trkpt><trkpt lat="43.1845933" lon="12.9947533"><ele>785.6666666666666</ele><time>2026-03-22T11:54:13.377Z</time></trkpt><trkpt lat="43.1846067" lon="12.9946267"><ele>784.8333333333333</ele><time>2026-03-22T11:54:14.424Z</time></trkpt><trkpt lat="43.1846217" lon="12.9945017"><ele>784.0</ele><time>2026-03-22T11:54:15.378Z</time></trkpt><trkpt lat="43.1846333" lon="12.9943767"><ele>783.9999999999999</ele><time>2026-03-22T11:54:16.377Z</time></trkpt><trkpt lat="43.184645" lon="12.99425"><ele>784.0</ele><time>2026-03-22T11:54:17.38Z</time></trkpt><trkpt lat="43.1846517" lon="12.99413"><ele>784.0</ele><time>2026-03-22T11:54:18.38Z</time></trkpt><trkpt lat="43.1846533" lon="12.9940267"><ele>784.0</ele><time>2026-03-22T11:54:19.383Z</time></trkpt><trkpt lat="43.1846533" lon="12.99394"><ele>783.9999999999999</ele><time>2026-03-22T11:54:20.429Z</time></trkpt><trkpt lat="43.1846517" lon="12.9937883"><ele>784.0</ele><time>2026-03-22T11:54:22.38Z</time></trkpt><trkpt lat="43.1846383" lon="12.9936283"><ele>784.1666666666666</ele><time>2026-03-22T11:54:24.384Z</time></trkpt><trkpt lat="43.1846267" lon="12.9935317"><ele>784.3333333333333</ele><time>2026-03-22T11:54:25.377Z</time></trkpt><trkpt lat="43.1846117" lon="12.9934267"><ele>784.5</ele><time>2026-03-22T11:54:26.439Z</time></trkpt><trkpt lat="43.1845983" lon="12.9933233"><ele>784.6666666666667</ele><time>2026-03-22T11:54:27.378Z</time></trkpt><trkpt lat="43.1845917" lon="12.9932283"><ele>784.8333333333334</ele><time>2026-03-22T11:54:28.379Z</time></trkpt><trkpt lat="43.1845583" lon="12.9930767"><ele>785.0</ele><time>2026-03-22T11:54:30.384Z</time></trkpt><trkpt lat="43.184455" lon="12.99299"><ele>786.1666666666667</ele><time>2026-03-22T11:54:32.437Z</time></trkpt><trkpt lat="43.1843883" lon="12.992975"><ele>787.3333333333334</ele><time>2026-03-22T11:54:33.38Z</time></trkpt><trkpt lat="43.184325" lon="12.9929567"><ele>788.5</ele><time>2026-03-22T11:54:34.379Z</time></trkpt><trkpt lat="43.1842617" lon="12.9929433"><ele>789.6666666666667</ele><time>2026-03-22T11:54:35.378Z</time></trkpt><trkpt lat="43.184195" lon="12.992865"><ele>790.8333333333334</ele><time>2026-03-22T11:54:37.38Z</time></trkpt><trkpt lat="43.184205" lon="12.992735"><ele>792.0</ele><time>2026-03-22T11:54:39.373Z</time></trkpt><trkpt lat="43.184275" lon="12.99258"><ele>792.0</ele><time>2026-03-22T11:54:41.381Z</time></trkpt><trkpt lat="43.1843233" lon="12.9925033"><ele>792.0</ele><time>2026-03-22T11:54:42.384Z</time></trkpt><trkpt lat="43.1843733" lon="12.99243"><ele>792.0</ele><time>2026-03-22T11:54:43.383Z</time></trkpt><trkpt lat="43.1844267" lon="12.9923567"><ele>792.0</ele><time>2026-03-22T11:54:44.431Z</time></trkpt><trkpt lat="43.184485" lon="12.99228"><ele>792.0</ele><time>2026-03-22T11:54:45.376Z</time></trkpt><trkpt lat="43.1845433" lon="12.9922083"><ele>792.0</ele><time>2026-03-22T11:54:46.381Z</time></trkpt><trkpt lat="43.1846017" lon="12.9921383"><ele>792.0</ele><time>2026-03-22T11:54:47.381Z</time></trkpt><trkpt lat="43.18466" lon="12.9920667"><ele>792.0</ele><time>2026-03-22T11:54:48.382Z</time></trkpt><trkpt lat="43.1847117" lon="12.9919883"><ele>792.0</ele><time>2026-03-22T11:54:49.381Z</time></trkpt><trkpt lat="43.184755" lon="12.9918967"><ele>792.0</ele><time>2026-03-22T11:54:50.431Z</time></trkpt><trkpt lat="43.184795" lon="12.9917917"><ele>792.0</ele><time>2026-03-22T11:54:51.374Z</time></trkpt><trkpt lat="43.1848367" lon="12.99168"><ele>792.0</ele><time>2026-03-22T11:54:52.376Z</time></trkpt><trkpt lat="43.1848733" lon="12.99156"><ele>793.8333333333334</ele><time>2026-03-22T11:54:53.385Z</time></trkpt><trkpt lat="43.1849217" lon="12.99146"><ele>795.6666666666667</ele><time>2026-03-22T11:54:54.381Z</time></trkpt><trkpt lat="43.1849817" lon="12.9913833"><ele>797.5</ele><time>2026-03-22T11:54:55.362Z</time></trkpt><trkpt lat="43.1850417" lon="12.991305"><ele>799.3333333333334</ele><time>2026-03-22T11:54:56.443Z</time></trkpt><trkpt lat="43.1851067" lon="12.9912233"><ele>801.1666666666667</ele><time>2026-03-22T11:54:57.372Z</time></trkpt><trkpt lat="43.1851767" lon="12.9911367"><ele>803.0</ele><time>2026-03-22T11:54:58.382Z</time></trkpt><trkpt lat="43.1852483" lon="12.991045"><ele>803.0000000000001</ele><time>2026-03-22T11:54:59.383Z</time></trkpt><trkpt lat="43.1853183" lon="12.99096"><ele>803.0</ele><time>2026-03-22T11:55:00.387Z</time></trkpt><trkpt lat="43.1853833" lon="12.9908817"><ele>803.0</ele><time>2026-03-22T11:55:01.375Z</time></trkpt><trkpt lat="43.1854483" lon="12.9908183"><ele>803.0</ele><time>2026-03-22T11:55:02.437Z</time></trkpt><trkpt lat="43.1855167" lon="12.9907583"><ele>803.0000000000001</ele><time>2026-03-22T11:55:03.382Z</time></trkpt><trkpt lat="43.18559" lon="12.990705"><ele>803.0</ele><time>2026-03-22T11:55:04.38Z</time></trkpt><trkpt lat="43.18566" lon="12.9906433"><ele>805.4</ele><time>2026-03-22T11:55:05.384Z</time></trkpt><trkpt lat="43.185725" lon="12.9905717"><ele>807.8</ele><time>2026-03-22T11:55:06.385Z</time></trkpt><trkpt lat="43.1857883" lon="12.9904967"><ele>810.2</ele><time>2026-03-22T11:55:07.385Z</time></trkpt><trkpt lat="43.1858567" lon="12.9904067"><ele>812.6</ele><time>2026-03-22T11:55:08.437Z</time></trkpt><trkpt lat="43.1859267" lon="12.9903133"><ele>815.0</ele><time>2026-03-22T11:55:09.384Z</time></trkpt><trkpt lat="43.1859983" lon="12.9902383"><ele>815.0000000000001</ele><time>2026-03-22T11:55:10.383Z</time></trkpt><trkpt lat="43.1860617" lon="12.9901633"><ele>815.0</ele><time>2026-03-22T11:55:11.383Z</time></trkpt><trkpt lat="43.1861167" lon="12.990095"><ele>815.0</ele><time>2026-03-22T11:55:12.382Z</time></trkpt><trkpt lat="43.18616" lon="12.9900133"><ele>815.0</ele><time>2026-03-22T11:55:13.384Z</time></trkpt><trkpt lat="43.1862083" lon="12.9899083"><ele>815.0000000000001</ele><time>2026-03-22T11:55:14.434Z</time></trkpt><trkpt lat="43.1862633" lon="12.9897983"><ele>815.0</ele><time>2026-03-22T11:55:15.378Z</time></trkpt><trkpt lat="43.1863117" lon="12.9896817"><ele>809.3333333333334</ele><time>2026-03-22T11:55:16.375Z</time></trkpt><trkpt lat="43.1863467" lon="12.989575"><ele>803.6666666666667</ele><time>2026-03-22T11:55:17.38Z</time></trkpt><trkpt lat="43.186365" lon="12.9894767"><ele>798.0</ele><time>2026-03-22T11:55:18.385Z</time></trkpt><trkpt lat="43.18637" lon="12.98938"><ele>792.3333333333333</ele><time>2026-03-22T11:55:19.381Z</time></trkpt><trkpt lat="43.1863533" lon="12.9892933"><ele>786.6666666666666</ele><time>2026-03-22T11:55:20.429Z</time></trkpt><trkpt lat="43.186295" lon="12.9892167"><ele>781.0</ele><time>2026-03-22T11:55:21.382Z</time></trkpt><trkpt lat="43.1862333" lon="12.9891567"><ele>780.5999999999999</ele><time>2026-03-22T11:55:22.378Z</time></trkpt><trkpt lat="43.18618" lon="12.9890933"><ele>780.2</ele><time>2026-03-22T11:55:23.383Z</time></trkpt><trkpt lat="43.186145" lon="12.9890017"><ele>779.8</ele><time>2026-03-22T11:55:24.382Z</time></trkpt><trkpt lat="43.1861117" lon="12.9888917"><ele>779.4000000000001</ele><time>2026-03-22T11:55:25.383Z</time></trkpt><trkpt lat="43.1860833" lon="12.9887567"><ele>779.0</ele><time>2026-03-22T11:55:26.432Z</time></trkpt><trkpt lat="43.18605" lon="12.9886"><ele>779.0000000000001</ele><time>2026-03-22T11:55:27.379Z</time></trkpt><trkpt lat="43.18601" lon="12.9884567"><ele>779.0</ele><time>2026-03-22T11:55:28.381Z</time></trkpt><trkpt lat="43.1859767" lon="12.9883283"><ele>779.0</ele><time>2026-03-22T11:55:29.38Z</time></trkpt><trkpt lat="43.185945" lon="12.9882333"><ele>779.0</ele><time>2026-03-22T11:55:30.385Z</time></trkpt><trkpt lat="43.1859083" lon="12.988155"><ele>779.0000000000001</ele><time>2026-03-22T11:55:31.381Z</time></trkpt><trkpt lat="43.185865" lon="12.9880883"><ele>779.0</ele><time>2026-03-22T11:55:32.435Z</time></trkpt><trkpt lat="43.1858017" lon="12.9880133"><ele>783.5000000000001</ele><time>2026-03-22T11:55:33.38Z</time></trkpt><trkpt lat="43.1857383" lon="12.9879267"><ele>788.0</ele><time>2026-03-22T11:55:34.385Z</time></trkpt><trkpt lat="43.185675" lon="12.9878183"><ele>792.5</ele><time>2026-03-22T11:55:35.377Z</time></trkpt><trkpt lat="43.18562" lon="12.9877133"><ele>797.0</ele><time>2026-03-22T11:55:36.385Z</time></trkpt><trkpt lat="43.1855733" lon="12.98762"><ele>801.5000000000001</ele><time>2026-03-22T11:55:37.382Z</time></trkpt><trkpt lat="43.185545" lon="12.9875367"><ele>806.0</ele><time>2026-03-22T11:55:38.43Z</time></trkpt><trkpt lat="43.1855417" lon="12.9873717"><ele>809.1666666666667</ele><time>2026-03-22T11:55:40.381Z</time></trkpt><trkpt lat="43.185575" lon="12.9872717"><ele>812.3333333333334</ele><time>2026-03-22T11:55:41.385Z</time></trkpt><trkpt lat="43.1855983" lon="12.9871683"><ele>815.5</ele><time>2026-03-22T11:55:42.382Z</time></trkpt><trkpt lat="43.1856183" lon="12.98706"><ele>818.6666666666667</ele><time>2026-03-22T11:55:43.382Z</time></trkpt><trkpt lat="43.1856417" lon="12.98694"><ele>821.8333333333334</ele><time>2026-03-22T11:55:44.434Z</time></trkpt><trkpt lat="43.1856683" lon="12.9868083"><ele>825.0</ele><time>2026-03-22T11:55:45.382Z</time></trkpt><trkpt lat="43.1856883" lon="12.9866767"><ele>825.0</ele><time>2026-03-22T11:55:46.373Z</time></trkpt><trkpt lat="43.1857" lon="12.9865533"><ele>825.0</ele><time>2026-03-22T11:55:47.385Z</time></trkpt><trkpt lat="43.185705" lon="12.9864283"><ele>825.0</ele><time>2026-03-22T11:55:48.386Z</time></trkpt><trkpt lat="43.1857" lon="12.9863117"><ele>825.0</ele><time>2026-03-22T11:55:49.379Z</time></trkpt><trkpt lat="43.18569" lon="12.9862017"><ele>825.0</ele><time>2026-03-22T11:55:50.428Z</time></trkpt><trkpt lat="43.1856683" lon="12.9860883"><ele>825.0</ele><time>2026-03-22T11:55:51.377Z</time></trkpt><trkpt lat="43.1856483" lon="12.9859817"><ele>815.7142857142857</ele><time>2026-03-22T11:55:52.379Z</time></trkpt><trkpt lat="43.18564" lon="12.98587"><ele>806.4285714285714</ele><time>2026-03-22T11:55:53.386Z</time></trkpt><trkpt lat="43.1856367" lon="12.98576"><ele>797.1428571428571</ele><time>2026-03-22T11:55:54.382Z</time></trkpt><trkpt lat="43.1856317" lon="12.9856617"><ele>787.8571428571429</ele><time>2026-03-22T11:55:55.383Z</time></trkpt><trkpt lat="43.18563" lon="12.9855667"><ele>778.5714285714287</ele><time>2026-03-22T11:55:56.439Z</time></trkpt><trkpt lat="43.1856333" lon="12.985475"><ele>769.2857142857143</ele><time>2026-03-22T11:55:57.373Z</time></trkpt><trkpt lat="43.18564" lon="12.985385"><ele>760.0</ele><time>2026-03-22T11:55:58.382Z</time></trkpt><trkpt lat="43.1856367" lon="12.9852933"><ele>760.0</ele><time>2026-03-22T11:55:59.383Z</time></trkpt><trkpt lat="43.1856217" lon="12.985195"><ele>760.0</ele><time>2026-03-22T11:56:00.384Z</time></trkpt><trkpt lat="43.1855917" lon="12.9851"><ele>760.0</ele><time>2026-03-22T11:56:01.383Z</time></trkpt><trkpt lat="43.18554" lon="12.9849917"><ele>760.0</ele><time>2026-03-22T11:56:02.434Z</time></trkpt><trkpt lat="43.1854617" lon="12.98488"><ele>760.0</ele><time>2026-03-22T11:56:03.362Z</time></trkpt><trkpt lat="43.1853683" lon="12.984765"><ele>763.2</ele><time>2026-03-22T11:56:04.382Z</time></trkpt><trkpt lat="43.1853017" lon="12.9846517"><ele>766.4</ele><time>2026-03-22T11:56:05.358Z</time></trkpt><trkpt lat="43.1852333" lon="12.9845483"><ele>769.5999999999999</ele><time>2026-03-22T11:56:06.385Z</time></trkpt><trkpt lat="43.1851817" lon="12.984445"><ele>772.8</ele><time>2026-03-22T11:56:07.387Z</time></trkpt><trkpt lat="43.1851633" lon="12.9843317"><ele>776.0</ele><time>2026-03-22T11:56:08.436Z</time></trkpt><trkpt lat="43.1851683" lon="12.9842017"><ele>777.0</ele><time>2026-03-22T11:56:09.379Z</time></trkpt><trkpt lat="43.1851767" lon="12.984085"><ele>778.0</ele><time>2026-03-22T11:56:10.38Z</time></trkpt><trkpt lat="43.1851833" lon="12.983985"><ele>779.0</ele><time>2026-03-22T11:56:11.381Z</time></trkpt><trkpt lat="43.1851967" lon="12.9838933"><ele>780.0</ele><time>2026-03-22T11:56:12.384Z</time></trkpt><trkpt lat="43.1852233" lon="12.9838067"><ele>781.0</ele><time>2026-03-22T11:56:13.382Z</time></trkpt><trkpt lat="43.1852567" lon="12.98373"><ele>782.0</ele><time>2026-03-22T11:56:14.433Z</time></trkpt><trkpt lat="43.185295" lon="12.98365"><ele>783.0</ele><time>2026-03-22T11:56:15.375Z</time></trkpt><trkpt lat="43.185345" lon="12.9835717"><ele>783.0</ele><time>2026-03-22T11:56:16.374Z</time></trkpt><trkpt lat="43.1854233" lon="12.9834933"><ele>783.0</ele><time>2026-03-22T11:56:17.382Z</time></trkpt><trkpt lat="43.1855133" lon="12.9834167"><ele>783.0</ele><time>2026-03-22T11:56:18.384Z</time></trkpt><trkpt lat="43.1856183" lon="12.9833467"><ele>783.0</ele><time>2026-03-22T11:56:19.379Z</time></trkpt><trkpt lat="43.1857233" lon="12.9832767"><ele>783.0</ele><time>2026-03-22T11:56:20.436Z</time></trkpt><trkpt lat="43.1858367" lon="12.9831967"><ele>786.75</ele><time>2026-03-22T11:56:21.383Z</time></trkpt><trkpt lat="43.185955" lon="12.9831017"><ele>790.5</ele><time>2026-03-22T11:56:22.377Z</time></trkpt><trkpt lat="43.186085" lon="12.982985"><ele>794.25</ele><time>2026-03-22T11:56:23.384Z</time></trkpt><trkpt lat="43.1862117" lon="12.9828617"><ele>798.0</ele><time>2026-03-22T11:56:24.383Z</time></trkpt><trkpt lat="43.1863317" lon="12.98273"><ele>798.0</ele><time>2026-03-22T11:56:25.383Z</time></trkpt><trkpt lat="43.1864383" lon="12.9825933"><ele>798.0</ele><time>2026-03-22T11:56:26.437Z</time></trkpt><trkpt lat="43.1865317" lon="12.98244"><ele>798.0</ele><time>2026-03-22T11:56:27.377Z</time></trkpt><trkpt lat="43.18662" lon="12.982285"><ele>798.0</ele><time>2026-03-22T11:56:28.379Z</time></trkpt><trkpt lat="43.186695" lon="12.982135"><ele>799.5999999999999</ele><time>2026-03-22T11:56:29.362Z</time></trkpt><trkpt lat="43.1867533" lon="12.98199"><ele>801.1999999999999</ele><time>2026-03-22T11:56:30.377Z</time></trkpt><trkpt lat="43.1868017" lon="12.98186"><ele>802.8</ele><time>2026-03-22T11:56:31.38Z</time></trkpt><trkpt lat="43.186835" lon="12.9817333"><ele>804.4</ele><time>2026-03-22T11:56:32.434Z</time></trkpt><trkpt lat="43.1868667" lon="12.9816233"><ele>806.0</ele><time>2026-03-22T11:56:33.376Z</time></trkpt><trkpt lat="43.1868967" lon="12.98151"><ele>801.8</ele><time>2026-03-22T11:56:34.381Z</time></trkpt><trkpt lat="43.1869367" lon="12.9814067"><ele>797.5999999999999</ele><time>2026-03-22T11:56:35.384Z</time></trkpt><trkpt lat="43.1869867" lon="12.9812983"><ele>793.4</ele><time>2026-03-22T11:56:36.386Z</time></trkpt><trkpt lat="43.18705" lon="12.9811983"><ele>789.2</ele><time>2026-03-22T11:56:37.379Z</time></trkpt><trkpt lat="43.1871267" lon="12.98109"><ele>785.0</ele><time>2026-03-22T11:56:38.432Z</time></trkpt><trkpt lat="43.1872133" lon="12.98097"><ele>783.6666666666667</ele><time>2026-03-22T11:56:39.382Z</time></trkpt><trkpt lat="43.1873033" lon="12.9808367"><ele>782.3333333333333</ele><time>2026-03-22T11:56:40.38Z</time></trkpt><trkpt lat="43.1874133" lon="12.9806967"><ele>781.0</ele><time>2026-03-22T11:56:41.38Z</time></trkpt><trkpt lat="43.187575" lon="12.980535"><ele>781.0</ele><time>2026-03-22T11:56:42.375Z</time></trkpt><trkpt lat="43.1877467" lon="12.9803683"><ele>781.0</ele><time>2026-03-22T11:56:43.382Z</time></trkpt><trkpt lat="43.1879317" lon="12.9801967"><ele>781.0</ele><time>2026-03-22T11:56:44.433Z</time></trkpt><trkpt lat="43.18812" lon="12.9800083"><ele>781.5</ele><time>2026-03-22T11:56:45.384Z</time></trkpt><trkpt lat="43.1883017" lon="12.979815"><ele>782.0</ele><time>2026-03-22T11:56:46.38Z</time></trkpt><trkpt lat="43.1884767" lon="12.9796217"><ele>782.0</ele><time>2026-03-22T11:56:47.379Z</time></trkpt><trkpt lat="43.1886417" lon="12.9794383"><ele>782.0</ele><time>2026-03-22T11:56:48.377Z</time></trkpt><trkpt lat="43.1888017" lon="12.979265"><ele>782.0</ele><time>2026-03-22T11:56:49.384Z</time></trkpt><trkpt lat="43.188965" lon="12.9790833"><ele>783.0</ele><time>2026-03-22T11:56:50.431Z</time></trkpt><trkpt lat="43.1891233" lon="12.9789133"><ele>784.0</ele><time>2026-03-22T11:56:51.382Z</time></trkpt><trkpt lat="43.1892667" lon="12.9787417"><ele>785.0</ele><time>2026-03-22T11:56:52.379Z</time></trkpt><trkpt lat="43.1893967" lon="12.97859"><ele>785.0</ele><time>2026-03-22T11:56:53.383Z</time></trkpt><trkpt lat="43.189515" lon="12.9784533"><ele>785.0</ele><time>2026-03-22T11:56:54.383Z</time></trkpt><trkpt lat="43.189625" lon="12.9783317"><ele>785.0</ele><time>2026-03-22T11:56:55.369Z</time></trkpt><trkpt lat="43.18973" lon="12.9782217"><ele>785.0</ele><time>2026-03-22T11:56:56.433Z</time></trkpt><trkpt lat="43.1898333" lon="12.978115"><ele>786.75</ele><time>2026-03-22T11:56:57.377Z</time></trkpt><trkpt lat="43.1899383" lon="12.9780017"><ele>788.5</ele><time>2026-03-22T11:56:58.379Z</time></trkpt><trkpt lat="43.1900483" lon="12.97789"><ele>790.25</ele><time>2026-03-22T11:56:59.381Z</time></trkpt><trkpt lat="43.1901583" lon="12.9777733"><ele>792.0</ele><time>2026-03-22T11:57:00.374Z</time></trkpt><trkpt lat="43.19027" lon="12.9776517"><ele>792.0</ele><time>2026-03-22T11:57:01.382Z</time></trkpt><trkpt lat="43.1903833" lon="12.9775367"><ele>792.0</ele><time>2026-03-22T11:57:02.401Z</time></trkpt><trkpt lat="43.19049" lon="12.9774267"><ele>792.0</ele><time>2026-03-22T11:57:03.373Z</time></trkpt><trkpt lat="43.190595" lon="12.97733"><ele>792.0</ele><time>2026-03-22T11:57:04.378Z</time></trkpt><trkpt lat="43.1907067" lon="12.9772483"><ele>794.5</ele><time>2026-03-22T11:57:05.38Z</time></trkpt><trkpt lat="43.190825" lon="12.9771783"><ele>797.0</ele><time>2026-03-22T11:57:06.385Z</time></trkpt><trkpt lat="43.19095" lon="12.9771183"><ele>799.5</ele><time>2026-03-22T11:57:07.379Z</time></trkpt><trkpt lat="43.1910733" lon="12.9770667"><ele>802.0</ele><time>2026-03-22T11:57:08.422Z</time></trkpt><trkpt lat="43.19119" lon="12.97701"><ele>802.0</ele><time>2026-03-22T11:57:09.375Z</time></trkpt><trkpt lat="43.1912933" lon="12.9769467"><ele>802.0</ele><time>2026-03-22T11:57:10.377Z</time></trkpt><trkpt lat="43.1913867" lon="12.97687"><ele>802.0</ele><time>2026-03-22T11:57:11.38Z</time></trkpt><trkpt lat="43.191465" lon="12.97678"><ele>802.0</ele><time>2026-03-22T11:57:12.385Z</time></trkpt><trkpt lat="43.1915283" lon="12.9766867"><ele>802.0</ele><time>2026-03-22T11:57:13.378Z</time></trkpt><trkpt lat="43.1915833" lon="12.9765833"><ele>802.6</ele><time>2026-03-22T11:57:14.43Z</time></trkpt><trkpt lat="43.1916467" lon="12.976485"><ele>803.2</ele><time>2026-03-22T11:57:15.391Z</time></trkpt><trkpt lat="43.19172" lon="12.97639"><ele>803.8</ele><time>2026-03-22T11:57:16.382Z</time></trkpt><trkpt lat="43.191805" lon="12.9763067"><ele>804.4</ele><time>2026-03-22T11:57:17.382Z</time></trkpt><trkpt lat="43.191895" lon="12.976215"><ele>805.0</ele><time>2026-03-22T11:57:18.38Z</time></trkpt><trkpt lat="43.19198" lon="12.9761117"><ele>805.0</ele><time>2026-03-22T11:57:19.38Z</time></trkpt><trkpt lat="43.1920533" lon="12.976"><ele>805.0</ele><time>2026-03-22T11:57:20.43Z</time></trkpt><trkpt lat="43.1921167" lon="12.9758867"><ele>805.0</ele><time>2026-03-22T11:57:21.377Z</time></trkpt><trkpt lat="43.1921767" lon="12.9757733"><ele>805.0</ele><time>2026-03-22T11:57:22.38Z</time></trkpt><trkpt lat="43.1922367" lon="12.9756583"><ele>805.0</ele><time>2026-03-22T11:57:23.39Z</time></trkpt><trkpt lat="43.1922967" lon="12.975545"><ele>806.0</ele><time>2026-03-22T11:57:24.381Z</time></trkpt><trkpt lat="43.1923583" lon="12.9754217"><ele>807.0</ele><time>2026-03-22T11:57:25.372Z</time></trkpt><trkpt lat="43.19242" lon="12.97529"><ele>808.0</ele><time>2026-03-22T11:57:26.435Z</time></trkpt><trkpt lat="43.1924783" lon="12.9751517"><ele>809.0</ele><time>2026-03-22T11:57:27.372Z</time></trkpt><trkpt lat="43.1925367" lon="12.9750017"><ele>809.0</ele><time>2026-03-22T11:57:28.385Z</time></trkpt><trkpt lat="43.1925883" lon="12.9748467"><ele>809.0</ele><time>2026-03-22T11:57:29.37Z</time></trkpt><trkpt lat="43.1926433" lon="12.9747"><ele>809.0</ele><time>2026-03-22T11:57:30.376Z</time></trkpt><trkpt lat="43.19271" lon="12.9745617"><ele>809.0</ele><time>2026-03-22T11:57:31.379Z</time></trkpt><trkpt lat="43.1927867" lon="12.9744217"><ele>809.0</ele><time>2026-03-22T11:57:32.436Z</time></trkpt><trkpt lat="43.1928667" lon="12.9742767"><ele>809.0</ele><time>2026-03-22T11:57:33.375Z</time></trkpt><trkpt lat="43.192945" lon="12.9741333"><ele>809.0</ele><time>2026-03-22T11:57:34.383Z</time></trkpt><trkpt lat="43.1930283" lon="12.97399"><ele>809.0</ele><time>2026-03-22T11:57:35.385Z</time></trkpt><trkpt lat="43.1931267" lon="12.97385"><ele>810.5</ele><time>2026-03-22T11:57:36.385Z</time></trkpt><trkpt lat="43.19324" lon="12.9737167"><ele>812.0</ele><time>2026-03-22T11:57:37.38Z</time></trkpt><trkpt lat="43.1933583" lon="12.97359"><ele>813.5</ele><time>2026-03-22T11:57:38.433Z</time></trkpt><trkpt lat="43.193465" lon="12.9734633"><ele>815.0</ele><time>2026-03-22T11:57:39.354Z</time></trkpt><trkpt lat="43.19356" lon="12.973335"><ele>815.0</ele><time>2026-03-22T11:57:40.379Z</time></trkpt><trkpt lat="43.19364" lon="12.9731967"><ele>815.0</ele><time>2026-03-22T11:57:41.385Z</time></trkpt><trkpt lat="43.19372" lon="12.9730667"><ele>815.0</ele><time>2026-03-22T11:57:42.385Z</time></trkpt><trkpt lat="43.1937967" lon="12.9729383"><ele>815.0</ele><time>2026-03-22T11:57:43.38Z</time></trkpt><trkpt lat="43.193875" lon="12.9728117"><ele>815.0</ele><time>2026-03-22T11:57:44.434Z</time></trkpt><trkpt lat="43.1939517" lon="12.972685"><ele>815.0</ele><time>2026-03-22T11:57:45.377Z</time></trkpt><trkpt lat="43.1940233" lon="12.9725583"><ele>815.0</ele><time>2026-03-22T11:57:46.363Z</time></trkpt><trkpt lat="43.194095" lon="12.9724383"><ele>815.0</ele><time>2026-03-22T11:57:47.378Z</time></trkpt><trkpt lat="43.194165" lon="12.9723167"><ele>820.2</ele><time>2026-03-22T11:57:48.38Z</time></trkpt><trkpt lat="43.19423" lon="12.9721967"><ele>825.4</ele><time>2026-03-22T11:57:49.384Z</time></trkpt><trkpt lat="43.1942883" lon="12.9720667"><ele>830.5999999999999</ele><time>2026-03-22T11:57:50.423Z</time></trkpt><trkpt lat="43.194345" lon="12.971935"><ele>835.8</ele><time>2026-03-22T11:57:51.382Z</time></trkpt><trkpt lat="43.194395" lon="12.9718083"><ele>841.0</ele><time>2026-03-22T11:57:52.377Z</time></trkpt><trkpt lat="43.1944367" lon="12.9717"><ele>839.8333333333333</ele><time>2026-03-22T11:57:53.383Z</time></trkpt><trkpt lat="43.194485" lon="12.9716"><ele>838.6666666666666</ele><time>2026-03-22T11:57:55.378Z</time></trkpt><trkpt lat="43.1944467" lon="12.97152"><ele>837.5</ele><time>2026-03-22T12:02:42.369Z</time></trkpt><trkpt lat="43.1943817" lon="12.9714133"><ele>836.3333333333333</ele><time>2026-03-22T12:02:44.379Z</time></trkpt><trkpt lat="43.1943217" lon="12.971355"><ele>835.1666666666666</ele><time>2026-03-22T12:02:45.359Z</time></trkpt><trkpt lat="43.1942467" lon="12.971295"><ele>834.0</ele><time>2026-03-22T12:02:46.358Z</time></trkpt><trkpt lat="43.1941633" lon="12.9712433"><ele>834.0</ele><time>2026-03-22T12:02:47.369Z</time></trkpt><trkpt lat="43.1940767" lon="12.9711933"><ele>834.0</ele><time>2026-03-22T12:02:48.355Z</time></trkpt><trkpt lat="43.1939833" lon="12.97114"><ele>834.0</ele><time>2026-03-22T12:02:49.376Z</time></trkpt><trkpt lat="43.1938883" lon="12.971085"><ele>834.0</ele><time>2026-03-22T12:02:50.399Z</time></trkpt><trkpt lat="43.19379" lon="12.9710267"><ele>834.0</ele><time>2026-03-22T12:02:51.37Z</time></trkpt><trkpt lat="43.1936917" lon="12.9709683"><ele>831.4000000000001</ele><time>2026-03-22T12:02:52.37Z</time></trkpt><trkpt lat="43.1935867" lon="12.9709133"><ele>828.8</ele><time>2026-03-22T12:02:53.376Z</time></trkpt><trkpt lat="43.193485" lon="12.9708683"><ele>826.2</ele><time>2026-03-22T12:02:54.377Z</time></trkpt><trkpt lat="43.1933817" lon="12.9708267"><ele>823.5999999999999</ele><time>2026-03-22T12:02:55.373Z</time></trkpt><trkpt lat="43.19328" lon="12.97079"><ele>821.0</ele><time>2026-03-22T12:02:56.433Z</time></trkpt><trkpt lat="43.1931617" lon="12.9707567"><ele>830.75</ele><time>2026-03-22T12:02:57.371Z</time></trkpt><trkpt lat="43.1930367" lon="12.97073"><ele>840.5</ele><time>2026-03-22T12:02:58.374Z</time></trkpt><trkpt lat="43.1929017" lon="12.9706917"><ele>850.25</ele><time>2026-03-22T12:02:59.374Z</time></trkpt><trkpt lat="43.1927767" lon="12.9706733"><ele>860.0</ele><time>2026-03-22T12:03:00.378Z</time></trkpt><trkpt lat="43.1926517" lon="12.9706583"><ele>860.0</ele><time>2026-03-22T12:03:01.377Z</time></trkpt><trkpt lat="43.1925283" lon="12.97066"><ele>860.0</ele><time>2026-03-22T12:03:02.429Z</time></trkpt><trkpt lat="43.1923983" lon="12.9706817"><ele>860.0</ele><time>2026-03-22T12:03:03.376Z</time></trkpt><trkpt lat="43.19227" lon="12.97071"><ele>860.0</ele><time>2026-03-22T12:03:04.37Z</time></trkpt><trkpt lat="43.19214" lon="12.9707483"><ele>864.25</ele><time>2026-03-22T12:03:05.373Z</time></trkpt><trkpt lat="43.1920117" lon="12.9707833"><ele>868.5</ele><time>2026-03-22T12:03:06.372Z</time></trkpt><trkpt lat="43.1918817" lon="12.9708183"><ele>872.75</ele><time>2026-03-22T12:03:07.374Z</time></trkpt><trkpt lat="43.1917533" lon="12.9708467"><ele>877.0</ele><time>2026-03-22T12:03:08.394Z</time></trkpt><trkpt lat="43.19162" lon="12.97088"><ele>869.0</ele><time>2026-03-22T12:03:09.374Z</time></trkpt><trkpt lat="43.19149" lon="12.9709133"><ele>861.0</ele><time>2026-03-22T12:03:10.373Z</time></trkpt><trkpt lat="43.1913617" lon="12.9709333"><ele>853.0</ele><time>2026-03-22T12:03:11.363Z</time></trkpt><trkpt lat="43.1912317" lon="12.97095"><ele>845.0</ele><time>2026-03-22T12:03:12.368Z</time></trkpt><trkpt lat="43.191095" lon="12.9709533"><ele>845.0</ele><time>2026-03-22T12:03:13.373Z</time></trkpt><trkpt lat="43.190965" lon="12.9709383"><ele>845.0</ele><time>2026-03-22T12:03:14.385Z</time></trkpt><trkpt lat="43.1908433" lon="12.9709067"><ele>845.0</ele><time>2026-03-22T12:03:15.356Z</time></trkpt><trkpt lat="43.190725" lon="12.9708583"><ele>845.0</ele><time>2026-03-22T12:03:16.354Z</time></trkpt><trkpt lat="43.1906133" lon="12.970805"><ele>848.6</ele><time>2026-03-22T12:03:17.379Z</time></trkpt><trkpt lat="43.1905133" lon="12.97076"><ele>852.2</ele><time>2026-03-22T12:03:18.382Z</time></trkpt><trkpt lat="43.1904117" lon="12.97073"><ele>855.8</ele><time>2026-03-22T12:03:19.361Z</time></trkpt><trkpt lat="43.1903217" lon="12.9707"><ele>859.4</ele><time>2026-03-22T12:03:20.406Z</time></trkpt><trkpt lat="43.1902533" lon="12.9706483"><ele>863.0</ele><time>2026-03-22T12:03:21.383Z</time></trkpt><trkpt lat="43.19021" lon="12.9705683"><ele>863.0</ele><time>2026-03-22T12:03:22.368Z</time></trkpt><trkpt lat="43.1901967" lon="12.9704717"><ele>863.0</ele><time>2026-03-22T12:03:23.388Z</time></trkpt><trkpt lat="43.1902033" lon="12.9703583"><ele>863.0</ele><time>2026-03-22T12:03:24.381Z</time></trkpt><trkpt lat="43.1902283" lon="12.9702417"><ele>863.0</ele><time>2026-03-22T12:03:25.367Z</time></trkpt><trkpt lat="43.1902833" lon="12.9701083"><ele>863.0</ele><time>2026-03-22T12:03:26.444Z</time></trkpt><trkpt lat="43.1903783" lon="12.9699633"><ele>863.0</ele><time>2026-03-22T12:03:27.383Z</time></trkpt><trkpt lat="43.1904917" lon="12.969815"><ele>863.0</ele><time>2026-03-22T12:03:28.382Z</time></trkpt><trkpt lat="43.190575" lon="12.969685"><ele>863.0</ele><time>2026-03-22T12:03:29.386Z</time></trkpt><trkpt lat="43.1906733" lon="12.9695517"><ele>863.0</ele><time>2026-03-22T12:03:30.384Z</time></trkpt><trkpt lat="43.1907783" lon="12.9694217"><ele>868.25</ele><time>2026-03-22T12:03:31.382Z</time></trkpt><trkpt lat="43.1908817" lon="12.9693"><ele>873.5</ele><time>2026-03-22T12:03:32.437Z</time></trkpt><trkpt lat="43.1909767" lon="12.9691817"><ele>878.75</ele><time>2026-03-22T12:03:33.367Z</time></trkpt><trkpt lat="43.19107" lon="12.9690617"><ele>884.0</ele><time>2026-03-22T12:03:34.377Z</time></trkpt><trkpt lat="43.1911683" lon="12.9689433"><ele>884.0</ele><time>2026-03-22T12:03:35.384Z</time></trkpt><trkpt lat="43.1912733" lon="12.9688267"><ele>884.0</ele><time>2026-03-22T12:03:36.383Z</time></trkpt><trkpt lat="43.1913783" lon="12.9687167"><ele>884.0</ele><time>2026-03-22T12:03:37.381Z</time></trkpt><trkpt lat="43.1914817" lon="12.9686233"><ele>884.0</ele><time>2026-03-22T12:03:38.406Z</time></trkpt><trkpt lat="43.1915817" lon="12.9685483"><ele>885.8000000000001</ele><time>2026-03-22T12:03:39.383Z</time></trkpt><trkpt lat="43.1916733" lon="12.9684733"><ele>887.6000000000001</ele><time>2026-03-22T12:03:40.382Z</time></trkpt><trkpt lat="43.19176" lon="12.968415"><ele>889.4</ele><time>2026-03-22T12:03:41.383Z</time></trkpt><trkpt lat="43.191845" lon="12.9683683"><ele>891.2</ele><time>2026-03-22T12:03:42.374Z</time></trkpt><trkpt lat="43.1919417" lon="12.9683433"><ele>893.0</ele><time>2026-03-22T12:03:43.381Z</time></trkpt><trkpt lat="43.1920517" lon="12.9683383"><ele>896.5</ele><time>2026-03-22T12:03:44.403Z</time></trkpt><trkpt lat="43.1921733" lon="12.9683633"><ele>900.0</ele><time>2026-03-22T12:03:45.385Z</time></trkpt><trkpt lat="43.192315" lon="12.9684167"><ele>903.5</ele><time>2026-03-22T12:03:46.384Z</time></trkpt><trkpt lat="43.192455" lon="12.9684867"><ele>907.0</ele><time>2026-03-22T12:03:47.368Z</time></trkpt><trkpt lat="43.1925883" lon="12.9685533"><ele>907.0</ele><time>2026-03-22T12:03:48.388Z</time></trkpt><trkpt lat="43.19272" lon="12.9686167"><ele>907.0</ele><time>2026-03-22T12:03:49.385Z</time></trkpt><trkpt lat="43.1928467" lon="12.9686717"><ele>907.0</ele><time>2026-03-22T12:03:50.405Z</time></trkpt><trkpt lat="43.1929733" lon="12.968725"><ele>907.0</ele><time>2026-03-22T12:03:51.385Z</time></trkpt><trkpt lat="43.1931067" lon="12.968775"><ele>907.2</ele><time>2026-03-22T12:03:52.37Z</time></trkpt><trkpt lat="43.1932283" lon="12.9688233"><ele>907.4000000000001</ele><time>2026-03-22T12:03:53.389Z</time></trkpt><trkpt lat="43.1933433" lon="12.9688717"><ele>907.5999999999999</ele><time>2026-03-22T12:03:54.385Z</time></trkpt><trkpt lat="43.1934433" lon="12.968915"><ele>907.8</ele><time>2026-03-22T12:03:55.39Z</time></trkpt><trkpt lat="43.1935367" lon="12.9689483"><ele>908.0</ele><time>2026-03-22T12:03:56.443Z</time></trkpt><trkpt lat="43.193615" lon="12.9689583"><ele>908.0000000000001</ele><time>2026-03-22T12:03:57.38Z</time></trkpt><trkpt lat="43.1936783" lon="12.9689483"><ele>908.0</ele><time>2026-03-22T12:03:58.382Z</time></trkpt><trkpt lat="43.1937783" lon="12.9689233"><ele>908.0</ele><time>2026-03-22T12:04:00.382Z</time></trkpt><trkpt lat="43.19389" lon="12.9688833"><ele>908.0</ele><time>2026-03-22T12:04:02.439Z</time></trkpt><trkpt lat="43.1939517" lon="12.9688483"><ele>908.0000000000001</ele><time>2026-03-22T12:04:03.38Z</time></trkpt><trkpt lat="43.194015" lon="12.9688083"><ele>908.0</ele><time>2026-03-22T12:04:04.381Z</time></trkpt><trkpt lat="43.1940833" lon="12.9687683"><ele>910.1666666666667</ele><time>2026-03-22T12:04:05.387Z</time></trkpt><trkpt lat="43.194155" lon="12.9687217"><ele>912.3333333333334</ele><time>2026-03-22T12:04:06.385Z</time></trkpt><trkpt lat="43.1942267" lon="12.9686717"><ele>914.5</ele><time>2026-03-22T12:04:07.379Z</time></trkpt><trkpt lat="43.1942933" lon="12.9686167"><ele>916.6666666666667</ele><time>2026-03-22T12:04:08.407Z</time></trkpt><trkpt lat="43.1943583" lon="12.9685667"><ele>918.8333333333334</ele><time>2026-03-22T12:04:09.376Z</time></trkpt><trkpt lat="43.1944233" lon="12.968535"><ele>921.0</ele><time>2026-03-22T12:04:10.371Z</time></trkpt><trkpt lat="43.1945467" lon="12.9685083"><ele>921.0</ele><time>2026-03-22T12:04:12.386Z</time></trkpt><trkpt lat="43.1946117" lon="12.9684617"><ele>921.0</ele><time>2026-03-22T12:04:13.386Z</time></trkpt><trkpt lat="43.1946817" lon="12.96841"><ele>921.0</ele><time>2026-03-22T12:04:14.404Z</time></trkpt><trkpt lat="43.1947633" lon="12.9683467"><ele>921.0</ele><time>2026-03-22T12:04:15.387Z</time></trkpt><trkpt lat="43.19484" lon="12.9682833"><ele>921.0</ele><time>2026-03-22T12:04:16.377Z</time></trkpt><trkpt lat="43.1949117" lon="12.96822"><ele>921.0</ele><time>2026-03-22T12:04:17.385Z</time></trkpt><trkpt lat="43.1949767" lon="12.968155"><ele>926.0</ele><time>2026-03-22T12:04:18.384Z</time></trkpt><trkpt lat="43.1950333" lon="12.96808"><ele>931.0</ele><time>2026-03-22T12:04:19.382Z</time></trkpt><trkpt lat="43.1950833" lon="12.9680017"><ele>936.0</ele><time>2026-03-22T12:04:20.405Z</time></trkpt><trkpt lat="43.1951317" lon="12.9679067"><ele>941.0</ele><time>2026-03-22T12:04:21.39Z</time></trkpt><trkpt lat="43.1951817" lon="12.9677917"><ele>946.0</ele><time>2026-03-22T12:04:22.37Z</time></trkpt><trkpt lat="43.1952367" lon="12.9676767"><ele>951.0</ele><time>2026-03-22T12:04:23.379Z</time></trkpt><trkpt lat="43.1952967" lon="12.9675717"><ele>952.1999999999999</ele><time>2026-03-22T12:04:24.389Z</time></trkpt><trkpt lat="43.1953533" lon="12.9674767"><ele>953.3999999999999</ele><time>2026-03-22T12:04:25.387Z</time></trkpt><trkpt lat="43.1954217" lon="12.96739"><ele>954.6</ele><time>2026-03-22T12:04:26.444Z</time></trkpt><trkpt lat="43.1954983" lon="12.9673017"><ele>955.8</ele><time>2026-03-22T12:04:27.378Z</time></trkpt><trkpt lat="43.1955717" lon="12.967215"><ele>957.0</ele><time>2026-03-22T12:04:28.385Z</time></trkpt><trkpt lat="43.1956383" lon="12.967145"><ele>960.5</ele><time>2026-03-22T12:04:29.384Z</time></trkpt><trkpt lat="43.1957033" lon="12.9670883"><ele>964.0</ele><time>2026-03-22T12:04:30.389Z</time></trkpt><trkpt lat="43.19577" lon="12.9670467"><ele>967.5</ele><time>2026-03-22T12:04:31.373Z</time></trkpt><trkpt lat="43.1958433" lon="12.9670083"><ele>971.0</ele><time>2026-03-22T12:04:32.443Z</time></trkpt><trkpt lat="43.1959233" lon="12.9669683"><ele>974.5</ele><time>2026-03-22T12:04:33.38Z</time></trkpt><trkpt lat="43.1960033" lon="12.9669283"><ele>978.0</ele><time>2026-03-22T12:04:34.385Z</time></trkpt><trkpt lat="43.1960833" lon="12.96688"><ele>978.0</ele><time>2026-03-22T12:04:35.385Z</time></trkpt><trkpt lat="43.1961683" lon="12.9668367"><ele>978.0</ele><time>2026-03-22T12:04:36.384Z</time></trkpt><trkpt lat="43.1962517" lon="12.9667883"><ele>978.0</ele><time>2026-03-22T12:04:37.381Z</time></trkpt><trkpt lat="43.1963417" lon="12.9667383"><ele>978.0</ele><time>2026-03-22T12:04:38.406Z</time></trkpt><trkpt lat="43.1964433" lon="12.966685"><ele>978.0</ele><time>2026-03-22T12:04:39.384Z</time></trkpt><trkpt lat="43.1965633" lon="12.9666283"><ele>984.75</ele><time>2026-03-22T12:04:40.378Z</time></trkpt><trkpt lat="43.1966983" lon="12.9665683"><ele>991.5</ele><time>2026-03-22T12:04:41.387Z</time></trkpt><trkpt lat="43.1968417" lon="12.9665017"><ele>998.25</ele><time>2026-03-22T12:04:42.386Z</time></trkpt><trkpt lat="43.19698" lon="12.966455"><ele>1005.0</ele><time>2026-03-22T12:04:43.387Z</time></trkpt><trkpt lat="43.1970967" lon="12.966415"><ele>1005.0</ele><time>2026-03-22T12:04:44.406Z</time></trkpt><trkpt lat="43.197195" lon="12.9663717"><ele>1005.0</ele><time>2026-03-22T12:04:45.383Z</time></trkpt><trkpt lat="43.1972867" lon="12.96633"><ele>1005.0</ele><time>2026-03-22T12:04:46.384Z</time></trkpt><trkpt lat="43.1973817" lon="12.966295"><ele>1005.0</ele><time>2026-03-22T12:04:47.386Z</time></trkpt><trkpt lat="43.197485" lon="12.9662517"><ele>1005.0</ele><time>2026-03-22T12:04:48.387Z</time></trkpt><trkpt lat="43.1975933" lon="12.9661983"><ele>1007.25</ele><time>2026-03-22T12:04:49.385Z</time></trkpt><trkpt lat="43.1976917" lon="12.9661417"><ele>1009.5</ele><time>2026-03-22T12:04:50.409Z</time></trkpt><trkpt lat="43.1977933" lon="12.9660833"><ele>1011.75</ele><time>2026-03-22T12:04:51.386Z</time></trkpt><trkpt lat="43.1979017" lon="12.966025"><ele>1014.0</ele><time>2026-03-22T12:04:52.383Z</time></trkpt><trkpt lat="43.1980133" lon="12.9659683"><ele>1014.0</ele><time>2026-03-22T12:04:53.385Z</time></trkpt><trkpt lat="43.1981233" lon="12.9659133"><ele>1014.0</ele><time>2026-03-22T12:04:54.379Z</time></trkpt><trkpt lat="43.19823" lon="12.96587"><ele>1014.0</ele><time>2026-03-22T12:04:55.387Z</time></trkpt><trkpt lat="43.19834" lon="12.9658383"><ele>1014.0</ele><time>2026-03-22T12:04:56.444Z</time></trkpt><trkpt lat="43.1984517" lon="12.9658117"><ele>1016.75</ele><time>2026-03-22T12:04:57.36Z</time></trkpt><trkpt lat="43.1985683" lon="12.9657783"><ele>1019.5</ele><time>2026-03-22T12:04:58.386Z</time></trkpt><trkpt lat="43.1986867" lon="12.9657417"><ele>1022.25</ele><time>2026-03-22T12:04:59.378Z</time></trkpt><trkpt lat="43.1988067" lon="12.9657"><ele>1025.0</ele><time>2026-03-22T12:05:00.387Z</time></trkpt><trkpt lat="43.198935" lon="12.96565"><ele>1026.0</ele><time>2026-03-22T12:05:01.385Z</time></trkpt><trkpt lat="43.1990617" lon="12.965605"><ele>1027.0</ele><time>2026-03-22T12:05:02.438Z</time></trkpt><trkpt lat="43.199195" lon="12.96556"><ele>1028.0</ele><time>2026-03-22T12:05:03.386Z</time></trkpt><trkpt lat="43.199325" lon="12.9655083"><ele>1029.0</ele><time>2026-03-22T12:05:04.383Z</time></trkpt><trkpt lat="43.19945" lon="12.9654517"><ele>1029.0</ele><time>2026-03-22T12:05:05.385Z</time></trkpt><trkpt lat="43.1995667" lon="12.9653933"><ele>1029.0</ele><time>2026-03-22T12:05:06.378Z</time></trkpt><trkpt lat="43.199685" lon="12.96533"><ele>1029.0</ele><time>2026-03-22T12:05:07.386Z</time></trkpt><trkpt lat="43.199805" lon="12.9652617"><ele>1029.0</ele><time>2026-03-22T12:05:08.407Z</time></trkpt><trkpt lat="43.1999283" lon="12.9652033"><ele>1030.25</ele><time>2026-03-22T12:05:09.384Z</time></trkpt><trkpt lat="43.2000483" lon="12.9651583"><ele>1031.5</ele><time>2026-03-22T12:05:10.385Z</time></trkpt><trkpt lat="43.200165" lon="12.9651217"><ele>1032.75</ele><time>2026-03-22T12:05:11.385Z</time></trkpt><trkpt lat="43.2002683" lon="12.9650783"><ele>1034.0</ele><time>2026-03-22T12:05:12.385Z</time></trkpt><trkpt lat="43.200365" lon="12.9650183"><ele>1036.4</ele><time>2026-03-22T12:05:13.38Z</time></trkpt><trkpt lat="43.2004517" lon="12.9649433"><ele>1038.8000000000002</ele><time>2026-03-22T12:05:14.404Z</time></trkpt><trkpt lat="43.2005317" lon="12.96486"><ele>1041.1999999999998</ele><time>2026-03-22T12:05:15.386Z</time></trkpt><trkpt lat="43.2006133" lon="12.9647633"><ele>1043.6</ele><time>2026-03-22T12:05:16.352Z</time></trkpt><trkpt lat="43.2007" lon="12.9646433"><ele>1046.0</ele><time>2026-03-22T12:05:17.382Z</time></trkpt><trkpt lat="43.20079" lon="12.964495"><ele>1047.25</ele><time>2026-03-22T12:05:18.383Z</time></trkpt><trkpt lat="43.2008767" lon="12.9643167"><ele>1048.5</ele><time>2026-03-22T12:05:19.386Z</time></trkpt><trkpt lat="43.2009467" lon="12.9641467"><ele>1049.75</ele><time>2026-03-22T12:05:20.41Z</time></trkpt><trkpt lat="43.200995" lon="12.964005"><ele>1051.0</ele><time>2026-03-22T12:05:21.387Z</time></trkpt><trkpt lat="43.20101" lon="12.9638917"><ele>1052.2</ele><time>2026-03-22T12:05:22.382Z</time></trkpt><trkpt lat="43.2010217" lon="12.96378"><ele>1053.3999999999999</ele><time>2026-03-22T12:05:23.359Z</time></trkpt><trkpt lat="43.201055" lon="12.96366"><ele>1054.6</ele><time>2026-03-22T12:05:24.384Z</time></trkpt><trkpt lat="43.2011033" lon="12.96354"><ele>1055.8</ele><time>2026-03-22T12:05:25.375Z</time></trkpt><trkpt lat="43.2011667" lon="12.963415"><ele>1057.0</ele><time>2026-03-22T12:05:26.437Z</time></trkpt><trkpt lat="43.2012333" lon="12.963295"><ele>1057.0</ele><time>2026-03-22T12:05:27.379Z</time></trkpt><trkpt lat="43.201295" lon="12.9631767"><ele>1057.0</ele><time>2026-03-22T12:05:28.383Z</time></trkpt><trkpt lat="43.201355" lon="12.96306"><ele>1057.0</ele><time>2026-03-22T12:05:29.381Z</time></trkpt><trkpt lat="43.201415" lon="12.962945"><ele>1057.0</ele><time>2026-03-22T12:05:30.389Z</time></trkpt><trkpt lat="43.2014783" lon="12.962825"><ele>1057.0</ele><time>2026-03-22T12:05:31.386Z</time></trkpt><trkpt lat="43.2015383" lon="12.9627"><ele>1058.4</ele><time>2026-03-22T12:05:32.439Z</time></trkpt><trkpt lat="43.201595" lon="12.9625783"><ele>1059.8000000000002</ele><time>2026-03-22T12:05:33.38Z</time></trkpt><trkpt lat="43.2016433" lon="12.9624567"><ele>1061.2</ele><time>2026-03-22T12:05:34.384Z</time></trkpt><trkpt lat="43.2016917" lon="12.9623317"><ele>1062.6000000000001</ele><time>2026-03-22T12:05:35.385Z</time></trkpt><trkpt lat="43.2017433" lon="12.9622067"><ele>1064.0</ele><time>2026-03-22T12:05:36.385Z</time></trkpt><trkpt lat="43.2018" lon="12.9620817"><ele>1064.0</ele><time>2026-03-22T12:05:37.381Z</time></trkpt><trkpt lat="43.2018667" lon="12.9619583"><ele>1064.0</ele><time>2026-03-22T12:05:38.408Z</time></trkpt><trkpt lat="43.201935" lon="12.96184"><ele>1064.0</ele><time>2026-03-22T12:05:39.384Z</time></trkpt><trkpt lat="43.2020017" lon="12.96172"><ele>1064.0</ele><time>2026-03-22T12:05:40.386Z</time></trkpt><trkpt lat="43.2020717" lon="12.9616033"><ele>1064.0</ele><time>2026-03-22T12:05:41.383Z</time></trkpt><trkpt lat="43.2021417" lon="12.9614883"><ele>1063.5</ele><time>2026-03-22T12:05:42.386Z</time></trkpt><trkpt lat="43.202215" lon="12.9613717"><ele>1063.0</ele><time>2026-03-22T12:05:43.383Z</time></trkpt><trkpt lat="43.2022917" lon="12.96125"><ele>1062.5</ele><time>2026-03-22T12:05:44.409Z</time></trkpt><trkpt lat="43.2023733" lon="12.96113"><ele>1062.0</ele><time>2026-03-22T12:05:45.383Z</time></trkpt><trkpt lat="43.20246" lon="12.961015"><ele>1063.6</ele><time>2026-03-22T12:05:46.386Z</time></trkpt><trkpt lat="43.202545" lon="12.96091"><ele>1065.2</ele><time>2026-03-22T12:05:47.386Z</time></trkpt><trkpt lat="43.2026283" lon="12.9608117"><ele>1066.8</ele><time>2026-03-22T12:05:48.386Z</time></trkpt><trkpt lat="43.2027167" lon="12.9607233"><ele>1068.4</ele><time>2026-03-22T12:05:49.393Z</time></trkpt><trkpt lat="43.2027983" lon="12.9606283"><ele>1070.0</ele><time>2026-03-22T12:05:50.413Z</time></trkpt><trkpt lat="43.2028833" lon="12.9605367"><ele>1070.0</ele><time>2026-03-22T12:05:51.385Z</time></trkpt><trkpt lat="43.2029717" lon="12.9604483"><ele>1070.0</ele><time>2026-03-22T12:05:52.384Z</time></trkpt><trkpt lat="43.2030667" lon="12.960355"><ele>1070.0</ele><time>2026-03-22T12:05:53.386Z</time></trkpt><trkpt lat="43.2031617" lon="12.960255"><ele>1070.0</ele><time>2026-03-22T12:05:54.378Z</time></trkpt><trkpt lat="43.20326" lon="12.960165"><ele>1069.8333333333335</ele><time>2026-03-22T12:05:55.385Z</time></trkpt><trkpt lat="43.2033483" lon="12.9600817"><ele>1069.6666666666667</ele><time>2026-03-22T12:05:56.429Z</time></trkpt><trkpt lat="43.203425" lon="12.960005"><ele>1069.5</ele><time>2026-03-22T12:05:57.377Z</time></trkpt><trkpt lat="43.20349" lon="12.959935"><ele>1069.3333333333333</ele><time>2026-03-22T12:05:58.384Z</time></trkpt><trkpt lat="43.2035383" lon="12.959855"><ele>1069.1666666666665</ele><time>2026-03-22T12:05:59.383Z</time></trkpt><trkpt lat="43.2035633" lon="12.9597617"><ele>1069.0</ele><time>2026-03-22T12:06:00.385Z</time></trkpt><trkpt lat="43.2035783" lon="12.9596467"><ele>1069.0</ele><time>2026-03-22T12:06:01.388Z</time></trkpt><trkpt lat="43.2035767" lon="12.9595217"><ele>1069.0</ele><time>2026-03-22T12:06:02.439Z</time></trkpt><trkpt lat="43.203555" lon="12.95938"><ele>1069.0</ele><time>2026-03-22T12:06:03.381Z</time></trkpt><trkpt lat="43.2035317" lon="12.9592183"><ele>1069.0</ele><time>2026-03-22T12:06:04.384Z</time></trkpt><trkpt lat="43.2035183" lon="12.95904"><ele>1069.0</ele><time>2026-03-22T12:06:05.387Z</time></trkpt><trkpt lat="43.203515" lon="12.958835"><ele>1069.25</ele><time>2026-03-22T12:06:06.388Z</time></trkpt><trkpt lat="43.203515" lon="12.958635"><ele>1069.5</ele><time>2026-03-22T12:06:07.383Z</time></trkpt><trkpt lat="43.2035167" lon="12.9584533"><ele>1069.75</ele><time>2026-03-22T12:06:08.413Z</time></trkpt><trkpt lat="43.20353" lon="12.9582817"><ele>1070.0</ele><time>2026-03-22T12:06:09.39Z</time></trkpt><trkpt lat="43.2035533" lon="12.9581133"><ele>1070.0</ele><time>2026-03-22T12:06:10.389Z</time></trkpt><trkpt lat="43.203585" lon="12.9579317"><ele>1070.0</ele><time>2026-03-22T12:06:11.386Z</time></trkpt><trkpt lat="43.20363" lon="12.9577467"><ele>1070.0</ele><time>2026-03-22T12:06:12.387Z</time></trkpt><trkpt lat="43.2036817" lon="12.9575617"><ele>1070.0</ele><time>2026-03-22T12:06:13.385Z</time></trkpt><trkpt lat="43.2037417" lon="12.9573833"><ele>1071.25</ele><time>2026-03-22T12:06:14.408Z</time></trkpt><trkpt lat="43.203805" lon="12.957215"><ele>1072.5</ele><time>2026-03-22T12:06:15.382Z</time></trkpt><trkpt lat="43.203855" lon="12.9570633"><ele>1073.75</ele><time>2026-03-22T12:06:16.368Z</time></trkpt><trkpt lat="43.2038983" lon="12.9569083"><ele>1075.0</ele><time>2026-03-22T12:06:17.385Z</time></trkpt><trkpt lat="43.2039317" lon="12.9567533"><ele>1075.25</ele><time>2026-03-22T12:06:18.386Z</time></trkpt><trkpt lat="43.2039483" lon="12.9565917"><ele>1075.5</ele><time>2026-03-22T12:06:19.386Z</time></trkpt><trkpt lat="43.2039567" lon="12.9564217"><ele>1075.75</ele><time>2026-03-22T12:06:20.416Z</time></trkpt><trkpt lat="43.2039633" lon="12.9562467"><ele>1076.0</ele><time>2026-03-22T12:06:21.39Z</time></trkpt><trkpt lat="43.2039733" lon="12.9560733"><ele>1076.0</ele><time>2026-03-22T12:06:22.39Z</time></trkpt><trkpt lat="43.2039833" lon="12.9559067"><ele>1076.0</ele><time>2026-03-22T12:06:23.385Z</time></trkpt><trkpt lat="43.2039917" lon="12.9557433"><ele>1076.0</ele><time>2026-03-22T12:06:24.387Z</time></trkpt><trkpt lat="43.204" lon="12.9555817"><ele>1076.0</ele><time>2026-03-22T12:06:25.372Z</time></trkpt><trkpt lat="43.2040167" lon="12.9554267"><ele>1075.75</ele><time>2026-03-22T12:06:26.443Z</time></trkpt><trkpt lat="43.2040417" lon="12.9552717"><ele>1075.5</ele><time>2026-03-22T12:06:27.371Z</time></trkpt><trkpt lat="43.20407" lon="12.9551167"><ele>1075.25</ele><time>2026-03-22T12:06:28.388Z</time></trkpt><trkpt lat="43.2040967" lon="12.954965"><ele>1075.0</ele><time>2026-03-22T12:06:29.386Z</time></trkpt><trkpt lat="43.204125" lon="12.9548067"><ele>1075.0</ele><time>2026-03-22T12:06:30.385Z</time></trkpt><trkpt lat="43.2041583" lon="12.9546417"><ele>1075.0</ele><time>2026-03-22T12:06:31.387Z</time></trkpt><trkpt lat="43.2042033" lon="12.9544683"><ele>1075.0</ele><time>2026-03-22T12:06:32.44Z</time></trkpt><trkpt lat="43.2042617" lon="12.954295"><ele>1075.0</ele><time>2026-03-22T12:06:33.381Z</time></trkpt><trkpt lat="43.204325" lon="12.9541233"><ele>1072.75</ele><time>2026-03-22T12:06:34.387Z</time></trkpt><trkpt lat="43.2043867" lon="12.9539583"><ele>1070.5</ele><time>2026-03-22T12:06:35.389Z</time></trkpt><trkpt lat="43.2044383" lon="12.953795"><ele>1068.25</ele><time>2026-03-22T12:06:36.389Z</time></trkpt><trkpt lat="43.2044817" lon="12.95363"><ele>1066.0</ele><time>2026-03-22T12:06:37.386Z</time></trkpt><trkpt lat="43.20452" lon="12.9534617"><ele>1063.5</ele><time>2026-03-22T12:06:38.405Z</time></trkpt><trkpt lat="43.2045517" lon="12.953295"><ele>1061.0</ele><time>2026-03-22T12:06:39.385Z</time></trkpt><trkpt lat="43.2045833" lon="12.9531367"><ele>1058.5</ele><time>2026-03-22T12:06:40.39Z</time></trkpt><trkpt lat="43.20462" lon="12.9529767"><ele>1056.0</ele><time>2026-03-22T12:06:41.361Z</time></trkpt><trkpt lat="43.2046567" lon="12.952815"><ele>1056.0</ele><time>2026-03-22T12:06:42.388Z</time></trkpt><trkpt lat="43.204685" lon="12.95265"><ele>1056.0</ele><time>2026-03-22T12:06:43.385Z</time></trkpt><trkpt lat="43.2046917" lon="12.952475"><ele>1056.0</ele><time>2026-03-22T12:06:44.411Z</time></trkpt><trkpt lat="43.2046833" lon="12.9523017"><ele>1056.0</ele><time>2026-03-22T12:06:45.385Z</time></trkpt><trkpt lat="43.2046667" lon="12.9521417"><ele>1053.3999999999999</ele><time>2026-03-22T12:06:46.386Z</time></trkpt><trkpt lat="43.2046483" lon="12.9520033"><ele>1050.8</ele><time>2026-03-22T12:06:47.383Z</time></trkpt><trkpt lat="43.2046317" lon="12.951875"><ele>1048.1999999999998</ele><time>2026-03-22T12:06:48.385Z</time></trkpt><trkpt lat="43.2046167" lon="12.951735"><ele>1045.6</ele><time>2026-03-22T12:06:49.386Z</time></trkpt><trkpt lat="43.2046083" lon="12.95158"><ele>1043.0</ele><time>2026-03-22T12:06:50.411Z</time></trkpt><trkpt lat="43.2046133" lon="12.95142"><ele>1042.0</ele><time>2026-03-22T12:06:51.374Z</time></trkpt><trkpt lat="43.2046383" lon="12.9512683"><ele>1041.0</ele><time>2026-03-22T12:06:52.387Z</time></trkpt><trkpt lat="43.20468" lon="12.9511233"><ele>1040.0</ele><time>2026-03-22T12:06:53.387Z</time></trkpt><trkpt lat="43.2047283" lon="12.9509783"><ele>1039.0</ele><time>2026-03-22T12:06:54.389Z</time></trkpt><trkpt lat="43.2047717" lon="12.950835"><ele>1038.4</ele><time>2026-03-22T12:06:55.385Z</time></trkpt><trkpt lat="43.2048033" lon="12.950695"><ele>1037.8000000000002</ele><time>2026-03-22T12:06:56.442Z</time></trkpt><trkpt lat="43.2048233" lon="12.9505733"><ele>1037.1999999999998</ele><time>2026-03-22T12:06:57.378Z</time></trkpt><trkpt lat="43.2048317" lon="12.95047"><ele>1036.6</ele><time>2026-03-22T12:06:58.389Z</time></trkpt><trkpt lat="43.2048133" lon="12.9503317"><ele>1036.0</ele><time>2026-03-22T12:07:00.39Z</time></trkpt><trkpt lat="43.2047833" lon="12.9502267"><ele>1036.0</ele><time>2026-03-22T12:07:02.427Z</time></trkpt><trkpt lat="43.204755" lon="12.95012"><ele>1036.0</ele><time>2026-03-22T12:07:07.381Z</time></trkpt><trkpt lat="43.20472" lon="12.9500067"><ele>1036.0</ele><time>2026-03-22T12:07:09.36Z</time></trkpt><trkpt lat="43.2046633" lon="12.9498983"><ele>1036.0</ele><time>2026-03-22T12:07:11.363Z</time></trkpt><trkpt lat="43.2046117" lon="12.9497917"><ele>1036.0</ele><time>2026-03-22T12:07:13.387Z</time></trkpt><trkpt lat="43.2045717" lon="12.9497"><ele>1036.0</ele><time>2026-03-22T12:07:15.367Z</time></trkpt><trkpt lat="43.2045167" lon="12.9496"><ele>1039.5</ele><time>2026-03-22T12:07:18.37Z</time></trkpt><trkpt lat="43.204475" lon="12.9495167"><ele>1043.0</ele><time>2026-03-22T12:07:20.382Z</time></trkpt><trkpt lat="43.2043867" lon="12.94944"><ele>1046.5</ele><time>2026-03-22T12:12:01.38Z</time></trkpt><trkpt lat="43.2044267" lon="12.9493517"><ele>1050.0</ele><time>2026-03-22T12:12:05.375Z</time></trkpt><trkpt lat="43.2044617" lon="12.9492583"><ele>1053.5</ele><time>2026-03-22T12:12:08.419Z</time></trkpt><trkpt lat="43.20451" lon="12.9491617"><ele>1057.0</ele><time>2026-03-22T12:12:11.379Z</time></trkpt><trkpt lat="43.2045517" lon="12.94907"><ele>1059.0</ele><time>2026-03-22T12:12:13.365Z</time></trkpt><trkpt lat="43.2046033" lon="12.948955"><ele>1061.0</ele><time>2026-03-22T12:12:15.381Z</time></trkpt><trkpt lat="43.2046667" lon="12.948805"><ele>1063.0</ele><time>2026-03-22T12:12:17.388Z</time></trkpt><trkpt lat="43.2046983" lon="12.94872"><ele>1065.0</ele><time>2026-03-22T12:12:18.379Z</time></trkpt><trkpt lat="43.20473" lon="12.9486333"><ele>1067.0</ele><time>2026-03-22T12:12:19.386Z</time></trkpt><trkpt lat="43.2047567" lon="12.9485467"><ele>1069.0</ele><time>2026-03-22T12:12:20.422Z</time></trkpt><trkpt lat="43.2047833" lon="12.9484567"><ele>1066.6666666666665</ele><time>2026-03-22T12:12:21.376Z</time></trkpt><trkpt lat="43.20481" lon="12.9483617"><ele>1064.3333333333333</ele><time>2026-03-22T12:12:22.375Z</time></trkpt><trkpt lat="43.2048367" lon="12.9482633"><ele>1062.0</ele><time>2026-03-22T12:12:23.379Z</time></trkpt><trkpt lat="43.2048667" lon="12.94817"><ele>1059.6666666666667</ele><time>2026-03-22T12:12:24.379Z</time></trkpt><trkpt lat="43.2048967" lon="12.948075"><ele>1057.3333333333335</ele><time>2026-03-22T12:12:25.377Z</time></trkpt><trkpt lat="43.2049283" lon="12.9479783"><ele>1055.0</ele><time>2026-03-22T12:12:26.438Z</time></trkpt><trkpt lat="43.2049617" lon="12.94788"><ele>1052.3333333333335</ele><time>2026-03-22T12:12:27.377Z</time></trkpt><trkpt lat="43.2049983" lon="12.9477833"><ele>1049.6666666666667</ele><time>2026-03-22T12:12:28.375Z</time></trkpt><trkpt lat="43.2050433" lon="12.9476867"><ele>1047.0</ele><time>2026-03-22T12:12:29.378Z</time></trkpt><trkpt lat="43.205095" lon="12.9476"><ele>1044.3333333333333</ele><time>2026-03-22T12:12:30.376Z</time></trkpt><trkpt lat="43.2051417" lon="12.947525"><ele>1041.6666666666665</ele><time>2026-03-22T12:12:31.377Z</time></trkpt><trkpt lat="43.2051933" lon="12.9474517"><ele>1039.0</ele><time>2026-03-22T12:12:32.421Z</time></trkpt><trkpt lat="43.2052367" lon="12.947385"><ele>1037.0</ele><time>2026-03-22T12:12:33.373Z</time></trkpt><trkpt lat="43.20532" lon="12.9472717"><ele>1035.0</ele><time>2026-03-22T12:12:35.381Z</time></trkpt><trkpt lat="43.2053883" lon="12.9471717"><ele>1033.0</ele><time>2026-03-22T12:12:37.37Z</time></trkpt><trkpt lat="43.2054517" lon="12.9470733"><ele>1031.0</ele><time>2026-03-22T12:12:39.378Z</time></trkpt><trkpt lat="43.20553" lon="12.9469583"><ele>1029.0</ele><time>2026-03-22T12:12:41.378Z</time></trkpt><trkpt lat="43.2055767" lon="12.9468967"><ele>1024.8333333333333</ele><time>2026-03-22T12:12:42.378Z</time></trkpt><trkpt lat="43.2056733" lon="12.946805"><ele>1020.6666666666667</ele><time>2026-03-22T12:12:44.42Z</time></trkpt><trkpt lat="43.2057667" lon="12.9467517"><ele>1016.5</ele><time>2026-03-22T12:12:46.376Z</time></trkpt><trkpt lat="43.2058333" lon="12.946715"><ele>1012.3333333333334</ele><time>2026-03-22T12:12:48.368Z</time></trkpt><trkpt lat="43.2058833" lon="12.94665"><ele>1008.1666666666667</ele><time>2026-03-22T12:12:50.415Z</time></trkpt><trkpt lat="43.2059317" lon="12.9465483"><ele>1004.0</ele><time>2026-03-22T12:12:52.377Z</time></trkpt><trkpt lat="43.2059867" lon="12.9464517"><ele>1004.0</ele><time>2026-03-22T12:12:54.366Z</time></trkpt><trkpt lat="43.20604" lon="12.9463383"><ele>1004.0000000000001</ele><time>2026-03-22T12:12:56.415Z</time></trkpt><trkpt lat="43.2060733" lon="12.9461917"><ele>1004.0000000000001</ele><time>2026-03-22T12:12:58.377Z</time></trkpt><trkpt lat="43.2061067" lon="12.94607"><ele>1004.0</ele><time>2026-03-22T12:13:00.384Z</time></trkpt><trkpt lat="43.2061567" lon="12.9459133"><ele>1004.0</ele><time>2026-03-22T12:13:02.427Z</time></trkpt><trkpt lat="43.2061867" lon="12.9458283"><ele>1002.1666666666667</ele><time>2026-03-22T12:13:03.375Z</time></trkpt><trkpt lat="43.206225" lon="12.94575"><ele>1000.3333333333334</ele><time>2026-03-22T12:13:04.378Z</time></trkpt><trkpt lat="43.2062567" lon="12.9456733"><ele>998.5</ele><time>2026-03-22T12:13:05.375Z</time></trkpt><trkpt lat="43.2062933" lon="12.945595"><ele>996.6666666666667</ele><time>2026-03-22T12:13:06.38Z</time></trkpt><trkpt lat="43.206365" lon="12.9454733"><ele>994.8333333333334</ele><time>2026-03-22T12:13:08.419Z</time></trkpt><trkpt lat="43.20644" lon="12.9453467"><ele>993.0</ele><time>2026-03-22T12:13:10.375Z</time></trkpt><trkpt lat="43.2064833" lon="12.9452733"><ele>989.7142857142857</ele><time>2026-03-22T12:13:11.365Z</time></trkpt><trkpt lat="43.2065333" lon="12.9452"><ele>986.4285714285716</ele><time>2026-03-22T12:13:12.368Z</time></trkpt><trkpt lat="43.2065833" lon="12.945125"><ele>983.1428571428572</ele><time>2026-03-22T12:13:13.374Z</time></trkpt><trkpt lat="43.20663" lon="12.9450517"><ele>979.8571428571429</ele><time>2026-03-22T12:13:14.388Z</time></trkpt><trkpt lat="43.206675" lon="12.9449783"><ele>976.5714285714287</ele><time>2026-03-22T12:13:15.358Z</time></trkpt><trkpt lat="43.2067233" lon="12.9449033"><ele>973.2857142857144</ele><time>2026-03-22T12:13:16.358Z</time></trkpt><trkpt lat="43.206775" lon="12.9448217"><ele>970.0000000000001</ele><time>2026-03-22T12:13:17.39Z</time></trkpt><trkpt lat="43.206825" lon="12.9447383"><ele>970.0000000000001</ele><time>2026-03-22T12:13:18.386Z</time></trkpt><trkpt lat="43.2068733" lon="12.944655"><ele>970.0</ele><time>2026-03-22T12:13:19.362Z</time></trkpt><trkpt lat="43.20692" lon="12.9445717"><ele>970.0000000000001</ele><time>2026-03-22T12:13:20.423Z</time></trkpt><trkpt lat="43.206965" lon="12.9444883"><ele>970.0000000000001</ele><time>2026-03-22T12:13:21.389Z</time></trkpt><trkpt lat="43.2070083" lon="12.944405"><ele>970.0</ele><time>2026-03-22T12:13:22.379Z</time></trkpt><trkpt lat="43.207055" lon="12.9443267"><ele>970.0000000000001</ele><time>2026-03-22T12:13:23.385Z</time></trkpt><trkpt lat="43.2071" lon="12.9442533"><ele>970.0000000000001</ele><time>2026-03-22T12:13:24.384Z</time></trkpt><trkpt lat="43.2071433" lon="12.9441783"><ele>966.8333333333333</ele><time>2026-03-22T12:13:25.386Z</time></trkpt><trkpt lat="43.20719" lon="12.9441067"><ele>963.6666666666666</ele><time>2026-03-22T12:13:26.398Z</time></trkpt><trkpt lat="43.2072433" lon="12.9440483"><ele>960.5</ele><time>2026-03-22T12:13:27.388Z</time></trkpt><trkpt lat="43.2072967" lon="12.9439983"><ele>957.3333333333333</ele><time>2026-03-22T12:13:28.378Z</time></trkpt><trkpt lat="43.2073867" lon="12.9439033"><ele>954.1666666666666</ele><time>2026-03-22T12:13:30.383Z</time></trkpt><trkpt lat="43.20745" lon="12.9438367"><ele>951.0</ele><time>2026-03-22T12:13:32.442Z</time></trkpt><trkpt lat="43.2075067" lon="12.9437683"><ele>946.4</ele><time>2026-03-22T12:13:34.359Z</time></trkpt><trkpt lat="43.2075617" lon="12.94367"><ele>941.8</ele><time>2026-03-22T12:13:36.379Z</time></trkpt><trkpt lat="43.2076067" lon="12.9435667"><ele>937.1999999999999</ele><time>2026-03-22T12:13:38.417Z</time></trkpt><trkpt lat="43.20763" lon="12.9434717"><ele>932.5999999999999</ele><time>2026-03-22T12:13:40.364Z</time></trkpt><trkpt lat="43.2076117" lon="12.9433433"><ele>928.0</ele><time>2026-03-22T12:13:42.379Z</time></trkpt><trkpt lat="43.2075767" lon="12.94317"><ele>927.6666666666666</ele><time>2026-03-22T12:13:44.423Z</time></trkpt><trkpt lat="43.2075717" lon="12.943075"><ele>927.3333333333333</ele><time>2026-03-22T12:13:45.386Z</time></trkpt><trkpt lat="43.20758" lon="12.9429667"><ele>927.0</ele><time>2026-03-22T12:13:46.386Z</time></trkpt><trkpt lat="43.2076" lon="12.9428617"><ele>926.6666666666667</ele><time>2026-03-22T12:13:47.386Z</time></trkpt><trkpt lat="43.2076167" lon="12.942755"><ele>926.3333333333334</ele><time>2026-03-22T12:13:48.386Z</time></trkpt><trkpt lat="43.2076433" lon="12.9426567"><ele>926.0</ele><time>2026-03-22T12:13:49.386Z</time></trkpt><trkpt lat="43.2076767" lon="12.9425633"><ele>922.8333333333334</ele><time>2026-03-22T12:13:50.417Z</time></trkpt><trkpt lat="43.2077117" lon="12.94247"><ele>919.6666666666667</ele><time>2026-03-22T12:13:51.379Z</time></trkpt><trkpt lat="43.20775" lon="12.9423817"><ele>916.5</ele><time>2026-03-22T12:13:52.38Z</time></trkpt><trkpt lat="43.2077967" lon="12.9423033"><ele>913.3333333333333</ele><time>2026-03-22T12:13:53.398Z</time></trkpt><trkpt lat="43.2078417" lon="12.9422217"><ele>910.1666666666666</ele><time>2026-03-22T12:13:54.387Z</time></trkpt><trkpt lat="43.207885" lon="12.9421383"><ele>907.0</ele><time>2026-03-22T12:13:55.381Z</time></trkpt><trkpt lat="43.2079217" lon="12.9420483"><ele>906.9999999999999</ele><time>2026-03-22T12:13:56.439Z</time></trkpt><trkpt lat="43.2079617" lon="12.9419633"><ele>907.0</ele><time>2026-03-22T12:13:57.377Z</time></trkpt><trkpt lat="43.2080067" lon="12.9418867"><ele>907.0</ele><time>2026-03-22T12:13:58.381Z</time></trkpt><trkpt lat="43.2080467" lon="12.94181"><ele>907.0</ele><time>2026-03-22T12:13:59.374Z</time></trkpt><trkpt lat="43.208085" lon="12.9417367"><ele>906.9999999999999</ele><time>2026-03-22T12:14:00.375Z</time></trkpt><trkpt lat="43.2081417" lon="12.9415983"><ele>907.0</ele><time>2026-03-22T12:14:02.44Z</time></trkpt><trkpt lat="43.20818" lon="12.9414517"><ele>901.4999999999999</ele><time>2026-03-22T12:14:04.373Z</time></trkpt><trkpt lat="43.2082083" lon="12.9413333"><ele>896.0</ele><time>2026-03-22T12:14:06.385Z</time></trkpt><trkpt lat="43.2082433" lon="12.9412217"><ele>890.5</ele><time>2026-03-22T12:14:09.377Z</time></trkpt><trkpt lat="43.20828" lon="12.9411183"><ele>885.0</ele><time>2026-03-22T12:14:11.388Z</time></trkpt><trkpt lat="43.208335" lon="12.9410033"><ele>879.4999999999999</ele><time>2026-03-22T12:14:13.373Z</time></trkpt><trkpt lat="43.20837" lon="12.9409083"><ele>874.0</ele><time>2026-03-22T12:14:15.362Z</time></trkpt><trkpt lat="43.2084" lon="12.9408"><ele>871.0</ele><time>2026-03-22T12:14:17.36Z</time></trkpt><trkpt lat="43.2084367" lon="12.940665"><ele>868.0000000000001</ele><time>2026-03-22T12:14:19.38Z</time></trkpt><trkpt lat="43.20849" lon="12.940535"><ele>865.0000000000001</ele><time>2026-03-22T12:14:21.365Z</time></trkpt><trkpt lat="43.2085483" lon="12.940415"><ele>862.0</ele><time>2026-03-22T12:14:23.386Z</time></trkpt><trkpt lat="43.2086133" lon="12.9403233"><ele>859.0</ele><time>2026-03-22T12:14:25.384Z</time></trkpt><trkpt lat="43.208665" lon="12.94024"><ele>858.9999999999999</ele><time>2026-03-22T12:14:27.365Z</time></trkpt><trkpt lat="43.208705" lon="12.9401367"><ele>859.0</ele><time>2026-03-22T12:14:29.375Z</time></trkpt><trkpt lat="43.2087567" lon="12.9400367"><ele>859.0</ele><time>2026-03-22T12:14:31.385Z</time></trkpt><trkpt lat="43.2087817" lon="12.9399283"><ele>859.0</ele><time>2026-03-22T12:14:33.374Z</time></trkpt><trkpt lat="43.2088" lon="12.939825"><ele>858.9999999999999</ele><time>2026-03-22T12:14:35.361Z</time></trkpt><trkpt lat="43.208815" lon="12.9397383"><ele>859.0</ele><time>2026-03-22T12:14:37.379Z</time></trkpt><trkpt lat="43.2088483" lon="12.9396517"><ele>855.6666666666666</ele><time>2026-03-22T12:14:39.372Z</time></trkpt><trkpt lat="43.2089267" lon="12.9395483"><ele>852.3333333333333</ele><time>2026-03-22T12:14:41.381Z</time></trkpt><trkpt lat="43.20898" lon="12.9394817"><ele>849.0</ele><time>2026-03-22T12:14:42.359Z</time></trkpt><trkpt lat="43.20904" lon="12.9394033"><ele>845.6666666666667</ele><time>2026-03-22T12:14:43.364Z</time></trkpt><trkpt lat="43.2091017" lon="12.939315"><ele>842.3333333333334</ele><time>2026-03-22T12:14:44.416Z</time></trkpt><trkpt lat="43.2091583" lon="12.9392283"><ele>839.0</ele><time>2026-03-22T12:14:45.384Z</time></trkpt><trkpt lat="43.20921" lon="12.939145"><ele>832.8333333333334</ele><time>2026-03-22T12:14:46.382Z</time></trkpt><trkpt lat="43.2092667" lon="12.9390633"><ele>826.6666666666667</ele><time>2026-03-22T12:14:47.383Z</time></trkpt><trkpt lat="43.2093133" lon="12.9389883"><ele>820.5</ele><time>2026-03-22T12:14:48.386Z</time></trkpt><trkpt lat="43.2093633" lon="12.9389083"><ele>814.3333333333333</ele><time>2026-03-22T12:14:49.378Z</time></trkpt><trkpt lat="43.2094033" lon="12.9388333"><ele>808.1666666666666</ele><time>2026-03-22T12:14:50.425Z</time></trkpt><trkpt lat="43.20944" lon="12.93876"><ele>802.0</ele><time>2026-03-22T12:14:51.385Z</time></trkpt><trkpt lat="43.209495" lon="12.9386233"><ele>801.9999999999999</ele><time>2026-03-22T12:14:53.377Z</time></trkpt><trkpt lat="43.2095417" lon="12.9384817"><ele>802.0</ele><time>2026-03-22T12:14:55.384Z</time></trkpt><trkpt lat="43.20958" lon="12.9383383"><ele>802.0</ele><time>2026-03-22T12:14:57.377Z</time></trkpt><trkpt lat="43.209595" lon="12.93825"><ele>802.0</ele><time>2026-03-22T12:14:58.383Z</time></trkpt><trkpt lat="43.2095983" lon="12.9381483"><ele>801.9999999999999</ele><time>2026-03-22T12:14:59.385Z</time></trkpt><trkpt lat="43.2095817" lon="12.9380383"><ele>802.0</ele><time>2026-03-22T12:15:00.383Z</time></trkpt><trkpt lat="43.20956" lon="12.937935"><ele>799.4000000000001</ele><time>2026-03-22T12:15:01.381Z</time></trkpt><trkpt lat="43.2095433" lon="12.9378417"><ele>796.8000000000001</ele><time>2026-03-22T12:15:02.435Z</time></trkpt><trkpt lat="43.209525" lon="12.9376833"><ele>794.2</ele><time>2026-03-22T12:15:04.384Z</time></trkpt><trkpt lat="43.2094867" lon="12.9375217"><ele>791.6</ele><time>2026-03-22T12:15:06.384Z</time></trkpt><trkpt lat="43.2094333" lon="12.937395"><ele>789.0</ele><time>2026-03-22T12:15:08.423Z</time></trkpt><trkpt lat="43.2093783" lon="12.9372883"><ele>786.4000000000001</ele><time>2026-03-22T12:15:10.386Z</time></trkpt><trkpt lat="43.2093167" lon="12.9371783"><ele>783.8</ele><time>2026-03-22T12:15:12.387Z</time></trkpt><trkpt lat="43.2092517" lon="12.9370483"><ele>781.2</ele><time>2026-03-22T12:15:14.422Z</time></trkpt><trkpt lat="43.2092" lon="12.93695"><ele>778.5999999999999</ele><time>2026-03-22T12:15:16.383Z</time></trkpt><trkpt lat="43.209155" lon="12.936855"><ele>776.0</ele><time>2026-03-22T12:15:19.375Z</time></trkpt><trkpt lat="43.209115" lon="12.93674"><ele>775.0000000000001</ele><time>2026-03-22T12:15:22.363Z</time></trkpt><trkpt lat="43.2090817" lon="12.93664"><ele>774.0</ele><time>2026-03-22T12:15:24.365Z</time></trkpt><trkpt lat="43.2090417" lon="12.9365383"><ele>773.0</ele><time>2026-03-22T12:15:26.439Z</time></trkpt><trkpt lat="43.2089967" lon="12.9364517"><ele>772.0</ele><time>2026-03-22T12:15:28.378Z</time></trkpt><trkpt lat="43.2089533" lon="12.9363333"><ele>771.0000000000001</ele><time>2026-03-22T12:15:31.377Z</time></trkpt><trkpt lat="43.2089017" lon="12.93625"><ele>770.0</ele><time>2026-03-22T12:15:33.376Z</time></trkpt><trkpt lat="43.2088583" lon="12.9361533"><ele>770.0000000000001</ele><time>2026-03-22T12:15:35.359Z</time></trkpt><trkpt lat="43.2088033" lon="12.9360517"><ele>770.0</ele><time>2026-03-22T12:15:37.375Z</time></trkpt><trkpt lat="43.2087533" lon="12.9359633"><ele>770.0</ele><time>2026-03-22T12:15:39.374Z</time></trkpt><trkpt lat="43.2086883" lon="12.935885"><ele>770.0</ele><time>2026-03-22T12:15:41.373Z</time></trkpt><trkpt lat="43.2085917" lon="12.935795"><ele>770.0000000000001</ele><time>2026-03-22T12:15:43.383Z</time></trkpt><trkpt lat="43.2085317" lon="12.9357567"><ele>770.0</ele><time>2026-03-22T12:15:44.422Z</time></trkpt><trkpt lat="43.2084683" lon="12.9357233"><ele>767.1428571428571</ele><time>2026-03-22T12:15:45.383Z</time></trkpt><trkpt lat="43.2084033" lon="12.93571"><ele>764.2857142857142</ele><time>2026-03-22T12:15:46.383Z</time></trkpt><trkpt lat="43.208335" lon="12.9356883"><ele>761.4285714285714</ele><time>2026-03-22T12:15:47.383Z</time></trkpt><trkpt lat="43.2082667" lon="12.935655"><ele>758.5714285714286</ele><time>2026-03-22T12:15:48.384Z</time></trkpt><trkpt lat="43.2082017" lon="12.935615"><ele>755.7142857142857</ele><time>2026-03-22T12:15:49.382Z</time></trkpt><trkpt lat="43.20813" lon="12.935575"><ele>752.8571428571429</ele><time>2026-03-22T12:15:50.426Z</time></trkpt><trkpt lat="43.20806" lon="12.9355317"><ele>750.0</ele><time>2026-03-22T12:15:51.374Z</time></trkpt><trkpt lat="43.2079917" lon="12.9354967"><ele>750.0</ele><time>2026-03-22T12:15:52.369Z</time></trkpt><trkpt lat="43.20793" lon="12.9354633"><ele>750.0</ele><time>2026-03-22T12:15:53.363Z</time></trkpt><trkpt lat="43.207835" lon="12.93543"><ele>750.0</ele><time>2026-03-22T12:15:55.382Z</time></trkpt><trkpt lat="43.20786" lon="12.935315"><ele>750.0</ele><time>2026-03-22T12:15:59.385Z</time></trkpt><trkpt lat="43.2079367" lon="12.935235"><ele>750.0</ele><time>2026-03-22T12:16:01.36Z</time></trkpt><trkpt lat="43.20802" lon="12.935115"><ele>748.8333333333334</ele><time>2026-03-22T12:16:03.374Z</time></trkpt><trkpt lat="43.2080717" lon="12.93505"><ele>747.6666666666666</ele><time>2026-03-22T12:16:04.381Z</time></trkpt><trkpt lat="43.2081367" lon="12.934975"><ele>746.5</ele><time>2026-03-22T12:16:05.371Z</time></trkpt><trkpt lat="43.2082083" lon="12.9349067"><ele>745.3333333333333</ele><time>2026-03-22T12:16:06.384Z</time></trkpt><trkpt lat="43.20828" lon="12.9348333"><ele>744.1666666666666</ele><time>2026-03-22T12:16:07.391Z</time></trkpt><trkpt lat="43.2083533" lon="12.9347583"><ele>743.0</ele><time>2026-03-22T12:16:08.424Z</time></trkpt><trkpt lat="43.2084233" lon="12.934685"><ele>743.0</ele><time>2026-03-22T12:16:09.381Z</time></trkpt><trkpt lat="43.2085017" lon="12.9346233"><ele>743.0</ele><time>2026-03-22T12:16:10.384Z</time></trkpt><trkpt lat="43.2085733" lon="12.9345633"><ele>743.0</ele><time>2026-03-22T12:16:11.385Z</time></trkpt><trkpt lat="43.2086417" lon="12.9345083"><ele>743.0</ele><time>2026-03-22T12:16:12.385Z</time></trkpt><trkpt lat="43.2087367" lon="12.934415"><ele>743.0</ele><time>2026-03-22T12:16:14.419Z</time></trkpt><trkpt lat="43.2087983" lon="12.9343167"><ele>746.0</ele><time>2026-03-22T12:16:16.386Z</time></trkpt><trkpt lat="43.208865" lon="12.9341967"><ele>749.0</ele><time>2026-03-22T12:16:18.364Z</time></trkpt><trkpt lat="43.2089083" lon="12.9341167"><ele>752.0</ele><time>2026-03-22T12:16:19.372Z</time></trkpt><trkpt lat="43.20896" lon="12.934035"><ele>755.0</ele><time>2026-03-22T12:16:20.424Z</time></trkpt><trkpt lat="43.2090233" lon="12.9339517"><ele>758.0</ele><time>2026-03-22T12:16:21.387Z</time></trkpt><trkpt lat="43.20911" lon="12.9338633"><ele>758.0</ele><time>2026-03-22T12:16:22.386Z</time></trkpt><trkpt lat="43.20919" lon="12.933775"><ele>758.0</ele><time>2026-03-22T12:16:23.384Z</time></trkpt><trkpt lat="43.2092783" lon="12.9336883"><ele>758.0</ele><time>2026-03-22T12:16:24.381Z</time></trkpt><trkpt lat="43.2093867" lon="12.9335733"><ele>758.0</ele><time>2026-03-22T12:16:25.389Z</time></trkpt><trkpt lat="43.2095017" lon="12.93346"><ele>761.5</ele><time>2026-03-22T12:16:26.448Z</time></trkpt><trkpt lat="43.2096133" lon="12.9333483"><ele>765.0</ele><time>2026-03-22T12:16:27.36Z</time></trkpt><trkpt lat="43.2097117" lon="12.9332383"><ele>768.5</ele><time>2026-03-22T12:16:28.386Z</time></trkpt><trkpt lat="43.2098033" lon="12.9331217"><ele>772.0</ele><time>2026-03-22T12:16:29.384Z</time></trkpt><trkpt lat="43.2099017" lon="12.933"><ele>772.0</ele><time>2026-03-22T12:16:30.387Z</time></trkpt><trkpt lat="43.2100033" lon="12.9328783"><ele>772.0</ele><time>2026-03-22T12:16:31.382Z</time></trkpt><trkpt lat="43.210105" lon="12.932755"><ele>772.0</ele><time>2026-03-22T12:16:32.438Z</time></trkpt><trkpt lat="43.2102033" lon="12.9326317"><ele>772.0</ele><time>2026-03-22T12:16:33.381Z</time></trkpt><trkpt lat="43.2103" lon="12.9325233"><ele>774.25</ele><time>2026-03-22T12:16:34.388Z</time></trkpt><trkpt lat="43.21039" lon="12.9324183"><ele>776.5</ele><time>2026-03-22T12:16:35.383Z</time></trkpt><trkpt lat="43.210485" lon="12.9323133"><ele>778.75</ele><time>2026-03-22T12:16:36.363Z</time></trkpt><trkpt lat="43.2105717" lon="12.9321933"><ele>781.0</ele><time>2026-03-22T12:16:37.384Z</time></trkpt><trkpt lat="43.210655" lon="12.9320783"><ele>780.1999999999999</ele><time>2026-03-22T12:16:38.414Z</time></trkpt><trkpt lat="43.2107367" lon="12.9319667"><ele>779.4</ele><time>2026-03-22T12:16:39.379Z</time></trkpt><trkpt lat="43.21082" lon="12.9318667"><ele>778.6</ele><time>2026-03-22T12:16:40.381Z</time></trkpt><trkpt lat="43.2108933" lon="12.931765"><ele>777.8</ele><time>2026-03-22T12:16:41.382Z</time></trkpt><trkpt lat="43.2109683" lon="12.9316617"><ele>777.0</ele><time>2026-03-22T12:16:42.389Z</time></trkpt><trkpt lat="43.21104" lon="12.9315583"><ele>776.8333333333334</ele><time>2026-03-22T12:16:43.381Z</time></trkpt><trkpt lat="43.2111067" lon="12.93147"><ele>776.6666666666667</ele><time>2026-03-22T12:16:44.423Z</time></trkpt><trkpt lat="43.2111717" lon="12.93139"><ele>776.5</ele><time>2026-03-22T12:16:45.374Z</time></trkpt><trkpt lat="43.2112283" lon="12.93131"><ele>776.3333333333334</ele><time>2026-03-22T12:16:46.383Z</time></trkpt><trkpt lat="43.2112883" lon="12.9312367"><ele>776.1666666666667</ele><time>2026-03-22T12:16:47.386Z</time></trkpt><trkpt lat="43.2113433" lon="12.93117"><ele>776.0</ele><time>2026-03-22T12:16:48.383Z</time></trkpt><trkpt lat="43.2114" lon="12.9310917"><ele>776.0</ele><time>2026-03-22T12:16:49.382Z</time></trkpt><trkpt lat="43.2114617" lon="12.9310183"><ele>776.0</ele><time>2026-03-22T12:16:50.422Z</time></trkpt><trkpt lat="43.2115383" lon="12.9309367"><ele>776.0</ele><time>2026-03-22T12:16:51.383Z</time></trkpt><trkpt lat="43.2116233" lon="12.9308417"><ele>776.0</ele><time>2026-03-22T12:16:52.383Z</time></trkpt><trkpt lat="43.211725" lon="12.93073"><ele>776.0</ele><time>2026-03-22T12:16:53.384Z</time></trkpt><trkpt lat="43.2118183" lon="12.9306233"><ele>776.8</ele><time>2026-03-22T12:16:54.374Z</time></trkpt><trkpt lat="43.211905" lon="12.930525"><ele>777.5999999999999</ele><time>2026-03-22T12:16:55.385Z</time></trkpt><trkpt lat="43.2119783" lon="12.9304267"><ele>778.4</ele><time>2026-03-22T12:16:56.438Z</time></trkpt><trkpt lat="43.21205" lon="12.93033"><ele>779.2</ele><time>2026-03-22T12:16:57.378Z</time></trkpt><trkpt lat="43.2121317" lon="12.930235"><ele>780.0</ele><time>2026-03-22T12:16:58.384Z</time></trkpt><trkpt lat="43.2122183" lon="12.9301417"><ele>781.3333333333334</ele><time>2026-03-22T12:16:59.371Z</time></trkpt><trkpt lat="43.212295" lon="12.9300483"><ele>782.6666666666667</ele><time>2026-03-22T12:17:00.388Z</time></trkpt><trkpt lat="43.21236" lon="12.92996"><ele>784.0</ele><time>2026-03-22T12:17:01.384Z</time></trkpt><trkpt lat="43.212425" lon="12.92987"><ele>785.3333333333334</ele><time>2026-03-22T12:17:02.445Z</time></trkpt><trkpt lat="43.2124817" lon="12.9297833"><ele>786.6666666666667</ele><time>2026-03-22T12:17:03.379Z</time></trkpt><trkpt lat="43.2125267" lon="12.9297033"><ele>788.0</ele><time>2026-03-22T12:17:04.383Z</time></trkpt><trkpt lat="43.2125533" lon="12.9296167"><ele>788.3333333333334</ele><time>2026-03-22T12:17:05.386Z</time></trkpt><trkpt lat="43.2125583" lon="12.92952"><ele>788.6666666666667</ele><time>2026-03-22T12:17:06.379Z</time></trkpt><trkpt lat="43.2125517" lon="12.9294283"><ele>789.0</ele><time>2026-03-22T12:17:07.379Z</time></trkpt><trkpt lat="43.2125233" lon="12.92933"><ele>789.3333333333333</ele><time>2026-03-22T12:17:08.424Z</time></trkpt><trkpt lat="43.212485" lon="12.9292333"><ele>789.6666666666666</ele><time>2026-03-22T12:17:09.383Z</time></trkpt><trkpt lat="43.212435" lon="12.9291333"><ele>790.0</ele><time>2026-03-22T12:17:10.387Z</time></trkpt><trkpt lat="43.2123933" lon="12.929025"><ele>790.0</ele><time>2026-03-22T12:17:11.384Z</time></trkpt><trkpt lat="43.2123467" lon="12.9289033"><ele>790.0</ele><time>2026-03-22T12:17:12.383Z</time></trkpt><trkpt lat="43.21231" lon="12.9287867"><ele>790.0</ele><time>2026-03-22T12:17:13.387Z</time></trkpt><trkpt lat="43.2122633" lon="12.9286667"><ele>790.0</ele><time>2026-03-22T12:17:14.421Z</time></trkpt><trkpt lat="43.212215" lon="12.9285417"><ele>790.0</ele><time>2026-03-22T12:17:15.376Z</time></trkpt><trkpt lat="43.2121683" lon="12.9284133"><ele>789.2</ele><time>2026-03-22T12:17:16.379Z</time></trkpt><trkpt lat="43.2121333" lon="12.9283"><ele>788.4</ele><time>2026-03-22T12:17:17.387Z</time></trkpt><trkpt lat="43.2120933" lon="12.928205"><ele>787.5999999999999</ele><time>2026-03-22T12:17:18.385Z</time></trkpt><trkpt lat="43.2120267" lon="12.928075"><ele>786.8</ele><time>2026-03-22T12:17:20.42Z</time></trkpt><trkpt lat="43.211975" lon="12.9279083"><ele>786.0</ele><time>2026-03-22T12:17:22.385Z</time></trkpt><trkpt lat="43.211955" lon="12.9278133"><ele>786.0</ele><time>2026-03-22T12:17:23.383Z</time></trkpt><trkpt lat="43.211925" lon="12.9277167"><ele>786.0</ele><time>2026-03-22T12:17:24.387Z</time></trkpt><trkpt lat="43.2118933" lon="12.92762"><ele>786.0</ele><time>2026-03-22T12:17:25.384Z</time></trkpt><trkpt lat="43.2118683" lon="12.9275267"><ele>786.0</ele><time>2026-03-22T12:17:26.438Z</time></trkpt><trkpt lat="43.2118517" lon="12.9274417"><ele>786.0</ele><time>2026-03-22T12:17:27.378Z</time></trkpt><trkpt lat="43.2118433" lon="12.9272817"><ele>786.0</ele><time>2026-03-22T12:17:29.366Z</time></trkpt><trkpt lat="43.2118383" lon="12.927135"><ele>783.8333333333334</ele><time>2026-03-22T12:17:31.389Z</time></trkpt><trkpt lat="43.2118083" lon="12.9269767"><ele>781.6666666666667</ele><time>2026-03-22T12:17:33.378Z</time></trkpt><trkpt lat="43.21179" lon="12.9268833"><ele>779.5</ele><time>2026-03-22T12:17:34.382Z</time></trkpt><trkpt lat="43.2117883" lon="12.9267967"><ele>777.3333333333334</ele><time>2026-03-22T12:17:35.386Z</time></trkpt><trkpt lat="43.2117767" lon="12.9266933"><ele>775.1666666666667</ele><time>2026-03-22T12:17:36.385Z</time></trkpt><trkpt lat="43.2117533" lon="12.9265967"><ele>773.0</ele><time>2026-03-22T12:17:37.387Z</time></trkpt><trkpt lat="43.2117317" lon="12.9265067"><ele>770.7142857142857</ele><time>2026-03-22T12:17:38.404Z</time></trkpt><trkpt lat="43.211705" lon="12.9264117"><ele>768.4285714285713</ele><time>2026-03-22T12:17:39.373Z</time></trkpt><trkpt lat="43.211675" lon="12.9263183"><ele>766.1428571428571</ele><time>2026-03-22T12:17:40.376Z</time></trkpt><trkpt lat="43.2116517" lon="12.9262267"><ele>763.8571428571429</ele><time>2026-03-22T12:17:41.382Z</time></trkpt><trkpt lat="43.211635" lon="12.9261333"><ele>761.5714285714286</ele><time>2026-03-22T12:17:42.376Z</time></trkpt><trkpt lat="43.21163" lon="12.9260383"><ele>759.2857142857143</ele><time>2026-03-22T12:17:43.383Z</time></trkpt><trkpt lat="43.2116217" lon="12.9259433"><ele>757.0</ele><time>2026-03-22T12:17:44.423Z</time></trkpt><trkpt lat="43.2116033" lon="12.925855"><ele>754.1666666666667</ele><time>2026-03-22T12:17:45.386Z</time></trkpt><trkpt lat="43.2115733" lon="12.9257783"><ele>751.3333333333334</ele><time>2026-03-22T12:17:46.38Z</time></trkpt><trkpt lat="43.21154" lon="12.92569"><ele>748.5</ele><time>2026-03-22T12:17:47.355Z</time></trkpt><trkpt lat="43.2115033" lon="12.9256"><ele>745.6666666666666</ele><time>2026-03-22T12:17:48.385Z</time></trkpt><trkpt lat="43.21146" lon="12.9255083"><ele>742.8333333333333</ele><time>2026-03-22T12:17:49.381Z</time></trkpt><trkpt lat="43.2114117" lon="12.9254183"><ele>740.0</ele><time>2026-03-22T12:17:50.419Z</time></trkpt><trkpt lat="43.2113583" lon="12.925325"><ele>736.6</ele><time>2026-03-22T12:17:51.376Z</time></trkpt><trkpt lat="43.2113" lon="12.9252367"><ele>733.2</ele><time>2026-03-22T12:17:52.385Z</time></trkpt><trkpt lat="43.2112467" lon="12.92516"><ele>729.8</ele><time>2026-03-22T12:17:53.383Z</time></trkpt><trkpt lat="43.2112117" lon="12.9250767"><ele>726.4</ele><time>2026-03-22T12:17:54.384Z</time></trkpt><trkpt lat="43.2112" lon="12.9249233"><ele>723.0</ele><time>2026-03-22T12:17:56.439Z</time></trkpt><trkpt lat="43.2112617" lon="12.9247483"><ele>723.0</ele><time>2026-03-22T12:17:58.383Z</time></trkpt><trkpt lat="43.2113283" lon="12.924625"><ele>723.0</ele><time>2026-03-22T12:17:59.376Z</time></trkpt><trkpt lat="43.2113933" lon="12.9245267"><ele>723.0</ele><time>2026-03-22T12:18:00.367Z</time></trkpt><trkpt lat="43.2114583" lon="12.92444"><ele>723.0</ele><time>2026-03-22T12:18:01.388Z</time></trkpt><trkpt lat="43.211505" lon="12.9243617"><ele>723.0</ele><time>2026-03-22T12:18:02.439Z</time></trkpt><trkpt lat="43.2115367" lon="12.9242867"><ele>723.0</ele><time>2026-03-22T12:18:03.376Z</time></trkpt><trkpt lat="43.211555" lon="12.9241383"><ele>723.5999999999999</ele><time>2026-03-22T12:18:05.381Z</time></trkpt><trkpt lat="43.2115867" lon="12.923985"><ele>724.1999999999999</ele><time>2026-03-22T12:18:07.384Z</time></trkpt><trkpt lat="43.211615" lon="12.9238433"><ele>724.8</ele><time>2026-03-22T12:18:09.386Z</time></trkpt><trkpt lat="43.2115767" lon="12.92373"><ele>725.4</ele><time>2026-03-22T12:18:11.386Z</time></trkpt><trkpt lat="43.2114817" lon="12.9236783"><ele>726.0</ele><time>2026-03-22T12:18:13.365Z</time></trkpt><trkpt lat="43.2113517" lon="12.92365"><ele>729.1999999999999</ele><time>2026-03-22T12:18:15.357Z</time></trkpt><trkpt lat="43.2112733" lon="12.9236267"><ele>732.4</ele><time>2026-03-22T12:18:16.359Z</time></trkpt><trkpt lat="43.2111833" lon="12.9235933"><ele>735.6</ele><time>2026-03-22T12:18:17.376Z</time></trkpt><trkpt lat="43.2110867" lon="12.92354"><ele>738.8</ele><time>2026-03-22T12:18:18.376Z</time></trkpt><trkpt lat="43.2109783" lon="12.9234783"><ele>742.0</ele><time>2026-03-22T12:18:19.363Z</time></trkpt><trkpt lat="43.2108733" lon="12.9234067"><ele>745.2</ele><time>2026-03-22T12:18:20.407Z</time></trkpt><trkpt lat="43.2107767" lon="12.923335"><ele>748.4000000000001</ele><time>2026-03-22T12:18:21.375Z</time></trkpt><trkpt lat="43.2106817" lon="12.9232717"><ele>751.5999999999999</ele><time>2026-03-22T12:18:22.374Z</time></trkpt><trkpt lat="43.210605" lon="12.9232067"><ele>754.8</ele><time>2026-03-22T12:18:23.373Z</time></trkpt><trkpt lat="43.21053" lon="12.9231467"><ele>758.0</ele><time>2026-03-22T12:18:24.378Z</time></trkpt><trkpt lat="43.21045" lon="12.92309"><ele>760.1666666666666</ele><time>2026-03-22T12:18:25.376Z</time></trkpt><trkpt lat="43.2103733" lon="12.9230433"><ele>762.3333333333333</ele><time>2026-03-22T12:18:26.431Z</time></trkpt><trkpt lat="43.2103" lon="12.92299"><ele>764.5</ele><time>2026-03-22T12:18:27.374Z</time></trkpt><trkpt lat="43.21023" lon="12.922925"><ele>766.6666666666666</ele><time>2026-03-22T12:18:28.37Z</time></trkpt><trkpt lat="43.2101533" lon="12.92286"><ele>768.8333333333334</ele><time>2026-03-22T12:18:29.377Z</time></trkpt><trkpt lat="43.2100633" lon="12.9227883"><ele>771.0</ele><time>2026-03-22T12:18:30.379Z</time></trkpt><trkpt lat="43.2099567" lon="12.9227117"><ele>771.0</ele><time>2026-03-22T12:18:31.376Z</time></trkpt><trkpt lat="43.2098467" lon="12.922615"><ele>771.0</ele><time>2026-03-22T12:18:32.43Z</time></trkpt><trkpt lat="43.2097417" lon="12.922525"><ele>771.0</ele><time>2026-03-22T12:18:33.371Z</time></trkpt><trkpt lat="43.20964" lon="12.92245"><ele>771.0</ele><time>2026-03-22T12:18:34.373Z</time></trkpt><trkpt lat="43.209535" lon="12.9223767"><ele>774.0</ele><time>2026-03-22T12:18:35.376Z</time></trkpt><trkpt lat="43.20943" lon="12.9222917"><ele>777.0</ele><time>2026-03-22T12:18:36.378Z</time></trkpt><trkpt lat="43.2093183" lon="12.9222333"><ele>780.0</ele><time>2026-03-22T12:18:37.376Z</time></trkpt><trkpt lat="43.2092167" lon="12.9221783"><ele>783.0</ele><time>2026-03-22T12:18:38.414Z</time></trkpt><trkpt lat="43.2091233" lon="12.9221417"><ele>786.0</ele><time>2026-03-22T12:18:39.373Z</time></trkpt><trkpt lat="43.2090433" lon="12.9221183"><ele>787.3333333333334</ele><time>2026-03-22T12:18:40.374Z</time></trkpt><trkpt lat="43.2089817" lon="12.9220917"><ele>788.6666666666667</ele><time>2026-03-22T12:18:41.371Z</time></trkpt><trkpt lat="43.20892" lon="12.9220483"><ele>790.0</ele><time>2026-03-22T12:18:42.382Z</time></trkpt><trkpt lat="43.2088517" lon="12.921985"><ele>791.3333333333334</ele><time>2026-03-22T12:18:43.38Z</time></trkpt><trkpt lat="43.20879" lon="12.9219033"><ele>792.6666666666667</ele><time>2026-03-22T12:18:44.408Z</time></trkpt><trkpt lat="43.2087467" lon="12.9217967"><ele>794.0</ele><time>2026-03-22T12:18:45.376Z</time></trkpt><trkpt lat="43.2087083" lon="12.9216783"><ele>794.0</ele><time>2026-03-22T12:18:46.375Z</time></trkpt><trkpt lat="43.20868" lon="12.9215667"><ele>794.0</ele><time>2026-03-22T12:18:47.375Z</time></trkpt><trkpt lat="43.20868" lon="12.9214783"><ele>794.0</ele><time>2026-03-22T12:18:48.374Z</time></trkpt><trkpt lat="43.2087133" lon="12.9213483"><ele>794.0</ele><time>2026-03-22T12:18:50.419Z</time></trkpt><trkpt lat="43.2087883" lon="12.9212233"><ele>794.0</ele><time>2026-03-22T12:18:52.374Z</time></trkpt><trkpt lat="43.2088517" lon="12.9210767"><ele>794.0000000000001</ele><time>2026-03-22T12:18:54.362Z</time></trkpt><trkpt lat="43.2088833" lon="12.9209917"><ele>794.0</ele><time>2026-03-22T12:18:55.377Z</time></trkpt><trkpt lat="43.2089117" lon="12.9208967"><ele>794.0</ele><time>2026-03-22T12:18:56.429Z</time></trkpt><trkpt lat="43.208925" lon="12.9208117"><ele>794.0</ele><time>2026-03-22T12:18:57.369Z</time></trkpt><trkpt lat="43.2089383" lon="12.9206833"><ele>794.0000000000001</ele><time>2026-03-22T12:18:59.376Z</time></trkpt><trkpt lat="43.2089267" lon="12.920545"><ele>794.0</ele><time>2026-03-22T12:19:01.373Z</time></trkpt><trkpt lat="43.2089233" lon="12.9203667"><ele>798.8333333333334</ele><time>2026-03-22T12:19:03.366Z</time></trkpt><trkpt lat="43.2089217" lon="12.9202483"><ele>803.6666666666667</ele><time>2026-03-22T12:19:04.379Z</time></trkpt><trkpt lat="43.208925" lon="12.920105"><ele>808.5</ele><time>2026-03-22T12:19:05.378Z</time></trkpt><trkpt lat="43.2089333" lon="12.919975"><ele>813.3333333333333</ele><time>2026-03-22T12:19:06.374Z</time></trkpt><trkpt lat="43.2089433" lon="12.919855"><ele>818.1666666666666</ele><time>2026-03-22T12:19:07.357Z</time></trkpt><trkpt lat="43.2089417" lon="12.9197517"><ele>823.0</ele><time>2026-03-22T12:19:08.418Z</time></trkpt><trkpt lat="43.20894" lon="12.9196417"><ele>825.8333333333333</ele><time>2026-03-22T12:19:09.373Z</time></trkpt><trkpt lat="43.2089217" lon="12.9195367"><ele>828.6666666666666</ele><time>2026-03-22T12:19:10.373Z</time></trkpt><trkpt lat="43.2088983" lon="12.9194417"><ele>831.5</ele><time>2026-03-22T12:19:11.374Z</time></trkpt><trkpt lat="43.2088783" lon="12.9192783"><ele>834.3333333333333</ele><time>2026-03-22T12:19:13.372Z</time></trkpt><trkpt lat="43.2088733" lon="12.9191883"><ele>837.1666666666666</ele><time>2026-03-22T12:19:14.419Z</time></trkpt><trkpt lat="43.2088767" lon="12.91909"><ele>840.0</ele><time>2026-03-22T12:19:15.373Z</time></trkpt><trkpt lat="43.20891" lon="12.9189867"><ele>841.6</ele><time>2026-03-22T12:19:16.373Z</time></trkpt><trkpt lat="43.2089433" lon="12.91889"><ele>843.2</ele><time>2026-03-22T12:19:17.375Z</time></trkpt><trkpt lat="43.20898" lon="12.918785"><ele>844.8</ele><time>2026-03-22T12:19:18.373Z</time></trkpt><trkpt lat="43.2090233" lon="12.9186583"><ele>846.4</ele><time>2026-03-22T12:19:19.371Z</time></trkpt><trkpt lat="43.2090633" lon="12.91853"><ele>848.0</ele><time>2026-03-22T12:19:20.413Z</time></trkpt><trkpt lat="43.2090983" lon="12.9183983"><ele>843.4</ele><time>2026-03-22T12:19:21.374Z</time></trkpt><trkpt lat="43.2091233" lon="12.9182567"><ele>838.8</ele><time>2026-03-22T12:19:22.373Z</time></trkpt><trkpt lat="43.20914" lon="12.9181017"><ele>834.2</ele><time>2026-03-22T12:19:23.362Z</time></trkpt><trkpt lat="43.2091333" lon="12.9179517"><ele>829.6</ele><time>2026-03-22T12:19:24.361Z</time></trkpt><trkpt lat="43.2091167" lon="12.9178017"><ele>825.0</ele><time>2026-03-22T12:19:25.371Z</time></trkpt><trkpt lat="43.2091167" lon="12.9176733"><ele>824.8</ele><time>2026-03-22T12:19:26.431Z</time></trkpt><trkpt lat="43.2091133" lon="12.91756"><ele>824.6</ele><time>2026-03-22T12:19:27.376Z</time></trkpt><trkpt lat="43.2091167" lon="12.9174433"><ele>824.4000000000001</ele><time>2026-03-22T12:19:28.377Z</time></trkpt><trkpt lat="43.2091067" lon="12.9173233"><ele>824.2</ele><time>2026-03-22T12:19:29.374Z</time></trkpt><trkpt lat="43.20908" lon="12.9171967"><ele>824.0</ele><time>2026-03-22T12:19:30.38Z</time></trkpt><trkpt lat="43.2090333" lon="12.917035"><ele>834.3333333333334</ele><time>2026-03-22T12:19:31.374Z</time></trkpt><trkpt lat="43.2089817" lon="12.9168667"><ele>844.6666666666667</ele><time>2026-03-22T12:19:32.434Z</time></trkpt><trkpt lat="43.2088967" lon="12.916665"><ele>855.0</ele><time>2026-03-22T12:19:33.378Z</time></trkpt><trkpt lat="43.208805" lon="12.9164617"><ele>855.0</ele><time>2026-03-22T12:19:34.372Z</time></trkpt><trkpt lat="43.2087283" lon="12.9163"><ele>855.0</ele><time>2026-03-22T12:19:35.377Z</time></trkpt><trkpt lat="43.208655" lon="12.91616"><ele>855.0</ele><time>2026-03-22T12:19:36.374Z</time></trkpt><trkpt lat="43.2085967" lon="12.9160467"><ele>855.0</ele><time>2026-03-22T12:19:37.379Z</time></trkpt><trkpt lat="43.2085567" lon="12.9159433"><ele>855.1666666666666</ele><time>2026-03-22T12:19:38.42Z</time></trkpt><trkpt lat="43.2085283" lon="12.91584"><ele>855.3333333333333</ele><time>2026-03-22T12:19:39.378Z</time></trkpt><trkpt lat="43.20853" lon="12.9157417"><ele>855.5</ele><time>2026-03-22T12:19:40.367Z</time></trkpt><trkpt lat="43.208545" lon="12.9156483"><ele>855.6666666666666</ele><time>2026-03-22T12:19:41.379Z</time></trkpt><trkpt lat="43.2085783" lon="12.9155667"><ele>855.8333333333333</ele><time>2026-03-22T12:19:42.381Z</time></trkpt><trkpt lat="43.2086383" lon="12.91549"><ele>856.0</ele><time>2026-03-22T12:19:43.369Z</time></trkpt><trkpt lat="43.2087267" lon="12.9154267"><ele>856.0</ele><time>2026-03-22T12:19:44.416Z</time></trkpt><trkpt lat="43.2088167" lon="12.9153583"><ele>855.9999999999999</ele><time>2026-03-22T12:19:45.379Z</time></trkpt><trkpt lat="43.2088983" lon="12.915315"><ele>855.9999999999999</ele><time>2026-03-22T12:19:46.377Z</time></trkpt><trkpt lat="43.2089617" lon="12.9152583"><ele>856.0</ele><time>2026-03-22T12:19:47.383Z</time></trkpt><trkpt lat="43.2090267" lon="12.91515"><ele>856.0</ele><time>2026-03-22T12:19:49.38Z</time></trkpt><trkpt lat="43.2090167" lon="12.91502"><ele>857.8</ele><time>2026-03-22T12:19:51.369Z</time></trkpt><trkpt lat="43.2089567" lon="12.9148783"><ele>859.5999999999999</ele><time>2026-03-22T12:19:53.375Z</time></trkpt><trkpt lat="43.2089133" lon="12.9147867"><ele>861.4</ele><time>2026-03-22T12:19:54.378Z</time></trkpt><trkpt lat="43.2088717" lon="12.9146833"><ele>863.2</ele><time>2026-03-22T12:19:55.375Z</time></trkpt><trkpt lat="43.20883" lon="12.9145833"><ele>865.0</ele><time>2026-03-22T12:19:56.445Z</time></trkpt><trkpt lat="43.2087833" lon="12.9144833"><ele>864.9999999999999</ele><time>2026-03-22T12:19:57.371Z</time></trkpt><trkpt lat="43.2087317" lon="12.9143817"><ele>865.0</ele><time>2026-03-22T12:19:58.375Z</time></trkpt><trkpt lat="43.208685" lon="12.9142817"><ele>865.0</ele><time>2026-03-22T12:19:59.384Z</time></trkpt><trkpt lat="43.2086467" lon="12.91419"><ele>865.0</ele><time>2026-03-22T12:20:00.376Z</time></trkpt><trkpt lat="43.20859" lon="12.9141133"><ele>864.9999999999999</ele><time>2026-03-22T12:20:01.38Z</time></trkpt><trkpt lat="43.2085183" lon="12.9140333"><ele>865.0</ele><time>2026-03-22T12:20:02.436Z</time></trkpt><trkpt lat="43.2084333" lon="12.9139533"><ele>866.2</ele><time>2026-03-22T12:20:03.381Z</time></trkpt><trkpt lat="43.2083567" lon="12.91388"><ele>867.4</ele><time>2026-03-22T12:20:04.374Z</time></trkpt><trkpt lat="43.2082817" lon="12.9138083"><ele>868.5999999999999</ele><time>2026-03-22T12:20:05.375Z</time></trkpt><trkpt lat="43.2082083" lon="12.91373"><ele>869.8</ele><time>2026-03-22T12:20:06.374Z</time></trkpt><trkpt lat="43.20813" lon="12.9136367"><ele>871.0</ele><time>2026-03-22T12:20:07.37Z</time></trkpt><trkpt lat="43.2080417" lon="12.91355"><ele>872.1999999999999</ele><time>2026-03-22T12:20:08.422Z</time></trkpt><trkpt lat="43.2079433" lon="12.9134683"><ele>873.3999999999999</ele><time>2026-03-22T12:20:09.373Z</time></trkpt><trkpt lat="43.2078317" lon="12.9133917"><ele>874.6</ele><time>2026-03-22T12:20:10.381Z</time></trkpt><trkpt lat="43.20774" lon="12.9133183"><ele>875.8</ele><time>2026-03-22T12:20:11.377Z</time></trkpt><trkpt lat="43.207665" lon="12.9132583"><ele>877.0</ele><time>2026-03-22T12:20:12.368Z</time></trkpt><trkpt lat="43.2076133" lon="12.9132033"><ele>877.0</ele><time>2026-03-22T12:20:13.377Z</time></trkpt><trkpt lat="43.2076017" lon="12.9130733"><ele>877.0</ele><time>2026-03-22T12:20:15.386Z</time></trkpt><trkpt lat="43.20764" lon="12.91293"><ele>877.0</ele><time>2026-03-22T12:20:17.382Z</time></trkpt><trkpt lat="43.2076733" lon="12.91282"><ele>877.0</ele><time>2026-03-22T12:20:19.381Z</time></trkpt><trkpt lat="43.2077067" lon="12.9127267"><ele>877.0</ele><time>2026-03-22T12:20:22.371Z</time></trkpt><trkpt lat="43.2077533" lon="12.9126333"><ele>875.9999999999999</ele><time>2026-03-22T12:20:24.383Z</time></trkpt><trkpt lat="43.2078" lon="12.9125567"><ele>875.0</ele><time>2026-03-22T12:20:26.436Z</time></trkpt><trkpt lat="43.2078417" lon="12.9124483"><ele>874.0</ele><time>2026-03-22T12:21:08.418Z</time></trkpt><trkpt lat="43.207905" lon="12.912325"><ele>873.0</ele><time>2026-03-22T12:21:10.374Z</time></trkpt><trkpt lat="43.2079383" lon="12.9122383"><ele>871.9999999999999</ele><time>2026-03-22T12:21:11.365Z</time></trkpt><trkpt lat="43.2079767" lon="12.91215"><ele>871.0</ele><time>2026-03-22T12:21:12.386Z</time></trkpt><trkpt lat="43.2080217" lon="12.9120533"><ele>870.9999999999999</ele><time>2026-03-22T12:21:13.38Z</time></trkpt><trkpt lat="43.20807" lon="12.911945"><ele>871.0</ele><time>2026-03-22T12:21:14.411Z</time></trkpt><trkpt lat="43.2081133" lon="12.9118417"><ele>871.0</ele><time>2026-03-22T12:21:15.371Z</time></trkpt><trkpt lat="43.2081467" lon="12.9117483"><ele>871.0</ele><time>2026-03-22T12:21:16.376Z</time></trkpt><trkpt lat="43.20817" lon="12.9116667"><ele>870.9999999999999</ele><time>2026-03-22T12:21:17.372Z</time></trkpt><trkpt lat="43.208195" lon="12.911535"><ele>871.0</ele><time>2026-03-22T12:21:19.363Z</time></trkpt><trkpt lat="43.2081833" lon="12.911365"><ele>872.8333333333333</ele><time>2026-03-22T12:21:21.377Z</time></trkpt><trkpt lat="43.2081867" lon="12.9112667"><ele>874.6666666666666</ele><time>2026-03-22T12:21:22.374Z</time></trkpt><trkpt lat="43.208195" lon="12.9111717"><ele>876.5</ele><time>2026-03-22T12:21:23.38Z</time></trkpt><trkpt lat="43.2082383" lon="12.9110467"><ele>878.3333333333333</ele><time>2026-03-22T12:21:25.38Z</time></trkpt><trkpt lat="43.2082917" lon="12.9109417"><ele>880.1666666666666</ele><time>2026-03-22T12:21:27.363Z</time></trkpt><trkpt lat="43.2083533" lon="12.9108133"><ele>882.0</ele><time>2026-03-22T12:21:29.378Z</time></trkpt><trkpt lat="43.2084183" lon="12.91069"><ele>882.0</ele><time>2026-03-22T12:21:31.377Z</time></trkpt><trkpt lat="43.208455" lon="12.9106183"><ele>882.0</ele><time>2026-03-22T12:21:32.43Z</time></trkpt><trkpt lat="43.2084917" lon="12.9105417"><ele>882.0</ele><time>2026-03-22T12:21:33.374Z</time></trkpt><trkpt lat="43.2085583" lon="12.9104167"><ele>882.0</ele><time>2026-03-22T12:21:35.377Z</time></trkpt><trkpt lat="43.2086033" lon="12.910295"><ele>882.0</ele><time>2026-03-22T12:21:37.373Z</time></trkpt><trkpt lat="43.208635" lon="12.9102133"><ele>882.0</ele><time>2026-03-22T12:21:38.419Z</time></trkpt><trkpt lat="43.2086817" lon="12.9101433"><ele>882.0</ele><time>2026-03-22T12:21:39.39Z</time></trkpt><trkpt lat="43.20873" lon="12.9100833"><ele>882.0</ele><time>2026-03-22T12:21:40.376Z</time></trkpt><trkpt lat="43.2087833" lon="12.9100167"><ele>882.0</ele><time>2026-03-22T12:21:41.374Z</time></trkpt><trkpt lat="43.2088417" lon="12.909935"><ele>882.0</ele><time>2026-03-22T12:21:42.372Z</time></trkpt><trkpt lat="43.2088967" lon="12.909855"><ele>882.0</ele><time>2026-03-22T12:21:43.376Z</time></trkpt><trkpt lat="43.20894" lon="12.9097883"><ele>882.0</ele><time>2026-03-22T12:21:44.415Z</time></trkpt><trkpt lat="43.2090067" lon="12.909695"><ele>879.0</ele><time>2026-03-22T12:21:46.373Z</time></trkpt><trkpt lat="43.2089583" lon="12.90961"><ele>876.0</ele><time>2026-03-22T12:21:48.38Z</time></trkpt><trkpt lat="43.2089083" lon="12.9094983"><ele>873.0</ele><time>2026-03-22T12:21:50.421Z</time></trkpt><trkpt lat="43.2089117" lon="12.909325"><ele>870.0</ele><time>2026-03-22T12:21:52.378Z</time></trkpt><trkpt lat="43.2089483" lon="12.90918"><ele>867.0</ele><time>2026-03-22T12:21:54.382Z</time></trkpt><trkpt lat="43.2089783" lon="12.9090567"><ele>865.5</ele><time>2026-03-22T12:21:56.416Z</time></trkpt><trkpt lat="43.2089833" lon="12.90891"><ele>864.0</ele><time>2026-03-22T12:21:58.374Z</time></trkpt><trkpt lat="43.2089867" lon="12.9088217"><ele>862.5</ele><time>2026-03-22T12:21:59.378Z</time></trkpt><trkpt lat="43.209" lon="12.9087283"><ele>861.0</ele><time>2026-03-22T12:22:00.378Z</time></trkpt><trkpt lat="43.209015" lon="12.908625"><ele>859.5</ele><time>2026-03-22T12:22:01.375Z</time></trkpt><trkpt lat="43.20903" lon="12.908525"><ele>858.0</ele><time>2026-03-22T12:22:02.428Z</time></trkpt><trkpt lat="43.209055" lon="12.908375"><ele>866.0</ele><time>2026-03-22T12:22:04.377Z</time></trkpt><trkpt lat="43.20908" lon="12.908225"><ele>874.0</ele><time>2026-03-22T12:22:07.364Z</time></trkpt><trkpt lat="43.2091033" lon="12.9081217"><ele>882.0</ele><time>2026-03-22T12:22:08.415Z</time></trkpt><trkpt lat="43.2091367" lon="12.9080117"><ele>890.0</ele><time>2026-03-22T12:22:09.377Z</time></trkpt><trkpt lat="43.2091683" lon="12.9079083"><ele>898.0</ele><time>2026-03-22T12:22:10.378Z</time></trkpt><trkpt lat="43.2091833" lon="12.90782"><ele>906.0</ele><time>2026-03-22T12:22:11.372Z</time></trkpt><trkpt lat="43.2092067" lon="12.907675"><ele>906.0</ele><time>2026-03-22T12:22:13.376Z</time></trkpt><trkpt lat="43.2092317" lon="12.9075867"><ele>905.9999999999999</ele><time>2026-03-22T12:22:15.36Z</time></trkpt><trkpt lat="43.2092417" lon="12.9074783"><ele>905.9999999999999</ele><time>2026-03-22T12:22:18.377Z</time></trkpt><trkpt lat="43.209245" lon="12.9073117"><ele>906.0</ele><time>2026-03-22T12:22:47.38Z</time></trkpt><trkpt lat="43.2092583" lon="12.9071867"><ele>906.0</ele><time>2026-03-22T12:22:49.379Z</time></trkpt><trkpt lat="43.2092767" lon="12.907035"><ele>906.0</ele><time>2026-03-22T12:22:51.373Z</time></trkpt><trkpt lat="43.2093033" lon="12.9069133"><ele>905.9999999999999</ele><time>2026-03-22T12:22:53.384Z</time></trkpt><trkpt lat="43.2092783" lon="12.9067717"><ele>905.9999999999999</ele><time>2026-03-22T12:23:49.366Z</time></trkpt><trkpt lat="43.2092817" lon="12.90668"><ele>906.0</ele><time>2026-03-22T12:23:52.382Z</time></trkpt><trkpt lat="43.209245" lon="12.9064967"><ele>906.0</ele><time>2026-03-22T12:25:13.371Z</time></trkpt><trkpt lat="43.2092733" lon="12.9063833"><ele>906.0</ele><time>2026-03-22T12:25:57.364Z</time></trkpt><trkpt lat="43.20928" lon="12.906275"><ele>905.9999999999999</ele><time>2026-03-22T12:25:59.381Z</time></trkpt><trkpt lat="43.2092667" lon="12.90614"><ele>905.9999999999999</ele><time>2026-03-22T12:26:01.376Z</time></trkpt><trkpt lat="43.2092517" lon="12.906"><ele>906.0</ele><time>2026-03-22T12:26:03.385Z</time></trkpt><trkpt lat="43.2092567" lon="12.9058917"><ele>906.0</ele><time>2026-03-22T12:26:05.36Z</time></trkpt><trkpt lat="43.209275" lon="12.9057717"><ele>908.0</ele><time>2026-03-22T12:26:07.376Z</time></trkpt><trkpt lat="43.2093083" lon="12.905665"><ele>910.0</ele><time>2026-03-22T12:26:09.369Z</time></trkpt><trkpt lat="43.209345" lon="12.9055667"><ele>912.0</ele><time>2026-03-22T12:26:11.371Z</time></trkpt><trkpt lat="43.209365" lon="12.905475"><ele>914.0</ele><time>2026-03-22T12:26:13.372Z</time></trkpt><trkpt lat="43.20936" lon="12.9053517"><ele>916.0</ele><time>2026-03-22T12:26:16.379Z</time></trkpt><trkpt lat="43.2093233" lon="12.9052383"><ele>918.0</ele><time>2026-03-22T12:26:18.382Z</time></trkpt><trkpt lat="43.20929" lon="12.90507"><ele>921.1666666666666</ele><time>2026-03-22T12:26:20.427Z</time></trkpt><trkpt lat="43.20927" lon="12.90498"><ele>924.3333333333333</ele><time>2026-03-22T12:26:21.398Z</time></trkpt><trkpt lat="43.20924" lon="12.9048983"><ele>927.5</ele><time>2026-03-22T12:26:22.387Z</time></trkpt><trkpt lat="43.209195" lon="12.9048133"><ele>930.6666666666666</ele><time>2026-03-22T12:26:23.386Z</time></trkpt><trkpt lat="43.20915" lon="12.904745"><ele>933.8333333333333</ele><time>2026-03-22T12:26:24.389Z</time></trkpt><trkpt lat="43.2090833" lon="12.904625"><ele>937.0</ele><time>2026-03-22T12:26:26.448Z</time></trkpt><trkpt lat="43.2090517" lon="12.904545"><ele>937.0</ele><time>2026-03-22T12:26:28.374Z</time></trkpt><trkpt lat="43.20901" lon="12.90448"><ele>937.0</ele><time>2026-03-22T12:26:33.358Z</time></trkpt><trkpt lat="43.2089433" lon="12.9044183"><ele>937.0</ele><time>2026-03-22T12:26:36.382Z</time></trkpt><trkpt lat="43.208825" lon="12.9043583"><ele>937.0</ele><time>2026-03-22T12:26:38.424Z</time></trkpt><trkpt lat="43.208725" lon="12.9043317"><ele>937.0</ele><time>2026-03-22T12:26:39.381Z</time></trkpt><trkpt lat="43.2086333" lon="12.9043117"><ele>931.4999999999999</ele><time>2026-03-22T12:26:40.379Z</time></trkpt><trkpt lat="43.20855" lon="12.904305"><ele>926.0</ele><time>2026-03-22T12:26:41.365Z</time></trkpt><trkpt lat="43.20848" lon="12.904295"><ele>920.5</ele><time>2026-03-22T12:26:42.374Z</time></trkpt><trkpt lat="43.20841" lon="12.90429"><ele>915.0</ele><time>2026-03-22T12:26:43.389Z</time></trkpt><trkpt lat="43.2083233" lon="12.9042983"><ele>909.4999999999999</ele><time>2026-03-22T12:26:44.434Z</time></trkpt><trkpt lat="43.208245" lon="12.9042833"><ele>904.0</ele><time>2026-03-22T12:26:45.385Z</time></trkpt><trkpt lat="43.208165" lon="12.904255"><ele>910.1666666666666</ele><time>2026-03-22T12:26:46.385Z</time></trkpt><trkpt lat="43.2080717" lon="12.90422"><ele>916.3333333333333</ele><time>2026-03-22T12:26:47.387Z</time></trkpt><trkpt lat="43.2079883" lon="12.90418"><ele>922.5</ele><time>2026-03-22T12:26:48.391Z</time></trkpt><trkpt lat="43.2079083" lon="12.9041467"><ele>928.6666666666667</ele><time>2026-03-22T12:26:49.374Z</time></trkpt><trkpt lat="43.2078317" lon="12.9041117"><ele>934.8333333333334</ele><time>2026-03-22T12:26:50.418Z</time></trkpt><trkpt lat="43.20775" lon="12.9040783"><ele>941.0</ele><time>2026-03-22T12:26:51.38Z</time></trkpt><trkpt lat="43.2076567" lon="12.9040333"><ele>941.0</ele><time>2026-03-22T12:26:52.385Z</time></trkpt><trkpt lat="43.2075633" lon="12.90398"><ele>940.9999999999999</ele><time>2026-03-22T12:26:53.383Z</time></trkpt><trkpt lat="43.207475" lon="12.90392"><ele>940.9999999999999</ele><time>2026-03-22T12:26:54.389Z</time></trkpt><trkpt lat="43.2073833" lon="12.9038717"><ele>941.0</ele><time>2026-03-22T12:26:55.383Z</time></trkpt><trkpt lat="43.207305" lon="12.903835"><ele>941.0</ele><time>2026-03-22T12:26:56.447Z</time></trkpt><trkpt lat="43.2071983" lon="12.9038033"><ele>939.8333333333334</ele><time>2026-03-22T12:26:58.385Z</time></trkpt><trkpt lat="43.2070867" lon="12.9037883"><ele>938.6666666666667</ele><time>2026-03-22T12:27:00.392Z</time></trkpt><trkpt lat="43.2070133" lon="12.9037883"><ele>937.5</ele><time>2026-03-22T12:27:01.388Z</time></trkpt><trkpt lat="43.2069417" lon="12.9037833"><ele>936.3333333333333</ele><time>2026-03-22T12:27:02.429Z</time></trkpt><trkpt lat="43.2068633" lon="12.9037783"><ele>935.1666666666666</ele><time>2026-03-22T12:27:03.376Z</time></trkpt><trkpt lat="43.2067967" lon="12.90378"><ele>934.0</ele><time>2026-03-22T12:27:04.384Z</time></trkpt><trkpt lat="43.2066933" lon="12.9037917"><ele>933.9999999999999</ele><time>2026-03-22T12:27:06.385Z</time></trkpt><trkpt lat="43.2066217" lon="12.9037867"><ele>934.0</ele><time>2026-03-22T12:27:08.42Z</time></trkpt><trkpt lat="43.2065517" lon="12.903775"><ele>934.0</ele><time>2026-03-22T12:27:10.362Z</time></trkpt><trkpt lat="43.206465" lon="12.90375"><ele>934.0</ele><time>2026-03-22T12:27:12.382Z</time></trkpt><trkpt lat="43.2063767" lon="12.9036667"><ele>933.9999999999999</ele><time>2026-03-22T12:27:14.418Z</time></trkpt><trkpt lat="43.20632" lon="12.9035417"><ele>934.0</ele><time>2026-03-22T12:27:16.383Z</time></trkpt><trkpt lat="43.20629" lon="12.9033867"><ele>935.6</ele><time>2026-03-22T12:27:18.391Z</time></trkpt><trkpt lat="43.2062783" lon="12.9032983"><ele>937.2</ele><time>2026-03-22T12:27:19.386Z</time></trkpt><trkpt lat="43.2062533" lon="12.9031383"><ele>938.8000000000001</ele><time>2026-03-22T12:27:21.388Z</time></trkpt><trkpt lat="43.206225" lon="12.9030167"><ele>940.4000000000001</ele><time>2026-03-22T12:27:23.39Z</time></trkpt><trkpt lat="43.2061617" lon="12.9029617"><ele>942.0</ele><time>2026-03-22T12:27:25.365Z</time></trkpt><trkpt lat="43.20602" lon="12.9029267"><ele>942.0</ele><time>2026-03-22T12:34:10.376Z</time></trkpt><trkpt lat="43.20608" lon="12.9028217"><ele>942.0</ele><time>2026-03-22T12:34:52.376Z</time></trkpt><trkpt lat="43.20612" lon="12.902725"><ele>942.0</ele><time>2026-03-22T12:34:53.377Z</time></trkpt><trkpt lat="43.2061783" lon="12.9025967"><ele>942.0</ele><time>2026-03-22T12:34:54.387Z</time></trkpt><trkpt lat="43.20624" lon="12.90246"><ele>942.0</ele><time>2026-03-22T12:34:55.39Z</time></trkpt><trkpt lat="43.206305" lon="12.9023233"><ele>943.5</ele><time>2026-03-22T12:34:56.448Z</time></trkpt><trkpt lat="43.2063683" lon="12.9021817"><ele>945.0</ele><time>2026-03-22T12:34:57.386Z</time></trkpt><trkpt lat="43.2064333" lon="12.902035"><ele>946.5</ele><time>2026-03-22T12:34:58.38Z</time></trkpt><trkpt lat="43.2065" lon="12.901875"><ele>948.0</ele><time>2026-03-22T12:34:59.386Z</time></trkpt><trkpt lat="43.206565" lon="12.9017017"><ele>953.6666666666667</ele><time>2026-03-22T12:35:00.383Z</time></trkpt><trkpt lat="43.20663" lon="12.9015167"><ele>959.3333333333334</ele><time>2026-03-22T12:35:01.383Z</time></trkpt><trkpt lat="43.2067033" lon="12.90132"><ele>965.0</ele><time>2026-03-22T12:35:02.429Z</time></trkpt><trkpt lat="43.20679" lon="12.9011117"><ele>966.0</ele><time>2026-03-22T12:35:03.368Z</time></trkpt><trkpt lat="43.2068767" lon="12.9009083"><ele>967.0</ele><time>2026-03-22T12:35:04.385Z</time></trkpt><trkpt lat="43.2069617" lon="12.9006983"><ele>968.0</ele><time>2026-03-22T12:35:05.36Z</time></trkpt><trkpt lat="43.2070483" lon="12.9004817"><ele>968.0</ele><time>2026-03-22T12:35:06.366Z</time></trkpt><trkpt lat="43.2071417" lon="12.9002633"><ele>968.0</ele><time>2026-03-22T12:35:07.362Z</time></trkpt><trkpt lat="43.2072317" lon="12.9000417"><ele>968.0</ele><time>2026-03-22T12:35:08.433Z</time></trkpt><trkpt lat="43.2073267" lon="12.8998283"><ele>977.3333333333334</ele><time>2026-03-22T12:35:09.378Z</time></trkpt><trkpt lat="43.207415" lon="12.8996117"><ele>986.6666666666667</ele><time>2026-03-22T12:35:10.384Z</time></trkpt><trkpt lat="43.2074983" lon="12.8994133"><ele>996.0</ele><time>2026-03-22T12:35:11.384Z</time></trkpt><trkpt lat="43.2075867" lon="12.899255"><ele>993.75</ele><time>2026-03-22T12:35:12.386Z</time></trkpt><trkpt lat="43.207695" lon="12.8991433"><ele>991.5</ele><time>2026-03-22T12:35:13.387Z</time></trkpt><trkpt lat="43.2078217" lon="12.899045"><ele>989.25</ele><time>2026-03-22T12:35:14.432Z</time></trkpt><trkpt lat="43.207955" lon="12.898965"><ele>987.0</ele><time>2026-03-22T12:35:15.376Z</time></trkpt><trkpt lat="43.20808" lon="12.8988917"><ele>996.3333333333333</ele><time>2026-03-22T12:35:16.384Z</time></trkpt><trkpt lat="43.208215" lon="12.8988183"><ele>1005.6666666666666</ele><time>2026-03-22T12:35:17.384Z</time></trkpt><trkpt lat="43.2083567" lon="12.8987567"><ele>1015.0</ele><time>2026-03-22T12:35:18.387Z</time></trkpt><trkpt lat="43.2085083" lon="12.898695"><ele>1015.0</ele><time>2026-03-22T12:35:19.388Z</time></trkpt><trkpt lat="43.20866" lon="12.8986367"><ele>1015.0</ele><time>2026-03-22T12:35:20.425Z</time></trkpt><trkpt lat="43.20881" lon="12.8985783"><ele>1015.0</ele><time>2026-03-22T12:35:21.372Z</time></trkpt><trkpt lat="43.2089667" lon="12.8985333"><ele>1019.6666666666666</ele><time>2026-03-22T12:35:22.386Z</time></trkpt><trkpt lat="43.2091283" lon="12.8985067"><ele>1024.3333333333333</ele><time>2026-03-22T12:35:23.387Z</time></trkpt><trkpt lat="43.2092883" lon="12.8984933"><ele>1029.0</ele><time>2026-03-22T12:35:24.389Z</time></trkpt><trkpt lat="43.20944" lon="12.898485"><ele>1029.0</ele><time>2026-03-22T12:35:25.388Z</time></trkpt><trkpt lat="43.2095717" lon="12.8984917"><ele>1029.0</ele><time>2026-03-22T12:35:26.447Z</time></trkpt><trkpt lat="43.2096833" lon="12.8984983"><ele>1029.0</ele><time>2026-03-22T12:35:27.379Z</time></trkpt><trkpt lat="43.20978" lon="12.89849"><ele>1029.0</ele><time>2026-03-22T12:35:28.387Z</time></trkpt><trkpt lat="43.2098733" lon="12.8984533"><ele>1029.0</ele><time>2026-03-22T12:35:29.379Z</time></trkpt><trkpt lat="43.2099167" lon="12.89838"><ele>1025.6666666666667</ele><time>2026-03-22T12:35:30.387Z</time></trkpt><trkpt lat="43.2099417" lon="12.8982883"><ele>1022.3333333333333</ele><time>2026-03-22T12:35:31.384Z</time></trkpt><trkpt lat="43.209955" lon="12.898175"><ele>1019.0</ele><time>2026-03-22T12:35:32.435Z</time></trkpt><trkpt lat="43.2099583" lon="12.89804"><ele>1015.6666666666666</ele><time>2026-03-22T12:35:33.367Z</time></trkpt><trkpt lat="43.2099617" lon="12.897925"><ele>1012.3333333333333</ele><time>2026-03-22T12:35:34.385Z</time></trkpt><trkpt lat="43.209955" lon="12.8978317"><ele>1009.0</ele><time>2026-03-22T12:35:35.387Z</time></trkpt><trkpt lat="43.2099267" lon="12.8977317"><ele>1009.0</ele><time>2026-03-22T12:35:36.388Z</time></trkpt><trkpt lat="43.2099017" lon="12.897635"><ele>1009.0</ele><time>2026-03-22T12:35:37.386Z</time></trkpt><trkpt lat="43.209885" lon="12.89754"><ele>1009.0</ele><time>2026-03-22T12:35:38.435Z</time></trkpt><trkpt lat="43.2098617" lon="12.8974483"><ele>1009.0</ele><time>2026-03-22T12:35:39.381Z</time></trkpt><trkpt lat="43.2098233" lon="12.8973767"><ele>1009.0</ele><time>2026-03-22T12:35:40.38Z</time></trkpt><trkpt lat="43.2097733" lon="12.897305"><ele>1009.0</ele><time>2026-03-22T12:35:41.388Z</time></trkpt><trkpt lat="43.2097067" lon="12.89723"><ele>1009.0</ele><time>2026-03-22T12:35:42.383Z</time></trkpt><trkpt lat="43.2096383" lon="12.897145"><ele>1009.8333333333333</ele><time>2026-03-22T12:35:43.387Z</time></trkpt><trkpt lat="43.2095767" lon="12.8970617"><ele>1010.6666666666666</ele><time>2026-03-22T12:35:44.433Z</time></trkpt><trkpt lat="43.20952" lon="12.896975"><ele>1011.5</ele><time>2026-03-22T12:35:45.384Z</time></trkpt><trkpt lat="43.2094817" lon="12.89689"><ele>1012.3333333333333</ele><time>2026-03-22T12:35:46.386Z</time></trkpt><trkpt lat="43.2094583" lon="12.896805"><ele>1013.1666666666666</ele><time>2026-03-22T12:35:47.385Z</time></trkpt><trkpt lat="43.2094367" lon="12.896645"><ele>1014.0</ele><time>2026-03-22T12:35:49.385Z</time></trkpt><trkpt lat="43.2094067" lon="12.8965617"><ele>1014.0</ele><time>2026-03-22T12:35:50.438Z</time></trkpt><trkpt lat="43.2093683" lon="12.8964667"><ele>1014.0000000000001</ele><time>2026-03-22T12:35:51.377Z</time></trkpt><trkpt lat="43.209325" lon="12.8963717"><ele>1014.0000000000001</ele><time>2026-03-22T12:35:52.381Z</time></trkpt><trkpt lat="43.209275" lon="12.8962767"><ele>1014.0</ele><time>2026-03-22T12:35:53.386Z</time></trkpt><trkpt lat="43.2092183" lon="12.8961533"><ele>1014.0</ele><time>2026-03-22T12:35:54.386Z</time></trkpt><trkpt lat="43.2091583" lon="12.8960367"><ele>1016.5</ele><time>2026-03-22T12:35:55.383Z</time></trkpt><trkpt lat="43.209095" lon="12.8959133"><ele>1019.0</ele><time>2026-03-22T12:35:56.423Z</time></trkpt><trkpt lat="43.20903" lon="12.8957867"><ele>1021.5</ele><time>2026-03-22T12:35:57.386Z</time></trkpt><trkpt lat="43.2089667" lon="12.8956533"><ele>1024.0</ele><time>2026-03-22T12:35:58.383Z</time></trkpt><trkpt lat="43.2089017" lon="12.8955117"><ele>1024.0</ele><time>2026-03-22T12:35:59.39Z</time></trkpt><trkpt lat="43.2088367" lon="12.895375"><ele>1024.0</ele><time>2026-03-22T12:36:00.381Z</time></trkpt><trkpt lat="43.2087733" lon="12.8952467"><ele>1024.0</ele><time>2026-03-22T12:36:01.386Z</time></trkpt><trkpt lat="43.2087217" lon="12.895125"><ele>1024.0</ele><time>2026-03-22T12:36:02.428Z</time></trkpt><trkpt lat="43.2086767" lon="12.89501"><ele>1024.0</ele><time>2026-03-22T12:36:03.384Z</time></trkpt><trkpt lat="43.208635" lon="12.8949033"><ele>1029.0</ele><time>2026-03-22T12:36:04.389Z</time></trkpt><trkpt lat="43.208605" lon="12.8948083"><ele>1034.0</ele><time>2026-03-22T12:36:05.377Z</time></trkpt><trkpt lat="43.2085883" lon="12.8947167"><ele>1039.0</ele><time>2026-03-22T12:36:06.388Z</time></trkpt><trkpt lat="43.2085783" lon="12.89455"><ele>1044.0</ele><time>2026-03-22T12:36:08.405Z</time></trkpt><trkpt lat="43.2085917" lon="12.8944317"><ele>1049.0</ele><time>2026-03-22T12:36:10.386Z</time></trkpt><trkpt lat="43.2086483" lon="12.8943367"><ele>1054.0</ele><time>2026-03-22T12:36:12.382Z</time></trkpt><trkpt lat="43.2087267" lon="12.8942533"><ele>1058.3333333333333</ele><time>2026-03-22T12:36:14.433Z</time></trkpt><trkpt lat="43.2087883" lon="12.894185"><ele>1062.6666666666665</ele><time>2026-03-22T12:36:16.381Z</time></trkpt><trkpt lat="43.2088483" lon="12.8940967"><ele>1067.0</ele><time>2026-03-22T12:36:18.366Z</time></trkpt><trkpt lat="43.208895" lon="12.8939883"><ele>1071.3333333333333</ele><time>2026-03-22T12:36:20.422Z</time></trkpt><trkpt lat="43.208915" lon="12.8938767"><ele>1075.6666666666667</ele><time>2026-03-22T12:36:22.377Z</time></trkpt><trkpt lat="43.208935" lon="12.8937617"><ele>1080.0</ele><time>2026-03-22T12:36:24.379Z</time></trkpt><trkpt lat="43.2089183" lon="12.8936217"><ele>1080.0</ele><time>2026-03-22T12:36:26.443Z</time></trkpt><trkpt lat="43.208885" lon="12.893505"><ele>1080.0</ele><time>2026-03-22T12:36:28.383Z</time></trkpt><trkpt lat="43.2088567" lon="12.89335"><ele>1080.0</ele><time>2026-03-22T12:36:30.371Z</time></trkpt><trkpt lat="43.20883" lon="12.8932217"><ele>1080.0</ele><time>2026-03-22T12:36:32.426Z</time></trkpt><trkpt lat="43.2087883" lon="12.893125"><ele>1080.0</ele><time>2026-03-22T12:36:34.365Z</time></trkpt><trkpt lat="43.20875" lon="12.8930133"><ele>1082.8333333333333</ele><time>2026-03-22T12:36:36.382Z</time></trkpt><trkpt lat="43.208715" lon="12.8929317"><ele>1085.6666666666667</ele><time>2026-03-22T12:36:38.421Z</time></trkpt><trkpt lat="43.2086883" lon="12.8928433"><ele>1088.5</ele><time>2026-03-22T12:36:40.377Z</time></trkpt><trkpt lat="43.2086467" lon="12.89273"><ele>1091.3333333333335</ele><time>2026-03-22T12:36:42.381Z</time></trkpt><trkpt lat="43.208605" lon="12.8926"><ele>1094.1666666666667</ele><time>2026-03-22T12:36:44.431Z</time></trkpt><trkpt lat="43.2085633" lon="12.8924567"><ele>1097.0</ele><time>2026-03-22T12:36:46.391Z</time></trkpt><trkpt lat="43.2085367" lon="12.8923783"><ele>1097.4</ele><time>2026-03-22T12:36:47.388Z</time></trkpt><trkpt lat="43.2084833" lon="12.892225"><ele>1097.8000000000002</ele><time>2026-03-22T12:36:49.387Z</time></trkpt><trkpt lat="43.208425" lon="12.89207"><ele>1098.2</ele><time>2026-03-22T12:36:51.371Z</time></trkpt><trkpt lat="43.2083917" lon="12.8919883"><ele>1098.6000000000001</ele><time>2026-03-22T12:36:52.381Z</time></trkpt><trkpt lat="43.2083583" lon="12.8919017"><ele>1099.0</ele><time>2026-03-22T12:36:53.383Z</time></trkpt><trkpt lat="43.2083233" lon="12.8918217"><ele>1100.2</ele><time>2026-03-22T12:36:54.391Z</time></trkpt><trkpt lat="43.208265" lon="12.891705"><ele>1101.4</ele><time>2026-03-22T12:36:56.444Z</time></trkpt><trkpt lat="43.2081983" lon="12.89158"><ele>1102.6</ele><time>2026-03-22T12:36:58.375Z</time></trkpt><trkpt lat="43.2081483" lon="12.89147"><ele>1103.8</ele><time>2026-03-22T12:37:00.389Z</time></trkpt><trkpt lat="43.2080967" lon="12.891375"><ele>1105.0</ele><time>2026-03-22T12:37:02.428Z</time></trkpt><trkpt lat="43.20803" lon="12.8912567"><ele>1105.0</ele><time>2026-03-22T12:37:04.361Z</time></trkpt><trkpt lat="43.2079633" lon="12.89114"><ele>1105.0</ele><time>2026-03-22T12:37:06.391Z</time></trkpt><trkpt lat="43.2078883" lon="12.8910083"><ele>1105.0</ele><time>2026-03-22T12:37:08.431Z</time></trkpt><trkpt lat="43.2078117" lon="12.8908883"><ele>1105.0</ele><time>2026-03-22T12:37:10.384Z</time></trkpt><trkpt lat="43.2077483" lon="12.890785"><ele>1105.0</ele><time>2026-03-22T12:37:12.389Z</time></trkpt><trkpt lat="43.2077167" lon="12.890695"><ele>1104.0</ele><time>2026-03-22T12:37:14.416Z</time></trkpt><trkpt lat="43.20767" lon="12.8906"><ele>1103.0</ele><time>2026-03-22T12:37:16.379Z</time></trkpt><trkpt lat="43.20761" lon="12.8904967"><ele>1102.0</ele><time>2026-03-22T12:37:18.379Z</time></trkpt><trkpt lat="43.2075267" lon="12.890365"><ele>1101.0</ele><time>2026-03-22T12:37:20.434Z</time></trkpt><trkpt lat="43.2074833" lon="12.8902933"><ele>1100.0</ele><time>2026-03-22T12:37:21.379Z</time></trkpt><trkpt lat="43.2074467" lon="12.89021"><ele>1099.0</ele><time>2026-03-22T12:37:22.385Z</time></trkpt><trkpt lat="43.2073933" lon="12.8900767"><ele>1099.6000000000001</ele><time>2026-03-22T12:37:24.39Z</time></trkpt><trkpt lat="43.207345" lon="12.8899633"><ele>1100.2</ele><time>2026-03-22T12:37:26.428Z</time></trkpt><trkpt lat="43.2072733" lon="12.889825"><ele>1100.8000000000002</ele><time>2026-03-22T12:37:28.372Z</time></trkpt><trkpt lat="43.2072217" lon="12.8897233"><ele>1101.4</ele><time>2026-03-22T12:37:29.375Z</time></trkpt><trkpt lat="43.2071783" lon="12.8896067"><ele>1102.0</ele><time>2026-03-22T12:37:30.378Z</time></trkpt><trkpt lat="43.2071317" lon="12.8894683"><ele>1102.0</ele><time>2026-03-22T12:37:31.382Z</time></trkpt><trkpt lat="43.2070933" lon="12.8893333"><ele>1102.0</ele><time>2026-03-22T12:37:32.43Z</time></trkpt><trkpt lat="43.207065" lon="12.8892017"><ele>1102.0</ele><time>2026-03-22T12:37:33.377Z</time></trkpt><trkpt lat="43.2070433" lon="12.8890817"><ele>1102.0</ele><time>2026-03-22T12:37:34.382Z</time></trkpt><trkpt lat="43.20702" lon="12.888975"><ele>1102.0</ele><time>2026-03-22T12:37:35.383Z</time></trkpt><trkpt lat="43.2069833" lon="12.8888783"><ele>1100.6666666666665</ele><time>2026-03-22T12:37:36.388Z</time></trkpt><trkpt lat="43.2069417" lon="12.8887933"><ele>1099.3333333333333</ele><time>2026-03-22T12:37:37.388Z</time></trkpt><trkpt lat="43.2068433" lon="12.8887067"><ele>1098.0</ele><time>2026-03-22T12:37:39.382Z</time></trkpt><trkpt lat="43.2067783" lon="12.888705"><ele>1096.6666666666667</ele><time>2026-03-22T12:37:40.382Z</time></trkpt><trkpt lat="43.2067083" lon="12.88874"><ele>1095.3333333333335</ele><time>2026-03-22T12:37:41.383Z</time></trkpt><trkpt lat="43.2066167" lon="12.8887933"><ele>1094.0</ele><time>2026-03-22T12:37:42.388Z</time></trkpt><trkpt lat="43.2065267" lon="12.8888583"><ele>1094.5</ele><time>2026-03-22T12:37:43.368Z</time></trkpt><trkpt lat="43.2064417" lon="12.8889217"><ele>1095.0</ele><time>2026-03-22T12:37:44.432Z</time></trkpt><trkpt lat="43.2063667" lon="12.88898"><ele>1095.5</ele><time>2026-03-22T12:37:45.383Z</time></trkpt><trkpt lat="43.206295" lon="12.88904"><ele>1096.0</ele><time>2026-03-22T12:37:46.384Z</time></trkpt><trkpt lat="43.206225" lon="12.8890917"><ele>1096.5</ele><time>2026-03-22T12:37:47.386Z</time></trkpt><trkpt lat="43.20616" lon="12.88913"><ele>1097.0</ele><time>2026-03-22T12:37:48.392Z</time></trkpt><trkpt lat="43.2060967" lon="12.889145"><ele>1097.0</ele><time>2026-03-22T12:37:49.38Z</time></trkpt><trkpt lat="43.2060283" lon="12.889135"><ele>1097.0</ele><time>2026-03-22T12:37:50.436Z</time></trkpt><trkpt lat="43.2059583" lon="12.8890917"><ele>1097.0</ele><time>2026-03-22T12:37:51.384Z</time></trkpt><trkpt lat="43.2058733" lon="12.889005"><ele>1097.0</ele><time>2026-03-22T12:37:52.376Z</time></trkpt><trkpt lat="43.205785" lon="12.88891"><ele>1097.0</ele><time>2026-03-22T12:37:53.386Z</time></trkpt><trkpt lat="43.2056967" lon="12.8888167"><ele>1095.4</ele><time>2026-03-22T12:37:54.391Z</time></trkpt><trkpt lat="43.2056133" lon="12.8887317"><ele>1093.8000000000002</ele><time>2026-03-22T12:37:55.385Z</time></trkpt><trkpt lat="43.2055367" lon="12.88865"><ele>1092.2</ele><time>2026-03-22T12:37:56.448Z</time></trkpt><trkpt lat="43.2054617" lon="12.8885683"><ele>1090.6000000000001</ele><time>2026-03-22T12:37:57.381Z</time></trkpt><trkpt lat="43.2053883" lon="12.8884883"><ele>1089.0</ele><time>2026-03-22T12:37:58.385Z</time></trkpt><trkpt lat="43.2053183" lon="12.8884133"><ele>1088.8333333333333</ele><time>2026-03-22T12:37:59.383Z</time></trkpt><trkpt lat="43.2052517" lon="12.8883367"><ele>1088.6666666666667</ele><time>2026-03-22T12:38:00.387Z</time></trkpt><trkpt lat="43.205185" lon="12.8882633"><ele>1088.5</ele><time>2026-03-22T12:38:01.388Z</time></trkpt><trkpt lat="43.2051217" lon="12.8881883"><ele>1088.3333333333335</ele><time>2026-03-22T12:38:02.438Z</time></trkpt><trkpt lat="43.2050583" lon="12.8881133"><ele>1088.1666666666667</ele><time>2026-03-22T12:38:03.383Z</time></trkpt><trkpt lat="43.2049983" lon="12.8880367"><ele>1088.0</ele><time>2026-03-22T12:38:04.39Z</time></trkpt><trkpt lat="43.20494" lon="12.8879683"><ele>1087.9999999999998</ele><time>2026-03-22T12:38:05.383Z</time></trkpt><trkpt lat="43.2048767" lon="12.8879033"><ele>1088.0</ele><time>2026-03-22T12:38:06.387Z</time></trkpt><trkpt lat="43.2048167" lon="12.8878433"><ele>1088.0</ele><time>2026-03-22T12:38:07.384Z</time></trkpt><trkpt lat="43.20476" lon="12.8877883"><ele>1088.0</ele><time>2026-03-22T12:38:08.441Z</time></trkpt><trkpt lat="43.204705" lon="12.8877317"><ele>1088.0</ele><time>2026-03-22T12:38:09.386Z</time></trkpt><trkpt lat="43.2046483" lon="12.887675"><ele>1087.9999999999998</ele><time>2026-03-22T12:38:10.383Z</time></trkpt><trkpt lat="43.2045917" lon="12.8876183"><ele>1088.0</ele><time>2026-03-22T12:38:11.385Z</time></trkpt><trkpt lat="43.2045333" lon="12.8875583"><ele>1086.2857142857142</ele><time>2026-03-22T12:38:12.384Z</time></trkpt><trkpt lat="43.204475" lon="12.8875"><ele>1084.5714285714284</ele><time>2026-03-22T12:38:13.392Z</time></trkpt><trkpt lat="43.2044183" lon="12.8874433"><ele>1082.857142857143</ele><time>2026-03-22T12:38:14.414Z</time></trkpt><trkpt lat="43.204365" lon="12.887385"><ele>1081.142857142857</ele><time>2026-03-22T12:38:15.36Z</time></trkpt><trkpt lat="43.204315" lon="12.887325"><ele>1079.4285714285716</ele><time>2026-03-22T12:38:16.364Z</time></trkpt><trkpt lat="43.2042617" lon="12.8872633"><ele>1077.7142857142858</ele><time>2026-03-22T12:38:17.38Z</time></trkpt><trkpt lat="43.2042033" lon="12.887205"><ele>1076.0</ele><time>2026-03-22T12:38:18.376Z</time></trkpt><trkpt lat="43.2041383" lon="12.8871417"><ele>1076.0</ele><time>2026-03-22T12:38:19.361Z</time></trkpt><trkpt lat="43.2040683" lon="12.8870817"><ele>1076.0</ele><time>2026-03-22T12:38:20.43Z</time></trkpt><trkpt lat="43.203995" lon="12.88703"><ele>1076.0</ele><time>2026-03-22T12:38:21.375Z</time></trkpt><trkpt lat="43.2039167" lon="12.88699"><ele>1076.0</ele><time>2026-03-22T12:38:22.377Z</time></trkpt><trkpt lat="43.2038417" lon="12.886945"><ele>1076.0</ele><time>2026-03-22T12:38:23.379Z</time></trkpt><trkpt lat="43.2037633" lon="12.8869"><ele>1076.0</ele><time>2026-03-22T12:38:24.391Z</time></trkpt><trkpt lat="43.203685" lon="12.8868483"><ele>1073.1666666666667</ele><time>2026-03-22T12:38:25.377Z</time></trkpt><trkpt lat="43.2036083" lon="12.8867967"><ele>1070.3333333333335</ele><time>2026-03-22T12:38:26.405Z</time></trkpt><trkpt lat="43.2035317" lon="12.8867467"><ele>1067.5</ele><time>2026-03-22T12:38:27.374Z</time></trkpt><trkpt lat="43.2034517" lon="12.8866967"><ele>1064.6666666666667</ele><time>2026-03-22T12:38:28.371Z</time></trkpt><trkpt lat="43.2033683" lon="12.8866483"><ele>1061.8333333333333</ele><time>2026-03-22T12:38:29.378Z</time></trkpt><trkpt lat="43.2032883" lon="12.8866"><ele>1059.0</ele><time>2026-03-22T12:38:30.375Z</time></trkpt><trkpt lat="43.203205" lon="12.88655"><ele>1054.8</ele><time>2026-03-22T12:38:31.376Z</time></trkpt><trkpt lat="43.20312" lon="12.8865033"><ele>1050.6000000000001</ele><time>2026-03-22T12:38:32.435Z</time></trkpt><trkpt lat="43.2030367" lon="12.88645"><ele>1046.4</ele><time>2026-03-22T12:38:33.373Z</time></trkpt><trkpt lat="43.202955" lon="12.8863917"><ele>1042.2</ele><time>2026-03-22T12:38:34.376Z</time></trkpt><trkpt lat="43.2028717" lon="12.8863283"><ele>1038.0</ele><time>2026-03-22T12:38:35.375Z</time></trkpt><trkpt lat="43.202785" lon="12.8862617"><ele>1038.0</ele><time>2026-03-22T12:38:36.374Z</time></trkpt><trkpt lat="43.20269" lon="12.8861967"><ele>1038.0</ele><time>2026-03-22T12:38:37.381Z</time></trkpt><trkpt lat="43.2025833" lon="12.88613"><ele>1038.0</ele><time>2026-03-22T12:38:38.431Z</time></trkpt><trkpt lat="43.202465" lon="12.886065"><ele>1038.0</ele><time>2026-03-22T12:38:39.376Z</time></trkpt><trkpt lat="43.2023433" lon="12.8859983"><ele>1033.75</ele><time>2026-03-22T12:38:40.381Z</time></trkpt><trkpt lat="43.2022217" lon="12.8859267"><ele>1029.5</ele><time>2026-03-22T12:38:41.359Z</time></trkpt><trkpt lat="43.2020983" lon="12.885865"><ele>1025.25</ele><time>2026-03-22T12:38:42.376Z</time></trkpt><trkpt lat="43.201975" lon="12.8858067"><ele>1021.0</ele><time>2026-03-22T12:38:43.372Z</time></trkpt><trkpt lat="43.201855" lon="12.8857483"><ele>1021.0</ele><time>2026-03-22T12:38:44.432Z</time></trkpt><trkpt lat="43.201735" lon="12.8856917"><ele>1021.0</ele><time>2026-03-22T12:38:45.379Z</time></trkpt><trkpt lat="43.20162" lon="12.8856383"><ele>1021.0</ele><time>2026-03-22T12:38:46.374Z</time></trkpt><trkpt lat="43.2015117" lon="12.88559"><ele>1021.0</ele><time>2026-03-22T12:38:47.375Z</time></trkpt><trkpt lat="43.2014133" lon="12.8855417"><ele>1018.3333333333333</ele><time>2026-03-22T12:38:48.383Z</time></trkpt><trkpt lat="43.2013267" lon="12.8855"><ele>1015.6666666666666</ele><time>2026-03-22T12:38:49.376Z</time></trkpt><trkpt lat="43.201245" lon="12.8854617"><ele>1013.0</ele><time>2026-03-22T12:38:50.43Z</time></trkpt><trkpt lat="43.2011617" lon="12.8854283"><ele>1010.3333333333333</ele><time>2026-03-22T12:38:51.38Z</time></trkpt><trkpt lat="43.2010817" lon="12.8853883"><ele>1007.6666666666666</ele><time>2026-03-22T12:38:52.379Z</time></trkpt><trkpt lat="43.201005" lon="12.8853367"><ele>1005.0</ele><time>2026-03-22T12:38:53.379Z</time></trkpt><trkpt lat="43.2009267" lon="12.88529"><ele>1005.0</ele><time>2026-03-22T12:38:54.382Z</time></trkpt><trkpt lat="43.2008417" lon="12.885255"><ele>1005.0</ele><time>2026-03-22T12:38:55.375Z</time></trkpt><trkpt lat="43.2007567" lon="12.885225"><ele>1005.0</ele><time>2026-03-22T12:38:56.449Z</time></trkpt><trkpt lat="43.200675" lon="12.885195"><ele>1005.0</ele><time>2026-03-22T12:38:57.377Z</time></trkpt><trkpt lat="43.2005967" lon="12.8851683"><ele>1005.0</ele><time>2026-03-22T12:38:58.365Z</time></trkpt><trkpt lat="43.2005217" lon="12.8851433"><ele>1005.0</ele><time>2026-03-22T12:38:59.377Z</time></trkpt><trkpt lat="43.2004433" lon="12.8851317"><ele>1002.8333333333334</ele><time>2026-03-22T12:39:00.388Z</time></trkpt><trkpt lat="43.20036" lon="12.885135"><ele>1000.6666666666667</ele><time>2026-03-22T12:39:01.378Z</time></trkpt><trkpt lat="43.200275" lon="12.8851367"><ele>998.5</ele><time>2026-03-22T12:39:02.426Z</time></trkpt><trkpt lat="43.2001883" lon="12.88512"><ele>996.3333333333334</ele><time>2026-03-22T12:39:03.375Z</time></trkpt><trkpt lat="43.2001083" lon="12.88509"><ele>994.1666666666667</ele><time>2026-03-22T12:39:04.377Z</time></trkpt><trkpt lat="43.2000233" lon="12.8850483"><ele>992.0</ele><time>2026-03-22T12:39:05.375Z</time></trkpt><trkpt lat="43.19994" lon="12.88501"><ele>991.1666666666667</ele><time>2026-03-22T12:39:06.378Z</time></trkpt><trkpt lat="43.1998633" lon="12.8849767"><ele>990.3333333333334</ele><time>2026-03-22T12:39:07.376Z</time></trkpt><trkpt lat="43.1997917" lon="12.884955"><ele>989.5</ele><time>2026-03-22T12:39:08.43Z</time></trkpt><trkpt lat="43.1997283" lon="12.8849417"><ele>988.6666666666667</ele><time>2026-03-22T12:39:09.375Z</time></trkpt><trkpt lat="43.199645" lon="12.8849717"><ele>987.8333333333334</ele><time>2026-03-22T12:39:11.373Z</time></trkpt><trkpt lat="43.1995667" lon="12.8850733"><ele>987.0</ele><time>2026-03-22T12:39:13.372Z</time></trkpt><trkpt lat="43.1995217" lon="12.8851533"><ele>986.0</ele><time>2026-03-22T12:39:14.425Z</time></trkpt><trkpt lat="43.1994817" lon="12.8852267"><ele>985.0</ele><time>2026-03-22T12:39:15.373Z</time></trkpt><trkpt lat="43.1994" lon="12.8853467"><ele>984.0</ele><time>2026-03-22T12:39:17.376Z</time></trkpt><trkpt lat="43.1993183" lon="12.8854283"><ele>983.0</ele><time>2026-03-22T12:39:19.355Z</time></trkpt><trkpt lat="43.1992217" lon="12.8855067"><ele>982.0</ele><time>2026-03-22T12:39:21.375Z</time></trkpt><trkpt lat="43.1991383" lon="12.885565"><ele>982.0</ele><time>2026-03-22T12:39:23.376Z</time></trkpt><trkpt lat="43.199075" lon="12.885665"><ele>982.0</ele><time>2026-03-22T12:39:25.367Z</time></trkpt><trkpt lat="43.1989817" lon="12.88578"><ele>982.0</ele><time>2026-03-22T12:39:27.378Z</time></trkpt><trkpt lat="43.198905" lon="12.8858483"><ele>982.0</ele><time>2026-03-22T12:39:28.382Z</time></trkpt><trkpt lat="43.1987983" lon="12.885935"><ele>982.0</ele><time>2026-03-22T12:39:29.379Z</time></trkpt><trkpt lat="43.1986933" lon="12.8860267"><ele>977.6</ele><time>2026-03-22T12:39:30.377Z</time></trkpt><trkpt lat="43.1986017" lon="12.886115"><ele>973.2</ele><time>2026-03-22T12:39:31.38Z</time></trkpt><trkpt lat="43.19851" lon="12.8861933"><ele>968.8</ele><time>2026-03-22T12:39:32.429Z</time></trkpt><trkpt lat="43.198425" lon="12.8862817"><ele>964.4</ele><time>2026-03-22T12:39:33.365Z</time></trkpt><trkpt lat="43.1983517" lon="12.88636"><ele>960.0</ele><time>2026-03-22T12:39:34.365Z</time></trkpt><trkpt lat="43.198285" lon="12.8864483"><ele>960.0</ele><time>2026-03-22T12:39:35.368Z</time></trkpt><trkpt lat="43.1982233" lon="12.8865333"><ele>960.0</ele><time>2026-03-22T12:39:36.378Z</time></trkpt><trkpt lat="43.1981583" lon="12.886645"><ele>960.0</ele><time>2026-03-22T12:39:37.386Z</time></trkpt><trkpt lat="43.1981133" lon="12.88674"><ele>960.0</ele><time>2026-03-22T12:39:38.429Z</time></trkpt><trkpt lat="43.1980867" lon="12.8868683"><ele>960.0</ele><time>2026-03-22T12:39:39.372Z</time></trkpt><trkpt lat="43.1980683" lon="12.8870083"><ele>954.4</ele><time>2026-03-22T12:39:40.37Z</time></trkpt><trkpt lat="43.1980533" lon="12.887155"><ele>948.8</ele><time>2026-03-22T12:39:41.38Z</time></trkpt><trkpt lat="43.1980433" lon="12.8872967"><ele>943.2</ele><time>2026-03-22T12:39:42.378Z</time></trkpt><trkpt lat="43.1980383" lon="12.8874383"><ele>937.6</ele><time>2026-03-22T12:39:43.374Z</time></trkpt><trkpt lat="43.19804" lon="12.8875867"><ele>932.0</ele><time>2026-03-22T12:39:44.426Z</time></trkpt><trkpt lat="43.1980383" lon="12.8877317"><ele>928.8</ele><time>2026-03-22T12:39:45.378Z</time></trkpt><trkpt lat="43.1980433" lon="12.8878717"><ele>925.6</ele><time>2026-03-22T12:39:46.389Z</time></trkpt><trkpt lat="43.1980517" lon="12.888015"><ele>922.3999999999999</ele><time>2026-03-22T12:39:47.377Z</time></trkpt><trkpt lat="43.1980683" lon="12.8881583"><ele>919.1999999999999</ele><time>2026-03-22T12:39:48.379Z</time></trkpt><trkpt lat="43.198095" lon="12.8883133"><ele>916.0</ele><time>2026-03-22T12:39:49.378Z</time></trkpt><trkpt lat="43.1981183" lon="12.8884733"><ele>917.5</ele><time>2026-03-22T12:39:50.426Z</time></trkpt><trkpt lat="43.1981417" lon="12.8886383"><ele>919.0</ele><time>2026-03-22T12:39:51.377Z</time></trkpt><trkpt lat="43.198165" lon="12.8887917"><ele>920.5</ele><time>2026-03-22T12:39:52.375Z</time></trkpt><trkpt lat="43.198185" lon="12.8889467"><ele>922.0</ele><time>2026-03-22T12:39:53.373Z</time></trkpt><trkpt lat="43.1982067" lon="12.8890933"><ele>922.0</ele><time>2026-03-22T12:39:54.385Z</time></trkpt><trkpt lat="43.1982333" lon="12.8892267"><ele>922.0</ele><time>2026-03-22T12:39:55.372Z</time></trkpt><trkpt lat="43.198265" lon="12.88933"><ele>922.0</ele><time>2026-03-22T12:39:56.441Z</time></trkpt><trkpt lat="43.1983383" lon="12.8894417"><ele>922.0</ele><time>2026-03-22T12:39:58.378Z</time></trkpt><trkpt lat="43.1984467" lon="12.8894683"><ele>922.0</ele><time>2026-03-22T12:40:00.376Z</time></trkpt><trkpt lat="43.1985183" lon="12.88945"><ele>916.25</ele><time>2026-03-22T12:40:01.373Z</time></trkpt><trkpt lat="43.1986133" lon="12.8894017"><ele>910.5</ele><time>2026-03-22T12:40:02.43Z</time></trkpt><trkpt lat="43.1987233" lon="12.889355"><ele>904.75</ele><time>2026-03-22T12:40:03.374Z</time></trkpt><trkpt lat="43.19884" lon="12.88932"><ele>899.0</ele><time>2026-03-22T12:40:04.374Z</time></trkpt><trkpt lat="43.1989667" lon="12.8892967"><ele>894.5</ele><time>2026-03-22T12:40:05.376Z</time></trkpt><trkpt lat="43.199085" lon="12.8892917"><ele>890.0</ele><time>2026-03-22T12:40:06.381Z</time></trkpt><trkpt lat="43.1992083" lon="12.8892933"><ele>885.5</ele><time>2026-03-22T12:40:07.378Z</time></trkpt><trkpt lat="43.19934" lon="12.8892917"><ele>881.0</ele><time>2026-03-22T12:40:08.425Z</time></trkpt><trkpt lat="43.1994683" lon="12.889285"><ele>881.0</ele><time>2026-03-22T12:40:09.378Z</time></trkpt><trkpt lat="43.1995783" lon="12.8892733"><ele>880.9999999999999</ele><time>2026-03-22T12:40:10.373Z</time></trkpt><trkpt lat="43.1996783" lon="12.8892867"><ele>880.9999999999999</ele><time>2026-03-22T12:40:11.376Z</time></trkpt><trkpt lat="43.1997733" lon="12.8893033"><ele>881.0</ele><time>2026-03-22T12:40:12.38Z</time></trkpt><trkpt lat="43.1998767" lon="12.8893383"><ele>881.0</ele><time>2026-03-22T12:40:13.373Z</time></trkpt><trkpt lat="43.19996" lon="12.8894033"><ele>884.0</ele><time>2026-03-22T12:40:14.401Z</time></trkpt><trkpt lat="43.2000417" lon="12.8894833"><ele>886.9999999999999</ele><time>2026-03-22T12:40:15.36Z</time></trkpt><trkpt lat="43.20011" lon="12.8895783"><ele>889.9999999999999</ele><time>2026-03-22T12:40:16.365Z</time></trkpt><trkpt lat="43.2001567" lon="12.88969"><ele>893.0</ele><time>2026-03-22T12:40:17.38Z</time></trkpt><trkpt lat="43.2001817" lon="12.889815"><ele>896.0</ele><time>2026-03-22T12:40:18.378Z</time></trkpt><trkpt lat="43.2001967" lon="12.88993"><ele>896.0000000000001</ele><time>2026-03-22T12:40:19.377Z</time></trkpt><trkpt lat="43.2002183" lon="12.8900183"><ele>896.0</ele><time>2026-03-22T12:40:20.438Z</time></trkpt><trkpt lat="43.2002883" lon="12.8900967"><ele>896.0</ele><time>2026-03-22T12:40:22.379Z</time></trkpt><trkpt lat="43.20036" lon="12.890085"><ele>896.0</ele><time>2026-03-22T12:40:23.381Z</time></trkpt><trkpt lat="43.200455" lon="12.89005"><ele>896.0000000000001</ele><time>2026-03-22T12:40:24.375Z</time></trkpt><trkpt lat="43.2005483" lon="12.8900133"><ele>896.0</ele><time>2026-03-22T12:40:25.377Z</time></trkpt><trkpt lat="43.2006433" lon="12.8899667"><ele>896.75</ele><time>2026-03-22T12:40:26.439Z</time></trkpt><trkpt lat="43.2007517" lon="12.8899117"><ele>897.5</ele><time>2026-03-22T12:40:27.378Z</time></trkpt><trkpt lat="43.2008583" lon="12.88985"><ele>898.25</ele><time>2026-03-22T12:40:28.378Z</time></trkpt><trkpt lat="43.2009733" lon="12.88979"><ele>899.0</ele><time>2026-03-22T12:40:29.38Z</time></trkpt><trkpt lat="43.2010867" lon="12.8897383"><ele>899.0</ele><time>2026-03-22T12:40:30.371Z</time></trkpt><trkpt lat="43.2011983" lon="12.889695"><ele>899.0000000000001</ele><time>2026-03-22T12:40:31.378Z</time></trkpt><trkpt lat="43.2012917" lon="12.8896733"><ele>899.0000000000001</ele><time>2026-03-22T12:40:32.429Z</time></trkpt><trkpt lat="43.2013717" lon="12.8896667"><ele>899.0</ele><time>2026-03-22T12:40:33.375Z</time></trkpt><trkpt lat="43.2014483" lon="12.8896783"><ele>899.0</ele><time>2026-03-22T12:40:34.374Z</time></trkpt><trkpt lat="43.20152" lon="12.8897483"><ele>899.0000000000001</ele><time>2026-03-22T12:40:36.376Z</time></trkpt><trkpt lat="43.2015" lon="12.8898483"><ele>899.0</ele><time>2026-03-22T12:40:38.428Z</time></trkpt><trkpt lat="43.2014633" lon="12.8899617"><ele>899.0</ele><time>2026-03-22T12:40:40.368Z</time></trkpt><trkpt lat="43.2014417" lon="12.8900633"><ele>899.0</ele><time>2026-03-22T12:40:58.379Z</time></trkpt><trkpt lat="43.2014417" lon="12.8902083"><ele>899.0000000000001</ele><time>2026-03-22T12:41:00.378Z</time></trkpt><trkpt lat="43.2014467" lon="12.8903217"><ele>899.0</ele><time>2026-03-22T12:41:01.372Z</time></trkpt><trkpt lat="43.2014533" lon="12.8904533"><ele>895.25</ele><time>2026-03-22T12:41:02.429Z</time></trkpt><trkpt lat="43.2014467" lon="12.890605"><ele>891.5</ele><time>2026-03-22T12:41:03.373Z</time></trkpt><trkpt lat="43.20143" lon="12.8907667"><ele>887.75</ele><time>2026-03-22T12:41:04.378Z</time></trkpt><trkpt lat="43.2014083" lon="12.890925"><ele>884.0</ele><time>2026-03-22T12:41:05.378Z</time></trkpt><trkpt lat="43.2013933" lon="12.891075"><ele>882.0</ele><time>2026-03-22T12:41:06.382Z</time></trkpt><trkpt lat="43.201385" lon="12.8912267"><ele>880.0000000000001</ele><time>2026-03-22T12:41:07.374Z</time></trkpt><trkpt lat="43.2013933" lon="12.8913733"><ele>878.0000000000001</ele><time>2026-03-22T12:41:08.424Z</time></trkpt><trkpt lat="43.2014183" lon="12.8915083"><ele>876.0</ele><time>2026-03-22T12:41:09.376Z</time></trkpt><trkpt lat="43.201455" lon="12.8916333"><ele>874.0</ele><time>2026-03-22T12:41:10.377Z</time></trkpt><trkpt lat="43.2015033" lon="12.8917517"><ele>877.4000000000001</ele><time>2026-03-22T12:41:11.375Z</time></trkpt><trkpt lat="43.2015683" lon="12.8918567"><ele>880.8000000000001</ele><time>2026-03-22T12:41:12.379Z</time></trkpt><trkpt lat="43.201645" lon="12.89195"><ele>884.1999999999999</ele><time>2026-03-22T12:41:13.376Z</time></trkpt><trkpt lat="43.2017283" lon="12.89203"><ele>887.5999999999999</ele><time>2026-03-22T12:41:14.432Z</time></trkpt><trkpt lat="43.201815" lon="12.892125"><ele>891.0</ele><time>2026-03-22T12:41:15.376Z</time></trkpt><trkpt lat="43.2018967" lon="12.8922217"><ele>891.0</ele><time>2026-03-22T12:41:16.377Z</time></trkpt><trkpt lat="43.20198" lon="12.8923333"><ele>891.0</ele><time>2026-03-22T12:41:17.379Z</time></trkpt><trkpt lat="43.2020717" lon="12.8924633"><ele>891.0</ele><time>2026-03-22T12:41:18.381Z</time></trkpt><trkpt lat="43.2021767" lon="12.892605"><ele>891.0</ele><time>2026-03-22T12:41:19.375Z</time></trkpt><trkpt lat="43.2022817" lon="12.8927517"><ele>892.0</ele><time>2026-03-22T12:41:20.424Z</time></trkpt><trkpt lat="43.2023883" lon="12.8928883"><ele>893.0</ele><time>2026-03-22T12:41:21.373Z</time></trkpt><trkpt lat="43.202505" lon="12.89302"><ele>894.0</ele><time>2026-03-22T12:41:22.377Z</time></trkpt><trkpt lat="43.2026283" lon="12.8931517"><ele>894.0</ele><time>2026-03-22T12:41:23.378Z</time></trkpt><trkpt lat="43.202765" lon="12.893285"><ele>894.0</ele><time>2026-03-22T12:41:24.379Z</time></trkpt><trkpt lat="43.2028933" lon="12.8934133"><ele>894.0</ele><time>2026-03-22T12:41:25.378Z</time></trkpt><trkpt lat="43.20301" lon="12.8935333"><ele>893.75</ele><time>2026-03-22T12:41:26.442Z</time></trkpt><trkpt lat="43.2031067" lon="12.89365"><ele>893.5</ele><time>2026-03-22T12:41:27.37Z</time></trkpt><trkpt lat="43.203185" lon="12.8937717"><ele>893.25</ele><time>2026-03-22T12:41:28.374Z</time></trkpt><trkpt lat="43.2032517" lon="12.8938933"><ele>893.0</ele><time>2026-03-22T12:41:29.377Z</time></trkpt><trkpt lat="43.203315" lon="12.8940083"><ele>893.0000000000001</ele><time>2026-03-22T12:41:30.38Z</time></trkpt><trkpt lat="43.20338" lon="12.8940917"><ele>893.0</ele><time>2026-03-22T12:41:31.376Z</time></trkpt><trkpt lat="43.203445" lon="12.8941567"><ele>893.0</ele><time>2026-03-22T12:41:32.424Z</time></trkpt><trkpt lat="43.2035017" lon="12.8941967"><ele>893.0</ele><time>2026-03-22T12:41:33.367Z</time></trkpt><trkpt lat="43.2035667" lon="12.8941983"><ele>893.0000000000001</ele><time>2026-03-22T12:41:34.378Z</time></trkpt><trkpt lat="43.2036417" lon="12.894165"><ele>893.0</ele><time>2026-03-22T12:41:35.371Z</time></trkpt><trkpt lat="43.2037333" lon="12.8940983"><ele>893.0000000000001</ele><time>2026-03-22T12:41:36.384Z</time></trkpt><trkpt lat="43.2038267" lon="12.8940367"><ele>893.0</ele><time>2026-03-22T12:41:37.377Z</time></trkpt><trkpt lat="43.2039033" lon="12.8940067"><ele>893.0</ele><time>2026-03-22T12:41:38.433Z</time></trkpt><trkpt lat="43.2039867" lon="12.8939967"><ele>893.0</ele><time>2026-03-22T12:41:39.373Z</time></trkpt><trkpt lat="43.20407" lon="12.8940067"><ele>893.0000000000001</ele><time>2026-03-22T12:41:40.376Z</time></trkpt><trkpt lat="43.204145" lon="12.89407"><ele>893.0</ele><time>2026-03-22T12:41:41.376Z</time></trkpt><trkpt lat="43.20422" lon="12.8941817"><ele>893.75</ele><time>2026-03-22T12:41:42.381Z</time></trkpt><trkpt lat="43.204275" lon="12.894375"><ele>894.5</ele><time>2026-03-22T12:41:43.376Z</time></trkpt><trkpt lat="43.2043233" lon="12.894575"><ele>895.25</ele><time>2026-03-22T12:41:44.427Z</time></trkpt><trkpt lat="43.2043617" lon="12.8947633"><ele>896.0</ele><time>2026-03-22T12:41:45.371Z</time></trkpt><trkpt lat="43.2044017" lon="12.894925"><ele>896.0</ele><time>2026-03-22T12:41:46.376Z</time></trkpt><trkpt lat="43.2044483" lon="12.8950617"><ele>895.9999999999999</ele><time>2026-03-22T12:41:47.374Z</time></trkpt><trkpt lat="43.2045" lon="12.8951783"><ele>895.9999999999999</ele><time>2026-03-22T12:41:48.376Z</time></trkpt><trkpt lat="43.2045617" lon="12.895275"><ele>896.0</ele><time>2026-03-22T12:41:49.369Z</time></trkpt><trkpt lat="43.20464" lon="12.895365"><ele>896.0</ele><time>2026-03-22T12:41:50.422Z</time></trkpt><trkpt lat="43.204725" lon="12.8954367"><ele>896.3333333333334</ele><time>2026-03-22T12:41:51.374Z</time></trkpt><trkpt lat="43.2048083" lon="12.89549"><ele>896.6666666666667</ele><time>2026-03-22T12:41:52.378Z</time></trkpt><trkpt lat="43.2048933" lon="12.8955267"><ele>897.0</ele><time>2026-03-22T12:41:53.376Z</time></trkpt><trkpt lat="43.2049717" lon="12.8955433"><ele>897.3333333333333</ele><time>2026-03-22T12:41:54.383Z</time></trkpt><trkpt lat="43.20505" lon="12.8955717"><ele>897.6666666666666</ele><time>2026-03-22T12:41:55.374Z</time></trkpt><trkpt lat="43.2051383" lon="12.89562"><ele>898.0</ele><time>2026-03-22T12:41:56.44Z</time></trkpt><trkpt lat="43.2052183" lon="12.8956917"><ele>898.0</ele><time>2026-03-22T12:41:57.377Z</time></trkpt><trkpt lat="43.2052933" lon="12.89581"><ele>898.0</ele><time>2026-03-22T12:41:58.379Z</time></trkpt><trkpt lat="43.205365" lon="12.8959633"><ele>898.0</ele><time>2026-03-22T12:41:59.376Z</time></trkpt><trkpt lat="43.205415" lon="12.8961317"><ele>898.0</ele><time>2026-03-22T12:42:00.379Z</time></trkpt><trkpt lat="43.205465" lon="12.896275"><ele>896.0</ele><time>2026-03-22T12:42:01.376Z</time></trkpt><trkpt lat="43.2055233" lon="12.89639"><ele>894.0</ele><time>2026-03-22T12:42:02.444Z</time></trkpt><trkpt lat="43.2056017" lon="12.8965"><ele>892.0</ele><time>2026-03-22T12:42:03.374Z</time></trkpt><trkpt lat="43.20569" lon="12.8966117"><ele>890.0</ele><time>2026-03-22T12:42:04.376Z</time></trkpt><trkpt lat="43.2057833" lon="12.8967283"><ele>897.5</ele><time>2026-03-22T12:42:05.376Z</time></trkpt><trkpt lat="43.205875" lon="12.8968333"><ele>905.0</ele><time>2026-03-22T12:42:06.379Z</time></trkpt><trkpt lat="43.2059683" lon="12.8969433"><ele>912.5</ele><time>2026-03-22T12:42:07.376Z</time></trkpt><trkpt lat="43.206055" lon="12.8970533"><ele>920.0</ele><time>2026-03-22T12:42:08.427Z</time></trkpt><trkpt lat="43.20613" lon="12.897165"><ele>920.0</ele><time>2026-03-22T12:42:09.374Z</time></trkpt><trkpt lat="43.2061867" lon="12.8972667"><ele>920.0</ele><time>2026-03-22T12:42:10.378Z</time></trkpt><trkpt lat="43.206225" lon="12.8973633"><ele>920.0</ele><time>2026-03-22T12:42:11.374Z</time></trkpt><trkpt lat="43.2062483" lon="12.8974467"><ele>920.0</ele><time>2026-03-22T12:42:12.375Z</time></trkpt><trkpt lat="43.2062267" lon="12.89758"><ele>920.0</ele><time>2026-03-22T12:42:14.426Z</time></trkpt><trkpt lat="43.2060933" lon="12.897635"><ele>919.75</ele><time>2026-03-22T12:42:16.373Z</time></trkpt><trkpt lat="43.2059667" lon="12.8976433"><ele>919.5</ele><time>2026-03-22T12:42:17.374Z</time></trkpt><trkpt lat="43.2058017" lon="12.89763"><ele>919.25</ele><time>2026-03-22T12:42:18.379Z</time></trkpt><trkpt lat="43.2056467" lon="12.897645"><ele>919.0</ele><time>2026-03-22T12:42:19.377Z</time></trkpt><trkpt lat="43.2054917" lon="12.8976567"><ele>919.0</ele><time>2026-03-22T12:42:20.43Z</time></trkpt><trkpt lat="43.205365" lon="12.8976917"><ele>919.0000000000001</ele><time>2026-03-22T12:42:21.366Z</time></trkpt><trkpt lat="43.2052533" lon="12.8977383"><ele>919.0000000000001</ele><time>2026-03-22T12:42:22.377Z</time></trkpt><trkpt lat="43.205165" lon="12.8977883"><ele>919.0</ele><time>2026-03-22T12:42:23.372Z</time></trkpt><trkpt lat="43.205095" lon="12.8978633"><ele>919.0</ele><time>2026-03-22T12:42:24.38Z</time></trkpt><trkpt lat="43.2050383" lon="12.8979533"><ele>918.9999999999999</ele><time>2026-03-22T12:42:25.376Z</time></trkpt><trkpt lat="43.2049983" lon="12.8980433"><ele>919.0</ele><time>2026-03-22T12:42:26.441Z</time></trkpt><trkpt lat="43.20498" lon="12.8981333"><ele>919.0</ele><time>2026-03-22T12:42:27.375Z</time></trkpt><trkpt lat="43.20499" lon="12.89822"><ele>919.0</ele><time>2026-03-22T12:42:28.377Z</time></trkpt><trkpt lat="43.20502" lon="12.898315"><ele>918.9999999999999</ele><time>2026-03-22T12:42:29.376Z</time></trkpt><trkpt lat="43.20507" lon="12.898425"><ele>919.0</ele><time>2026-03-22T12:42:30.391Z</time></trkpt><trkpt lat="43.2051467" lon="12.89855"><ele>919.2</ele><time>2026-03-22T12:42:31.373Z</time></trkpt><trkpt lat="43.2052367" lon="12.8986733"><ele>919.4000000000001</ele><time>2026-03-22T12:42:32.422Z</time></trkpt><trkpt lat="43.2053133" lon="12.89879"><ele>919.6</ele><time>2026-03-22T12:42:33.378Z</time></trkpt><trkpt lat="43.205375" lon="12.8989017"><ele>919.8</ele><time>2026-03-22T12:42:34.379Z</time></trkpt><trkpt lat="43.205415" lon="12.8990083"><ele>920.0</ele><time>2026-03-22T12:42:35.38Z</time></trkpt><trkpt lat="43.205415" lon="12.8991017"><ele>920.0</ele><time>2026-03-22T12:42:36.372Z</time></trkpt><trkpt lat="43.2053983" lon="12.899205"><ele>920.0</ele><time>2026-03-22T12:42:37.379Z</time></trkpt><trkpt lat="43.205395" lon="12.8993283"><ele>920.0</ele><time>2026-03-22T12:42:38.43Z</time></trkpt><trkpt lat="43.2054083" lon="12.8994733"><ele>920.0</ele><time>2026-03-22T12:42:39.378Z</time></trkpt><trkpt lat="43.2054317" lon="12.89965"><ele>920.0</ele><time>2026-03-22T12:42:40.38Z</time></trkpt><trkpt lat="43.2054583" lon="12.8998483"><ele>921.0</ele><time>2026-03-22T12:42:41.374Z</time></trkpt><trkpt lat="43.2054817" lon="12.9000483"><ele>922.0</ele><time>2026-03-22T12:42:42.38Z</time></trkpt><trkpt lat="43.2054983" lon="12.90025"><ele>923.0</ele><time>2026-03-22T12:42:43.378Z</time></trkpt><trkpt lat="43.2055033" lon="12.9004533"><ele>924.0</ele><time>2026-03-22T12:42:44.429Z</time></trkpt><trkpt lat="43.20551" lon="12.90065"><ele>924.75</ele><time>2026-03-22T12:42:45.373Z</time></trkpt><trkpt lat="43.205515" lon="12.9008333"><ele>925.5</ele><time>2026-03-22T12:42:46.378Z</time></trkpt><trkpt lat="43.2055217" lon="12.9010033"><ele>926.25</ele><time>2026-03-22T12:42:47.378Z</time></trkpt><trkpt lat="43.2055417" lon="12.9011517"><ele>927.0</ele><time>2026-03-22T12:42:48.379Z</time></trkpt><trkpt lat="43.2055717" lon="12.9013"><ele>927.5</ele><time>2026-03-22T12:42:49.378Z</time></trkpt><trkpt lat="43.2056033" lon="12.90145"><ele>928.0</ele><time>2026-03-22T12:42:50.421Z</time></trkpt><trkpt lat="43.20564" lon="12.9016083"><ele>928.5</ele><time>2026-03-22T12:42:51.377Z</time></trkpt><trkpt lat="43.2056783" lon="12.9017817"><ele>929.0</ele><time>2026-03-22T12:42:52.382Z</time></trkpt><trkpt lat="43.2057167" lon="12.9019467"><ele>932.25</ele><time>2026-03-22T12:42:53.372Z</time></trkpt><trkpt lat="43.20576" lon="12.902115"><ele>935.5</ele><time>2026-03-22T12:42:54.379Z</time></trkpt><trkpt lat="43.2058117" lon="12.902285"><ele>938.75</ele><time>2026-03-22T12:42:55.379Z</time></trkpt><trkpt lat="43.2058633" lon="12.9024483"><ele>942.0</ele><time>2026-03-22T12:42:56.424Z</time></trkpt><trkpt lat="43.2059133" lon="12.9026133"><ele>942.0</ele><time>2026-03-22T12:42:57.373Z</time></trkpt><trkpt lat="43.2059567" lon="12.9027617"><ele>942.0</ele><time>2026-03-22T12:42:58.375Z</time></trkpt><trkpt lat="43.2059867" lon="12.9028683"><ele>942.0</ele><time>2026-03-22T12:42:59.378Z</time></trkpt><trkpt lat="43.206055" lon="12.902995"><ele>942.0</ele><time>2026-03-22T12:43:01.382Z</time></trkpt><trkpt lat="43.2061517" lon="12.9030617"><ele>942.0</ele><time>2026-03-22T12:43:03.379Z</time></trkpt><trkpt lat="43.2062533" lon="12.9031583"><ele>942.0</ele><time>2026-03-22T12:43:05.374Z</time></trkpt><trkpt lat="43.2063383" lon="12.90327"><ele>942.0</ele><time>2026-03-22T12:43:07.383Z</time></trkpt><trkpt lat="43.206415" lon="12.9033933"><ele>942.0</ele><time>2026-03-22T12:43:09.375Z</time></trkpt><trkpt lat="43.2064483" lon="12.9034933"><ele>942.0</ele><time>2026-03-22T12:43:11.363Z</time></trkpt><trkpt lat="43.2064033" lon="12.9035933"><ele>942.0</ele><time>2026-03-22T12:43:14.421Z</time></trkpt><trkpt lat="43.2063367" lon="12.903615"><ele>940.6666666666666</ele><time>2026-03-22T12:43:17.367Z</time></trkpt><trkpt lat="43.2064033" lon="12.903695"><ele>939.3333333333333</ele><time>2026-03-22T12:43:24.367Z</time></trkpt><trkpt lat="43.206475" lon="12.90371"><ele>938.0</ele><time>2026-03-22T12:43:26.428Z</time></trkpt><trkpt lat="43.20655" lon="12.90373"><ele>936.6666666666666</ele><time>2026-03-22T12:43:28.367Z</time></trkpt><trkpt lat="43.2066367" lon="12.9037433"><ele>935.3333333333333</ele><time>2026-03-22T12:43:30.366Z</time></trkpt><trkpt lat="43.2067317" lon="12.9037483"><ele>934.0</ele><time>2026-03-22T12:43:32.426Z</time></trkpt><trkpt lat="43.2068367" lon="12.9037483"><ele>934.0</ele><time>2026-03-22T12:43:34.383Z</time></trkpt><trkpt lat="43.2069633" lon="12.9037533"><ele>934.0000000000001</ele><time>2026-03-22T12:43:36.366Z</time></trkpt><trkpt lat="43.2070283" lon="12.9037617"><ele>934.0000000000001</ele><time>2026-03-22T12:43:37.383Z</time></trkpt><trkpt lat="43.2071633" lon="12.9037917"><ele>934.0</ele><time>2026-03-22T12:43:39.382Z</time></trkpt><trkpt lat="43.2072333" lon="12.9038267"><ele>934.0</ele><time>2026-03-22T12:43:40.388Z</time></trkpt><trkpt lat="43.2073133" lon="12.9038717"><ele>935.1666666666666</ele><time>2026-03-22T12:43:41.381Z</time></trkpt><trkpt lat="43.2073967" lon="12.9039233"><ele>936.3333333333333</ele><time>2026-03-22T12:43:42.388Z</time></trkpt><trkpt lat="43.2074767" lon="12.9039767"><ele>937.5</ele><time>2026-03-22T12:43:43.379Z</time></trkpt><trkpt lat="43.2075567" lon="12.90403"><ele>938.6666666666667</ele><time>2026-03-22T12:43:44.436Z</time></trkpt><trkpt lat="43.2076367" lon="12.90407"><ele>939.8333333333334</ele><time>2026-03-22T12:43:45.383Z</time></trkpt><trkpt lat="43.2077067" lon="12.9041033"><ele>941.0</ele><time>2026-03-22T12:43:46.388Z</time></trkpt><trkpt lat="43.2077717" lon="12.9041233"><ele>941.0000000000001</ele><time>2026-03-22T12:43:47.383Z</time></trkpt><trkpt lat="43.2078333" lon="12.904155"><ele>941.0</ele><time>2026-03-22T12:43:48.387Z</time></trkpt><trkpt lat="43.2079" lon="12.9041867"><ele>941.0</ele><time>2026-03-22T12:43:49.37Z</time></trkpt><trkpt lat="43.2079683" lon="12.904205"><ele>941.0</ele><time>2026-03-22T12:43:50.439Z</time></trkpt><trkpt lat="43.2080333" lon="12.9042217"><ele>941.0000000000001</ele><time>2026-03-22T12:43:51.379Z</time></trkpt><trkpt lat="43.20816" lon="12.9042417"><ele>941.0</ele><time>2026-03-22T12:43:53.386Z</time></trkpt><trkpt lat="43.2082233" lon="12.9042467"><ele>934.8333333333334</ele><time>2026-03-22T12:43:54.388Z</time></trkpt><trkpt lat="43.20829" lon="12.90426"><ele>928.6666666666667</ele><time>2026-03-22T12:43:55.389Z</time></trkpt><trkpt lat="43.2083617" lon="12.9042733"><ele>922.5</ele><time>2026-03-22T12:43:56.438Z</time></trkpt><trkpt lat="43.2084367" lon="12.904275"><ele>916.3333333333333</ele><time>2026-03-22T12:43:57.384Z</time></trkpt><trkpt lat="43.2085167" lon="12.9042817"><ele>910.1666666666666</ele><time>2026-03-22T12:43:58.387Z</time></trkpt><trkpt lat="43.2086017" lon="12.90429"><ele>904.0</ele><time>2026-03-22T12:43:59.385Z</time></trkpt><trkpt lat="43.2086833" lon="12.904305"><ele>904.0</ele><time>2026-03-22T12:44:00.393Z</time></trkpt><trkpt lat="43.20875" lon="12.9043333"><ele>904.0000000000001</ele><time>2026-03-22T12:44:01.38Z</time></trkpt><trkpt lat="43.20884" lon="12.904405"><ele>904.0000000000001</ele><time>2026-03-22T12:44:03.377Z</time></trkpt><trkpt lat="43.2088967" lon="12.9044617"><ele>904.0</ele><time>2026-03-22T12:44:05.357Z</time></trkpt><trkpt lat="43.20897" lon="12.9045517"><ele>904.0</ele><time>2026-03-22T12:44:09.378Z</time></trkpt><trkpt lat="43.2090333" lon="12.9046783"><ele>906.3333333333333</ele><time>2026-03-22T12:44:11.364Z</time></trkpt><trkpt lat="43.2090933" lon="12.90481"><ele>908.6666666666666</ele><time>2026-03-22T12:44:13.382Z</time></trkpt><trkpt lat="43.2091483" lon="12.9049083"><ele>911.0</ele><time>2026-03-22T12:44:15.364Z</time></trkpt><trkpt lat="43.20919" lon="12.9050233"><ele>913.3333333333333</ele><time>2026-03-22T12:44:17.361Z</time></trkpt><trkpt lat="43.209225" lon="12.9051283"><ele>915.6666666666666</ele><time>2026-03-22T12:44:19.382Z</time></trkpt><trkpt lat="43.2092633" lon="12.9052"><ele>918.0</ele><time>2026-03-22T12:44:21.372Z</time></trkpt><trkpt lat="43.2092717" lon="12.9052967"><ele>918.0</ele><time>2026-03-22T12:44:23.361Z</time></trkpt><trkpt lat="43.2092617" lon="12.9054283"><ele>918.0</ele><time>2026-03-22T12:44:25.377Z</time></trkpt><trkpt lat="43.2092417" lon="12.9055383"><ele>918.0</ele><time>2026-03-22T12:44:27.382Z</time></trkpt><trkpt lat="43.2092283" lon="12.9056733"><ele>918.0</ele><time>2026-03-22T12:44:29.375Z</time></trkpt><trkpt lat="43.2092283" lon="12.9057633"><ele>918.0</ele><time>2026-03-22T12:44:30.391Z</time></trkpt><trkpt lat="43.2092367" lon="12.9058633"><ele>918.0</ele><time>2026-03-22T12:44:31.38Z</time></trkpt><trkpt lat="43.2092467" lon="12.9059583"><ele>916.0</ele><time>2026-03-22T12:44:32.432Z</time></trkpt><trkpt lat="43.2092567" lon="12.9060483"><ele>914.0</ele><time>2026-03-22T12:44:33.377Z</time></trkpt><trkpt lat="43.2092683" lon="12.9061333"><ele>912.0</ele><time>2026-03-22T12:44:34.385Z</time></trkpt><trkpt lat="43.2092883" lon="12.9062783"><ele>910.0</ele><time>2026-03-22T12:44:36.374Z</time></trkpt><trkpt lat="43.2092783" lon="12.90638"><ele>908.0</ele><time>2026-03-22T12:44:38.417Z</time></trkpt><trkpt lat="43.20926" lon="12.9065383"><ele>906.0</ele><time>2026-03-22T12:45:28.363Z</time></trkpt><trkpt lat="43.2092683" lon="12.906645"><ele>906.0</ele><time>2026-03-22T12:45:31.378Z</time></trkpt><trkpt lat="43.2092767" lon="12.9067367"><ele>905.9999999999999</ele><time>2026-03-22T12:45:34.376Z</time></trkpt><trkpt lat="43.20927" lon="12.9068483"><ele>905.9999999999999</ele><time>2026-03-22T12:45:36.375Z</time></trkpt><trkpt lat="43.2092433" lon="12.9069967"><ele>906.0</ele><time>2026-03-22T12:45:38.427Z</time></trkpt><trkpt lat="43.2092233" lon="12.9071817"><ele>906.0</ele><time>2026-03-22T12:45:40.384Z</time></trkpt><trkpt lat="43.2092217" lon="12.90728"><ele>906.0</ele><time>2026-03-22T12:45:41.379Z</time></trkpt><trkpt lat="43.2091967" lon="12.9074417"><ele>905.9999999999999</ele><time>2026-03-22T12:45:43.376Z</time></trkpt><trkpt lat="43.2091633" lon="12.907565"><ele>905.9999999999999</ele><time>2026-03-22T12:45:45.374Z</time></trkpt><trkpt lat="43.2091233" lon="12.9076717"><ele>906.0</ele><time>2026-03-22T12:45:47.368Z</time></trkpt><trkpt lat="43.2090783" lon="12.9077867"><ele>906.0</ele><time>2026-03-22T12:45:49.384Z</time></trkpt><trkpt lat="43.2090283" lon="12.9079383"><ele>905.9999999999999</ele><time>2026-03-22T12:45:51.379Z</time></trkpt><trkpt lat="43.2089983" lon="12.90802"><ele>906.0</ele><time>2026-03-22T12:45:52.386Z</time></trkpt><trkpt lat="43.2089667" lon="12.9081"><ele>905.9999999999999</ele><time>2026-03-22T12:45:53.383Z</time></trkpt><trkpt lat="43.208935" lon="12.9081833"><ele>905.9999999999999</ele><time>2026-03-22T12:45:54.384Z</time></trkpt><trkpt lat="43.2089083" lon="12.908265"><ele>906.0</ele><time>2026-03-22T12:45:55.387Z</time></trkpt><trkpt lat="43.2088817" lon="12.908345"><ele>905.9999999999999</ele><time>2026-03-22T12:45:56.435Z</time></trkpt><trkpt lat="43.2088217" lon="12.90847"><ele>905.9999999999999</ele><time>2026-03-22T12:45:58.388Z</time></trkpt><trkpt lat="43.2087767" lon="12.9085733"><ele>898.0</ele><time>2026-03-22T12:46:00.38Z</time></trkpt><trkpt lat="43.208745" lon="12.9086617"><ele>890.0</ele><time>2026-03-22T12:46:02.416Z</time></trkpt><trkpt lat="43.2087167" lon="12.908765"><ele>882.0</ele><time>2026-03-22T12:46:04.378Z</time></trkpt><trkpt lat="43.2086783" lon="12.9088833"><ele>874.0</ele><time>2026-03-22T12:46:06.385Z</time></trkpt><trkpt lat="43.20864" lon="12.908995"><ele>866.0</ele><time>2026-03-22T12:46:08.416Z</time></trkpt><trkpt lat="43.2086017" lon="12.9090883"><ele>858.0</ele><time>2026-03-22T12:46:10.357Z</time></trkpt><trkpt lat="43.2085483" lon="12.9091633"><ele>859.5</ele><time>2026-03-22T12:46:12.371Z</time></trkpt><trkpt lat="43.2084883" lon="12.9092433"><ele>861.0</ele><time>2026-03-22T12:46:14.411Z</time></trkpt><trkpt lat="43.2084367" lon="12.9093283"><ele>862.5</ele><time>2026-03-22T12:46:16.372Z</time></trkpt><trkpt lat="43.2083933" lon="12.90941"><ele>864.0</ele><time>2026-03-22T12:46:18.35Z</time></trkpt><trkpt lat="43.2083483" lon="12.909495"><ele>865.5</ele><time>2026-03-22T12:46:20.414Z</time></trkpt><trkpt lat="43.20833" lon="12.9096183"><ele>867.0</ele><time>2026-03-22T12:46:22.374Z</time></trkpt><trkpt lat="43.2083267" lon="12.9097383"><ele>867.0</ele><time>2026-03-22T12:46:24.376Z</time></trkpt><trkpt lat="43.2082583" lon="12.9098083"><ele>867.0</ele><time>2026-03-22T12:46:26.428Z</time></trkpt><trkpt lat="43.20818" lon="12.9098717"><ele>867.0</ele><time>2026-03-22T12:46:28.38Z</time></trkpt><trkpt lat="43.2081" lon="12.9099617"><ele>867.0</ele><time>2026-03-22T12:46:30.386Z</time></trkpt><trkpt lat="43.2080233" lon="12.910045"><ele>867.0</ele><time>2026-03-22T12:46:32.432Z</time></trkpt><trkpt lat="43.2079683" lon="12.91013"><ele>861.3333333333334</ele><time>2026-03-22T12:46:34.368Z</time></trkpt><trkpt lat="43.2079233" lon="12.9102083"><ele>855.6666666666667</ele><time>2026-03-22T12:46:36.376Z</time></trkpt><trkpt lat="43.2078783" lon="12.9102767"><ele>850.0</ele><time>2026-03-22T12:46:38.423Z</time></trkpt><trkpt lat="43.2078367" lon="12.910365"><ele>844.3333333333334</ele><time>2026-03-22T12:46:40.38Z</time></trkpt><trkpt lat="43.207785" lon="12.9104667"><ele>838.6666666666667</ele><time>2026-03-22T12:46:42.378Z</time></trkpt><trkpt lat="43.20774" lon="12.91057"><ele>833.0</ele><time>2026-03-22T12:46:44.418Z</time></trkpt><trkpt lat="43.2077067" lon="12.9106833"><ele>833.0000000000001</ele><time>2026-03-22T12:46:46.383Z</time></trkpt><trkpt lat="43.2076767" lon="12.9107783"><ele>833.0</ele><time>2026-03-22T12:46:48.372Z</time></trkpt><trkpt lat="43.2076383" lon="12.91087"><ele>833.0</ele><time>2026-03-22T12:46:50.43Z</time></trkpt><trkpt lat="43.2076033" lon="12.910985"><ele>833.0</ele><time>2026-03-22T12:46:52.375Z</time></trkpt><trkpt lat="43.2075717" lon="12.9111067"><ele>833.0000000000001</ele><time>2026-03-22T12:46:54.376Z</time></trkpt><trkpt lat="43.2075183" lon="12.9112133"><ele>833.0</ele><time>2026-03-22T12:46:56.436Z</time></trkpt><trkpt lat="43.2074583" lon="12.9113283"><ele>836.8</ele><time>2026-03-22T12:46:58.38Z</time></trkpt><trkpt lat="43.207395" lon="12.911435"><ele>840.5999999999999</ele><time>2026-03-22T12:47:00.378Z</time></trkpt><trkpt lat="43.2073033" lon="12.91152"><ele>844.4000000000001</ele><time>2026-03-22T12:47:02.428Z</time></trkpt><trkpt lat="43.2072017" lon="12.9115917"><ele>848.2</ele><time>2026-03-22T12:47:04.358Z</time></trkpt><trkpt lat="43.2071383" lon="12.9116167"><ele>852.0</ele><time>2026-03-22T12:47:05.366Z</time></trkpt><trkpt lat="43.207075" lon="12.91166"><ele>847.0</ele><time>2026-03-22T12:47:06.38Z</time></trkpt><trkpt lat="43.2070167" lon="12.9116967"><ele>842.0</ele><time>2026-03-22T12:47:07.376Z</time></trkpt><trkpt lat="43.20691" lon="12.9117867"><ele>837.0</ele><time>2026-03-22T12:47:09.38Z</time></trkpt><trkpt lat="43.2068583" lon="12.9118383"><ele>832.0</ele><time>2026-03-22T12:47:10.382Z</time></trkpt><trkpt lat="43.20676" lon="12.9119417"><ele>827.0</ele><time>2026-03-22T12:47:12.384Z</time></trkpt><trkpt lat="43.2066767" lon="12.912035"><ele>827.0000000000001</ele><time>2026-03-22T12:47:14.429Z</time></trkpt><trkpt lat="43.2066217" lon="12.9121217"><ele>827.0</ele><time>2026-03-22T12:47:16.384Z</time></trkpt><trkpt lat="43.206575" lon="12.912215"><ele>827.0</ele><time>2026-03-22T12:47:19.36Z</time></trkpt><trkpt lat="43.2065033" lon="12.912305"><ele>827.0</ele><time>2026-03-22T12:47:25.375Z</time></trkpt><trkpt lat="43.2064667" lon="12.9124017"><ele>827.0000000000001</ele><time>2026-03-22T12:47:27.376Z</time></trkpt><trkpt lat="43.2064467" lon="12.912515"><ele>827.0</ele><time>2026-03-22T12:47:29.376Z</time></trkpt><trkpt lat="43.2064417" lon="12.912645"><ele>822.2</ele><time>2026-03-22T12:47:31.384Z</time></trkpt><trkpt lat="43.20645" lon="12.9127783"><ele>817.4000000000001</ele><time>2026-03-22T12:47:33.374Z</time></trkpt><trkpt lat="43.2064717" lon="12.9128883"><ele>812.5999999999999</ele><time>2026-03-22T12:47:35.362Z</time></trkpt><trkpt lat="43.206445" lon="12.9130233"><ele>807.8</ele><time>2026-03-22T12:47:38.432Z</time></trkpt><trkpt lat="43.206385" lon="12.9131067"><ele>803.0</ele><time>2026-03-22T12:47:40.377Z</time></trkpt><trkpt lat="43.2063233" lon="12.91321"><ele>803.0</ele><time>2026-03-22T12:47:42.371Z</time></trkpt><trkpt lat="43.20625" lon="12.9133017"><ele>803.0</ele><time>2026-03-22T12:47:44.433Z</time></trkpt><trkpt lat="43.2061733" lon="12.9133567"><ele>803.0</ele><time>2026-03-22T12:47:46.366Z</time></trkpt><trkpt lat="43.20611" lon="12.9133967"><ele>803.0</ele><time>2026-03-22T12:47:48.374Z</time></trkpt><trkpt lat="43.2059833" lon="12.9134667"><ele>803.0</ele><time>2026-03-22T12:48:04.378Z</time></trkpt><trkpt lat="43.20591" lon="12.9134867"><ele>803.6666666666667</ele><time>2026-03-22T12:48:18.38Z</time></trkpt><trkpt lat="43.2058233" lon="12.9135317"><ele>804.3333333333334</ele><time>2026-03-22T12:48:22.374Z</time></trkpt><trkpt lat="43.2057583" lon="12.9135667"><ele>805.0</ele><time>2026-03-22T12:48:24.379Z</time></trkpt><trkpt lat="43.2057" lon="12.913605"><ele>805.6666666666667</ele><time>2026-03-22T12:48:26.416Z</time></trkpt><trkpt lat="43.2056233" lon="12.913645"><ele>806.3333333333334</ele><time>2026-03-22T12:48:28.366Z</time></trkpt><trkpt lat="43.2055283" lon="12.91373"><ele>807.0</ele><time>2026-03-22T12:48:30.379Z</time></trkpt><trkpt lat="43.2054333" lon="12.9138183"><ele>807.0</ele><time>2026-03-22T12:48:32.427Z</time></trkpt><trkpt lat="43.205375" lon="12.913875"><ele>807.0</ele><time>2026-03-22T12:48:33.372Z</time></trkpt><trkpt lat="43.2053067" lon="12.913945"><ele>807.0</ele><time>2026-03-22T12:48:34.374Z</time></trkpt><trkpt lat="43.2052283" lon="12.9140267"><ele>807.0</ele><time>2026-03-22T12:48:35.379Z</time></trkpt><trkpt lat="43.205135" lon="12.9141217"><ele>807.0</ele><time>2026-03-22T12:48:36.362Z</time></trkpt><trkpt lat="43.2050517" lon="12.9141917"><ele>807.0</ele><time>2026-03-22T12:48:37.374Z</time></trkpt><trkpt lat="43.2049667" lon="12.9142483"><ele>807.0</ele><time>2026-03-22T12:48:38.426Z</time></trkpt><trkpt lat="43.204875" lon="12.9143017"><ele>807.0</ele><time>2026-03-22T12:48:39.373Z</time></trkpt><trkpt lat="43.2047967" lon="12.91433"><ele>807.0</ele><time>2026-03-22T12:48:40.371Z</time></trkpt><trkpt lat="43.2047333" lon="12.9143583"><ele>807.0</ele><time>2026-03-22T12:48:41.379Z</time></trkpt><trkpt lat="43.2046667" lon="12.9143867"><ele>807.0</ele><time>2026-03-22T12:48:42.377Z</time></trkpt><trkpt lat="43.204605" lon="12.91442"><ele>807.0</ele><time>2026-03-22T12:48:43.376Z</time></trkpt><trkpt lat="43.2045467" lon="12.9144583"><ele>807.0</ele><time>2026-03-22T12:48:44.418Z</time></trkpt><trkpt lat="43.2044367" lon="12.9145117"><ele>807.0</ele><time>2026-03-22T12:48:46.375Z</time></trkpt><trkpt lat="43.2043733" lon="12.9145517"><ele>807.0</ele><time>2026-03-22T12:48:47.371Z</time></trkpt><trkpt lat="43.20431" lon="12.9146033"><ele>807.0</ele><time>2026-03-22T12:48:48.381Z</time></trkpt><trkpt lat="43.2042483" lon="12.9146633"><ele>807.0</ele><time>2026-03-22T12:48:49.375Z</time></trkpt><trkpt lat="43.2041967" lon="12.91472"><ele>807.0</ele><time>2026-03-22T12:48:50.419Z</time></trkpt><trkpt lat="43.204125" lon="12.91481"><ele>807.0</ele><time>2026-03-22T12:48:52.375Z</time></trkpt><trkpt lat="43.20408" lon="12.9148767"><ele>807.0</ele><time>2026-03-22T12:48:54.38Z</time></trkpt><trkpt lat="43.2040183" lon="12.914955"><ele>807.0</ele><time>2026-03-22T12:48:56.432Z</time></trkpt><trkpt lat="43.203935" lon="12.915065"><ele>807.0</ele><time>2026-03-22T12:48:58.374Z</time></trkpt><trkpt lat="43.2038633" lon="12.9151633"><ele>808.6666666666666</ele><time>2026-03-22T12:49:00.372Z</time></trkpt><trkpt lat="43.2038" lon="12.9152583"><ele>810.3333333333333</ele><time>2026-03-22T12:49:02.411Z</time></trkpt><trkpt lat="43.2037083" lon="12.91532"><ele>812.0</ele><time>2026-03-22T12:49:05.377Z</time></trkpt><trkpt lat="43.2036033" lon="12.91534"><ele>813.6666666666666</ele><time>2026-03-22T12:49:07.371Z</time></trkpt><trkpt lat="43.2035383" lon="12.9153517"><ele>815.3333333333333</ele><time>2026-03-22T12:49:08.426Z</time></trkpt><trkpt lat="43.2034717" lon="12.9153517"><ele>817.0</ele><time>2026-03-22T12:49:09.373Z</time></trkpt><trkpt lat="43.2034" lon="12.91535"><ele>816.9999999999999</ele><time>2026-03-22T12:49:10.368Z</time></trkpt><trkpt lat="43.203285" lon="12.91535"><ele>817.0</ele><time>2026-03-22T12:49:12.371Z</time></trkpt><trkpt lat="43.2032183" lon="12.9153783"><ele>817.0</ele><time>2026-03-22T12:49:13.372Z</time></trkpt><trkpt lat="43.2031317" lon="12.9153933"><ele>817.0</ele><time>2026-03-22T12:49:15.372Z</time></trkpt><trkpt lat="43.2030667" lon="12.9154133"><ele>816.9999999999999</ele><time>2026-03-22T12:49:17.365Z</time></trkpt><trkpt lat="43.2030033" lon="12.9154183"><ele>817.0</ele><time>2026-03-22T12:49:19.374Z</time></trkpt><trkpt lat="43.2029283" lon="12.9154117"><ele>816.8571428571428</ele><time>2026-03-22T12:49:21.38Z</time></trkpt><trkpt lat="43.20286" lon="12.91539"><ele>816.7142857142857</ele><time>2026-03-22T12:49:23.375Z</time></trkpt><trkpt lat="43.2027967" lon="12.9153733"><ele>816.5714285714286</ele><time>2026-03-22T12:49:25.374Z</time></trkpt><trkpt lat="43.202735" lon="12.915345"><ele>816.4285714285713</ele><time>2026-03-22T12:49:27.359Z</time></trkpt><trkpt lat="43.2026633" lon="12.9153183"><ele>816.2857142857143</ele><time>2026-03-22T12:49:29.383Z</time></trkpt><trkpt lat="43.2025833" lon="12.91528"><ele>816.1428571428571</ele><time>2026-03-22T12:49:31.375Z</time></trkpt><trkpt lat="43.2025167" lon="12.9152117"><ele>816.0</ele><time>2026-03-22T12:49:33.371Z</time></trkpt><trkpt lat="43.2024417" lon="12.9151467"><ele>808.0</ele><time>2026-03-22T12:49:35.372Z</time></trkpt><trkpt lat="43.2023483" lon="12.91507"><ele>800.0</ele><time>2026-03-22T12:49:37.372Z</time></trkpt><trkpt lat="43.202265" lon="12.9149983"><ele>792.0</ele><time>2026-03-22T12:49:39.359Z</time></trkpt><trkpt lat="43.2021783" lon="12.9149083"><ele>784.0</ele><time>2026-03-22T12:49:41.373Z</time></trkpt><trkpt lat="43.20209" lon="12.914835"><ele>776.0</ele><time>2026-03-22T12:49:43.376Z</time></trkpt><trkpt lat="43.2020017" lon="12.9147817"><ele>776.0000000000001</ele><time>2026-03-22T12:49:45.369Z</time></trkpt><trkpt lat="43.2019183" lon="12.9147333"><ele>776.0</ele><time>2026-03-22T12:49:47.375Z</time></trkpt><trkpt lat="43.2018417" lon="12.9146783"><ele>776.0</ele><time>2026-03-22T12:49:49.359Z</time></trkpt><trkpt lat="43.2017633" lon="12.914645"><ele>776.0</ele><time>2026-03-22T12:49:51.36Z</time></trkpt><trkpt lat="43.2016983" lon="12.91461"><ele>776.0000000000001</ele><time>2026-03-22T12:49:53.377Z</time></trkpt><trkpt lat="43.20163" lon="12.9145817"><ele>776.0</ele><time>2026-03-22T12:49:55.37Z</time></trkpt><trkpt lat="43.201565" lon="12.9145383"><ele>776.0000000000001</ele><time>2026-03-22T12:49:57.359Z</time></trkpt><trkpt lat="43.201495" lon="12.914485"><ele>776.0</ele><time>2026-03-22T12:49:59.374Z</time></trkpt><trkpt lat="43.2014367" lon="12.914415"><ele>776.0</ele><time>2026-03-22T12:50:01.375Z</time></trkpt><trkpt lat="43.20137" lon="12.914355"><ele>776.0</ele><time>2026-03-22T12:50:03.363Z</time></trkpt><trkpt lat="43.2012933" lon="12.914315"><ele>776.0000000000001</ele><time>2026-03-22T12:50:05.381Z</time></trkpt><trkpt lat="43.20122" lon="12.9142683"><ele>776.0</ele><time>2026-03-22T12:50:07.361Z</time></trkpt><trkpt lat="43.20114" lon="12.9142167"><ele>768.1666666666667</ele><time>2026-03-22T12:50:09.374Z</time></trkpt><trkpt lat="43.201065" lon="12.914155"><ele>760.3333333333334</ele><time>2026-03-22T12:50:11.377Z</time></trkpt><trkpt lat="43.201" lon="12.9140967"><ele>752.5</ele><time>2026-03-22T12:50:13.373Z</time></trkpt><trkpt lat="43.2009383" lon="12.9140517"><ele>744.6666666666667</ele><time>2026-03-22T12:50:15.362Z</time></trkpt><trkpt lat="43.20085" lon="12.9140283"><ele>736.8333333333334</ele><time>2026-03-22T12:50:17.376Z</time></trkpt><trkpt lat="43.200775" lon="12.91401"><ele>729.0</ele><time>2026-03-22T12:50:19.376Z</time></trkpt><trkpt lat="43.20069" lon="12.9139967"><ele>728.3333333333334</ele><time>2026-03-22T12:50:22.377Z</time></trkpt><trkpt lat="43.2006167" lon="12.9139467"><ele>727.6666666666666</ele><time>2026-03-22T12:50:24.382Z</time></trkpt><trkpt lat="43.20054" lon="12.9139067"><ele>727.0</ele><time>2026-03-22T12:50:26.434Z</time></trkpt><trkpt lat="43.200465" lon="12.9139067"><ele>726.3333333333333</ele><time>2026-03-22T12:50:28.372Z</time></trkpt><trkpt lat="43.20039" lon="12.91392"><ele>725.6666666666666</ele><time>2026-03-22T12:50:30.37Z</time></trkpt><trkpt lat="43.20031" lon="12.9139033"><ele>725.0</ele><time>2026-03-22T12:50:32.424Z</time></trkpt><trkpt lat="43.200245" lon="12.9138667"><ele>725.0</ele><time>2026-03-22T12:50:34.362Z</time></trkpt><trkpt lat="43.2001833" lon="12.9138417"><ele>725.0</ele><time>2026-03-22T12:50:36.376Z</time></trkpt><trkpt lat="43.2001133" lon="12.91381"><ele>725.0</ele><time>2026-03-22T12:50:38.423Z</time></trkpt><trkpt lat="43.2000267" lon="12.9137817"><ele>725.0</ele><time>2026-03-22T12:50:40.377Z</time></trkpt><trkpt lat="43.199945" lon="12.9137567"><ele>725.0</ele><time>2026-03-22T12:50:42.371Z</time></trkpt><trkpt lat="43.1998583" lon="12.9137383"><ele>725.0</ele><time>2026-03-22T12:50:44.42Z</time></trkpt><trkpt lat="43.1997717" lon="12.9137133"><ele>721.8333333333333</ele><time>2026-03-22T12:50:46.365Z</time></trkpt><trkpt lat="43.1996783" lon="12.91369"><ele>718.6666666666666</ele><time>2026-03-22T12:50:48.372Z</time></trkpt><trkpt lat="43.1996067" lon="12.9136417"><ele>715.5</ele><time>2026-03-22T12:50:50.425Z</time></trkpt><trkpt lat="43.1995367" lon="12.9136033"><ele>712.3333333333334</ele><time>2026-03-22T12:50:52.376Z</time></trkpt><trkpt lat="43.1994533" lon="12.9135683"><ele>709.1666666666667</ele><time>2026-03-22T12:50:55.378Z</time></trkpt><trkpt lat="43.19939" lon="12.9135183"><ele>706.0</ele><time>2026-03-22T12:50:57.366Z</time></trkpt><trkpt lat="43.1993117" lon="12.9134517"><ele>701.1666666666667</ele><time>2026-03-22T12:50:59.375Z</time></trkpt><trkpt lat="43.1992383" lon="12.913405"><ele>696.3333333333334</ele><time>2026-03-22T12:51:01.378Z</time></trkpt><trkpt lat="43.1991683" lon="12.913365"><ele>691.5</ele><time>2026-03-22T12:51:03.375Z</time></trkpt><trkpt lat="43.199065" lon="12.9133"><ele>686.6666666666666</ele><time>2026-03-22T12:51:05.378Z</time></trkpt><trkpt lat="43.1990083" lon="12.9132617"><ele>681.8333333333333</ele><time>2026-03-22T12:51:06.378Z</time></trkpt><trkpt lat="43.19891" lon="12.9132033"><ele>677.0</ele><time>2026-03-22T12:51:08.425Z</time></trkpt><trkpt lat="43.19882" lon="12.9131783"><ele>673.8333333333333</ele><time>2026-03-22T12:51:10.362Z</time></trkpt><trkpt lat="43.1987183" lon="12.9131417"><ele>670.6666666666666</ele><time>2026-03-22T12:51:12.38Z</time></trkpt><trkpt lat="43.19863" lon="12.9131317"><ele>667.5</ele><time>2026-03-22T12:51:14.423Z</time></trkpt><trkpt lat="43.1985517" lon="12.9131317"><ele>664.3333333333334</ele><time>2026-03-22T12:51:16.374Z</time></trkpt><trkpt lat="43.198465" lon="12.9131367"><ele>661.1666666666667</ele><time>2026-03-22T12:51:18.381Z</time></trkpt><trkpt lat="43.198375" lon="12.9131417"><ele>658.0</ele><time>2026-03-22T12:51:20.413Z</time></trkpt><trkpt lat="43.19829" lon="12.91314"><ele>658.0</ele><time>2026-03-22T12:51:22.374Z</time></trkpt><trkpt lat="43.198195" lon="12.91316"><ele>658.0</ele><time>2026-03-22T12:51:24.372Z</time></trkpt><trkpt lat="43.198115" lon="12.9131867"><ele>658.0</ele><time>2026-03-22T12:51:26.437Z</time></trkpt><trkpt lat="43.198035" lon="12.9132267"><ele>658.0</ele><time>2026-03-22T12:51:29.379Z</time></trkpt><trkpt lat="43.1979833" lon="12.9132783"><ele>658.0</ele><time>2026-03-22T12:51:32.419Z</time></trkpt><trkpt lat="43.197915" lon="12.9133433"><ele>658.0</ele><time>2026-03-22T12:51:36.378Z</time></trkpt><trkpt lat="43.1978667" lon="12.9134117"><ele>652.5</ele><time>2026-03-22T12:51:40.361Z</time></trkpt><trkpt lat="43.1978017" lon="12.9134617"><ele>647.0</ele><time>2026-03-22T12:51:44.419Z</time></trkpt><trkpt lat="43.1977433" lon="12.9135033"><ele>641.5</ele><time>2026-03-22T12:51:47.361Z</time></trkpt><trkpt lat="43.1976817" lon="12.9135883"><ele>636.0</ele><time>2026-03-22T12:51:51.377Z</time></trkpt><trkpt lat="43.1976633" lon="12.91368"><ele>630.5</ele><time>2026-03-22T12:51:54.379Z</time></trkpt><trkpt lat="43.1976467" lon="12.9137917"><ele>625.0</ele><time>2026-03-22T12:51:57.359Z</time></trkpt><trkpt lat="43.19766" lon="12.913905"><ele>625.0</ele><time>2026-03-22T12:52:00.378Z</time></trkpt><trkpt lat="43.1976717" lon="12.9140083"><ele>625.0</ele><time>2026-03-22T12:52:04.377Z</time></trkpt><trkpt lat="43.1976517" lon="12.9141383"><ele>625.0</ele><time>2026-03-22T12:52:11.379Z</time></trkpt><trkpt lat="43.197625" lon="12.9142233"><ele>625.0</ele><time>2026-03-22T12:52:13.377Z</time></trkpt><trkpt lat="43.1976133" lon="12.914315"><ele>625.0</ele><time>2026-03-22T12:52:16.375Z</time></trkpt><trkpt lat="43.19759" lon="12.9144233"><ele>625.0</ele><time>2026-03-22T12:52:19.362Z</time></trkpt><trkpt lat="43.1975483" lon="12.9145217"><ele>624.4</ele><time>2026-03-22T12:52:22.337Z</time></trkpt><trkpt lat="43.1975233" lon="12.914605"><ele>623.8</ele><time>2026-03-22T12:52:24.34Z</time></trkpt><trkpt lat="43.1975017" lon="12.9147017"><ele>623.2</ele><time>2026-03-22T12:52:26.414Z</time></trkpt><trkpt lat="43.1974033" lon="12.91478"><ele>622.6</ele><time>2026-03-22T12:52:28.35Z</time></trkpt><trkpt lat="43.1973317" lon="12.914825"><ele>622.0</ele><time>2026-03-22T12:52:30.356Z</time></trkpt><trkpt lat="43.1971817" lon="12.9149033"><ele>616.3333333333334</ele><time>2026-03-22T12:52:43.361Z</time></trkpt><trkpt lat="43.1971083" lon="12.91489"><ele>610.6666666666667</ele><time>2026-03-22T12:52:45.36Z</time></trkpt><trkpt lat="43.19702" lon="12.9148683"><ele>605.0</ele><time>2026-03-22T12:52:48.377Z</time></trkpt><trkpt lat="43.1969567" lon="12.91487"><ele>599.3333333333334</ele><time>2026-03-22T12:52:50.423Z</time></trkpt><trkpt lat="43.19691" lon="12.9149783"><ele>593.6666666666666</ele><time>2026-03-22T12:52:58.374Z</time></trkpt><trkpt lat="43.19688" lon="12.9151483"><ele>588.0</ele><time>2026-03-22T12:53:14.403Z</time></trkpt><trkpt lat="43.196855" lon="12.915275"><ele>588.0</ele><time>2026-03-22T12:53:17.37Z</time></trkpt><trkpt lat="43.1968367" lon="12.915365"><ele>588.0</ele><time>2026-03-22T12:53:19.363Z</time></trkpt><trkpt lat="43.19683" lon="12.9154517"><ele>588.0</ele><time>2026-03-22T12:53:22.374Z</time></trkpt><trkpt lat="43.1968033" lon="12.9155317"><ele>588.0</ele><time>2026-03-22T12:53:25.363Z</time></trkpt><trkpt lat="43.1967467" lon="12.9155833"><ele>588.0</ele><time>2026-03-22T12:53:27.376Z</time></trkpt><trkpt lat="43.1966683" lon="12.91563"><ele>588.0</ele><time>2026-03-22T12:53:29.376Z</time></trkpt><trkpt lat="43.1966067" lon="12.915655"><ele>588.0</ele><time>2026-03-22T12:53:31.381Z</time></trkpt><trkpt lat="43.1965233" lon="12.9156567"><ele>585.1666666666666</ele><time>2026-03-22T12:53:34.374Z</time></trkpt><trkpt lat="43.1964567" lon="12.9156483"><ele>582.3333333333334</ele><time>2026-03-22T12:53:36.36Z</time></trkpt><trkpt lat="43.1963917" lon="12.9156533"><ele>579.5</ele><time>2026-03-22T12:53:38.419Z</time></trkpt><trkpt lat="43.1963167" lon="12.915645"><ele>576.6666666666667</ele><time>2026-03-22T12:53:41.377Z</time></trkpt><trkpt lat="43.196235" lon="12.9155917"><ele>573.8333333333334</ele><time>2026-03-22T12:53:44.418Z</time></trkpt><trkpt lat="43.1961483" lon="12.91554"><ele>571.0</ele><time>2026-03-22T12:53:47.376Z</time></trkpt><trkpt lat="43.1960767" lon="12.915515"><ele>571.0</ele><time>2026-03-22T12:53:49.377Z</time></trkpt><trkpt lat="43.1959883" lon="12.9155067"><ele>571.0</ele><time>2026-03-22T12:53:51.373Z</time></trkpt><trkpt lat="43.1958917" lon="12.9154867"><ele>571.0</ele><time>2026-03-22T12:53:53.354Z</time></trkpt><trkpt lat="43.1958" lon="12.91546"><ele>571.0</ele><time>2026-03-22T12:53:55.357Z</time></trkpt><trkpt lat="43.1957283" lon="12.9154167"><ele>571.0</ele><time>2026-03-22T12:53:57.356Z</time></trkpt><trkpt lat="43.1956533" lon="12.9153783"><ele>571.0</ele><time>2026-03-22T12:54:00.374Z</time></trkpt><trkpt lat="43.1955767" lon="12.9153883"><ele>568.2</ele><time>2026-03-22T12:54:04.379Z</time></trkpt><trkpt lat="43.19552" lon="12.9152317"><ele>565.4000000000001</ele><time>2026-03-22T12:54:46.361Z</time></trkpt><trkpt lat="43.1955733" lon="12.9151183"><ele>562.6</ele><time>2026-03-22T12:54:49.378Z</time></trkpt><trkpt lat="43.19561" lon="12.9150283"><ele>559.8000000000001</ele><time>2026-03-22T12:54:51.379Z</time></trkpt><trkpt lat="43.1956633" lon="12.91492"><ele>557.0</ele><time>2026-03-22T12:54:57.365Z</time></trkpt><trkpt lat="43.1956367" lon="12.9148283"><ele>554.0</ele><time>2026-03-22T12:54:59.377Z</time></trkpt><trkpt lat="43.1955933" lon="12.914705"><ele>551.0</ele><time>2026-03-22T12:55:01.38Z</time></trkpt><trkpt lat="43.1956183" lon="12.9145383"><ele>548.0</ele><time>2026-03-22T12:55:03.371Z</time></trkpt><trkpt lat="43.1956533" lon="12.914415"><ele>545.0</ele><time>2026-03-22T12:55:04.38Z</time></trkpt><trkpt lat="43.1956883" lon="12.9142817"><ele>542.0</ele><time>2026-03-22T12:55:05.38Z</time></trkpt><trkpt lat="43.19572" lon="12.9141333"><ele>541.0</ele><time>2026-03-22T12:55:06.37Z</time></trkpt><trkpt lat="43.1957367" lon="12.913995"><ele>540.0</ele><time>2026-03-22T12:55:07.383Z</time></trkpt><trkpt lat="43.1957533" lon="12.91387"><ele>539.0</ele><time>2026-03-22T12:55:08.424Z</time></trkpt><trkpt lat="43.195755" lon="12.913745"><ele>538.0</ele><time>2026-03-22T12:55:09.378Z</time></trkpt><trkpt lat="43.195755" lon="12.9136267"><ele>537.0</ele><time>2026-03-22T12:55:10.385Z</time></trkpt><trkpt lat="43.19576" lon="12.91351"><ele>536.5</ele><time>2026-03-22T12:55:11.385Z</time></trkpt><trkpt lat="43.195765" lon="12.9133967"><ele>536.0</ele><time>2026-03-22T12:55:12.385Z</time></trkpt><trkpt lat="43.1957683" lon="12.91329"><ele>535.5</ele><time>2026-03-22T12:55:13.381Z</time></trkpt><trkpt lat="43.195765" lon="12.9131833"><ele>535.0</ele><time>2026-03-22T12:55:14.421Z</time></trkpt><trkpt lat="43.1957567" lon="12.91308"><ele>534.5</ele><time>2026-03-22T12:55:15.381Z</time></trkpt><trkpt lat="43.19574" lon="12.9129667"><ele>534.0</ele><time>2026-03-22T12:55:17.386Z</time></trkpt><trkpt lat="43.1956617" lon="12.912895"><ele>528.5</ele><time>2026-03-22T12:55:19.363Z</time></trkpt><trkpt lat="43.195605" lon="12.912855"><ele>523.0</ele><time>2026-03-22T12:55:20.425Z</time></trkpt><trkpt lat="43.1955517" lon="12.9128083"><ele>517.5</ele><time>2026-03-22T12:55:21.384Z</time></trkpt><trkpt lat="43.195465" lon="12.9127683"><ele>512.0</ele><time>2026-03-22T12:55:23.385Z</time></trkpt><trkpt lat="43.1953883" lon="12.9127167"><ele>506.5</ele><time>2026-03-22T12:55:25.364Z</time></trkpt><trkpt lat="43.195305" lon="12.91266"><ele>501.0</ele><time>2026-03-22T12:55:27.375Z</time></trkpt><trkpt lat="43.1952183" lon="12.91265"><ele>501.0</ele><time>2026-03-22T12:55:30.374Z</time></trkpt><trkpt lat="43.1951317" lon="12.91269"><ele>501.0</ele><time>2026-03-22T12:55:32.402Z</time></trkpt><trkpt lat="43.195015" lon="12.9127"><ele>501.0</ele><time>2026-03-22T12:55:34.373Z</time></trkpt><trkpt lat="43.194945" lon="12.912705"><ele>501.0</ele><time>2026-03-22T12:55:35.377Z</time></trkpt><trkpt lat="43.1948733" lon="12.9127233"><ele>501.0</ele><time>2026-03-22T12:55:36.363Z</time></trkpt><trkpt lat="43.1948083" lon="12.9127517"><ele>501.0</ele><time>2026-03-22T12:55:37.376Z</time></trkpt><trkpt lat="43.1947467" lon="12.91279"><ele>498.7142857142857</ele><time>2026-03-22T12:55:38.425Z</time></trkpt><trkpt lat="43.194685" lon="12.9128333"><ele>496.42857142857144</ele><time>2026-03-22T12:55:39.377Z</time></trkpt><trkpt lat="43.1946267" lon="12.912875"><ele>494.14285714285717</ele><time>2026-03-22T12:55:40.386Z</time></trkpt><trkpt lat="43.1945667" lon="12.9129183"><ele>491.8571428571429</ele><time>2026-03-22T12:55:41.39Z</time></trkpt><trkpt lat="43.1945" lon="12.91295"><ele>489.57142857142856</ele><time>2026-03-22T12:55:42.387Z</time></trkpt><trkpt lat="43.194425" lon="12.9129767"><ele>487.28571428571433</ele><time>2026-03-22T12:55:43.383Z</time></trkpt><trkpt lat="43.1943333" lon="12.9129833"><ele>485.00000000000006</ele><time>2026-03-22T12:55:44.426Z</time></trkpt><trkpt lat="43.194235" lon="12.91295"><ele>485.0</ele><time>2026-03-22T12:55:45.37Z</time></trkpt><trkpt lat="43.194115" lon="12.9128783"><ele>485.0</ele><time>2026-03-22T12:55:46.385Z</time></trkpt><trkpt lat="43.19401" lon="12.9128117"><ele>485.0</ele><time>2026-03-22T12:55:47.387Z</time></trkpt><trkpt lat="43.1939067" lon="12.9127517"><ele>485.0</ele><time>2026-03-22T12:55:48.387Z</time></trkpt><trkpt lat="43.1938133" lon="12.9126783"><ele>482.99999999999994</ele><time>2026-03-22T12:55:49.384Z</time></trkpt><trkpt lat="43.193725" lon="12.9126033"><ele>481.0</ele><time>2026-03-22T12:55:50.427Z</time></trkpt><trkpt lat="43.1936517" lon="12.9125333"><ele>479.0</ele><time>2026-03-22T12:55:51.386Z</time></trkpt><trkpt lat="43.1935783" lon="12.9124767"><ele>477.0</ele><time>2026-03-22T12:55:52.386Z</time></trkpt><trkpt lat="43.1935117" lon="12.91242"><ele>474.99999999999994</ele><time>2026-03-22T12:55:53.382Z</time></trkpt><trkpt lat="43.19346" lon="12.9123617"><ele>473.0</ele><time>2026-03-22T12:55:54.386Z</time></trkpt><trkpt lat="43.19341" lon="12.9122517"><ele>472.0</ele><time>2026-03-22T12:55:56.423Z</time></trkpt><trkpt lat="43.1934833" lon="12.91215"><ele>470.99999999999994</ele><time>2026-03-22T12:55:58.369Z</time></trkpt><trkpt lat="43.1935533" lon="12.9121067"><ele>469.99999999999994</ele><time>2026-03-22T12:55:59.384Z</time></trkpt><trkpt lat="43.1936817" lon="12.9120283"><ele>469.0</ele><time>2026-03-22T12:56:01.383Z</time></trkpt><trkpt lat="43.19378" lon="12.9119667"><ele>468.0</ele><time>2026-03-22T12:56:03.385Z</time></trkpt><trkpt lat="43.1938533" lon="12.9119083"><ele>468.0</ele><time>2026-03-22T12:56:05.365Z</time></trkpt><trkpt lat="43.193805" lon="12.9118383"><ele>468.0</ele><time>2026-03-22T12:56:08.406Z</time></trkpt><trkpt lat="43.1937267" lon="12.911855"><ele>468.0</ele><time>2026-03-22T12:56:09.362Z</time></trkpt><trkpt lat="43.1936067" lon="12.9119133"><ele>468.0</ele><time>2026-03-22T12:56:10.367Z</time></trkpt><trkpt lat="43.193455" lon="12.9120267"><ele>468.0</ele><time>2026-03-22T12:56:11.352Z</time></trkpt><trkpt lat="43.193325" lon="12.9121433"><ele>468.0</ele><time>2026-03-22T12:56:12.36Z</time></trkpt><trkpt lat="43.19321" lon="12.9122517"><ele>468.0</ele><time>2026-03-22T12:56:13.375Z</time></trkpt><trkpt lat="43.193115" lon="12.9123583"><ele>468.0</ele><time>2026-03-22T12:56:14.425Z</time></trkpt><trkpt lat="43.19303" lon="12.91246"><ele>467.0</ele><time>2026-03-22T12:56:15.374Z</time></trkpt><trkpt lat="43.1929417" lon="12.9125583"><ele>466.0</ele><time>2026-03-22T12:56:16.379Z</time></trkpt><trkpt lat="43.1928533" lon="12.9126583"><ele>465.0</ele><time>2026-03-22T12:56:17.363Z</time></trkpt><trkpt lat="43.1927583" lon="12.91276"><ele>464.0</ele><time>2026-03-22T12:56:18.369Z</time></trkpt><trkpt lat="43.1926667" lon="12.912865"><ele>464.0</ele><time>2026-03-22T12:56:19.386Z</time></trkpt><trkpt lat="43.192575" lon="12.9129683"><ele>464.0</ele><time>2026-03-22T12:56:20.406Z</time></trkpt><trkpt lat="43.19248" lon="12.9130767"><ele>464.0</ele><time>2026-03-22T12:56:21.379Z</time></trkpt><trkpt lat="43.192385" lon="12.9131867"><ele>464.0</ele><time>2026-03-22T12:56:22.401Z</time></trkpt><trkpt lat="43.1922917" lon="12.91329"><ele>463.5</ele><time>2026-03-22T12:56:23.382Z</time></trkpt><trkpt lat="43.1922" lon="12.913395"><ele>463.0</ele><time>2026-03-22T12:56:24.377Z</time></trkpt><trkpt lat="43.19211" lon="12.9134933"><ele>462.5</ele><time>2026-03-22T12:56:25.382Z</time></trkpt><trkpt lat="43.1920217" lon="12.9135967"><ele>462.0</ele><time>2026-03-22T12:56:26.425Z</time></trkpt><trkpt lat="43.1919367" lon="12.913695"><ele>462.0</ele><time>2026-03-22T12:56:27.385Z</time></trkpt><trkpt lat="43.1918517" lon="12.9137883"><ele>462.00000000000006</ele><time>2026-03-22T12:56:28.381Z</time></trkpt><trkpt lat="43.1917667" lon="12.913875"><ele>462.00000000000006</ele><time>2026-03-22T12:56:29.383Z</time></trkpt><trkpt lat="43.1916817" lon="12.9139633"><ele>462.0</ele><time>2026-03-22T12:56:30.394Z</time></trkpt><trkpt lat="43.1915983" lon="12.9140517"><ele>462.0</ele><time>2026-03-22T12:56:31.386Z</time></trkpt><trkpt lat="43.1915133" lon="12.914145"><ele>462.8</ele><time>2026-03-22T12:56:32.426Z</time></trkpt><trkpt lat="43.1914317" lon="12.9142417"><ele>463.6</ele><time>2026-03-22T12:56:33.379Z</time></trkpt><trkpt lat="43.1913517" lon="12.9143383"><ele>464.40000000000003</ele><time>2026-03-22T12:56:34.383Z</time></trkpt><trkpt lat="43.191265" lon="12.91443"><ele>465.20000000000005</ele><time>2026-03-22T12:56:35.385Z</time></trkpt><trkpt lat="43.19118" lon="12.9145267"><ele>466.0</ele><time>2026-03-22T12:56:36.385Z</time></trkpt><trkpt lat="43.1910883" lon="12.9146267"><ele>466.0</ele><time>2026-03-22T12:56:37.382Z</time></trkpt><trkpt lat="43.1909967" lon="12.9147267"><ele>466.0</ele><time>2026-03-22T12:56:38.419Z</time></trkpt><trkpt lat="43.1909" lon="12.91482"><ele>466.0</ele><time>2026-03-22T12:56:39.386Z</time></trkpt><trkpt lat="43.1908" lon="12.9149117"><ele>466.0</ele><time>2026-03-22T12:56:40.383Z</time></trkpt><trkpt lat="43.190695" lon="12.9149983"><ele>471.0</ele><time>2026-03-22T12:56:41.385Z</time></trkpt><trkpt lat="43.1905867" lon="12.9150817"><ele>476.0</ele><time>2026-03-22T12:56:42.389Z</time></trkpt><trkpt lat="43.190475" lon="12.91516"><ele>481.0</ele><time>2026-03-22T12:56:43.382Z</time></trkpt><trkpt lat="43.1903567" lon="12.9152333"><ele>486.0</ele><time>2026-03-22T12:56:44.425Z</time></trkpt><trkpt lat="43.190235" lon="12.9152983"><ele>486.0</ele><time>2026-03-22T12:56:45.38Z</time></trkpt><trkpt lat="43.19011" lon="12.91536"><ele>486.0</ele><time>2026-03-22T12:56:46.359Z</time></trkpt><trkpt lat="43.1899817" lon="12.9154133"><ele>486.0</ele><time>2026-03-22T12:56:47.389Z</time></trkpt><trkpt lat="43.1898483" lon="12.9154617"><ele>486.0</ele><time>2026-03-22T12:56:48.383Z</time></trkpt><trkpt lat="43.1897083" lon="12.9154933"><ele>485.0</ele><time>2026-03-22T12:56:49.387Z</time></trkpt><trkpt lat="43.18957" lon="12.9155067"><ele>484.0</ele><time>2026-03-22T12:56:50.425Z</time></trkpt><trkpt lat="43.18943" lon="12.9155033"><ele>483.0</ele><time>2026-03-22T12:56:51.383Z</time></trkpt><trkpt lat="43.1893" lon="12.91548"><ele>482.0</ele><time>2026-03-22T12:56:52.371Z</time></trkpt><trkpt lat="43.189175" lon="12.9154567"><ele>482.0</ele><time>2026-03-22T12:56:53.383Z</time></trkpt><trkpt lat="43.1890533" lon="12.915445"><ele>482.0</ele><time>2026-03-22T12:56:54.385Z</time></trkpt><trkpt lat="43.1889317" lon="12.9154417"><ele>482.0</ele><time>2026-03-22T12:56:55.382Z</time></trkpt><trkpt lat="43.1888183" lon="12.91545"><ele>482.0</ele><time>2026-03-22T12:56:56.422Z</time></trkpt><trkpt lat="43.18871" lon="12.91547"><ele>480.25</ele><time>2026-03-22T12:56:57.384Z</time></trkpt><trkpt lat="43.1886" lon="12.915495"><ele>478.5</ele><time>2026-03-22T12:56:58.385Z</time></trkpt><trkpt lat="43.1884867" lon="12.91552"><ele>476.75</ele><time>2026-03-22T12:56:59.375Z</time></trkpt><trkpt lat="43.1883733" lon="12.9155467"><ele>475.0</ele><time>2026-03-22T12:57:00.384Z</time></trkpt><trkpt lat="43.1882533" lon="12.9155733"><ele>473.0</ele><time>2026-03-22T12:57:01.379Z</time></trkpt><trkpt lat="43.18813" lon="12.9155983"><ele>471.0</ele><time>2026-03-22T12:57:02.426Z</time></trkpt><trkpt lat="43.1880083" lon="12.9156267"><ele>469.0</ele><time>2026-03-22T12:57:03.387Z</time></trkpt><trkpt lat="43.18788" lon="12.91566"><ele>467.0</ele><time>2026-03-22T12:57:04.382Z</time></trkpt><trkpt lat="43.1877467" lon="12.9156933"><ele>467.0</ele><time>2026-03-22T12:57:05.384Z</time></trkpt><trkpt lat="43.18761" lon="12.9157333"><ele>467.0</ele><time>2026-03-22T12:57:06.385Z</time></trkpt><trkpt lat="43.187475" lon="12.9157867"><ele>467.0</ele><time>2026-03-22T12:57:07.384Z</time></trkpt><trkpt lat="43.1873433" lon="12.9158583"><ele>467.0</ele><time>2026-03-22T12:57:08.423Z</time></trkpt><trkpt lat="43.1872233" lon="12.9159483"><ele>466.5</ele><time>2026-03-22T12:57:09.381Z</time></trkpt><trkpt lat="43.1871183" lon="12.9160567"><ele>466.0</ele><time>2026-03-22T12:57:10.383Z</time></trkpt><trkpt lat="43.1870167" lon="12.9161717"><ele>465.5</ele><time>2026-03-22T12:57:11.383Z</time></trkpt><trkpt lat="43.1869217" lon="12.916295"><ele>465.0</ele><time>2026-03-22T12:57:12.383Z</time></trkpt><trkpt lat="43.1868367" lon="12.9164083"><ele>465.0</ele><time>2026-03-22T12:57:13.383Z</time></trkpt><trkpt lat="43.1867483" lon="12.9165183"><ele>465.0</ele><time>2026-03-22T12:57:14.427Z</time></trkpt><trkpt lat="43.1866617" lon="12.9166217"><ele>465.0</ele><time>2026-03-22T12:57:15.379Z</time></trkpt><trkpt lat="43.1865833" lon="12.9167167"><ele>465.0</ele><time>2026-03-22T12:57:16.384Z</time></trkpt><trkpt lat="43.1865067" lon="12.9168033"><ele>465.0</ele><time>2026-03-22T12:57:17.381Z</time></trkpt><trkpt lat="43.1864317" lon="12.91689"><ele>464.2</ele><time>2026-03-22T12:57:18.384Z</time></trkpt><trkpt lat="43.186365" lon="12.9169767"><ele>463.4</ele><time>2026-03-22T12:57:19.389Z</time></trkpt><trkpt lat="43.186305" lon="12.91706"><ele>462.6</ele><time>2026-03-22T12:57:20.422Z</time></trkpt><trkpt lat="43.1862417" lon="12.91715"><ele>461.8</ele><time>2026-03-22T12:57:21.367Z</time></trkpt><trkpt lat="43.1861683" lon="12.9172533"><ele>461.0</ele><time>2026-03-22T12:57:22.366Z</time></trkpt><trkpt lat="43.1860867" lon="12.9173683"><ele>461.0</ele><time>2026-03-22T12:57:23.385Z</time></trkpt><trkpt lat="43.1859983" lon="12.9175083"><ele>461.0</ele><time>2026-03-22T12:57:24.384Z</time></trkpt><trkpt lat="43.1859067" lon="12.9176667"><ele>461.0</ele><time>2026-03-22T12:57:25.38Z</time></trkpt><trkpt lat="43.185815" lon="12.917845"><ele>461.0</ele><time>2026-03-22T12:57:26.445Z</time></trkpt><trkpt lat="43.1857317" lon="12.9180333"><ele>460.5</ele><time>2026-03-22T12:57:27.38Z</time></trkpt><trkpt lat="43.1856583" lon="12.9182217"><ele>460.0</ele><time>2026-03-22T12:57:28.375Z</time></trkpt><trkpt lat="43.185595" lon="12.9184083"><ele>459.5</ele><time>2026-03-22T12:57:29.387Z</time></trkpt><trkpt lat="43.185535" lon="12.9185867"><ele>459.0</ele><time>2026-03-22T12:57:30.38Z</time></trkpt><trkpt lat="43.18548" lon="12.918755"><ele>459.0</ele><time>2026-03-22T12:57:31.382Z</time></trkpt><trkpt lat="43.1854267" lon="12.91892"><ele>459.0</ele><time>2026-03-22T12:57:32.404Z</time></trkpt><trkpt lat="43.1853733" lon="12.9190883"><ele>459.0</ele><time>2026-03-22T12:57:33.367Z</time></trkpt><trkpt lat="43.1853233" lon="12.9192633"><ele>459.0</ele><time>2026-03-22T12:57:34.382Z</time></trkpt><trkpt lat="43.1852833" lon="12.9194417"><ele>459.75</ele><time>2026-03-22T12:57:35.382Z</time></trkpt><trkpt lat="43.1852533" lon="12.9196217"><ele>460.5</ele><time>2026-03-22T12:57:36.383Z</time></trkpt><trkpt lat="43.1852333" lon="12.9197917"><ele>461.25</ele><time>2026-03-22T12:57:37.383Z</time></trkpt><trkpt lat="43.1852183" lon="12.9199617"><ele>462.0</ele><time>2026-03-22T12:57:38.423Z</time></trkpt><trkpt lat="43.1852067" lon="12.9201133"><ele>463.25</ele><time>2026-03-22T12:57:39.382Z</time></trkpt><trkpt lat="43.1851883" lon="12.9202617"><ele>464.5</ele><time>2026-03-22T12:57:40.381Z</time></trkpt><trkpt lat="43.1851617" lon="12.9204117"><ele>465.75</ele><time>2026-03-22T12:57:41.382Z</time></trkpt><trkpt lat="43.1851183" lon="12.9205667"><ele>467.0</ele><time>2026-03-22T12:57:42.383Z</time></trkpt><trkpt lat="43.185065" lon="12.9207233"><ele>467.0</ele><time>2026-03-22T12:57:43.374Z</time></trkpt><trkpt lat="43.1850033" lon="12.9208883"><ele>467.0</ele><time>2026-03-22T12:57:44.421Z</time></trkpt><trkpt lat="43.1849367" lon="12.9210483"><ele>467.0</ele><time>2026-03-22T12:57:45.385Z</time></trkpt><trkpt lat="43.1848717" lon="12.9212067"><ele>467.0</ele><time>2026-03-22T12:57:46.383Z</time></trkpt><trkpt lat="43.1848067" lon="12.9213633"><ele>465.25</ele><time>2026-03-22T12:57:47.384Z</time></trkpt><trkpt lat="43.18474" lon="12.9215117"><ele>463.5</ele><time>2026-03-22T12:57:48.369Z</time></trkpt><trkpt lat="43.1846767" lon="12.9216567"><ele>461.75</ele><time>2026-03-22T12:57:49.378Z</time></trkpt><trkpt lat="43.184615" lon="12.9218033"><ele>460.0</ele><time>2026-03-22T12:57:50.427Z</time></trkpt><trkpt lat="43.184555" lon="12.9219483"><ele>460.0</ele><time>2026-03-22T12:57:51.375Z</time></trkpt><trkpt lat="43.1845" lon="12.9220933"><ele>460.0</ele><time>2026-03-22T12:57:52.376Z</time></trkpt><trkpt lat="43.1844517" lon="12.9222417"><ele>460.0</ele><time>2026-03-22T12:57:53.384Z</time></trkpt><trkpt lat="43.1844067" lon="12.9223967"><ele>460.0</ele><time>2026-03-22T12:57:54.386Z</time></trkpt><trkpt lat="43.184365" lon="12.9225467"><ele>460.0</ele><time>2026-03-22T12:57:55.376Z</time></trkpt><trkpt lat="43.184325" lon="12.9226967"><ele>460.0</ele><time>2026-03-22T12:57:56.4Z</time></trkpt><trkpt lat="43.184285" lon="12.9228517"><ele>460.0</ele><time>2026-03-22T12:57:57.379Z</time></trkpt><trkpt lat="43.184245" lon="12.9230083"><ele>460.0</ele><time>2026-03-22T12:57:58.381Z</time></trkpt><trkpt lat="43.1842117" lon="12.9231633"><ele>460.0</ele><time>2026-03-22T12:57:59.359Z</time></trkpt><trkpt lat="43.184175" lon="12.9233233"><ele>460.0</ele><time>2026-03-22T12:58:00.382Z</time></trkpt><trkpt lat="43.1841417" lon="12.9234833"><ele>460.0</ele><time>2026-03-22T12:58:01.391Z</time></trkpt><trkpt lat="43.1841083" lon="12.9236367"><ele>460.0</ele><time>2026-03-22T12:58:02.425Z</time></trkpt><trkpt lat="43.1840783" lon="12.923785"><ele>460.6</ele><time>2026-03-22T12:58:03.381Z</time></trkpt><trkpt lat="43.1840533" lon="12.9239267"><ele>461.2</ele><time>2026-03-22T12:58:04.38Z</time></trkpt><trkpt lat="43.1840317" lon="12.9240683"><ele>461.79999999999995</ele><time>2026-03-22T12:58:05.381Z</time></trkpt><trkpt lat="43.1840083" lon="12.9242133"><ele>462.4</ele><time>2026-03-22T12:58:06.383Z</time></trkpt><trkpt lat="43.1839883" lon="12.9243667"><ele>463.0</ele><time>2026-03-22T12:58:07.388Z</time></trkpt><trkpt lat="43.1839667" lon="12.9245233"><ele>461.0</ele><time>2026-03-22T12:58:08.423Z</time></trkpt><trkpt lat="43.1839517" lon="12.92469"><ele>459.0</ele><time>2026-03-22T12:58:09.384Z</time></trkpt><trkpt lat="43.1839433" lon="12.92486"><ele>457.0</ele><time>2026-03-22T12:58:10.381Z</time></trkpt><trkpt lat="43.183945" lon="12.925035"><ele>455.0</ele><time>2026-03-22T12:58:11.389Z</time></trkpt><trkpt lat="43.18395" lon="12.9252117"><ele>454.75</ele><time>2026-03-22T12:58:12.383Z</time></trkpt><trkpt lat="43.1839583" lon="12.9253867"><ele>454.5</ele><time>2026-03-22T12:58:13.385Z</time></trkpt><trkpt lat="43.1839717" lon="12.9255583"><ele>454.25</ele><time>2026-03-22T12:58:14.409Z</time></trkpt><trkpt lat="43.1839833" lon="12.9257233"><ele>454.0</ele><time>2026-03-22T12:58:15.356Z</time></trkpt><trkpt lat="43.1839983" lon="12.9258883"><ele>453.25</ele><time>2026-03-22T12:58:16.36Z</time></trkpt><trkpt lat="43.1840167" lon="12.9260617"><ele>452.5</ele><time>2026-03-22T12:58:17.375Z</time></trkpt><trkpt lat="43.1840383" lon="12.9262383"><ele>451.75</ele><time>2026-03-22T12:58:18.378Z</time></trkpt><trkpt lat="43.18406" lon="12.9264167"><ele>451.0</ele><time>2026-03-22T12:58:19.363Z</time></trkpt><trkpt lat="43.1840817" lon="12.9266"><ele>451.0</ele><time>2026-03-22T12:58:20.417Z</time></trkpt><trkpt lat="43.1841067" lon="12.9267817"><ele>451.0</ele><time>2026-03-22T12:58:21.376Z</time></trkpt><trkpt lat="43.1841267" lon="12.9269583"><ele>451.0</ele><time>2026-03-22T12:58:22.373Z</time></trkpt><trkpt lat="43.184145" lon="12.9271383"><ele>451.0</ele><time>2026-03-22T12:58:23.376Z</time></trkpt><trkpt lat="43.184165" lon="12.92732"><ele>451.0</ele><time>2026-03-22T12:58:24.373Z</time></trkpt><trkpt lat="43.1841883" lon="12.9275017"><ele>451.0</ele><time>2026-03-22T12:58:25.362Z</time></trkpt><trkpt lat="43.1842133" lon="12.927685"><ele>451.0</ele><time>2026-03-22T12:58:26.417Z</time></trkpt><trkpt lat="43.184235" lon="12.9278717"><ele>451.0</ele><time>2026-03-22T12:58:27.375Z</time></trkpt><trkpt lat="43.1842567" lon="12.9280583"><ele>451.0</ele><time>2026-03-22T12:58:28.385Z</time></trkpt><trkpt lat="43.1842783" lon="12.9282383"><ele>451.0</ele><time>2026-03-22T12:58:29.38Z</time></trkpt><trkpt lat="43.1843" lon="12.9284183"><ele>451.0</ele><time>2026-03-22T12:58:30.376Z</time></trkpt><trkpt lat="43.18432" lon="12.9286"><ele>451.0</ele><time>2026-03-22T12:58:31.352Z</time></trkpt><trkpt lat="43.18434" lon="12.9287783"><ele>451.0</ele><time>2026-03-22T12:58:32.414Z</time></trkpt><trkpt lat="43.18436" lon="12.9289533"><ele>451.0</ele><time>2026-03-22T12:58:33.366Z</time></trkpt><trkpt lat="43.1843767" lon="12.9291267"><ele>451.0</ele><time>2026-03-22T12:58:34.376Z</time></trkpt><trkpt lat="43.184395" lon="12.9292983"><ele>451.0</ele><time>2026-03-22T12:58:35.383Z</time></trkpt><trkpt lat="43.1844133" lon="12.9294733"><ele>451.25</ele><time>2026-03-22T12:58:36.378Z</time></trkpt><trkpt lat="43.1844333" lon="12.9296417"><ele>451.5</ele><time>2026-03-22T12:58:37.371Z</time></trkpt><trkpt lat="43.1844533" lon="12.9298067"><ele>451.75</ele><time>2026-03-22T12:58:38.419Z</time></trkpt><trkpt lat="43.1844717" lon="12.9299717"><ele>452.0</ele><time>2026-03-22T12:58:39.376Z</time></trkpt><trkpt lat="43.18449" lon="12.9301383"><ele>452.0</ele><time>2026-03-22T12:58:40.381Z</time></trkpt><trkpt lat="43.1845083" lon="12.9303083"><ele>452.0</ele><time>2026-03-22T12:58:41.366Z</time></trkpt><trkpt lat="43.18453" lon="12.9304817"><ele>452.0</ele><time>2026-03-22T12:58:42.373Z</time></trkpt><trkpt lat="43.1845517" lon="12.93066"><ele>452.0</ele><time>2026-03-22T12:58:43.374Z</time></trkpt><trkpt lat="43.1845717" lon="12.93084"><ele>451.5</ele><time>2026-03-22T12:58:44.416Z</time></trkpt><trkpt lat="43.1845917" lon="12.931015"><ele>451.0</ele><time>2026-03-22T12:58:45.374Z</time></trkpt><trkpt lat="43.18461" lon="12.93118"><ele>450.5</ele><time>2026-03-22T12:58:46.375Z</time></trkpt><trkpt lat="43.1846317" lon="12.931345"><ele>450.0</ele><time>2026-03-22T12:58:47.377Z</time></trkpt><trkpt lat="43.1846533" lon="12.9315033"><ele>450.0</ele><time>2026-03-22T12:58:48.376Z</time></trkpt><trkpt lat="43.1846783" lon="12.9316467"><ele>450.0</ele><time>2026-03-22T12:58:49.389Z</time></trkpt><trkpt lat="43.1847017" lon="12.9317933"><ele>450.0</ele><time>2026-03-22T12:58:50.418Z</time></trkpt><trkpt lat="43.184725" lon="12.9319467"><ele>450.0</ele><time>2026-03-22T12:58:51.384Z</time></trkpt><trkpt lat="43.1847483" lon="12.9321017"><ele>450.0</ele><time>2026-03-22T12:58:52.372Z</time></trkpt><trkpt lat="43.1847683" lon="12.9322583"><ele>450.0</ele><time>2026-03-22T12:58:53.377Z</time></trkpt><trkpt lat="43.1847867" lon="12.9324283"><ele>450.0</ele><time>2026-03-22T12:58:54.381Z</time></trkpt><trkpt lat="43.1848067" lon="12.932605"><ele>450.0</ele><time>2026-03-22T12:58:55.372Z</time></trkpt><trkpt lat="43.1848283" lon="12.93278"><ele>450.0</ele><time>2026-03-22T12:58:56.421Z</time></trkpt><trkpt lat="43.1848483" lon="12.9329567"><ele>449.75</ele><time>2026-03-22T12:58:57.379Z</time></trkpt><trkpt lat="43.1848667" lon="12.9331283"><ele>449.5</ele><time>2026-03-22T12:58:58.366Z</time></trkpt><trkpt lat="43.1848767" lon="12.9332917"><ele>449.25</ele><time>2026-03-22T12:58:59.373Z</time></trkpt><trkpt lat="43.1848783" lon="12.9334467"><ele>449.0</ele><time>2026-03-22T12:59:00.377Z</time></trkpt><trkpt lat="43.1848733" lon="12.9336033"><ele>449.0</ele><time>2026-03-22T12:59:01.377Z</time></trkpt><trkpt lat="43.184865" lon="12.9337683"><ele>449.0</ele><time>2026-03-22T12:59:02.414Z</time></trkpt><trkpt lat="43.1848533" lon="12.9339433"><ele>449.0</ele><time>2026-03-22T12:59:03.378Z</time></trkpt><trkpt lat="43.18484" lon="12.9341133"><ele>449.0</ele><time>2026-03-22T12:59:04.382Z</time></trkpt><trkpt lat="43.1848233" lon="12.9342833"><ele>449.75</ele><time>2026-03-22T12:59:05.376Z</time></trkpt><trkpt lat="43.1848067" lon="12.9344483"><ele>450.5</ele><time>2026-03-22T12:59:06.38Z</time></trkpt><trkpt lat="43.1847917" lon="12.934615"><ele>451.25</ele><time>2026-03-22T12:59:07.383Z</time></trkpt><trkpt lat="43.1847783" lon="12.9347833"><ele>452.0</ele><time>2026-03-22T12:59:08.421Z</time></trkpt><trkpt lat="43.1847667" lon="12.934945"><ele>452.0</ele><time>2026-03-22T12:59:09.374Z</time></trkpt><trkpt lat="43.184755" lon="12.93511"><ele>452.00000000000006</ele><time>2026-03-22T12:59:10.374Z</time></trkpt><trkpt lat="43.1847517" lon="12.935265"><ele>452.00000000000006</ele><time>2026-03-22T12:59:11.375Z</time></trkpt><trkpt lat="43.1847483" lon="12.9354233"><ele>452.0</ele><time>2026-03-22T12:59:12.372Z</time></trkpt><trkpt lat="43.1847567" lon="12.9355533"><ele>452.0</ele><time>2026-03-22T12:59:13.376Z</time></trkpt><trkpt lat="43.1847567" lon="12.93569"><ele>451.99999999999994</ele><time>2026-03-22T12:59:14.417Z</time></trkpt><trkpt lat="43.1847583" lon="12.9358167"><ele>452.0</ele><time>2026-03-22T12:59:15.376Z</time></trkpt><trkpt lat="43.18477" lon="12.9359267"><ele>452.0</ele><time>2026-03-22T12:59:16.375Z</time></trkpt><trkpt lat="43.1847883" lon="12.93602"><ele>452.0</ele><time>2026-03-22T12:59:17.381Z</time></trkpt><trkpt lat="43.1848083" lon="12.9361033"><ele>451.99999999999994</ele><time>2026-03-22T12:59:18.381Z</time></trkpt><trkpt lat="43.184845" lon="12.9362483"><ele>452.0</ele><time>2026-03-22T12:59:20.411Z</time></trkpt><trkpt lat="43.18487" lon="12.9363567"><ele>451.75</ele><time>2026-03-22T12:59:22.376Z</time></trkpt><trkpt lat="43.1848033" lon="12.9366217"><ele>451.5</ele><time>2026-03-22T13:02:57.345Z</time></trkpt><trkpt lat="43.1847217" lon="12.9366483"><ele>451.25</ele><time>2026-03-22T13:02:59.358Z</time></trkpt><trkpt lat="43.1847933" lon="12.936515"><ele>451.0</ele><time>2026-03-22T13:03:02.374Z</time></trkpt><trkpt lat="43.1848417" lon="12.9364183"><ele>451.0</ele><time>2026-03-22T13:03:03.339Z</time></trkpt><trkpt lat="43.1849083" lon="12.9363817"><ele>451.0</ele><time>2026-03-22T13:03:05.358Z</time></trkpt><trkpt lat="43.1848117" lon="12.9364783"><ele>451.0</ele><time>2026-03-22T13:05:12.343Z</time></trkpt><trkpt lat="43.1847633" lon="12.936535"><ele>451.0</ele><time>2026-03-22T13:09:17.376Z</time></trkpt><trkpt lat="43.184715" lon="12.936395"><ele>451.0</ele><time>2026-03-22T13:09:19.378Z</time></trkpt><trkpt lat="43.1847117" lon="12.93627"><ele>451.0</ele><time>2026-03-22T13:09:20.413Z</time></trkpt><trkpt lat="43.1847183" lon="12.9361167"><ele>451.0</ele><time>2026-03-22T13:09:21.372Z</time></trkpt><trkpt lat="43.1847283" lon="12.93596"><ele>451.0</ele><time>2026-03-22T13:09:22.368Z</time></trkpt><trkpt lat="43.184735" lon="12.935795"><ele>451.0</ele><time>2026-03-22T13:09:23.377Z</time></trkpt><trkpt lat="43.18474" lon="12.9356217"><ele>451.25</ele><time>2026-03-22T13:09:24.374Z</time></trkpt><trkpt lat="43.1847467" lon="12.9354417"><ele>451.5</ele><time>2026-03-22T13:09:25.372Z</time></trkpt><trkpt lat="43.184755" lon="12.9352533"><ele>451.75</ele><time>2026-03-22T13:09:26.405Z</time></trkpt><trkpt lat="43.18477" lon="12.9350567"><ele>452.0</ele><time>2026-03-22T13:09:27.373Z</time></trkpt><trkpt lat="43.1847867" lon="12.934865"><ele>452.0</ele><time>2026-03-22T13:09:28.372Z</time></trkpt><trkpt lat="43.1847983" lon="12.9346867"><ele>452.0</ele><time>2026-03-22T13:09:29.368Z</time></trkpt><trkpt lat="43.1848117" lon="12.9345233"><ele>452.0</ele><time>2026-03-22T13:09:30.376Z</time></trkpt><trkpt lat="43.1848233" lon="12.934365"><ele>452.0</ele><time>2026-03-22T13:09:31.374Z</time></trkpt><trkpt lat="43.1848333" lon="12.934215"><ele>451.8</ele><time>2026-03-22T13:09:32.417Z</time></trkpt><trkpt lat="43.18484" lon="12.93408"><ele>451.6</ele><time>2026-03-22T13:09:33.371Z</time></trkpt><trkpt lat="43.18484" lon="12.93397"><ele>451.40000000000003</ele><time>2026-03-22T13:09:34.373Z</time></trkpt><trkpt lat="43.1848317" lon="12.93388"><ele>451.20000000000005</ele><time>2026-03-22T13:09:35.374Z</time></trkpt><trkpt lat="43.1847917" lon="12.9337583"><ele>451.0</ele><time>2026-03-22T13:09:37.377Z</time></trkpt><trkpt lat="43.1846517" lon="12.9337633"><ele>451.0</ele><time>2026-03-22T13:09:39.373Z</time></trkpt><trkpt lat="43.1845383" lon="12.9337817"><ele>451.0</ele><time>2026-03-22T13:09:40.374Z</time></trkpt><trkpt lat="43.1844217" lon="12.933785"><ele>451.0</ele><time>2026-03-22T13:09:41.373Z</time></trkpt><trkpt lat="43.1842983" lon="12.93379"><ele>451.0</ele><time>2026-03-22T13:09:42.383Z</time></trkpt><trkpt lat="43.1841717" lon="12.933795"><ele>451.0</ele><time>2026-03-22T13:09:43.358Z</time></trkpt><trkpt lat="43.184045" lon="12.9338067"><ele>451.0</ele><time>2026-03-22T13:09:44.416Z</time></trkpt><trkpt lat="43.183915" lon="12.9338317"><ele>451.0</ele><time>2026-03-22T13:09:45.374Z</time></trkpt><trkpt lat="43.183785" lon="12.9338667"><ele>451.0</ele><time>2026-03-22T13:09:46.374Z</time></trkpt><trkpt lat="43.1836567" lon="12.9339133"><ele>451.5</ele><time>2026-03-22T13:09:47.373Z</time></trkpt><trkpt lat="43.1835317" lon="12.933955"><ele>452.0</ele><time>2026-03-22T13:09:48.376Z</time></trkpt><trkpt lat="43.1834133" lon="12.93399"><ele>452.5</ele><time>2026-03-22T13:09:49.375Z</time></trkpt><trkpt lat="43.1833033" lon="12.9340133"><ele>453.0</ele><time>2026-03-22T13:09:50.403Z</time></trkpt><trkpt lat="43.1832067" lon="12.934025"><ele>454.79999999999995</ele><time>2026-03-22T13:09:51.356Z</time></trkpt><trkpt lat="43.183125" lon="12.9340267"><ele>456.59999999999997</ele><time>2026-03-22T13:09:52.361Z</time></trkpt><trkpt lat="43.1830167" lon="12.9340367"><ele>458.40000000000003</ele><time>2026-03-22T13:09:54.37Z</time></trkpt><trkpt lat="43.1829533" lon="12.93412"><ele>460.20000000000005</ele><time>2026-03-22T13:09:56.437Z</time></trkpt><trkpt lat="43.1830267" lon="12.9342617"><ele>462.0</ele><time>2026-03-22T13:09:58.37Z</time></trkpt><trkpt lat="43.1830783" lon="12.9343167"><ele>464.0</ele><time>2026-03-22T13:09:59.374Z</time></trkpt><trkpt lat="43.1831267" lon="12.9344433"><ele>466.00000000000006</ele><time>2026-03-22T13:10:01.361Z</time></trkpt><trkpt lat="43.1831283" lon="12.9345867"><ele>468.00000000000006</ele><time>2026-03-22T13:10:03.364Z</time></trkpt><trkpt lat="43.1830967" lon="12.9347483"><ele>470.0</ele><time>2026-03-22T13:10:05.373Z</time></trkpt><trkpt lat="43.183035" lon="12.9348767"><ele>472.0</ele><time>2026-03-22T13:10:07.373Z</time></trkpt><trkpt lat="43.182935" lon="12.9349717"><ele>472.0</ele><time>2026-03-22T13:10:09.376Z</time></trkpt><trkpt lat="43.182815" lon="12.9350367"><ele>472.00000000000006</ele><time>2026-03-22T13:10:11.374Z</time></trkpt><trkpt lat="43.1827533" lon="12.9350717"><ele>472.00000000000006</ele><time>2026-03-22T13:10:12.375Z</time></trkpt><trkpt lat="43.1826483" lon="12.9351217"><ele>472.0</ele><time>2026-03-22T13:10:14.416Z</time></trkpt><trkpt lat="43.1825467" lon="12.9351683"><ele>472.0</ele><time>2026-03-22T13:10:16.373Z</time></trkpt><trkpt lat="43.18244" lon="12.93521"><ele>471.50000000000006</ele><time>2026-03-22T13:10:18.378Z</time></trkpt><trkpt lat="43.1823733" lon="12.935235"><ele>471.0</ele><time>2026-03-22T13:10:19.379Z</time></trkpt><trkpt lat="43.1823033" lon="12.9352617"><ele>470.5</ele><time>2026-03-22T13:10:20.418Z</time></trkpt><trkpt lat="43.1822267" lon="12.9352917"><ele>470.0</ele><time>2026-03-22T13:10:21.37Z</time></trkpt><trkpt lat="43.182145" lon="12.935325"><ele>469.50000000000006</ele><time>2026-03-22T13:10:22.375Z</time></trkpt><trkpt lat="43.1820633" lon="12.9353617"><ele>469.0</ele><time>2026-03-22T13:10:23.371Z</time></trkpt><trkpt lat="43.1819767" lon="12.9353983"><ele>472.33333333333337</ele><time>2026-03-22T13:10:24.376Z</time></trkpt><trkpt lat="43.181895" lon="12.9354367"><ele>475.6666666666667</ele><time>2026-03-22T13:10:25.369Z</time></trkpt><trkpt lat="43.1818133" lon="12.9354783"><ele>479.0</ele><time>2026-03-22T13:10:26.412Z</time></trkpt><trkpt lat="43.1817283" lon="12.935525"><ele>482.33333333333337</ele><time>2026-03-22T13:10:27.372Z</time></trkpt><trkpt lat="43.1816517" lon="12.9355683"><ele>485.6666666666667</ele><time>2026-03-22T13:10:28.376Z</time></trkpt><trkpt lat="43.18158" lon="12.9356117"><ele>489.0</ele><time>2026-03-22T13:10:29.371Z</time></trkpt><trkpt lat="43.1815083" lon="12.9356467"><ele>493.1666666666667</ele><time>2026-03-22T13:10:30.375Z</time></trkpt><trkpt lat="43.1814417" lon="12.9356817"><ele>497.33333333333337</ele><time>2026-03-22T13:10:31.378Z</time></trkpt><trkpt lat="43.1813717" lon="12.93572"><ele>501.5</ele><time>2026-03-22T13:10:32.406Z</time></trkpt><trkpt lat="43.1812967" lon="12.9357583"><ele>505.6666666666667</ele><time>2026-03-22T13:10:33.37Z</time></trkpt><trkpt lat="43.1812167" lon="12.9358017"><ele>509.83333333333337</ele><time>2026-03-22T13:10:34.371Z</time></trkpt><trkpt lat="43.181135" lon="12.9358467"><ele>514.0</ele><time>2026-03-22T13:10:35.384Z</time></trkpt><trkpt lat="43.1810667" lon="12.9358933"><ele>515.3333333333334</ele><time>2026-03-22T13:10:36.378Z</time></trkpt><trkpt lat="43.1809933" lon="12.93594"><ele>516.6666666666667</ele><time>2026-03-22T13:10:37.379Z</time></trkpt><trkpt lat="43.1809217" lon="12.9359867"><ele>518.0</ele><time>2026-03-22T13:10:38.414Z</time></trkpt><trkpt lat="43.1808567" lon="12.9360283"><ele>519.3333333333334</ele><time>2026-03-22T13:10:39.374Z</time></trkpt><trkpt lat="43.1807933" lon="12.936075"><ele>520.6666666666666</ele><time>2026-03-22T13:10:40.377Z</time></trkpt><trkpt lat="43.1807283" lon="12.9361283"><ele>522.0</ele><time>2026-03-22T13:10:41.363Z</time></trkpt><trkpt lat="43.1806633" lon="12.9361783"><ele>525.4</ele><time>2026-03-22T13:10:42.376Z</time></trkpt><trkpt lat="43.1805983" lon="12.9362183"><ele>528.8000000000001</ele><time>2026-03-22T13:10:43.376Z</time></trkpt><trkpt lat="43.18054" lon="12.93626"><ele>532.2</ele><time>2026-03-22T13:10:44.418Z</time></trkpt><trkpt lat="43.1804383" lon="12.9363433"><ele>535.6</ele><time>2026-03-22T13:10:46.376Z</time></trkpt><trkpt lat="43.1803383" lon="12.9364383"><ele>539.0</ele><time>2026-03-22T13:10:48.376Z</time></trkpt><trkpt lat="43.18022" lon="12.93652"><ele>539.0</ele><time>2026-03-22T13:10:50.41Z</time></trkpt><trkpt lat="43.18015" lon="12.9365667"><ele>539.0</ele><time>2026-03-22T13:10:51.37Z</time></trkpt><trkpt lat="43.180065" lon="12.9366233"><ele>539.0</ele><time>2026-03-22T13:10:52.374Z</time></trkpt><trkpt lat="43.1799733" lon="12.9366917"><ele>539.0</ele><time>2026-03-22T13:10:53.374Z</time></trkpt><trkpt lat="43.1798783" lon="12.936755"><ele>539.0</ele><time>2026-03-22T13:10:54.377Z</time></trkpt><trkpt lat="43.1797917" lon="12.9368083"><ele>540.6666666666666</ele><time>2026-03-22T13:10:55.375Z</time></trkpt><trkpt lat="43.179715" lon="12.9368633"><ele>542.3333333333333</ele><time>2026-03-22T13:10:56.413Z</time></trkpt><trkpt lat="43.1796433" lon="12.9369133"><ele>544.0</ele><time>2026-03-22T13:10:57.37Z</time></trkpt><trkpt lat="43.1795717" lon="12.9369583"><ele>545.6666666666666</ele><time>2026-03-22T13:10:58.376Z</time></trkpt><trkpt lat="43.1795" lon="12.936995"><ele>547.3333333333334</ele><time>2026-03-22T13:10:59.377Z</time></trkpt><trkpt lat="43.1794267" lon="12.9370267"><ele>549.0</ele><time>2026-03-22T13:11:00.379Z</time></trkpt><trkpt lat="43.179355" lon="12.9370583"><ele>549.0</ele><time>2026-03-22T13:11:01.388Z</time></trkpt><trkpt lat="43.1792833" lon="12.9370883"><ele>549.0</ele><time>2026-03-22T13:11:02.414Z</time></trkpt><trkpt lat="43.17921" lon="12.937115"><ele>549.0</ele><time>2026-03-22T13:11:03.377Z</time></trkpt><trkpt lat="43.179135" lon="12.9371433"><ele>549.0</ele><time>2026-03-22T13:11:04.37Z</time></trkpt><trkpt lat="43.1790583" lon="12.9371683"><ele>549.0</ele><time>2026-03-22T13:11:05.376Z</time></trkpt><trkpt lat="43.178985" lon="12.9372033"><ele>549.0</ele><time>2026-03-22T13:11:06.377Z</time></trkpt><trkpt lat="43.1789083" lon="12.93724"><ele>551.6</ele><time>2026-03-22T13:11:07.377Z</time></trkpt><trkpt lat="43.1788267" lon="12.9372733"><ele>554.2</ele><time>2026-03-22T13:11:08.414Z</time></trkpt><trkpt lat="43.1787283" lon="12.9373033"><ele>556.8000000000001</ele><time>2026-03-22T13:11:09.377Z</time></trkpt><trkpt lat="43.1786233" lon="12.93733"><ele>559.4</ele><time>2026-03-22T13:11:10.378Z</time></trkpt><trkpt lat="43.1785167" lon="12.937355"><ele>562.0</ele><time>2026-03-22T13:11:11.374Z</time></trkpt><trkpt lat="43.1784083" lon="12.937385"><ele>562.0</ele><time>2026-03-22T13:11:12.375Z</time></trkpt><trkpt lat="43.17831" lon="12.9374133"><ele>562.0</ele><time>2026-03-22T13:11:13.377Z</time></trkpt><trkpt lat="43.17822" lon="12.9374333"><ele>562.0</ele><time>2026-03-22T13:11:14.419Z</time></trkpt><trkpt lat="43.17813" lon="12.93745"><ele>562.0</ele><time>2026-03-22T13:11:15.365Z</time></trkpt><trkpt lat="43.1780417" lon="12.9374667"><ele>562.0</ele><time>2026-03-22T13:11:16.374Z</time></trkpt><trkpt lat="43.1779683" lon="12.93748"><ele>562.0</ele><time>2026-03-22T13:11:17.366Z</time></trkpt><trkpt lat="43.1779" lon="12.93749"><ele>564.6666666666667</ele><time>2026-03-22T13:11:18.372Z</time></trkpt><trkpt lat="43.1778267" lon="12.9375017"><ele>567.3333333333334</ele><time>2026-03-22T13:11:19.369Z</time></trkpt><trkpt lat="43.177745" lon="12.9375117"><ele>570.0</ele><time>2026-03-22T13:11:20.406Z</time></trkpt><trkpt lat="43.177655" lon="12.937525"><ele>572.6666666666666</ele><time>2026-03-22T13:11:21.374Z</time></trkpt><trkpt lat="43.177565" lon="12.9375383"><ele>575.3333333333333</ele><time>2026-03-22T13:11:22.376Z</time></trkpt><trkpt lat="43.1774817" lon="12.9375483"><ele>578.0</ele><time>2026-03-22T13:11:23.376Z</time></trkpt><trkpt lat="43.1774033" lon="12.9375517"><ele>579.5</ele><time>2026-03-22T13:11:24.377Z</time></trkpt><trkpt lat="43.1773183" lon="12.93756"><ele>581.0</ele><time>2026-03-22T13:11:25.374Z</time></trkpt><trkpt lat="43.1772383" lon="12.9375733"><ele>582.5</ele><time>2026-03-22T13:11:26.413Z</time></trkpt><trkpt lat="43.1771583" lon="12.9375867"><ele>584.0</ele><time>2026-03-22T13:11:27.374Z</time></trkpt><trkpt lat="43.1770917" lon="12.9376033"><ele>585.5</ele><time>2026-03-22T13:11:28.375Z</time></trkpt><trkpt lat="43.17703" lon="12.9376267"><ele>587.0</ele><time>2026-03-22T13:11:29.373Z</time></trkpt><trkpt lat="43.176905" lon="12.93766"><ele>587.0</ele><time>2026-03-22T13:11:31.371Z</time></trkpt><trkpt lat="43.176835" lon="12.9376617"><ele>587.0</ele><time>2026-03-22T13:11:32.418Z</time></trkpt><trkpt lat="43.176765" lon="12.93766"><ele>587.0</ele><time>2026-03-22T13:11:33.377Z</time></trkpt><trkpt lat="43.176685" lon="12.9376667"><ele>587.0</ele><time>2026-03-22T13:11:34.376Z</time></trkpt><trkpt lat="43.1766033" lon="12.93769"><ele>587.0</ele><time>2026-03-22T13:11:35.375Z</time></trkpt><trkpt lat="43.176515" lon="12.9377283"><ele>587.0</ele><time>2026-03-22T13:11:36.367Z</time></trkpt><trkpt lat="43.1764317" lon="12.9377617"><ele>589.5</ele><time>2026-03-22T13:11:37.372Z</time></trkpt><trkpt lat="43.1763567" lon="12.9377933"><ele>592.0</ele><time>2026-03-22T13:11:38.418Z</time></trkpt><trkpt lat="43.1762867" lon="12.937805"><ele>594.5</ele><time>2026-03-22T13:11:39.373Z</time></trkpt><trkpt lat="43.1762217" lon="12.9378033"><ele>597.0</ele><time>2026-03-22T13:11:40.371Z</time></trkpt><trkpt lat="43.1760933" lon="12.9378333"><ele>599.5</ele><time>2026-03-22T13:11:42.376Z</time></trkpt><trkpt lat="43.1760267" lon="12.9378567"><ele>602.0</ele><time>2026-03-22T13:11:43.373Z</time></trkpt><trkpt lat="43.1759583" lon="12.9378783"><ele>602.0</ele><time>2026-03-22T13:11:44.417Z</time></trkpt><trkpt lat="43.1758867" lon="12.9378917"><ele>602.0</ele><time>2026-03-22T13:11:45.371Z</time></trkpt><trkpt lat="43.1758217" lon="12.9378917"><ele>602.0</ele><time>2026-03-22T13:11:46.376Z</time></trkpt><trkpt lat="43.1757117" lon="12.9378383"><ele>602.0</ele><time>2026-03-22T13:11:48.368Z</time></trkpt><trkpt lat="43.1756517" lon="12.93779"><ele>602.0</ele><time>2026-03-22T13:11:49.375Z</time></trkpt><trkpt lat="43.1755867" lon="12.9377283"><ele>602.0</ele><time>2026-03-22T13:11:50.415Z</time></trkpt><trkpt lat="43.1755233" lon="12.93766"><ele>601.1666666666666</ele><time>2026-03-22T13:11:51.373Z</time></trkpt><trkpt lat="43.1754717" lon="12.9376"><ele>600.3333333333333</ele><time>2026-03-22T13:11:52.376Z</time></trkpt><trkpt lat="43.17538" lon="12.9374867"><ele>599.5</ele><time>2026-03-22T13:11:54.376Z</time></trkpt><trkpt lat="43.175335" lon="12.9374217"><ele>598.6666666666666</ele><time>2026-03-22T13:11:55.375Z</time></trkpt><trkpt lat="43.1752933" lon="12.9373467"><ele>597.8333333333334</ele><time>2026-03-22T13:11:56.41Z</time></trkpt><trkpt lat="43.17525" lon="12.9372733"><ele>597.0</ele><time>2026-03-22T13:11:57.375Z</time></trkpt><trkpt lat="43.1752183" lon="12.937195"><ele>601.8000000000001</ele><time>2026-03-22T13:11:58.371Z</time></trkpt><trkpt lat="43.1751717" lon="12.93705"><ele>606.6</ele><time>2026-03-22T13:12:00.378Z</time></trkpt><trkpt lat="43.175145" lon="12.9369333"><ele>611.4000000000001</ele><time>2026-03-22T13:12:02.41Z</time></trkpt><trkpt lat="43.1751483" lon="12.9367417"><ele>616.2</ele><time>2026-03-22T13:12:08.417Z</time></trkpt><trkpt lat="43.1751467" lon="12.9366517"><ele>621.0</ele><time>2026-03-22T13:12:09.363Z</time></trkpt><trkpt lat="43.17515" lon="12.936565"><ele>624.4</ele><time>2026-03-22T13:12:10.362Z</time></trkpt><trkpt lat="43.17516" lon="12.936475"><ele>627.8</ele><time>2026-03-22T13:12:11.364Z</time></trkpt><trkpt lat="43.175165" lon="12.9363883"><ele>631.1999999999999</ele><time>2026-03-22T13:12:12.376Z</time></trkpt><trkpt lat="43.1751433" lon="12.9362267"><ele>634.6</ele><time>2026-03-22T13:12:14.417Z</time></trkpt><trkpt lat="43.1750933" lon="12.936085"><ele>638.0</ele><time>2026-03-22T13:12:16.373Z</time></trkpt><trkpt lat="43.1750383" lon="12.935975"><ele>640.3333333333333</ele><time>2026-03-22T13:12:18.386Z</time></trkpt><trkpt lat="43.17499" lon="12.9358867"><ele>642.6666666666666</ele><time>2026-03-22T13:12:20.403Z</time></trkpt><trkpt lat="43.1749283" lon="12.9358033"><ele>645.0</ele><time>2026-03-22T13:12:22.374Z</time></trkpt><trkpt lat="43.1748883" lon="12.9356867"><ele>647.3333333333334</ele><time>2026-03-22T13:12:24.377Z</time></trkpt><trkpt lat="43.1748933" lon="12.9355717"><ele>649.6666666666667</ele><time>2026-03-22T13:12:26.437Z</time></trkpt><trkpt lat="43.1749267" lon="12.9354783"><ele>652.0</ele><time>2026-03-22T13:12:28.376Z</time></trkpt><trkpt lat="43.174985" lon="12.93537"><ele>652.0</ele><time>2026-03-22T13:12:30.373Z</time></trkpt><trkpt lat="43.175045" lon="12.935225"><ele>652.0</ele><time>2026-03-22T13:12:32.416Z</time></trkpt><trkpt lat="43.175115" lon="12.9350833"><ele>652.0</ele><time>2026-03-22T13:12:34.377Z</time></trkpt><trkpt lat="43.175145" lon="12.9350067"><ele>652.0</ele><time>2026-03-22T13:12:35.375Z</time></trkpt><trkpt lat="43.1751783" lon="12.9349183"><ele>652.0</ele><time>2026-03-22T13:12:36.38Z</time></trkpt><trkpt lat="43.175215" lon="12.93484"><ele>656.4000000000001</ele><time>2026-03-22T13:12:37.367Z</time></trkpt><trkpt lat="43.1752767" lon="12.93471"><ele>660.8000000000001</ele><time>2026-03-22T13:12:39.377Z</time></trkpt><trkpt lat="43.175335" lon="12.93458"><ele>665.2</ele><time>2026-03-22T13:12:41.384Z</time></trkpt><trkpt lat="43.175375" lon="12.93443"><ele>669.6</ele><time>2026-03-22T13:12:43.374Z</time></trkpt><trkpt lat="43.1754233" lon="12.9342967"><ele>674.0</ele><time>2026-03-22T13:12:45.372Z</time></trkpt><trkpt lat="43.17546" lon="12.93412"><ele>679.3333333333333</ele><time>2026-03-22T13:12:47.371Z</time></trkpt><trkpt lat="43.1754867" lon="12.934025"><ele>684.6666666666666</ele><time>2026-03-22T13:12:48.374Z</time></trkpt><trkpt lat="43.1755217" lon="12.93394"><ele>690.0</ele><time>2026-03-22T13:12:49.375Z</time></trkpt><trkpt lat="43.1755567" lon="12.933855"><ele>695.3333333333334</ele><time>2026-03-22T13:12:50.412Z</time></trkpt><trkpt lat="43.175585" lon="12.9337567"><ele>700.6666666666667</ele><time>2026-03-22T13:12:51.371Z</time></trkpt><trkpt lat="43.1756233" lon="12.9336483"><ele>706.0</ele><time>2026-03-22T13:12:52.372Z</time></trkpt><trkpt lat="43.1756533" lon="12.9335317"><ele>706.0</ele><time>2026-03-22T13:12:53.373Z</time></trkpt><trkpt lat="43.1756867" lon="12.93341"><ele>706.0</ele><time>2026-03-22T13:12:54.374Z</time></trkpt><trkpt lat="43.1757167" lon="12.9333017"><ele>706.0</ele><time>2026-03-22T13:12:55.37Z</time></trkpt><trkpt lat="43.1757467" lon="12.9332067"><ele>706.0</ele><time>2026-03-22T13:12:56.44Z</time></trkpt><trkpt lat="43.1757733" lon="12.9331283"><ele>706.0</ele><time>2026-03-22T13:12:57.373Z</time></trkpt><trkpt lat="43.1758017" lon="12.9330483"><ele>706.0</ele><time>2026-03-22T13:12:58.375Z</time></trkpt><trkpt lat="43.1758283" lon="12.9329617"><ele>704.8333333333334</ele><time>2026-03-22T13:12:59.374Z</time></trkpt><trkpt lat="43.175865" lon="12.93287"><ele>703.6666666666667</ele><time>2026-03-22T13:13:00.379Z</time></trkpt><trkpt lat="43.1758983" lon="12.9327667"><ele>702.5</ele><time>2026-03-22T13:13:01.374Z</time></trkpt><trkpt lat="43.1759233" lon="12.932665"><ele>701.3333333333334</ele><time>2026-03-22T13:13:02.416Z</time></trkpt><trkpt lat="43.1759433" lon="12.932565"><ele>700.1666666666666</ele><time>2026-03-22T13:13:03.375Z</time></trkpt><trkpt lat="43.1759717" lon="12.9324817"><ele>699.0</ele><time>2026-03-22T13:13:04.372Z</time></trkpt><trkpt lat="43.1760333" lon="12.9323333"><ele>702.0</ele><time>2026-03-22T13:13:06.378Z</time></trkpt><trkpt lat="43.1760633" lon="12.9322467"><ele>705.0</ele><time>2026-03-22T13:13:07.368Z</time></trkpt><trkpt lat="43.1760983" lon="12.932155"><ele>708.0</ele><time>2026-03-22T13:13:08.414Z</time></trkpt><trkpt lat="43.17613" lon="12.9320567"><ele>711.0</ele><time>2026-03-22T13:13:09.373Z</time></trkpt><trkpt lat="43.1761533" lon="12.931965"><ele>714.0</ele><time>2026-03-22T13:13:10.37Z</time></trkpt><trkpt lat="43.17617" lon="12.9318733"><ele>717.0</ele><time>2026-03-22T13:13:11.357Z</time></trkpt><trkpt lat="43.17618" lon="12.9317817"><ele>720.0</ele><time>2026-03-22T13:13:12.377Z</time></trkpt><trkpt lat="43.176175" lon="12.9316817"><ele>722.6</ele><time>2026-03-22T13:13:13.365Z</time></trkpt><trkpt lat="43.176145" lon="12.931575"><ele>725.2</ele><time>2026-03-22T13:13:14.406Z</time></trkpt><trkpt lat="43.176115" lon="12.9314667"><ele>727.8</ele><time>2026-03-22T13:13:15.353Z</time></trkpt><trkpt lat="43.1760833" lon="12.9313567"><ele>730.4</ele><time>2026-03-22T13:13:16.354Z</time></trkpt><trkpt lat="43.1760417" lon="12.931235"><ele>733.0</ele><time>2026-03-22T13:13:17.381Z</time></trkpt><trkpt lat="43.1759933" lon="12.9311117"><ele>733.0</ele><time>2026-03-22T13:13:18.381Z</time></trkpt><trkpt lat="43.17594" lon="12.9309967"><ele>733.0</ele><time>2026-03-22T13:13:19.379Z</time></trkpt><trkpt lat="43.1758817" lon="12.9308967"><ele>733.0</ele><time>2026-03-22T13:13:20.419Z</time></trkpt><trkpt lat="43.175825" lon="12.930815"><ele>733.0</ele><time>2026-03-22T13:13:21.376Z</time></trkpt><trkpt lat="43.1757733" lon="12.93076"><ele>733.0</ele><time>2026-03-22T13:13:22.381Z</time></trkpt><trkpt lat="43.1756933" lon="12.9307583"><ele>733.0</ele><time>2026-03-22T13:13:24.388Z</time></trkpt><trkpt lat="43.17563" lon="12.9307717"><ele>736.1666666666667</ele><time>2026-03-22T13:13:26.417Z</time></trkpt><trkpt lat="43.1755267" lon="12.930755"><ele>739.3333333333334</ele><time>2026-03-22T13:13:28.377Z</time></trkpt><trkpt lat="43.1754" lon="12.9307217"><ele>742.5</ele><time>2026-03-22T13:13:30.384Z</time></trkpt><trkpt lat="43.175335" lon="12.9307017"><ele>745.6666666666666</ele><time>2026-03-22T13:13:31.383Z</time></trkpt><trkpt lat="43.1752717" lon="12.93069"><ele>748.8333333333333</ele><time>2026-03-22T13:13:32.422Z</time></trkpt><trkpt lat="43.175205" lon="12.9306933"><ele>752.0</ele><time>2026-03-22T13:13:33.381Z</time></trkpt><trkpt lat="43.175135" lon="12.9307083"><ele>752.0</ele><time>2026-03-22T13:13:34.37Z</time></trkpt><trkpt lat="43.175065" lon="12.9307267"><ele>752.0</ele><time>2026-03-22T13:13:35.385Z</time></trkpt><trkpt lat="43.1749983" lon="12.9307633"><ele>752.0</ele><time>2026-03-22T13:13:36.383Z</time></trkpt><trkpt lat="43.1749383" lon="12.9308067"><ele>752.0</ele><time>2026-03-22T13:13:37.383Z</time></trkpt><trkpt lat="43.1748733" lon="12.9308483"><ele>752.0</ele><time>2026-03-22T13:13:38.419Z</time></trkpt><trkpt lat="43.1748033" lon="12.9308783"><ele>752.0</ele><time>2026-03-22T13:13:39.383Z</time></trkpt><trkpt lat="43.1747333" lon="12.9309033"><ele>752.0</ele><time>2026-03-22T13:13:40.378Z</time></trkpt><trkpt lat="43.17467" lon="12.9309267"><ele>760.0</ele><time>2026-03-22T13:13:41.383Z</time></trkpt><trkpt lat="43.17456" lon="12.9309983"><ele>768.0</ele><time>2026-03-22T13:13:43.383Z</time></trkpt><trkpt lat="43.1744617" lon="12.9310967"><ele>776.0</ele><time>2026-03-22T13:13:45.346Z</time></trkpt><trkpt lat="43.1743733" lon="12.9311933"><ele>784.0</ele><time>2026-03-22T13:13:47.341Z</time></trkpt><trkpt lat="43.1742767" lon="12.9312483"><ele>784.0</ele><time>2026-03-22T13:13:49.361Z</time></trkpt><trkpt lat="43.1741533" lon="12.9312583"><ele>784.0</ele><time>2026-03-22T13:13:51.352Z</time></trkpt><trkpt lat="43.1740317" lon="12.9312967"><ele>784.0</ele><time>2026-03-22T13:13:53.361Z</time></trkpt><trkpt lat="43.1739433" lon="12.9314017"><ele>784.0</ele><time>2026-03-22T13:13:55.35Z</time></trkpt><trkpt lat="43.1739" lon="12.93148"><ele>784.0</ele><time>2026-03-22T13:13:56.411Z</time></trkpt><trkpt lat="43.1738667" lon="12.93157"><ele>788.6</ele><time>2026-03-22T13:13:57.359Z</time></trkpt><trkpt lat="43.1738267" lon="12.9316567"><ele>793.2</ele><time>2026-03-22T13:13:58.376Z</time></trkpt><trkpt lat="43.173785" lon="12.9317417"><ele>797.8000000000001</ele><time>2026-03-22T13:13:59.373Z</time></trkpt><trkpt lat="43.1736983" lon="12.9318333"><ele>802.4000000000001</ele><time>2026-03-22T13:14:01.373Z</time></trkpt><trkpt lat="43.1735883" lon="12.931845"><ele>807.0</ele><time>2026-03-22T13:14:03.377Z</time></trkpt><trkpt lat="43.1734767" lon="12.9318333"><ele>808.6</ele><time>2026-03-22T13:14:05.386Z</time></trkpt><trkpt lat="43.17337" lon="12.9318017"><ele>810.2</ele><time>2026-03-22T13:14:07.382Z</time></trkpt><trkpt lat="43.1732483" lon="12.9317883"><ele>811.8</ele><time>2026-03-22T13:14:09.377Z</time></trkpt><trkpt lat="43.17315" lon="12.931805"><ele>813.4</ele><time>2026-03-22T13:14:11.371Z</time></trkpt><trkpt lat="43.1731033" lon="12.931885"><ele>815.0</ele><time>2026-03-22T13:14:13.375Z</time></trkpt><trkpt lat="43.173125" lon="12.9320533"><ele>816.0000000000001</ele><time>2026-03-22T13:14:15.372Z</time></trkpt><trkpt lat="43.1731383" lon="12.932155"><ele>817.0</ele><time>2026-03-22T13:14:16.355Z</time></trkpt><trkpt lat="43.1731433" lon="12.9322683"><ele>818.0</ele><time>2026-03-22T13:14:17.354Z</time></trkpt><trkpt lat="43.1731317" lon="12.9323867"><ele>819.0</ele><time>2026-03-22T13:14:18.371Z</time></trkpt><trkpt lat="43.1731117" lon="12.932505"><ele>820.0000000000001</ele><time>2026-03-22T13:14:19.383Z</time></trkpt><trkpt lat="43.1730717" lon="12.9326033"><ele>821.0</ele><time>2026-03-22T13:14:20.415Z</time></trkpt><trkpt lat="43.1730217" lon="12.932685"><ele>821.0000000000001</ele><time>2026-03-22T13:14:21.369Z</time></trkpt><trkpt lat="43.1729567" lon="12.9327517"><ele>821.0</ele><time>2026-03-22T13:14:22.374Z</time></trkpt><trkpt lat="43.17288" lon="12.932805"><ele>821.0</ele><time>2026-03-22T13:14:23.365Z</time></trkpt><trkpt lat="43.1728017" lon="12.9328383"><ele>821.0</ele><time>2026-03-22T13:14:24.388Z</time></trkpt><trkpt lat="43.1727117" lon="12.932865"><ele>821.0000000000001</ele><time>2026-03-22T13:14:25.38Z</time></trkpt><trkpt lat="43.17263" lon="12.93289"><ele>821.0</ele><time>2026-03-22T13:14:26.438Z</time></trkpt><trkpt lat="43.1725483" lon="12.9329183"><ele>821.0000000000001</ele><time>2026-03-22T13:14:27.365Z</time></trkpt><trkpt lat="43.1724717" lon="12.9329483"><ele>821.0</ele><time>2026-03-22T13:14:28.354Z</time></trkpt><trkpt lat="43.1724033" lon="12.9329883"><ele>821.0</ele><time>2026-03-22T13:14:29.368Z</time></trkpt><trkpt lat="43.1723433" lon="12.9330267"><ele>821.0</ele><time>2026-03-22T13:14:30.38Z</time></trkpt><trkpt lat="43.1722833" lon="12.933065"><ele>821.0</ele><time>2026-03-22T13:14:31.382Z</time></trkpt><trkpt lat="43.1722183" lon="12.9331"><ele>821.0000000000001</ele><time>2026-03-22T13:14:32.42Z</time></trkpt><trkpt lat="43.1721417" lon="12.93314"><ele>821.0</ele><time>2026-03-22T13:14:33.374Z</time></trkpt><trkpt lat="43.172055" lon="12.933185"><ele>823.5999999999999</ele><time>2026-03-22T13:14:34.384Z</time></trkpt><trkpt lat="43.171965" lon="12.9332283"><ele>826.2</ele><time>2026-03-22T13:14:35.382Z</time></trkpt><trkpt lat="43.1718683" lon="12.9332733"><ele>828.8</ele><time>2026-03-22T13:14:36.382Z</time></trkpt><trkpt lat="43.1717667" lon="12.9333117"><ele>831.4000000000001</ele><time>2026-03-22T13:14:37.382Z</time></trkpt><trkpt lat="43.1716567" lon="12.9333483"><ele>834.0</ele><time>2026-03-22T13:14:38.417Z</time></trkpt><trkpt lat="43.1715383" lon="12.93339"><ele>824.5</ele><time>2026-03-22T13:14:39.369Z</time></trkpt><trkpt lat="43.1714067" lon="12.933425"><ele>815.0</ele><time>2026-03-22T13:14:40.373Z</time></trkpt><trkpt lat="43.17127" lon="12.93346"><ele>805.5</ele><time>2026-03-22T13:14:41.363Z</time></trkpt><trkpt lat="43.17112" lon="12.9335017"><ele>796.0</ele><time>2026-03-22T13:14:42.386Z</time></trkpt><trkpt lat="43.1709517" lon="12.9335433"><ele>796.0</ele><time>2026-03-22T13:14:43.383Z</time></trkpt><trkpt lat="43.1707833" lon="12.9335717"><ele>796.0</ele><time>2026-03-22T13:14:44.422Z</time></trkpt><trkpt lat="43.1706217" lon="12.9335967"><ele>796.0</ele><time>2026-03-22T13:14:45.382Z</time></trkpt><trkpt lat="43.17047" lon="12.9336383"><ele>800.0</ele><time>2026-03-22T13:14:46.362Z</time></trkpt><trkpt lat="43.1703217" lon="12.9337"><ele>804.0</ele><time>2026-03-22T13:14:47.381Z</time></trkpt><trkpt lat="43.1701783" lon="12.93376"><ele>808.0</ele><time>2026-03-22T13:14:48.383Z</time></trkpt><trkpt lat="43.17004" lon="12.93381"><ele>812.0</ele><time>2026-03-22T13:14:49.381Z</time></trkpt><trkpt lat="43.169895" lon="12.933845"><ele>817.0</ele><time>2026-03-22T13:14:50.422Z</time></trkpt><trkpt lat="43.1697417" lon="12.9338783"><ele>822.0</ele><time>2026-03-22T13:14:51.375Z</time></trkpt><trkpt lat="43.1695783" lon="12.9339167"><ele>827.0</ele><time>2026-03-22T13:14:52.381Z</time></trkpt><trkpt lat="43.169415" lon="12.9339433"><ele>827.0</ele><time>2026-03-22T13:14:53.381Z</time></trkpt><trkpt lat="43.169255" lon="12.9339717"><ele>827.0</ele><time>2026-03-22T13:14:54.366Z</time></trkpt><trkpt lat="43.1691083" lon="12.9340017"><ele>827.0</ele><time>2026-03-22T13:14:55.383Z</time></trkpt><trkpt lat="43.168965" lon="12.9340367"><ele>832.75</ele><time>2026-03-22T13:14:56.437Z</time></trkpt><trkpt lat="43.1688283" lon="12.9340667"><ele>838.5</ele><time>2026-03-22T13:14:57.385Z</time></trkpt><trkpt lat="43.1687033" lon="12.9340933"><ele>844.25</ele><time>2026-03-22T13:14:58.367Z</time></trkpt><trkpt lat="43.1685933" lon="12.934095"><ele>850.0</ele><time>2026-03-22T13:14:59.385Z</time></trkpt><trkpt lat="43.168505" lon="12.9340867"><ele>850.0</ele><time>2026-03-22T13:15:00.383Z</time></trkpt><trkpt lat="43.1684317" lon="12.9340917"><ele>850.0</ele><time>2026-03-22T13:15:01.377Z</time></trkpt><trkpt lat="43.1683617" lon="12.93412"><ele>850.0</ele><time>2026-03-22T13:15:02.421Z</time></trkpt><trkpt lat="43.1682883" lon="12.9342633"><ele>850.0</ele><time>2026-03-22T13:15:04.381Z</time></trkpt><trkpt lat="43.168275" lon="12.9344233"><ele>850.0</ele><time>2026-03-22T13:15:05.374Z</time></trkpt><trkpt lat="43.1682467" lon="12.9345917"><ele>850.0</ele><time>2026-03-22T13:15:06.383Z</time></trkpt><trkpt lat="43.1681983" lon="12.9347433"><ele>850.0</ele><time>2026-03-22T13:15:07.363Z</time></trkpt><trkpt lat="43.1681467" lon="12.9348683"><ele>850.0</ele><time>2026-03-22T13:15:08.422Z</time></trkpt><trkpt lat="43.16808" lon="12.9349667"><ele>850.0</ele><time>2026-03-22T13:15:09.386Z</time></trkpt><trkpt lat="43.1679933" lon="12.9350483"><ele>850.0</ele><time>2026-03-22T13:15:10.382Z</time></trkpt><trkpt lat="43.1679" lon="12.9351217"><ele>841.0</ele><time>2026-03-22T13:15:11.381Z</time></trkpt><trkpt lat="43.1677933" lon="12.9351917"><ele>832.0</ele><time>2026-03-22T13:15:12.378Z</time></trkpt><trkpt lat="43.1676667" lon="12.9352683"><ele>823.0</ele><time>2026-03-22T13:15:13.383Z</time></trkpt><trkpt lat="43.1675317" lon="12.9353433"><ele>814.0</ele><time>2026-03-22T13:15:14.42Z</time></trkpt><trkpt lat="43.1673917" lon="12.93542"><ele>818.0</ele><time>2026-03-22T13:15:15.368Z</time></trkpt><trkpt lat="43.1672533" lon="12.9354933"><ele>822.0</ele><time>2026-03-22T13:15:16.376Z</time></trkpt><trkpt lat="43.16711" lon="12.9355667"><ele>826.0</ele><time>2026-03-22T13:15:17.377Z</time></trkpt><trkpt lat="43.1669683" lon="12.935645"><ele>826.0</ele><time>2026-03-22T13:15:18.386Z</time></trkpt><trkpt lat="43.1668233" lon="12.9357283"><ele>826.0</ele><time>2026-03-22T13:15:19.378Z</time></trkpt><trkpt lat="43.16668" lon="12.93581"><ele>826.0</ele><time>2026-03-22T13:15:20.421Z</time></trkpt><trkpt lat="43.16653" lon="12.9358967"><ele>820.6666666666666</ele><time>2026-03-22T13:15:21.376Z</time></trkpt><trkpt lat="43.1663683" lon="12.9359833"><ele>815.3333333333333</ele><time>2026-03-22T13:15:22.373Z</time></trkpt><trkpt lat="43.1661967" lon="12.9360733"><ele>810.0</ele><time>2026-03-22T13:15:23.377Z</time></trkpt><trkpt lat="43.1660167" lon="12.9361683"><ele>810.0</ele><time>2026-03-22T13:15:24.382Z</time></trkpt><trkpt lat="43.1658283" lon="12.9362817"><ele>810.0</ele><time>2026-03-22T13:15:25.379Z</time></trkpt><trkpt lat="43.1656433" lon="12.9364117"><ele>810.0</ele><time>2026-03-22T13:15:26.447Z</time></trkpt><trkpt lat="43.1654667" lon="12.9365417"><ele>811.3333333333333</ele><time>2026-03-22T13:15:27.376Z</time></trkpt><trkpt lat="43.165305" lon="12.9366583"><ele>812.6666666666666</ele><time>2026-03-22T13:15:28.382Z</time></trkpt><trkpt lat="43.1651633" lon="12.9367583"><ele>814.0</ele><time>2026-03-22T13:15:29.38Z</time></trkpt><trkpt lat="43.1650333" lon="12.9368683"><ele>814.0</ele><time>2026-03-22T13:15:30.367Z</time></trkpt><trkpt lat="43.16492" lon="12.9369767"><ele>814.0</ele><time>2026-03-22T13:15:31.349Z</time></trkpt><trkpt lat="43.1648183" lon="12.9370867"><ele>814.0</ele><time>2026-03-22T13:15:32.402Z</time></trkpt><trkpt lat="43.1647267" lon="12.9371933"><ele>814.0</ele><time>2026-03-22T13:15:33.367Z</time></trkpt><trkpt lat="43.16464" lon="12.9373033"><ele>816.3333333333333</ele><time>2026-03-22T13:15:34.372Z</time></trkpt><trkpt lat="43.1645667" lon="12.937395"><ele>818.6666666666666</ele><time>2026-03-22T13:15:35.383Z</time></trkpt><trkpt lat="43.1645067" lon="12.9374683"><ele>821.0</ele><time>2026-03-22T13:15:36.376Z</time></trkpt><trkpt lat="43.1644483" lon="12.937525"><ele>823.3333333333333</ele><time>2026-03-22T13:15:37.378Z</time></trkpt><trkpt lat="43.16436" lon="12.9375733"><ele>825.6666666666666</ele><time>2026-03-22T13:15:39.376Z</time></trkpt><trkpt lat="43.1642917" lon="12.9375667"><ele>828.0</ele><time>2026-03-22T13:15:50.413Z</time></trkpt><trkpt lat="43.1642233" lon="12.9375917"><ele>828.0</ele><time>2026-03-22T13:15:53.37Z</time></trkpt><trkpt lat="43.1641383" lon="12.9376533"><ele>828.0</ele><time>2026-03-22T13:15:56.386Z</time></trkpt><trkpt lat="43.1640717" lon="12.9378217"><ele>828.0</ele><time>2026-03-22T13:15:58.374Z</time></trkpt><trkpt lat="43.1640133" lon="12.9379617"><ele>828.0</ele><time>2026-03-22T13:15:59.372Z</time></trkpt><trkpt lat="43.1639483" lon="12.9380883"><ele>834.8333333333334</ele><time>2026-03-22T13:16:00.38Z</time></trkpt><trkpt lat="43.1638867" lon="12.9381933"><ele>841.6666666666667</ele><time>2026-03-22T13:16:01.379Z</time></trkpt><trkpt lat="43.163825" lon="12.9382733"><ele>848.5</ele><time>2026-03-22T13:16:02.42Z</time></trkpt><trkpt lat="43.1637567" lon="12.9383317"><ele>855.3333333333334</ele><time>2026-03-22T13:16:03.378Z</time></trkpt><trkpt lat="43.16368" lon="12.9383783"><ele>862.1666666666667</ele><time>2026-03-22T13:16:04.379Z</time></trkpt><trkpt lat="43.1636117" lon="12.9384217"><ele>869.0</ele><time>2026-03-22T13:16:05.379Z</time></trkpt><trkpt lat="43.1635517" lon="12.9384683"><ele>869.0</ele><time>2026-03-22T13:16:06.382Z</time></trkpt><trkpt lat="43.163475" lon="12.93857"><ele>869.0000000000001</ele><time>2026-03-22T13:16:08.416Z</time></trkpt><trkpt lat="43.1635183" lon="12.9387317"><ele>869.0000000000001</ele><time>2026-03-22T13:16:10.374Z</time></trkpt><trkpt lat="43.1635667" lon="12.9388633"><ele>869.0</ele><time>2026-03-22T13:16:11.367Z</time></trkpt><trkpt lat="43.1636017" lon="12.93898"><ele>869.0</ele><time>2026-03-22T13:16:12.373Z</time></trkpt><trkpt lat="43.1636183" lon="12.939095"><ele>868.6</ele><time>2026-03-22T13:16:13.381Z</time></trkpt><trkpt lat="43.1636217" lon="12.939225"><ele>868.2</ele><time>2026-03-22T13:16:14.419Z</time></trkpt><trkpt lat="43.1636133" lon="12.939375"><ele>867.8000000000001</ele><time>2026-03-22T13:16:15.381Z</time></trkpt><trkpt lat="43.1635983" lon="12.93952"><ele>867.4000000000001</ele><time>2026-03-22T13:16:16.377Z</time></trkpt><trkpt lat="43.1635717" lon="12.9396583"><ele>867.0</ele><time>2026-03-22T13:16:17.372Z</time></trkpt><trkpt lat="43.1635317" lon="12.9397867"><ele>867.0</ele><time>2026-03-22T13:16:18.386Z</time></trkpt><trkpt lat="43.163485" lon="12.9399117"><ele>867.0</ele><time>2026-03-22T13:16:19.379Z</time></trkpt><trkpt lat="43.1634283" lon="12.9400283"><ele>867.0</ele><time>2026-03-22T13:16:20.416Z</time></trkpt><trkpt lat="43.16336" lon="12.9401433"><ele>867.0</ele><time>2026-03-22T13:16:21.379Z</time></trkpt><trkpt lat="43.163295" lon="12.9402483"><ele>867.0</ele><time>2026-03-22T13:16:22.382Z</time></trkpt><trkpt lat="43.16323" lon="12.940335"><ele>873.0</ele><time>2026-03-22T13:16:23.379Z</time></trkpt><trkpt lat="43.1631667" lon="12.9403983"><ele>879.0</ele><time>2026-03-22T13:16:24.383Z</time></trkpt><trkpt lat="43.1630683" lon="12.9403833"><ele>885.0</ele><time>2026-03-22T13:16:26.431Z</time></trkpt><trkpt lat="43.16306" lon="12.9402833"><ele>891.0</ele><time>2026-03-22T13:16:27.367Z</time></trkpt><trkpt lat="43.1630867" lon="12.9401283"><ele>897.0</ele><time>2026-03-22T13:16:28.364Z</time></trkpt><trkpt lat="43.1631133" lon="12.9399833"><ele>897.6</ele><time>2026-03-22T13:16:29.367Z</time></trkpt><trkpt lat="43.1631217" lon="12.939855"><ele>898.2</ele><time>2026-03-22T13:16:30.383Z</time></trkpt><trkpt lat="43.1631017" lon="12.9397383"><ele>898.8</ele><time>2026-03-22T13:16:31.385Z</time></trkpt><trkpt lat="43.1630583" lon="12.9396417"><ele>899.4</ele><time>2026-03-22T13:16:32.42Z</time></trkpt><trkpt lat="43.1629917" lon="12.939555"><ele>900.0</ele><time>2026-03-22T13:16:33.379Z</time></trkpt><trkpt lat="43.1629017" lon="12.9394817"><ele>900.0</ele><time>2026-03-22T13:16:34.38Z</time></trkpt><trkpt lat="43.16281" lon="12.93941"><ele>900.0</ele><time>2026-03-22T13:16:35.384Z</time></trkpt><trkpt lat="43.1627033" lon="12.9393333"><ele>900.0</ele><time>2026-03-22T13:16:36.378Z</time></trkpt><trkpt lat="43.16259" lon="12.9392683"><ele>900.0</ele><time>2026-03-22T13:16:37.382Z</time></trkpt><trkpt lat="43.1624733" lon="12.93921"><ele>903.5</ele><time>2026-03-22T13:16:38.421Z</time></trkpt><trkpt lat="43.1623567" lon="12.9391667"><ele>907.0</ele><time>2026-03-22T13:16:39.38Z</time></trkpt><trkpt lat="43.16224" lon="12.93913"><ele>910.5</ele><time>2026-03-22T13:16:40.378Z</time></trkpt><trkpt lat="43.1621167" lon="12.9390933"><ele>914.0</ele><time>2026-03-22T13:16:41.378Z</time></trkpt><trkpt lat="43.1619817" lon="12.9390467"><ele>914.0</ele><time>2026-03-22T13:16:42.388Z</time></trkpt><trkpt lat="43.161835" lon="12.939"><ele>914.0</ele><time>2026-03-22T13:16:43.378Z</time></trkpt><trkpt lat="43.161695" lon="12.93897"><ele>914.0</ele><time>2026-03-22T13:16:44.421Z</time></trkpt><trkpt lat="43.16157" lon="12.938945"><ele>914.0</ele><time>2026-03-22T13:16:45.385Z</time></trkpt><trkpt lat="43.1614617" lon="12.938925"><ele>911.3333333333334</ele><time>2026-03-22T13:16:46.373Z</time></trkpt><trkpt lat="43.161365" lon="12.938905"><ele>908.6666666666667</ele><time>2026-03-22T13:16:47.368Z</time></trkpt><trkpt lat="43.16128" lon="12.93889"><ele>906.0</ele><time>2026-03-22T13:16:48.374Z</time></trkpt><trkpt lat="43.1612067" lon="12.9388817"><ele>903.3333333333333</ele><time>2026-03-22T13:16:49.381Z</time></trkpt><trkpt lat="43.1611383" lon="12.9388833"><ele>900.6666666666666</ele><time>2026-03-22T13:16:50.423Z</time></trkpt><trkpt lat="43.1610233" lon="12.9389233"><ele>898.0</ele><time>2026-03-22T13:16:52.383Z</time></trkpt><trkpt lat="43.160945" lon="12.9390467"><ele>897.9999999999999</ele><time>2026-03-22T13:16:54.383Z</time></trkpt><trkpt lat="43.160885" lon="12.93913"><ele>898.0</ele><time>2026-03-22T13:16:56.434Z</time></trkpt><trkpt lat="43.1608183" lon="12.9391133"><ele>898.0</ele><time>2026-03-22T13:16:58.368Z</time></trkpt><trkpt lat="43.1607783" lon="12.9389883"><ele>898.0</ele><time>2026-03-22T13:17:00.378Z</time></trkpt><trkpt lat="43.1607833" lon="12.9388333"><ele>897.9999999999999</ele><time>2026-03-22T13:17:02.421Z</time></trkpt><trkpt lat="43.1607767" lon="12.938735"><ele>898.0</ele><time>2026-03-22T13:17:04.352Z</time></trkpt><trkpt lat="43.1606967" lon="12.9386733"><ele>891.8333333333333</ele><time>2026-03-22T13:17:06.364Z</time></trkpt><trkpt lat="43.1605717" lon="12.9386967"><ele>885.6666666666666</ele><time>2026-03-22T13:17:08.412Z</time></trkpt><trkpt lat="43.1604983" lon="12.938745"><ele>879.5</ele><time>2026-03-22T13:17:09.369Z</time></trkpt><trkpt lat="43.16043" lon="12.9387783"><ele>873.3333333333333</ele><time>2026-03-22T13:17:10.377Z</time></trkpt><trkpt lat="43.16035" lon="12.93881"><ele>867.1666666666666</ele><time>2026-03-22T13:17:11.378Z</time></trkpt><trkpt lat="43.16027" lon="12.9388333"><ele>861.0</ele><time>2026-03-22T13:17:12.38Z</time></trkpt><trkpt lat="43.1601983" lon="12.9388467"><ele>861.0</ele><time>2026-03-22T13:17:13.373Z</time></trkpt><trkpt lat="43.1601233" lon="12.93885"><ele>861.0</ele><time>2026-03-22T13:17:14.42Z</time></trkpt><trkpt lat="43.16005" lon="12.9388517"><ele>861.0</ele><time>2026-03-22T13:17:15.382Z</time></trkpt><trkpt lat="43.1599833" lon="12.9388767"><ele>861.0</ele><time>2026-03-22T13:17:16.376Z</time></trkpt><trkpt lat="43.1599217" lon="12.93891"><ele>861.0</ele><time>2026-03-22T13:17:17.376Z</time></trkpt><trkpt lat="43.1598067" lon="12.9389367"><ele>861.0</ele><time>2026-03-22T13:17:19.378Z</time></trkpt><trkpt lat="43.159715" lon="12.9389267"><ele>854.4</ele><time>2026-03-22T13:17:21.358Z</time></trkpt><trkpt lat="43.159645" lon="12.9388583"><ele>847.8</ele><time>2026-03-22T13:17:23.354Z</time></trkpt><trkpt lat="43.1596" lon="12.9387283"><ele>841.1999999999999</ele><time>2026-03-22T13:17:25.371Z</time></trkpt><trkpt lat="43.1595467" lon="12.9386167"><ele>834.5999999999999</ele><time>2026-03-22T13:17:27.374Z</time></trkpt><trkpt lat="43.1594417" lon="12.9385867"><ele>828.0</ele><time>2026-03-22T13:17:29.377Z</time></trkpt><trkpt lat="43.1593717" lon="12.9385833"><ele>828.0</ele><time>2026-03-22T13:17:30.378Z</time></trkpt><trkpt lat="43.15929" lon="12.9385867"><ele>828.0</ele><time>2026-03-22T13:17:31.378Z</time></trkpt><trkpt lat="43.1592167" lon="12.9386"><ele>828.0</ele><time>2026-03-22T13:17:32.42Z</time></trkpt><trkpt lat="43.1591483" lon="12.9386233"><ele>828.0</ele><time>2026-03-22T13:17:33.36Z</time></trkpt><trkpt lat="43.159085" lon="12.9386467"><ele>828.0</ele><time>2026-03-22T13:17:34.352Z</time></trkpt><trkpt lat="43.1589633" lon="12.9386667"><ele>828.0</ele><time>2026-03-22T13:17:36.378Z</time></trkpt><trkpt lat="43.1588883" lon="12.9386783"><ele>823.3333333333334</ele><time>2026-03-22T13:17:37.365Z</time></trkpt><trkpt lat="43.158815" lon="12.9386867"><ele>818.6666666666667</ele><time>2026-03-22T13:17:38.417Z</time></trkpt><trkpt lat="43.1587383" lon="12.9386883"><ele>814.0</ele><time>2026-03-22T13:17:39.384Z</time></trkpt><trkpt lat="43.15866" lon="12.9386967"><ele>809.3333333333334</ele><time>2026-03-22T13:17:40.374Z</time></trkpt><trkpt lat="43.158585" lon="12.9387117"><ele>804.6666666666667</ele><time>2026-03-22T13:17:41.377Z</time></trkpt><trkpt lat="43.15851" lon="12.938725"><ele>800.0</ele><time>2026-03-22T13:17:42.367Z</time></trkpt><trkpt lat="43.1584383" lon="12.9387267"><ele>800.0000000000001</ele><time>2026-03-22T13:17:43.378Z</time></trkpt><trkpt lat="43.15837" lon="12.9387233"><ele>800.0</ele><time>2026-03-22T13:17:44.418Z</time></trkpt><trkpt lat="43.1583067" lon="12.9387317"><ele>800.0</ele><time>2026-03-22T13:17:45.377Z</time></trkpt><trkpt lat="43.15819" lon="12.9387783"><ele>800.0</ele><time>2026-03-22T13:17:47.367Z</time></trkpt><trkpt lat="43.1581283" lon="12.9387983"><ele>800.0000000000001</ele><time>2026-03-22T13:17:48.378Z</time></trkpt><trkpt lat="43.158" lon="12.93879"><ele>800.0</ele><time>2026-03-22T13:17:50.416Z</time></trkpt><trkpt lat="43.1579167" lon="12.9387867"><ele>796.5000000000001</ele><time>2026-03-22T13:17:51.378Z</time></trkpt><trkpt lat="43.1578267" lon="12.9387883"><ele>793.0</ele><time>2026-03-22T13:17:52.374Z</time></trkpt><trkpt lat="43.1577283" lon="12.9387867"><ele>789.5</ele><time>2026-03-22T13:17:53.377Z</time></trkpt><trkpt lat="43.15764" lon="12.9387767"><ele>786.0</ele><time>2026-03-22T13:17:54.373Z</time></trkpt><trkpt lat="43.1575533" lon="12.9387683"><ele>782.5000000000001</ele><time>2026-03-22T13:17:55.379Z</time></trkpt><trkpt lat="43.15748" lon="12.9387467"><ele>779.0</ele><time>2026-03-22T13:17:56.442Z</time></trkpt><trkpt lat="43.15741" lon="12.9387133"><ele>774.1666666666667</ele><time>2026-03-22T13:17:57.375Z</time></trkpt><trkpt lat="43.1573333" lon="12.9386733"><ele>769.3333333333334</ele><time>2026-03-22T13:17:58.378Z</time></trkpt><trkpt lat="43.1572533" lon="12.9386117"><ele>764.5</ele><time>2026-03-22T13:17:59.375Z</time></trkpt><trkpt lat="43.157175" lon="12.9385483"><ele>759.6666666666667</ele><time>2026-03-22T13:18:00.36Z</time></trkpt><trkpt lat="43.1571" lon="12.9384883"><ele>754.8333333333334</ele><time>2026-03-22T13:18:01.372Z</time></trkpt><trkpt lat="43.157035" lon="12.938445"><ele>750.0</ele><time>2026-03-22T13:18:02.421Z</time></trkpt><trkpt lat="43.1569583" lon="12.9384283"><ele>750.0</ele><time>2026-03-22T13:18:03.374Z</time></trkpt><trkpt lat="43.15687" lon="12.9384133"><ele>750.0</ele><time>2026-03-22T13:18:04.379Z</time></trkpt><trkpt lat="43.1567783" lon="12.9384017"><ele>750.0</ele><time>2026-03-22T13:18:05.382Z</time></trkpt><trkpt lat="43.1566833" lon="12.9384017"><ele>750.0</ele><time>2026-03-22T13:18:06.379Z</time></trkpt><trkpt lat="43.1565933" lon="12.93842"><ele>750.0</ele><time>2026-03-22T13:18:07.381Z</time></trkpt><trkpt lat="43.1565067" lon="12.9384433"><ele>750.8333333333334</ele><time>2026-03-22T13:18:08.42Z</time></trkpt><trkpt lat="43.1564167" lon="12.9384617"><ele>751.6666666666666</ele><time>2026-03-22T13:18:09.377Z</time></trkpt><trkpt lat="43.156325" lon="12.9384733"><ele>752.5</ele><time>2026-03-22T13:18:10.379Z</time></trkpt><trkpt lat="43.1562283" lon="12.9384683"><ele>753.3333333333333</ele><time>2026-03-22T13:18:11.382Z</time></trkpt><trkpt lat="43.1561433" lon="12.9384367"><ele>754.1666666666666</ele><time>2026-03-22T13:18:12.374Z</time></trkpt><trkpt lat="43.1560833" lon="12.938395"><ele>755.0</ele><time>2026-03-22T13:18:13.378Z</time></trkpt><trkpt lat="43.1560333" lon="12.93834"><ele>755.0</ele><time>2026-03-22T13:18:14.395Z</time></trkpt><trkpt lat="43.15598" lon="12.9382783"><ele>755.0</ele><time>2026-03-22T13:18:15.355Z</time></trkpt><trkpt lat="43.1559133" lon="12.938225"><ele>755.0</ele><time>2026-03-22T13:18:16.359Z</time></trkpt><trkpt lat="43.1558267" lon="12.938165"><ele>755.0</ele><time>2026-03-22T13:18:17.368Z</time></trkpt><trkpt lat="43.15572" lon="12.9381017"><ele>755.0</ele><time>2026-03-22T13:18:18.372Z</time></trkpt><trkpt lat="43.1556133" lon="12.9380433"><ele>754.2</ele><time>2026-03-22T13:18:19.37Z</time></trkpt><trkpt lat="43.1555233" lon="12.93797"><ele>753.4</ele><time>2026-03-22T13:18:20.418Z</time></trkpt><trkpt lat="43.1554417" lon="12.9378783"><ele>752.5999999999999</ele><time>2026-03-22T13:18:21.375Z</time></trkpt><trkpt lat="43.1553767" lon="12.9378033"><ele>751.8</ele><time>2026-03-22T13:18:22.37Z</time></trkpt><trkpt lat="43.1552817" lon="12.937755"><ele>751.0</ele><time>2026-03-22T13:18:24.37Z</time></trkpt><trkpt lat="43.1552467" lon="12.9378433"><ele>751.0</ele><time>2026-03-22T13:18:26.43Z</time></trkpt><trkpt lat="43.1552483" lon="12.9379467"><ele>751.0</ele><time>2026-03-22T13:18:27.368Z</time></trkpt><trkpt lat="43.15524" lon="12.93811"><ele>751.0</ele><time>2026-03-22T13:18:28.366Z</time></trkpt><trkpt lat="43.1552267" lon="12.938275"><ele>751.0</ele><time>2026-03-22T13:18:29.37Z</time></trkpt><trkpt lat="43.155195" lon="12.93841"><ele>751.0</ele><time>2026-03-22T13:18:30.369Z</time></trkpt><trkpt lat="43.155155" lon="12.9385217"><ele>747.3333333333334</ele><time>2026-03-22T13:18:31.365Z</time></trkpt><trkpt lat="43.1551117" lon="12.9386217"><ele>743.6666666666667</ele><time>2026-03-22T13:18:32.41Z</time></trkpt><trkpt lat="43.155055" lon="12.9387217"><ele>740.0</ele><time>2026-03-22T13:18:33.367Z</time></trkpt><trkpt lat="43.1550067" lon="12.9388283"><ele>736.3333333333334</ele><time>2026-03-22T13:18:34.356Z</time></trkpt><trkpt lat="43.1549583" lon="12.9389267"><ele>732.6666666666666</ele><time>2026-03-22T13:18:35.366Z</time></trkpt><trkpt lat="43.1549083" lon="12.9390067"><ele>729.0</ele><time>2026-03-22T13:18:36.372Z</time></trkpt><trkpt lat="43.1548583" lon="12.93908"><ele>729.0</ele><time>2026-03-22T13:18:37.351Z</time></trkpt><trkpt lat="43.1548083" lon="12.9391617"><ele>729.0</ele><time>2026-03-22T13:18:38.412Z</time></trkpt><trkpt lat="43.1547617" lon="12.9392483"><ele>729.0</ele><time>2026-03-22T13:18:39.369Z</time></trkpt><trkpt lat="43.1547183" lon="12.9393483"><ele>729.0</ele><time>2026-03-22T13:18:40.374Z</time></trkpt><trkpt lat="43.154675" lon="12.9394433"><ele>729.0</ele><time>2026-03-22T13:18:41.369Z</time></trkpt><trkpt lat="43.15464" lon="12.9395333"><ele>729.0</ele><time>2026-03-22T13:18:42.369Z</time></trkpt><trkpt lat="43.1546017" lon="12.93961"><ele>722.8333333333334</ele><time>2026-03-22T13:18:43.374Z</time></trkpt><trkpt lat="43.1544933" lon="12.9396883"><ele>716.6666666666666</ele><time>2026-03-22T13:18:45.36Z</time></trkpt><trkpt lat="43.1544283" lon="12.93969"><ele>710.5</ele><time>2026-03-22T13:18:46.375Z</time></trkpt><trkpt lat="43.1543633" lon="12.9396967"><ele>704.3333333333333</ele><time>2026-03-22T13:18:47.369Z</time></trkpt><trkpt lat="43.1542883" lon="12.9397167"><ele>698.1666666666666</ele><time>2026-03-22T13:18:48.362Z</time></trkpt><trkpt lat="43.1542167" lon="12.93975"><ele>692.0</ele><time>2026-03-22T13:18:49.366Z</time></trkpt><trkpt lat="43.1541467" lon="12.93979"><ele>692.0</ele><time>2026-03-22T13:18:50.413Z</time></trkpt><trkpt lat="43.1540883" lon="12.939845"><ele>692.0</ele><time>2026-03-22T13:18:51.363Z</time></trkpt><trkpt lat="43.1540283" lon="12.9399083"><ele>692.0</ele><time>2026-03-22T13:18:52.372Z</time></trkpt><trkpt lat="43.1539667" lon="12.93999"><ele>692.0</ele><time>2026-03-22T13:18:53.371Z</time></trkpt><trkpt lat="43.1539067" lon="12.9400767"><ele>692.0</ele><time>2026-03-22T13:18:54.375Z</time></trkpt><trkpt lat="43.1538467" lon="12.9401517"><ele>692.0</ele><time>2026-03-22T13:18:55.373Z</time></trkpt><trkpt lat="43.1537767" lon="12.9402217"><ele>686.5</ele><time>2026-03-22T13:18:56.437Z</time></trkpt><trkpt lat="43.153705" lon="12.94029"><ele>681.0</ele><time>2026-03-22T13:18:57.36Z</time></trkpt><trkpt lat="43.1536283" lon="12.9403483"><ele>675.5</ele><time>2026-03-22T13:18:58.383Z</time></trkpt><trkpt lat="43.1535483" lon="12.940405"><ele>670.0</ele><time>2026-03-22T13:18:59.363Z</time></trkpt><trkpt lat="43.1534717" lon="12.94047"><ele>664.5</ele><time>2026-03-22T13:19:00.374Z</time></trkpt><trkpt lat="43.1533983" lon="12.94054"><ele>659.0</ele><time>2026-03-22T13:19:01.375Z</time></trkpt><trkpt lat="43.1533217" lon="12.9406217"><ele>659.0</ele><time>2026-03-22T13:19:02.415Z</time></trkpt><trkpt lat="43.1532417" lon="12.9406967"><ele>659.0</ele><time>2026-03-22T13:19:03.371Z</time></trkpt><trkpt lat="43.1531633" lon="12.94076"><ele>659.0</ele><time>2026-03-22T13:19:04.374Z</time></trkpt><trkpt lat="43.1530817" lon="12.9408117"><ele>659.0</ele><time>2026-03-22T13:19:05.358Z</time></trkpt><trkpt lat="43.1530033" lon="12.9408667"><ele>659.0</ele><time>2026-03-22T13:19:06.376Z</time></trkpt><trkpt lat="43.15294" lon="12.9409083"><ele>659.0</ele><time>2026-03-22T13:19:07.374Z</time></trkpt><trkpt lat="43.15288" lon="12.9409383"><ele>652.4000000000001</ele><time>2026-03-22T13:19:08.413Z</time></trkpt><trkpt lat="43.15278" lon="12.94101"><ele>645.8000000000001</ele><time>2026-03-22T13:19:10.379Z</time></trkpt><trkpt lat="43.1526967" lon="12.9411"><ele>639.2</ele><time>2026-03-22T13:19:12.373Z</time></trkpt><trkpt lat="43.152635" lon="12.9412"><ele>632.6</ele><time>2026-03-22T13:19:14.411Z</time></trkpt><trkpt lat="43.1525733" lon="12.9413417"><ele>626.0</ele><time>2026-03-22T13:19:16.37Z</time></trkpt><trkpt lat="43.15253" lon="12.9414367"><ele>626.0</ele><time>2026-03-22T13:19:17.37Z</time></trkpt><trkpt lat="43.1524967" lon="12.94155"><ele>626.0</ele><time>2026-03-22T13:19:18.369Z</time></trkpt><trkpt lat="43.1524633" lon="12.9416667"><ele>626.0</ele><time>2026-03-22T13:19:19.372Z</time></trkpt><trkpt lat="43.1524183" lon="12.9417817"><ele>626.0</ele><time>2026-03-22T13:19:20.408Z</time></trkpt><trkpt lat="43.15237" lon="12.9418933"><ele>626.0</ele><time>2026-03-22T13:19:21.368Z</time></trkpt><trkpt lat="43.15231" lon="12.9420083"><ele>623.6</ele><time>2026-03-22T13:19:22.37Z</time></trkpt><trkpt lat="43.1522383" lon="12.94212"><ele>621.2</ele><time>2026-03-22T13:19:23.373Z</time></trkpt><trkpt lat="43.1521683" lon="12.9422233"><ele>618.8</ele><time>2026-03-22T13:19:24.373Z</time></trkpt><trkpt lat="43.1521017" lon="12.9423183"><ele>616.4</ele><time>2026-03-22T13:19:25.371Z</time></trkpt><trkpt lat="43.1520417" lon="12.94242"><ele>614.0</ele><time>2026-03-22T13:19:26.432Z</time></trkpt><trkpt lat="43.151995" lon="12.94253"><ele>609.8333333333333</ele><time>2026-03-22T13:19:27.375Z</time></trkpt><trkpt lat="43.151945" lon="12.94262"><ele>605.6666666666666</ele><time>2026-03-22T13:19:28.368Z</time></trkpt><trkpt lat="43.1518817" lon="12.9426517"><ele>601.5</ele><time>2026-03-22T13:19:29.37Z</time></trkpt><trkpt lat="43.1518183" lon="12.9426933"><ele>597.3333333333334</ele><time>2026-03-22T13:19:30.37Z</time></trkpt><trkpt lat="43.1517367" lon="12.9427333"><ele>593.1666666666667</ele><time>2026-03-22T13:19:31.375Z</time></trkpt><trkpt lat="43.15165" lon="12.9427783"><ele>589.0</ele><time>2026-03-22T13:19:32.437Z</time></trkpt><trkpt lat="43.15156" lon="12.9428283"><ele>590.1666666666667</ele><time>2026-03-22T13:19:33.37Z</time></trkpt><trkpt lat="43.151475" lon="12.942885"><ele>591.3333333333334</ele><time>2026-03-22T13:19:34.368Z</time></trkpt><trkpt lat="43.1513933" lon="12.9429383"><ele>592.5</ele><time>2026-03-22T13:19:35.376Z</time></trkpt><trkpt lat="43.1513167" lon="12.9429783"><ele>593.6666666666666</ele><time>2026-03-22T13:19:36.372Z</time></trkpt><trkpt lat="43.1512467" lon="12.9430233"><ele>594.8333333333333</ele><time>2026-03-22T13:19:37.371Z</time></trkpt><trkpt lat="43.1511867" lon="12.9430667"><ele>596.0</ele><time>2026-03-22T13:19:38.41Z</time></trkpt><trkpt lat="43.1510867" lon="12.94314"><ele>596.0</ele><time>2026-03-22T13:19:40.375Z</time></trkpt><trkpt lat="43.1510317" lon="12.9432033"><ele>596.0</ele><time>2026-03-22T13:19:43.374Z</time></trkpt><trkpt lat="43.1511017" lon="12.943175"><ele>596.0</ele><time>2026-03-22T13:19:46.375Z</time></trkpt><trkpt lat="43.1511633" lon="12.9431533"><ele>596.0</ele><time>2026-03-22T13:19:47.369Z</time></trkpt><trkpt lat="43.151255" lon="12.9431333"><ele>596.0</ele><time>2026-03-22T13:19:48.379Z</time></trkpt><trkpt lat="43.1513833" lon="12.9430817"><ele>596.0</ele><time>2026-03-22T13:19:49.377Z</time></trkpt><trkpt lat="43.1515567" lon="12.94302"><ele>593.6666666666666</ele><time>2026-03-22T13:19:50.412Z</time></trkpt><trkpt lat="43.1517433" lon="12.9429567"><ele>591.3333333333334</ele><time>2026-03-22T13:19:51.371Z</time></trkpt><trkpt lat="43.1519267" lon="12.9428883"><ele>589.0</ele><time>2026-03-22T13:19:52.371Z</time></trkpt><trkpt lat="43.1520883" lon="12.9428133"><ele>589.0</ele><time>2026-03-22T13:19:53.373Z</time></trkpt><trkpt lat="43.1522217" lon="12.9427367"><ele>589.0</ele><time>2026-03-22T13:19:54.377Z</time></trkpt><trkpt lat="43.152355" lon="12.942665"><ele>589.0</ele><time>2026-03-22T13:19:55.355Z</time></trkpt><trkpt lat="43.1524783" lon="12.9426017"><ele>589.0</ele><time>2026-03-22T13:19:56.434Z</time></trkpt><trkpt lat="43.1525917" lon="12.9425567"><ele>591.6</ele><time>2026-03-22T13:19:57.368Z</time></trkpt><trkpt lat="43.1526917" lon="12.942525"><ele>594.2</ele><time>2026-03-22T13:19:58.373Z</time></trkpt><trkpt lat="43.15278" lon="12.9425067"><ele>596.8000000000001</ele><time>2026-03-22T13:19:59.37Z</time></trkpt><trkpt lat="43.1528633" lon="12.942495"><ele>599.4</ele><time>2026-03-22T13:20:00.373Z</time></trkpt><trkpt lat="43.152935" lon="12.9424967"><ele>602.0</ele><time>2026-03-22T13:20:01.374Z</time></trkpt><trkpt lat="43.1530217" lon="12.9425733"><ele>602.5</ele><time>2026-03-22T13:20:03.372Z</time></trkpt><trkpt lat="43.15299" lon="12.9427117"><ele>603.0</ele><time>2026-03-22T13:20:05.37Z</time></trkpt><trkpt lat="43.1529017" lon="12.9428133"><ele>603.5</ele><time>2026-03-22T13:20:06.37Z</time></trkpt><trkpt lat="43.1527667" lon="12.9429267"><ele>604.0</ele><time>2026-03-22T13:20:07.367Z</time></trkpt><trkpt lat="43.1526217" lon="12.9430417"><ele>604.0</ele><time>2026-03-22T13:20:08.414Z</time></trkpt><trkpt lat="43.1525017" lon="12.94312"><ele>604.0</ele><time>2026-03-22T13:20:09.365Z</time></trkpt><trkpt lat="43.15239" lon="12.9432"><ele>604.0</ele><time>2026-03-22T13:20:10.376Z</time></trkpt><trkpt lat="43.1522883" lon="12.94328"><ele>604.0</ele><time>2026-03-22T13:20:11.38Z</time></trkpt><trkpt lat="43.1521967" lon="12.9433633"><ele>600.2</ele><time>2026-03-22T13:20:12.369Z</time></trkpt><trkpt lat="43.152105" lon="12.943455"><ele>596.4</ele><time>2026-03-22T13:20:13.365Z</time></trkpt><trkpt lat="43.1520183" lon="12.9435417"><ele>592.6</ele><time>2026-03-22T13:20:14.413Z</time></trkpt><trkpt lat="43.15193" lon="12.9436317"><ele>588.8</ele><time>2026-03-22T13:20:15.37Z</time></trkpt><trkpt lat="43.1518467" lon="12.9437217"><ele>585.0</ele><time>2026-03-22T13:20:16.373Z</time></trkpt><trkpt lat="43.151765" lon="12.9438267"><ele>585.0</ele><time>2026-03-22T13:20:17.373Z</time></trkpt><trkpt lat="43.1516867" lon="12.9439433"><ele>585.0</ele><time>2026-03-22T13:20:18.374Z</time></trkpt><trkpt lat="43.1516167" lon="12.944075"><ele>585.0</ele><time>2026-03-22T13:20:19.37Z</time></trkpt><trkpt lat="43.151545" lon="12.9442117"><ele>585.0</ele><time>2026-03-22T13:20:20.397Z</time></trkpt><trkpt lat="43.1514767" lon="12.944345"><ele>579.75</ele><time>2026-03-22T13:20:21.363Z</time></trkpt><trkpt lat="43.151395" lon="12.9444767"><ele>574.5</ele><time>2026-03-22T13:20:22.37Z</time></trkpt><trkpt lat="43.1513133" lon="12.9446133"><ele>569.25</ele><time>2026-03-22T13:20:23.374Z</time></trkpt><trkpt lat="43.1512383" lon="12.944755"><ele>564.0</ele><time>2026-03-22T13:20:24.365Z</time></trkpt><trkpt lat="43.1511683" lon="12.9448983"><ele>564.25</ele><time>2026-03-22T13:20:25.371Z</time></trkpt><trkpt lat="43.151105" lon="12.9450517"><ele>564.5</ele><time>2026-03-22T13:20:26.411Z</time></trkpt><trkpt lat="43.1510417" lon="12.9452167"><ele>564.75</ele><time>2026-03-22T13:20:27.37Z</time></trkpt><trkpt lat="43.1509683" lon="12.9453617"><ele>565.0</ele><time>2026-03-22T13:20:28.368Z</time></trkpt><trkpt lat="43.1508783" lon="12.9454883"><ele>565.0</ele><time>2026-03-22T13:20:29.372Z</time></trkpt><trkpt lat="43.150765" lon="12.9455933"><ele>565.0</ele><time>2026-03-22T13:20:30.375Z</time></trkpt><trkpt lat="43.150635" lon="12.9456733"><ele>565.0</ele><time>2026-03-22T13:20:31.371Z</time></trkpt><trkpt lat="43.1504917" lon="12.945725"><ele>565.0</ele><time>2026-03-22T13:20:32.414Z</time></trkpt><trkpt lat="43.150345" lon="12.94578"><ele>566.5</ele><time>2026-03-22T13:20:33.371Z</time></trkpt><trkpt lat="43.1502033" lon="12.9458433"><ele>568.0</ele><time>2026-03-22T13:20:34.373Z</time></trkpt><trkpt lat="43.1500617" lon="12.945905"><ele>569.5</ele><time>2026-03-22T13:20:35.372Z</time></trkpt><trkpt lat="43.1499283" lon="12.9459733"><ele>571.0</ele><time>2026-03-22T13:20:36.374Z</time></trkpt><trkpt lat="43.1498" lon="12.9460367"><ele>563.5</ele><time>2026-03-22T13:20:37.37Z</time></trkpt><trkpt lat="43.1496767" lon="12.9461083"><ele>556.0</ele><time>2026-03-22T13:20:38.413Z</time></trkpt><trkpt lat="43.1495633" lon="12.94619"><ele>548.5</ele><time>2026-03-22T13:20:39.371Z</time></trkpt><trkpt lat="43.149455" lon="12.9462883"><ele>541.0</ele><time>2026-03-22T13:20:40.368Z</time></trkpt><trkpt lat="43.1493533" lon="12.9464"><ele>541.0</ele><time>2026-03-22T13:20:41.371Z</time></trkpt><trkpt lat="43.1492633" lon="12.946515"><ele>541.0</ele><time>2026-03-22T13:20:42.364Z</time></trkpt><trkpt lat="43.1491833" lon="12.94664"><ele>541.0</ele><time>2026-03-22T13:20:43.346Z</time></trkpt><trkpt lat="43.1491083" lon="12.946775"><ele>541.0</ele><time>2026-03-22T13:20:44.399Z</time></trkpt><trkpt lat="43.1490383" lon="12.9469083"><ele>537.0</ele><time>2026-03-22T13:20:45.359Z</time></trkpt><trkpt lat="43.1489683" lon="12.947035"><ele>533.0</ele><time>2026-03-22T13:20:46.369Z</time></trkpt><trkpt lat="43.1488983" lon="12.9471783"><ele>529.0</ele><time>2026-03-22T13:20:47.37Z</time></trkpt><trkpt lat="43.148825" lon="12.9473317"><ele>525.0</ele><time>2026-03-22T13:20:48.369Z</time></trkpt><trkpt lat="43.1487483" lon="12.9474883"><ele>524.5</ele><time>2026-03-22T13:20:49.365Z</time></trkpt><trkpt lat="43.1486633" lon="12.9476467"><ele>524.0</ele><time>2026-03-22T13:20:50.412Z</time></trkpt><trkpt lat="43.1485667" lon="12.9478033"><ele>523.5</ele><time>2026-03-22T13:20:51.37Z</time></trkpt><trkpt lat="43.14846" lon="12.9479517"><ele>523.0</ele><time>2026-03-22T13:20:52.38Z</time></trkpt><trkpt lat="43.14835" lon="12.9480867"><ele>523.0</ele><time>2026-03-22T13:20:53.372Z</time></trkpt><trkpt lat="43.1482383" lon="12.94821"><ele>523.0</ele><time>2026-03-22T13:20:54.373Z</time></trkpt><trkpt lat="43.14813" lon="12.9483283"><ele>523.0</ele><time>2026-03-22T13:20:55.375Z</time></trkpt><trkpt lat="43.1480233" lon="12.948445"><ele>523.0</ele><time>2026-03-22T13:20:56.415Z</time></trkpt><trkpt lat="43.1479183" lon="12.9485533"><ele>520.25</ele><time>2026-03-22T13:20:57.367Z</time></trkpt><trkpt lat="43.1478117" lon="12.9486467"><ele>517.5</ele><time>2026-03-22T13:20:58.372Z</time></trkpt><trkpt lat="43.147705" lon="12.9487133"><ele>514.75</ele><time>2026-03-22T13:20:59.376Z</time></trkpt><trkpt lat="43.1476017" lon="12.9487667"><ele>512.0</ele><time>2026-03-22T13:21:00.374Z</time></trkpt><trkpt lat="43.147505" lon="12.948835"><ele>512.0</ele><time>2026-03-22T13:21:01.374Z</time></trkpt><trkpt lat="43.147415" lon="12.9489217"><ele>512.0</ele><time>2026-03-22T13:21:02.412Z</time></trkpt><trkpt lat="43.1473367" lon="12.94903"><ele>512.0</ele><time>2026-03-22T13:21:03.368Z</time></trkpt><trkpt lat="43.1472667" lon="12.9491533"><ele>512.0</ele><time>2026-03-22T13:21:04.373Z</time></trkpt><trkpt lat="43.14721" lon="12.9492783"><ele>512.0</ele><time>2026-03-22T13:21:05.372Z</time></trkpt><trkpt lat="43.147155" lon="12.9494017"><ele>513.2</ele><time>2026-03-22T13:21:06.379Z</time></trkpt><trkpt lat="43.1471067" lon="12.94952"><ele>514.4000000000001</ele><time>2026-03-22T13:21:07.37Z</time></trkpt><trkpt lat="43.147065" lon="12.9496133"><ele>515.5999999999999</ele><time>2026-03-22T13:21:08.415Z</time></trkpt><trkpt lat="43.14702" lon="12.949755"><ele>516.8</ele><time>2026-03-22T13:21:10.371Z</time></trkpt><trkpt lat="43.14701" lon="12.9498833"><ele>518.0</ele><time>2026-03-22T13:21:12.373Z</time></trkpt><trkpt lat="43.147075" lon="12.9500217"><ele>517.0</ele><time>2026-03-22T13:21:14.409Z</time></trkpt><trkpt lat="43.1471733" lon="12.950105"><ele>516.0</ele><time>2026-03-22T13:21:15.371Z</time></trkpt><trkpt lat="43.1473017" lon="12.950195"><ele>515.0</ele><time>2026-03-22T13:21:16.382Z</time></trkpt><trkpt lat="43.1474483" lon="12.9502817"><ele>514.0</ele><time>2026-03-22T13:21:17.371Z</time></trkpt><trkpt lat="43.1475767" lon="12.9503783"><ele>514.0</ele><time>2026-03-22T13:21:18.366Z</time></trkpt><trkpt lat="43.1477033" lon="12.9504817"><ele>514.0</ele><time>2026-03-22T13:21:19.371Z</time></trkpt><trkpt lat="43.1478383" lon="12.950585"><ele>514.0</ele><time>2026-03-22T13:21:20.411Z</time></trkpt><trkpt lat="43.147975" lon="12.95068"><ele>514.0</ele><time>2026-03-22T13:21:21.373Z</time></trkpt><trkpt lat="43.148105" lon="12.9507683"><ele>514.0</ele><time>2026-03-22T13:21:22.372Z</time></trkpt><trkpt lat="43.1482233" lon="12.9508533"><ele>514.0</ele><time>2026-03-22T13:21:23.37Z</time></trkpt><trkpt lat="43.148345" lon="12.950945"><ele>514.0</ele><time>2026-03-22T13:21:24.376Z</time></trkpt><trkpt lat="43.148455" lon="12.9510583"><ele>515.0</ele><time>2026-03-22T13:21:25.373Z</time></trkpt><trkpt lat="43.1485583" lon="12.9512083"><ele>516.0</ele><time>2026-03-22T13:21:26.415Z</time></trkpt><trkpt lat="43.1486483" lon="12.951375"><ele>517.0</ele><time>2026-03-22T13:21:27.372Z</time></trkpt><trkpt lat="43.1487367" lon="12.9515467"><ele>515.0</ele><time>2026-03-22T13:21:28.369Z</time></trkpt><trkpt lat="43.1488167" lon="12.9517183"><ele>513.0</ele><time>2026-03-22T13:21:29.365Z</time></trkpt><trkpt lat="43.1488983" lon="12.9518867"><ele>511.0</ele><time>2026-03-22T13:21:30.372Z</time></trkpt><trkpt lat="43.1489867" lon="12.9520333"><ele>509.0</ele><time>2026-03-22T13:21:31.372Z</time></trkpt><trkpt lat="43.1490817" lon="12.952155"><ele>509.0</ele><time>2026-03-22T13:21:32.414Z</time></trkpt><trkpt lat="43.149185" lon="12.9522617"><ele>509.0</ele><time>2026-03-22T13:21:33.371Z</time></trkpt><trkpt lat="43.14929" lon="12.952355"><ele>509.0</ele><time>2026-03-22T13:21:34.369Z</time></trkpt><trkpt lat="43.1493933" lon="12.9524517"><ele>509.0</ele><time>2026-03-22T13:21:35.358Z</time></trkpt><trkpt lat="43.14949" lon="12.95257"><ele>516.0</ele><time>2026-03-22T13:21:36.357Z</time></trkpt><trkpt lat="43.14958" lon="12.9527067"><ele>523.0</ele><time>2026-03-22T13:21:37.36Z</time></trkpt><trkpt lat="43.1496517" lon="12.9528717"><ele>530.0</ele><time>2026-03-22T13:21:38.412Z</time></trkpt><trkpt lat="43.1497017" lon="12.95305"><ele>537.0</ele><time>2026-03-22T13:21:39.368Z</time></trkpt><trkpt lat="43.1497417" lon="12.953235"><ele>542.0</ele><time>2026-03-22T13:21:40.373Z</time></trkpt><trkpt lat="43.149775" lon="12.953425"><ele>547.0</ele><time>2026-03-22T13:21:41.368Z</time></trkpt><trkpt lat="43.149805" lon="12.9536167"><ele>552.0</ele><time>2026-03-22T13:21:42.37Z</time></trkpt><trkpt lat="43.1498417" lon="12.9538133"><ele>557.0</ele><time>2026-03-22T13:21:43.371Z</time></trkpt><trkpt lat="43.1498767" lon="12.95401"><ele>536.6666666666666</ele><time>2026-03-22T13:21:44.408Z</time></trkpt><trkpt lat="43.1499117" lon="12.9542083"><ele>516.3333333333334</ele><time>2026-03-22T13:21:45.37Z</time></trkpt><trkpt lat="43.1499317" lon="12.9544133"><ele>496.0</ele><time>2026-03-22T13:21:46.369Z</time></trkpt><trkpt lat="43.1499433" lon="12.9546233"><ele>496.0</ele><time>2026-03-22T13:21:47.368Z</time></trkpt><trkpt lat="43.1499467" lon="12.95484"><ele>496.0</ele><time>2026-03-22T13:21:48.371Z</time></trkpt><trkpt lat="43.1499433" lon="12.9550667"><ele>496.0</ele><time>2026-03-22T13:21:49.37Z</time></trkpt><trkpt lat="43.1499417" lon="12.9553"><ele>497.0</ele><time>2026-03-22T13:21:50.416Z</time></trkpt><trkpt lat="43.1499433" lon="12.955535"><ele>498.0</ele><time>2026-03-22T13:21:51.371Z</time></trkpt><trkpt lat="43.1499633" lon="12.95577"><ele>499.0</ele><time>2026-03-22T13:21:52.372Z</time></trkpt><trkpt lat="43.1500067" lon="12.9559967"><ele>504.0</ele><time>2026-03-22T13:21:53.373Z</time></trkpt><trkpt lat="43.1500817" lon="12.95621"><ele>509.0</ele><time>2026-03-22T13:21:54.372Z</time></trkpt><trkpt lat="43.150175" lon="12.95641"><ele>514.0</ele><time>2026-03-22T13:21:55.372Z</time></trkpt><trkpt lat="43.1502733" lon="12.9565883"><ele>517.5</ele><time>2026-03-22T13:21:56.413Z</time></trkpt><trkpt lat="43.1503667" lon="12.9567517"><ele>521.0</ele><time>2026-03-22T13:21:57.369Z</time></trkpt><trkpt lat="43.1504533" lon="12.9569067"><ele>524.5</ele><time>2026-03-22T13:21:58.374Z</time></trkpt><trkpt lat="43.1505317" lon="12.9570533"><ele>528.0</ele><time>2026-03-22T13:21:59.374Z</time></trkpt><trkpt lat="43.1506033" lon="12.9571817"><ele>528.0</ele><time>2026-03-22T13:22:00.371Z</time></trkpt><trkpt lat="43.1506583" lon="12.9572783"><ele>528.0</ele><time>2026-03-22T13:22:01.371Z</time></trkpt><trkpt lat="43.1506783" lon="12.9574133"><ele>528.0</ele><time>2026-03-22T13:22:03.367Z</time></trkpt><trkpt lat="43.1506667" lon="12.9575583"><ele>528.0</ele><time>2026-03-22T13:22:05.367Z</time></trkpt><trkpt lat="43.1506533" lon="12.95765"><ele>528.0</ele><time>2026-03-22T13:22:06.373Z</time></trkpt><trkpt lat="43.150635" lon="12.9577383"><ele>528.0</ele><time>2026-03-22T13:22:07.37Z</time></trkpt><trkpt lat="43.150615" lon="12.9578283"><ele>529.6</ele><time>2026-03-22T13:22:08.403Z</time></trkpt><trkpt lat="43.1505817" lon="12.9579267"><ele>531.1999999999999</ele><time>2026-03-22T13:22:09.371Z</time></trkpt><trkpt lat="43.150545" lon="12.9580367"><ele>532.8</ele><time>2026-03-22T13:22:10.371Z</time></trkpt><trkpt lat="43.15052" lon="12.958155"><ele>534.4</ele><time>2026-03-22T13:22:11.368Z</time></trkpt><trkpt lat="43.1505033" lon="12.958285"><ele>536.0</ele><time>2026-03-22T13:22:12.372Z</time></trkpt><trkpt lat="43.1504933" lon="12.9584217"><ele>536.5</ele><time>2026-03-22T13:22:13.376Z</time></trkpt><trkpt lat="43.1504783" lon="12.9585633"><ele>537.0</ele><time>2026-03-22T13:22:14.414Z</time></trkpt><trkpt lat="43.15047" lon="12.958715"><ele>537.5</ele><time>2026-03-22T13:22:15.372Z</time></trkpt><trkpt lat="43.15047" lon="12.9588767"><ele>538.0</ele><time>2026-03-22T13:22:16.374Z</time></trkpt><trkpt lat="43.1504667" lon="12.9590533"><ele>536.1999999999999</ele><time>2026-03-22T13:22:17.369Z</time></trkpt><trkpt lat="43.1504567" lon="12.9592233"><ele>534.4</ele><time>2026-03-22T13:22:18.375Z</time></trkpt><trkpt lat="43.15044" lon="12.9593733"><ele>532.5999999999999</ele><time>2026-03-22T13:22:19.373Z</time></trkpt><trkpt lat="43.1504267" lon="12.9595"><ele>530.8</ele><time>2026-03-22T13:22:20.409Z</time></trkpt><trkpt lat="43.15042" lon="12.9595933"><ele>529.0</ele><time>2026-03-22T13:22:21.366Z</time></trkpt><trkpt lat="43.15043" lon="12.959735"><ele>529.0</ele><time>2026-03-22T13:22:23.371Z</time></trkpt><trkpt lat="43.1504167" lon="12.959895"><ele>529.0</ele><time>2026-03-22T13:22:25.371Z</time></trkpt><trkpt lat="43.15039" lon="12.9600467"><ele>529.0</ele><time>2026-03-22T13:22:27.373Z</time></trkpt><trkpt lat="43.1503217" lon="12.960205"><ele>529.0</ele><time>2026-03-22T13:22:29.374Z</time></trkpt><trkpt lat="43.150275" lon="12.96029"><ele>529.0</ele><time>2026-03-22T13:22:30.377Z</time></trkpt><trkpt lat="43.1502233" lon="12.96036"><ele>528.0</ele><time>2026-03-22T13:22:31.371Z</time></trkpt><trkpt lat="43.1501667" lon="12.960415"><ele>527.0</ele><time>2026-03-22T13:22:32.414Z</time></trkpt><trkpt lat="43.1501067" lon="12.9604617"><ele>526.0</ele><time>2026-03-22T13:22:33.355Z</time></trkpt><trkpt lat="43.1500483" lon="12.9604983"><ele>525.0</ele><time>2026-03-22T13:22:34.369Z</time></trkpt><trkpt lat="43.149985" lon="12.9605217"><ele>524.0</ele><time>2026-03-22T13:22:35.362Z</time></trkpt><trkpt lat="43.1499217" lon="12.9605317"><ele>523.0</ele><time>2026-03-22T13:22:36.374Z</time></trkpt><trkpt lat="43.14985" lon="12.9605483"><ele>522.0</ele><time>2026-03-22T13:22:37.356Z</time></trkpt><trkpt lat="43.1497767" lon="12.9605733"><ele>528.6</ele><time>2026-03-22T13:22:38.413Z</time></trkpt><trkpt lat="43.149705" lon="12.9606233"><ele>535.2</ele><time>2026-03-22T13:22:39.368Z</time></trkpt><trkpt lat="43.1496217" lon="12.9606817"><ele>541.8</ele><time>2026-03-22T13:22:40.377Z</time></trkpt><trkpt lat="43.1495383" lon="12.96074"><ele>548.4</ele><time>2026-03-22T13:22:41.373Z</time></trkpt><trkpt lat="43.1494483" lon="12.9608"><ele>555.0</ele><time>2026-03-22T13:22:42.376Z</time></trkpt><trkpt lat="43.1493533" lon="12.96085"><ele>554.0</ele><time>2026-03-22T13:22:43.373Z</time></trkpt><trkpt lat="43.1492683" lon="12.9608917"><ele>553.0</ele><time>2026-03-22T13:22:44.41Z</time></trkpt><trkpt lat="43.1491867" lon="12.9609417"><ele>552.0</ele><time>2026-03-22T13:22:45.366Z</time></trkpt><trkpt lat="43.1491133" lon="12.9610017"><ele>551.0</ele><time>2026-03-22T13:22:46.375Z</time></trkpt><trkpt lat="43.14906" lon="12.9610667"><ele>550.0</ele><time>2026-03-22T13:22:47.374Z</time></trkpt><trkpt lat="43.1490033" lon="12.961135"><ele>549.0</ele><time>2026-03-22T13:22:48.373Z</time></trkpt><trkpt lat="43.148945" lon="12.9612067"><ele>554.8333333333334</ele><time>2026-03-22T13:22:49.365Z</time></trkpt><trkpt lat="43.1488867" lon="12.9612833"><ele>560.6666666666666</ele><time>2026-03-22T13:22:50.407Z</time></trkpt><trkpt lat="43.1488233" lon="12.9613583"><ele>566.5</ele><time>2026-03-22T13:22:51.369Z</time></trkpt><trkpt lat="43.1487617" lon="12.9614283"><ele>572.3333333333333</ele><time>2026-03-22T13:22:52.38Z</time></trkpt><trkpt lat="43.14869" lon="12.9615"><ele>578.1666666666666</ele><time>2026-03-22T13:22:53.374Z</time></trkpt><trkpt lat="43.148615" lon="12.961575"><ele>584.0</ele><time>2026-03-22T13:22:54.371Z</time></trkpt><trkpt lat="43.1485417" lon="12.9616333"><ele>584.0</ele><time>2026-03-22T13:22:55.373Z</time></trkpt><trkpt lat="43.148485" lon="12.9616867"><ele>584.0</ele><time>2026-03-22T13:22:56.414Z</time></trkpt><trkpt lat="43.148415" lon="12.961735"><ele>584.0</ele><time>2026-03-22T13:22:57.37Z</time></trkpt><trkpt lat="43.14835" lon="12.96179"><ele>584.0</ele><time>2026-03-22T13:22:58.361Z</time></trkpt><trkpt lat="43.1482833" lon="12.9618433"><ele>584.0</ele><time>2026-03-22T13:22:59.374Z</time></trkpt><trkpt lat="43.148215" lon="12.9618967"><ele>584.0</ele><time>2026-03-22T13:23:00.378Z</time></trkpt><trkpt lat="43.1481483" lon="12.9619533"><ele>589.0</ele><time>2026-03-22T13:23:01.369Z</time></trkpt><trkpt lat="43.1480817" lon="12.96201"><ele>594.0</ele><time>2026-03-22T13:23:02.415Z</time></trkpt><trkpt lat="43.14801" lon="12.96207"><ele>599.0</ele><time>2026-03-22T13:23:03.371Z</time></trkpt><trkpt lat="43.147935" lon="12.9621267"><ele>604.0</ele><time>2026-03-22T13:23:04.375Z</time></trkpt><trkpt lat="43.1478567" lon="12.9621917"><ele>609.0</ele><time>2026-03-22T13:23:05.366Z</time></trkpt><trkpt lat="43.1477783" lon="12.9622533"><ele>614.0</ele><time>2026-03-22T13:23:06.374Z</time></trkpt><trkpt lat="43.1477017" lon="12.962315"><ele>613.9999999999999</ele><time>2026-03-22T13:23:07.375Z</time></trkpt><trkpt lat="43.1476367" lon="12.9623717"><ele>614.0</ele><time>2026-03-22T13:23:08.415Z</time></trkpt><trkpt lat="43.1475683" lon="12.9624217"><ele>614.0</ele><time>2026-03-22T13:23:09.372Z</time></trkpt><trkpt lat="43.1475083" lon="12.9624733"><ele>614.0</ele><time>2026-03-22T13:23:10.371Z</time></trkpt><trkpt lat="43.14745" lon="12.96253"><ele>614.0</ele><time>2026-03-22T13:23:11.37Z</time></trkpt><trkpt lat="43.147395" lon="12.962595"><ele>613.9999999999999</ele><time>2026-03-22T13:23:12.378Z</time></trkpt><trkpt lat="43.14734" lon="12.962655"><ele>614.0</ele><time>2026-03-22T13:23:13.378Z</time></trkpt><trkpt lat="43.1472883" lon="12.962705"><ele>620.4</ele><time>2026-03-22T13:23:14.401Z</time></trkpt><trkpt lat="43.1471883" lon="12.96277"><ele>626.8</ele><time>2026-03-22T13:23:16.36Z</time></trkpt><trkpt lat="43.1470917" lon="12.9628233"><ele>633.1999999999999</ele><time>2026-03-22T13:23:18.37Z</time></trkpt><trkpt lat="43.1469867" lon="12.96284"><ele>639.5999999999999</ele><time>2026-03-22T13:23:20.416Z</time></trkpt><trkpt lat="43.1468817" lon="12.9628817"><ele>646.0</ele><time>2026-03-22T13:23:22.375Z</time></trkpt><trkpt lat="43.1467617" lon="12.9629317"><ele>646.0</ele><time>2026-03-22T13:23:24.383Z</time></trkpt><trkpt lat="43.1466967" lon="12.9629683"><ele>646.0</ele><time>2026-03-22T13:23:25.38Z</time></trkpt><trkpt lat="43.14659" lon="12.9630567"><ele>646.0</ele><time>2026-03-22T13:23:27.378Z</time></trkpt><trkpt lat="43.1464933" lon="12.9631283"><ele>646.0</ele><time>2026-03-22T13:23:29.384Z</time></trkpt><trkpt lat="43.1464117" lon="12.96315"><ele>646.0</ele><time>2026-03-22T13:23:31.363Z</time></trkpt><trkpt lat="43.1463567" lon="12.963095"><ele>651.1999999999999</ele><time>2026-03-22T13:23:33.366Z</time></trkpt><trkpt lat="43.1463233" lon="12.96302"><ele>656.4</ele><time>2026-03-22T13:23:34.374Z</time></trkpt><trkpt lat="43.1462917" lon="12.96291"><ele>661.6</ele><time>2026-03-22T13:23:35.37Z</time></trkpt><trkpt lat="43.1462783" lon="12.9627617"><ele>666.8</ele><time>2026-03-22T13:23:36.376Z</time></trkpt><trkpt lat="43.1462633" lon="12.9626083"><ele>672.0</ele><time>2026-03-22T13:23:37.372Z</time></trkpt><trkpt lat="43.14625" lon="12.9624583"><ele>674.6</ele><time>2026-03-22T13:23:38.407Z</time></trkpt><trkpt lat="43.1462417" lon="12.9623267"><ele>677.2</ele><time>2026-03-22T13:23:39.372Z</time></trkpt><trkpt lat="43.1462433" lon="12.96221"><ele>679.8</ele><time>2026-03-22T13:23:40.38Z</time></trkpt><trkpt lat="43.14626" lon="12.9620833"><ele>682.4</ele><time>2026-03-22T13:23:41.381Z</time></trkpt><trkpt lat="43.1462867" lon="12.961945"><ele>685.0</ele><time>2026-03-22T13:23:42.379Z</time></trkpt><trkpt lat="43.1463233" lon="12.9618083"><ele>688.3333333333334</ele><time>2026-03-22T13:23:43.38Z</time></trkpt><trkpt lat="43.1463617" lon="12.9616767"><ele>691.6666666666667</ele><time>2026-03-22T13:23:44.42Z</time></trkpt><trkpt lat="43.14641" lon="12.9615583"><ele>695.0</ele><time>2026-03-22T13:23:45.38Z</time></trkpt><trkpt lat="43.1464517" lon="12.9614533"><ele>698.3333333333334</ele><time>2026-03-22T13:23:46.383Z</time></trkpt><trkpt lat="43.146485" lon="12.9613617"><ele>701.6666666666666</ele><time>2026-03-22T13:23:47.381Z</time></trkpt><trkpt lat="43.1465033" lon="12.9612717"><ele>705.0</ele><time>2026-03-22T13:23:48.378Z</time></trkpt><trkpt lat="43.1465217" lon="12.9611783"><ele>705.0</ele><time>2026-03-22T13:23:49.378Z</time></trkpt><trkpt lat="43.146485" lon="12.96106"><ele>705.0</ele><time>2026-03-22T13:23:51.376Z</time></trkpt><trkpt lat="43.1464233" lon="12.9610367"><ele>705.0</ele><time>2026-03-22T13:23:53.376Z</time></trkpt><trkpt lat="43.1463117" lon="12.9611633"><ele>705.0</ele><time>2026-03-22T13:23:55.376Z</time></trkpt><trkpt lat="43.1462583" lon="12.9612567"><ele>705.0</ele><time>2026-03-22T13:23:56.418Z</time></trkpt><trkpt lat="43.1462283" lon="12.9613333"><ele>705.0</ele><time>2026-03-22T13:23:57.379Z</time></trkpt><trkpt lat="43.1461583" lon="12.9614283"><ele>705.0</ele><time>2026-03-22T13:23:59.371Z</time></trkpt><trkpt lat="43.1460867" lon="12.9615067"><ele>705.0</ele><time>2026-03-22T13:24:01.374Z</time></trkpt><trkpt lat="43.146015" lon="12.9616017"><ele>705.0</ele><time>2026-03-22T13:24:03.358Z</time></trkpt><trkpt lat="43.145915" lon="12.96168"><ele>705.0</ele><time>2026-03-22T13:24:05.365Z</time></trkpt><trkpt lat="43.1458183" lon="12.961765"><ele>708.4</ele><time>2026-03-22T13:24:07.383Z</time></trkpt><trkpt lat="43.1457133" lon="12.9618433"><ele>711.8</ele><time>2026-03-22T13:24:09.378Z</time></trkpt><trkpt lat="43.1455967" lon="12.9618717"><ele>715.2</ele><time>2026-03-22T13:24:11.377Z</time></trkpt><trkpt lat="43.1454867" lon="12.961915"><ele>718.6</ele><time>2026-03-22T13:24:13.385Z</time></trkpt><trkpt lat="43.145435" lon="12.961975"><ele>722.0</ele><time>2026-03-22T13:24:14.404Z</time></trkpt><trkpt lat="43.1453333" lon="12.9620767"><ele>722.0</ele><time>2026-03-22T13:24:16.365Z</time></trkpt><trkpt lat="43.1452417" lon="12.96212"><ele>722.0</ele><time>2026-03-22T13:24:18.382Z</time></trkpt><trkpt lat="43.1451617" lon="12.962095"><ele>722.0</ele><time>2026-03-22T13:24:20.415Z</time></trkpt><trkpt lat="43.14509" lon="12.9620783"><ele>722.0</ele><time>2026-03-22T13:24:22.372Z</time></trkpt><trkpt lat="43.1450367" lon="12.9621733"><ele>722.0</ele><time>2026-03-22T13:24:24.374Z</time></trkpt><trkpt lat="43.1449933" lon="12.9622533"><ele>722.0</ele><time>2026-03-22T13:24:25.371Z</time></trkpt><trkpt lat="43.1449417" lon="12.96234"><ele>722.0</ele><time>2026-03-22T13:24:26.414Z</time></trkpt><trkpt lat="43.1448967" lon="12.9624517"><ele>722.0</ele><time>2026-03-22T13:24:27.375Z</time></trkpt><trkpt lat="43.144855" lon="12.96254"><ele>722.0</ele><time>2026-03-22T13:24:28.381Z</time></trkpt><trkpt lat="43.1447933" lon="12.9626317"><ele>722.0</ele><time>2026-03-22T13:24:30.387Z</time></trkpt><trkpt lat="43.144725" lon="12.9625517"><ele>722.0</ele><time>2026-03-22T13:24:35.362Z</time></trkpt><trkpt lat="43.1446817" lon="12.9624067"><ele>727.4285714285714</ele><time>2026-03-22T13:24:37.372Z</time></trkpt><trkpt lat="43.144655" lon="12.9623183"><ele>732.8571428571428</ele><time>2026-03-22T13:24:38.413Z</time></trkpt><trkpt lat="43.144625" lon="12.9622383"><ele>738.2857142857142</ele><time>2026-03-22T13:24:39.376Z</time></trkpt><trkpt lat="43.1445933" lon="12.96216"><ele>743.7142857142858</ele><time>2026-03-22T13:24:40.38Z</time></trkpt><trkpt lat="43.1445683" lon="12.9620783"><ele>749.1428571428571</ele><time>2026-03-22T13:24:41.373Z</time></trkpt><trkpt lat="43.1445533" lon="12.9619833"><ele>754.5714285714286</ele><time>2026-03-22T13:24:42.382Z</time></trkpt><trkpt lat="43.1445417" lon="12.9618817"><ele>760.0</ele><time>2026-03-22T13:24:43.385Z</time></trkpt><trkpt lat="43.144525" lon="12.9617717"><ele>763.1666666666667</ele><time>2026-03-22T13:24:44.424Z</time></trkpt><trkpt lat="43.14451" lon="12.96166"><ele>766.3333333333334</ele><time>2026-03-22T13:24:45.384Z</time></trkpt><trkpt lat="43.144505" lon="12.9615517"><ele>769.5</ele><time>2026-03-22T13:24:46.364Z</time></trkpt><trkpt lat="43.1445183" lon="12.96146"><ele>772.6666666666667</ele><time>2026-03-22T13:24:47.377Z</time></trkpt><trkpt lat="43.1445133" lon="12.9613417"><ele>775.8333333333334</ele><time>2026-03-22T13:24:49.379Z</time></trkpt><trkpt lat="43.1444533" lon="12.9614167"><ele>779.0</ele><time>2026-03-22T13:24:52.382Z</time></trkpt><trkpt lat="43.1444217" lon="12.9615133"><ele>779.0</ele><time>2026-03-22T13:24:53.382Z</time></trkpt><trkpt lat="43.1443583" lon="12.96168"><ele>779.0</ele><time>2026-03-22T13:24:54.376Z</time></trkpt><trkpt lat="43.1442967" lon="12.961825"><ele>779.0</ele><time>2026-03-22T13:24:55.364Z</time></trkpt><trkpt lat="43.1442317" lon="12.9619517"><ele>779.0</ele><time>2026-03-22T13:24:56.446Z</time></trkpt><trkpt lat="43.14418" lon="12.9620817"><ele>780.75</ele><time>2026-03-22T13:24:57.377Z</time></trkpt><trkpt lat="43.1441183" lon="12.9622167"><ele>782.5</ele><time>2026-03-22T13:24:58.37Z</time></trkpt><trkpt lat="43.14405" lon="12.9623633"><ele>784.25</ele><time>2026-03-22T13:24:59.381Z</time></trkpt><trkpt lat="43.1439783" lon="12.962505"><ele>786.0</ele><time>2026-03-22T13:25:00.38Z</time></trkpt><trkpt lat="43.143905" lon="12.9626417"><ele>786.0</ele><time>2026-03-22T13:25:01.377Z</time></trkpt><trkpt lat="43.1438433" lon="12.962765"><ele>786.0</ele><time>2026-03-22T13:25:02.422Z</time></trkpt><trkpt lat="43.1437933" lon="12.9628767"><ele>786.0</ele><time>2026-03-22T13:25:03.382Z</time></trkpt><trkpt lat="43.1437417" lon="12.9629833"><ele>786.0</ele><time>2026-03-22T13:25:04.377Z</time></trkpt><trkpt lat="43.1436917" lon="12.96309"><ele>786.0</ele><time>2026-03-22T13:25:05.378Z</time></trkpt><trkpt lat="43.14364" lon="12.9632"><ele>786.0</ele><time>2026-03-22T13:25:06.381Z</time></trkpt><trkpt lat="43.143595" lon="12.963305"><ele>786.0</ele><time>2026-03-22T13:25:07.382Z</time></trkpt><trkpt lat="43.143555" lon="12.9634167"><ele>786.0</ele><time>2026-03-22T13:25:08.419Z</time></trkpt><trkpt lat="43.143525" lon="12.9635217"><ele>786.0</ele><time>2026-03-22T13:25:09.381Z</time></trkpt><trkpt lat="43.1435033" lon="12.96362"><ele>786.0</ele><time>2026-03-22T13:25:10.382Z</time></trkpt><trkpt lat="43.1434883" lon="12.963725"><ele>786.0</ele><time>2026-03-22T13:25:11.379Z</time></trkpt><trkpt lat="43.14348" lon="12.96383"><ele>784.3333333333334</ele><time>2026-03-22T13:25:12.379Z</time></trkpt><trkpt lat="43.143465" lon="12.96394"><ele>782.6666666666667</ele><time>2026-03-22T13:25:13.38Z</time></trkpt><trkpt lat="43.1434533" lon="12.96405"><ele>781.0</ele><time>2026-03-22T13:25:14.419Z</time></trkpt><trkpt lat="43.1434367" lon="12.964165"><ele>779.3333333333334</ele><time>2026-03-22T13:25:15.371Z</time></trkpt><trkpt lat="43.1434217" lon="12.9642917"><ele>777.6666666666667</ele><time>2026-03-22T13:25:16.355Z</time></trkpt><trkpt lat="43.1433983" lon="12.9644183"><ele>776.0</ele><time>2026-03-22T13:25:17.36Z</time></trkpt><trkpt lat="43.143375" lon="12.9645383"><ele>775.1666666666667</ele><time>2026-03-22T13:25:18.364Z</time></trkpt><trkpt lat="43.1433567" lon="12.9646367"><ele>774.3333333333334</ele><time>2026-03-22T13:25:19.357Z</time></trkpt><trkpt lat="43.143335" lon="12.9647183"><ele>773.5</ele><time>2026-03-22T13:25:20.407Z</time></trkpt><trkpt lat="43.1432783" lon="12.9646717"><ele>772.6666666666667</ele><time>2026-03-22T13:25:25.373Z</time></trkpt><trkpt lat="43.1432617" lon="12.96457"><ele>771.8333333333334</ele><time>2026-03-22T13:25:27.372Z</time></trkpt><trkpt lat="43.14323" lon="12.9644267"><ele>771.0</ele><time>2026-03-22T13:25:29.377Z</time></trkpt><trkpt lat="43.1432183" lon="12.96434"><ele>769.1666666666666</ele><time>2026-03-22T13:25:30.363Z</time></trkpt><trkpt lat="43.1432117" lon="12.9642417"><ele>767.3333333333334</ele><time>2026-03-22T13:25:31.379Z</time></trkpt><trkpt lat="43.143205" lon="12.9641383"><ele>765.5</ele><time>2026-03-22T13:25:32.424Z</time></trkpt><trkpt lat="43.14319" lon="12.9640333"><ele>763.6666666666667</ele><time>2026-03-22T13:25:33.38Z</time></trkpt><trkpt lat="43.1431717" lon="12.9639267"><ele>761.8333333333334</ele><time>2026-03-22T13:25:34.38Z</time></trkpt><trkpt lat="43.1431433" lon="12.9638117"><ele>760.0</ele><time>2026-03-22T13:25:35.381Z</time></trkpt><trkpt lat="43.143105" lon="12.9636933"><ele>767.3333333333334</ele><time>2026-03-22T13:25:36.385Z</time></trkpt><trkpt lat="43.1430717" lon="12.96358"><ele>774.6666666666667</ele><time>2026-03-22T13:25:37.383Z</time></trkpt><trkpt lat="43.1430467" lon="12.9634733"><ele>782.0</ele><time>2026-03-22T13:25:38.421Z</time></trkpt><trkpt lat="43.1430267" lon="12.9633633"><ele>789.3333333333334</ele><time>2026-03-22T13:25:39.373Z</time></trkpt><trkpt lat="43.1430117" lon="12.9632517"><ele>796.6666666666666</ele><time>2026-03-22T13:25:40.372Z</time></trkpt><trkpt lat="43.1430067" lon="12.9631333"><ele>804.0</ele><time>2026-03-22T13:25:41.38Z</time></trkpt><trkpt lat="43.143015" lon="12.9630083"><ele>808.6666666666666</ele><time>2026-03-22T13:25:42.383Z</time></trkpt><trkpt lat="43.14302" lon="12.962885"><ele>813.3333333333333</ele><time>2026-03-22T13:25:43.376Z</time></trkpt><trkpt lat="43.1430083" lon="12.9627617"><ele>818.0</ele><time>2026-03-22T13:25:44.418Z</time></trkpt><trkpt lat="43.1429933" lon="12.9626417"><ele>822.6666666666666</ele><time>2026-03-22T13:25:45.376Z</time></trkpt><trkpt lat="43.1429767" lon="12.9625283"><ele>827.3333333333333</ele><time>2026-03-22T13:25:46.379Z</time></trkpt><trkpt lat="43.1429633" lon="12.9624233"><ele>832.0</ele><time>2026-03-22T13:25:47.38Z</time></trkpt><trkpt lat="43.14295" lon="12.9623283"><ele>831.9999999999999</ele><time>2026-03-22T13:25:48.382Z</time></trkpt><trkpt lat="43.142905" lon="12.9622283"><ele>832.0</ele><time>2026-03-22T13:25:50.417Z</time></trkpt><trkpt lat="43.1428333" lon="12.962285"><ele>832.0</ele><time>2026-03-22T13:25:52.376Z</time></trkpt><trkpt lat="43.142785" lon="12.9623433"><ele>832.0</ele><time>2026-03-22T13:25:53.378Z</time></trkpt><trkpt lat="43.1427333" lon="12.962425"><ele>831.9999999999999</ele><time>2026-03-22T13:25:54.379Z</time></trkpt><trkpt lat="43.1426817" lon="12.9625333"><ele>832.0</ele><time>2026-03-22T13:25:55.38Z</time></trkpt><trkpt lat="43.14262" lon="12.9626433"><ele>832.0</ele><time>2026-03-22T13:25:56.414Z</time></trkpt><trkpt lat="43.14255" lon="12.9627767"><ele>832.0</ele><time>2026-03-22T13:25:57.379Z</time></trkpt><trkpt lat="43.142485" lon="12.9629233"><ele>832.0</ele><time>2026-03-22T13:25:58.38Z</time></trkpt><trkpt lat="43.1424183" lon="12.9630867"><ele>832.0</ele><time>2026-03-22T13:25:59.381Z</time></trkpt><trkpt lat="43.142355" lon="12.9632517"><ele>826.4000000000001</ele><time>2026-03-22T13:26:00.38Z</time></trkpt><trkpt lat="43.1422983" lon="12.9633917"><ele>820.8000000000001</ele><time>2026-03-22T13:26:01.374Z</time></trkpt><trkpt lat="43.1422483" lon="12.9635033"><ele>815.2</ele><time>2026-03-22T13:26:02.425Z</time></trkpt><trkpt lat="43.1421983" lon="12.9635833"><ele>809.6</ele><time>2026-03-22T13:26:03.38Z</time></trkpt><trkpt lat="43.14209" lon="12.9636517"><ele>804.0</ele><time>2026-03-22T13:26:05.378Z</time></trkpt><trkpt lat="43.142015" lon="12.9636517"><ele>804.0</ele><time>2026-03-22T13:26:06.38Z</time></trkpt><trkpt lat="43.1419167" lon="12.9636267"><ele>804.0</ele><time>2026-03-22T13:26:07.383Z</time></trkpt><trkpt lat="43.141805" lon="12.9636"><ele>804.0</ele><time>2026-03-22T13:26:08.418Z</time></trkpt><trkpt lat="43.141705" lon="12.96359"><ele>804.0</ele><time>2026-03-22T13:26:09.382Z</time></trkpt><trkpt lat="43.14161" lon="12.9635717"><ele>804.0</ele><time>2026-03-22T13:26:10.38Z</time></trkpt><trkpt lat="43.14151" lon="12.9635467"><ele>800.4000000000001</ele><time>2026-03-22T13:26:11.378Z</time></trkpt><trkpt lat="43.1414" lon="12.963515"><ele>796.8</ele><time>2026-03-22T13:26:12.38Z</time></trkpt><trkpt lat="43.1412817" lon="12.963475"><ele>793.2</ele><time>2026-03-22T13:26:13.38Z</time></trkpt><trkpt lat="43.1411733" lon="12.9634467"><ele>789.5999999999999</ele><time>2026-03-22T13:26:14.414Z</time></trkpt><trkpt lat="43.1410733" lon="12.9634233"><ele>786.0</ele><time>2026-03-22T13:26:15.363Z</time></trkpt><trkpt lat="43.1409867" lon="12.9633983"><ele>786.0</ele><time>2026-03-22T13:26:16.379Z</time></trkpt><trkpt lat="43.1409067" lon="12.9633717"><ele>786.0</ele><time>2026-03-22T13:26:17.379Z</time></trkpt><trkpt lat="43.140825" lon="12.9633533"><ele>786.0</ele><time>2026-03-22T13:26:18.378Z</time></trkpt><trkpt lat="43.14074" lon="12.963345"><ele>786.0</ele><time>2026-03-22T13:26:19.376Z</time></trkpt><trkpt lat="43.1406533" lon="12.9633267"><ele>786.0</ele><time>2026-03-22T13:26:20.416Z</time></trkpt><trkpt lat="43.140555" lon="12.9632883"><ele>786.0</ele><time>2026-03-22T13:26:21.38Z</time></trkpt><trkpt lat="43.1404417" lon="12.9632383"><ele>791.5</ele><time>2026-03-22T13:26:22.379Z</time></trkpt><trkpt lat="43.140315" lon="12.96318"><ele>797.0</ele><time>2026-03-22T13:26:23.372Z</time></trkpt><trkpt lat="43.1401933" lon="12.96314"><ele>802.5</ele><time>2026-03-22T13:26:24.381Z</time></trkpt><trkpt lat="43.1400767" lon="12.96311"><ele>808.0</ele><time>2026-03-22T13:26:25.366Z</time></trkpt><trkpt lat="43.139965" lon="12.9630783"><ele>803.75</ele><time>2026-03-22T13:26:26.439Z</time></trkpt><trkpt lat="43.1398483" lon="12.9630633"><ele>799.5</ele><time>2026-03-22T13:26:27.379Z</time></trkpt><trkpt lat="43.1397183" lon="12.9630683"><ele>795.25</ele><time>2026-03-22T13:26:28.38Z</time></trkpt><trkpt lat="43.139585" lon="12.96307"><ele>791.0</ele><time>2026-03-22T13:26:29.378Z</time></trkpt><trkpt lat="43.1394467" lon="12.9631017"><ele>791.0</ele><time>2026-03-22T13:26:30.38Z</time></trkpt><trkpt lat="43.1393217" lon="12.9631233"><ele>791.0</ele><time>2026-03-22T13:26:31.378Z</time></trkpt><trkpt lat="43.139205" lon="12.96313"><ele>791.0</ele><time>2026-03-22T13:26:32.416Z</time></trkpt><trkpt lat="43.139095" lon="12.9631233"><ele>791.0</ele><time>2026-03-22T13:26:33.377Z</time></trkpt><trkpt lat="43.1389817" lon="12.96311"><ele>788.5</ele><time>2026-03-22T13:26:34.377Z</time></trkpt><trkpt lat="43.13886" lon="12.963105"><ele>786.0</ele><time>2026-03-22T13:26:35.376Z</time></trkpt><trkpt lat="43.1387383" lon="12.9630883"><ele>783.5</ele><time>2026-03-22T13:26:36.372Z</time></trkpt><trkpt lat="43.1386283" lon="12.96308"><ele>781.0</ele><time>2026-03-22T13:26:37.38Z</time></trkpt><trkpt lat="43.1385233" lon="12.96306"><ele>781.0</ele><time>2026-03-22T13:26:38.402Z</time></trkpt><trkpt lat="43.1384117" lon="12.9630217"><ele>781.0</ele><time>2026-03-22T13:26:39.362Z</time></trkpt><trkpt lat="43.1383017" lon="12.9629933"><ele>781.0</ele><time>2026-03-22T13:26:40.365Z</time></trkpt><trkpt lat="43.1381917" lon="12.96299"><ele>781.0</ele><time>2026-03-22T13:26:41.382Z</time></trkpt><trkpt lat="43.1380783" lon="12.96299"><ele>780.0</ele><time>2026-03-22T13:26:42.379Z</time></trkpt><trkpt lat="43.137955" lon="12.9629933"><ele>779.0</ele><time>2026-03-22T13:26:43.38Z</time></trkpt><trkpt lat="43.13782" lon="12.9629967"><ele>778.0</ele><time>2026-03-22T13:26:44.398Z</time></trkpt><trkpt lat="43.1376817" lon="12.9630033"><ele>777.0</ele><time>2026-03-22T13:26:45.374Z</time></trkpt><trkpt lat="43.1375483" lon="12.9630033"><ele>777.0</ele><time>2026-03-22T13:26:46.38Z</time></trkpt><trkpt lat="43.1374283" lon="12.9629867"><ele>777.0</ele><time>2026-03-22T13:26:47.368Z</time></trkpt><trkpt lat="43.1373267" lon="12.9629817"><ele>777.0</ele><time>2026-03-22T13:26:48.377Z</time></trkpt><trkpt lat="43.1372433" lon="12.9629817"><ele>777.0</ele><time>2026-03-22T13:26:49.363Z</time></trkpt><trkpt lat="43.1371667" lon="12.96297"><ele>777.0</ele><time>2026-03-22T13:26:50.417Z</time></trkpt><trkpt lat="43.13708" lon="12.9629467"><ele>777.6</ele><time>2026-03-22T13:26:51.377Z</time></trkpt><trkpt lat="43.1369967" lon="12.96287"><ele>778.2</ele><time>2026-03-22T13:26:52.382Z</time></trkpt><trkpt lat="43.1369183" lon="12.9628367"><ele>778.8</ele><time>2026-03-22T13:26:53.381Z</time></trkpt><trkpt lat="43.1368367" lon="12.9628267"><ele>779.4</ele><time>2026-03-22T13:26:54.378Z</time></trkpt><trkpt lat="43.1367433" lon="12.96284"><ele>780.0</ele><time>2026-03-22T13:26:55.384Z</time></trkpt><trkpt lat="43.1366217" lon="12.962885"><ele>785.3333333333333</ele><time>2026-03-22T13:26:56.439Z</time></trkpt><trkpt lat="43.1364783" lon="12.9629417"><ele>790.6666666666666</ele><time>2026-03-22T13:26:57.375Z</time></trkpt><trkpt lat="43.1363267" lon="12.9630067"><ele>796.0</ele><time>2026-03-22T13:26:58.355Z</time></trkpt><trkpt lat="43.1361633" lon="12.9630817"><ele>796.0</ele><time>2026-03-22T13:26:59.378Z</time></trkpt><trkpt lat="43.1359783" lon="12.9631867"><ele>796.0</ele><time>2026-03-22T13:27:00.381Z</time></trkpt><trkpt lat="43.1357983" lon="12.9632917"><ele>796.0</ele><time>2026-03-22T13:27:01.38Z</time></trkpt><trkpt lat="43.135615" lon="12.96339"><ele>788.6666666666666</ele><time>2026-03-22T13:27:02.422Z</time></trkpt><trkpt lat="43.1354333" lon="12.9634667"><ele>781.3333333333333</ele><time>2026-03-22T13:27:03.378Z</time></trkpt><trkpt lat="43.135255" lon="12.9635367"><ele>774.0</ele><time>2026-03-22T13:27:04.379Z</time></trkpt><trkpt lat="43.13507" lon="12.963605"><ele>780.6666666666667</ele><time>2026-03-22T13:27:05.381Z</time></trkpt><trkpt lat="43.1348833" lon="12.9636667"><ele>787.3333333333334</ele><time>2026-03-22T13:27:06.373Z</time></trkpt><trkpt lat="43.1347067" lon="12.9637183"><ele>794.0</ele><time>2026-03-22T13:27:07.376Z</time></trkpt><trkpt lat="43.1345483" lon="12.9637717"><ele>794.0</ele><time>2026-03-22T13:27:08.41Z</time></trkpt><trkpt lat="43.1344033" lon="12.9638217"><ele>794.0</ele><time>2026-03-22T13:27:09.382Z</time></trkpt><trkpt lat="43.1342683" lon="12.9638733"><ele>794.0</ele><time>2026-03-22T13:27:10.376Z</time></trkpt><trkpt lat="43.1341417" lon="12.963935"><ele>794.0</ele><time>2026-03-22T13:27:11.376Z</time></trkpt><trkpt lat="43.1340133" lon="12.9640183"><ele>792.3333333333334</ele><time>2026-03-22T13:27:12.382Z</time></trkpt><trkpt lat="43.1338817" lon="12.9641183"><ele>790.6666666666667</ele><time>2026-03-22T13:27:13.378Z</time></trkpt><trkpt lat="43.133745" lon="12.9642133"><ele>789.0</ele><time>2026-03-22T13:27:14.43Z</time></trkpt><trkpt lat="43.1336033" lon="12.96431"><ele>789.0</ele><time>2026-03-22T13:27:15.38Z</time></trkpt><trkpt lat="43.1334533" lon="12.964395"><ele>789.0</ele><time>2026-03-22T13:27:16.381Z</time></trkpt><trkpt lat="43.133325" lon="12.9644867"><ele>789.0</ele><time>2026-03-22T13:27:17.385Z</time></trkpt><trkpt lat="43.1332083" lon="12.9645817"><ele>789.0</ele><time>2026-03-22T13:27:18.383Z</time></trkpt><trkpt lat="43.1331067" lon="12.9646733"><ele>789.2</ele><time>2026-03-22T13:27:19.379Z</time></trkpt><trkpt lat="43.1330167" lon="12.9647633"><ele>789.4000000000001</ele><time>2026-03-22T13:27:20.406Z</time></trkpt><trkpt lat="43.1329367" lon="12.9648583"><ele>789.6</ele><time>2026-03-22T13:27:21.369Z</time></trkpt><trkpt lat="43.1328783" lon="12.96496"><ele>789.8</ele><time>2026-03-22T13:27:22.372Z</time></trkpt><trkpt lat="43.1328517" lon="12.965055"><ele>790.0</ele><time>2026-03-22T13:27:23.374Z</time></trkpt><trkpt lat="43.1328383" lon="12.96515"><ele>792.8333333333333</ele><time>2026-03-22T13:27:24.382Z</time></trkpt><trkpt lat="43.1328233" lon="12.965245"><ele>795.6666666666666</ele><time>2026-03-22T13:27:25.36Z</time></trkpt><trkpt lat="43.1328067" lon="12.9653317"><ele>798.5</ele><time>2026-03-22T13:27:26.442Z</time></trkpt><trkpt lat="43.13278" lon="12.9654667"><ele>801.3333333333333</ele><time>2026-03-22T13:27:28.379Z</time></trkpt><trkpt lat="43.132755" lon="12.9655783"><ele>804.1666666666666</ele><time>2026-03-22T13:27:30.379Z</time></trkpt><trkpt lat="43.1327233" lon="12.9657217"><ele>807.0</ele><time>2026-03-22T13:27:32.418Z</time></trkpt><trkpt lat="43.132695" lon="12.9658883"><ele>809.1666666666666</ele><time>2026-03-22T13:27:34.378Z</time></trkpt><trkpt lat="43.132675" lon="12.9659933"><ele>811.3333333333333</ele><time>2026-03-22T13:27:35.378Z</time></trkpt><trkpt lat="43.1326517" lon="12.9661017"><ele>813.5</ele><time>2026-03-22T13:27:36.384Z</time></trkpt><trkpt lat="43.1326233" lon="12.9661983"><ele>815.6666666666666</ele><time>2026-03-22T13:27:37.378Z</time></trkpt><trkpt lat="43.1325933" lon="12.9663367"><ele>817.8333333333333</ele><time>2026-03-22T13:27:39.378Z</time></trkpt><trkpt lat="43.1325633" lon="12.966445"><ele>820.0</ele><time>2026-03-22T13:27:46.374Z</time></trkpt><trkpt lat="43.1325517" lon="12.966545"><ele>820.0</ele><time>2026-03-22T13:27:48.36Z</time></trkpt><trkpt lat="43.13252" lon="12.9666867"><ele>820.0</ele><time>2026-03-22T13:27:50.402Z</time></trkpt><trkpt lat="43.1324483" lon="12.966775"><ele>820.0</ele><time>2026-03-22T13:27:52.383Z</time></trkpt><trkpt lat="43.13236" lon="12.9667883"><ele>820.0</ele><time>2026-03-22T13:27:54.387Z</time></trkpt><trkpt lat="43.1322417" lon="12.9667783"><ele>820.0</ele><time>2026-03-22T13:27:56.444Z</time></trkpt><trkpt lat="43.1321367" lon="12.9668083"><ele>828.6</ele><time>2026-03-22T13:27:58.366Z</time></trkpt><trkpt lat="43.1320583" lon="12.9668267"><ele>837.2</ele><time>2026-03-22T13:28:00.363Z</time></trkpt><trkpt lat="43.1319767" lon="12.9668383"><ele>845.8</ele><time>2026-03-22T13:28:02.417Z</time></trkpt><trkpt lat="43.1318883" lon="12.9669067"><ele>854.4</ele><time>2026-03-22T13:28:04.37Z</time></trkpt><trkpt lat="43.131795" lon="12.9669833"><ele>863.0</ele><time>2026-03-22T13:28:06.384Z</time></trkpt><trkpt lat="43.1317383" lon="12.967105"><ele>863.0000000000001</ele><time>2026-03-22T13:28:08.417Z</time></trkpt><trkpt lat="43.1316933" lon="12.967175"><ele>863.0</ele><time>2026-03-22T13:28:10.362Z</time></trkpt><trkpt lat="43.1316167" lon="12.9672017"><ele>863.0</ele><time>2026-03-22T13:28:12.372Z</time></trkpt><trkpt lat="43.131535" lon="12.9672583"><ele>863.0</ele><time>2026-03-22T13:28:14.381Z</time></trkpt><trkpt lat="43.1314617" lon="12.9672783"><ele>863.0000000000001</ele><time>2026-03-22T13:28:16.361Z</time></trkpt><trkpt lat="43.1314583" lon="12.9673883"><ele>863.0</ele><time>2026-03-22T13:28:20.404Z</time></trkpt><trkpt lat="43.1314983" lon="12.9675533"><ele>865.6666666666667</ele><time>2026-03-22T13:28:22.372Z</time></trkpt><trkpt lat="43.1315267" lon="12.9676633"><ele>868.3333333333334</ele><time>2026-03-22T13:28:23.376Z</time></trkpt><trkpt lat="43.1315617" lon="12.9677783"><ele>871.0</ele><time>2026-03-22T13:28:24.368Z</time></trkpt><trkpt lat="43.1315917" lon="12.9678817"><ele>873.6666666666667</ele><time>2026-03-22T13:28:25.365Z</time></trkpt><trkpt lat="43.1316117" lon="12.9679733"><ele>876.3333333333334</ele><time>2026-03-22T13:28:26.398Z</time></trkpt><trkpt lat="43.1316283" lon="12.9680583"><ele>879.0</ele><time>2026-03-22T13:28:27.371Z</time></trkpt><trkpt lat="43.1316233" lon="12.9681817"><ele>885.6</ele><time>2026-03-22T13:28:29.372Z</time></trkpt><trkpt lat="43.1315217" lon="12.9681783"><ele>892.2</ele><time>2026-03-22T13:28:32.408Z</time></trkpt><trkpt lat="43.131475" lon="12.9680517"><ele>898.8000000000001</ele><time>2026-03-22T13:28:34.368Z</time></trkpt><trkpt lat="43.13145" lon="12.9679567"><ele>905.4000000000001</ele><time>2026-03-22T13:28:35.368Z</time></trkpt><trkpt lat="43.1314183" lon="12.9678517"><ele>912.0</ele><time>2026-03-22T13:28:36.384Z</time></trkpt><trkpt lat="43.131375" lon="12.9677383"><ele>912.0</ele><time>2026-03-22T13:28:37.377Z</time></trkpt><trkpt lat="43.131305" lon="12.9676267"><ele>912.0</ele><time>2026-03-22T13:28:38.414Z</time></trkpt><trkpt lat="43.1312267" lon="12.967525"><ele>912.0</ele><time>2026-03-22T13:28:39.371Z</time></trkpt><trkpt lat="43.1311283" lon="12.9674383"><ele>912.0</ele><time>2026-03-22T13:28:40.372Z</time></trkpt><trkpt lat="43.131005" lon="12.9673583"><ele>912.25</ele><time>2026-03-22T13:28:41.373Z</time></trkpt><trkpt lat="43.1308733" lon="12.9673033"><ele>912.5</ele><time>2026-03-22T13:28:42.383Z</time></trkpt><trkpt lat="43.13074" lon="12.9672633"><ele>912.75</ele><time>2026-03-22T13:28:43.367Z</time></trkpt><trkpt lat="43.1306267" lon="12.967215"><ele>913.0</ele><time>2026-03-22T13:28:44.411Z</time></trkpt><trkpt lat="43.1305083" lon="12.96717"><ele>913.0</ele><time>2026-03-22T13:28:45.373Z</time></trkpt><trkpt lat="43.1303867" lon="12.96713"><ele>913.0</ele><time>2026-03-22T13:28:46.371Z</time></trkpt><trkpt lat="43.1302683" lon="12.96708"><ele>913.0</ele><time>2026-03-22T13:28:47.372Z</time></trkpt><trkpt lat="43.130155" lon="12.9670283"><ele>913.0</ele><time>2026-03-22T13:28:48.376Z</time></trkpt><trkpt lat="43.130045" lon="12.9669717"><ele>913.0</ele><time>2026-03-22T13:28:49.377Z</time></trkpt><trkpt lat="43.129935" lon="12.9669183"><ele>913.0</ele><time>2026-03-22T13:28:50.415Z</time></trkpt><trkpt lat="43.1298267" lon="12.966855"><ele>913.0</ele><time>2026-03-22T13:28:51.373Z</time></trkpt><trkpt lat="43.129715" lon="12.9667967"><ele>913.0</ele><time>2026-03-22T13:28:52.37Z</time></trkpt><trkpt lat="43.1296033" lon="12.96674"><ele>912.75</ele><time>2026-03-22T13:28:53.364Z</time></trkpt><trkpt lat="43.1294433" lon="12.9667033"><ele>912.5</ele><time>2026-03-22T13:28:54.376Z</time></trkpt><trkpt lat="43.1293167" lon="12.9666717"><ele>912.25</ele><time>2026-03-22T13:28:55.373Z</time></trkpt><trkpt lat="43.12919" lon="12.9666583"><ele>912.0</ele><time>2026-03-22T13:28:56.44Z</time></trkpt><trkpt lat="43.1290683" lon="12.9666583"><ele>911.4000000000001</ele><time>2026-03-22T13:28:57.371Z</time></trkpt><trkpt lat="43.128955" lon="12.96668"><ele>910.8000000000001</ele><time>2026-03-22T13:28:58.371Z</time></trkpt><trkpt lat="43.1288517" lon="12.9667217"><ele>910.2</ele><time>2026-03-22T13:28:59.372Z</time></trkpt><trkpt lat="43.1287533" lon="12.96679"><ele>909.6</ele><time>2026-03-22T13:29:00.378Z</time></trkpt><trkpt lat="43.1286683" lon="12.9668983"><ele>909.0</ele><time>2026-03-22T13:29:01.376Z</time></trkpt><trkpt lat="43.128595" lon="12.9670383"><ele>909.0</ele><time>2026-03-22T13:29:02.415Z</time></trkpt><trkpt lat="43.1285267" lon="12.9671933"><ele>909.0</ele><time>2026-03-22T13:29:03.37Z</time></trkpt><trkpt lat="43.128455" lon="12.967355"><ele>909.0</ele><time>2026-03-22T13:29:04.374Z</time></trkpt><trkpt lat="43.1283767" lon="12.9675167"><ele>909.0</ele><time>2026-03-22T13:29:05.373Z</time></trkpt><trkpt lat="43.1282983" lon="12.96766"><ele>908.25</ele><time>2026-03-22T13:29:06.376Z</time></trkpt><trkpt lat="43.12822" lon="12.967785"><ele>907.5</ele><time>2026-03-22T13:29:07.378Z</time></trkpt><trkpt lat="43.1281367" lon="12.967895"><ele>906.75</ele><time>2026-03-22T13:29:08.418Z</time></trkpt><trkpt lat="43.1280483" lon="12.9679883"><ele>906.0</ele><time>2026-03-22T13:29:09.363Z</time></trkpt><trkpt lat="43.1279533" lon="12.968065"><ele>906.0</ele><time>2026-03-22T13:29:10.37Z</time></trkpt><trkpt lat="43.12785" lon="12.9681333"><ele>906.0</ele><time>2026-03-22T13:29:11.37Z</time></trkpt><trkpt lat="43.1277417" lon="12.96819"><ele>906.0</ele><time>2026-03-22T13:29:12.365Z</time></trkpt><trkpt lat="43.1276267" lon="12.968235"><ele>906.0</ele><time>2026-03-22T13:29:13.371Z</time></trkpt><trkpt lat="43.1275033" lon="12.9682717"><ele>905.75</ele><time>2026-03-22T13:29:14.41Z</time></trkpt><trkpt lat="43.1273783" lon="12.9683017"><ele>905.5</ele><time>2026-03-22T13:29:15.378Z</time></trkpt><trkpt lat="43.1272483" lon="12.9683267"><ele>905.25</ele><time>2026-03-22T13:29:16.373Z</time></trkpt><trkpt lat="43.12711" lon="12.96835"><ele>905.0</ele><time>2026-03-22T13:29:17.374Z</time></trkpt><trkpt lat="43.1269683" lon="12.968375"><ele>905.6666666666667</ele><time>2026-03-22T13:29:18.371Z</time></trkpt><trkpt lat="43.1268233" lon="12.96841"><ele>906.3333333333333</ele><time>2026-03-22T13:29:19.369Z</time></trkpt><trkpt lat="43.1266767" lon="12.9684583"><ele>907.0</ele><time>2026-03-22T13:29:20.419Z</time></trkpt><trkpt lat="43.1265267" lon="12.968525"><ele>905.0</ele><time>2026-03-22T13:29:21.371Z</time></trkpt><trkpt lat="43.12638" lon="12.968605"><ele>903.0</ele><time>2026-03-22T13:29:22.375Z</time></trkpt><trkpt lat="43.12623" lon="12.9687033"><ele>901.0</ele><time>2026-03-22T13:29:23.372Z</time></trkpt><trkpt lat="43.126085" lon="12.9687983"><ele>901.0</ele><time>2026-03-22T13:29:24.374Z</time></trkpt><trkpt lat="43.1259517" lon="12.9688883"><ele>901.0</ele><time>2026-03-22T13:29:25.374Z</time></trkpt><trkpt lat="43.1258233" lon="12.9689717"><ele>901.0</ele><time>2026-03-22T13:29:26.436Z</time></trkpt><trkpt lat="43.1257" lon="12.9690483"><ele>901.0</ele><time>2026-03-22T13:29:27.376Z</time></trkpt><trkpt lat="43.125585" lon="12.9691217"><ele>900.4</ele><time>2026-03-22T13:29:28.372Z</time></trkpt><trkpt lat="43.125475" lon="12.9691933"><ele>899.8</ele><time>2026-03-22T13:29:29.369Z</time></trkpt><trkpt lat="43.1253767" lon="12.9692633"><ele>899.1999999999999</ele><time>2026-03-22T13:29:30.369Z</time></trkpt><trkpt lat="43.1252933" lon="12.969335"><ele>898.5999999999999</ele><time>2026-03-22T13:29:31.374Z</time></trkpt><trkpt lat="43.1252367" lon="12.9693917"><ele>898.0</ele><time>2026-03-22T13:29:32.414Z</time></trkpt><trkpt lat="43.1251029" lon="12.9694925"><ele>898.0</ele><time>2026-03-22T13:34:47.37Z</time></trkpt><trkpt lat="43.1249814" lon="12.9695791"><ele>898.0</ele><time>2026-03-22T13:34:48.369Z</time></trkpt><trkpt lat="43.124853" lon="12.9696637"><ele>898.0</ele><time>2026-03-22T13:34:49.361Z</time></trkpt><trkpt lat="43.1247249" lon="12.9697397"><ele>898.0</ele><time>2026-03-22T13:34:50.412Z</time></trkpt><trkpt lat="43.1246012" lon="12.9698038"><ele>897.25</ele><time>2026-03-22T13:34:51.37Z</time></trkpt><trkpt lat="43.1244705" lon="12.9698598"><ele>896.5</ele><time>2026-03-22T13:34:52.384Z</time></trkpt><trkpt lat="43.124333" lon="12.9699053"><ele>895.75</ele><time>2026-03-22T13:34:53.38Z</time></trkpt><trkpt lat="43.1241877" lon="12.9699351"><ele>895.0</ele><time>2026-03-22T13:34:54.382Z</time></trkpt><trkpt lat="43.1240398" lon="12.969955"><ele>895.0</ele><time>2026-03-22T13:34:55.384Z</time></trkpt><trkpt lat="43.1238883" lon="12.9699767"><ele>895.0</ele><time>2026-03-22T13:34:56.437Z</time></trkpt><trkpt lat="43.1237367" lon="12.9700083"><ele>895.0</ele><time>2026-03-22T13:34:57.381Z</time></trkpt><trkpt lat="43.1235867" lon="12.9700483"><ele>895.0</ele><time>2026-03-22T13:34:58.382Z</time></trkpt><trkpt lat="43.12344" lon="12.970085"><ele>895.0</ele><time>2026-03-22T13:34:59.383Z</time></trkpt><trkpt lat="43.1233017" lon="12.9701267"><ele>895.0</ele><time>2026-03-22T13:35:00.365Z</time></trkpt><trkpt lat="43.1231717" lon="12.9701733"><ele>895.0</ele><time>2026-03-22T13:35:01.381Z</time></trkpt><trkpt lat="43.123045" lon="12.9702267"><ele>894.5</ele><time>2026-03-22T13:35:02.422Z</time></trkpt><trkpt lat="43.1229217" lon="12.9702917"><ele>894.0</ele><time>2026-03-22T13:35:03.378Z</time></trkpt><trkpt lat="43.1227983" lon="12.97037"><ele>893.5</ele><time>2026-03-22T13:35:04.401Z</time></trkpt><trkpt lat="43.1226767" lon="12.9704583"><ele>893.0</ele><time>2026-03-22T13:35:05.378Z</time></trkpt><trkpt lat="43.1225533" lon="12.9705533"><ele>893.0</ele><time>2026-03-22T13:35:06.356Z</time></trkpt><trkpt lat="43.12243" lon="12.9706583"><ele>893.0</ele><time>2026-03-22T13:35:07.378Z</time></trkpt><trkpt lat="43.122305" lon="12.9707683"><ele>893.0</ele><time>2026-03-22T13:35:08.423Z</time></trkpt><trkpt lat="43.12218" lon="12.97088"><ele>893.0</ele><time>2026-03-22T13:35:09.384Z</time></trkpt><trkpt lat="43.1220567" lon="12.9709917"><ele>893.25</ele><time>2026-03-22T13:35:10.386Z</time></trkpt><trkpt lat="43.121935" lon="12.971095"><ele>893.5</ele><time>2026-03-22T13:35:11.383Z</time></trkpt><trkpt lat="43.12181" lon="12.9711867"><ele>893.75</ele><time>2026-03-22T13:35:12.382Z</time></trkpt><trkpt lat="43.1216817" lon="12.97127"><ele>894.0</ele><time>2026-03-22T13:35:13.385Z</time></trkpt><trkpt lat="43.1215467" lon="12.9713483"><ele>894.0</ele><time>2026-03-22T13:35:14.426Z</time></trkpt><trkpt lat="43.12141" lon="12.97142"><ele>894.0</ele><time>2026-03-22T13:35:15.381Z</time></trkpt><trkpt lat="43.1212633" lon="12.9714933"><ele>894.0</ele><time>2026-03-22T13:35:16.382Z</time></trkpt><trkpt lat="43.1211133" lon="12.9715667"><ele>894.0</ele><time>2026-03-22T13:35:17.381Z</time></trkpt><trkpt lat="43.1209633" lon="12.9716467"><ele>894.0</ele><time>2026-03-22T13:35:18.382Z</time></trkpt><trkpt lat="43.1208117" lon="12.9717317"><ele>894.0</ele><time>2026-03-22T13:35:19.38Z</time></trkpt><trkpt lat="43.1206583" lon="12.9718217"><ele>892.6666666666667</ele><time>2026-03-22T13:35:20.419Z</time></trkpt><trkpt lat="43.1205117" lon="12.9719183"><ele>891.3333333333334</ele><time>2026-03-22T13:35:21.381Z</time></trkpt><trkpt lat="43.120375" lon="12.9720283"><ele>890.0</ele><time>2026-03-22T13:35:22.376Z</time></trkpt><trkpt lat="43.120245" lon="12.9721517"><ele>890.0</ele><time>2026-03-22T13:35:23.38Z</time></trkpt><trkpt lat="43.1201217" lon="12.9722817"><ele>890.0</ele><time>2026-03-22T13:35:24.381Z</time></trkpt><trkpt lat="43.1200033" lon="12.9724083"><ele>890.0</ele><time>2026-03-22T13:35:25.384Z</time></trkpt><trkpt lat="43.1198883" lon="12.97253"><ele>893.5</ele><time>2026-03-22T13:35:26.412Z</time></trkpt><trkpt lat="43.1197733" lon="12.9726367"><ele>897.0</ele><time>2026-03-22T13:35:27.369Z</time></trkpt><trkpt lat="43.1196517" lon="12.9727317"><ele>900.5</ele><time>2026-03-22T13:35:28.38Z</time></trkpt><trkpt lat="43.1195233" lon="12.972815"><ele>904.0</ele><time>2026-03-22T13:35:29.382Z</time></trkpt><trkpt lat="43.1193917" lon="12.972885"><ele>904.0</ele><time>2026-03-22T13:35:30.381Z</time></trkpt><trkpt lat="43.1192617" lon="12.972945"><ele>904.0</ele><time>2026-03-22T13:35:31.384Z</time></trkpt><trkpt lat="43.1191383" lon="12.9729883"><ele>904.0</ele><time>2026-03-22T13:35:32.422Z</time></trkpt><trkpt lat="43.1190183" lon="12.9730167"><ele>904.0</ele><time>2026-03-22T13:35:33.381Z</time></trkpt><trkpt lat="43.1189033" lon="12.9730383"><ele>907.2</ele><time>2026-03-22T13:35:34.381Z</time></trkpt><trkpt lat="43.1187967" lon="12.973055"><ele>910.4000000000001</ele><time>2026-03-22T13:35:35.38Z</time></trkpt><trkpt lat="43.1186967" lon="12.973075"><ele>913.6</ele><time>2026-03-22T13:35:36.386Z</time></trkpt><trkpt lat="43.1186067" lon="12.9730917"><ele>916.8</ele><time>2026-03-22T13:35:37.381Z</time></trkpt><trkpt lat="43.11852" lon="12.9731"><ele>920.0</ele><time>2026-03-22T13:35:38.414Z</time></trkpt><trkpt lat="43.118435" lon="12.9730967"><ele>920.0000000000001</ele><time>2026-03-22T13:35:39.383Z</time></trkpt><trkpt lat="43.1183483" lon="12.9730867"><ele>920.0</ele><time>2026-03-22T13:35:40.38Z</time></trkpt><trkpt lat="43.1182633" lon="12.9730683"><ele>920.0</ele><time>2026-03-22T13:35:41.383Z</time></trkpt><trkpt lat="43.1181783" lon="12.97305"><ele>920.0</ele><time>2026-03-22T13:35:42.377Z</time></trkpt><trkpt lat="43.118085" lon="12.973015"><ele>920.0000000000001</ele><time>2026-03-22T13:35:43.379Z</time></trkpt><trkpt lat="43.1179967" lon="12.9729767"><ele>920.0</ele><time>2026-03-22T13:35:44.414Z</time></trkpt><trkpt lat="43.1179033" lon="12.9729317"><ele>922.1666666666667</ele><time>2026-03-22T13:35:45.374Z</time></trkpt><trkpt lat="43.1178117" lon="12.97289"><ele>924.3333333333334</ele><time>2026-03-22T13:35:46.377Z</time></trkpt><trkpt lat="43.1177167" lon="12.9728433"><ele>926.5</ele><time>2026-03-22T13:35:47.38Z</time></trkpt><trkpt lat="43.1176267" lon="12.9728067"><ele>928.6666666666667</ele><time>2026-03-22T13:35:48.368Z</time></trkpt><trkpt lat="43.1175483" lon="12.97279"><ele>930.8333333333334</ele><time>2026-03-22T13:35:49.379Z</time></trkpt><trkpt lat="43.117475" lon="12.9727683"><ele>933.0</ele><time>2026-03-22T13:35:50.416Z</time></trkpt><trkpt lat="43.1174" lon="12.97276"><ele>933.8</ele><time>2026-03-22T13:35:51.378Z</time></trkpt><trkpt lat="43.1173117" lon="12.9727333"><ele>934.5999999999999</ele><time>2026-03-22T13:35:52.378Z</time></trkpt><trkpt lat="43.1172183" lon="12.9727217"><ele>935.4000000000001</ele><time>2026-03-22T13:35:53.379Z</time></trkpt><trkpt lat="43.1171267" lon="12.972705"><ele>936.2</ele><time>2026-03-22T13:35:54.381Z</time></trkpt><trkpt lat="43.117035" lon="12.9726783"><ele>937.0</ele><time>2026-03-22T13:35:55.378Z</time></trkpt><trkpt lat="43.1169367" lon="12.9726617"><ele>937.0</ele><time>2026-03-22T13:35:56.422Z</time></trkpt><trkpt lat="43.1168433" lon="12.972645"><ele>937.0</ele><time>2026-03-22T13:35:57.38Z</time></trkpt><trkpt lat="43.1167433" lon="12.9726367"><ele>937.0</ele><time>2026-03-22T13:35:58.378Z</time></trkpt><trkpt lat="43.1166483" lon="12.9726217"><ele>937.0</ele><time>2026-03-22T13:35:59.379Z</time></trkpt><trkpt lat="43.11655" lon="12.9726183"><ele>937.0</ele><time>2026-03-22T13:36:00.378Z</time></trkpt><trkpt lat="43.11645" lon="12.9726133"><ele>934.6</ele><time>2026-03-22T13:36:01.381Z</time></trkpt><trkpt lat="43.1163583" lon="12.9726083"><ele>932.2</ele><time>2026-03-22T13:36:02.419Z</time></trkpt><trkpt lat="43.1162733" lon="12.9726133"><ele>929.8</ele><time>2026-03-22T13:36:03.381Z</time></trkpt><trkpt lat="43.1161967" lon="12.9726283"><ele>927.4</ele><time>2026-03-22T13:36:04.379Z</time></trkpt><trkpt lat="43.1160933" lon="12.9727067"><ele>925.0</ele><time>2026-03-22T13:36:06.382Z</time></trkpt><trkpt lat="43.1159983" lon="12.9728333"><ele>925.0</ele><time>2026-03-22T13:36:08.42Z</time></trkpt><trkpt lat="43.1159383" lon="12.9729"><ele>925.0</ele><time>2026-03-22T13:36:09.381Z</time></trkpt><trkpt lat="43.115875" lon="12.9729617"><ele>925.0</ele><time>2026-03-22T13:36:10.381Z</time></trkpt><trkpt lat="43.11582" lon="12.9730167"><ele>925.0</ele><time>2026-03-22T13:36:11.382Z</time></trkpt><trkpt lat="43.1157533" lon="12.9731333"><ele>925.0</ele><time>2026-03-22T13:36:13.383Z</time></trkpt><trkpt lat="43.115765" lon="12.97332"><ele>923.75</ele><time>2026-03-22T13:36:15.38Z</time></trkpt><trkpt lat="43.11581" lon="12.9734467"><ele>922.5</ele><time>2026-03-22T13:36:16.372Z</time></trkpt><trkpt lat="43.115865" lon="12.97359"><ele>921.25</ele><time>2026-03-22T13:36:17.378Z</time></trkpt><trkpt lat="43.1159317" lon="12.973755"><ele>920.0</ele><time>2026-03-22T13:36:18.381Z</time></trkpt><trkpt lat="43.1159917" lon="12.9739067"><ele>920.0000000000001</ele><time>2026-03-22T13:36:19.382Z</time></trkpt><trkpt lat="43.1160483" lon="12.97404"><ele>920.0</ele><time>2026-03-22T13:36:20.419Z</time></trkpt><trkpt lat="43.1161" lon="12.97415"><ele>920.0</ele><time>2026-03-22T13:36:21.368Z</time></trkpt><trkpt lat="43.1161417" lon="12.9742333"><ele>920.0</ele><time>2026-03-22T13:36:22.378Z</time></trkpt><trkpt lat="43.1161883" lon="12.974325"><ele>920.0000000000001</ele><time>2026-03-22T13:36:24.378Z</time></trkpt><trkpt lat="43.11623" lon="12.9742567"><ele>920.0</ele><time>2026-03-22T13:36:29.375Z</time></trkpt><trkpt lat="43.1162033" lon="12.9741217"><ele>920.0000000000001</ele><time>2026-03-22T13:36:31.37Z</time></trkpt><trkpt lat="43.11616" lon="12.97401"><ele>920.0</ele><time>2026-03-22T13:36:32.414Z</time></trkpt><trkpt lat="43.1161233" lon="12.973905"><ele>920.0</ele><time>2026-03-22T13:36:33.373Z</time></trkpt><trkpt lat="43.1160833" lon="12.9738167"><ele>920.0</ele><time>2026-03-22T13:36:34.378Z</time></trkpt><trkpt lat="43.1160233" lon="12.9737417"><ele>920.0000000000001</ele><time>2026-03-22T13:36:36.379Z</time></trkpt><trkpt lat="43.1159583" lon="12.9738417"><ele>920.0</ele><time>2026-03-22T13:36:38.42Z</time></trkpt><trkpt lat="43.1159" lon="12.973955"><ele>920.0</ele><time>2026-03-22T13:36:39.384Z</time></trkpt><trkpt lat="43.11583" lon="12.9741033"><ele>920.0</ele><time>2026-03-22T13:36:40.382Z</time></trkpt><trkpt lat="43.1157433" lon="12.9742967"><ele>920.0</ele><time>2026-03-22T13:36:41.379Z</time></trkpt><trkpt lat="43.1156533" lon="12.9744933"><ele>919.75</ele><time>2026-03-22T13:36:42.366Z</time></trkpt><trkpt lat="43.1155667" lon="12.9746767"><ele>919.5</ele><time>2026-03-22T13:36:43.37Z</time></trkpt><trkpt lat="43.1154917" lon="12.9748433"><ele>919.25</ele><time>2026-03-22T13:36:44.408Z</time></trkpt><trkpt lat="43.1154267" lon="12.9749933"><ele>919.0</ele><time>2026-03-22T13:36:45.367Z</time></trkpt><trkpt lat="43.1153767" lon="12.9751383"><ele>919.0</ele><time>2026-03-22T13:36:46.366Z</time></trkpt><trkpt lat="43.1153333" lon="12.9752883"><ele>919.0</ele><time>2026-03-22T13:36:47.367Z</time></trkpt><trkpt lat="43.115295" lon="12.975445"><ele>919.0</ele><time>2026-03-22T13:36:48.382Z</time></trkpt><trkpt lat="43.1152517" lon="12.9756083"><ele>919.0</ele><time>2026-03-22T13:36:49.383Z</time></trkpt><trkpt lat="43.1152033" lon="12.9757717"><ele>919.0</ele><time>2026-03-22T13:36:50.419Z</time></trkpt><trkpt lat="43.11515" lon="12.9759333"><ele>919.0</ele><time>2026-03-22T13:36:51.383Z</time></trkpt><trkpt lat="43.1150867" lon="12.97609"><ele>919.0</ele><time>2026-03-22T13:36:52.382Z</time></trkpt><trkpt lat="43.1150133" lon="12.9762433"><ele>919.0</ele><time>2026-03-22T13:36:53.383Z</time></trkpt><trkpt lat="43.114935" lon="12.9763967"><ele>919.5</ele><time>2026-03-22T13:36:54.365Z</time></trkpt><trkpt lat="43.1148583" lon="12.9765517"><ele>920.0</ele><time>2026-03-22T13:36:55.381Z</time></trkpt><trkpt lat="43.1147833" lon="12.9767133"><ele>920.5</ele><time>2026-03-22T13:36:56.419Z</time></trkpt><trkpt lat="43.1147183" lon="12.9768783"><ele>921.0</ele><time>2026-03-22T13:36:57.381Z</time></trkpt><trkpt lat="43.114655" lon="12.9770483"><ele>921.25</ele><time>2026-03-22T13:36:58.377Z</time></trkpt><trkpt lat="43.1145983" lon="12.9772167"><ele>921.5</ele><time>2026-03-22T13:36:59.368Z</time></trkpt><trkpt lat="43.1145467" lon="12.9773817"><ele>921.75</ele><time>2026-03-22T13:37:00.383Z</time></trkpt><trkpt lat="43.1144933" lon="12.97754"><ele>922.0</ele><time>2026-03-22T13:37:01.375Z</time></trkpt><trkpt lat="43.1144383" lon="12.97769"><ele>921.25</ele><time>2026-03-22T13:37:02.413Z</time></trkpt><trkpt lat="43.11438" lon="12.9778383"><ele>920.5</ele><time>2026-03-22T13:37:03.363Z</time></trkpt><trkpt lat="43.1143183" lon="12.9779817"><ele>919.75</ele><time>2026-03-22T13:37:04.369Z</time></trkpt><trkpt lat="43.1142567" lon="12.9781167"><ele>919.0</ele><time>2026-03-22T13:37:05.382Z</time></trkpt><trkpt lat="43.114185" lon="12.978235"><ele>919.0</ele><time>2026-03-22T13:37:06.381Z</time></trkpt><trkpt lat="43.1141117" lon="12.9783333"><ele>919.0000000000001</ele><time>2026-03-22T13:37:07.383Z</time></trkpt><trkpt lat="43.1140283" lon="12.9784117"><ele>919.0000000000001</ele><time>2026-03-22T13:37:08.424Z</time></trkpt><trkpt lat="43.1139367" lon="12.978465"><ele>919.0</ele><time>2026-03-22T13:37:09.38Z</time></trkpt><trkpt lat="43.1138333" lon="12.978495"><ele>919.0</ele><time>2026-03-22T13:37:10.38Z</time></trkpt><trkpt lat="43.1137217" lon="12.9785117"><ele>919.75</ele><time>2026-03-22T13:37:11.385Z</time></trkpt><trkpt lat="43.1135967" lon="12.9785133"><ele>920.5</ele><time>2026-03-22T13:37:12.383Z</time></trkpt><trkpt lat="43.1134583" lon="12.9785067"><ele>921.25</ele><time>2026-03-22T13:37:13.373Z</time></trkpt><trkpt lat="43.1133133" lon="12.9784867"><ele>922.0</ele><time>2026-03-22T13:37:14.422Z</time></trkpt><trkpt lat="43.1131583" lon="12.978455"><ele>922.0</ele><time>2026-03-22T13:37:15.371Z</time></trkpt><trkpt lat="43.112995" lon="12.9784167"><ele>922.0</ele><time>2026-03-22T13:37:16.382Z</time></trkpt><trkpt lat="43.1128267" lon="12.9783817"><ele>922.0</ele><time>2026-03-22T13:37:17.369Z</time></trkpt><trkpt lat="43.1126667" lon="12.97835"><ele>920.75</ele><time>2026-03-22T13:37:18.369Z</time></trkpt><trkpt lat="43.112515" lon="12.978325"><ele>919.5</ele><time>2026-03-22T13:37:19.379Z</time></trkpt><trkpt lat="43.11237" lon="12.978315"><ele>918.25</ele><time>2026-03-22T13:37:20.411Z</time></trkpt><trkpt lat="43.11223" lon="12.9783183"><ele>917.0</ele><time>2026-03-22T13:37:21.379Z</time></trkpt><trkpt lat="43.1120867" lon="12.9783317"><ele>918.5</ele><time>2026-03-22T13:37:22.382Z</time></trkpt><trkpt lat="43.1119433" lon="12.9783533"><ele>920.0</ele><time>2026-03-22T13:37:23.382Z</time></trkpt><trkpt lat="43.1118" lon="12.9783833"><ele>921.5</ele><time>2026-03-22T13:37:24.38Z</time></trkpt><trkpt lat="43.111655" lon="12.978415"><ele>923.0</ele><time>2026-03-22T13:37:25.383Z</time></trkpt><trkpt lat="43.1115083" lon="12.9784483"><ele>923.25</ele><time>2026-03-22T13:37:26.438Z</time></trkpt><trkpt lat="43.1113683" lon="12.9784833"><ele>923.5</ele><time>2026-03-22T13:37:27.376Z</time></trkpt><trkpt lat="43.1112383" lon="12.9785167"><ele>923.75</ele><time>2026-03-22T13:37:28.378Z</time></trkpt><trkpt lat="43.1111067" lon="12.9785517"><ele>924.0</ele><time>2026-03-22T13:37:29.38Z</time></trkpt><trkpt lat="43.11098" lon="12.97858"><ele>924.0</ele><time>2026-03-22T13:37:30.373Z</time></trkpt><trkpt lat="43.1108533" lon="12.9785983"><ele>924.0</ele><time>2026-03-22T13:37:31.379Z</time></trkpt><trkpt lat="43.110725" lon="12.9786067"><ele>924.0</ele><time>2026-03-22T13:37:32.422Z</time></trkpt><trkpt lat="43.1105933" lon="12.97861"><ele>924.0</ele><time>2026-03-22T13:37:33.379Z</time></trkpt><trkpt lat="43.11046" lon="12.9786083"><ele>924.75</ele><time>2026-03-22T13:37:34.381Z</time></trkpt><trkpt lat="43.1103267" lon="12.9786017"><ele>925.5</ele><time>2026-03-22T13:37:35.38Z</time></trkpt><trkpt lat="43.1101967" lon="12.9785833"><ele>926.25</ele><time>2026-03-22T13:37:36.382Z</time></trkpt><trkpt lat="43.1100667" lon="12.978565"><ele>927.0</ele><time>2026-03-22T13:37:37.381Z</time></trkpt><trkpt lat="43.1099433" lon="12.9785467"><ele>927.8</ele><time>2026-03-22T13:37:38.417Z</time></trkpt><trkpt lat="43.1098267" lon="12.9785233"><ele>928.6</ele><time>2026-03-22T13:37:39.382Z</time></trkpt><trkpt lat="43.10972" lon="12.97849"><ele>929.3999999999999</ele><time>2026-03-22T13:37:40.383Z</time></trkpt><trkpt lat="43.10962" lon="12.978445"><ele>930.1999999999999</ele><time>2026-03-22T13:37:41.36Z</time></trkpt><trkpt lat="43.1095317" lon="12.97839"><ele>931.0</ele><time>2026-03-22T13:37:42.382Z</time></trkpt><trkpt lat="43.1094567" lon="12.97832"><ele>930.8571428571429</ele><time>2026-03-22T13:37:43.362Z</time></trkpt><trkpt lat="43.1093967" lon="12.9782333"><ele>930.7142857142858</ele><time>2026-03-22T13:37:44.417Z</time></trkpt><trkpt lat="43.1093483" lon="12.9781417"><ele>930.5714285714286</ele><time>2026-03-22T13:37:45.369Z</time></trkpt><trkpt lat="43.1093017" lon="12.97806"><ele>930.4285714285714</ele><time>2026-03-22T13:37:46.374Z</time></trkpt><trkpt lat="43.1092483" lon="12.9780033"><ele>930.2857142857143</ele><time>2026-03-22T13:37:47.381Z</time></trkpt><trkpt lat="43.10919" lon="12.9779683"><ele>930.1428571428571</ele><time>2026-03-22T13:37:48.382Z</time></trkpt><trkpt lat="43.1091233" lon="12.977955"><ele>930.0</ele><time>2026-03-22T13:37:49.379Z</time></trkpt><trkpt lat="43.1090567" lon="12.9779417"><ele>930.0</ele><time>2026-03-22T13:37:50.414Z</time></trkpt><trkpt lat="43.10896" lon="12.9778717"><ele>930.0</ele><time>2026-03-22T13:37:52.37Z</time></trkpt><trkpt lat="43.108915" lon="12.9776767"><ele>930.0</ele><time>2026-03-22T13:37:54.383Z</time></trkpt><trkpt lat="43.10891" lon="12.9775267"><ele>930.0</ele><time>2026-03-22T13:37:55.377Z</time></trkpt><trkpt lat="43.1089067" lon="12.97738"><ele>929.0</ele><time>2026-03-22T13:37:56.436Z</time></trkpt><trkpt lat="43.10889" lon="12.9772417"><ele>928.0</ele><time>2026-03-22T13:37:57.373Z</time></trkpt><trkpt lat="43.1088533" lon="12.9771083"><ele>927.0</ele><time>2026-03-22T13:37:58.376Z</time></trkpt><trkpt lat="43.1088083" lon="12.9769683"><ele>926.0</ele><time>2026-03-22T13:37:59.381Z</time></trkpt><trkpt lat="43.10876" lon="12.976815"><ele>925.0</ele><time>2026-03-22T13:38:00.378Z</time></trkpt><trkpt lat="43.1087117" lon="12.9766433"><ele>925.0</ele><time>2026-03-22T13:38:01.383Z</time></trkpt><trkpt lat="43.108665" lon="12.9764567"><ele>925.0</ele><time>2026-03-22T13:38:02.422Z</time></trkpt><trkpt lat="43.1086183" lon="12.9762717"><ele>925.0</ele><time>2026-03-22T13:38:03.38Z</time></trkpt><trkpt lat="43.1085767" lon="12.9761067"><ele>925.0</ele><time>2026-03-22T13:38:04.382Z</time></trkpt><trkpt lat="43.1085417" lon="12.9759767"><ele>925.0</ele><time>2026-03-22T13:38:05.382Z</time></trkpt><trkpt lat="43.1085167" lon="12.97588"><ele>925.0</ele><time>2026-03-22T13:38:06.38Z</time></trkpt><trkpt lat="43.1084417" lon="12.9757433"><ele>925.0</ele><time>2026-03-22T13:38:08.425Z</time></trkpt><trkpt lat="43.1083817" lon="12.9756717"><ele>925.0</ele><time>2026-03-22T13:38:09.373Z</time></trkpt><trkpt lat="43.1083067" lon="12.9755917"><ele>925.0</ele><time>2026-03-22T13:38:10.372Z</time></trkpt><trkpt lat="43.1082133" lon="12.9755033"><ele>925.2</ele><time>2026-03-22T13:38:11.381Z</time></trkpt><trkpt lat="43.1081133" lon="12.97541"><ele>925.4</ele><time>2026-03-22T13:38:12.379Z</time></trkpt><trkpt lat="43.1080167" lon="12.9753233"><ele>925.5999999999999</ele><time>2026-03-22T13:38:13.377Z</time></trkpt><trkpt lat="43.1079383" lon="12.975245"><ele>925.8</ele><time>2026-03-22T13:38:14.407Z</time></trkpt><trkpt lat="43.1078783" lon="12.9751783"><ele>926.0</ele><time>2026-03-22T13:38:15.354Z</time></trkpt><trkpt lat="43.1077867" lon="12.9751133"><ele>926.0</ele><time>2026-03-22T13:38:17.38Z</time></trkpt><trkpt lat="43.1077067" lon="12.975195"><ele>925.9999999999999</ele><time>2026-03-22T13:38:19.38Z</time></trkpt><trkpt lat="43.1076567" lon="12.9753017"><ele>925.9999999999999</ele><time>2026-03-22T13:38:20.421Z</time></trkpt><trkpt lat="43.1075817" lon="12.9754217"><ele>926.0</ele><time>2026-03-22T13:38:21.375Z</time></trkpt><trkpt lat="43.1074933" lon="12.975535"><ele>926.0</ele><time>2026-03-22T13:38:22.378Z</time></trkpt><trkpt lat="43.1073917" lon="12.975645"><ele>926.0</ele><time>2026-03-22T13:38:23.377Z</time></trkpt><trkpt lat="43.1072683" lon="12.9757533"><ele>926.0</ele><time>2026-03-22T13:38:24.384Z</time></trkpt><trkpt lat="43.1071333" lon="12.9758617"><ele>926.0</ele><time>2026-03-22T13:38:25.381Z</time></trkpt><trkpt lat="43.1069883" lon="12.9759767"><ele>927.0</ele><time>2026-03-22T13:38:26.401Z</time></trkpt><trkpt lat="43.1068433" lon="12.9760983"><ele>928.0</ele><time>2026-03-22T13:38:27.375Z</time></trkpt><trkpt lat="43.1067033" lon="12.9762167"><ele>929.0</ele><time>2026-03-22T13:38:28.377Z</time></trkpt><trkpt lat="43.1065683" lon="12.97633"><ele>929.25</ele><time>2026-03-22T13:38:29.383Z</time></trkpt><trkpt lat="43.1064417" lon="12.976435"><ele>929.5</ele><time>2026-03-22T13:38:30.375Z</time></trkpt><trkpt lat="43.1063167" lon="12.9765233"><ele>929.75</ele><time>2026-03-22T13:38:31.374Z</time></trkpt><trkpt lat="43.1061967" lon="12.9765933"><ele>930.0</ele><time>2026-03-22T13:38:32.421Z</time></trkpt><trkpt lat="43.1060767" lon="12.9766333"><ele>930.0</ele><time>2026-03-22T13:38:33.382Z</time></trkpt><trkpt lat="43.1059533" lon="12.9766433"><ele>930.0</ele><time>2026-03-22T13:38:34.375Z</time></trkpt><trkpt lat="43.10582" lon="12.9766333"><ele>930.0</ele><time>2026-03-22T13:38:35.373Z</time></trkpt><trkpt lat="43.105675" lon="12.97662"><ele>930.0</ele><time>2026-03-22T13:38:36.381Z</time></trkpt><trkpt lat="43.1055333" lon="12.9766067"><ele>930.5</ele><time>2026-03-22T13:38:37.379Z</time></trkpt><trkpt lat="43.1053967" lon="12.9766"><ele>931.0</ele><time>2026-03-22T13:38:38.42Z</time></trkpt><trkpt lat="43.1052567" lon="12.97661"><ele>931.5</ele><time>2026-03-22T13:38:39.377Z</time></trkpt><trkpt lat="43.1051117" lon="12.97664"><ele>932.0</ele><time>2026-03-22T13:38:40.382Z</time></trkpt><trkpt lat="43.10496" lon="12.9766833"><ele>933.3333333333334</ele><time>2026-03-22T13:38:41.385Z</time></trkpt><trkpt lat="43.1048033" lon="12.97674"><ele>934.6666666666667</ele><time>2026-03-22T13:38:42.383Z</time></trkpt><trkpt lat="43.104645" lon="12.9768017"><ele>936.0</ele><time>2026-03-22T13:38:43.383Z</time></trkpt><trkpt lat="43.10449" lon="12.9768617"><ele>936.0</ele><time>2026-03-22T13:38:44.424Z</time></trkpt><trkpt lat="43.1043367" lon="12.9769233"><ele>936.0</ele><time>2026-03-22T13:38:45.379Z</time></trkpt><trkpt lat="43.1041883" lon="12.97698"><ele>936.0</ele><time>2026-03-22T13:38:46.377Z</time></trkpt><trkpt lat="43.1040417" lon="12.9770333"><ele>936.6666666666667</ele><time>2026-03-22T13:38:47.383Z</time></trkpt><trkpt lat="43.103895" lon="12.9770833"><ele>937.3333333333334</ele><time>2026-03-22T13:38:48.378Z</time></trkpt><trkpt lat="43.103745" lon="12.9771317"><ele>938.0</ele><time>2026-03-22T13:38:49.377Z</time></trkpt><trkpt lat="43.10359" lon="12.9771817"><ele>938.0</ele><time>2026-03-22T13:38:50.419Z</time></trkpt><trkpt lat="43.1034333" lon="12.977235"><ele>938.0</ele><time>2026-03-22T13:38:51.375Z</time></trkpt><trkpt lat="43.10328" lon="12.9772983"><ele>938.0</ele><time>2026-03-22T13:38:52.38Z</time></trkpt><trkpt lat="43.103125" lon="12.9773617"><ele>939.3333333333334</ele><time>2026-03-22T13:38:53.38Z</time></trkpt><trkpt lat="43.1029667" lon="12.9774217"><ele>940.6666666666667</ele><time>2026-03-22T13:38:54.383Z</time></trkpt><trkpt lat="43.1028033" lon="12.9774783"><ele>942.0</ele><time>2026-03-22T13:38:55.373Z</time></trkpt><trkpt lat="43.1026433" lon="12.977535"><ele>944.0</ele><time>2026-03-22T13:38:56.435Z</time></trkpt><trkpt lat="43.102485" lon="12.9775883"><ele>946.0</ele><time>2026-03-22T13:38:57.373Z</time></trkpt><trkpt lat="43.10233" lon="12.9776433"><ele>948.0</ele><time>2026-03-22T13:38:58.376Z</time></trkpt><trkpt lat="43.1021767" lon="12.9776967"><ele>949.0</ele><time>2026-03-22T13:38:59.38Z</time></trkpt><trkpt lat="43.1020233" lon="12.9777517"><ele>950.0</ele><time>2026-03-22T13:39:00.383Z</time></trkpt><trkpt lat="43.1018717" lon="12.977805"><ele>951.0</ele><time>2026-03-22T13:39:01.38Z</time></trkpt><trkpt lat="43.1017217" lon="12.9778567"><ele>951.3333333333333</ele><time>2026-03-22T13:39:02.415Z</time></trkpt><trkpt lat="43.1015717" lon="12.9779083"><ele>951.6666666666666</ele><time>2026-03-22T13:39:03.377Z</time></trkpt><trkpt lat="43.101425" lon="12.9779617"><ele>952.0</ele><time>2026-03-22T13:39:04.368Z</time></trkpt><trkpt lat="43.1012817" lon="12.9780133"><ele>952.0</ele><time>2026-03-22T13:39:05.384Z</time></trkpt><trkpt lat="43.101145" lon="12.97806"><ele>952.0</ele><time>2026-03-22T13:39:06.381Z</time></trkpt><trkpt lat="43.1010183" lon="12.9781033"><ele>952.0</ele><time>2026-03-22T13:39:07.371Z</time></trkpt><trkpt lat="43.1009033" lon="12.9781467"><ele>952.0</ele><time>2026-03-22T13:39:08.421Z</time></trkpt><trkpt lat="43.1007867" lon="12.9781867"><ele>953.6</ele><time>2026-03-22T13:39:09.38Z</time></trkpt><trkpt lat="43.1006717" lon="12.9782267"><ele>955.2</ele><time>2026-03-22T13:39:10.377Z</time></trkpt><trkpt lat="43.10057" lon="12.978255"><ele>956.8</ele><time>2026-03-22T13:39:11.386Z</time></trkpt><trkpt lat="43.10049" lon="12.9782967"><ele>958.4</ele><time>2026-03-22T13:39:12.381Z</time></trkpt><trkpt lat="43.1004133" lon="12.9784033"><ele>960.0</ele><time>2026-03-22T13:39:14.42Z</time></trkpt><trkpt lat="43.1003933" lon="12.9784983"><ele>961.1666666666666</ele><time>2026-03-22T13:39:15.378Z</time></trkpt><trkpt lat="43.100375" lon="12.97861"><ele>962.3333333333333</ele><time>2026-03-22T13:39:16.366Z</time></trkpt><trkpt lat="43.1003383" lon="12.9787033"><ele>963.5</ele><time>2026-03-22T13:39:17.381Z</time></trkpt><trkpt lat="43.1002883" lon="12.9787783"><ele>964.6666666666666</ele><time>2026-03-22T13:39:18.385Z</time></trkpt><trkpt lat="43.10022" lon="12.97881"><ele>965.8333333333333</ele><time>2026-03-22T13:39:19.378Z</time></trkpt><trkpt lat="43.1001367" lon="12.9787967"><ele>967.0</ele><time>2026-03-22T13:39:20.428Z</time></trkpt><trkpt lat="43.1000483" lon="12.9787367"><ele>967.0</ele><time>2026-03-22T13:39:21.376Z</time></trkpt><trkpt lat="43.09994" lon="12.978625"><ele>967.0</ele><time>2026-03-22T13:39:22.379Z</time></trkpt><trkpt lat="43.0998483" lon="12.9785183"><ele>967.0</ele><time>2026-03-22T13:39:23.381Z</time></trkpt><trkpt lat="43.0997717" lon="12.97845"><ele>967.0</ele><time>2026-03-22T13:39:24.383Z</time></trkpt><trkpt lat="43.0997017" lon="12.9783983"><ele>967.0</ele><time>2026-03-22T13:39:25.38Z</time></trkpt><trkpt lat="43.099625" lon="12.9783767"><ele>968.8</ele><time>2026-03-22T13:39:26.438Z</time></trkpt><trkpt lat="43.0995367" lon="12.978385"><ele>970.6</ele><time>2026-03-22T13:39:27.375Z</time></trkpt><trkpt lat="43.099435" lon="12.9784083"><ele>972.3999999999999</ele><time>2026-03-22T13:39:28.378Z</time></trkpt><trkpt lat="43.099325" lon="12.97845"><ele>974.1999999999999</ele><time>2026-03-22T13:39:29.36Z</time></trkpt><trkpt lat="43.0992117" lon="12.9785117"><ele>976.0</ele><time>2026-03-22T13:39:30.379Z</time></trkpt><trkpt lat="43.099095" lon="12.97858"><ele>976.75</ele><time>2026-03-22T13:39:31.378Z</time></trkpt><trkpt lat="43.09898" lon="12.97866"><ele>977.5</ele><time>2026-03-22T13:39:32.42Z</time></trkpt><trkpt lat="43.09887" lon="12.9787283"><ele>978.25</ele><time>2026-03-22T13:39:33.381Z</time></trkpt><trkpt lat="43.0987583" lon="12.9787933"><ele>979.0</ele><time>2026-03-22T13:39:34.384Z</time></trkpt><trkpt lat="43.09864" lon="12.9788483"><ele>979.0</ele><time>2026-03-22T13:39:35.381Z</time></trkpt><trkpt lat="43.0985167" lon="12.9789033"><ele>979.0</ele><time>2026-03-22T13:39:36.381Z</time></trkpt><trkpt lat="43.0983917" lon="12.9789483"><ele>979.0</ele><time>2026-03-22T13:39:37.38Z</time></trkpt><trkpt lat="43.09827" lon="12.9789783"><ele>979.0</ele><time>2026-03-22T13:39:38.406Z</time></trkpt><trkpt lat="43.0981583" lon="12.9789967"><ele>980.0</ele><time>2026-03-22T13:39:39.373Z</time></trkpt><trkpt lat="43.09805" lon="12.9790217"><ele>981.0</ele><time>2026-03-22T13:39:40.365Z</time></trkpt><trkpt lat="43.0979383" lon="12.9790467"><ele>982.0</ele><time>2026-03-22T13:39:41.372Z</time></trkpt><trkpt lat="43.097825" lon="12.9790767"><ele>983.0</ele><time>2026-03-22T13:39:42.385Z</time></trkpt><trkpt lat="43.0977067" lon="12.979105"><ele>983.0</ele><time>2026-03-22T13:39:43.38Z</time></trkpt><trkpt lat="43.0975917" lon="12.9791383"><ele>983.0</ele><time>2026-03-22T13:39:44.418Z</time></trkpt><trkpt lat="43.0974767" lon="12.9791767"><ele>983.0</ele><time>2026-03-22T13:39:45.374Z</time></trkpt><trkpt lat="43.0973617" lon="12.9792167"><ele>983.0</ele><time>2026-03-22T13:39:46.379Z</time></trkpt><trkpt lat="43.0972517" lon="12.9792517"><ele>988.4</ele><time>2026-03-22T13:39:47.381Z</time></trkpt><trkpt lat="43.0971483" lon="12.9792833"><ele>993.8</ele><time>2026-03-22T13:39:48.38Z</time></trkpt><trkpt lat="43.0970517" lon="12.9793083"><ele>999.2</ele><time>2026-03-22T13:39:49.38Z</time></trkpt><trkpt lat="43.0969633" lon="12.979335"><ele>1004.6</ele><time>2026-03-22T13:39:50.421Z</time></trkpt><trkpt lat="43.09688" lon="12.979375"><ele>1010.0</ele><time>2026-03-22T13:39:51.366Z</time></trkpt><trkpt lat="43.096795" lon="12.9794267"><ele>1010.0000000000001</ele><time>2026-03-22T13:39:52.376Z</time></trkpt><trkpt lat="43.0967117" lon="12.979485"><ele>1010.0</ele><time>2026-03-22T13:39:53.379Z</time></trkpt><trkpt lat="43.09663" lon="12.979535"><ele>1010.0</ele><time>2026-03-22T13:39:54.378Z</time></trkpt><trkpt lat="43.096545" lon="12.9795667"><ele>1010.0</ele><time>2026-03-22T13:39:55.373Z</time></trkpt><trkpt lat="43.0964633" lon="12.9795817"><ele>1010.0000000000001</ele><time>2026-03-22T13:39:56.412Z</time></trkpt><trkpt lat="43.0963883" lon="12.9795817"><ele>1010.0</ele><time>2026-03-22T13:39:57.356Z</time></trkpt><trkpt lat="43.0963267" lon="12.979555"><ele>1010.8333333333334</ele><time>2026-03-22T13:39:58.365Z</time></trkpt><trkpt lat="43.0962767" lon="12.9794967"><ele>1011.6666666666667</ele><time>2026-03-22T13:39:59.351Z</time></trkpt><trkpt lat="43.0962267" lon="12.979415"><ele>1012.5</ele><time>2026-03-22T13:40:00.376Z</time></trkpt><trkpt lat="43.0961733" lon="12.9793467"><ele>1013.3333333333333</ele><time>2026-03-22T13:40:01.353Z</time></trkpt><trkpt lat="43.0960667" lon="12.9792783"><ele>1014.1666666666666</ele><time>2026-03-22T13:40:03.361Z</time></trkpt><trkpt lat="43.0959533" lon="12.97927"><ele>1015.0</ele><time>2026-03-22T13:40:05.381Z</time></trkpt><trkpt lat="43.0958917" lon="12.9793"><ele>1014.9999999999999</ele><time>2026-03-22T13:40:06.373Z</time></trkpt><trkpt lat="43.0958217" lon="12.979335"><ele>1015.0</ele><time>2026-03-22T13:40:07.375Z</time></trkpt><trkpt lat="43.095745" lon="12.9793817"><ele>1015.0</ele><time>2026-03-22T13:40:08.422Z</time></trkpt><trkpt lat="43.0956683" lon="12.9794333"><ele>1015.0</ele><time>2026-03-22T13:40:09.383Z</time></trkpt><trkpt lat="43.0955933" lon="12.9794783"><ele>1014.9999999999999</ele><time>2026-03-22T13:40:10.377Z</time></trkpt><trkpt lat="43.0955267" lon="12.979505"><ele>1015.0</ele><time>2026-03-22T13:40:11.37Z</time></trkpt><trkpt lat="43.095405" lon="12.979555"><ele>1016.8333333333333</ele><time>2026-03-22T13:40:13.371Z</time></trkpt><trkpt lat="43.0953383" lon="12.9795833"><ele>1018.6666666666666</ele><time>2026-03-22T13:40:14.401Z</time></trkpt><trkpt lat="43.0952667" lon="12.9796117"><ele>1020.5</ele><time>2026-03-22T13:40:15.373Z</time></trkpt><trkpt lat="43.0951917" lon="12.9796417"><ele>1022.3333333333333</ele><time>2026-03-22T13:40:16.377Z</time></trkpt><trkpt lat="43.095115" lon="12.9796817"><ele>1024.1666666666667</ele><time>2026-03-22T13:40:17.38Z</time></trkpt><trkpt lat="43.0950383" lon="12.9797183"><ele>1026.0</ele><time>2026-03-22T13:40:18.379Z</time></trkpt><trkpt lat="43.0949667" lon="12.97975"><ele>1028.3333333333333</ele><time>2026-03-22T13:40:19.381Z</time></trkpt><trkpt lat="43.0948883" lon="12.9797783"><ele>1030.6666666666667</ele><time>2026-03-22T13:40:20.412Z</time></trkpt><trkpt lat="43.0948167" lon="12.97981"><ele>1033.0</ele><time>2026-03-22T13:40:21.375Z</time></trkpt><trkpt lat="43.0947517" lon="12.9798433"><ele>1035.3333333333335</ele><time>2026-03-22T13:40:22.38Z</time></trkpt><trkpt lat="43.094685" lon="12.9798733"><ele>1037.6666666666667</ele><time>2026-03-22T13:40:23.378Z</time></trkpt><trkpt lat="43.094615" lon="12.979895"><ele>1040.0</ele><time>2026-03-22T13:40:24.382Z</time></trkpt><trkpt lat="43.0945317" lon="12.9799217"><ele>1040.0</ele><time>2026-03-22T13:40:25.38Z</time></trkpt><trkpt lat="43.09444" lon="12.9799517"><ele>1040.0</ele><time>2026-03-22T13:40:26.438Z</time></trkpt><trkpt lat="43.0943333" lon="12.9799783"><ele>1040.0</ele><time>2026-03-22T13:40:27.374Z</time></trkpt><trkpt lat="43.0942317" lon="12.9800133"><ele>1040.0</ele><time>2026-03-22T13:40:28.373Z</time></trkpt><trkpt lat="43.09413" lon="12.9800383"><ele>1040.0</ele><time>2026-03-22T13:40:29.382Z</time></trkpt><trkpt lat="43.09403" lon="12.9800633"><ele>1045.4</ele><time>2026-03-22T13:40:30.373Z</time></trkpt><trkpt lat="43.093945" lon="12.9800933"><ele>1050.8</ele><time>2026-03-22T13:40:31.374Z</time></trkpt><trkpt lat="43.093885" lon="12.980125"><ele>1056.2</ele><time>2026-03-22T13:40:32.407Z</time></trkpt><trkpt lat="43.0937817" lon="12.9801817"><ele>1061.6</ele><time>2026-03-22T13:40:34.383Z</time></trkpt><trkpt lat="43.093665" lon="12.9802383"><ele>1067.0</ele><time>2026-03-22T13:40:36.383Z</time></trkpt><trkpt lat="43.0935967" lon="12.9802567"><ele>1067.0</ele><time>2026-03-22T13:40:37.38Z</time></trkpt><trkpt lat="43.0935233" lon="12.9802833"><ele>1067.0</ele><time>2026-03-22T13:40:38.419Z</time></trkpt><trkpt lat="43.0934533" lon="12.9803217"><ele>1067.0</ele><time>2026-03-22T13:40:39.38Z</time></trkpt><trkpt lat="43.0933833" lon="12.980375"><ele>1067.0</ele><time>2026-03-22T13:40:40.38Z</time></trkpt><trkpt lat="43.09332" lon="12.98046"><ele>1067.0</ele><time>2026-03-22T13:40:41.376Z</time></trkpt><trkpt lat="43.09327" lon="12.98055"><ele>1067.0</ele><time>2026-03-22T13:40:42.376Z</time></trkpt><trkpt lat="43.09323" lon="12.9806267"><ele>1068.1666666666667</ele><time>2026-03-22T13:40:43.382Z</time></trkpt><trkpt lat="43.0931767" lon="12.980725"><ele>1069.3333333333335</ele><time>2026-03-22T13:40:45.35Z</time></trkpt><trkpt lat="43.0931017" lon="12.9807617"><ele>1070.5</ele><time>2026-03-22T13:40:47.347Z</time></trkpt><trkpt lat="43.0930383" lon="12.9807817"><ele>1071.6666666666667</ele><time>2026-03-22T13:40:48.358Z</time></trkpt><trkpt lat="43.09296" lon="12.9807917"><ele>1072.8333333333333</ele><time>2026-03-22T13:40:49.361Z</time></trkpt><trkpt lat="43.0928733" lon="12.9807983"><ele>1074.0</ele><time>2026-03-22T13:40:50.413Z</time></trkpt><trkpt lat="43.0927833" lon="12.980785"><ele>1074.0</ele><time>2026-03-22T13:40:51.362Z</time></trkpt><trkpt lat="43.0926817" lon="12.9807633"><ele>1074.0</ele><time>2026-03-22T13:40:52.368Z</time></trkpt><trkpt lat="43.0925933" lon="12.98074"><ele>1074.0</ele><time>2026-03-22T13:40:53.38Z</time></trkpt><trkpt lat="43.0924817" lon="12.9807017"><ele>1074.0</ele><time>2026-03-22T13:40:54.381Z</time></trkpt><trkpt lat="43.0923517" lon="12.9806683"><ele>1074.0</ele><time>2026-03-22T13:40:55.377Z</time></trkpt><trkpt lat="43.092225" lon="12.9806417"><ele>1076.2</ele><time>2026-03-22T13:40:56.4Z</time></trkpt><trkpt lat="43.0921083" lon="12.9806333"><ele>1078.4</ele><time>2026-03-22T13:40:57.38Z</time></trkpt><trkpt lat="43.0919983" lon="12.98063"><ele>1080.6</ele><time>2026-03-22T13:40:58.385Z</time></trkpt><trkpt lat="43.0918983" lon="12.980635"><ele>1082.8</ele><time>2026-03-22T13:40:59.376Z</time></trkpt><trkpt lat="43.091805" lon="12.9806517"><ele>1085.0</ele><time>2026-03-22T13:41:00.383Z</time></trkpt><trkpt lat="43.0917333" lon="12.9806733"><ele>1085.0</ele><time>2026-03-22T13:41:01.376Z</time></trkpt><trkpt lat="43.0916167" lon="12.9806867"><ele>1085.0</ele><time>2026-03-22T13:41:03.382Z</time></trkpt><trkpt lat="43.091495" lon="12.9806933"><ele>1085.0</ele><time>2026-03-22T13:41:05.379Z</time></trkpt><trkpt lat="43.0913783" lon="12.9806933"><ele>1085.0</ele><time>2026-03-22T13:41:07.38Z</time></trkpt><trkpt lat="43.091315" lon="12.9806917"><ele>1085.0</ele><time>2026-03-22T13:41:08.421Z</time></trkpt><trkpt lat="43.0912067" lon="12.980695"><ele>1086.2</ele><time>2026-03-22T13:41:10.38Z</time></trkpt><trkpt lat="43.091115" lon="12.9806783"><ele>1087.4</ele><time>2026-03-22T13:41:12.365Z</time></trkpt><trkpt lat="43.0910133" lon="12.980675"><ele>1088.6</ele><time>2026-03-22T13:41:14.421Z</time></trkpt><trkpt lat="43.09093" lon="12.9806817"><ele>1089.8</ele><time>2026-03-22T13:41:16.357Z</time></trkpt><trkpt lat="43.0908367" lon="12.98066"><ele>1091.0</ele><time>2026-03-22T13:41:18.366Z</time></trkpt><trkpt lat="43.0907133" lon="12.9806617"><ele>1091.0</ele><time>2026-03-22T13:41:20.42Z</time></trkpt><trkpt lat="43.090595" lon="12.9806767"><ele>1091.0</ele><time>2026-03-22T13:41:22.383Z</time></trkpt><trkpt lat="43.0905317" lon="12.980705"><ele>1091.0</ele><time>2026-03-22T13:41:23.383Z</time></trkpt><trkpt lat="43.09047" lon="12.9807533"><ele>1091.0</ele><time>2026-03-22T13:41:24.385Z</time></trkpt><trkpt lat="43.0903983" lon="12.9808217"><ele>1091.0</ele><time>2026-03-22T13:41:25.378Z</time></trkpt><trkpt lat="43.0903317" lon="12.9808883"><ele>1091.0</ele><time>2026-03-22T13:41:26.424Z</time></trkpt><trkpt lat="43.09027" lon="12.9809533"><ele>1090.8333333333335</ele><time>2026-03-22T13:41:27.371Z</time></trkpt><trkpt lat="43.0902083" lon="12.981015"><ele>1090.6666666666667</ele><time>2026-03-22T13:41:28.381Z</time></trkpt><trkpt lat="43.0901483" lon="12.9810667"><ele>1090.5</ele><time>2026-03-22T13:41:29.374Z</time></trkpt><trkpt lat="43.0900867" lon="12.9811017"><ele>1090.3333333333333</ele><time>2026-03-22T13:41:30.373Z</time></trkpt><trkpt lat="43.090025" lon="12.9811217"><ele>1090.1666666666665</ele><time>2026-03-22T13:41:31.358Z</time></trkpt><trkpt lat="43.0899617" lon="12.98114"><ele>1090.0</ele><time>2026-03-22T13:41:32.401Z</time></trkpt><trkpt lat="43.0898467" lon="12.9811683"><ele>1090.0</ele><time>2026-03-22T13:41:34.369Z</time></trkpt><trkpt lat="43.089745" lon="12.9811667"><ele>1090.0</ele><time>2026-03-22T13:41:36.382Z</time></trkpt><trkpt lat="43.0896367" lon="12.981155"><ele>1090.0</ele><time>2026-03-22T13:41:38.412Z</time></trkpt><trkpt lat="43.0895267" lon="12.9811167"><ele>1090.0</ele><time>2026-03-22T13:41:40.377Z</time></trkpt><trkpt lat="43.0894183" lon="12.981075"><ele>1090.0</ele><time>2026-03-22T13:41:42.377Z</time></trkpt><trkpt lat="43.0893117" lon="12.981075"><ele>1090.0</ele><time>2026-03-22T13:41:44.42Z</time></trkpt><trkpt lat="43.0891983" lon="12.9811233"><ele>1090.0</ele><time>2026-03-22T13:41:46.352Z</time></trkpt><trkpt lat="43.0891367" lon="12.981155"><ele>1090.0</ele><time>2026-03-22T13:41:47.36Z</time></trkpt><trkpt lat="43.0890133" lon="12.9811967"><ele>1090.0</ele><time>2026-03-22T13:41:49.381Z</time></trkpt><trkpt lat="43.0889483" lon="12.9811983"><ele>1090.0</ele><time>2026-03-22T13:41:50.419Z</time></trkpt><trkpt lat="43.088885" lon="12.981195"><ele>1090.0</ele><time>2026-03-22T13:41:51.368Z</time></trkpt><trkpt lat="43.0888217" lon="12.9811933"><ele>1089.2857142857142</ele><time>2026-03-22T13:41:52.377Z</time></trkpt><trkpt lat="43.0887567" lon="12.9811867"><ele>1088.5714285714287</ele><time>2026-03-22T13:41:53.382Z</time></trkpt><trkpt lat="43.088695" lon="12.9811617"><ele>1087.857142857143</ele><time>2026-03-22T13:41:54.376Z</time></trkpt><trkpt lat="43.0886317" lon="12.9811233"><ele>1087.142857142857</ele><time>2026-03-22T13:41:55.38Z</time></trkpt><trkpt lat="43.088565" lon="12.981085"><ele>1086.4285714285716</ele><time>2026-03-22T13:41:56.432Z</time></trkpt><trkpt lat="43.0884967" lon="12.9810533"><ele>1085.7142857142858</ele><time>2026-03-22T13:41:57.383Z</time></trkpt><trkpt lat="43.08842" lon="12.9810283"><ele>1085.0</ele><time>2026-03-22T13:41:58.37Z</time></trkpt><trkpt lat="43.08834" lon="12.981025"><ele>1085.0</ele><time>2026-03-22T13:41:59.38Z</time></trkpt><trkpt lat="43.08827" lon="12.981035"><ele>1085.0</ele><time>2026-03-22T13:42:00.378Z</time></trkpt><trkpt lat="43.0882067" lon="12.981055"><ele>1085.0</ele><time>2026-03-22T13:42:01.384Z</time></trkpt><trkpt lat="43.0881117" lon="12.9810833"><ele>1085.0</ele><time>2026-03-22T13:42:03.375Z</time></trkpt><trkpt lat="43.0880333" lon="12.9810817"><ele>1085.0</ele><time>2026-03-22T13:42:05.357Z</time></trkpt><trkpt lat="43.0879333" lon="12.981045"><ele>1085.0</ele><time>2026-03-22T13:42:07.377Z</time></trkpt><trkpt lat="43.08784" lon="12.981"><ele>1084.4</ele><time>2026-03-22T13:42:09.378Z</time></trkpt><trkpt lat="43.0877567" lon="12.9809517"><ele>1083.8</ele><time>2026-03-22T13:42:11.363Z</time></trkpt><trkpt lat="43.0876517" lon="12.9809233"><ele>1083.2</ele><time>2026-03-22T13:42:13.36Z</time></trkpt><trkpt lat="43.0875283" lon="12.980885"><ele>1082.6</ele><time>2026-03-22T13:42:15.375Z</time></trkpt><trkpt lat="43.0874183" lon="12.98082"><ele>1082.0</ele><time>2026-03-22T13:42:17.381Z</time></trkpt><trkpt lat="43.0873267" lon="12.98073"><ele>1075.6</ele><time>2026-03-22T13:42:19.374Z</time></trkpt><trkpt lat="43.0872117" lon="12.980645"><ele>1069.2</ele><time>2026-03-22T13:42:21.372Z</time></trkpt><trkpt lat="43.087145" lon="12.98062"><ele>1062.8</ele><time>2026-03-22T13:42:22.372Z</time></trkpt><trkpt lat="43.0870783" lon="12.9806067"><ele>1056.4</ele><time>2026-03-22T13:42:23.368Z</time></trkpt><trkpt lat="43.0869617" lon="12.980575"><ele>1050.0</ele><time>2026-03-22T13:42:25.375Z</time></trkpt><trkpt lat="43.0868967" lon="12.98056"><ele>1050.0</ele><time>2026-03-22T13:42:26.433Z</time></trkpt><trkpt lat="43.0867833" lon="12.980535"><ele>1050.0</ele><time>2026-03-22T13:42:28.377Z</time></trkpt><trkpt lat="43.0866717" lon="12.9805133"><ele>1050.0</ele><time>2026-03-22T13:42:30.378Z</time></trkpt><trkpt lat="43.08656" lon="12.9804883"><ele>1050.0</ele><time>2026-03-22T13:42:32.422Z</time></trkpt><trkpt lat="43.0864833" lon="12.9804817"><ele>1050.0</ele><time>2026-03-22T13:42:33.378Z</time></trkpt><trkpt lat="43.0864017" lon="12.98048"><ele>1047.1666666666667</ele><time>2026-03-22T13:42:34.377Z</time></trkpt><trkpt lat="43.0863283" lon="12.9804767"><ele>1044.3333333333333</ele><time>2026-03-22T13:42:35.379Z</time></trkpt><trkpt lat="43.0862617" lon="12.980475"><ele>1041.5</ele><time>2026-03-22T13:42:36.38Z</time></trkpt><trkpt lat="43.0861983" lon="12.980485"><ele>1038.6666666666665</ele><time>2026-03-22T13:42:37.37Z</time></trkpt><trkpt lat="43.0860867" lon="12.98049"><ele>1035.8333333333333</ele><time>2026-03-22T13:42:39.363Z</time></trkpt><trkpt lat="43.086005" lon="12.9805083"><ele>1033.0</ele><time>2026-03-22T13:42:41.361Z</time></trkpt><trkpt lat="43.0859417" lon="12.9805283"><ele>1033.0</ele><time>2026-03-22T13:42:43.373Z</time></trkpt><trkpt lat="43.085875" lon="12.9805267"><ele>1033.0</ele><time>2026-03-22T13:42:45.37Z</time></trkpt><trkpt lat="43.0857883" lon="12.9805567"><ele>1033.0</ele><time>2026-03-22T13:42:47.364Z</time></trkpt><trkpt lat="43.0856883" lon="12.9806067"><ele>1033.0</ele><time>2026-03-22T13:42:49.36Z</time></trkpt><trkpt lat="43.0856033" lon="12.9806733"><ele>1033.0</ele><time>2026-03-22T13:42:51.364Z</time></trkpt><trkpt lat="43.0855283" lon="12.9807633"><ele>1025.6666666666665</ele><time>2026-03-22T13:42:53.375Z</time></trkpt><trkpt lat="43.0854733" lon="12.98092"><ele>1018.3333333333333</ele><time>2026-03-22T13:42:55.374Z</time></trkpt><trkpt lat="43.0854483" lon="12.98102"><ele>1011.0</ele><time>2026-03-22T13:42:56.441Z</time></trkpt><trkpt lat="43.0854317" lon="12.9811383"><ele>1003.6666666666667</ele><time>2026-03-22T13:42:57.376Z</time></trkpt><trkpt lat="43.0854217" lon="12.9812383"><ele>996.3333333333334</ele><time>2026-03-22T13:42:58.383Z</time></trkpt><trkpt lat="43.0854183" lon="12.9813417"><ele>989.0</ele><time>2026-03-22T13:42:59.379Z</time></trkpt><trkpt lat="43.085415" lon="12.9814433"><ele>989.0000000000001</ele><time>2026-03-22T13:43:00.381Z</time></trkpt><trkpt lat="43.0854117" lon="12.98155"><ele>989.0</ele><time>2026-03-22T13:43:01.38Z</time></trkpt><trkpt lat="43.085405" lon="12.9816517"><ele>989.0</ele><time>2026-03-22T13:43:02.417Z</time></trkpt><trkpt lat="43.0854" lon="12.9817617"><ele>989.0</ele><time>2026-03-22T13:43:03.373Z</time></trkpt><trkpt lat="43.085395" lon="12.9818667"><ele>989.0000000000001</ele><time>2026-03-22T13:43:04.377Z</time></trkpt><trkpt lat="43.0853817" lon="12.98198"><ele>989.0</ele><time>2026-03-22T13:43:05.384Z</time></trkpt><trkpt lat="43.0853683" lon="12.9820933"><ele>990.3333333333334</ele><time>2026-03-22T13:43:06.382Z</time></trkpt><trkpt lat="43.085355" lon="12.982205"><ele>991.6666666666667</ele><time>2026-03-22T13:43:07.374Z</time></trkpt><trkpt lat="43.085345" lon="12.9823083"><ele>993.0</ele><time>2026-03-22T13:43:08.421Z</time></trkpt><trkpt lat="43.0853367" lon="12.9824083"><ele>994.3333333333333</ele><time>2026-03-22T13:43:09.38Z</time></trkpt><trkpt lat="43.0853267" lon="12.9825067"><ele>995.6666666666666</ele><time>2026-03-22T13:43:10.381Z</time></trkpt><trkpt lat="43.0853167" lon="12.9825933"><ele>997.0</ele><time>2026-03-22T13:43:11.383Z</time></trkpt><trkpt lat="43.085285" lon="12.9827483"><ele>996.1666666666666</ele><time>2026-03-22T13:43:13.379Z</time></trkpt><trkpt lat="43.085195" lon="12.9828283"><ele>995.3333333333333</ele><time>2026-03-22T13:43:15.359Z</time></trkpt><trkpt lat="43.08513" lon="12.9828417"><ele>994.5</ele><time>2026-03-22T13:43:16.36Z</time></trkpt><trkpt lat="43.0850467" lon="12.98284"><ele>993.6666666666667</ele><time>2026-03-22T13:43:17.382Z</time></trkpt><trkpt lat="43.0849467" lon="12.9828233"><ele>992.8333333333334</ele><time>2026-03-22T13:43:18.381Z</time></trkpt><trkpt lat="43.08486" lon="12.9828233"><ele>992.0</ele><time>2026-03-22T13:43:19.38Z</time></trkpt><trkpt lat="43.0847867" lon="12.9828133"><ele>992.0000000000001</ele><time>2026-03-22T13:43:20.419Z</time></trkpt><trkpt lat="43.0847083" lon="12.9828333"><ele>992.0</ele><time>2026-03-22T13:43:21.373Z</time></trkpt><trkpt lat="43.08464" lon="12.9828533"><ele>992.0</ele><time>2026-03-22T13:43:22.365Z</time></trkpt><trkpt lat="43.0845817" lon="12.9828917"><ele>992.0</ele><time>2026-03-22T13:43:23.368Z</time></trkpt><trkpt lat="43.0844617" lon="12.982955"><ele>992.0000000000001</ele><time>2026-03-22T13:43:25.381Z</time></trkpt><trkpt lat="43.0843983" lon="12.982985"><ele>992.0</ele><time>2026-03-22T13:43:26.437Z</time></trkpt><trkpt lat="43.0842883" lon="12.9830417"><ele>992.0</ele><time>2026-03-22T13:43:28.38Z</time></trkpt><trkpt lat="43.0842267" lon="12.9830633"><ele>992.0</ele><time>2026-03-22T13:43:29.371Z</time></trkpt><trkpt lat="43.0841083" lon="12.983115"><ele>992.0</ele><time>2026-03-22T13:43:31.38Z</time></trkpt><trkpt lat="43.08401" lon="12.98319"><ele>992.0</ele><time>2026-03-22T13:43:33.374Z</time></trkpt><trkpt lat="43.083905" lon="12.9832733"><ele>992.0</ele><time>2026-03-22T13:43:35.38Z</time></trkpt><trkpt lat="43.0837933" lon="12.9833533"><ele>986.0000000000001</ele><time>2026-03-22T13:43:37.373Z</time></trkpt><trkpt lat="43.083735" lon="12.9833883"><ele>980.0</ele><time>2026-03-22T13:43:38.422Z</time></trkpt><trkpt lat="43.0836683" lon="12.983425"><ele>974.0</ele><time>2026-03-22T13:43:39.374Z</time></trkpt><trkpt lat="43.0835583" lon="12.9834733"><ele>968.0</ele><time>2026-03-22T13:43:41.363Z</time></trkpt><trkpt lat="43.083495" lon="12.9834983"><ele>962.0000000000001</ele><time>2026-03-22T13:43:42.371Z</time></trkpt><trkpt lat="43.0834017" lon="12.9835283"><ele>956.0</ele><time>2026-03-22T13:43:44.416Z</time></trkpt><trkpt lat="43.0833367" lon="12.98357"><ele>956.0000000000001</ele><time>2026-03-22T13:43:46.373Z</time></trkpt><trkpt lat="43.0833083" lon="12.9836833"><ele>956.0</ele><time>2026-03-22T13:43:49.371Z</time></trkpt><trkpt lat="43.08328" lon="12.983765"><ele>956.0</ele><time>2026-03-22T13:43:51.36Z</time></trkpt><trkpt lat="43.0832583" lon="12.9838517"><ele>956.0</ele><time>2026-03-22T13:43:53.36Z</time></trkpt><trkpt lat="43.08326" lon="12.9839517"><ele>956.0000000000001</ele><time>2026-03-22T13:43:55.376Z</time></trkpt><trkpt lat="43.0832833" lon="12.9840683"><ele>956.0</ele><time>2026-03-22T13:43:57.374Z</time></trkpt><trkpt lat="43.0833217" lon="12.98423"><ele>954.5999999999999</ele><time>2026-03-22T13:43:59.369Z</time></trkpt><trkpt lat="43.083345" lon="12.984315"><ele>953.1999999999999</ele><time>2026-03-22T13:44:00.364Z</time></trkpt><trkpt lat="43.08338" lon="12.984475"><ele>951.8000000000001</ele><time>2026-03-22T13:44:02.414Z</time></trkpt><trkpt lat="43.0833767" lon="12.9846217"><ele>950.4000000000001</ele><time>2026-03-22T13:44:04.358Z</time></trkpt><trkpt lat="43.0833533" lon="12.9847417"><ele>949.0</ele><time>2026-03-22T13:44:06.374Z</time></trkpt><trkpt lat="43.0833" lon="12.984855"><ele>949.0</ele><time>2026-03-22T13:44:08.413Z</time></trkpt><trkpt lat="43.0832717" lon="12.9849417"><ele>949.0000000000001</ele><time>2026-03-22T13:44:10.368Z</time></trkpt><trkpt lat="43.0832133" lon="12.9850733"><ele>949.0000000000001</ele><time>2026-03-22T13:44:12.372Z</time></trkpt><trkpt lat="43.083175" lon="12.985215"><ele>949.0</ele><time>2026-03-22T13:44:14.421Z</time></trkpt><trkpt lat="43.0831283" lon="12.98534"><ele>949.0</ele><time>2026-03-22T13:44:16.358Z</time></trkpt><trkpt lat="43.0830717" lon="12.9854917"><ele>943.3333333333333</ele><time>2026-03-22T13:44:18.377Z</time></trkpt><trkpt lat="43.0830267" lon="12.9856267"><ele>937.6666666666666</ele><time>2026-03-22T13:44:20.405Z</time></trkpt><trkpt lat="43.0829967" lon="12.98571"><ele>932.0</ele><time>2026-03-22T13:44:21.372Z</time></trkpt><trkpt lat="43.0829633" lon="12.9858033"><ele>926.3333333333333</ele><time>2026-03-22T13:44:22.379Z</time></trkpt><trkpt lat="43.0829267" lon="12.9858933"><ele>920.6666666666666</ele><time>2026-03-22T13:44:23.379Z</time></trkpt><trkpt lat="43.08289" lon="12.9859817"><ele>915.0</ele><time>2026-03-22T13:44:24.378Z</time></trkpt><trkpt lat="43.0828533" lon="12.9860733"><ele>915.0</ele><time>2026-03-22T13:44:25.378Z</time></trkpt><trkpt lat="43.0828183" lon="12.986165"><ele>915.0</ele><time>2026-03-22T13:44:26.441Z</time></trkpt><trkpt lat="43.0827567" lon="12.98629"><ele>915.0</ele><time>2026-03-22T13:44:27.379Z</time></trkpt><trkpt lat="43.08272" lon="12.9863683"><ele>915.0</ele><time>2026-03-22T13:44:28.376Z</time></trkpt><trkpt lat="43.0826883" lon="12.9864433"><ele>915.0</ele><time>2026-03-22T13:44:29.381Z</time></trkpt><trkpt lat="43.082635" lon="12.986585"><ele>915.0</ele><time>2026-03-22T13:44:31.378Z</time></trkpt><trkpt lat="43.0825883" lon="12.98668"><ele>911.5</ele><time>2026-03-22T13:44:32.419Z</time></trkpt><trkpt lat="43.0825183" lon="12.9868083"><ele>908.0</ele><time>2026-03-22T13:44:34.37Z</time></trkpt><trkpt lat="43.08246" lon="12.9868817"><ele>904.5</ele><time>2026-03-22T13:44:36.373Z</time></trkpt><trkpt lat="43.0824033" lon="12.9869283"><ele>901.0</ele><time>2026-03-22T13:44:39.372Z</time></trkpt><trkpt lat="43.0823383" lon="12.9869967"><ele>897.5</ele><time>2026-03-22T13:44:43.367Z</time></trkpt><trkpt lat="43.08228" lon="12.987045"><ele>894.0</ele><time>2026-03-22T13:44:45.369Z</time></trkpt><trkpt lat="43.082205" lon="12.98709"><ele>894.0</ele><time>2026-03-22T13:44:47.374Z</time></trkpt><trkpt lat="43.0821367" lon="12.9871267"><ele>894.0</ele><time>2026-03-22T13:44:49.373Z</time></trkpt><trkpt lat="43.0820517" lon="12.9871533"><ele>894.0</ele><time>2026-03-22T13:44:51.361Z</time></trkpt><trkpt lat="43.0819467" lon="12.9871917"><ele>894.0</ele><time>2026-03-22T13:44:53.374Z</time></trkpt><trkpt lat="43.0818833" lon="12.9872183"><ele>894.0</ele><time>2026-03-22T13:44:54.375Z</time></trkpt><trkpt lat="43.0818117" lon="12.987245"><ele>894.0</ele><time>2026-03-22T13:44:55.377Z</time></trkpt><trkpt lat="43.081745" lon="12.98728"><ele>894.0</ele><time>2026-03-22T13:44:56.443Z</time></trkpt><trkpt lat="43.0816833" lon="12.987315"><ele>894.0</ele><time>2026-03-22T13:44:57.371Z</time></trkpt><trkpt lat="43.08158" lon="12.98738"><ele>894.0</ele><time>2026-03-22T13:44:59.376Z</time></trkpt><trkpt lat="43.081515" lon="12.9874767"><ele>894.0</ele><time>2026-03-22T13:45:01.348Z</time></trkpt><trkpt lat="43.0814733" lon="12.987565"><ele>894.0</ele><time>2026-03-22T13:45:03.374Z</time></trkpt><trkpt lat="43.0814183" lon="12.9876517"><ele>894.0</ele><time>2026-03-22T13:45:05.376Z</time></trkpt><trkpt lat="43.081365" lon="12.9877233"><ele>882.4000000000001</ele><time>2026-03-22T13:45:08.412Z</time></trkpt><trkpt lat="43.0812533" lon="12.9877983"><ele>870.8000000000001</ele><time>2026-03-22T13:45:35.373Z</time></trkpt><trkpt lat="43.0812133" lon="12.987915"><ele>859.2</ele><time>2026-03-22T13:45:38.4Z</time></trkpt><trkpt lat="43.0812783" lon="12.9879517"><ele>847.5999999999999</ele><time>2026-03-22T13:45:42.376Z</time></trkpt><trkpt lat="43.08137" lon="12.987995"><ele>836.0</ele><time>2026-03-22T13:45:45.37Z</time></trkpt><trkpt lat="43.0814217" lon="12.988065"><ele>836.0</ele><time>2026-03-22T13:45:47.371Z</time></trkpt><trkpt lat="43.0814233" lon="12.9881767"><ele>836.0</ele><time>2026-03-22T13:45:49.373Z</time></trkpt><trkpt lat="43.0814283" lon="12.9882983"><ele>836.0</ele><time>2026-03-22T13:45:51.36Z</time></trkpt><trkpt lat="43.0814083" lon="12.9884567"><ele>836.0</ele><time>2026-03-22T13:45:53.378Z</time></trkpt><trkpt lat="43.0813983" lon="12.9885867"><ele>836.0</ele><time>2026-03-22T13:45:55.372Z</time></trkpt><trkpt lat="43.0814217" lon="12.9887083"><ele>834.0000000000001</ele><time>2026-03-22T13:45:58.373Z</time></trkpt><trkpt lat="43.0814283" lon="12.9888"><ele>832.0</ele><time>2026-03-22T13:46:00.374Z</time></trkpt><trkpt lat="43.0814483" lon="12.9889033"><ele>830.0</ele><time>2026-03-22T13:46:02.409Z</time></trkpt><trkpt lat="43.08148" lon="12.98904"><ele>828.0</ele><time>2026-03-22T13:46:04.37Z</time></trkpt><trkpt lat="43.08151" lon="12.9891483"><ele>826.0000000000001</ele><time>2026-03-22T13:46:06.367Z</time></trkpt><trkpt lat="43.081545" lon="12.989275"><ele>824.0</ele><time>2026-03-22T13:46:08.411Z</time></trkpt><trkpt lat="43.0815733" lon="12.9894117"><ele>823.0</ele><time>2026-03-22T13:46:10.361Z</time></trkpt><trkpt lat="43.0815817" lon="12.9895583"><ele>822.0</ele><time>2026-03-22T13:46:12.371Z</time></trkpt><trkpt lat="43.0816067" lon="12.9896767"><ele>821.0</ele><time>2026-03-22T13:46:14.41Z</time></trkpt><trkpt lat="43.08162" lon="12.989845"><ele>820.0</ele><time>2026-03-22T13:46:16.377Z</time></trkpt><trkpt lat="43.0816217" lon="12.9899383"><ele>819.0</ele><time>2026-03-22T13:46:17.382Z</time></trkpt><trkpt lat="43.0816167" lon="12.9900567"><ele>819.5</ele><time>2026-03-22T13:46:18.377Z</time></trkpt><trkpt lat="43.0816183" lon="12.9901717"><ele>820.0</ele><time>2026-03-22T13:46:19.378Z</time></trkpt><trkpt lat="43.0816267" lon="12.9902683"><ele>820.5</ele><time>2026-03-22T13:46:20.418Z</time></trkpt><trkpt lat="43.0816233" lon="12.990355"><ele>821.0</ele><time>2026-03-22T13:46:21.376Z</time></trkpt><trkpt lat="43.0815967" lon="12.9905033"><ele>821.5</ele><time>2026-03-22T13:46:23.376Z</time></trkpt><trkpt lat="43.0815633" lon="12.99063"><ele>822.0</ele><time>2026-03-22T13:46:25.38Z</time></trkpt><trkpt lat="43.081515" lon="12.9907433"><ele>822.0</ele><time>2026-03-22T13:46:27.359Z</time></trkpt><trkpt lat="43.081495" lon="12.9908267"><ele>822.0</ele><time>2026-03-22T13:46:28.366Z</time></trkpt><trkpt lat="43.0814833" lon="12.9909467"><ele>822.0</ele><time>2026-03-22T13:46:29.378Z</time></trkpt><trkpt lat="43.0814833" lon="12.991065"><ele>822.0</ele><time>2026-03-22T13:46:30.381Z</time></trkpt><trkpt lat="43.0814933" lon="12.9911883"><ele>822.0</ele><time>2026-03-22T13:46:31.378Z</time></trkpt><trkpt lat="43.0815183" lon="12.99133"><ele>822.0</ele><time>2026-03-22T13:46:32.417Z</time></trkpt><trkpt lat="43.0815517" lon="12.9914683"><ele>821.8</ele><time>2026-03-22T13:46:33.38Z</time></trkpt><trkpt lat="43.0815783" lon="12.99161"><ele>821.6</ele><time>2026-03-22T13:46:34.364Z</time></trkpt><trkpt lat="43.0816033" lon="12.9917433"><ele>821.4</ele><time>2026-03-22T13:46:35.37Z</time></trkpt><trkpt lat="43.0816333" lon="12.99187"><ele>821.1999999999999</ele><time>2026-03-22T13:46:36.374Z</time></trkpt><trkpt lat="43.0816633" lon="12.9919933"><ele>821.0</ele><time>2026-03-22T13:46:37.378Z</time></trkpt><trkpt lat="43.0816833" lon="12.992105"><ele>823.6666666666667</ele><time>2026-03-22T13:46:38.419Z</time></trkpt><trkpt lat="43.0817" lon="12.9922067"><ele>826.3333333333334</ele><time>2026-03-22T13:46:39.375Z</time></trkpt><trkpt lat="43.081715" lon="12.992305"><ele>829.0</ele><time>2026-03-22T13:46:40.378Z</time></trkpt><trkpt lat="43.081715" lon="12.992395"><ele>831.6666666666667</ele><time>2026-03-22T13:46:41.378Z</time></trkpt><trkpt lat="43.0817283" lon="12.9924817"><ele>834.3333333333334</ele><time>2026-03-22T13:46:42.373Z</time></trkpt><trkpt lat="43.081765" lon="12.9926233"><ele>837.0</ele><time>2026-03-22T13:46:44.416Z</time></trkpt><trkpt lat="43.0817883" lon="12.9927683"><ele>837.0</ele><time>2026-03-22T13:46:46.379Z</time></trkpt><trkpt lat="43.08181" lon="12.99291"><ele>837.0</ele><time>2026-03-22T13:46:48.384Z</time></trkpt><trkpt lat="43.0818383" lon="12.99302"><ele>837.0</ele><time>2026-03-22T13:46:50.402Z</time></trkpt><trkpt lat="43.0818633" lon="12.9931533"><ele>837.0</ele><time>2026-03-22T13:46:52.378Z</time></trkpt><trkpt lat="43.081875" lon="12.9932433"><ele>837.0</ele><time>2026-03-22T13:46:53.382Z</time></trkpt><trkpt lat="43.0818933" lon="12.9933567"><ele>837.0</ele><time>2026-03-22T13:46:54.381Z</time></trkpt><trkpt lat="43.081925" lon="12.9934817"><ele>834.2</ele><time>2026-03-22T13:46:55.378Z</time></trkpt><trkpt lat="43.0819583" lon="12.9936"><ele>831.4000000000001</ele><time>2026-03-22T13:46:56.396Z</time></trkpt><trkpt lat="43.0819967" lon="12.9937067"><ele>828.5999999999999</ele><time>2026-03-22T13:46:57.365Z</time></trkpt><trkpt lat="43.0820317" lon="12.9938183"><ele>825.8</ele><time>2026-03-22T13:46:58.378Z</time></trkpt><trkpt lat="43.0820683" lon="12.993945"><ele>823.0</ele><time>2026-03-22T13:46:59.383Z</time></trkpt><trkpt lat="43.0820917" lon="12.994095"><ele>819.75</ele><time>2026-03-22T13:47:00.382Z</time></trkpt><trkpt lat="43.0821217" lon="12.9942717"><ele>816.5</ele><time>2026-03-22T13:47:01.362Z</time></trkpt><trkpt lat="43.082165" lon="12.9944617"><ele>813.25</ele><time>2026-03-22T13:47:02.419Z</time></trkpt><trkpt lat="43.082205" lon="12.99465"><ele>810.0</ele><time>2026-03-22T13:47:03.378Z</time></trkpt><trkpt lat="43.0822533" lon="12.9948283"><ele>810.0</ele><time>2026-03-22T13:47:04.366Z</time></trkpt><trkpt lat="43.082305" lon="12.9949967"><ele>810.0</ele><time>2026-03-22T13:47:05.382Z</time></trkpt><trkpt lat="43.0823567" lon="12.99514"><ele>810.0</ele><time>2026-03-22T13:47:06.379Z</time></trkpt><trkpt lat="43.0824017" lon="12.995255"><ele>810.0</ele><time>2026-03-22T13:47:07.381Z</time></trkpt><trkpt lat="43.0824433" lon="12.9953483"><ele>810.0</ele><time>2026-03-22T13:47:08.419Z</time></trkpt><trkpt lat="43.0824883" lon="12.995425"><ele>812.6</ele><time>2026-03-22T13:47:09.372Z</time></trkpt><trkpt lat="43.0825517" lon="12.9955183"><ele>815.2</ele><time>2026-03-22T13:47:10.376Z</time></trkpt><trkpt lat="43.0826233" lon="12.995615"><ele>817.8</ele><time>2026-03-22T13:47:11.381Z</time></trkpt><trkpt lat="43.0826983" lon="12.9957233"><ele>820.4</ele><time>2026-03-22T13:47:12.382Z</time></trkpt><trkpt lat="43.0827783" lon="12.9958433"><ele>823.0</ele><time>2026-03-22T13:47:13.38Z</time></trkpt><trkpt lat="43.0828667" lon="12.99596"><ele>822.9999999999999</ele><time>2026-03-22T13:47:14.423Z</time></trkpt><trkpt lat="43.082945" lon="12.996065"><ele>823.0</ele><time>2026-03-22T13:47:15.381Z</time></trkpt><trkpt lat="43.0830083" lon="12.9961617"><ele>823.0</ele><time>2026-03-22T13:47:16.381Z</time></trkpt><trkpt lat="43.0830767" lon="12.9962283"><ele>823.0</ele><time>2026-03-22T13:47:17.362Z</time></trkpt><trkpt lat="43.0831367" lon="12.9962583"><ele>822.9999999999999</ele><time>2026-03-22T13:47:18.393Z</time></trkpt><trkpt lat="43.0832117" lon="12.996245"><ele>823.0</ele><time>2026-03-22T13:47:20.421Z</time></trkpt><trkpt lat="43.083285" lon="12.9962283"><ele>828.5999999999999</ele><time>2026-03-22T13:47:22.379Z</time></trkpt><trkpt lat="43.083365" lon="12.996285"><ele>834.1999999999999</ele><time>2026-03-22T13:47:24.377Z</time></trkpt><trkpt lat="43.0834633" lon="12.9963833"><ele>839.8</ele><time>2026-03-22T13:47:26.442Z</time></trkpt><trkpt lat="43.0835183" lon="12.9964333"><ele>845.4</ele><time>2026-03-22T13:47:27.376Z</time></trkpt><trkpt lat="43.0835767" lon="12.99647"><ele>851.0</ele><time>2026-03-22T13:47:28.379Z</time></trkpt><trkpt lat="43.0836867" lon="12.9965383"><ele>851.0</ele><time>2026-03-22T13:47:30.38Z</time></trkpt><trkpt lat="43.0837783" lon="12.996635"><ele>851.0</ele><time>2026-03-22T13:47:32.418Z</time></trkpt><trkpt lat="43.083865" lon="12.9967433"><ele>851.0</ele><time>2026-03-22T13:47:34.371Z</time></trkpt><trkpt lat="43.083955" lon="12.9968517"><ele>851.0</ele><time>2026-03-22T13:47:36.379Z</time></trkpt><trkpt lat="43.084045" lon="12.9969633"><ele>849.0000000000001</ele><time>2026-03-22T13:47:38.424Z</time></trkpt><trkpt lat="43.0840883" lon="12.99703"><ele>847.0</ele><time>2026-03-22T13:47:39.36Z</time></trkpt><trkpt lat="43.0841383" lon="12.997105"><ele>845.0</ele><time>2026-03-22T13:47:40.379Z</time></trkpt><trkpt lat="43.0842" lon="12.9971817"><ele>843.0</ele><time>2026-03-22T13:47:41.38Z</time></trkpt><trkpt lat="43.0842633" lon="12.997255"><ele>841.0000000000001</ele><time>2026-03-22T13:47:42.381Z</time></trkpt><trkpt lat="43.0843333" lon="12.9973067"><ele>839.0</ele><time>2026-03-22T13:47:43.375Z</time></trkpt><trkpt lat="43.0844067" lon="12.9973417"><ele>845.2</ele><time>2026-03-22T13:47:44.418Z</time></trkpt><trkpt lat="43.0844717" lon="12.9973617"><ele>851.4000000000001</ele><time>2026-03-22T13:47:45.381Z</time></trkpt><trkpt lat="43.0845717" lon="12.997405"><ele>857.6</ele><time>2026-03-22T13:47:47.377Z</time></trkpt><trkpt lat="43.0846617" lon="12.997425"><ele>863.8</ele><time>2026-03-22T13:47:49.385Z</time></trkpt><trkpt lat="43.0847533" lon="12.9974167"><ele>870.0</ele><time>2026-03-22T13:47:52.372Z</time></trkpt><trkpt lat="43.08485" lon="12.997365"><ele>870.0</ele><time>2026-03-22T13:47:55.38Z</time></trkpt><trkpt lat="43.0849283" lon="12.9973183"><ele>870.0</ele><time>2026-03-22T13:47:57.358Z</time></trkpt><trkpt lat="43.0850283" lon="12.997255"><ele>870.0</ele><time>2026-03-22T13:47:59.377Z</time></trkpt><trkpt lat="43.0851083" lon="12.9971667"><ele>870.0</ele><time>2026-03-22T13:48:01.371Z</time></trkpt><trkpt lat="43.0851917" lon="12.9970667"><ele>870.0</ele><time>2026-03-22T13:48:03.377Z</time></trkpt><trkpt lat="43.0852533" lon="12.99702"><ele>876.0</ele><time>2026-03-22T13:48:05.359Z</time></trkpt><trkpt lat="43.08534" lon="12.9970233"><ele>882.0</ele><time>2026-03-22T13:48:08.414Z</time></trkpt><trkpt lat="43.0854233" lon="12.9970183"><ele>888.0</ele><time>2026-03-22T13:48:10.374Z</time></trkpt><trkpt lat="43.08551" lon="12.9970117"><ele>894.0</ele><time>2026-03-22T13:48:12.379Z</time></trkpt><trkpt lat="43.0856017" lon="12.9969883"><ele>900.0</ele><time>2026-03-22T13:48:14.4Z</time></trkpt><trkpt lat="43.0857017" lon="12.99698"><ele>905.0</ele><time>2026-03-22T13:48:16.354Z</time></trkpt><trkpt lat="43.0858133" lon="12.9969783"><ele>910.0</ele><time>2026-03-22T13:48:18.369Z</time></trkpt><trkpt lat="43.085925" lon="12.9969517"><ele>915.0</ele><time>2026-03-22T13:48:20.413Z</time></trkpt><trkpt lat="43.0860217" lon="12.9969217"><ele>920.0</ele><time>2026-03-22T13:48:22.372Z</time></trkpt><trkpt lat="43.0861767" lon="12.9969467"><ele>920.0000000000001</ele><time>2026-03-22T13:51:32.418Z</time></trkpt><trkpt lat="43.086145" lon="12.9970283"><ele>920.0</ele><time>2026-03-22T13:55:40.38Z</time></trkpt><trkpt lat="43.0860717" lon="12.9970383"><ele>920.0</ele><time>2026-03-22T13:55:43.374Z</time></trkpt><trkpt lat="43.0859817" lon="12.9970683"><ele>920.0</ele><time>2026-03-22T13:55:46.366Z</time></trkpt><trkpt lat="43.0859083" lon="12.9970967"><ele>920.0000000000001</ele><time>2026-03-22T13:55:48.376Z</time></trkpt><trkpt lat="43.0858233" lon="12.9971117"><ele>920.0</ele><time>2026-03-22T13:55:50.413Z</time></trkpt><trkpt lat="43.0857233" lon="12.9970967"><ele>916.6666666666667</ele><time>2026-03-22T13:55:52.357Z</time></trkpt><trkpt lat="43.0856183" lon="12.9970967"><ele>913.3333333333334</ele><time>2026-03-22T13:55:54.379Z</time></trkpt><trkpt lat="43.0855017" lon="12.99712"><ele>910.0</ele><time>2026-03-22T13:55:56.429Z</time></trkpt><trkpt lat="43.085435" lon="12.9971267"><ele>906.6666666666667</ele><time>2026-03-22T13:55:57.373Z</time></trkpt><trkpt lat="43.0853583" lon="12.9971283"><ele>903.3333333333334</ele><time>2026-03-22T13:55:58.382Z</time></trkpt><trkpt lat="43.0852933" lon="12.997125"><ele>900.0</ele><time>2026-03-22T13:55:59.383Z</time></trkpt><trkpt lat="43.0852" lon="12.99713"><ele>900.0</ele><time>2026-03-22T13:56:01.383Z</time></trkpt><trkpt lat="43.085125" lon="12.99721"><ele>900.0</ele><time>2026-03-22T13:56:03.363Z</time></trkpt><trkpt lat="43.0850467" lon="12.997285"><ele>900.0</ele><time>2026-03-22T13:56:05.382Z</time></trkpt><trkpt lat="43.0849767" lon="12.9973417"><ele>900.0</ele><time>2026-03-22T13:56:07.373Z</time></trkpt><trkpt lat="43.0848983" lon="12.997375"><ele>900.0</ele><time>2026-03-22T13:56:09.372Z</time></trkpt><trkpt lat="43.0848167" lon="12.99741"><ele>900.0</ele><time>2026-03-22T13:56:11.376Z</time></trkpt><trkpt lat="43.0847417" lon="12.99744"><ele>895.0</ele><time>2026-03-22T13:56:13.376Z</time></trkpt><trkpt lat="43.0846683" lon="12.997435"><ele>890.0</ele><time>2026-03-22T13:56:15.365Z</time></trkpt><trkpt lat="43.08458" lon="12.9974067"><ele>885.0</ele><time>2026-03-22T13:56:17.372Z</time></trkpt><trkpt lat="43.0845067" lon="12.9973567"><ele>880.0</ele><time>2026-03-22T13:56:19.362Z</time></trkpt><trkpt lat="43.0844367" lon="12.997325"><ele>875.0</ele><time>2026-03-22T13:56:21.373Z</time></trkpt><trkpt lat="43.0843367" lon="12.9973033"><ele>870.0</ele><time>2026-03-22T13:56:23.383Z</time></trkpt><trkpt lat="43.0842433" lon="12.9972117"><ele>870.0</ele><time>2026-03-22T13:56:25.38Z</time></trkpt><trkpt lat="43.0841517" lon="12.9970983"><ele>870.0</ele><time>2026-03-22T13:56:27.376Z</time></trkpt><trkpt lat="43.0841067" lon="12.9970317"><ele>870.0</ele><time>2026-03-22T13:56:28.364Z</time></trkpt><trkpt lat="43.0840233" lon="12.9969083"><ele>870.0</ele><time>2026-03-22T13:56:30.381Z</time></trkpt><trkpt lat="43.083975" lon="12.9968517"><ele>870.0</ele><time>2026-03-22T13:56:31.38Z</time></trkpt><trkpt lat="43.083925" lon="12.9967917"><ele>870.0</ele><time>2026-03-22T13:56:32.417Z</time></trkpt><trkpt lat="43.0838417" lon="12.996675"><ele>866.2</ele><time>2026-03-22T13:56:34.369Z</time></trkpt><trkpt lat="43.0837633" lon="12.9965883"><ele>862.4</ele><time>2026-03-22T13:56:36.379Z</time></trkpt><trkpt lat="43.083675" lon="12.9965133"><ele>858.5999999999999</ele><time>2026-03-22T13:56:38.424Z</time></trkpt><trkpt lat="43.0835667" lon="12.9964517"><ele>854.8</ele><time>2026-03-22T13:56:40.381Z</time></trkpt><trkpt lat="43.0834667" lon="12.9964"><ele>851.0</ele><time>2026-03-22T13:56:42.371Z</time></trkpt><trkpt lat="43.083365" lon="12.9963183"><ele>851.0</ele><time>2026-03-22T13:56:44.421Z</time></trkpt><trkpt lat="43.0832733" lon="12.9962217"><ele>851.0</ele><time>2026-03-22T13:56:46.38Z</time></trkpt><trkpt lat="43.083195" lon="12.99616"><ele>851.0</ele><time>2026-03-22T13:56:48.386Z</time></trkpt><trkpt lat="43.08313" lon="12.99619"><ele>851.0</ele><time>2026-03-22T13:56:51.37Z</time></trkpt><trkpt lat="43.0831267" lon="12.9963083"><ele>851.0</ele><time>2026-03-22T13:56:54.361Z</time></trkpt><trkpt lat="43.0831567" lon="12.99643"><ele>846.3333333333334</ele><time>2026-03-22T13:56:56.427Z</time></trkpt><trkpt lat="43.083185" lon="12.9966033"><ele>841.6666666666667</ele><time>2026-03-22T13:56:58.379Z</time></trkpt><trkpt lat="43.08319" lon="12.996705"><ele>837.0</ele><time>2026-03-22T13:56:59.373Z</time></trkpt><trkpt lat="43.08319" lon="12.9968067"><ele>832.3333333333333</ele><time>2026-03-22T13:57:00.367Z</time></trkpt><trkpt lat="43.0831967" lon="12.9968967"><ele>827.6666666666666</ele><time>2026-03-22T13:57:01.359Z</time></trkpt><trkpt lat="43.083215" lon="12.9969817"><ele>823.0</ele><time>2026-03-22T13:57:02.429Z</time></trkpt><trkpt lat="43.0832333" lon="12.9971317"><ele>822.5999999999999</ele><time>2026-03-22T13:57:04.371Z</time></trkpt><trkpt lat="43.0832383" lon="12.9972867"><ele>822.1999999999999</ele><time>2026-03-22T13:57:06.384Z</time></trkpt><trkpt lat="43.0832433" lon="12.9974567"><ele>821.8</ele><time>2026-03-22T13:57:08.422Z</time></trkpt><trkpt lat="43.0832533" lon="12.9976233"><ele>821.4</ele><time>2026-03-22T13:57:10.379Z</time></trkpt><trkpt lat="43.0832633" lon="12.99771"><ele>821.0</ele><time>2026-03-22T13:57:11.383Z</time></trkpt><trkpt lat="43.0832833" lon="12.9977967"><ele>821.0000000000001</ele><time>2026-03-22T13:57:12.385Z</time></trkpt><trkpt lat="43.08331" lon="12.99788"><ele>821.0</ele><time>2026-03-22T13:57:13.38Z</time></trkpt><trkpt lat="43.0833417" lon="12.99796"><ele>821.0</ele><time>2026-03-22T13:57:14.422Z</time></trkpt><trkpt lat="43.0833717" lon="12.9980367"><ele>821.0</ele><time>2026-03-22T13:57:15.374Z</time></trkpt><trkpt lat="43.0834233" lon="12.998175"><ele>821.0000000000001</ele><time>2026-03-22T13:57:17.378Z</time></trkpt><trkpt lat="43.08347" lon="12.9982883"><ele>821.0</ele><time>2026-03-22T13:57:19.381Z</time></trkpt><trkpt lat="43.0835033" lon="12.998405"><ele>816.1999999999999</ele><time>2026-03-22T13:57:21.371Z</time></trkpt><trkpt lat="43.0835367" lon="12.99854"><ele>811.4</ele><time>2026-03-22T13:57:23.379Z</time></trkpt><trkpt lat="43.08355" lon="12.9986917"><ele>806.6</ele><time>2026-03-22T13:57:25.377Z</time></trkpt><trkpt lat="43.083555" lon="12.998845"><ele>801.8</ele><time>2026-03-22T13:57:27.374Z</time></trkpt><trkpt lat="43.0835583" lon="12.998975"><ele>797.0</ele><time>2026-03-22T13:57:29.383Z</time></trkpt><trkpt lat="43.0835583" lon="12.9990967"><ele>792.3333333333334</ele><time>2026-03-22T13:57:31.373Z</time></trkpt><trkpt lat="43.083605" lon="12.9991933"><ele>787.6666666666667</ele><time>2026-03-22T13:57:33.369Z</time></trkpt><trkpt lat="43.0836783" lon="12.99926"><ele>783.0</ele><time>2026-03-22T13:57:35.373Z</time></trkpt><trkpt lat="43.08375" lon="12.9993533"><ele>778.3333333333333</ele><time>2026-03-22T13:57:37.359Z</time></trkpt><trkpt lat="43.0838217" lon="12.999425"><ele>773.6666666666666</ele><time>2026-03-22T13:57:39.372Z</time></trkpt><trkpt lat="43.0838883" lon="12.9994967"><ele>769.0</ele><time>2026-03-22T13:57:42.381Z</time></trkpt><trkpt lat="43.0839383" lon="12.9995517"><ele>769.0</ele><time>2026-03-22T13:57:45.375Z</time></trkpt><trkpt lat="43.08401" lon="12.9996633"><ele>769.0</ele><time>2026-03-22T13:57:54.373Z</time></trkpt><trkpt lat="43.0840717" lon="12.9997567"><ele>769.0</ele><time>2026-03-22T13:57:56.409Z</time></trkpt><trkpt lat="43.0841483" lon="12.9998867"><ele>769.0</ele><time>2026-03-22T13:57:58.381Z</time></trkpt><trkpt lat="43.08419" lon="12.9999667"><ele>769.0</ele><time>2026-03-22T13:57:59.372Z</time></trkpt><trkpt lat="43.0842333" lon="13.0000383"><ele>771.6666666666666</ele><time>2026-03-22T13:58:00.368Z</time></trkpt><trkpt lat="43.0842817" lon="13.0001017"><ele>774.3333333333333</ele><time>2026-03-22T13:58:01.374Z</time></trkpt><trkpt lat="43.084335" lon="13.0001633"><ele>777.0</ele><time>2026-03-22T13:58:02.418Z</time></trkpt><trkpt lat="43.0843833" lon="13.000225"><ele>779.6666666666667</ele><time>2026-03-22T13:58:03.375Z</time></trkpt><trkpt lat="43.084455" lon="13.0003383"><ele>782.3333333333334</ele><time>2026-03-22T13:58:05.381Z</time></trkpt><trkpt lat="43.0845233" lon="13.0004517"><ele>785.0</ele><time>2026-03-22T13:58:07.38Z</time></trkpt><trkpt lat="43.08458" lon="13.0005467"><ele>785.0</ele><time>2026-03-22T13:58:09.377Z</time></trkpt><trkpt lat="43.0846383" lon="13.000675"><ele>785.0</ele><time>2026-03-22T13:58:11.363Z</time></trkpt><trkpt lat="43.0846817" lon="13.0008333"><ele>785.0</ele><time>2026-03-22T13:58:13.38Z</time></trkpt><trkpt lat="43.0847367" lon="13.0009533"><ele>785.0</ele><time>2026-03-22T13:58:15.357Z</time></trkpt><trkpt lat="43.08483" lon="13.0010467"><ele>782.6666666666667</ele><time>2026-03-22T13:58:17.372Z</time></trkpt><trkpt lat="43.0849183" lon="13.001115"><ele>780.3333333333334</ele><time>2026-03-22T13:58:19.374Z</time></trkpt><trkpt lat="43.0849967" lon="13.0011683"><ele>778.0</ele><time>2026-03-22T13:58:21.359Z</time></trkpt><trkpt lat="43.0850767" lon="13.0012"><ele>775.6666666666667</ele><time>2026-03-22T13:58:23.38Z</time></trkpt><trkpt lat="43.0851633" lon="13.0012283"><ele>773.3333333333334</ele><time>2026-03-22T13:58:25.379Z</time></trkpt><trkpt lat="43.0852267" lon="13.0012633"><ele>771.0</ele><time>2026-03-22T13:58:26.418Z</time></trkpt><trkpt lat="43.08529" lon="13.0012883"><ele>771.0</ele><time>2026-03-22T13:58:28.357Z</time></trkpt><trkpt lat="43.08532" lon="13.0013717"><ele>771.0</ele><time>2026-03-22T13:58:32.421Z</time></trkpt><trkpt lat="43.08541" lon="13.00142"><ele>771.0</ele><time>2026-03-22T14:01:21.374Z</time></trkpt><trkpt lat="43.0854083" lon="13.0013283"><ele>771.0</ele><time>2026-03-22T14:03:28.376Z</time></trkpt><trkpt lat="43.08539" lon="13.0014167"><ele>771.0</ele><time>2026-03-22T14:03:42.359Z</time></trkpt><trkpt lat="43.085325" lon="13.00155"><ele>771.0</ele><time>2026-03-22T14:04:53.333Z</time></trkpt><trkpt lat="43.0853733" lon="13.0014333"><ele>771.0</ele><time>2026-03-22T14:04:55.33Z</time></trkpt><trkpt lat="43.0853367" lon="13.0013533"><ele>771.0</ele><time>2026-03-22T14:04:57.334Z</time></trkpt><trkpt lat="43.0853133" lon="13.0014367"><ele>771.0</ele><time>2026-03-22T14:04:59.347Z</time></trkpt><trkpt lat="43.085385" lon="13.0014433"><ele>771.0</ele><time>2026-03-22T14:07:16.358Z</time></trkpt><trkpt lat="43.08545" lon="13.001495"><ele>771.0</ele><time>2026-03-22T14:07:19.364Z</time></trkpt><trkpt lat="43.0855333" lon="13.001545"><ele>771.0</ele><time>2026-03-22T14:07:21.36Z</time></trkpt><trkpt lat="43.0856217" lon="13.00159"><ele>771.0</ele><time>2026-03-22T14:07:23.36Z</time></trkpt><trkpt lat="43.0857133" lon="13.0016567"><ele>771.0</ele><time>2026-03-22T14:07:25.34Z</time></trkpt><trkpt lat="43.08579" lon="13.0017133"><ele>771.0</ele><time>2026-03-22T14:07:27.339Z</time></trkpt><trkpt lat="43.0858467" lon="13.0017733"><ele>771.0</ele><time>2026-03-22T14:07:29.332Z</time></trkpt><trkpt lat="43.0859267" lon="13.001885"><ele>771.0</ele><time>2026-03-22T14:07:31.366Z</time></trkpt><trkpt lat="43.08598" lon="13.0019567"><ele>769.7142857142858</ele><time>2026-03-22T14:07:32.401Z</time></trkpt><trkpt lat="43.0860267" lon="13.002035"><ele>768.4285714285713</ele><time>2026-03-22T14:07:33.361Z</time></trkpt><trkpt lat="43.0860717" lon="13.002105"><ele>767.1428571428571</ele><time>2026-03-22T14:07:34.368Z</time></trkpt><trkpt lat="43.0861167" lon="13.0021783"><ele>765.8571428571429</ele><time>2026-03-22T14:07:35.353Z</time></trkpt><trkpt lat="43.0861583" lon="13.0022617"><ele>764.5714285714287</ele><time>2026-03-22T14:07:36.372Z</time></trkpt><trkpt lat="43.0861933" lon="13.00236"><ele>763.2857142857142</ele><time>2026-03-22T14:07:37.367Z</time></trkpt><trkpt lat="43.0862283" lon="13.00245"><ele>762.0</ele><time>2026-03-22T14:07:38.379Z</time></trkpt><trkpt lat="43.0862633" lon="13.0025467"><ele>758.0</ele><time>2026-03-22T14:07:39.357Z</time></trkpt><trkpt lat="43.0863" lon="13.0026367"><ele>754.0</ele><time>2026-03-22T14:07:40.368Z</time></trkpt><trkpt lat="43.0863383" lon="13.00273"><ele>750.0</ele><time>2026-03-22T14:07:41.367Z</time></trkpt><trkpt lat="43.0863917" lon="13.0028217"><ele>746.0</ele><time>2026-03-22T14:07:42.367Z</time></trkpt><trkpt lat="43.086455" lon="13.0029083"><ele>742.0</ele><time>2026-03-22T14:07:43.364Z</time></trkpt><trkpt lat="43.0865183" lon="13.0029883"><ele>738.0</ele><time>2026-03-22T14:07:44.382Z</time></trkpt><trkpt lat="43.08658" lon="13.0030617"><ele>738.0</ele><time>2026-03-22T14:07:45.361Z</time></trkpt><trkpt lat="43.0866417" lon="13.0031183"><ele>738.0</ele><time>2026-03-22T14:07:46.349Z</time></trkpt><trkpt lat="43.0867067" lon="13.0031683"><ele>738.0</ele><time>2026-03-22T14:07:47.36Z</time></trkpt><trkpt lat="43.0867667" lon="13.0032233"><ele>738.0</ele><time>2026-03-22T14:07:48.365Z</time></trkpt><trkpt lat="43.08683" lon="13.00329"><ele>738.0</ele><time>2026-03-22T14:07:49.357Z</time></trkpt><trkpt lat="43.086895" lon="13.00336"><ele>738.0</ele><time>2026-03-22T14:07:50.377Z</time></trkpt><trkpt lat="43.0869667" lon="13.0034367"><ele>738.0</ele><time>2026-03-22T14:07:51.357Z</time></trkpt><trkpt lat="43.0870367" lon="13.003525"><ele>738.0</ele><time>2026-03-22T14:07:52.357Z</time></trkpt><trkpt lat="43.0871117" lon="13.0036267"><ele>738.0</ele><time>2026-03-22T14:07:53.357Z</time></trkpt><trkpt lat="43.08719" lon="13.0037433"><ele>738.0</ele><time>2026-03-22T14:07:54.36Z</time></trkpt><trkpt lat="43.0872683" lon="13.003855"><ele>738.0</ele><time>2026-03-22T14:07:55.36Z</time></trkpt><trkpt lat="43.0873383" lon="13.0039733"><ele>738.0</ele><time>2026-03-22T14:07:56.435Z</time></trkpt><trkpt lat="43.0874067" lon="13.0040933"><ele>738.0</ele><time>2026-03-22T14:07:57.36Z</time></trkpt><trkpt lat="43.0874733" lon="13.0042217"><ele>738.0</ele><time>2026-03-22T14:07:58.361Z</time></trkpt><trkpt lat="43.087545" lon="13.0043483"><ele>738.0</ele><time>2026-03-22T14:07:59.366Z</time></trkpt><trkpt lat="43.08762" lon="13.0044683"><ele>740.25</ele><time>2026-03-22T14:08:00.348Z</time></trkpt><trkpt lat="43.0876967" lon="13.0045833"><ele>742.5</ele><time>2026-03-22T14:08:01.36Z</time></trkpt><trkpt lat="43.0877817" lon="13.0046917"><ele>744.75</ele><time>2026-03-22T14:08:02.409Z</time></trkpt><trkpt lat="43.0878717" lon="13.0047967"><ele>747.0</ele><time>2026-03-22T14:08:03.355Z</time></trkpt><trkpt lat="43.0879533" lon="13.0049"><ele>748.25</ele><time>2026-03-22T14:08:04.362Z</time></trkpt><trkpt lat="43.0880367" lon="13.0050017"><ele>749.5</ele><time>2026-03-22T14:08:05.339Z</time></trkpt><trkpt lat="43.0881233" lon="13.0051117"><ele>750.75</ele><time>2026-03-22T14:08:06.37Z</time></trkpt><trkpt lat="43.0882117" lon="13.0052233"><ele>752.0</ele><time>2026-03-22T14:08:07.358Z</time></trkpt><trkpt lat="43.0883033" lon="13.00534"><ele>752.0</ele><time>2026-03-22T14:08:08.384Z</time></trkpt><trkpt lat="43.0883983" lon="13.0054583"><ele>752.0</ele><time>2026-03-22T14:08:09.345Z</time></trkpt><trkpt lat="43.0884967" lon="13.0055717"><ele>752.0</ele><time>2026-03-22T14:08:10.355Z</time></trkpt><trkpt lat="43.0885967" lon="13.00568"><ele>752.0</ele><time>2026-03-22T14:08:11.362Z</time></trkpt><trkpt lat="43.0887" lon="13.0057883"><ele>747.5</ele><time>2026-03-22T14:08:12.362Z</time></trkpt><trkpt lat="43.0888017" lon="13.0058933"><ele>743.0</ele><time>2026-03-22T14:08:13.37Z</time></trkpt><trkpt lat="43.0889" lon="13.0059967"><ele>738.5</ele><time>2026-03-22T14:08:14.391Z</time></trkpt><trkpt lat="43.088995" lon="13.0060933"><ele>734.0</ele><time>2026-03-22T14:08:15.368Z</time></trkpt><trkpt lat="43.0890833" lon="13.0061883"><ele>736.4000000000001</ele><time>2026-03-22T14:08:16.373Z</time></trkpt><trkpt lat="43.0891717" lon="13.00628"><ele>738.8</ele><time>2026-03-22T14:08:17.359Z</time></trkpt><trkpt lat="43.08926" lon="13.0063633"><ele>741.2</ele><time>2026-03-22T14:08:18.362Z</time></trkpt><trkpt lat="43.0893433" lon="13.006435"><ele>743.5999999999999</ele><time>2026-03-22T14:08:19.354Z</time></trkpt><trkpt lat="43.0894283" lon="13.0065017"><ele>746.0</ele><time>2026-03-22T14:08:20.398Z</time></trkpt><trkpt lat="43.08951" lon="13.0065533"><ele>746.0</ele><time>2026-03-22T14:08:21.369Z</time></trkpt><trkpt lat="43.0895867" lon="13.0066017"><ele>746.0</ele><time>2026-03-22T14:08:22.367Z</time></trkpt><trkpt lat="43.0896633" lon="13.00666"><ele>746.0</ele><time>2026-03-22T14:08:23.375Z</time></trkpt><trkpt lat="43.0897383" lon="13.00673"><ele>746.0</ele><time>2026-03-22T14:08:24.358Z</time></trkpt><trkpt lat="43.0898117" lon="13.0068133"><ele>746.0</ele><time>2026-03-22T14:08:25.369Z</time></trkpt><trkpt lat="43.0898867" lon="13.0069083"><ele>745.6666666666666</ele><time>2026-03-22T14:08:26.425Z</time></trkpt><trkpt lat="43.0899667" lon="13.0070067"><ele>745.3333333333333</ele><time>2026-03-22T14:08:27.354Z</time></trkpt><trkpt lat="43.0900383" lon="13.0070917"><ele>745.0</ele><time>2026-03-22T14:08:28.37Z</time></trkpt><trkpt lat="43.090095" lon="13.00716"><ele>744.6666666666666</ele><time>2026-03-22T14:08:29.365Z</time></trkpt><trkpt lat="43.0901467" lon="13.00726"><ele>744.3333333333334</ele><time>2026-03-22T14:08:31.366Z</time></trkpt><trkpt lat="43.0901533" lon="13.0073483"><ele>744.0</ele><time>2026-03-22T14:09:36.361Z</time></trkpt><trkpt lat="43.0901633" lon="13.007455"><ele>744.0</ele><time>2026-03-22T14:09:38.394Z</time></trkpt><trkpt lat="43.09018" lon="13.00736"><ele>744.0</ele><time>2026-03-22T14:09:44.386Z</time></trkpt><trkpt lat="43.0901433" lon="13.0072633"><ele>744.0</ele><time>2026-03-22T14:09:46.356Z</time></trkpt><trkpt lat="43.09008" lon="13.0072267"><ele>744.0</ele><time>2026-03-22T14:09:49.349Z</time></trkpt><trkpt lat="43.090055" lon="13.00731"><ele>744.0</ele><time>2026-03-22T14:09:51.356Z</time></trkpt><trkpt lat="43.09002" lon="13.0074083"><ele>744.0</ele><time>2026-03-22T14:09:53.358Z</time></trkpt><trkpt lat="43.089945" lon="13.0075017"><ele>742.6</ele><time>2026-03-22T14:09:55.356Z</time></trkpt><trkpt lat="43.08982" lon="13.007565"><ele>741.2</ele><time>2026-03-22T14:09:57.356Z</time></trkpt><trkpt lat="43.0897417" lon="13.0075867"><ele>739.8000000000001</ele><time>2026-03-22T14:09:58.363Z</time></trkpt><trkpt lat="43.089665" lon="13.0075933"><ele>738.4000000000001</ele><time>2026-03-22T14:09:59.372Z</time></trkpt><trkpt lat="43.08958" lon="13.0076083"><ele>737.0</ele><time>2026-03-22T14:10:00.354Z</time></trkpt><trkpt lat="43.0894917" lon="13.00763"><ele>737.0</ele><time>2026-03-22T14:10:01.364Z</time></trkpt><trkpt lat="43.0893983" lon="13.0076567"><ele>737.0</ele><time>2026-03-22T14:10:02.393Z</time></trkpt><trkpt lat="43.0893083" lon="13.0076867"><ele>737.0</ele><time>2026-03-22T14:10:03.349Z</time></trkpt><trkpt lat="43.0892233" lon="13.00772"><ele>737.0</ele><time>2026-03-22T14:10:04.357Z</time></trkpt><trkpt lat="43.089145" lon="13.0077667"><ele>737.0</ele><time>2026-03-22T14:10:05.368Z</time></trkpt><trkpt lat="43.0890767" lon="13.007825"><ele>737.0</ele><time>2026-03-22T14:10:06.366Z</time></trkpt><trkpt lat="43.0890183" lon="13.0078933"><ele>738.2</ele><time>2026-03-22T14:10:07.364Z</time></trkpt><trkpt lat="43.0889717" lon="13.0079617"><ele>739.4000000000001</ele><time>2026-03-22T14:10:08.385Z</time></trkpt><trkpt lat="43.0889217" lon="13.0081067"><ele>740.5999999999999</ele><time>2026-03-22T14:10:10.36Z</time></trkpt><trkpt lat="43.0889383" lon="13.00825"><ele>741.8</ele><time>2026-03-22T14:10:12.364Z</time></trkpt><trkpt lat="43.08897" lon="13.0083817"><ele>743.0</ele><time>2026-03-22T14:10:27.343Z</time></trkpt><trkpt lat="43.0889933" lon="13.0084817"><ele>743.0</ele><time>2026-03-22T14:10:33.349Z</time></trkpt><trkpt lat="43.0889983" lon="13.0086117"><ele>743.0</ele><time>2026-03-22T14:10:36.359Z</time></trkpt><trkpt lat="43.0889367" lon="13.0086667"><ele>743.0</ele><time>2026-03-22T14:10:38.386Z</time></trkpt><trkpt lat="43.0888633" lon="13.00867"><ele>743.0</ele><time>2026-03-22T14:10:39.355Z</time></trkpt><trkpt lat="43.0887683" lon="13.0086633"><ele>743.0</ele><time>2026-03-22T14:10:40.357Z</time></trkpt><trkpt lat="43.0886617" lon="13.0086583"><ele>743.0</ele><time>2026-03-22T14:10:41.36Z</time></trkpt><trkpt lat="43.088545" lon="13.008665"><ele>743.0</ele><time>2026-03-22T14:10:42.358Z</time></trkpt><trkpt lat="43.0884433" lon="13.0086767"><ele>743.0</ele><time>2026-03-22T14:10:43.362Z</time></trkpt><trkpt lat="43.08835" lon="13.0086867"><ele>743.0</ele><time>2026-03-22T14:10:44.385Z</time></trkpt><trkpt lat="43.0882567" lon="13.008675"><ele>743.0</ele><time>2026-03-22T14:10:45.362Z</time></trkpt><trkpt lat="43.0881517" lon="13.0086367"><ele>743.0</ele><time>2026-03-22T14:10:46.349Z</time></trkpt><trkpt lat="43.0880633" lon="13.0085767"><ele>743.2</ele><time>2026-03-22T14:10:47.37Z</time></trkpt><trkpt lat="43.0879683" lon="13.008535"><ele>743.4</ele><time>2026-03-22T14:10:48.362Z</time></trkpt><trkpt lat="43.0878717" lon="13.0085"><ele>743.6</ele><time>2026-03-22T14:10:49.375Z</time></trkpt><trkpt lat="43.0877667" lon="13.00847"><ele>743.8000000000001</ele><time>2026-03-22T14:10:50.396Z</time></trkpt><trkpt lat="43.0876633" lon="13.00845"><ele>744.0</ele><time>2026-03-22T14:10:51.361Z</time></trkpt><trkpt lat="43.087555" lon="13.00843"><ele>744.0</ele><time>2026-03-22T14:10:52.363Z</time></trkpt><trkpt lat="43.0874417" lon="13.008405"><ele>744.0</ele><time>2026-03-22T14:10:53.367Z</time></trkpt><trkpt lat="43.087335" lon="13.0083783"><ele>744.0</ele><time>2026-03-22T14:10:54.374Z</time></trkpt><trkpt lat="43.08725" lon="13.0083533"><ele>744.0</ele><time>2026-03-22T14:10:55.364Z</time></trkpt><trkpt lat="43.087185" lon="13.0083367"><ele>744.0</ele><time>2026-03-22T14:10:56.405Z</time></trkpt><trkpt lat="43.08707" lon="13.0083283"><ele>741.6666666666666</ele><time>2026-03-22T14:10:58.367Z</time></trkpt><trkpt lat="43.0869917" lon="13.0083433"><ele>739.3333333333334</ele><time>2026-03-22T14:10:59.36Z</time></trkpt><trkpt lat="43.0869067" lon="13.0083617"><ele>737.0</ele><time>2026-03-22T14:11:00.369Z</time></trkpt><trkpt lat="43.0868333" lon="13.00838"><ele>734.6666666666667</ele><time>2026-03-22T14:11:01.361Z</time></trkpt><trkpt lat="43.0867433" lon="13.008425"><ele>732.3333333333334</ele><time>2026-03-22T14:11:03.354Z</time></trkpt><trkpt lat="43.08673" lon="13.0085183"><ele>730.0</ele><time>2026-03-22T14:11:05.36Z</time></trkpt><trkpt lat="43.0867833" lon="13.0087017"><ele>730.0</ele><time>2026-03-22T14:11:07.357Z</time></trkpt><trkpt lat="43.0868233" lon="13.0088233"><ele>730.0</ele><time>2026-03-22T14:11:08.385Z</time></trkpt><trkpt lat="43.08686" lon="13.00894"><ele>730.0</ele><time>2026-03-22T14:11:09.363Z</time></trkpt><trkpt lat="43.0868967" lon="13.0090433"><ele>730.0</ele><time>2026-03-22T14:11:10.359Z</time></trkpt><trkpt lat="43.0869217" lon="13.0091267"><ele>730.0</ele><time>2026-03-22T14:11:11.368Z</time></trkpt><trkpt lat="43.086935" lon="13.0092483"><ele>730.0</ele><time>2026-03-22T14:11:13.37Z</time></trkpt><trkpt lat="43.0868433" lon="13.0092867"><ele>732.75</ele><time>2026-03-22T14:11:15.359Z</time></trkpt><trkpt lat="43.0867483" lon="13.0092783"><ele>735.5</ele><time>2026-03-22T14:11:16.354Z</time></trkpt><trkpt lat="43.0866167" lon="13.0092617"><ele>738.25</ele><time>2026-03-22T14:11:17.36Z</time></trkpt><trkpt lat="43.0864867" lon="13.0092433"><ele>741.0</ele><time>2026-03-22T14:11:18.371Z</time></trkpt><trkpt lat="43.086355" lon="13.0092083"><ele>741.25</ele><time>2026-03-22T14:11:19.364Z</time></trkpt><trkpt lat="43.0862183" lon="13.0091733"><ele>741.5</ele><time>2026-03-22T14:11:20.391Z</time></trkpt><trkpt lat="43.0860967" lon="13.0091467"><ele>741.75</ele><time>2026-03-22T14:11:21.356Z</time></trkpt><trkpt lat="43.0859883" lon="13.0091317"><ele>742.0</ele><time>2026-03-22T14:11:22.366Z</time></trkpt><trkpt lat="43.0858817" lon="13.00912"><ele>736.75</ele><time>2026-03-22T14:11:23.365Z</time></trkpt><trkpt lat="43.0857667" lon="13.00911"><ele>731.5</ele><time>2026-03-22T14:11:24.365Z</time></trkpt><trkpt lat="43.08564" lon="13.00909"><ele>726.25</ele><time>2026-03-22T14:11:25.35Z</time></trkpt><trkpt lat="43.0855183" lon="13.0090633"><ele>721.0</ele><time>2026-03-22T14:11:26.398Z</time></trkpt><trkpt lat="43.0853983" lon="13.0090283"><ele>721.0</ele><time>2026-03-22T14:11:27.344Z</time></trkpt><trkpt lat="43.0852933" lon="13.00899"><ele>721.0</ele><time>2026-03-22T14:11:28.349Z</time></trkpt><trkpt lat="43.0852" lon="13.00895"><ele>721.0</ele><time>2026-03-22T14:11:29.371Z</time></trkpt><trkpt lat="43.08512" lon="13.0089117"><ele>721.0</ele><time>2026-03-22T14:11:30.362Z</time></trkpt><trkpt lat="43.08504" lon="13.0088867"><ele>721.0</ele><time>2026-03-22T14:11:31.366Z</time></trkpt><trkpt lat="43.0849667" lon="13.0088817"><ele>721.0</ele><time>2026-03-22T14:11:32.412Z</time></trkpt><trkpt lat="43.0848817" lon="13.0088933"><ele>719.1999999999999</ele><time>2026-03-22T14:11:33.356Z</time></trkpt><trkpt lat="43.0847933" lon="13.0089167"><ele>717.4</ele><time>2026-03-22T14:11:34.362Z</time></trkpt><trkpt lat="43.0846967" lon="13.00895"><ele>715.6</ele><time>2026-03-22T14:11:35.364Z</time></trkpt><trkpt lat="43.0845933" lon="13.0089967"><ele>713.8</ele><time>2026-03-22T14:11:36.355Z</time></trkpt><trkpt lat="43.0844983" lon="13.009035"><ele>712.0</ele><time>2026-03-22T14:11:37.354Z</time></trkpt><trkpt lat="43.0844233" lon="13.0090683"><ele>712.0</ele><time>2026-03-22T14:11:38.398Z</time></trkpt><trkpt lat="43.0843567" lon="13.0091017"><ele>712.0</ele><time>2026-03-22T14:11:39.363Z</time></trkpt><trkpt lat="43.084285" lon="13.0091367"><ele>712.0</ele><time>2026-03-22T14:11:40.371Z</time></trkpt><trkpt lat="43.0842" lon="13.0091833"><ele>712.0</ele><time>2026-03-22T14:11:41.369Z</time></trkpt><trkpt lat="43.0841033" lon="13.009245"><ele>712.0</ele><time>2026-03-22T14:11:42.366Z</time></trkpt><trkpt lat="43.0840133" lon="13.0093033"><ele>712.0</ele><time>2026-03-22T14:11:43.367Z</time></trkpt><trkpt lat="43.0839217" lon="13.0093433"><ele>713.6</ele><time>2026-03-22T14:11:44.395Z</time></trkpt><trkpt lat="43.0838283" lon="13.00937"><ele>715.2</ele><time>2026-03-22T14:11:45.365Z</time></trkpt><trkpt lat="43.0837333" lon="13.009385"><ele>716.8</ele><time>2026-03-22T14:11:46.355Z</time></trkpt><trkpt lat="43.083645" lon="13.0094017"><ele>718.4</ele><time>2026-03-22T14:11:47.369Z</time></trkpt><trkpt lat="43.083555" lon="13.00943"><ele>720.0</ele><time>2026-03-22T14:11:48.365Z</time></trkpt><trkpt lat="43.08347" lon="13.00946"><ele>720.0</ele><time>2026-03-22T14:11:49.37Z</time></trkpt><trkpt lat="43.0833967" lon="13.0094867"><ele>720.0</ele><time>2026-03-22T14:11:50.377Z</time></trkpt><trkpt lat="43.08329" lon="13.0095683"><ele>720.0</ele><time>2026-03-22T14:11:52.375Z</time></trkpt><trkpt lat="43.0832617" lon="13.0096583"><ele>720.0</ele><time>2026-03-22T14:11:53.372Z</time></trkpt><trkpt lat="43.08324" lon="13.009775"><ele>720.0</ele><time>2026-03-22T14:11:54.37Z</time></trkpt><trkpt lat="43.0832067" lon="13.0098867"><ele>720.0</ele><time>2026-03-22T14:11:55.368Z</time></trkpt><trkpt lat="43.0831667" lon="13.0099917"><ele>720.6666666666666</ele><time>2026-03-22T14:11:56.406Z</time></trkpt><trkpt lat="43.0831167" lon="13.010085"><ele>721.3333333333334</ele><time>2026-03-22T14:11:57.354Z</time></trkpt><trkpt lat="43.0830583" lon="13.0101633"><ele>722.0</ele><time>2026-03-22T14:11:58.37Z</time></trkpt><trkpt lat="43.083" lon="13.0102417"><ele>722.6666666666667</ele><time>2026-03-22T14:11:59.362Z</time></trkpt><trkpt lat="43.08294" lon="13.01031"><ele>723.3333333333334</ele><time>2026-03-22T14:12:00.338Z</time></trkpt><trkpt lat="43.0828733" lon="13.0103667"><ele>724.0</ele><time>2026-03-22T14:12:01.359Z</time></trkpt><trkpt lat="43.0827917" lon="13.0104017"><ele>724.0</ele><time>2026-03-22T14:12:02.417Z</time></trkpt><trkpt lat="43.0826967" lon="13.010425"><ele>724.0</ele><time>2026-03-22T14:12:03.357Z</time></trkpt><trkpt lat="43.0826" lon="13.0104383"><ele>724.0</ele><time>2026-03-22T14:12:04.36Z</time></trkpt><trkpt lat="43.0824983" lon="13.0104333"><ele>724.0</ele><time>2026-03-22T14:12:05.333Z</time></trkpt><trkpt lat="43.0823867" lon="13.010395"><ele>724.0</ele><time>2026-03-22T14:12:06.333Z</time></trkpt><trkpt lat="43.082275" lon="13.0103483"><ele>724.8000000000001</ele><time>2026-03-22T14:12:07.341Z</time></trkpt><trkpt lat="43.0821617" lon="13.0103017"><ele>725.6</ele><time>2026-03-22T14:12:08.366Z</time></trkpt><trkpt lat="43.0820617" lon="13.010265"><ele>726.4</ele><time>2026-03-22T14:12:09.335Z</time></trkpt><trkpt lat="43.0819633" lon="13.01025"><ele>727.2</ele><time>2026-03-22T14:12:10.335Z</time></trkpt><trkpt lat="43.0818717" lon="13.01021"><ele>728.0</ele><time>2026-03-22T14:12:11.348Z</time></trkpt><trkpt lat="43.08179" lon="13.01022"><ele>728.0</ele><time>2026-03-22T14:12:12.358Z</time></trkpt><trkpt lat="43.081695" lon="13.0102283"><ele>728.0</ele><time>2026-03-22T14:12:13.365Z</time></trkpt><trkpt lat="43.0816" lon="13.010245"><ele>728.0</ele><time>2026-03-22T14:12:14.384Z</time></trkpt><trkpt lat="43.0815217" lon="13.0102683"><ele>728.0</ele><time>2026-03-22T14:12:15.358Z</time></trkpt><trkpt lat="43.081455" lon="13.0102817"><ele>728.0</ele><time>2026-03-22T14:12:16.343Z</time></trkpt><trkpt lat="43.0813767" lon="13.01032"><ele>728.0</ele><time>2026-03-22T14:12:18.355Z</time></trkpt><trkpt lat="43.0813233" lon="13.0103717"><ele>728.2</ele><time>2026-03-22T14:12:19.364Z</time></trkpt><trkpt lat="43.0812867" lon="13.0104683"><ele>728.4</ele><time>2026-03-22T14:12:20.382Z</time></trkpt><trkpt lat="43.0812417" lon="13.0105817"><ele>728.6</ele><time>2026-03-22T14:12:21.36Z</time></trkpt><trkpt lat="43.0812033" lon="13.0107133"><ele>728.8000000000001</ele><time>2026-03-22T14:12:22.338Z</time></trkpt><trkpt lat="43.0811617" lon="13.010815"><ele>729.0</ele><time>2026-03-22T14:12:23.364Z</time></trkpt><trkpt lat="43.0811" lon="13.0109133"><ele>730.0</ele><time>2026-03-22T14:12:24.359Z</time></trkpt><trkpt lat="43.0810267" lon="13.01101"><ele>731.0</ele><time>2026-03-22T14:12:25.339Z</time></trkpt><trkpt lat="43.08095" lon="13.0111217"><ele>732.0</ele><time>2026-03-22T14:12:26.417Z</time></trkpt><trkpt lat="43.0808817" lon="13.0112283"><ele>733.0</ele><time>2026-03-22T14:12:27.349Z</time></trkpt><trkpt lat="43.080825" lon="13.01132"><ele>734.0</ele><time>2026-03-22T14:12:28.342Z</time></trkpt><trkpt lat="43.0807683" lon="13.011385"><ele>734.5</ele><time>2026-03-22T14:12:29.362Z</time></trkpt><trkpt lat="43.0807133" lon="13.01145"><ele>735.0</ele><time>2026-03-22T14:12:30.37Z</time></trkpt><trkpt lat="43.0806367" lon="13.01151"><ele>735.5</ele><time>2026-03-22T14:12:31.365Z</time></trkpt><trkpt lat="43.0805567" lon="13.011565"><ele>736.0</ele><time>2026-03-22T14:12:32.412Z</time></trkpt><trkpt lat="43.0804717" lon="13.0116183"><ele>736.5</ele><time>2026-03-22T14:12:33.355Z</time></trkpt><trkpt lat="43.0803767" lon="13.0116683"><ele>737.0</ele><time>2026-03-22T14:12:34.344Z</time></trkpt><trkpt lat="43.0802867" lon="13.0117233"><ele>737.0</ele><time>2026-03-22T14:12:35.359Z</time></trkpt><trkpt lat="43.0801967" lon="13.0117783"><ele>737.0</ele><time>2026-03-22T14:12:36.375Z</time></trkpt><trkpt lat="43.0801083" lon="13.0118333"><ele>737.0</ele><time>2026-03-22T14:12:37.36Z</time></trkpt><trkpt lat="43.0800267" lon="13.0118883"><ele>737.0</ele><time>2026-03-22T14:12:38.392Z</time></trkpt><trkpt lat="43.0799383" lon="13.011935"><ele>737.0</ele><time>2026-03-22T14:12:39.363Z</time></trkpt><trkpt lat="43.0798467" lon="13.0119867"><ele>735.4000000000001</ele><time>2026-03-22T14:12:40.353Z</time></trkpt><trkpt lat="43.0797533" lon="13.0120433"><ele>733.8000000000001</ele><time>2026-03-22T14:12:41.357Z</time></trkpt><trkpt lat="43.079665" lon="13.0120967"><ele>732.2</ele><time>2026-03-22T14:12:42.351Z</time></trkpt><trkpt lat="43.079585" lon="13.0121533"><ele>730.6</ele><time>2026-03-22T14:12:43.363Z</time></trkpt><trkpt lat="43.0795117" lon="13.012225"><ele>729.0</ele><time>2026-03-22T14:12:44.394Z</time></trkpt><trkpt lat="43.0794383" lon="13.01232"><ele>729.0</ele><time>2026-03-22T14:12:45.358Z</time></trkpt><trkpt lat="43.0793683" lon="13.0124133"><ele>729.0</ele><time>2026-03-22T14:12:46.35Z</time></trkpt><trkpt lat="43.0793067" lon="13.0124983"><ele>729.0</ele><time>2026-03-22T14:12:47.36Z</time></trkpt><trkpt lat="43.0792433" lon="13.0125567"><ele>729.0</ele><time>2026-03-22T14:12:48.355Z</time></trkpt><trkpt lat="43.0791717" lon="13.0125783"><ele>729.0</ele><time>2026-03-22T14:12:49.344Z</time></trkpt><trkpt lat="43.0790383" lon="13.0126083"><ele>737.0</ele><time>2026-03-22T14:12:51.342Z</time></trkpt><trkpt lat="43.07896" lon="13.012625"><ele>745.0</ele><time>2026-03-22T14:12:52.363Z</time></trkpt><trkpt lat="43.0788683" lon="13.01263"><ele>753.0</ele><time>2026-03-22T14:12:53.362Z</time></trkpt><trkpt lat="43.078775" lon="13.0126167"><ele>761.0</ele><time>2026-03-22T14:12:54.362Z</time></trkpt><trkpt lat="43.0786833" lon="13.0125833"><ele>769.0</ele><time>2026-03-22T14:12:55.359Z</time></trkpt><trkpt lat="43.0785883" lon="13.0125367"><ele>765.6</ele><time>2026-03-22T14:12:56.422Z</time></trkpt><trkpt lat="43.0785067" lon="13.0124733"><ele>762.2</ele><time>2026-03-22T14:12:57.36Z</time></trkpt><trkpt lat="43.07842" lon="13.0124033"><ele>758.8000000000001</ele><time>2026-03-22T14:12:58.369Z</time></trkpt><trkpt lat="43.078345" lon="13.01234"><ele>755.4000000000001</ele><time>2026-03-22T14:12:59.37Z</time></trkpt><trkpt lat="43.0782683" lon="13.0122917"><ele>752.0</ele><time>2026-03-22T14:13:00.367Z</time></trkpt><trkpt lat="43.078185" lon="13.0122667"><ele>752.0</ele><time>2026-03-22T14:13:01.367Z</time></trkpt><trkpt lat="43.0781" lon="13.0122567"><ele>752.0</ele><time>2026-03-22T14:13:02.412Z</time></trkpt><trkpt lat="43.0780167" lon="13.0122483"><ele>752.0</ele><time>2026-03-22T14:13:03.354Z</time></trkpt><trkpt lat="43.0779383" lon="13.0122367"><ele>752.0</ele><time>2026-03-22T14:13:04.376Z</time></trkpt><trkpt lat="43.0778633" lon="13.012235"><ele>752.0</ele><time>2026-03-22T14:13:05.347Z</time></trkpt><trkpt lat="43.0777917" lon="13.012235"><ele>752.0</ele><time>2026-03-22T14:13:06.341Z</time></trkpt><trkpt lat="43.07772" lon="13.012235"><ele>752.0</ele><time>2026-03-22T14:13:07.347Z</time></trkpt><trkpt lat="43.0776483" lon="13.0122317"><ele>752.0</ele><time>2026-03-22T14:13:08.365Z</time></trkpt><trkpt lat="43.077585" lon="13.012215"><ele>752.0</ele><time>2026-03-22T14:13:09.348Z</time></trkpt><trkpt lat="43.077515" lon="13.0122"><ele>752.0</ele><time>2026-03-22T14:13:10.355Z</time></trkpt><trkpt lat="43.07744" lon="13.0121967"><ele>752.0</ele><time>2026-03-22T14:13:11.339Z</time></trkpt><trkpt lat="43.077375" lon="13.0121917"><ele>752.0</ele><time>2026-03-22T14:13:12.34Z</time></trkpt><trkpt lat="43.0772717" lon="13.0121983"><ele>751.2</ele><time>2026-03-22T14:13:14.389Z</time></trkpt><trkpt lat="43.0771817" lon="13.0122433"><ele>750.4000000000001</ele><time>2026-03-22T14:13:16.333Z</time></trkpt><trkpt lat="43.0770733" lon="13.0123333"><ele>749.5999999999999</ele><time>2026-03-22T14:13:18.355Z</time></trkpt><trkpt lat="43.0770083" lon="13.01239"><ele>748.8</ele><time>2026-03-22T14:13:19.35Z</time></trkpt><trkpt lat="43.0769383" lon="13.0124617"><ele>748.0</ele><time>2026-03-22T14:13:20.394Z</time></trkpt><trkpt lat="43.076875" lon="13.0125283"><ele>751.8333333333334</ele><time>2026-03-22T14:13:21.363Z</time></trkpt><trkpt lat="43.0768317" lon="13.0125933"><ele>755.6666666666667</ele><time>2026-03-22T14:13:22.336Z</time></trkpt><trkpt lat="43.0768233" lon="13.0127"><ele>759.5</ele><time>2026-03-22T14:13:24.349Z</time></trkpt><trkpt lat="43.07685" lon="13.0128017"><ele>763.3333333333334</ele><time>2026-03-22T14:13:26.412Z</time></trkpt><trkpt lat="43.0768583" lon="13.01293"><ele>767.1666666666666</ele><time>2026-03-22T14:13:28.346Z</time></trkpt><trkpt lat="43.0768967" lon="13.0130533"><ele>771.0</ele><time>2026-03-22T14:13:30.353Z</time></trkpt><trkpt lat="43.0769533" lon="13.013115"><ele>771.0</ele><time>2026-03-22T14:13:32.433Z</time></trkpt><trkpt lat="43.0770217" lon="13.0131533"><ele>771.0</ele><time>2026-03-22T14:13:34.361Z</time></trkpt><trkpt lat="43.07708" lon="13.0132333"><ele>771.0</ele><time>2026-03-22T14:13:38.379Z</time></trkpt><trkpt lat="43.0771233" lon="13.0133383"><ele>771.0</ele><time>2026-03-22T14:13:41.358Z</time></trkpt><trkpt lat="43.077205" lon="13.0134217"><ele>771.0</ele><time>2026-03-22T14:13:43.361Z</time></trkpt><trkpt lat="43.0772967" lon="13.013505"><ele>774.3333333333334</ele><time>2026-03-22T14:13:45.357Z</time></trkpt><trkpt lat="43.0773717" lon="13.013595"><ele>777.6666666666667</ele><time>2026-03-22T14:13:47.365Z</time></trkpt><trkpt lat="43.0774367" lon="13.0136767"><ele>781.0</ele><time>2026-03-22T14:13:49.363Z</time></trkpt><trkpt lat="43.0774683" lon="13.0137683"><ele>784.3333333333334</ele><time>2026-03-22T14:13:51.352Z</time></trkpt><trkpt lat="43.0774717" lon="13.0138917"><ele>787.6666666666667</ele><time>2026-03-22T14:13:53.358Z</time></trkpt><trkpt lat="43.07749" lon="13.0139883"><ele>791.0</ele><time>2026-03-22T14:13:55.358Z</time></trkpt><trkpt lat="43.0775417" lon="13.0140567"><ele>792.1666666666667</ele><time>2026-03-22T14:13:57.373Z</time></trkpt><trkpt lat="43.0776233" lon="13.014115"><ele>793.3333333333334</ele><time>2026-03-22T14:13:59.348Z</time></trkpt><trkpt lat="43.0777167" lon="13.0141917"><ele>794.5</ele><time>2026-03-22T14:14:01.357Z</time></trkpt><trkpt lat="43.0777833" lon="13.0143117"><ele>795.6666666666667</ele><time>2026-03-22T14:14:03.356Z</time></trkpt><trkpt lat="43.0778183" lon="13.014385"><ele>796.8333333333334</ele><time>2026-03-22T14:14:04.363Z</time></trkpt><trkpt lat="43.0778583" lon="13.014465"><ele>798.0</ele><time>2026-03-22T14:14:05.373Z</time></trkpt><trkpt lat="43.0778967" lon="13.014535"><ele>799.7142857142857</ele><time>2026-03-22T14:14:06.368Z</time></trkpt><trkpt lat="43.07794" lon="13.014605"><ele>801.4285714285714</ele><time>2026-03-22T14:14:07.373Z</time></trkpt><trkpt lat="43.0779767" lon="13.0146767"><ele>803.1428571428571</ele><time>2026-03-22T14:14:08.379Z</time></trkpt><trkpt lat="43.078005" lon="13.014755"><ele>804.8571428571429</ele><time>2026-03-22T14:14:09.36Z</time></trkpt><trkpt lat="43.0780217" lon="13.0148433"><ele>806.5714285714286</ele><time>2026-03-22T14:14:10.368Z</time></trkpt><trkpt lat="43.0780233" lon="13.0149367"><ele>808.2857142857142</ele><time>2026-03-22T14:14:11.369Z</time></trkpt><trkpt lat="43.078025" lon="13.015025"><ele>810.0</ele><time>2026-03-22T14:14:12.364Z</time></trkpt><trkpt lat="43.07806" lon="13.0151667"><ele>810.5</ele><time>2026-03-22T14:14:14.391Z</time></trkpt><trkpt lat="43.0781383" lon="13.0152983"><ele>811.0</ele><time>2026-03-22T14:14:16.366Z</time></trkpt><trkpt lat="43.0781767" lon="13.01537"><ele>811.5</ele><time>2026-03-22T14:14:17.366Z</time></trkpt><trkpt lat="43.0782233" lon="13.0154383"><ele>812.0</ele><time>2026-03-22T14:14:18.358Z</time></trkpt><trkpt lat="43.0782833" lon="13.0155"><ele>812.5</ele><time>2026-03-22T14:14:19.355Z</time></trkpt><trkpt lat="43.0783517" lon="13.0155533"><ele>813.0</ele><time>2026-03-22T14:14:20.391Z</time></trkpt><trkpt lat="43.07841" lon="13.015605"><ele>814.1666666666666</ele><time>2026-03-22T14:14:21.356Z</time></trkpt><trkpt lat="43.07847" lon="13.0156633"><ele>815.3333333333333</ele><time>2026-03-22T14:14:22.359Z</time></trkpt><trkpt lat="43.0785133" lon="13.0157367"><ele>816.5</ele><time>2026-03-22T14:14:23.354Z</time></trkpt><trkpt lat="43.0785517" lon="13.015815"><ele>817.6666666666666</ele><time>2026-03-22T14:14:24.359Z</time></trkpt><trkpt lat="43.07858" lon="13.0158967"><ele>818.8333333333333</ele><time>2026-03-22T14:14:25.358Z</time></trkpt><trkpt lat="43.0786367" lon="13.01604"><ele>820.0</ele><time>2026-03-22T14:14:27.352Z</time></trkpt><trkpt lat="43.0786767" lon="13.01619"><ele>820.0</ele><time>2026-03-22T14:14:29.362Z</time></trkpt><trkpt lat="43.0786983" lon="13.0163383"><ele>820.0</ele><time>2026-03-22T14:14:31.36Z</time></trkpt><trkpt lat="43.078715" lon="13.016465"><ele>820.0</ele><time>2026-03-22T14:14:33.355Z</time></trkpt><trkpt lat="43.0787683" lon="13.0165767"><ele>820.0</ele><time>2026-03-22T14:14:35.365Z</time></trkpt><trkpt lat="43.07886" lon="13.01669"><ele>820.0</ele><time>2026-03-22T14:14:37.353Z</time></trkpt><trkpt lat="43.07891" lon="13.016765"><ele>819.8333333333333</ele><time>2026-03-22T14:14:38.396Z</time></trkpt><trkpt lat="43.07896" lon="13.0168433"><ele>819.6666666666666</ele><time>2026-03-22T14:14:39.366Z</time></trkpt><trkpt lat="43.079" lon="13.016945"><ele>819.5</ele><time>2026-03-22T14:14:40.372Z</time></trkpt><trkpt lat="43.0790383" lon="13.0170467"><ele>819.3333333333333</ele><time>2026-03-22T14:14:41.365Z</time></trkpt><trkpt lat="43.0790683" lon="13.0171467"><ele>819.1666666666666</ele><time>2026-03-22T14:14:42.371Z</time></trkpt><trkpt lat="43.0791083" lon="13.017245"><ele>819.0</ele><time>2026-03-22T14:14:43.352Z</time></trkpt><trkpt lat="43.079155" lon="13.017335"><ele>819.0</ele><time>2026-03-22T14:14:44.379Z</time></trkpt><trkpt lat="43.079205" lon="13.0174183"><ele>819.0</ele><time>2026-03-22T14:14:45.353Z</time></trkpt><trkpt lat="43.07925" lon="13.0175"><ele>819.0</ele><time>2026-03-22T14:14:46.38Z</time></trkpt><trkpt lat="43.0792817" lon="13.0175783"><ele>819.0</ele><time>2026-03-22T14:14:47.373Z</time></trkpt><trkpt lat="43.0793017" lon="13.017745"><ele>819.0</ele><time>2026-03-22T14:14:49.377Z</time></trkpt><trkpt lat="43.0792917" lon="13.0178867"><ele>819.0</ele><time>2026-03-22T14:14:51.379Z</time></trkpt><trkpt lat="43.0792833" lon="13.0180133"><ele>814.8333333333334</ele><time>2026-03-22T14:14:53.367Z</time></trkpt><trkpt lat="43.0793033" lon="13.01811"><ele>810.6666666666667</ele><time>2026-03-22T14:14:55.358Z</time></trkpt><trkpt lat="43.07934" lon="13.0182183"><ele>806.5</ele><time>2026-03-22T14:14:57.358Z</time></trkpt><trkpt lat="43.0793733" lon="13.018295"><ele>802.3333333333334</ele><time>2026-03-22T14:14:58.361Z</time></trkpt><trkpt lat="43.079415" lon="13.01837"><ele>798.1666666666667</ele><time>2026-03-22T14:14:59.36Z</time></trkpt><trkpt lat="43.0794567" lon="13.0184417"><ele>794.0</ele><time>2026-03-22T14:15:00.369Z</time></trkpt><trkpt lat="43.0795417" lon="13.0185683"><ele>788.25</ele><time>2026-03-22T14:15:02.429Z</time></trkpt><trkpt lat="43.0796317" lon="13.018675"><ele>782.5</ele><time>2026-03-22T14:15:04.365Z</time></trkpt><trkpt lat="43.0797183" lon="13.01879"><ele>776.75</ele><time>2026-03-22T14:15:06.36Z</time></trkpt><trkpt lat="43.0797917" lon="13.0189183"><ele>771.0</ele><time>2026-03-22T14:15:08.396Z</time></trkpt><trkpt lat="43.07985" lon="13.01908"><ele>771.0</ele><time>2026-03-22T14:15:10.348Z</time></trkpt><trkpt lat="43.079875" lon="13.0191833"><ele>771.0</ele><time>2026-03-22T14:15:11.374Z</time></trkpt><trkpt lat="43.0798967" lon="13.0192883"><ele>771.0</ele><time>2026-03-22T14:15:12.367Z</time></trkpt><trkpt lat="43.0799183" lon="13.01939"><ele>771.0</ele><time>2026-03-22T14:15:13.357Z</time></trkpt><trkpt lat="43.0799383" lon="13.019495"><ele>771.0</ele><time>2026-03-22T14:15:14.383Z</time></trkpt><trkpt lat="43.0799583" lon="13.019595"><ele>771.0</ele><time>2026-03-22T14:15:15.359Z</time></trkpt><trkpt lat="43.0799783" lon="13.019685"><ele>771.0</ele><time>2026-03-22T14:15:16.356Z</time></trkpt><trkpt lat="43.08002" lon="13.0198267"><ele>771.0</ele><time>2026-03-22T14:15:18.371Z</time></trkpt><trkpt lat="43.0800817" lon="13.0199667"><ele>771.0</ele><time>2026-03-22T14:15:20.382Z</time></trkpt><trkpt lat="43.0801283" lon="13.0200417"><ele>771.0</ele><time>2026-03-22T14:15:21.354Z</time></trkpt><trkpt lat="43.0801717" lon="13.0201217"><ele>771.0</ele><time>2026-03-22T14:15:22.357Z</time></trkpt><trkpt lat="43.0802333" lon="13.0202167"><ele>766.0</ele><time>2026-03-22T14:15:23.357Z</time></trkpt><trkpt lat="43.08028" lon="13.0202983"><ele>761.0</ele><time>2026-03-22T14:15:24.358Z</time></trkpt><trkpt lat="43.0803633" lon="13.0203733"><ele>756.0</ele><time>2026-03-22T14:15:25.366Z</time></trkpt><trkpt lat="43.08047" lon="13.0204433"><ele>751.0</ele><time>2026-03-22T14:15:26.421Z</time></trkpt><trkpt lat="43.0805883" lon="13.02052"><ele>746.0</ele><time>2026-03-22T14:15:27.361Z</time></trkpt><trkpt lat="43.0807033" lon="13.0206"><ele>745.8</ele><time>2026-03-22T14:15:28.368Z</time></trkpt><trkpt lat="43.0808083" lon="13.0206717"><ele>745.5999999999999</ele><time>2026-03-22T14:15:29.361Z</time></trkpt><trkpt lat="43.0809033" lon="13.0207333"><ele>745.4</ele><time>2026-03-22T14:15:30.361Z</time></trkpt><trkpt lat="43.0809817" lon="13.020785"><ele>745.2</ele><time>2026-03-22T14:15:31.355Z</time></trkpt><trkpt lat="43.0810817" lon="13.020855"><ele>745.0</ele><time>2026-03-22T14:15:33.338Z</time></trkpt><trkpt lat="43.0811683" lon="13.0209533"><ele>745.0</ele><time>2026-03-22T14:15:35.359Z</time></trkpt><trkpt lat="43.08122" lon="13.0210233"><ele>745.0</ele><time>2026-03-22T14:15:36.363Z</time></trkpt><trkpt lat="43.08127" lon="13.0210983"><ele>745.0</ele><time>2026-03-22T14:15:37.376Z</time></trkpt><trkpt lat="43.0813217" lon="13.0211767"><ele>745.0</ele><time>2026-03-22T14:15:38.393Z</time></trkpt><trkpt lat="43.0813717" lon="13.0212533"><ele>745.0</ele><time>2026-03-22T14:15:39.366Z</time></trkpt><trkpt lat="43.0814167" lon="13.0213183"><ele>745.0</ele><time>2026-03-22T14:15:40.34Z</time></trkpt><trkpt lat="43.081495" lon="13.0214267"><ele>745.0</ele><time>2026-03-22T14:15:42.346Z</time></trkpt><trkpt lat="43.0815517" lon="13.02153"><ele>745.0</ele><time>2026-03-22T14:15:44.376Z</time></trkpt><trkpt lat="43.081595" lon="13.02166"><ele>745.0</ele><time>2026-03-22T14:15:46.363Z</time></trkpt><trkpt lat="43.0816183" lon="13.0217483"><ele>745.0</ele><time>2026-03-22T14:15:47.368Z</time></trkpt><trkpt lat="43.08164" lon="13.0218467"><ele>745.0</ele><time>2026-03-22T14:15:48.359Z</time></trkpt><trkpt lat="43.0816433" lon="13.02197"><ele>745.0</ele><time>2026-03-22T14:15:49.367Z</time></trkpt><trkpt lat="43.081645" lon="13.0220967"><ele>745.5</ele><time>2026-03-22T14:15:50.393Z</time></trkpt><trkpt lat="43.08163" lon="13.0222267"><ele>746.0</ele><time>2026-03-22T14:15:51.329Z</time></trkpt><trkpt lat="43.0816183" lon="13.02235"><ele>746.5</ele><time>2026-03-22T14:15:52.374Z</time></trkpt><trkpt lat="43.0816067" lon="13.0224717"><ele>747.0</ele><time>2026-03-22T14:15:53.347Z</time></trkpt><trkpt lat="43.0815983" lon="13.0225883"><ele>747.5</ele><time>2026-03-22T14:15:54.35Z</time></trkpt><trkpt lat="43.0815917" lon="13.0226967"><ele>748.0</ele><time>2026-03-22T14:15:55.354Z</time></trkpt><trkpt lat="43.0815833" lon="13.0227933"><ele>740.5</ele><time>2026-03-22T14:15:56.389Z</time></trkpt><trkpt lat="43.0815767" lon="13.0229"><ele>733.0</ele><time>2026-03-22T14:15:57.345Z</time></trkpt><trkpt lat="43.08157" lon="13.0230133"><ele>725.5</ele><time>2026-03-22T14:15:58.371Z</time></trkpt><trkpt lat="43.0815717" lon="13.0231367"><ele>718.0</ele><time>2026-03-22T14:15:59.369Z</time></trkpt><trkpt lat="43.0815717" lon="13.0232633"><ele>710.5</ele><time>2026-03-22T14:16:00.365Z</time></trkpt><trkpt lat="43.0815667" lon="13.023385"><ele>703.0</ele><time>2026-03-22T14:16:01.337Z</time></trkpt><trkpt lat="43.0815667" lon="13.0235017"><ele>700.8333333333334</ele><time>2026-03-22T14:16:02.408Z</time></trkpt><trkpt lat="43.0815633" lon="13.023615"><ele>698.6666666666667</ele><time>2026-03-22T14:16:03.33Z</time></trkpt><trkpt lat="43.0815683" lon="13.0237217"><ele>696.5</ele><time>2026-03-22T14:16:04.353Z</time></trkpt><trkpt lat="43.081565" lon="13.0238317"><ele>694.3333333333334</ele><time>2026-03-22T14:16:05.36Z</time></trkpt><trkpt lat="43.0815617" lon="13.023935"><ele>692.1666666666666</ele><time>2026-03-22T14:16:06.365Z</time></trkpt><trkpt lat="43.081585" lon="13.0240383"><ele>690.0</ele><time>2026-03-22T14:16:07.362Z</time></trkpt><trkpt lat="43.0815983" lon="13.0241433"><ele>690.8333333333334</ele><time>2026-03-22T14:16:08.387Z</time></trkpt><trkpt lat="43.08161" lon="13.02425"><ele>691.6666666666666</ele><time>2026-03-22T14:16:09.341Z</time></trkpt><trkpt lat="43.0816083" lon="13.0243583"><ele>692.5</ele><time>2026-03-22T14:16:10.362Z</time></trkpt><trkpt lat="43.08159" lon="13.02445"><ele>693.3333333333333</ele><time>2026-03-22T14:16:11.346Z</time></trkpt><trkpt lat="43.0815033" lon="13.024555"><ele>694.1666666666666</ele><time>2026-03-22T14:16:13.363Z</time></trkpt><trkpt lat="43.0814283" lon="13.024565"><ele>695.0</ele><time>2026-03-22T14:16:14.379Z</time></trkpt><trkpt lat="43.08134" lon="13.0245567"><ele>691.3333333333333</ele><time>2026-03-22T14:16:15.351Z</time></trkpt><trkpt lat="43.0812617" lon="13.024575"><ele>687.6666666666666</ele><time>2026-03-22T14:16:16.366Z</time></trkpt><trkpt lat="43.081195" lon="13.0246233"><ele>684.0</ele><time>2026-03-22T14:16:17.368Z</time></trkpt><trkpt lat="43.081135" lon="13.024695"><ele>680.3333333333334</ele><time>2026-03-22T14:16:18.365Z</time></trkpt><trkpt lat="43.0810767" lon="13.024785"><ele>676.6666666666667</ele><time>2026-03-22T14:16:19.356Z</time></trkpt><trkpt lat="43.0810267" lon="13.024885"><ele>673.0</ele><time>2026-03-22T14:16:20.407Z</time></trkpt><trkpt lat="43.0809883" lon="13.0249917"><ele>671.5</ele><time>2026-03-22T14:16:21.345Z</time></trkpt><trkpt lat="43.080955" lon="13.0251033"><ele>670.0</ele><time>2026-03-22T14:16:22.355Z</time></trkpt><trkpt lat="43.0809117" lon="13.0252017"><ele>668.5</ele><time>2026-03-22T14:16:23.361Z</time></trkpt><trkpt lat="43.0808533" lon="13.02528"><ele>667.0</ele><time>2026-03-22T14:16:24.371Z</time></trkpt><trkpt lat="43.0807833" lon="13.0253333"><ele>665.5</ele><time>2026-03-22T14:16:25.368Z</time></trkpt><trkpt lat="43.0807083" lon="13.02534"><ele>664.0</ele><time>2026-03-22T14:16:26.423Z</time></trkpt><trkpt lat="43.080645" lon="13.0253383"><ele>661.6666666666667</ele><time>2026-03-22T14:16:27.356Z</time></trkpt><trkpt lat="43.08059" lon="13.025405"><ele>659.3333333333334</ele><time>2026-03-22T14:16:30.367Z</time></trkpt><trkpt lat="43.080535" lon="13.0254483"><ele>657.0</ele><time>2026-03-22T14:16:35.361Z</time></trkpt><trkpt lat="43.0804617" lon="13.0254033"><ele>654.6666666666666</ele><time>2026-03-22T14:16:37.368Z</time></trkpt><trkpt lat="43.0803983" lon="13.025325"><ele>652.3333333333333</ele><time>2026-03-22T14:16:39.357Z</time></trkpt><trkpt lat="43.0803433" lon="13.0252367"><ele>650.0</ele><time>2026-03-22T14:16:42.353Z</time></trkpt><trkpt lat="43.08029" lon="13.025165"><ele>650.0</ele><time>2026-03-22T14:16:46.359Z</time></trkpt><trkpt lat="43.0803517" lon="13.0252817"><ele>650.0</ele><time>2026-03-22T14:16:51.36Z</time></trkpt><trkpt lat="43.0804117" lon="13.025365"><ele>650.0</ele><time>2026-03-22T14:16:52.358Z</time></trkpt><trkpt lat="43.0804767" lon="13.0254233"><ele>650.0</ele><time>2026-03-22T14:16:53.362Z</time></trkpt><trkpt lat="43.0805533" lon="13.0254617"><ele>650.0</ele><time>2026-03-22T14:16:54.369Z</time></trkpt><trkpt lat="43.0806367" lon="13.0254667"><ele>650.0</ele><time>2026-03-22T14:16:55.358Z</time></trkpt><trkpt lat="43.0807117" lon="13.02547"><ele>651.0</ele><time>2026-03-22T14:16:56.428Z</time></trkpt><trkpt lat="43.0807833" lon="13.0254783"><ele>652.0</ele><time>2026-03-22T14:16:57.346Z</time></trkpt><trkpt lat="43.0808533" lon="13.025505"><ele>653.0</ele><time>2026-03-22T14:16:58.352Z</time></trkpt><trkpt lat="43.0809183" lon="13.0255583"><ele>654.0</ele><time>2026-03-22T14:16:59.371Z</time></trkpt><trkpt lat="43.0809683" lon="13.0256267"><ele>655.0</ele><time>2026-03-22T14:17:00.364Z</time></trkpt><trkpt lat="43.08101" lon="13.0257"><ele>656.0</ele><time>2026-03-22T14:17:01.362Z</time></trkpt><trkpt lat="43.0810267" lon="13.0257833"><ele>657.0</ele><time>2026-03-22T14:17:02.414Z</time></trkpt><trkpt lat="43.08101" lon="13.0258783"><ele>657.0</ele><time>2026-03-22T14:17:03.357Z</time></trkpt><trkpt lat="43.0809717" lon="13.0259967"><ele>657.0</ele><time>2026-03-22T14:17:04.37Z</time></trkpt><trkpt lat="43.080945" lon="13.0261217"><ele>657.0</ele><time>2026-03-22T14:17:05.347Z</time></trkpt><trkpt lat="43.0809317" lon="13.02624"><ele>657.0</ele><time>2026-03-22T14:17:06.364Z</time></trkpt><trkpt lat="43.0809167" lon="13.0263517"><ele>657.0</ele><time>2026-03-22T14:17:07.36Z</time></trkpt><trkpt lat="43.0809033" lon="13.0264533"><ele>657.0</ele><time>2026-03-22T14:17:08.39Z</time></trkpt><trkpt lat="43.08088" lon="13.026555"><ele>658.0</ele><time>2026-03-22T14:17:09.36Z</time></trkpt><trkpt lat="43.08085" lon="13.02665"><ele>659.0</ele><time>2026-03-22T14:17:10.371Z</time></trkpt><trkpt lat="43.0808217" lon="13.0267417"><ele>660.0</ele><time>2026-03-22T14:17:11.361Z</time></trkpt><trkpt lat="43.0807867" lon="13.02683"><ele>661.0</ele><time>2026-03-22T14:17:12.361Z</time></trkpt><trkpt lat="43.0807533" lon="13.02692"><ele>662.0</ele><time>2026-03-22T14:17:13.378Z</time></trkpt><trkpt lat="43.0807217" lon="13.02702"><ele>663.0</ele><time>2026-03-22T14:17:14.393Z</time></trkpt><trkpt lat="43.080695" lon="13.027125"><ele>656.3333333333334</ele><time>2026-03-22T14:17:15.362Z</time></trkpt><trkpt lat="43.0806667" lon="13.02723"><ele>649.6666666666666</ele><time>2026-03-22T14:17:16.365Z</time></trkpt><trkpt lat="43.08064" lon="13.0273367"><ele>643.0</ele><time>2026-03-22T14:17:17.363Z</time></trkpt><trkpt lat="43.0806167" lon="13.0274433"><ele>636.3333333333333</ele><time>2026-03-22T14:17:18.359Z</time></trkpt><trkpt lat="43.0806" lon="13.027545"><ele>629.6666666666666</ele><time>2026-03-22T14:17:19.358Z</time></trkpt><trkpt lat="43.0805933" lon="13.0276383"><ele>623.0</ele><time>2026-03-22T14:17:20.395Z</time></trkpt><trkpt lat="43.0805883" lon="13.027725"><ele>621.5</ele><time>2026-03-22T14:17:21.356Z</time></trkpt><trkpt lat="43.0805833" lon="13.0278917"><ele>620.0</ele><time>2026-03-22T14:17:23.353Z</time></trkpt><trkpt lat="43.0805767" lon="13.027985"><ele>618.5</ele><time>2026-03-22T14:17:24.356Z</time></trkpt><trkpt lat="43.0805683" lon="13.0280917"><ele>617.0</ele><time>2026-03-22T14:17:25.365Z</time></trkpt><trkpt lat="43.0805617" lon="13.02821"><ele>615.5</ele><time>2026-03-22T14:17:26.425Z</time></trkpt><trkpt lat="43.0805517" lon="13.0283333"><ele>614.0</ele><time>2026-03-22T14:17:27.358Z</time></trkpt><trkpt lat="43.0805417" lon="13.0284617"><ele>613.6</ele><time>2026-03-22T14:17:28.366Z</time></trkpt><trkpt lat="43.0805267" lon="13.02859"><ele>613.2</ele><time>2026-03-22T14:17:29.36Z</time></trkpt><trkpt lat="43.08051" lon="13.0287133"><ele>612.8000000000001</ele><time>2026-03-22T14:17:30.366Z</time></trkpt><trkpt lat="43.0804967" lon="13.028835"><ele>612.4</ele><time>2026-03-22T14:17:31.347Z</time></trkpt><trkpt lat="43.0804867" lon="13.0289583"><ele>612.0</ele><time>2026-03-22T14:17:32.421Z</time></trkpt><trkpt lat="43.0804767" lon="13.0290883"><ele>612.6</ele><time>2026-03-22T14:17:33.355Z</time></trkpt><trkpt lat="43.0804633" lon="13.0292217"><ele>613.2</ele><time>2026-03-22T14:17:34.363Z</time></trkpt><trkpt lat="43.0804483" lon="13.02936"><ele>613.8</ele><time>2026-03-22T14:17:35.365Z</time></trkpt><trkpt lat="43.0804283" lon="13.0294983"><ele>614.4</ele><time>2026-03-22T14:17:36.366Z</time></trkpt><trkpt lat="43.0804033" lon="13.0296367"><ele>615.0</ele><time>2026-03-22T14:17:37.364Z</time></trkpt><trkpt lat="43.08039" lon="13.0297767"><ele>615.0</ele><time>2026-03-22T14:17:38.388Z</time></trkpt><trkpt lat="43.0803883" lon="13.0299233"><ele>615.0</ele><time>2026-03-22T14:17:39.36Z</time></trkpt><trkpt lat="43.080375" lon="13.0300717"><ele>615.0</ele><time>2026-03-22T14:17:40.368Z</time></trkpt><trkpt lat="43.0803633" lon="13.0302317"><ele>615.0</ele><time>2026-03-22T14:17:41.367Z</time></trkpt><trkpt lat="43.0803567" lon="13.030405"><ele>615.8</ele><time>2026-03-22T14:17:42.369Z</time></trkpt><trkpt lat="43.0803383" lon="13.030575"><ele>616.6</ele><time>2026-03-22T14:17:43.361Z</time></trkpt><trkpt lat="43.08032" lon="13.0307317"><ele>617.4</ele><time>2026-03-22T14:17:44.405Z</time></trkpt><trkpt lat="43.0802967" lon="13.03087"><ele>618.2</ele><time>2026-03-22T14:17:45.368Z</time></trkpt><trkpt lat="43.0802667" lon="13.0309917"><ele>619.0</ele><time>2026-03-22T14:17:46.376Z</time></trkpt><trkpt lat="43.0802433" lon="13.0311"><ele>621.0</ele><time>2026-03-22T14:17:47.367Z</time></trkpt><trkpt lat="43.080225" lon="13.0311933"><ele>623.0</ele><time>2026-03-22T14:17:48.366Z</time></trkpt><trkpt lat="43.0802" lon="13.0313417"><ele>625.0</ele><time>2026-03-22T14:17:50.4Z</time></trkpt><trkpt lat="43.0801967" lon="13.031435"><ele>627.0</ele><time>2026-03-22T14:17:52.371Z</time></trkpt><trkpt lat="43.0801567" lon="13.0315183"><ele>629.0</ele><time>2026-03-22T14:17:56.424Z</time></trkpt><trkpt lat="43.080225" lon="13.0315533"><ele>631.0</ele><time>2026-03-22T14:18:02.416Z</time></trkpt><trkpt lat="43.0803133" lon="13.0315317"><ele>631.0</ele><time>2026-03-22T14:18:24.36Z</time></trkpt><trkpt lat="43.0803517" lon="13.03162"><ele>631.0</ele><time>2026-03-22T14:18:26.396Z</time></trkpt><trkpt lat="43.0804217" lon="13.0317533"><ele>631.0</ele><time>2026-03-22T14:18:28.359Z</time></trkpt><trkpt lat="43.0804583" lon="13.0318283"><ele>631.0</ele><time>2026-03-22T14:18:29.352Z</time></trkpt><trkpt lat="43.080535" lon="13.0319417"><ele>631.0</ele><time>2026-03-22T14:18:31.362Z</time></trkpt><trkpt lat="43.0806133" lon="13.0320217"><ele>632.0</ele><time>2026-03-22T14:18:33.353Z</time></trkpt><trkpt lat="43.0806933" lon="13.0320883"><ele>633.0</ele><time>2026-03-22T14:18:35.349Z</time></trkpt><trkpt lat="43.0807533" lon="13.03215"><ele>634.0</ele><time>2026-03-22T14:18:37.358Z</time></trkpt><trkpt lat="43.0808183" lon="13.03223"><ele>635.0</ele><time>2026-03-22T14:18:42.361Z</time></trkpt><trkpt lat="43.0808783" lon="13.0323217"><ele>636.0</ele><time>2026-03-22T14:18:44.382Z</time></trkpt><trkpt lat="43.08094" lon="13.032485"><ele>639.4</ele><time>2026-03-22T14:18:46.357Z</time></trkpt><trkpt lat="43.081005" lon="13.0326033"><ele>642.8</ele><time>2026-03-22T14:18:47.348Z</time></trkpt><trkpt lat="43.0810867" lon="13.0327283"><ele>646.1999999999999</ele><time>2026-03-22T14:18:48.353Z</time></trkpt><trkpt lat="43.0811667" lon="13.0328367"><ele>649.6</ele><time>2026-03-22T14:18:49.35Z</time></trkpt><trkpt lat="43.0812333" lon="13.0329383"><ele>653.0</ele><time>2026-03-22T14:18:50.369Z</time></trkpt><trkpt lat="43.0812983" lon="13.03304"><ele>653.0</ele><time>2026-03-22T14:18:51.354Z</time></trkpt><trkpt lat="43.0813583" lon="13.0331483"><ele>653.0</ele><time>2026-03-22T14:18:52.363Z</time></trkpt><trkpt lat="43.0814017" lon="13.03326"><ele>653.0</ele><time>2026-03-22T14:18:53.351Z</time></trkpt><trkpt lat="43.081435" lon="13.0333867"><ele>653.0</ele><time>2026-03-22T14:18:54.338Z</time></trkpt><trkpt lat="43.08146" lon="13.0335167"><ele>653.0</ele><time>2026-03-22T14:18:55.339Z</time></trkpt><trkpt lat="43.0814717" lon="13.0336417"><ele>646.8333333333333</ele><time>2026-03-22T14:18:56.406Z</time></trkpt><trkpt lat="43.0814817" lon="13.0337633"><ele>640.6666666666666</ele><time>2026-03-22T14:18:57.348Z</time></trkpt><trkpt lat="43.0814717" lon="13.0338783"><ele>634.5</ele><time>2026-03-22T14:18:58.357Z</time></trkpt><trkpt lat="43.0814733" lon="13.03399"><ele>628.3333333333334</ele><time>2026-03-22T14:18:59.361Z</time></trkpt><trkpt lat="43.0814883" lon="13.0341"><ele>622.1666666666667</ele><time>2026-03-22T14:19:00.355Z</time></trkpt><trkpt lat="43.08151" lon="13.0341983"><ele>616.0</ele><time>2026-03-22T14:19:01.359Z</time></trkpt><trkpt lat="43.0815467" lon="13.0342783"><ele>619.6666666666667</ele><time>2026-03-22T14:19:02.404Z</time></trkpt><trkpt lat="43.0816" lon="13.0343633"><ele>623.3333333333334</ele><time>2026-03-22T14:19:03.33Z</time></trkpt><trkpt lat="43.0816617" lon="13.03444"><ele>627.0</ele><time>2026-03-22T14:19:04.354Z</time></trkpt><trkpt lat="43.0817433" lon="13.0345133"><ele>630.6666666666666</ele><time>2026-03-22T14:19:05.35Z</time></trkpt><trkpt lat="43.0818267" lon="13.03458"><ele>634.3333333333333</ele><time>2026-03-22T14:19:06.36Z</time></trkpt><trkpt lat="43.0819" lon="13.0346517"><ele>638.0</ele><time>2026-03-22T14:19:07.357Z</time></trkpt><trkpt lat="43.08196" lon="13.0347217"><ele>638.0</ele><time>2026-03-22T14:19:08.384Z</time></trkpt><trkpt lat="43.0820167" lon="13.03481"><ele>638.0</ele><time>2026-03-22T14:19:09.355Z</time></trkpt><trkpt lat="43.0820733" lon="13.0349017"><ele>638.0</ele><time>2026-03-22T14:19:10.358Z</time></trkpt><trkpt lat="43.08213" lon="13.034995"><ele>638.0</ele><time>2026-03-22T14:19:11.359Z</time></trkpt><trkpt lat="43.0821783" lon="13.0350933"><ele>638.0</ele><time>2026-03-22T14:19:12.356Z</time></trkpt><trkpt lat="43.0822283" lon="13.0351967"><ele>638.0</ele><time>2026-03-22T14:19:13.347Z</time></trkpt><trkpt lat="43.0822817" lon="13.0353017"><ele>636.0</ele><time>2026-03-22T14:19:14.379Z</time></trkpt><trkpt lat="43.0823417" lon="13.0354"><ele>634.0</ele><time>2026-03-22T14:19:15.353Z</time></trkpt><trkpt lat="43.08241" lon="13.0354967"><ele>632.0</ele><time>2026-03-22T14:19:16.357Z</time></trkpt><trkpt lat="43.08248" lon="13.0356"><ele>630.0</ele><time>2026-03-22T14:19:17.36Z</time></trkpt><trkpt lat="43.0825483" lon="13.0357033"><ele>628.0</ele><time>2026-03-22T14:19:18.356Z</time></trkpt><trkpt lat="43.0826217" lon="13.0358"><ele>622.0</ele><time>2026-03-22T14:19:19.356Z</time></trkpt><trkpt lat="43.0827017" lon="13.0358983"><ele>616.0</ele><time>2026-03-22T14:19:20.377Z</time></trkpt><trkpt lat="43.0827817" lon="13.035995"><ele>610.0</ele><time>2026-03-22T14:19:21.354Z</time></trkpt><trkpt lat="43.0828617" lon="13.0360783"><ele>604.0</ele><time>2026-03-22T14:19:22.359Z</time></trkpt><trkpt lat="43.08293" lon="13.0361717"><ele>598.0</ele><time>2026-03-22T14:19:23.35Z</time></trkpt><trkpt lat="43.0829967" lon="13.0362767"><ele>598.0</ele><time>2026-03-22T14:19:24.351Z</time></trkpt><trkpt lat="43.08304" lon="13.0363933"><ele>598.0</ele><time>2026-03-22T14:19:25.365Z</time></trkpt><trkpt lat="43.0830983" lon="13.0365083"><ele>598.0</ele><time>2026-03-22T14:19:26.42Z</time></trkpt><trkpt lat="43.0831567" lon="13.0366133"><ele>598.0</ele><time>2026-03-22T14:19:27.351Z</time></trkpt><trkpt lat="43.0832233" lon="13.0367233"><ele>598.0</ele><time>2026-03-22T14:19:28.353Z</time></trkpt><trkpt lat="43.0832833" lon="13.0368433"><ele>596.0</ele><time>2026-03-22T14:19:29.352Z</time></trkpt><trkpt lat="43.083345" lon="13.036965"><ele>594.0</ele><time>2026-03-22T14:19:30.371Z</time></trkpt><trkpt lat="43.0834067" lon="13.03708"><ele>592.0</ele><time>2026-03-22T14:19:31.358Z</time></trkpt><trkpt lat="43.0834583" lon="13.0371817"><ele>590.0</ele><time>2026-03-22T14:19:32.415Z</time></trkpt><trkpt lat="43.083515" lon="13.03727"><ele>588.0</ele><time>2026-03-22T14:19:33.356Z</time></trkpt><trkpt lat="43.0835733" lon="13.037355"><ele>588.0</ele><time>2026-03-22T14:19:34.341Z</time></trkpt><trkpt lat="43.0836367" lon="13.0374133"><ele>588.0</ele><time>2026-03-22T14:19:35.361Z</time></trkpt><trkpt lat="43.08369" lon="13.03747"><ele>588.0</ele><time>2026-03-22T14:19:36.351Z</time></trkpt><trkpt lat="43.0837717" lon="13.03759"><ele>588.0</ele><time>2026-03-22T14:19:38.379Z</time></trkpt><trkpt lat="43.0837883" lon="13.037675"><ele>588.0</ele><time>2026-03-22T14:19:39.352Z</time></trkpt><trkpt lat="43.0838" lon="13.0377967"><ele>588.0</ele><time>2026-03-22T14:19:40.361Z</time></trkpt><trkpt lat="43.0838117" lon="13.0379167"><ele>582.6</ele><time>2026-03-22T14:19:41.353Z</time></trkpt><trkpt lat="43.0838167" lon="13.038045"><ele>577.1999999999999</ele><time>2026-03-22T14:19:42.346Z</time></trkpt><trkpt lat="43.08382" lon="13.0381767"><ele>571.8</ele><time>2026-03-22T14:19:43.361Z</time></trkpt><trkpt lat="43.0838133" lon="13.03831"><ele>566.4</ele><time>2026-03-22T14:19:44.383Z</time></trkpt><trkpt lat="43.0837967" lon="13.0384467"><ele>561.0</ele><time>2026-03-22T14:19:45.352Z</time></trkpt><trkpt lat="43.0837733" lon="13.038595"><ele>556.4</ele><time>2026-03-22T14:19:46.354Z</time></trkpt><trkpt lat="43.0837517" lon="13.0387433"><ele>551.8</ele><time>2026-03-22T14:19:47.359Z</time></trkpt><trkpt lat="43.0837217" lon="13.0388917"><ele>547.1999999999999</ele><time>2026-03-22T14:19:48.358Z</time></trkpt><trkpt lat="43.0836933" lon="13.0390367"><ele>542.6</ele><time>2026-03-22T14:19:49.358Z</time></trkpt><trkpt lat="43.0836633" lon="13.0391733"><ele>538.0</ele><time>2026-03-22T14:19:50.378Z</time></trkpt><trkpt lat="43.083635" lon="13.039285"><ele>537.1666666666667</ele><time>2026-03-22T14:19:51.352Z</time></trkpt><trkpt lat="43.083605" lon="13.0393767"><ele>536.3333333333334</ele><time>2026-03-22T14:19:52.358Z</time></trkpt><trkpt lat="43.0835917" lon="13.0394633"><ele>535.5</ele><time>2026-03-22T14:19:53.361Z</time></trkpt><trkpt lat="43.0836117" lon="13.039635"><ele>534.6666666666666</ele><time>2026-03-22T14:19:55.358Z</time></trkpt><trkpt lat="43.0836333" lon="13.03972"><ele>533.8333333333333</ele><time>2026-03-22T14:19:56.419Z</time></trkpt><trkpt lat="43.0836567" lon="13.0398633"><ele>533.0</ele><time>2026-03-22T14:19:58.359Z</time></trkpt><trkpt lat="43.08366" lon="13.0399667"><ele>530.8333333333333</ele><time>2026-03-22T14:20:00.355Z</time></trkpt><trkpt lat="43.08367" lon="13.0400817"><ele>528.6666666666666</ele><time>2026-03-22T14:20:03.361Z</time></trkpt><trkpt lat="43.083665" lon="13.0401683"><ele>526.5</ele><time>2026-03-22T14:20:05.355Z</time></trkpt><trkpt lat="43.0836517" lon="13.040275"><ele>524.3333333333334</ele><time>2026-03-22T14:20:06.354Z</time></trkpt><trkpt lat="43.0836317" lon="13.0404033"><ele>522.1666666666667</ele><time>2026-03-22T14:20:07.362Z</time></trkpt><trkpt lat="43.083615" lon="13.0405367"><ele>520.0</ele><time>2026-03-22T14:20:08.353Z</time></trkpt><trkpt lat="43.0835933" lon="13.0406767"><ele>517.1666666666667</ele><time>2026-03-22T14:20:09.346Z</time></trkpt><trkpt lat="43.08357" lon="13.0408183"><ele>514.3333333333334</ele><time>2026-03-22T14:20:10.346Z</time></trkpt><trkpt lat="43.08355" lon="13.0409483"><ele>511.5</ele><time>2026-03-22T14:20:11.36Z</time></trkpt><trkpt lat="43.08353" lon="13.0410583"><ele>508.66666666666663</ele><time>2026-03-22T14:20:12.353Z</time></trkpt><trkpt lat="43.083515" lon="13.041165"><ele>505.8333333333333</ele><time>2026-03-22T14:20:13.358Z</time></trkpt><trkpt lat="43.0834933" lon="13.0412633"><ele>503.0</ele><time>2026-03-22T14:20:14.381Z</time></trkpt><trkpt lat="43.08347" lon="13.041355"><ele>502.99999999999994</ele><time>2026-03-22T14:20:15.333Z</time></trkpt><trkpt lat="43.08344" lon="13.041445"><ele>503.0</ele><time>2026-03-22T14:20:16.345Z</time></trkpt><trkpt lat="43.0833933" lon="13.0415833"><ele>503.0</ele><time>2026-03-22T14:20:18.358Z</time></trkpt><trkpt lat="43.0833" lon="13.041685"><ele>503.0</ele><time>2026-03-22T14:20:20.38Z</time></trkpt><trkpt lat="43.0832417" lon="13.0417183"><ele>502.99999999999994</ele><time>2026-03-22T14:20:21.351Z</time></trkpt><trkpt lat="43.08317" lon="13.0417433"><ele>503.0</ele><time>2026-03-22T14:20:22.359Z</time></trkpt><trkpt lat="43.0830933" lon="13.0417717"><ele>498.3333333333333</ele><time>2026-03-22T14:20:23.356Z</time></trkpt><trkpt lat="43.0830183" lon="13.0418033"><ele>493.66666666666663</ele><time>2026-03-22T14:20:24.357Z</time></trkpt><trkpt lat="43.0829383" lon="13.0418367"><ele>489.0</ele><time>2026-03-22T14:20:25.357Z</time></trkpt><trkpt lat="43.0828633" lon="13.041875"><ele>484.33333333333337</ele><time>2026-03-22T14:20:26.417Z</time></trkpt><trkpt lat="43.082795" lon="13.0419"><ele>479.6666666666667</ele><time>2026-03-22T14:20:27.329Z</time></trkpt><trkpt lat="43.0826717" lon="13.041895"><ele>475.0</ele><time>2026-03-22T14:20:29.334Z</time></trkpt><trkpt lat="43.0825967" lon="13.0418617"><ele>475.0</ele><time>2026-03-22T14:20:30.348Z</time></trkpt><trkpt lat="43.0825083" lon="13.0418317"><ele>475.0</ele><time>2026-03-22T14:20:31.357Z</time></trkpt><trkpt lat="43.0824133" lon="13.041795"><ele>475.0</ele><time>2026-03-22T14:20:32.41Z</time></trkpt><trkpt lat="43.082325" lon="13.0417533"><ele>475.0</ele><time>2026-03-22T14:20:33.347Z</time></trkpt><trkpt lat="43.0822283" lon="13.0417283"><ele>475.0</ele><time>2026-03-22T14:20:34.337Z</time></trkpt><trkpt lat="43.0821333" lon="13.0416933"><ele>472.6666666666667</ele><time>2026-03-22T14:20:35.351Z</time></trkpt><trkpt lat="43.08204" lon="13.041715"><ele>470.33333333333337</ele><time>2026-03-22T14:20:36.357Z</time></trkpt><trkpt lat="43.0819633" lon="13.041755"><ele>468.0</ele><time>2026-03-22T14:20:37.358Z</time></trkpt><trkpt lat="43.0818983" lon="13.0418083"><ele>465.66666666666663</ele><time>2026-03-22T14:20:38.376Z</time></trkpt><trkpt lat="43.0818483" lon="13.0418667"><ele>463.3333333333333</ele><time>2026-03-22T14:20:39.342Z</time></trkpt><trkpt lat="43.0817917" lon="13.04199"><ele>461.0</ele><time>2026-03-22T14:20:41.358Z</time></trkpt><trkpt lat="43.081795" lon="13.0420983"><ele>461.0</ele><time>2026-03-22T14:20:43.357Z</time></trkpt><trkpt lat="43.0817317" lon="13.0419583"><ele>461.0</ele><time>2026-03-22T14:20:48.358Z</time></trkpt><trkpt lat="43.0816833" lon="13.0418683"><ele>461.0</ele><time>2026-03-22T14:20:49.361Z</time></trkpt><trkpt lat="43.0816217" lon="13.0417733"><ele>461.0</ele><time>2026-03-22T14:20:50.374Z</time></trkpt><trkpt lat="43.0815683" lon="13.0416933"><ele>461.0</ele><time>2026-03-22T14:20:51.351Z</time></trkpt><trkpt lat="43.0814967" lon="13.041635"><ele>460.66666666666663</ele><time>2026-03-22T14:20:52.354Z</time></trkpt><trkpt lat="43.0814167" lon="13.0416083"><ele>460.3333333333333</ele><time>2026-03-22T14:20:53.361Z</time></trkpt><trkpt lat="43.0813383" lon="13.041595"><ele>460.0</ele><time>2026-03-22T14:20:54.367Z</time></trkpt><trkpt lat="43.0812683" lon="13.0415667"><ele>459.66666666666663</ele><time>2026-03-22T14:20:55.351Z</time></trkpt><trkpt lat="43.0811867" lon="13.0415483"><ele>459.3333333333333</ele><time>2026-03-22T14:20:56.419Z</time></trkpt><trkpt lat="43.0811083" lon="13.0415433"><ele>459.0</ele><time>2026-03-22T14:20:57.353Z</time></trkpt><trkpt lat="43.0810383" lon="13.0415583"><ele>459.0</ele><time>2026-03-22T14:20:58.352Z</time></trkpt><trkpt lat="43.08093" lon="13.0416133"><ele>459.0</ele><time>2026-03-22T14:21:00.359Z</time></trkpt><trkpt lat="43.0808583" lon="13.0416783"><ele>459.0</ele><time>2026-03-22T14:21:02.411Z</time></trkpt><trkpt lat="43.0807883" lon="13.04167"><ele>459.0</ele><time>2026-03-22T14:21:04.356Z</time></trkpt><trkpt lat="43.080715" lon="13.041635"><ele>459.0</ele><time>2026-03-22T14:21:06.369Z</time></trkpt><trkpt lat="43.080645" lon="13.041685"><ele>459.0</ele><time>2026-03-22T14:21:08.37Z</time></trkpt><trkpt lat="43.0805983" lon="13.0418433"><ele>459.6</ele><time>2026-03-22T14:21:10.353Z</time></trkpt><trkpt lat="43.080595" lon="13.0419583"><ele>460.2</ele><time>2026-03-22T14:21:11.357Z</time></trkpt><trkpt lat="43.08059" lon="13.0420883"><ele>460.80000000000007</ele><time>2026-03-22T14:21:12.357Z</time></trkpt><trkpt lat="43.0805917" lon="13.0422367"><ele>461.40000000000003</ele><time>2026-03-22T14:21:13.36Z</time></trkpt><trkpt lat="43.080605" lon="13.0423917"><ele>462.0</ele><time>2026-03-22T14:21:14.38Z</time></trkpt><trkpt lat="43.08062" lon="13.04254"><ele>462.0</ele><time>2026-03-22T14:21:15.354Z</time></trkpt><trkpt lat="43.08063" lon="13.0426933"><ele>462.00000000000006</ele><time>2026-03-22T14:21:16.355Z</time></trkpt><trkpt lat="43.0806367" lon="13.042845"><ele>462.00000000000006</ele><time>2026-03-22T14:21:17.343Z</time></trkpt><trkpt lat="43.0806417" lon="13.042995"><ele>462.0</ele><time>2026-03-22T14:21:18.353Z</time></trkpt><trkpt lat="43.0806483" lon="13.0431467"><ele>462.0</ele><time>2026-03-22T14:21:19.357Z</time></trkpt><trkpt lat="43.080655" lon="13.0433033"><ele>461.6</ele><time>2026-03-22T14:21:20.379Z</time></trkpt><trkpt lat="43.0806617" lon="13.0434583"><ele>461.20000000000005</ele><time>2026-03-22T14:21:21.357Z</time></trkpt><trkpt lat="43.0806667" lon="13.04361"><ele>460.8</ele><time>2026-03-22T14:21:22.356Z</time></trkpt><trkpt lat="43.0806733" lon="13.0437567"><ele>460.4</ele><time>2026-03-22T14:21:23.36Z</time></trkpt><trkpt lat="43.08068" lon="13.0439033"><ele>460.0</ele><time>2026-03-22T14:21:24.353Z</time></trkpt><trkpt lat="43.0806867" lon="13.0440517"><ele>459.8</ele><time>2026-03-22T14:21:25.365Z</time></trkpt><trkpt lat="43.0806933" lon="13.0441983"><ele>459.6</ele><time>2026-03-22T14:21:26.409Z</time></trkpt><trkpt lat="43.0807" lon="13.0443483"><ele>459.4</ele><time>2026-03-22T14:21:27.349Z</time></trkpt><trkpt lat="43.0807017" lon="13.0444983"><ele>459.2</ele><time>2026-03-22T14:21:28.357Z</time></trkpt><trkpt lat="43.0807083" lon="13.0446483"><ele>459.0</ele><time>2026-03-22T14:21:29.354Z</time></trkpt><trkpt lat="43.0807133" lon="13.0448"><ele>459.0</ele><time>2026-03-22T14:21:30.357Z</time></trkpt><trkpt lat="43.08072" lon="13.044955"><ele>459.0</ele><time>2026-03-22T14:21:31.358Z</time></trkpt><trkpt lat="43.080725" lon="13.045115"><ele>459.0</ele><time>2026-03-22T14:21:32.41Z</time></trkpt><trkpt lat="43.0807317" lon="13.0452767"><ele>459.0</ele><time>2026-03-22T14:21:33.35Z</time></trkpt><trkpt lat="43.08074" lon="13.0454383"><ele>458.6</ele><time>2026-03-22T14:21:34.357Z</time></trkpt><trkpt lat="43.0807483" lon="13.0455983"><ele>458.2</ele><time>2026-03-22T14:21:35.357Z</time></trkpt><trkpt lat="43.080755" lon="13.0457567"><ele>457.80000000000007</ele><time>2026-03-22T14:21:36.364Z</time></trkpt><trkpt lat="43.08076" lon="13.0459033"><ele>457.40000000000003</ele><time>2026-03-22T14:21:37.351Z</time></trkpt><trkpt lat="43.0807667" lon="13.046035"><ele>457.0</ele><time>2026-03-22T14:21:38.382Z</time></trkpt><trkpt lat="43.0807667" lon="13.0461517"><ele>456.50000000000006</ele><time>2026-03-22T14:21:39.355Z</time></trkpt><trkpt lat="43.0807567" lon="13.0462517"><ele>456.0</ele><time>2026-03-22T14:21:40.36Z</time></trkpt><trkpt lat="43.0807333" lon="13.046335"><ele>455.5</ele><time>2026-03-22T14:21:41.362Z</time></trkpt><trkpt lat="43.0806367" lon="13.0464383"><ele>455.0</ele><time>2026-03-22T14:21:43.362Z</time></trkpt><trkpt lat="43.080555" lon="13.0464533"><ele>454.50000000000006</ele><time>2026-03-22T14:21:44.376Z</time></trkpt><trkpt lat="43.0804683" lon="13.0464617"><ele>454.0</ele><time>2026-03-22T14:21:45.349Z</time></trkpt><trkpt lat="43.08038" lon="13.0464683"><ele>454.00000000000006</ele><time>2026-03-22T14:21:46.363Z</time></trkpt><trkpt lat="43.0802967" lon="13.0464867"><ele>454.0</ele><time>2026-03-22T14:21:47.345Z</time></trkpt><trkpt lat="43.0802183" lon="13.0465267"><ele>454.0</ele><time>2026-03-22T14:21:48.362Z</time></trkpt><trkpt lat="43.0801567" lon="13.0465933"><ele>454.0</ele><time>2026-03-22T14:21:49.353Z</time></trkpt><trkpt lat="43.0801133" lon="13.0466833"><ele>454.00000000000006</ele><time>2026-03-22T14:21:50.388Z</time></trkpt><trkpt lat="43.0800767" lon="13.0467883"><ele>454.0</ele><time>2026-03-22T14:21:51.359Z</time></trkpt><trkpt lat="43.0800433" lon="13.0469167"><ele>454.0</ele><time>2026-03-22T14:21:52.356Z</time></trkpt><trkpt lat="43.0800083" lon="13.0470583"><ele>454.0</ele><time>2026-03-22T14:21:53.355Z</time></trkpt><trkpt lat="43.0799667" lon="13.047205"><ele>454.0</ele><time>2026-03-22T14:21:54.353Z</time></trkpt><trkpt lat="43.0799217" lon="13.047355"><ele>454.0</ele><time>2026-03-22T14:21:55.341Z</time></trkpt><trkpt lat="43.079875" lon="13.0475"><ele>454.0</ele><time>2026-03-22T14:21:56.41Z</time></trkpt><trkpt lat="43.0798283" lon="13.0476383"><ele>454.0</ele><time>2026-03-22T14:21:57.331Z</time></trkpt><trkpt lat="43.0797833" lon="13.047775"><ele>454.0</ele><time>2026-03-22T14:21:58.341Z</time></trkpt><trkpt lat="43.0797333" lon="13.0479067"><ele>454.0</ele><time>2026-03-22T14:21:59.35Z</time></trkpt><trkpt lat="43.0796833" lon="13.048045"><ele>454.0</ele><time>2026-03-22T14:22:00.34Z</time></trkpt><trkpt lat="43.07963" lon="13.0481783"><ele>453.25</ele><time>2026-03-22T14:22:01.346Z</time></trkpt><trkpt lat="43.0795783" lon="13.0483233"><ele>452.5</ele><time>2026-03-22T14:22:02.423Z</time></trkpt><trkpt lat="43.079525" lon="13.0484767"><ele>451.75</ele><time>2026-03-22T14:22:03.346Z</time></trkpt><trkpt lat="43.0794733" lon="13.04864"><ele>451.0</ele><time>2026-03-22T14:22:04.358Z</time></trkpt><trkpt lat="43.0794233" lon="13.0488067"><ele>451.0</ele><time>2026-03-22T14:22:05.348Z</time></trkpt><trkpt lat="43.07937" lon="13.048975"><ele>451.0</ele><time>2026-03-22T14:22:06.346Z</time></trkpt><trkpt lat="43.0793083" lon="13.04915"><ele>451.0</ele><time>2026-03-22T14:22:07.338Z</time></trkpt><trkpt lat="43.0792417" lon="13.0493317"><ele>451.0</ele><time>2026-03-22T14:22:08.369Z</time></trkpt><trkpt lat="43.0791717" lon="13.04951"><ele>450.5</ele><time>2026-03-22T14:22:09.347Z</time></trkpt><trkpt lat="43.0791067" lon="13.0496783"><ele>450.0</ele><time>2026-03-22T14:22:10.354Z</time></trkpt><trkpt lat="43.0790483" lon="13.0498383"><ele>449.5</ele><time>2026-03-22T14:22:11.355Z</time></trkpt><trkpt lat="43.078995" lon="13.0499967"><ele>449.0</ele><time>2026-03-22T14:22:12.357Z</time></trkpt><trkpt lat="43.078955" lon="13.0501567"><ele>449.0</ele><time>2026-03-22T14:22:13.359Z</time></trkpt><trkpt lat="43.0789333" lon="13.0503133"><ele>449.0</ele><time>2026-03-22T14:22:14.363Z</time></trkpt><trkpt lat="43.0789317" lon="13.0504617"><ele>449.0</ele><time>2026-03-22T14:22:15.346Z</time></trkpt><trkpt lat="43.0789267" lon="13.0506033"><ele>449.0</ele><time>2026-03-22T14:22:16.352Z</time></trkpt><trkpt lat="43.0789167" lon="13.050735"><ele>449.0</ele><time>2026-03-22T14:22:17.368Z</time></trkpt><trkpt lat="43.0788867" lon="13.0508467"><ele>447.79999999999995</ele><time>2026-03-22T14:22:18.351Z</time></trkpt><trkpt lat="43.0788383" lon="13.0509317"><ele>446.59999999999997</ele><time>2026-03-22T14:22:19.358Z</time></trkpt><trkpt lat="43.078765" lon="13.05098"><ele>445.4</ele><time>2026-03-22T14:22:20.38Z</time></trkpt><trkpt lat="43.0786633" lon="13.051005"><ele>444.2</ele><time>2026-03-22T14:22:21.355Z</time></trkpt><trkpt lat="43.078545" lon="13.0510267"><ele>443.0</ele><time>2026-03-22T14:22:22.349Z</time></trkpt><trkpt lat="43.078395" lon="13.0510467"><ele>443.0</ele><time>2026-03-22T14:22:23.356Z</time></trkpt><trkpt lat="43.0782567" lon="13.051075"><ele>443.0</ele><time>2026-03-22T14:22:24.352Z</time></trkpt><trkpt lat="43.0781283" lon="13.0511133"><ele>443.0</ele><time>2026-03-22T14:22:25.356Z</time></trkpt><trkpt lat="43.0780083" lon="13.051155"><ele>443.0</ele><time>2026-03-22T14:22:26.417Z</time></trkpt><trkpt lat="43.0778933" lon="13.051205"><ele>443.0</ele><time>2026-03-22T14:22:27.35Z</time></trkpt><trkpt lat="43.07778" lon="13.0512533"><ele>443.0</ele><time>2026-03-22T14:22:28.36Z</time></trkpt><trkpt lat="43.0776683" lon="13.0513017"><ele>443.0</ele><time>2026-03-22T14:22:29.362Z</time></trkpt><trkpt lat="43.077565" lon="13.0513517"><ele>443.0</ele><time>2026-03-22T14:22:30.356Z</time></trkpt><trkpt lat="43.077465" lon="13.0514117"><ele>443.5</ele><time>2026-03-22T14:22:31.362Z</time></trkpt><trkpt lat="43.077375" lon="13.0514883"><ele>444.0</ele><time>2026-03-22T14:22:32.408Z</time></trkpt><trkpt lat="43.0772933" lon="13.05159"><ele>444.5</ele><time>2026-03-22T14:22:33.338Z</time></trkpt><trkpt lat="43.0772217" lon="13.05172"><ele>445.0</ele><time>2026-03-22T14:22:34.347Z</time></trkpt><trkpt lat="43.07716" lon="13.0518783"><ele>445.0</ele><time>2026-03-22T14:22:35.357Z</time></trkpt><trkpt lat="43.07711" lon="13.0520617"><ele>445.0</ele><time>2026-03-22T14:22:36.358Z</time></trkpt><trkpt lat="43.0770717" lon="13.0522567"><ele>445.0</ele><time>2026-03-22T14:22:37.351Z</time></trkpt><trkpt lat="43.0770317" lon="13.0524467"><ele>445.0</ele><time>2026-03-22T14:22:38.38Z</time></trkpt><trkpt lat="43.076985" lon="13.052625"><ele>444.5</ele><time>2026-03-22T14:22:39.361Z</time></trkpt><trkpt lat="43.0769267" lon="13.0527883"><ele>444.0</ele><time>2026-03-22T14:22:40.35Z</time></trkpt><trkpt lat="43.0768533" lon="13.052945"><ele>443.5</ele><time>2026-03-22T14:22:41.359Z</time></trkpt><trkpt lat="43.0767783" lon="13.0531"><ele>443.0</ele><time>2026-03-22T14:22:42.358Z</time></trkpt><trkpt lat="43.076695" lon="13.0532533"><ele>443.0</ele><time>2026-03-22T14:22:43.363Z</time></trkpt><trkpt lat="43.07661" lon="13.053405"><ele>443.0</ele><time>2026-03-22T14:22:44.378Z</time></trkpt><trkpt lat="43.0765233" lon="13.05356"><ele>443.0</ele><time>2026-03-22T14:22:45.361Z</time></trkpt><trkpt lat="43.0764367" lon="13.05371"><ele>443.0</ele><time>2026-03-22T14:22:46.343Z</time></trkpt><trkpt lat="43.0763517" lon="13.0538567"><ele>442.75</ele><time>2026-03-22T14:22:47.34Z</time></trkpt><trkpt lat="43.0762683" lon="13.0539967"><ele>442.5</ele><time>2026-03-22T14:22:48.339Z</time></trkpt><trkpt lat="43.0761817" lon="13.0541333"><ele>442.25</ele><time>2026-03-22T14:22:49.359Z</time></trkpt><trkpt lat="43.076085" lon="13.0542783"><ele>442.0</ele><time>2026-03-22T14:22:50.379Z</time></trkpt><trkpt lat="43.076005" lon="13.05442"><ele>442.0</ele><time>2026-03-22T14:22:51.343Z</time></trkpt><trkpt lat="43.0759317" lon="13.0545533"><ele>442.0</ele><time>2026-03-22T14:22:52.359Z</time></trkpt><trkpt lat="43.075845" lon="13.0546717"><ele>442.0</ele><time>2026-03-22T14:22:53.364Z</time></trkpt><trkpt lat="43.075765" lon="13.0547983"><ele>442.0</ele><time>2026-03-22T14:22:54.36Z</time></trkpt><trkpt lat="43.07569" lon="13.054935"><ele>443.0</ele><time>2026-03-22T14:22:55.361Z</time></trkpt><trkpt lat="43.07563" lon="13.0550783"><ele>444.0</ele><time>2026-03-22T14:22:56.413Z</time></trkpt><trkpt lat="43.0755883" lon="13.055225"><ele>445.0</ele><time>2026-03-22T14:22:57.353Z</time></trkpt><trkpt lat="43.0755583" lon="13.0553783"><ele>446.0</ele><time>2026-03-22T14:22:58.337Z</time></trkpt><trkpt lat="43.0755433" lon="13.0555467"><ele>446.0</ele><time>2026-03-22T14:22:59.357Z</time></trkpt><trkpt lat="43.0755467" lon="13.0557267"><ele>446.0</ele><time>2026-03-22T14:23:00.36Z</time></trkpt><trkpt lat="43.0755483" lon="13.0559033"><ele>446.0</ele><time>2026-03-22T14:23:01.356Z</time></trkpt><trkpt lat="43.0755417" lon="13.0560667"><ele>446.0</ele><time>2026-03-22T14:23:02.413Z</time></trkpt><trkpt lat="43.0755217" lon="13.0562217"><ele>445.16666666666663</ele><time>2026-03-22T14:23:03.355Z</time></trkpt><trkpt lat="43.0754933" lon="13.0563583"><ele>444.3333333333333</ele><time>2026-03-22T14:23:04.362Z</time></trkpt><trkpt lat="43.0754633" lon="13.0564783"><ele>443.5</ele><time>2026-03-22T14:23:05.358Z</time></trkpt><trkpt lat="43.0754367" lon="13.0565717"><ele>442.66666666666663</ele><time>2026-03-22T14:23:06.369Z</time></trkpt><trkpt lat="43.0754117" lon="13.0566517"><ele>441.8333333333333</ele><time>2026-03-22T14:23:07.358Z</time></trkpt><trkpt lat="43.0753767" lon="13.0567317"><ele>441.0</ele><time>2026-03-22T14:23:08.378Z</time></trkpt><trkpt lat="43.07534" lon="13.05682"><ele>440.5</ele><time>2026-03-22T14:23:09.355Z</time></trkpt><trkpt lat="43.0752967" lon="13.0569133"><ele>440.0</ele><time>2026-03-22T14:23:10.351Z</time></trkpt><trkpt lat="43.0752517" lon="13.0570083"><ele>439.5</ele><time>2026-03-22T14:23:11.352Z</time></trkpt><trkpt lat="43.0752017" lon="13.0570967"><ele>439.0</ele><time>2026-03-22T14:23:12.354Z</time></trkpt><trkpt lat="43.075155" lon="13.0571767"><ele>438.5</ele><time>2026-03-22T14:23:13.365Z</time></trkpt><trkpt lat="43.0750867" lon="13.057305"><ele>438.0</ele><time>2026-03-22T14:23:15.34Z</time></trkpt><trkpt lat="43.0750467" lon="13.0573717"><ele>438.0</ele><time>2026-03-22T14:23:18.362Z</time></trkpt><trkpt lat="43.0749767" lon="13.0573333"><ele>437.99999999999994</ele><time>2026-03-22T14:23:30.359Z</time></trkpt><trkpt lat="43.0748667" lon="13.0573417"><ele>437.99999999999994</ele><time>2026-03-22T14:23:32.434Z</time></trkpt><trkpt lat="43.074745" lon="13.0574283"><ele>438.0</ele><time>2026-03-22T14:23:34.365Z</time></trkpt><trkpt lat="43.074685" lon="13.0575067"><ele>438.0</ele><time>2026-03-22T14:23:35.358Z</time></trkpt><trkpt lat="43.0746283" lon="13.0575983"><ele>438.5</ele><time>2026-03-22T14:23:36.36Z</time></trkpt><trkpt lat="43.0745733" lon="13.0576867"><ele>439.0</ele><time>2026-03-22T14:23:37.362Z</time></trkpt><trkpt lat="43.0745267" lon="13.05777"><ele>439.5</ele><time>2026-03-22T14:23:38.389Z</time></trkpt><trkpt lat="43.0744817" lon="13.0578983"><ele>440.0</ele><time>2026-03-22T14:23:40.36Z</time></trkpt><trkpt lat="43.0745" lon="13.058015"><ele>440.5</ele><time>2026-03-22T14:23:42.357Z</time></trkpt><trkpt lat="43.0745117" lon="13.05813"><ele>441.0</ele><time>2026-03-22T14:23:44.376Z</time></trkpt><trkpt lat="43.0744967" lon="13.0582183"><ele>440.4</ele><time>2026-03-22T14:23:45.355Z</time></trkpt><trkpt lat="43.0744833" lon="13.0583333"><ele>439.8</ele><time>2026-03-22T14:23:46.373Z</time></trkpt><trkpt lat="43.074465" lon="13.0584783"><ele>439.19999999999993</ele><time>2026-03-22T14:23:47.36Z</time></trkpt><trkpt lat="43.0744583" lon="13.058625"><ele>438.59999999999997</ele><time>2026-03-22T14:23:48.368Z</time></trkpt><trkpt lat="43.0744633" lon="13.0587667"><ele>438.0</ele><time>2026-03-22T14:23:49.354Z</time></trkpt><trkpt lat="43.074475" lon="13.0588967"><ele>438.0</ele><time>2026-03-22T14:23:50.39Z</time></trkpt><trkpt lat="43.074495" lon="13.0590217"><ele>438.0</ele><time>2026-03-22T14:23:51.369Z</time></trkpt><trkpt lat="43.0745133" lon="13.0591417"><ele>438.0</ele><time>2026-03-22T14:23:52.36Z</time></trkpt><trkpt lat="43.07453" lon="13.05926"><ele>438.0</ele><time>2026-03-22T14:23:53.366Z</time></trkpt><trkpt lat="43.0745417" lon="13.0593783"><ele>438.0</ele><time>2026-03-22T14:23:54.362Z</time></trkpt><trkpt lat="43.0745567" lon="13.0594967"><ele>438.0</ele><time>2026-03-22T14:23:55.364Z</time></trkpt><trkpt lat="43.074575" lon="13.05961"><ele>437.6666666666667</ele><time>2026-03-22T14:23:56.413Z</time></trkpt><trkpt lat="43.07459" lon="13.059715"><ele>437.33333333333337</ele><time>2026-03-22T14:23:57.362Z</time></trkpt><trkpt lat="43.0746067" lon="13.0598167"><ele>437.0</ele><time>2026-03-22T14:23:58.333Z</time></trkpt><trkpt lat="43.0746233" lon="13.0599167"><ele>436.6666666666667</ele><time>2026-03-22T14:23:59.371Z</time></trkpt><trkpt lat="43.0746383" lon="13.0600233"><ele>436.33333333333337</ele><time>2026-03-22T14:24:00.36Z</time></trkpt><trkpt lat="43.0746533" lon="13.0601433"><ele>436.0</ele><time>2026-03-22T14:24:01.363Z</time></trkpt><trkpt lat="43.0746633" lon="13.0602733"><ele>435.6</ele><time>2026-03-22T14:24:02.417Z</time></trkpt><trkpt lat="43.0746667" lon="13.0604083"><ele>435.20000000000005</ele><time>2026-03-22T14:24:03.351Z</time></trkpt><trkpt lat="43.074665" lon="13.0605483"><ele>434.79999999999995</ele><time>2026-03-22T14:24:04.366Z</time></trkpt><trkpt lat="43.0746583" lon="13.060695"><ele>434.4</ele><time>2026-03-22T14:24:05.362Z</time></trkpt><trkpt lat="43.0746517" lon="13.0608417"><ele>434.0</ele><time>2026-03-22T14:24:06.363Z</time></trkpt><trkpt lat="43.0746467" lon="13.06098"><ele>433.79999999999995</ele><time>2026-03-22T14:24:07.352Z</time></trkpt><trkpt lat="43.074635" lon="13.0611167"><ele>433.59999999999997</ele><time>2026-03-22T14:24:08.363Z</time></trkpt><trkpt lat="43.07462" lon="13.0612517"><ele>433.4</ele><time>2026-03-22T14:24:09.336Z</time></trkpt><trkpt lat="43.0745983" lon="13.061385"><ele>433.2</ele><time>2026-03-22T14:24:10.343Z</time></trkpt><trkpt lat="43.0745783" lon="13.0615217"><ele>433.0</ele><time>2026-03-22T14:24:11.357Z</time></trkpt><trkpt lat="43.0745483" lon="13.061655"><ele>432.79999999999995</ele><time>2026-03-22T14:24:12.355Z</time></trkpt><trkpt lat="43.0745167" lon="13.061785"><ele>432.59999999999997</ele><time>2026-03-22T14:24:13.347Z</time></trkpt><trkpt lat="43.0744817" lon="13.0619117"><ele>432.40000000000003</ele><time>2026-03-22T14:24:14.386Z</time></trkpt><trkpt lat="43.0744467" lon="13.062035"><ele>432.20000000000005</ele><time>2026-03-22T14:24:15.352Z</time></trkpt><trkpt lat="43.0744167" lon="13.0621567"><ele>432.0</ele><time>2026-03-22T14:24:16.345Z</time></trkpt><trkpt lat="43.0743917" lon="13.0622833"><ele>432.0</ele><time>2026-03-22T14:24:17.339Z</time></trkpt><trkpt lat="43.0743667" lon="13.0624117"><ele>432.00000000000006</ele><time>2026-03-22T14:24:18.344Z</time></trkpt><trkpt lat="43.074345" lon="13.062535"><ele>432.00000000000006</ele><time>2026-03-22T14:24:19.352Z</time></trkpt><trkpt lat="43.074325" lon="13.0626567"><ele>432.0</ele><time>2026-03-22T14:24:20.378Z</time></trkpt><trkpt lat="43.0743033" lon="13.0627767"><ele>432.0</ele><time>2026-03-22T14:24:21.354Z</time></trkpt><trkpt lat="43.0742817" lon="13.06289"><ele>431.6666666666667</ele><time>2026-03-22T14:24:22.361Z</time></trkpt><trkpt lat="43.07426" lon="13.0630033"><ele>431.33333333333337</ele><time>2026-03-22T14:24:23.336Z</time></trkpt><trkpt lat="43.07424" lon="13.0631183"><ele>431.0</ele><time>2026-03-22T14:24:24.369Z</time></trkpt><trkpt lat="43.0742217" lon="13.0632367"><ele>430.6666666666667</ele><time>2026-03-22T14:24:25.359Z</time></trkpt><trkpt lat="43.074205" lon="13.0633567"><ele>430.33333333333337</ele><time>2026-03-22T14:24:26.405Z</time></trkpt><trkpt lat="43.074205" lon="13.0634717"><ele>430.0</ele><time>2026-03-22T14:24:27.354Z</time></trkpt><trkpt lat="43.074225" lon="13.0635717"><ele>429.6666666666667</ele><time>2026-03-22T14:24:28.366Z</time></trkpt><trkpt lat="43.0742633" lon="13.0636583"><ele>429.33333333333337</ele><time>2026-03-22T14:24:29.34Z</time></trkpt><trkpt lat="43.0743217" lon="13.0637233"><ele>429.0</ele><time>2026-03-22T14:24:30.37Z</time></trkpt><trkpt lat="43.0743883" lon="13.0637633"><ele>428.66666666666663</ele><time>2026-03-22T14:24:31.368Z</time></trkpt><trkpt lat="43.074455" lon="13.0637983"><ele>428.3333333333333</ele><time>2026-03-22T14:24:32.419Z</time></trkpt><trkpt lat="43.0745083" lon="13.0638483"><ele>428.0</ele><time>2026-03-22T14:24:33.362Z</time></trkpt><trkpt lat="43.0745583" lon="13.0639683"><ele>428.0</ele><time>2026-03-22T14:24:35.369Z</time></trkpt><trkpt lat="43.0744767" lon="13.0640133"><ele>427.99999999999994</ele><time>2026-03-22T14:24:37.37Z</time></trkpt><trkpt lat="43.0744033" lon="13.0639867"><ele>427.99999999999994</ele><time>2026-03-22T14:24:38.384Z</time></trkpt><trkpt lat="43.07431" lon="13.063945"><ele>428.0</ele><time>2026-03-22T14:24:39.362Z</time></trkpt><trkpt lat="43.0742183" lon="13.0638817"><ele>428.0</ele><time>2026-03-22T14:24:40.368Z</time></trkpt><trkpt lat="43.0741367" lon="13.0638067"><ele>429.16666666666663</ele><time>2026-03-22T14:24:41.364Z</time></trkpt><trkpt lat="43.0740583" lon="13.063735"><ele>430.3333333333333</ele><time>2026-03-22T14:24:42.369Z</time></trkpt><trkpt lat="43.0739817" lon="13.0636917"><ele>431.5</ele><time>2026-03-22T14:24:43.367Z</time></trkpt><trkpt lat="43.0739083" lon="13.063675"><ele>432.66666666666663</ele><time>2026-03-22T14:24:44.366Z</time></trkpt><trkpt lat="43.0738317" lon="13.0636967"><ele>433.8333333333333</ele><time>2026-03-22T14:24:45.361Z</time></trkpt><trkpt lat="43.0737633" lon="13.063765"><ele>435.0</ele><time>2026-03-22T14:24:46.36Z</time></trkpt><trkpt lat="43.073705" lon="13.0638667"><ele>435.0</ele><time>2026-03-22T14:24:47.363Z</time></trkpt><trkpt lat="43.0736483" lon="13.0639467"><ele>435.0</ele><time>2026-03-22T14:24:48.372Z</time></trkpt><trkpt lat="43.0735867" lon="13.0640067"><ele>435.0</ele><time>2026-03-22T14:24:49.36Z</time></trkpt><trkpt lat="43.073525" lon="13.064045"><ele>435.0</ele><time>2026-03-22T14:24:50.387Z</time></trkpt><trkpt lat="43.073445" lon="13.06413"><ele>435.0</ele><time>2026-03-22T14:24:52.37Z</time></trkpt><trkpt lat="43.0735267" lon="13.0642183"><ele>435.0</ele><time>2026-03-22T14:24:55.365Z</time></trkpt><trkpt lat="43.073595" lon="13.06424"><ele>434.0</ele><time>2026-03-22T14:24:56.41Z</time></trkpt><trkpt lat="43.0736533" lon="13.0642767"><ele>433.0</ele><time>2026-03-22T14:24:57.362Z</time></trkpt><trkpt lat="43.0737117" lon="13.064395"><ele>432.0</ele><time>2026-03-22T14:24:59.36Z</time></trkpt><trkpt lat="43.0737033" lon="13.06449"><ele>431.0</ele><time>2026-03-22T14:25:00.374Z</time></trkpt><trkpt lat="43.0736683" lon="13.0646133"><ele>430.0</ele><time>2026-03-22T14:25:01.369Z</time></trkpt><trkpt lat="43.0736267" lon="13.064745"><ele>429.0</ele><time>2026-03-22T14:25:02.413Z</time></trkpt><trkpt lat="43.07358" lon="13.064915"><ele>428.66666666666663</ele><time>2026-03-22T14:25:03.359Z</time></trkpt><trkpt lat="43.0735567" lon="13.065115"><ele>428.3333333333333</ele><time>2026-03-22T14:25:04.364Z</time></trkpt><trkpt lat="43.0735517" lon="13.0653317"><ele>428.0</ele><time>2026-03-22T14:25:05.371Z</time></trkpt><trkpt lat="43.0735717" lon="13.0655683"><ele>428.66666666666663</ele><time>2026-03-22T14:25:06.342Z</time></trkpt><trkpt lat="43.0735983" lon="13.065815"><ele>429.33333333333337</ele><time>2026-03-22T14:25:07.339Z</time></trkpt><trkpt lat="43.07363" lon="13.0660517"><ele>430.0</ele><time>2026-03-22T14:25:08.406Z</time></trkpt><trkpt lat="43.0736517" lon="13.0662767"><ele>430.0</ele><time>2026-03-22T14:25:09.34Z</time></trkpt><trkpt lat="43.0736633" lon="13.0664983"><ele>430.0</ele><time>2026-03-22T14:25:10.337Z</time></trkpt><trkpt lat="43.0736783" lon="13.0667117"><ele>430.0</ele><time>2026-03-22T14:25:11.342Z</time></trkpt><trkpt lat="43.0736967" lon="13.0669183"><ele>429.75</ele><time>2026-03-22T14:25:12.34Z</time></trkpt><trkpt lat="43.0737167" lon="13.0671117"><ele>429.5</ele><time>2026-03-22T14:25:13.358Z</time></trkpt><trkpt lat="43.0737517" lon="13.0672967"><ele>429.25</ele><time>2026-03-22T14:25:14.361Z</time></trkpt><trkpt lat="43.0738067" lon="13.067475"><ele>429.0</ele><time>2026-03-22T14:25:15.351Z</time></trkpt><trkpt lat="43.073885" lon="13.067665"><ele>427.0</ele><time>2026-03-22T14:25:16.363Z</time></trkpt><trkpt lat="43.073975" lon="13.0678633"><ele>425.0</ele><time>2026-03-22T14:25:17.352Z</time></trkpt><trkpt lat="43.07408" lon="13.0680683"><ele>423.0</ele><time>2026-03-22T14:25:18.355Z</time></trkpt><trkpt lat="43.0741833" lon="13.0682667"><ele>422.66666666666663</ele><time>2026-03-22T14:25:19.343Z</time></trkpt><trkpt lat="43.074275" lon="13.0684567"><ele>422.3333333333333</ele><time>2026-03-22T14:25:20.377Z</time></trkpt><trkpt lat="43.074355" lon="13.068635"><ele>422.0</ele><time>2026-03-22T14:25:21.365Z</time></trkpt><trkpt lat="43.0744167" lon="13.0688117"><ele>422.0</ele><time>2026-03-22T14:25:22.361Z</time></trkpt><trkpt lat="43.0744683" lon="13.0690033"><ele>422.0</ele><time>2026-03-22T14:25:23.34Z</time></trkpt><trkpt lat="43.0745133" lon="13.0692167"><ele>422.0</ele><time>2026-03-22T14:25:24.353Z</time></trkpt><trkpt lat="43.0745467" lon="13.0694283"><ele>421.5</ele><time>2026-03-22T14:25:25.355Z</time></trkpt><trkpt lat="43.0745733" lon="13.0696267"><ele>421.0</ele><time>2026-03-22T14:25:26.416Z</time></trkpt><trkpt lat="43.0745967" lon="13.06981"><ele>420.5</ele><time>2026-03-22T14:25:27.352Z</time></trkpt><trkpt lat="43.074625" lon="13.0699833"><ele>420.0</ele><time>2026-03-22T14:25:28.354Z</time></trkpt><trkpt lat="43.0746633" lon="13.07015"><ele>419.66666666666663</ele><time>2026-03-22T14:25:29.364Z</time></trkpt><trkpt lat="43.0747217" lon="13.0703183"><ele>419.3333333333333</ele><time>2026-03-22T14:25:30.367Z</time></trkpt><trkpt lat="43.0747983" lon="13.0704967"><ele>419.0</ele><time>2026-03-22T14:25:31.342Z</time></trkpt><trkpt lat="43.0748883" lon="13.0706867"><ele>418.3333333333333</ele><time>2026-03-22T14:25:32.396Z</time></trkpt><trkpt lat="43.0749967" lon="13.07089"><ele>417.66666666666663</ele><time>2026-03-22T14:25:33.352Z</time></trkpt><trkpt lat="43.0751167" lon="13.0710983"><ele>417.0</ele><time>2026-03-22T14:25:34.368Z</time></trkpt><trkpt lat="43.0752417" lon="13.0713117"><ele>417.0</ele><time>2026-03-22T14:25:35.371Z</time></trkpt><trkpt lat="43.0753767" lon="13.0715383"><ele>417.0</ele><time>2026-03-22T14:25:36.346Z</time></trkpt><trkpt lat="43.07552" lon="13.0717683"><ele>417.0</ele><time>2026-03-22T14:25:37.349Z</time></trkpt><trkpt lat="43.0756617" lon="13.07199"><ele>417.33333333333337</ele><time>2026-03-22T14:25:38.389Z</time></trkpt><trkpt lat="43.0757917" lon="13.0721883"><ele>417.6666666666667</ele><time>2026-03-22T14:25:39.346Z</time></trkpt><trkpt lat="43.0759" lon="13.0723633"><ele>418.0</ele><time>2026-03-22T14:25:40.358Z</time></trkpt><trkpt lat="43.0759883" lon="13.0725183"><ele>417.5</ele><time>2026-03-22T14:25:41.369Z</time></trkpt><trkpt lat="43.0760567" lon="13.0726567"><ele>417.0</ele><time>2026-03-22T14:25:42.363Z</time></trkpt><trkpt lat="43.076105" lon="13.0728033"><ele>416.5</ele><time>2026-03-22T14:25:43.37Z</time></trkpt><trkpt lat="43.0761533" lon="13.07296"><ele>416.0</ele><time>2026-03-22T14:25:44.378Z</time></trkpt><trkpt lat="43.0762017" lon="13.07311"><ele>416.0</ele><time>2026-03-22T14:25:45.351Z</time></trkpt><trkpt lat="43.0762533" lon="13.0732483"><ele>416.0</ele><time>2026-03-22T14:25:46.356Z</time></trkpt><trkpt lat="43.0763033" lon="13.0733867"><ele>416.0</ele><time>2026-03-22T14:25:47.361Z</time></trkpt><trkpt lat="43.0763383" lon="13.0735367"><ele>416.0</ele><time>2026-03-22T14:25:48.362Z</time></trkpt><trkpt lat="43.07636" lon="13.07371"><ele>415.75</ele><time>2026-03-22T14:25:49.359Z</time></trkpt><trkpt lat="43.0763533" lon="13.07389"><ele>415.5</ele><time>2026-03-22T14:25:50.384Z</time></trkpt><trkpt lat="43.0763483" lon="13.0740617"><ele>415.25</ele><time>2026-03-22T14:25:51.355Z</time></trkpt><trkpt lat="43.07634" lon="13.0742217"><ele>415.0</ele><time>2026-03-22T14:25:52.364Z</time></trkpt><trkpt lat="43.0763283" lon="13.07436"><ele>415.00000000000006</ele><time>2026-03-22T14:25:53.364Z</time></trkpt><trkpt lat="43.0763" lon="13.074445"><ele>415.0</ele><time>2026-03-22T14:25:54.369Z</time></trkpt><trkpt lat="43.07624" lon="13.0745083"><ele>415.0</ele><time>2026-03-22T14:25:55.37Z</time></trkpt><trkpt lat="43.076175" lon="13.0745833"><ele>415.0</ele><time>2026-03-22T14:25:56.411Z</time></trkpt><trkpt lat="43.0761217" lon="13.07467"><ele>415.00000000000006</ele><time>2026-03-22T14:25:57.356Z</time></trkpt><trkpt lat="43.0760883" lon="13.0747533"><ele>415.0</ele><time>2026-03-22T14:25:58.368Z</time></trkpt><trkpt lat="43.076085" lon="13.07485"><ele>415.0</ele><time>2026-03-22T14:25:59.366Z</time></trkpt><trkpt lat="43.076095" lon="13.0749567"><ele>415.0</ele><time>2026-03-22T14:26:00.366Z</time></trkpt><trkpt lat="43.0761283" lon="13.07509"><ele>415.0</ele><time>2026-03-22T14:26:01.365Z</time></trkpt><trkpt lat="43.0761633" lon="13.0752533"><ele>415.0</ele><time>2026-03-22T14:26:02.409Z</time></trkpt><trkpt lat="43.0761833" lon="13.07541"><ele>415.0</ele><time>2026-03-22T14:26:03.353Z</time></trkpt><trkpt lat="43.0762017" lon="13.0755467"><ele>415.00000000000006</ele><time>2026-03-22T14:26:04.36Z</time></trkpt><trkpt lat="43.076215" lon="13.075645"><ele>415.0</ele><time>2026-03-22T14:26:05.356Z</time></trkpt><trkpt lat="43.076175" lon="13.0757283"><ele>415.0</ele><time>2026-03-22T14:26:07.357Z</time></trkpt><trkpt lat="43.0760783" lon="13.07568"><ele>415.0</ele><time>2026-03-22T14:26:09.369Z</time></trkpt><trkpt lat="43.0760117" lon="13.0757183"><ele>415.00000000000006</ele><time>2026-03-22T14:26:11.359Z</time></trkpt><trkpt lat="43.075965" lon="13.0758517"><ele>415.0</ele><time>2026-03-22T14:26:13.361Z</time></trkpt><trkpt lat="43.0759683" lon="13.0759817"><ele>415.5</ele><time>2026-03-22T14:26:14.378Z</time></trkpt><trkpt lat="43.0759917" lon="13.0761267"><ele>416.0</ele><time>2026-03-22T14:26:15.354Z</time></trkpt><trkpt lat="43.076015" lon="13.0762683"><ele>416.5</ele><time>2026-03-22T14:26:16.359Z</time></trkpt><trkpt lat="43.07605" lon="13.0764267"><ele>417.0</ele><time>2026-03-22T14:26:17.366Z</time></trkpt><trkpt lat="43.07609" lon="13.0765867"><ele>416.5</ele><time>2026-03-22T14:26:18.37Z</time></trkpt><trkpt lat="43.076135" lon="13.0767417"><ele>416.0</ele><time>2026-03-22T14:26:19.36Z</time></trkpt><trkpt lat="43.07618" lon="13.076895"><ele>415.5</ele><time>2026-03-22T14:26:20.377Z</time></trkpt><trkpt lat="43.0762233" lon="13.07704"><ele>415.0</ele><time>2026-03-22T14:26:21.357Z</time></trkpt><trkpt lat="43.076265" lon="13.0771717"><ele>415.00000000000006</ele><time>2026-03-22T14:26:22.358Z</time></trkpt><trkpt lat="43.0763017" lon="13.077285"><ele>415.0</ele><time>2026-03-22T14:26:23.355Z</time></trkpt><trkpt lat="43.0763333" lon="13.0773933"><ele>415.0</ele><time>2026-03-22T14:26:24.36Z</time></trkpt><trkpt lat="43.0763667" lon="13.0775033"><ele>415.0</ele><time>2026-03-22T14:26:25.353Z</time></trkpt><trkpt lat="43.076395" lon="13.0776067"><ele>415.00000000000006</ele><time>2026-03-22T14:26:26.413Z</time></trkpt><trkpt lat="43.07642" lon="13.0777067"><ele>415.0</ele><time>2026-03-22T14:26:27.357Z</time></trkpt><trkpt lat="43.0764467" lon="13.0778083"><ele>415.1666666666667</ele><time>2026-03-22T14:26:28.36Z</time></trkpt><trkpt lat="43.0764733" lon="13.07791"><ele>415.33333333333337</ele><time>2026-03-22T14:26:29.366Z</time></trkpt><trkpt lat="43.0764917" lon="13.0780167"><ele>415.5</ele><time>2026-03-22T14:26:30.371Z</time></trkpt><trkpt lat="43.0765017" lon="13.07813"><ele>415.66666666666663</ele><time>2026-03-22T14:26:31.36Z</time></trkpt><trkpt lat="43.0765033" lon="13.0782433"><ele>415.8333333333333</ele><time>2026-03-22T14:26:32.408Z</time></trkpt><trkpt lat="43.076495" lon="13.078355"><ele>416.0</ele><time>2026-03-22T14:26:33.355Z</time></trkpt><trkpt lat="43.0764883" lon="13.07847"><ele>416.16666666666663</ele><time>2026-03-22T14:26:34.366Z</time></trkpt><trkpt lat="43.07647" lon="13.0785833"><ele>416.3333333333333</ele><time>2026-03-22T14:26:35.358Z</time></trkpt><trkpt lat="43.0764467" lon="13.0786933"><ele>416.5</ele><time>2026-03-22T14:26:36.365Z</time></trkpt><trkpt lat="43.0764267" lon="13.078805"><ele>416.66666666666663</ele><time>2026-03-22T14:26:37.365Z</time></trkpt><trkpt lat="43.0764067" lon="13.0789217"><ele>416.8333333333333</ele><time>2026-03-22T14:26:38.384Z</time></trkpt><trkpt lat="43.0763883" lon="13.07904"><ele>417.0</ele><time>2026-03-22T14:26:39.361Z</time></trkpt><trkpt lat="43.0763733" lon="13.0791617"><ele>416.6666666666667</ele><time>2026-03-22T14:26:40.36Z</time></trkpt><trkpt lat="43.076355" lon="13.079285"><ele>416.33333333333337</ele><time>2026-03-22T14:26:41.368Z</time></trkpt><trkpt lat="43.0763367" lon="13.0794117"><ele>416.0</ele><time>2026-03-22T14:26:42.373Z</time></trkpt><trkpt lat="43.0763183" lon="13.0795317"><ele>415.6666666666667</ele><time>2026-03-22T14:26:43.344Z</time></trkpt><trkpt lat="43.0763033" lon="13.0796467"><ele>415.33333333333337</ele><time>2026-03-22T14:26:44.382Z</time></trkpt><trkpt lat="43.07629" lon="13.0797617"><ele>415.0</ele><time>2026-03-22T14:26:45.362Z</time></trkpt><trkpt lat="43.0762783" lon="13.079875"><ele>414.6666666666667</ele><time>2026-03-22T14:26:46.358Z</time></trkpt><trkpt lat="43.0762667" lon="13.079985"><ele>414.33333333333337</ele><time>2026-03-22T14:26:47.365Z</time></trkpt><trkpt lat="43.0762533" lon="13.080095"><ele>414.0</ele><time>2026-03-22T14:26:48.37Z</time></trkpt><trkpt lat="43.07624" lon="13.0802067"><ele>413.66666666666663</ele><time>2026-03-22T14:26:49.367Z</time></trkpt><trkpt lat="43.0762267" lon="13.080315"><ele>413.3333333333333</ele><time>2026-03-22T14:26:50.386Z</time></trkpt><trkpt lat="43.0762117" lon="13.080425"><ele>413.0</ele><time>2026-03-22T14:26:51.369Z</time></trkpt><trkpt lat="43.0761983" lon="13.0805433"><ele>413.0</ele><time>2026-03-22T14:26:52.35Z</time></trkpt><trkpt lat="43.076185" lon="13.08067"><ele>413.0</ele><time>2026-03-22T14:26:53.357Z</time></trkpt><trkpt lat="43.07617" lon="13.080805"><ele>413.0</ele><time>2026-03-22T14:26:54.364Z</time></trkpt><trkpt lat="43.0761517" lon="13.0809417"><ele>413.0</ele><time>2026-03-22T14:26:55.355Z</time></trkpt><trkpt lat="43.0761333" lon="13.0810817"><ele>413.0</ele><time>2026-03-22T14:26:56.415Z</time></trkpt><trkpt lat="43.07612" lon="13.0812267"><ele>413.0</ele><time>2026-03-22T14:26:57.358Z</time></trkpt><trkpt lat="43.0761" lon="13.0813667"><ele>413.0</ele><time>2026-03-22T14:26:58.356Z</time></trkpt><trkpt lat="43.0760867" lon="13.081505"><ele>413.0</ele><time>2026-03-22T14:26:59.35Z</time></trkpt><trkpt lat="43.07607" lon="13.0816383"><ele>413.0</ele><time>2026-03-22T14:27:00.358Z</time></trkpt><trkpt lat="43.076055" lon="13.0817667"><ele>413.0</ele><time>2026-03-22T14:27:01.362Z</time></trkpt><trkpt lat="43.07604" lon="13.08188"><ele>412.8333333333333</ele><time>2026-03-22T14:27:02.409Z</time></trkpt><trkpt lat="43.076025" lon="13.081975"><ele>412.66666666666663</ele><time>2026-03-22T14:27:03.345Z</time></trkpt><trkpt lat="43.075995" lon="13.0821217"><ele>412.5</ele><time>2026-03-22T14:27:05.364Z</time></trkpt><trkpt lat="43.0759717" lon="13.0822183"><ele>412.33333333333337</ele><time>2026-03-22T14:27:07.358Z</time></trkpt><trkpt lat="43.0759333" lon="13.0823"><ele>412.1666666666667</ele><time>2026-03-22T14:27:09.349Z</time></trkpt><trkpt lat="43.0758333" lon="13.0823883"><ele>412.0</ele><time>2026-03-22T14:27:11.349Z</time></trkpt><trkpt lat="43.0757483" lon="13.0824283"><ele>413.0</ele><time>2026-03-22T14:27:12.363Z</time></trkpt><trkpt lat="43.075655" lon="13.0824733"><ele>414.0</ele><time>2026-03-22T14:27:13.367Z</time></trkpt><trkpt lat="43.0755517" lon="13.082525"><ele>415.0</ele><time>2026-03-22T14:27:14.389Z</time></trkpt><trkpt lat="43.0754533" lon="13.0825817"><ele>416.0</ele><time>2026-03-22T14:27:15.356Z</time></trkpt><trkpt lat="43.0753567" lon="13.08264"><ele>417.0</ele><time>2026-03-22T14:27:16.356Z</time></trkpt><trkpt lat="43.0752583" lon="13.082705"><ele>417.0</ele><time>2026-03-22T14:27:17.372Z</time></trkpt><trkpt lat="43.0751567" lon="13.0827817"><ele>417.0</ele><time>2026-03-22T14:27:18.364Z</time></trkpt><trkpt lat="43.075055" lon="13.0828717"><ele>417.0</ele><time>2026-03-22T14:27:19.359Z</time></trkpt><trkpt lat="43.0749567" lon="13.08297"><ele>417.0</ele><time>2026-03-22T14:27:20.395Z</time></trkpt><trkpt lat="43.0748617" lon="13.0830667"><ele>418.5</ele><time>2026-03-22T14:27:21.36Z</time></trkpt><trkpt lat="43.074765" lon="13.08316"><ele>420.0</ele><time>2026-03-22T14:27:22.343Z</time></trkpt><trkpt lat="43.0746617" lon="13.08325"><ele>421.5</ele><time>2026-03-22T14:27:23.353Z</time></trkpt><trkpt lat="43.0745483" lon="13.0833367"><ele>423.0</ele><time>2026-03-22T14:27:24.361Z</time></trkpt><trkpt lat="43.074425" lon="13.0834133"><ele>423.0</ele><time>2026-03-22T14:27:25.357Z</time></trkpt><trkpt lat="43.074295" lon="13.08347"><ele>423.0</ele><time>2026-03-22T14:27:26.418Z</time></trkpt><trkpt lat="43.074155" lon="13.0835033"><ele>423.0</ele><time>2026-03-22T14:27:27.35Z</time></trkpt><trkpt lat="43.0740067" lon="13.0835133"><ele>423.0</ele><time>2026-03-22T14:27:28.367Z</time></trkpt><trkpt lat="43.07386" lon="13.0835"><ele>423.33333333333337</ele><time>2026-03-22T14:27:29.365Z</time></trkpt><trkpt lat="43.07371" lon="13.0834767"><ele>423.6666666666667</ele><time>2026-03-22T14:27:30.34Z</time></trkpt><trkpt lat="43.0735567" lon="13.083445"><ele>424.0</ele><time>2026-03-22T14:27:31.361Z</time></trkpt><trkpt lat="43.0734033" lon="13.0834"><ele>423.6666666666667</ele><time>2026-03-22T14:27:32.409Z</time></trkpt><trkpt lat="43.0732483" lon="13.0833483"><ele>423.33333333333337</ele><time>2026-03-22T14:27:33.372Z</time></trkpt><trkpt lat="43.0730883" lon="13.0832933"><ele>423.0</ele><time>2026-03-22T14:27:34.367Z</time></trkpt><trkpt lat="43.072925" lon="13.0832333"><ele>425.66666666666663</ele><time>2026-03-22T14:27:35.357Z</time></trkpt><trkpt lat="43.072755" lon="13.083175"><ele>428.3333333333333</ele><time>2026-03-22T14:27:36.364Z</time></trkpt><trkpt lat="43.0725883" lon="13.0831133"><ele>431.0</ele><time>2026-03-22T14:27:37.339Z</time></trkpt><trkpt lat="43.0724167" lon="13.0830583"><ele>431.0</ele><time>2026-03-22T14:27:38.384Z</time></trkpt><trkpt lat="43.0722417" lon="13.0830067"><ele>431.0</ele><time>2026-03-22T14:27:39.351Z</time></trkpt><trkpt lat="43.072065" lon="13.082945"><ele>431.0</ele><time>2026-03-22T14:27:40.344Z</time></trkpt><trkpt lat="43.07189" lon="13.0828883"><ele>431.0</ele><time>2026-03-22T14:27:41.35Z</time></trkpt><trkpt lat="43.0717133" lon="13.08283"><ele>431.0</ele><time>2026-03-22T14:27:42.367Z</time></trkpt><trkpt lat="43.07154" lon="13.0827733"><ele>431.0</ele><time>2026-03-22T14:27:43.355Z</time></trkpt><trkpt lat="43.0713767" lon="13.08272"><ele>430.3333333333333</ele><time>2026-03-22T14:27:44.373Z</time></trkpt><trkpt lat="43.07122" lon="13.0826683"><ele>429.66666666666663</ele><time>2026-03-22T14:27:45.359Z</time></trkpt><trkpt lat="43.071065" lon="13.082615"><ele>429.0</ele><time>2026-03-22T14:27:46.363Z</time></trkpt><trkpt lat="43.0708967" lon="13.0825717"><ele>430.66666666666663</ele><time>2026-03-22T14:27:47.364Z</time></trkpt><trkpt lat="43.070725" lon="13.0825417"><ele>432.3333333333333</ele><time>2026-03-22T14:27:48.359Z</time></trkpt><trkpt lat="43.0705533" lon="13.0825317"><ele>434.0</ele><time>2026-03-22T14:27:49.364Z</time></trkpt><trkpt lat="43.0703917" lon="13.0825383"><ele>434.0</ele><time>2026-03-22T14:27:50.393Z</time></trkpt><trkpt lat="43.0702283" lon="13.08255"><ele>434.0</ele><time>2026-03-22T14:27:51.338Z</time></trkpt><trkpt lat="43.0700617" lon="13.0825467"><ele>434.0</ele><time>2026-03-22T14:27:52.326Z</time></trkpt><trkpt lat="43.06989" lon="13.08252"><ele>434.66666666666663</ele><time>2026-03-22T14:27:53.369Z</time></trkpt><trkpt lat="43.0697183" lon="13.0824583"><ele>435.33333333333337</ele><time>2026-03-22T14:27:54.358Z</time></trkpt><trkpt lat="43.06956" lon="13.082365"><ele>436.0</ele><time>2026-03-22T14:27:55.358Z</time></trkpt><trkpt lat="43.0694017" lon="13.082265"><ele>436.0</ele><time>2026-03-22T14:27:56.409Z</time></trkpt><trkpt lat="43.069245" lon="13.0821817"><ele>436.0</ele><time>2026-03-22T14:27:57.354Z</time></trkpt><trkpt lat="43.06908" lon="13.0821217"><ele>436.0</ele><time>2026-03-22T14:27:58.35Z</time></trkpt><trkpt lat="43.0689067" lon="13.0820867"><ele>435.6666666666667</ele><time>2026-03-22T14:27:59.368Z</time></trkpt><trkpt lat="43.0687217" lon="13.08208"><ele>435.33333333333337</ele><time>2026-03-22T14:28:00.365Z</time></trkpt><trkpt lat="43.068535" lon="13.0820883"><ele>435.0</ele><time>2026-03-22T14:28:01.368Z</time></trkpt><trkpt lat="43.068345" lon="13.082095"><ele>436.33333333333337</ele><time>2026-03-22T14:28:02.419Z</time></trkpt><trkpt lat="43.0681583" lon="13.0820867"><ele>437.6666666666667</ele><time>2026-03-22T14:28:03.342Z</time></trkpt><trkpt lat="43.0679717" lon="13.0820683"><ele>439.0</ele><time>2026-03-22T14:28:04.36Z</time></trkpt><trkpt lat="43.0677883" lon="13.0820433"><ele>439.0</ele><time>2026-03-22T14:28:05.371Z</time></trkpt><trkpt lat="43.0676033" lon="13.082025"><ele>439.0</ele><time>2026-03-22T14:28:06.365Z</time></trkpt><trkpt lat="43.0674217" lon="13.0820217"><ele>439.0</ele><time>2026-03-22T14:28:07.364Z</time></trkpt><trkpt lat="43.067245" lon="13.0820383"><ele>440.6666666666667</ele><time>2026-03-22T14:28:08.398Z</time></trkpt><trkpt lat="43.067075" lon="13.0820833"><ele>442.33333333333337</ele><time>2026-03-22T14:28:09.357Z</time></trkpt><trkpt lat="43.06691" lon="13.0821633"><ele>444.0</ele><time>2026-03-22T14:28:10.369Z</time></trkpt><trkpt lat="43.0667533" lon="13.0822583"><ele>441.66666666666663</ele><time>2026-03-22T14:28:11.345Z</time></trkpt><trkpt lat="43.066595" lon="13.0823583"><ele>439.3333333333333</ele><time>2026-03-22T14:28:12.335Z</time></trkpt><trkpt lat="43.06643" lon="13.0824667"><ele>437.0</ele><time>2026-03-22T14:28:13.347Z</time></trkpt><trkpt lat="43.06625" lon="13.082555"><ele>437.0</ele><time>2026-03-22T14:28:14.397Z</time></trkpt><trkpt lat="43.06607" lon="13.0826083"><ele>437.0</ele><time>2026-03-22T14:28:15.338Z</time></trkpt><trkpt lat="43.0658883" lon="13.0826117"><ele>437.0</ele><time>2026-03-22T14:28:16.341Z</time></trkpt><trkpt lat="43.065705" lon="13.08257"><ele>436.66666666666663</ele><time>2026-03-22T14:28:17.345Z</time></trkpt><trkpt lat="43.065525" lon="13.0824867"><ele>436.33333333333337</ele><time>2026-03-22T14:28:18.355Z</time></trkpt><trkpt lat="43.06536" lon="13.0824117"><ele>436.0</ele><time>2026-03-22T14:28:19.337Z</time></trkpt><trkpt lat="43.065225" lon="13.0822967"><ele>437.0</ele><time>2026-03-22T14:28:20.37Z</time></trkpt><trkpt lat="43.06509" lon="13.08222"><ele>438.0</ele><time>2026-03-22T14:28:21.349Z</time></trkpt><trkpt lat="43.06497" lon="13.0821433"><ele>439.0</ele><time>2026-03-22T14:28:22.361Z</time></trkpt><trkpt lat="43.064855" lon="13.08209"><ele>440.0</ele><time>2026-03-22T14:28:23.363Z</time></trkpt><trkpt lat="43.0647267" lon="13.0820683"><ele>440.0</ele><time>2026-03-22T14:28:24.363Z</time></trkpt><trkpt lat="43.0645967" lon="13.0820717"><ele>440.0</ele><time>2026-03-22T14:28:25.365Z</time></trkpt><trkpt lat="43.0644683" lon="13.0820767"><ele>440.0</ele><time>2026-03-22T14:28:26.386Z</time></trkpt><trkpt lat="43.0643383" lon="13.0820833"><ele>440.0</ele><time>2026-03-22T14:28:27.357Z</time></trkpt><trkpt lat="43.0642117" lon="13.0821117"><ele>439.5</ele><time>2026-03-22T14:28:28.342Z</time></trkpt><trkpt lat="43.06408" lon="13.08217"><ele>439.0</ele><time>2026-03-22T14:28:29.359Z</time></trkpt><trkpt lat="43.0639367" lon="13.08225"><ele>438.5</ele><time>2026-03-22T14:28:30.36Z</time></trkpt><trkpt lat="43.0637933" lon="13.082275"><ele>438.0</ele><time>2026-03-22T14:28:31.347Z</time></trkpt><trkpt lat="43.063645" lon="13.082305"><ele>438.0</ele><time>2026-03-22T14:28:32.407Z</time></trkpt><trkpt lat="43.0635067" lon="13.082325"><ele>438.0</ele><time>2026-03-22T14:28:33.363Z</time></trkpt><trkpt lat="43.063385" lon="13.0823417"><ele>438.0</ele><time>2026-03-22T14:28:34.362Z</time></trkpt><trkpt lat="43.0632733" lon="13.0823783"><ele>438.0</ele><time>2026-03-22T14:28:35.351Z</time></trkpt><trkpt lat="43.06317" lon="13.0824333"><ele>439.0</ele><time>2026-03-22T14:28:36.354Z</time></trkpt><trkpt lat="43.0630733" lon="13.0825083"><ele>440.0</ele><time>2026-03-22T14:28:37.359Z</time></trkpt><trkpt lat="43.0629817" lon="13.0826467"><ele>441.0</ele><time>2026-03-22T14:28:38.399Z</time></trkpt><trkpt lat="43.0629" lon="13.0828033"><ele>442.0</ele><time>2026-03-22T14:28:39.358Z</time></trkpt><trkpt lat="43.0628433" lon="13.0829917"><ele>442.0</ele><time>2026-03-22T14:28:40.353Z</time></trkpt><trkpt lat="43.0628217" lon="13.0832117"><ele>442.0</ele><time>2026-03-22T14:28:41.357Z</time></trkpt><trkpt lat="43.0627717" lon="13.0833983"><ele>442.0</ele><time>2026-03-22T14:28:42.359Z</time></trkpt><trkpt lat="43.06273" lon="13.08358"><ele>442.0</ele><time>2026-03-22T14:28:43.364Z</time></trkpt><trkpt lat="43.06269" lon="13.083755"><ele>442.25</ele><time>2026-03-22T14:28:44.392Z</time></trkpt><trkpt lat="43.062645" lon="13.0839233"><ele>442.5</ele><time>2026-03-22T14:28:45.356Z</time></trkpt><trkpt lat="43.0626" lon="13.0840817"><ele>442.75</ele><time>2026-03-22T14:28:46.362Z</time></trkpt><trkpt lat="43.062555" lon="13.0842333"><ele>443.0</ele><time>2026-03-22T14:28:47.359Z</time></trkpt><trkpt lat="43.06251" lon="13.0843767"><ele>443.4</ele><time>2026-03-22T14:28:48.358Z</time></trkpt><trkpt lat="43.0624667" lon="13.0845117"><ele>443.79999999999995</ele><time>2026-03-22T14:28:49.362Z</time></trkpt><trkpt lat="43.0624217" lon="13.0846433"><ele>444.2</ele><time>2026-03-22T14:28:50.392Z</time></trkpt><trkpt lat="43.0623717" lon="13.084745"><ele>444.6</ele><time>2026-03-22T14:28:51.352Z</time></trkpt><trkpt lat="43.06231" lon="13.08482"><ele>445.0</ele><time>2026-03-22T14:28:52.368Z</time></trkpt><trkpt lat="43.0622317" lon="13.0848717"><ele>445.33333333333337</ele><time>2026-03-22T14:28:53.371Z</time></trkpt><trkpt lat="43.062135" lon="13.08489"><ele>445.6666666666667</ele><time>2026-03-22T14:28:54.358Z</time></trkpt><trkpt lat="43.062035" lon="13.0849067"><ele>446.0</ele><time>2026-03-22T14:28:55.356Z</time></trkpt><trkpt lat="43.0619517" lon="13.0849217"><ele>446.33333333333337</ele><time>2026-03-22T14:28:56.418Z</time></trkpt><trkpt lat="43.0618767" lon="13.084945"><ele>446.6666666666667</ele><time>2026-03-22T14:28:57.35Z</time></trkpt><trkpt lat="43.06179" lon="13.0849567"><ele>447.0</ele><time>2026-03-22T14:28:59.354Z</time></trkpt><trkpt lat="43.0617067" lon="13.0849333"><ele>447.0</ele><time>2026-03-22T14:29:05.357Z</time></trkpt><trkpt lat="43.0615833" lon="13.0849067"><ele>447.00000000000006</ele><time>2026-03-22T14:29:07.361Z</time></trkpt><trkpt lat="43.0615117" lon="13.0848983"><ele>447.00000000000006</ele><time>2026-03-22T14:29:08.388Z</time></trkpt><trkpt lat="43.0614333" lon="13.0848967"><ele>447.0</ele><time>2026-03-22T14:29:09.35Z</time></trkpt><trkpt lat="43.0613417" lon="13.08489"><ele>447.0</ele><time>2026-03-22T14:29:10.356Z</time></trkpt><trkpt lat="43.0612383" lon="13.0848867"><ele>447.0</ele><time>2026-03-22T14:29:11.36Z</time></trkpt><trkpt lat="43.061125" lon="13.0848867"><ele>447.00000000000006</ele><time>2026-03-22T14:29:12.362Z</time></trkpt><trkpt lat="43.06101" lon="13.08489"><ele>447.00000000000006</ele><time>2026-03-22T14:29:13.355Z</time></trkpt><trkpt lat="43.0609083" lon="13.08489"><ele>447.0</ele><time>2026-03-22T14:29:14.388Z</time></trkpt><trkpt lat="43.06082" lon="13.0848967"><ele>447.0</ele><time>2026-03-22T14:29:15.353Z</time></trkpt><trkpt lat="43.0607467" lon="13.0849183"><ele>449.8</ele><time>2026-03-22T14:29:16.374Z</time></trkpt><trkpt lat="43.0606867" lon="13.0849483"><ele>452.6</ele><time>2026-03-22T14:29:17.368Z</time></trkpt><trkpt lat="43.06061" lon="13.0850633"><ele>455.40000000000003</ele><time>2026-03-22T14:29:19.356Z</time></trkpt><trkpt lat="43.0605633" lon="13.0851683"><ele>458.20000000000005</ele><time>2026-03-22T14:29:20.388Z</time></trkpt><trkpt lat="43.0605117" lon="13.085275"><ele>461.0</ele><time>2026-03-22T14:29:21.361Z</time></trkpt><trkpt lat="43.0604567" lon="13.0853967"><ele>461.0</ele><time>2026-03-22T14:29:22.357Z</time></trkpt><trkpt lat="43.06039" lon="13.085515"><ele>461.0</ele><time>2026-03-22T14:29:23.359Z</time></trkpt><trkpt lat="43.0603133" lon="13.0856233"><ele>461.0</ele><time>2026-03-22T14:29:24.35Z</time></trkpt><trkpt lat="43.0602383" lon="13.0857283"><ele>461.0</ele><time>2026-03-22T14:29:25.361Z</time></trkpt><trkpt lat="43.0601583" lon="13.085825"><ele>461.0</ele><time>2026-03-22T14:29:26.415Z</time></trkpt><trkpt lat="43.0600767" lon="13.085925"><ele>462.5</ele><time>2026-03-22T14:29:27.354Z</time></trkpt><trkpt lat="43.0599833" lon="13.08602"><ele>464.0</ele><time>2026-03-22T14:29:28.359Z</time></trkpt><trkpt lat="43.0598767" lon="13.0861117"><ele>465.5</ele><time>2026-03-22T14:29:29.36Z</time></trkpt><trkpt lat="43.0597717" lon="13.0862067"><ele>467.0</ele><time>2026-03-22T14:29:30.357Z</time></trkpt><trkpt lat="43.0596583" lon="13.0862983"><ele>467.5</ele><time>2026-03-22T14:29:31.358Z</time></trkpt><trkpt lat="43.0595517" lon="13.086385"><ele>468.0</ele><time>2026-03-22T14:29:32.413Z</time></trkpt><trkpt lat="43.0594467" lon="13.08647"><ele>468.5</ele><time>2026-03-22T14:29:33.352Z</time></trkpt><trkpt lat="43.0593433" lon="13.0865517"><ele>469.0</ele><time>2026-03-22T14:29:34.358Z</time></trkpt><trkpt lat="43.0592383" lon="13.0866317"><ele>469.5</ele><time>2026-03-22T14:29:35.352Z</time></trkpt><trkpt lat="43.0591367" lon="13.0867133"><ele>470.0</ele><time>2026-03-22T14:29:36.354Z</time></trkpt><trkpt lat="43.0590317" lon="13.0867933"><ele>470.5</ele><time>2026-03-22T14:29:37.358Z</time></trkpt><trkpt lat="43.0589267" lon="13.0868683"><ele>471.0</ele><time>2026-03-22T14:29:38.39Z</time></trkpt><trkpt lat="43.05883" lon="13.0869367"><ele>471.0</ele><time>2026-03-22T14:29:39.354Z</time></trkpt><trkpt lat="43.0587367" lon="13.08702"><ele>471.0</ele><time>2026-03-22T14:29:40.355Z</time></trkpt><trkpt lat="43.0586417" lon="13.087125"><ele>471.0</ele><time>2026-03-22T14:29:41.36Z</time></trkpt><trkpt lat="43.05856" lon="13.0872633"><ele>471.0</ele><time>2026-03-22T14:29:42.365Z</time></trkpt><trkpt lat="43.0584983" lon="13.087425"><ele>473.75</ele><time>2026-03-22T14:29:43.357Z</time></trkpt><trkpt lat="43.0584733" lon="13.087605"><ele>476.5</ele><time>2026-03-22T14:29:44.401Z</time></trkpt><trkpt lat="43.0584733" lon="13.0877933"><ele>479.25</ele><time>2026-03-22T14:29:45.358Z</time></trkpt><trkpt lat="43.0584717" lon="13.087975"><ele>482.0</ele><time>2026-03-22T14:29:46.361Z</time></trkpt><trkpt lat="43.0584567" lon="13.088155"><ele>484.5</ele><time>2026-03-22T14:29:47.357Z</time></trkpt><trkpt lat="43.0584467" lon="13.088335"><ele>487.0</ele><time>2026-03-22T14:29:48.357Z</time></trkpt><trkpt lat="43.058445" lon="13.0885217"><ele>489.5</ele><time>2026-03-22T14:29:49.356Z</time></trkpt><trkpt lat="43.058455" lon="13.0887033"><ele>492.0</ele><time>2026-03-22T14:29:50.394Z</time></trkpt><trkpt lat="43.058475" lon="13.08888"><ele>492.0</ele><time>2026-03-22T14:29:51.349Z</time></trkpt><trkpt lat="43.0584933" lon="13.0890517"><ele>492.0</ele><time>2026-03-22T14:29:52.343Z</time></trkpt><trkpt lat="43.0585083" lon="13.08922"><ele>492.0</ele><time>2026-03-22T14:29:53.357Z</time></trkpt><trkpt lat="43.0585083" lon="13.0893833"><ele>492.0</ele><time>2026-03-22T14:29:54.353Z</time></trkpt><trkpt lat="43.0584867" lon="13.089535"><ele>493.8</ele><time>2026-03-22T14:29:55.359Z</time></trkpt><trkpt lat="43.0584467" lon="13.0896767"><ele>495.6</ele><time>2026-03-22T14:29:56.409Z</time></trkpt><trkpt lat="43.0583833" lon="13.08981"><ele>497.40000000000003</ele><time>2026-03-22T14:29:57.352Z</time></trkpt><trkpt lat="43.0583083" lon="13.0899183"><ele>499.20000000000005</ele><time>2026-03-22T14:29:58.35Z</time></trkpt><trkpt lat="43.0582133" lon="13.0899967"><ele>501.0</ele><time>2026-03-22T14:29:59.344Z</time></trkpt><trkpt lat="43.058095" lon="13.0900483"><ele>505.0</ele><time>2026-03-22T14:30:00.358Z</time></trkpt><trkpt lat="43.05796" lon="13.0900833"><ele>509.0</ele><time>2026-03-22T14:30:01.359Z</time></trkpt><trkpt lat="43.0578" lon="13.090105"><ele>513.0</ele><time>2026-03-22T14:30:02.415Z</time></trkpt><trkpt lat="43.0576217" lon="13.0901183"><ele>511.66666666666663</ele><time>2026-03-22T14:30:03.352Z</time></trkpt><trkpt lat="43.05745" lon="13.0901333"><ele>510.3333333333333</ele><time>2026-03-22T14:30:04.36Z</time></trkpt><trkpt lat="43.0572983" lon="13.0901667"><ele>509.0</ele><time>2026-03-22T14:30:05.368Z</time></trkpt><trkpt lat="43.0571583" lon="13.0902217"><ele>509.0</ele><time>2026-03-22T14:30:06.358Z</time></trkpt><trkpt lat="43.0570217" lon="13.0903083"><ele>509.0</ele><time>2026-03-22T14:30:07.349Z</time></trkpt><trkpt lat="43.05688" lon="13.0904383"><ele>509.0</ele><time>2026-03-22T14:30:08.392Z</time></trkpt><trkpt lat="43.056735" lon="13.0905967"><ele>511.66666666666663</ele><time>2026-03-22T14:30:09.354Z</time></trkpt><trkpt lat="43.0565867" lon="13.0907617"><ele>514.3333333333334</ele><time>2026-03-22T14:30:10.347Z</time></trkpt><trkpt lat="43.0564333" lon="13.0909333"><ele>517.0</ele><time>2026-03-22T14:30:11.357Z</time></trkpt><trkpt lat="43.0562783" lon="13.0910817"><ele>517.0</ele><time>2026-03-22T14:30:12.353Z</time></trkpt><trkpt lat="43.0561233" lon="13.0912383"><ele>517.0</ele><time>2026-03-22T14:30:13.355Z</time></trkpt><trkpt lat="43.0559717" lon="13.0913983"><ele>517.0</ele><time>2026-03-22T14:30:14.396Z</time></trkpt><trkpt lat="43.055825" lon="13.09154"><ele>522.6666666666667</ele><time>2026-03-22T14:30:15.355Z</time></trkpt><trkpt lat="43.0556867" lon="13.0916733"><ele>528.3333333333334</ele><time>2026-03-22T14:30:16.352Z</time></trkpt><trkpt lat="43.05556" lon="13.09179"><ele>534.0</ele><time>2026-03-22T14:30:17.354Z</time></trkpt><trkpt lat="43.0554533" lon="13.0919"><ele>534.0</ele><time>2026-03-22T14:30:18.367Z</time></trkpt><trkpt lat="43.0553817" lon="13.0920117"><ele>534.0</ele><time>2026-03-22T14:30:19.365Z</time></trkpt><trkpt lat="43.05537" lon="13.0921133"><ele>534.0</ele><time>2026-03-22T14:30:20.39Z</time></trkpt><trkpt lat="43.0554317" lon="13.0922167"><ele>534.0</ele><time>2026-03-22T14:30:21.369Z</time></trkpt><trkpt lat="43.0555183" lon="13.0923067"><ele>534.0</ele><time>2026-03-22T14:30:22.358Z</time></trkpt><trkpt lat="43.0555783" lon="13.0923733"><ele>537.3333333333334</ele><time>2026-03-22T14:30:23.359Z</time></trkpt><trkpt lat="43.0556317" lon="13.092425"><ele>540.6666666666666</ele><time>2026-03-22T14:30:24.357Z</time></trkpt><trkpt lat="43.0556917" lon="13.092495"><ele>544.0</ele><time>2026-03-22T14:30:26.418Z</time></trkpt><trkpt lat="43.05563" lon="13.0925233"><ele>547.3333333333333</ele><time>2026-03-22T14:30:30.356Z</time></trkpt><trkpt lat="43.055525" lon="13.0925617"><ele>550.6666666666666</ele><time>2026-03-22T14:30:32.411Z</time></trkpt><trkpt lat="43.0554633" lon="13.0925967"><ele>554.0</ele><time>2026-03-22T14:30:33.353Z</time></trkpt><trkpt lat="43.0553983" lon="13.092625"><ele>554.0</ele><time>2026-03-22T14:30:34.359Z</time></trkpt><trkpt lat="43.0553333" lon="13.0926483"><ele>554.0</ele><time>2026-03-22T14:30:35.353Z</time></trkpt><trkpt lat="43.055265" lon="13.0926733"><ele>554.0</ele><time>2026-03-22T14:30:36.358Z</time></trkpt><trkpt lat="43.0551983" lon="13.0927"><ele>554.0</ele><time>2026-03-22T14:30:37.352Z</time></trkpt><trkpt lat="43.0551317" lon="13.0927333"><ele>554.0</ele><time>2026-03-22T14:30:38.389Z</time></trkpt><trkpt lat="43.0550667" lon="13.092775"><ele>554.0</ele><time>2026-03-22T14:30:39.355Z</time></trkpt><trkpt lat="43.0549983" lon="13.0928133"><ele>554.0</ele><time>2026-03-22T14:30:40.359Z</time></trkpt><trkpt lat="43.05493" lon="13.09284"><ele>555.5</ele><time>2026-03-22T14:30:41.356Z</time></trkpt><trkpt lat="43.05486" lon="13.0928617"><ele>557.0</ele><time>2026-03-22T14:30:42.354Z</time></trkpt><trkpt lat="43.0547933" lon="13.0928817"><ele>558.5</ele><time>2026-03-22T14:30:43.354Z</time></trkpt><trkpt lat="43.0547233" lon="13.0929083"><ele>560.0</ele><time>2026-03-22T14:30:44.393Z</time></trkpt><trkpt lat="43.054615" lon="13.0929583"><ele>561.5</ele><time>2026-03-22T14:30:46.363Z</time></trkpt><trkpt lat="43.0545333" lon="13.0930067"><ele>563.0</ele><time>2026-03-22T14:30:48.36Z</time></trkpt><trkpt lat="43.054445" lon="13.0930867"><ele>563.0</ele><time>2026-03-22T14:30:50.395Z</time></trkpt><trkpt lat="43.0543883" lon="13.093145"><ele>563.0</ele><time>2026-03-22T14:30:51.356Z</time></trkpt><trkpt lat="43.0543133" lon="13.0932117"><ele>563.0</ele><time>2026-03-22T14:30:52.361Z</time></trkpt><trkpt lat="43.05423" lon="13.0932917"><ele>563.0</ele><time>2026-03-22T14:30:53.361Z</time></trkpt><trkpt lat="43.054165" lon="13.0933833"><ele>563.0</ele><time>2026-03-22T14:30:54.342Z</time></trkpt><trkpt lat="43.0541033" lon="13.0934717"><ele>563.0</ele><time>2026-03-22T14:30:55.342Z</time></trkpt><trkpt lat="43.0540583" lon="13.09354"><ele>562.8333333333333</ele><time>2026-03-22T14:30:56.386Z</time></trkpt><trkpt lat="43.0540167" lon="13.093615"><ele>562.6666666666666</ele><time>2026-03-22T14:30:58.336Z</time></trkpt><trkpt lat="43.0540383" lon="13.093525"><ele>562.5</ele><time>2026-03-22T14:31:03.353Z</time></trkpt><trkpt lat="43.0539983" lon="13.0936133"><ele>562.3333333333334</ele><time>2026-03-22T14:31:32.406Z</time></trkpt><trkpt lat="43.053925" lon="13.0936733"><ele>562.1666666666667</ele><time>2026-03-22T14:31:34.342Z</time></trkpt><trkpt lat="43.05385" lon="13.09374"><ele>562.0</ele><time>2026-03-22T14:31:36.354Z</time></trkpt><trkpt lat="43.0537533" lon="13.0937967"><ele>562.0</ele><time>2026-03-22T14:31:38.385Z</time></trkpt><trkpt lat="43.0536917" lon="13.093825"><ele>562.0</ele><time>2026-03-22T14:31:39.363Z</time></trkpt><trkpt lat="43.0536283" lon="13.0938533"><ele>562.0</ele><time>2026-03-22T14:31:40.352Z</time></trkpt><trkpt lat="43.0535667" lon="13.0938767"><ele>562.0</ele><time>2026-03-22T14:31:41.36Z</time></trkpt><trkpt lat="43.0534433" lon="13.093905"><ele>562.0</ele><time>2026-03-22T14:31:43.356Z</time></trkpt><trkpt lat="43.053345" lon="13.09394"><ele>562.0</ele><time>2026-03-22T14:31:45.35Z</time></trkpt><trkpt lat="43.0532833" lon="13.0939883"><ele>562.0</ele><time>2026-03-22T14:31:47.356Z</time></trkpt><trkpt lat="43.0531967" lon="13.0940717"><ele>562.0</ele><time>2026-03-22T14:31:49.357Z</time></trkpt><trkpt lat="43.0531533" lon="13.0941467"><ele>562.0</ele><time>2026-03-22T14:31:50.386Z</time></trkpt><trkpt lat="43.0531133" lon="13.0942267"><ele>562.0</ele><time>2026-03-22T14:31:51.355Z</time></trkpt><trkpt lat="43.05308" lon="13.0943"><ele>562.0</ele><time>2026-03-22T14:31:52.357Z</time></trkpt><trkpt lat="43.0530267" lon="13.094445"><ele>562.0</ele><time>2026-03-22T14:31:54.343Z</time></trkpt><trkpt lat="43.0529867" lon="13.0946"><ele>564.3333333333334</ele><time>2026-03-22T14:31:56.404Z</time></trkpt><trkpt lat="43.052955" lon="13.09468"><ele>566.6666666666667</ele><time>2026-03-22T14:31:57.346Z</time></trkpt><trkpt lat="43.052865" lon="13.0947883"><ele>569.0</ele><time>2026-03-22T14:31:59.351Z</time></trkpt><trkpt lat="43.0528017" lon="13.09482"><ele>571.3333333333334</ele><time>2026-03-22T14:32:00.349Z</time></trkpt><trkpt lat="43.0527317" lon="13.0948283"><ele>573.6666666666666</ele><time>2026-03-22T14:32:01.349Z</time></trkpt><trkpt lat="43.0526567" lon="13.0948333"><ele>576.0</ele><time>2026-03-22T14:32:02.401Z</time></trkpt><trkpt lat="43.052585" lon="13.0948367"><ele>576.0</ele><time>2026-03-22T14:32:03.349Z</time></trkpt><trkpt lat="43.0525067" lon="13.0948517"><ele>576.0</ele><time>2026-03-22T14:32:04.357Z</time></trkpt><trkpt lat="43.0524233" lon="13.0948683"><ele>576.0</ele><time>2026-03-22T14:32:05.35Z</time></trkpt><trkpt lat="43.0523517" lon="13.0948817"><ele>576.0</ele><time>2026-03-22T14:32:06.345Z</time></trkpt><trkpt lat="43.052285" lon="13.0948817"><ele>576.0</ele><time>2026-03-22T14:32:07.349Z</time></trkpt><trkpt lat="43.0521867" lon="13.0948783"><ele>576.0</ele><time>2026-03-22T14:32:09.347Z</time></trkpt><trkpt lat="43.0520983" lon="13.0948967"><ele>577.2</ele><time>2026-03-22T14:32:11.343Z</time></trkpt><trkpt lat="43.0519933" lon="13.094895"><ele>578.4000000000001</ele><time>2026-03-22T14:32:13.351Z</time></trkpt><trkpt lat="43.0518883" lon="13.0948667"><ele>579.6</ele><time>2026-03-22T14:32:15.347Z</time></trkpt><trkpt lat="43.0517783" lon="13.09485"><ele>580.8000000000001</ele><time>2026-03-22T14:32:17.351Z</time></trkpt><trkpt lat="43.05168" lon="13.0949017"><ele>582.0</ele><time>2026-03-22T14:32:19.35Z</time></trkpt><trkpt lat="43.0516167" lon="13.0949633"><ele>587.0</ele><time>2026-03-22T14:32:22.351Z</time></trkpt><trkpt lat="43.05157" lon="13.0950317"><ele>592.0</ele><time>2026-03-22T14:32:28.359Z</time></trkpt><trkpt lat="43.0514683" lon="13.09513"><ele>597.0</ele><time>2026-03-22T14:32:45.375Z</time></trkpt><trkpt lat="43.0513867" lon="13.095235"><ele>602.0</ele><time>2026-03-22T14:32:58.359Z</time></trkpt><trkpt lat="43.0513417" lon="13.09534"><ele>607.0</ele><time>2026-03-22T14:33:26.413Z</time></trkpt><trkpt lat="43.0512733" lon="13.0953917"><ele>607.0</ele><time>2026-03-22T14:34:01.348Z</time></trkpt><trkpt lat="43.0511967" lon="13.09542"><ele>607.0</ele><time>2026-03-22T14:34:04.346Z</time></trkpt><trkpt lat="43.0511183" lon="13.0954567"><ele>607.0</ele><time>2026-03-22T14:34:07.355Z</time></trkpt><trkpt lat="43.0510367" lon="13.0955267"><ele>607.0</ele><time>2026-03-22T14:34:10.348Z</time></trkpt><trkpt lat="43.0509783" lon="13.095575"><ele>607.0</ele><time>2026-03-22T14:34:12.349Z</time></trkpt><trkpt lat="43.05092" lon="13.0956183"><ele>607.0</ele><time>2026-03-22T14:34:15.346Z</time></trkpt><trkpt lat="43.05083" lon="13.0956667"><ele>606.3333333333334</ele><time>2026-03-22T14:34:18.352Z</time></trkpt><trkpt lat="43.05075" lon="13.0956967"><ele>605.6666666666667</ele><time>2026-03-22T14:34:20.394Z</time></trkpt><trkpt lat="43.050675" lon="13.0957233"><ele>605.0</ele><time>2026-03-22T14:34:22.347Z</time></trkpt><trkpt lat="43.0505983" lon="13.0957833"><ele>604.3333333333334</ele><time>2026-03-22T14:34:35.362Z</time></trkpt><trkpt lat="43.05054" lon="13.0958417"><ele>603.6666666666666</ele><time>2026-03-22T14:34:37.368Z</time></trkpt><trkpt lat="43.0504567" lon="13.095895"><ele>603.0</ele><time>2026-03-22T14:34:39.35Z</time></trkpt><trkpt lat="43.050345" lon="13.09593"><ele>605.4</ele><time>2026-03-22T14:34:41.354Z</time></trkpt><trkpt lat="43.0502233" lon="13.0959667"><ele>607.8</ele><time>2026-03-22T14:34:43.354Z</time></trkpt><trkpt lat="43.0501067" lon="13.096005"><ele>610.2</ele><time>2026-03-22T14:34:45.35Z</time></trkpt><trkpt lat="43.0500017" lon="13.0960433"><ele>612.6</ele><time>2026-03-22T14:34:47.349Z</time></trkpt><trkpt lat="43.0499183" lon="13.096085"><ele>615.0</ele><time>2026-03-22T14:34:49.354Z</time></trkpt><trkpt lat="43.04983" lon="13.0961317"><ele>617.6</ele><time>2026-03-22T14:34:51.351Z</time></trkpt><trkpt lat="43.0497283" lon="13.0961833"><ele>620.2</ele><time>2026-03-22T14:34:53.368Z</time></trkpt><trkpt lat="43.0496133" lon="13.0962433"><ele>622.8</ele><time>2026-03-22T14:34:55.357Z</time></trkpt><trkpt lat="43.049505" lon="13.096255"><ele>625.4</ele><time>2026-03-22T14:34:57.36Z</time></trkpt><trkpt lat="43.0494083" lon="13.0962583"><ele>628.0</ele><time>2026-03-22T14:34:59.357Z</time></trkpt><trkpt lat="43.04932" lon="13.0963117"><ele>628.0</ele><time>2026-03-22T14:35:01.351Z</time></trkpt><trkpt lat="43.049245" lon="13.0963733"><ele>628.0</ele><time>2026-03-22T14:35:03.35Z</time></trkpt><trkpt lat="43.0491667" lon="13.0964617"><ele>628.0</ele><time>2026-03-22T14:35:05.355Z</time></trkpt><trkpt lat="43.04909" lon="13.09653"><ele>628.0</ele><time>2026-03-22T14:35:07.355Z</time></trkpt><trkpt lat="43.0489933" lon="13.0965933"><ele>628.0</ele><time>2026-03-22T14:35:09.347Z</time></trkpt><trkpt lat="43.04891" lon="13.0966983"><ele>631.0</ele><time>2026-03-22T14:35:11.35Z</time></trkpt><trkpt lat="43.0488417" lon="13.09683"><ele>634.0</ele><time>2026-03-22T14:35:13.359Z</time></trkpt><trkpt lat="43.0488117" lon="13.0969483"><ele>637.0</ele><time>2026-03-22T14:35:15.366Z</time></trkpt><trkpt lat="43.0487967" lon="13.09713"><ele>640.0</ele><time>2026-03-22T14:35:17.365Z</time></trkpt><trkpt lat="43.0487967" lon="13.0972367"><ele>643.0</ele><time>2026-03-22T14:35:18.347Z</time></trkpt><trkpt lat="43.0487933" lon="13.0973317"><ele>643.0</ele><time>2026-03-22T14:35:19.372Z</time></trkpt><trkpt lat="43.04878" lon="13.0974167"><ele>643.0</ele><time>2026-03-22T14:35:20.389Z</time></trkpt><trkpt lat="43.0487183" lon="13.0975267"><ele>643.0</ele><time>2026-03-22T14:35:22.345Z</time></trkpt><trkpt lat="43.048655" lon="13.0976033"><ele>643.0</ele><time>2026-03-22T14:35:24.355Z</time></trkpt><trkpt lat="43.048615" lon="13.0977017"><ele>643.0</ele><time>2026-03-22T14:35:28.332Z</time></trkpt><trkpt lat="43.0485883" lon="13.0977883"><ele>643.0</ele><time>2026-03-22T14:35:30.345Z</time></trkpt><trkpt lat="43.0485217" lon="13.0978417"><ele>643.2</ele><time>2026-03-22T14:35:31.34Z</time></trkpt><trkpt lat="43.0484233" lon="13.097905"><ele>643.4</ele><time>2026-03-22T14:35:32.402Z</time></trkpt><trkpt lat="43.0483583" lon="13.0979383"><ele>643.6</ele><time>2026-03-22T14:35:33.347Z</time></trkpt><trkpt lat="43.0482417" lon="13.0979783"><ele>643.8000000000001</ele><time>2026-03-22T14:35:35.343Z</time></trkpt><trkpt lat="43.04817" lon="13.0980067"><ele>644.0</ele><time>2026-03-22T14:35:37.354Z</time></trkpt><trkpt lat="43.0481167" lon="13.09809"><ele>646.3333333333333</ele><time>2026-03-22T14:35:42.378Z</time></trkpt><trkpt lat="43.04808" lon="13.0981717"><ele>648.6666666666666</ele><time>2026-03-22T14:35:46.334Z</time></trkpt><trkpt lat="43.04801" lon="13.0982467"><ele>651.0</ele><time>2026-03-22T14:35:49.376Z</time></trkpt><trkpt lat="43.0479517" lon="13.09831"><ele>653.3333333333334</ele><time>2026-03-22T14:35:51.349Z</time></trkpt><trkpt lat="43.047895" lon="13.0983683"><ele>655.6666666666667</ele><time>2026-03-22T14:35:53.366Z</time></trkpt><trkpt lat="43.0478333" lon="13.0984467"><ele>658.0</ele><time>2026-03-22T14:35:57.35Z</time></trkpt><trkpt lat="43.0477533" lon="13.0985067"><ele>658.4</ele><time>2026-03-22T14:36:00.361Z</time></trkpt><trkpt lat="43.0476867" lon="13.098575"><ele>658.8</ele><time>2026-03-22T14:36:03.34Z</time></trkpt><trkpt lat="43.0476367" lon="13.0986417"><ele>659.2</ele><time>2026-03-22T14:36:07.339Z</time></trkpt><trkpt lat="43.0476017" lon="13.0987283"><ele>659.6</ele><time>2026-03-22T14:36:11.343Z</time></trkpt><trkpt lat="43.0474933" lon="13.0988733"><ele>660.0</ele><time>2026-03-22T14:36:26.408Z</time></trkpt><trkpt lat="43.0474133" lon="13.0988917"><ele>660.0</ele><time>2026-03-22T14:36:29.343Z</time></trkpt><trkpt lat="43.0473367" lon="13.0988683"><ele>660.0</ele><time>2026-03-22T14:36:31.358Z</time></trkpt><trkpt lat="43.0472683" lon="13.09893"><ele>660.0</ele><time>2026-03-22T14:36:34.352Z</time></trkpt><trkpt lat="43.0472733" lon="13.0990367"><ele>660.0</ele><time>2026-03-22T14:36:47.353Z</time></trkpt><trkpt lat="43.0472683" lon="13.0991467"><ele>660.0</ele><time>2026-03-22T14:36:50.386Z</time></trkpt><trkpt lat="43.04725" lon="13.0992617"><ele>660.0</ele><time>2026-03-22T14:36:52.349Z</time></trkpt><trkpt lat="43.04722" lon="13.0994217"><ele>661.8</ele><time>2026-03-22T14:36:54.344Z</time></trkpt><trkpt lat="43.047195" lon="13.0995133"><ele>663.6</ele><time>2026-03-22T14:36:55.337Z</time></trkpt><trkpt lat="43.0471633" lon="13.0996017"><ele>665.4000000000001</ele><time>2026-03-22T14:36:56.4Z</time></trkpt><trkpt lat="43.04711" lon="13.0997417"><ele>667.2</ele><time>2026-03-22T14:36:58.35Z</time></trkpt><trkpt lat="43.0470967" lon="13.0998667"><ele>669.0</ele><time>2026-03-22T14:37:00.367Z</time></trkpt><trkpt lat="43.0470933" lon="13.1000033"><ele>670.3333333333334</ele><time>2026-03-22T14:37:02.391Z</time></trkpt><trkpt lat="43.0470917" lon="13.1001683"><ele>671.6666666666666</ele><time>2026-03-22T14:37:04.351Z</time></trkpt><trkpt lat="43.0470833" lon="13.1002583"><ele>673.0</ele><time>2026-03-22T14:37:05.339Z</time></trkpt><trkpt lat="43.047065" lon="13.1003583"><ele>674.3333333333333</ele><time>2026-03-22T14:37:06.361Z</time></trkpt><trkpt lat="43.0470567" lon="13.100455"><ele>675.6666666666666</ele><time>2026-03-22T14:37:07.345Z</time></trkpt><trkpt lat="43.04707" lon="13.1005483"><ele>677.0</ele><time>2026-03-22T14:37:08.403Z</time></trkpt><trkpt lat="43.047065" lon="13.10064"><ele>677.0</ele><time>2026-03-22T14:37:09.346Z</time></trkpt><trkpt lat="43.0470583" lon="13.1007283"><ele>677.0</ele><time>2026-03-22T14:37:10.366Z</time></trkpt><trkpt lat="43.047025" lon="13.1009"><ele>677.0</ele><time>2026-03-22T14:37:12.342Z</time></trkpt><trkpt lat="43.0470167" lon="13.1009883"><ele>677.0</ele><time>2026-03-22T14:37:13.353Z</time></trkpt><trkpt lat="43.0469833" lon="13.1011567"><ele>677.0</ele><time>2026-03-22T14:37:15.351Z</time></trkpt><trkpt lat="43.0470033" lon="13.1012533"><ele>677.3333333333333</ele><time>2026-03-22T14:37:16.352Z</time></trkpt><trkpt lat="43.0470233" lon="13.1013533"><ele>677.6666666666666</ele><time>2026-03-22T14:37:17.338Z</time></trkpt><trkpt lat="43.047035" lon="13.1014683"><ele>678.0</ele><time>2026-03-22T14:37:18.371Z</time></trkpt><trkpt lat="43.0470433" lon="13.1015767"><ele>678.3333333333334</ele><time>2026-03-22T14:37:19.355Z</time></trkpt><trkpt lat="43.0470367" lon="13.1016733"><ele>678.6666666666667</ele><time>2026-03-22T14:37:20.39Z</time></trkpt><trkpt lat="43.0470367" lon="13.101765"><ele>679.0</ele><time>2026-03-22T14:37:21.35Z</time></trkpt><trkpt lat="43.0470333" lon="13.10187"><ele>678.8000000000001</ele><time>2026-03-22T14:37:22.347Z</time></trkpt><trkpt lat="43.047025" lon="13.1019867"><ele>678.6</ele><time>2026-03-22T14:37:23.354Z</time></trkpt><trkpt lat="43.0470133" lon="13.10212"><ele>678.4</ele><time>2026-03-22T14:37:24.349Z</time></trkpt><trkpt lat="43.0469933" lon="13.1022467"><ele>678.2</ele><time>2026-03-22T14:37:25.353Z</time></trkpt><trkpt lat="43.046965" lon="13.1023633"><ele>678.0</ele><time>2026-03-22T14:37:26.418Z</time></trkpt><trkpt lat="43.046925" lon="13.1024717"><ele>678.0</ele><time>2026-03-22T14:37:27.356Z</time></trkpt><trkpt lat="43.04689" lon="13.1025783"><ele>678.0</ele><time>2026-03-22T14:37:28.344Z</time></trkpt><trkpt lat="43.0468483" lon="13.10269"><ele>678.0</ele><time>2026-03-22T14:37:29.348Z</time></trkpt><trkpt lat="43.04681" lon="13.1027933"><ele>678.0</ele><time>2026-03-22T14:37:30.358Z</time></trkpt><trkpt lat="43.0467667" lon="13.1029017"><ele>678.0</ele><time>2026-03-22T14:37:31.356Z</time></trkpt><trkpt lat="43.04673" lon="13.1030083"><ele>678.0</ele><time>2026-03-22T14:37:32.4Z</time></trkpt><trkpt lat="43.0466867" lon="13.1031033"><ele>678.0</ele><time>2026-03-22T14:37:33.347Z</time></trkpt><trkpt lat="43.0466417" lon="13.1031917"><ele>678.0</ele><time>2026-03-22T14:37:34.346Z</time></trkpt><trkpt lat="43.046605" lon="13.103275"><ele>678.0</ele><time>2026-03-22T14:37:35.345Z</time></trkpt><trkpt lat="43.04657" lon="13.1033483"><ele>678.0</ele><time>2026-03-22T14:37:36.346Z</time></trkpt><trkpt lat="43.0465467" lon="13.1034333"><ele>678.0</ele><time>2026-03-22T14:37:37.358Z</time></trkpt><trkpt lat="43.0465317" lon="13.1035183"><ele>678.0</ele><time>2026-03-22T14:37:38.385Z</time></trkpt><trkpt lat="43.0465033" lon="13.1035983"><ele>678.0</ele><time>2026-03-22T14:37:39.342Z</time></trkpt><trkpt lat="43.0464683" lon="13.1036733"><ele>679.0</ele><time>2026-03-22T14:37:40.351Z</time></trkpt><trkpt lat="43.046425" lon="13.1037483"><ele>680.0</ele><time>2026-03-22T14:37:41.354Z</time></trkpt><trkpt lat="43.046385" lon="13.103825"><ele>681.0</ele><time>2026-03-22T14:37:42.356Z</time></trkpt><trkpt lat="43.046355" lon="13.1039217"><ele>682.0</ele><time>2026-03-22T14:37:43.351Z</time></trkpt><trkpt lat="43.0463317" lon="13.1040283"><ele>683.0</ele><time>2026-03-22T14:37:44.387Z</time></trkpt><trkpt lat="43.0462983" lon="13.1041267"><ele>684.0</ele><time>2026-03-22T14:37:45.346Z</time></trkpt><trkpt lat="43.0462583" lon="13.1042217"><ele>681.6666666666666</ele><time>2026-03-22T14:37:46.349Z</time></trkpt><trkpt lat="43.046215" lon="13.104305"><ele>679.3333333333334</ele><time>2026-03-22T14:37:47.356Z</time></trkpt><trkpt lat="43.0461783" lon="13.1043883"><ele>677.0</ele><time>2026-03-22T14:37:48.354Z</time></trkpt><trkpt lat="43.0461333" lon="13.1044633"><ele>674.6666666666667</ele><time>2026-03-22T14:37:49.352Z</time></trkpt><trkpt lat="43.046055" lon="13.1045517"><ele>672.3333333333334</ele><time>2026-03-22T14:37:51.35Z</time></trkpt><trkpt lat="43.0460033" lon="13.104625"><ele>670.0</ele><time>2026-03-22T14:37:53.337Z</time></trkpt><trkpt lat="43.045965" lon="13.1047133"><ele>670.0</ele><time>2026-03-22T14:37:55.335Z</time></trkpt><trkpt lat="43.045925" lon="13.1048517"><ele>670.0</ele><time>2026-03-22T14:37:57.348Z</time></trkpt><trkpt lat="43.0459017" lon="13.1049917"><ele>670.0</ele><time>2026-03-22T14:37:59.338Z</time></trkpt><trkpt lat="43.04589" lon="13.1050917"><ele>670.0</ele><time>2026-03-22T14:38:01.353Z</time></trkpt><trkpt lat="43.04583" lon="13.10518"><ele>670.0</ele><time>2026-03-22T14:38:04.346Z</time></trkpt><trkpt lat="43.045775" lon="13.1052533"><ele>672.8333333333334</ele><time>2026-03-22T14:38:06.344Z</time></trkpt><trkpt lat="43.0457233" lon="13.1053467"><ele>675.6666666666667</ele><time>2026-03-22T14:38:08.383Z</time></trkpt><trkpt lat="43.0456683" lon="13.105445"><ele>678.5</ele><time>2026-03-22T14:38:10.356Z</time></trkpt><trkpt lat="43.0456467" lon="13.10554"><ele>681.3333333333334</ele><time>2026-03-22T14:38:12.383Z</time></trkpt><trkpt lat="43.04562" lon="13.1056583"><ele>684.1666666666666</ele><time>2026-03-22T14:38:15.357Z</time></trkpt><trkpt lat="43.0456117" lon="13.1057567"><ele>687.0</ele><time>2026-03-22T14:38:17.344Z</time></trkpt><trkpt lat="43.0455367" lon="13.105845"><ele>689.1666666666666</ele><time>2026-03-22T14:38:21.364Z</time></trkpt><trkpt lat="43.0455183" lon="13.1059733"><ele>691.3333333333334</ele><time>2026-03-22T14:38:23.355Z</time></trkpt><trkpt lat="43.0455667" lon="13.1060333"><ele>693.5</ele><time>2026-03-22T14:38:24.356Z</time></trkpt><trkpt lat="43.045515" lon="13.1061283"><ele>695.6666666666667</ele><time>2026-03-22T14:38:26.441Z</time></trkpt><trkpt lat="43.045465" lon="13.1062317"><ele>697.8333333333334</ele><time>2026-03-22T14:38:28.339Z</time></trkpt><trkpt lat="43.0454417" lon="13.1063483"><ele>700.0</ele><time>2026-03-22T14:38:32.394Z</time></trkpt><trkpt lat="43.04538" lon="13.1064283"><ele>700.0</ele><time>2026-03-22T14:38:35.347Z</time></trkpt><trkpt lat="43.0453" lon="13.1064733"><ele>700.0</ele><time>2026-03-22T14:38:36.355Z</time></trkpt><trkpt lat="43.0452417" lon="13.1065767"><ele>700.0</ele><time>2026-03-22T14:38:38.373Z</time></trkpt><trkpt lat="43.0451517" lon="13.106705"><ele>700.0</ele><time>2026-03-22T14:38:40.338Z</time></trkpt><trkpt lat="43.0451067" lon="13.1067817"><ele>700.0</ele><time>2026-03-22T14:38:41.34Z</time></trkpt><trkpt lat="43.04501" lon="13.1068983"><ele>704.8333333333334</ele><time>2026-03-22T14:38:43.333Z</time></trkpt><trkpt lat="43.0449517" lon="13.1069483"><ele>709.6666666666667</ele><time>2026-03-22T14:38:44.382Z</time></trkpt><trkpt lat="43.044935" lon="13.1070383"><ele>714.5</ele><time>2026-03-22T14:38:56.401Z</time></trkpt><trkpt lat="43.0448833" lon="13.1071417"><ele>719.3333333333334</ele><time>2026-03-22T14:38:59.338Z</time></trkpt><trkpt lat="43.04483" lon="13.1072617"><ele>724.1666666666666</ele><time>2026-03-22T14:39:01.391Z</time></trkpt><trkpt lat="43.044765" lon="13.1073367"><ele>729.0</ele><time>2026-03-22T14:39:02.386Z</time></trkpt><trkpt lat="43.0447217" lon="13.1074233"><ele>729.0</ele><time>2026-03-22T14:39:03.337Z</time></trkpt><trkpt lat="43.0446633" lon="13.1075233"><ele>729.0</ele><time>2026-03-22T14:39:05.35Z</time></trkpt><trkpt lat="43.0446067" lon="13.1076017"><ele>729.0</ele><time>2026-03-22T14:39:07.343Z</time></trkpt><trkpt lat="43.0445567" lon="13.1076717"><ele>729.0</ele><time>2026-03-22T14:39:09.363Z</time></trkpt><trkpt lat="43.0444817" lon="13.1077383"><ele>729.0</ele><time>2026-03-22T14:39:12.358Z</time></trkpt><trkpt lat="43.0444067" lon="13.10777"><ele>729.0</ele><time>2026-03-22T14:39:16.351Z</time></trkpt><trkpt lat="43.044335" lon="13.107745"><ele>729.0</ele><time>2026-03-22T14:39:18.361Z</time></trkpt><trkpt lat="43.0442567" lon="13.1077217"><ele>729.0</ele><time>2026-03-22T14:39:20.369Z</time></trkpt><trkpt lat="43.04419" lon="13.1076633"><ele>729.0</ele><time>2026-03-22T14:39:22.345Z</time></trkpt><trkpt lat="43.044075" lon="13.1076433"><ele>729.0</ele><time>2026-03-22T14:39:24.352Z</time></trkpt><trkpt lat="43.0439533" lon="13.1076133"><ele>729.0</ele><time>2026-03-22T14:39:26.403Z</time></trkpt><trkpt lat="43.0438833" lon="13.1075983"><ele>731.0</ele><time>2026-03-22T14:39:27.341Z</time></trkpt><trkpt lat="43.0438183" lon="13.1075867"><ele>733.0</ele><time>2026-03-22T14:39:28.339Z</time></trkpt><trkpt lat="43.043745" lon="13.1075833"><ele>735.0</ele><time>2026-03-22T14:39:29.35Z</time></trkpt><trkpt lat="43.04367" lon="13.10759"><ele>737.0</ele><time>2026-03-22T14:39:30.353Z</time></trkpt><trkpt lat="43.0435883" lon="13.1076117"><ele>739.0</ele><time>2026-03-22T14:39:31.355Z</time></trkpt><trkpt lat="43.0435133" lon="13.107655"><ele>741.0</ele><time>2026-03-22T14:39:32.413Z</time></trkpt><trkpt lat="43.0434433" lon="13.107695"><ele>741.0</ele><time>2026-03-22T14:39:33.351Z</time></trkpt><trkpt lat="43.0433817" lon="13.1077183"><ele>741.0</ele><time>2026-03-22T14:39:34.354Z</time></trkpt><trkpt lat="43.0432767" lon="13.107755"><ele>741.0</ele><time>2026-03-22T14:39:36.353Z</time></trkpt><trkpt lat="43.043175" lon="13.1077417"><ele>741.0</ele><time>2026-03-22T14:39:38.403Z</time></trkpt><trkpt lat="43.0430867" lon="13.1077717"><ele>741.0</ele><time>2026-03-22T14:39:40.341Z</time></trkpt><trkpt lat="43.0429883" lon="13.1077567"><ele>741.1666666666666</ele><time>2026-03-22T14:39:42.355Z</time></trkpt><trkpt lat="43.0429183" lon="13.1077417"><ele>741.3333333333334</ele><time>2026-03-22T14:39:43.358Z</time></trkpt><trkpt lat="43.042835" lon="13.1077367"><ele>741.5</ele><time>2026-03-22T14:39:44.388Z</time></trkpt><trkpt lat="43.042755" lon="13.1077517"><ele>741.6666666666667</ele><time>2026-03-22T14:39:45.349Z</time></trkpt><trkpt lat="43.0426817" lon="13.1077667"><ele>741.8333333333334</ele><time>2026-03-22T14:39:46.35Z</time></trkpt><trkpt lat="43.042615" lon="13.1077867"><ele>742.0</ele><time>2026-03-22T14:39:47.355Z</time></trkpt><trkpt lat="43.0424967" lon="13.107815"><ele>744.8</ele><time>2026-03-22T14:39:49.347Z</time></trkpt><trkpt lat="43.0424133" lon="13.1078267"><ele>747.6</ele><time>2026-03-22T14:39:50.389Z</time></trkpt><trkpt lat="43.042315" lon="13.1078483"><ele>750.4</ele><time>2026-03-22T14:39:51.354Z</time></trkpt><trkpt lat="43.0422233" lon="13.107875"><ele>753.1999999999999</ele><time>2026-03-22T14:39:52.354Z</time></trkpt><trkpt lat="43.0421317" lon="13.1079017"><ele>756.0</ele><time>2026-03-22T14:39:53.341Z</time></trkpt><trkpt lat="43.0420317" lon="13.1079333"><ele>756.0</ele><time>2026-03-22T14:39:54.353Z</time></trkpt><trkpt lat="43.0419317" lon="13.107965"><ele>756.0</ele><time>2026-03-22T14:39:55.357Z</time></trkpt><trkpt lat="43.0418517" lon="13.10799"><ele>756.0</ele><time>2026-03-22T14:39:56.408Z</time></trkpt><trkpt lat="43.0417867" lon="13.108015"><ele>756.0</ele><time>2026-03-22T14:39:57.346Z</time></trkpt><trkpt lat="43.041725" lon="13.1080383"><ele>756.0</ele><time>2026-03-22T14:39:58.351Z</time></trkpt><trkpt lat="43.041665" lon="13.1080683"><ele>756.0</ele><time>2026-03-22T14:39:59.35Z</time></trkpt><trkpt lat="43.0416033" lon="13.10811"><ele>756.0</ele><time>2026-03-22T14:40:00.357Z</time></trkpt><trkpt lat="43.0415317" lon="13.1081567"><ele>758.0</ele><time>2026-03-22T14:40:01.345Z</time></trkpt><trkpt lat="43.0414533" lon="13.1082033"><ele>760.0</ele><time>2026-03-22T14:40:02.411Z</time></trkpt><trkpt lat="43.0413683" lon="13.1082483"><ele>762.0</ele><time>2026-03-22T14:40:03.355Z</time></trkpt><trkpt lat="43.0412833" lon="13.1083017"><ele>764.0</ele><time>2026-03-22T14:40:04.341Z</time></trkpt><trkpt lat="43.0412033" lon="13.108365"><ele>766.0</ele><time>2026-03-22T14:40:05.36Z</time></trkpt><trkpt lat="43.0411233" lon="13.1084233"><ele>766.6666666666667</ele><time>2026-03-22T14:40:06.341Z</time></trkpt><trkpt lat="43.0410417" lon="13.1084783"><ele>767.3333333333334</ele><time>2026-03-22T14:40:07.339Z</time></trkpt><trkpt lat="43.0409767" lon="13.1085433"><ele>768.0</ele><time>2026-03-22T14:40:08.388Z</time></trkpt><trkpt lat="43.040925" lon="13.108625"><ele>768.6666666666667</ele><time>2026-03-22T14:40:09.351Z</time></trkpt><trkpt lat="43.040875" lon="13.1087267"><ele>769.3333333333334</ele><time>2026-03-22T14:40:10.347Z</time></trkpt><trkpt lat="43.040825" lon="13.108825"><ele>770.0</ele><time>2026-03-22T14:40:11.346Z</time></trkpt><trkpt lat="43.0407783" lon="13.1088967"><ele>770.5000000000001</ele><time>2026-03-22T14:40:12.345Z</time></trkpt><trkpt lat="43.040725" lon="13.1089517"><ele>771.0</ele><time>2026-03-22T14:40:13.359Z</time></trkpt><trkpt lat="43.0406683" lon="13.1090017"><ele>771.5</ele><time>2026-03-22T14:40:14.389Z</time></trkpt><trkpt lat="43.04061" lon="13.1090667"><ele>772.0</ele><time>2026-03-22T14:40:15.347Z</time></trkpt><trkpt lat="43.0405467" lon="13.1091417"><ele>772.5000000000001</ele><time>2026-03-22T14:40:16.344Z</time></trkpt><trkpt lat="43.0404867" lon="13.1092217"><ele>773.0</ele><time>2026-03-22T14:40:17.342Z</time></trkpt><trkpt lat="43.0404367" lon="13.1093017"><ele>774.1666666666667</ele><time>2026-03-22T14:40:18.347Z</time></trkpt><trkpt lat="43.0403983" lon="13.10937"><ele>775.3333333333334</ele><time>2026-03-22T14:40:19.353Z</time></trkpt><trkpt lat="43.040355" lon="13.1094667"><ele>776.5</ele><time>2026-03-22T14:40:21.361Z</time></trkpt><trkpt lat="43.040375" lon="13.109585"><ele>777.6666666666667</ele><time>2026-03-22T14:40:23.347Z</time></trkpt><trkpt lat="43.040435" lon="13.1096383"><ele>778.8333333333334</ele><time>2026-03-22T14:40:24.367Z</time></trkpt><trkpt lat="43.0405333" lon="13.109685"><ele>780.0</ele><time>2026-03-22T14:40:25.368Z</time></trkpt><trkpt lat="43.0406583" lon="13.1097283"><ele>780.0</ele><time>2026-03-22T14:40:26.407Z</time></trkpt><trkpt lat="43.0407867" lon="13.1097783"><ele>780.0</ele><time>2026-03-22T14:40:27.357Z</time></trkpt><trkpt lat="43.0408967" lon="13.1098367"><ele>780.0</ele><time>2026-03-22T14:40:28.357Z</time></trkpt><trkpt lat="43.040985" lon="13.1099083"><ele>780.0</ele><time>2026-03-22T14:40:29.345Z</time></trkpt><trkpt lat="43.0410567" lon="13.1099867"><ele>780.0</ele><time>2026-03-22T14:40:30.374Z</time></trkpt><trkpt lat="43.041125" lon="13.11006"><ele>779.6</ele><time>2026-03-22T14:40:31.384Z</time></trkpt><trkpt lat="43.04119" lon="13.1101167"><ele>779.2</ele><time>2026-03-22T14:40:32.414Z</time></trkpt><trkpt lat="43.0412567" lon="13.11016"><ele>778.8</ele><time>2026-03-22T14:40:33.341Z</time></trkpt><trkpt lat="43.0413367" lon="13.1101667"><ele>778.4</ele><time>2026-03-22T14:40:34.354Z</time></trkpt><trkpt lat="43.0414467" lon="13.110145"><ele>778.0</ele><time>2026-03-22T14:40:35.365Z</time></trkpt><trkpt lat="43.0415533" lon="13.1101183"><ele>776.8</ele><time>2026-03-22T14:40:36.359Z</time></trkpt><trkpt lat="43.04167" lon="13.1100967"><ele>775.5999999999999</ele><time>2026-03-22T14:40:37.375Z</time></trkpt><trkpt lat="43.0417767" lon="13.11011"><ele>774.4000000000001</ele><time>2026-03-22T14:40:38.384Z</time></trkpt><trkpt lat="43.0418767" lon="13.1101367"><ele>773.2</ele><time>2026-03-22T14:40:39.348Z</time></trkpt><trkpt lat="43.041975" lon="13.1101983"><ele>772.0</ele><time>2026-03-22T14:40:40.358Z</time></trkpt><trkpt lat="43.0420633" lon="13.1102883"><ele>772.0</ele><time>2026-03-22T14:40:41.365Z</time></trkpt><trkpt lat="43.042145" lon="13.1104033"><ele>772.0</ele><time>2026-03-22T14:40:42.33Z</time></trkpt><trkpt lat="43.0422217" lon="13.1104917"><ele>772.0</ele><time>2026-03-22T14:40:43.345Z</time></trkpt><trkpt lat="43.042285" lon="13.1105867"><ele>772.0</ele><time>2026-03-22T14:40:44.395Z</time></trkpt><trkpt lat="43.0423433" lon="13.1106983"><ele>772.0</ele><time>2026-03-22T14:40:45.346Z</time></trkpt><trkpt lat="43.0423917" lon="13.1108167"><ele>770.6</ele><time>2026-03-22T14:40:46.34Z</time></trkpt><trkpt lat="43.0424483" lon="13.1109267"><ele>769.2</ele><time>2026-03-22T14:40:47.37Z</time></trkpt><trkpt lat="43.0425117" lon="13.1110283"><ele>767.8</ele><time>2026-03-22T14:40:48.336Z</time></trkpt><trkpt lat="43.0425767" lon="13.1111183"><ele>766.4</ele><time>2026-03-22T14:40:49.337Z</time></trkpt><trkpt lat="43.0426417" lon="13.1112083"><ele>765.0</ele><time>2026-03-22T14:40:50.37Z</time></trkpt><trkpt lat="43.0427" lon="13.1112967"><ele>765.0</ele><time>2026-03-22T14:40:51.374Z</time></trkpt><trkpt lat="43.0427567" lon="13.1113683"><ele>765.0</ele><time>2026-03-22T14:40:52.357Z</time></trkpt><trkpt lat="43.042815" lon="13.1114183"><ele>765.0</ele><time>2026-03-22T14:40:53.396Z</time></trkpt><trkpt lat="43.04292" lon="13.1114383"><ele>765.0</ele><time>2026-03-22T14:40:55.339Z</time></trkpt><trkpt lat="43.043025" lon="13.1113033"><ele>765.0</ele><time>2026-03-22T14:40:57.344Z</time></trkpt><trkpt lat="43.043085" lon="13.111205"><ele>765.0</ele><time>2026-03-22T14:40:58.344Z</time></trkpt><trkpt lat="43.0431433" lon="13.1111267"><ele>765.0</ele><time>2026-03-22T14:40:59.348Z</time></trkpt><trkpt lat="43.0432317" lon="13.1110767"><ele>765.0</ele><time>2026-03-22T14:41:01.348Z</time></trkpt><trkpt lat="43.0432717" lon="13.1111667"><ele>765.0</ele><time>2026-03-22T14:41:03.348Z</time></trkpt><trkpt lat="43.0432617" lon="13.11129"><ele>765.0</ele><time>2026-03-22T14:41:05.335Z</time></trkpt><trkpt lat="43.04324" lon="13.1113783"><ele>765.0</ele><time>2026-03-22T14:41:09.351Z</time></trkpt><trkpt lat="43.043315" lon="13.11134"><ele>762.4</ele><time>2026-03-22T14:41:14.386Z</time></trkpt><trkpt lat="43.0433983" lon="13.1113017"><ele>759.8</ele><time>2026-03-22T14:41:16.35Z</time></trkpt><trkpt lat="43.0434883" lon="13.1112767"><ele>757.2</ele><time>2026-03-22T14:41:18.362Z</time></trkpt><trkpt lat="43.0435983" lon="13.1112433"><ele>754.6</ele><time>2026-03-22T14:41:20.389Z</time></trkpt><trkpt lat="43.043695" lon="13.1112017"><ele>752.0</ele><time>2026-03-22T14:41:22.358Z</time></trkpt><trkpt lat="43.0437683" lon="13.1111417"><ele>752.0</ele><time>2026-03-22T14:41:24.352Z</time></trkpt><trkpt lat="43.0438667" lon="13.111065"><ele>752.0</ele><time>2026-03-22T14:41:26.419Z</time></trkpt><trkpt lat="43.0439717" lon="13.1109867"><ele>752.0</ele><time>2026-03-22T14:41:28.353Z</time></trkpt><trkpt lat="43.044085" lon="13.110945"><ele>752.0</ele><time>2026-03-22T14:41:30.347Z</time></trkpt><trkpt lat="43.0441833" lon="13.1108633"><ele>748.6</ele><time>2026-03-22T14:41:32.406Z</time></trkpt><trkpt lat="43.0442733" lon="13.110805"><ele>745.2</ele><time>2026-03-22T14:41:34.351Z</time></trkpt><trkpt lat="43.0443517" lon="13.1108217"><ele>741.8</ele><time>2026-03-22T14:41:36.356Z</time></trkpt><trkpt lat="43.0443883" lon="13.1108967"><ele>738.4</ele><time>2026-03-22T14:41:38.391Z</time></trkpt><trkpt lat="43.04435" lon="13.1110167"><ele>735.0</ele><time>2026-03-22T14:41:40.35Z</time></trkpt><trkpt lat="43.0442867" lon="13.11116"><ele>735.0</ele><time>2026-03-22T14:41:42.352Z</time></trkpt><trkpt lat="43.04421" lon="13.1112933"><ele>735.0</ele><time>2026-03-22T14:41:44.387Z</time></trkpt><trkpt lat="43.0441417" lon="13.1113783"><ele>735.0</ele><time>2026-03-22T14:41:45.353Z</time></trkpt><trkpt lat="43.04407" lon="13.1114517"><ele>735.0</ele><time>2026-03-22T14:41:46.345Z</time></trkpt><trkpt lat="43.0440017" lon="13.1115183"><ele>735.0</ele><time>2026-03-22T14:41:47.359Z</time></trkpt><trkpt lat="43.0439367" lon="13.11158"><ele>737.3333333333334</ele><time>2026-03-22T14:41:48.352Z</time></trkpt><trkpt lat="43.043875" lon="13.1116367"><ele>739.6666666666666</ele><time>2026-03-22T14:41:49.347Z</time></trkpt><trkpt lat="43.043815" lon="13.1116917"><ele>742.0</ele><time>2026-03-22T14:41:50.387Z</time></trkpt><trkpt lat="43.0437533" lon="13.1117667"><ele>744.3333333333333</ele><time>2026-03-22T14:41:51.355Z</time></trkpt><trkpt lat="43.0436933" lon="13.111865"><ele>746.6666666666666</ele><time>2026-03-22T14:41:52.352Z</time></trkpt><trkpt lat="43.0436233" lon="13.1119767"><ele>749.0</ele><time>2026-03-22T14:41:53.356Z</time></trkpt><trkpt lat="43.04357" lon="13.11208"><ele>749.0</ele><time>2026-03-22T14:41:54.36Z</time></trkpt><trkpt lat="43.0435217" lon="13.1121717"><ele>749.0</ele><time>2026-03-22T14:41:55.358Z</time></trkpt><trkpt lat="43.04347" lon="13.11225"><ele>749.0</ele><time>2026-03-22T14:41:56.403Z</time></trkpt><trkpt lat="43.0434067" lon="13.1123267"><ele>749.0</ele><time>2026-03-22T14:41:57.346Z</time></trkpt><trkpt lat="43.0433467" lon="13.1124117"><ele>749.0</ele><time>2026-03-22T14:41:58.353Z</time></trkpt><trkpt lat="43.043285" lon="13.1124967"><ele>749.0</ele><time>2026-03-22T14:41:59.35Z</time></trkpt><trkpt lat="43.0432083" lon="13.1125783"><ele>748.8333333333333</ele><time>2026-03-22T14:42:00.351Z</time></trkpt><trkpt lat="43.04313" lon="13.1126533"><ele>748.6666666666666</ele><time>2026-03-22T14:42:01.35Z</time></trkpt><trkpt lat="43.0430617" lon="13.1127117"><ele>748.5</ele><time>2026-03-22T14:42:02.406Z</time></trkpt><trkpt lat="43.04299" lon="13.1127717"><ele>748.3333333333334</ele><time>2026-03-22T14:42:03.347Z</time></trkpt><trkpt lat="43.0429083" lon="13.1128333"><ele>748.1666666666667</ele><time>2026-03-22T14:42:04.356Z</time></trkpt><trkpt lat="43.0428283" lon="13.112875"><ele>748.0</ele><time>2026-03-22T14:42:05.356Z</time></trkpt><trkpt lat="43.04275" lon="13.11289"><ele>748.0</ele><time>2026-03-22T14:42:06.348Z</time></trkpt><trkpt lat="43.0426833" lon="13.1128883"><ele>748.0</ele><time>2026-03-22T14:42:07.349Z</time></trkpt><trkpt lat="43.0425933" lon="13.11284"><ele>748.0</ele><time>2026-03-22T14:42:09.352Z</time></trkpt><trkpt lat="43.04253" lon="13.1128633"><ele>748.0</ele><time>2026-03-22T14:42:11.345Z</time></trkpt><trkpt lat="43.042545" lon="13.11297"><ele>748.0</ele><time>2026-03-22T14:42:13.36Z</time></trkpt><trkpt lat="43.0425633" lon="13.113155"><ele>748.0</ele><time>2026-03-22T14:42:15.358Z</time></trkpt><trkpt lat="43.0425917" lon="13.113255"><ele>746.6666666666667</ele><time>2026-03-22T14:42:16.34Z</time></trkpt><trkpt lat="43.04263" lon="13.113345"><ele>745.3333333333334</ele><time>2026-03-22T14:42:17.356Z</time></trkpt><trkpt lat="43.0426867" lon="13.1134917"><ele>744.0</ele><time>2026-03-22T14:42:19.35Z</time></trkpt><trkpt lat="43.0427167" lon="13.1135683"><ele>742.6666666666666</ele><time>2026-03-22T14:42:20.399Z</time></trkpt><trkpt lat="43.0427383" lon="13.1136533"><ele>741.3333333333333</ele><time>2026-03-22T14:42:21.354Z</time></trkpt><trkpt lat="43.0427517" lon="13.1137467"><ele>740.0</ele><time>2026-03-22T14:42:22.348Z</time></trkpt><trkpt lat="43.04277" lon="13.113835"><ele>739.9999999999999</ele><time>2026-03-22T14:42:23.354Z</time></trkpt><trkpt lat="43.04279" lon="13.113925"><ele>740.0</ele><time>2026-03-22T14:42:24.355Z</time></trkpt><trkpt lat="43.0427983" lon="13.1140167"><ele>740.0</ele><time>2026-03-22T14:42:25.362Z</time></trkpt><trkpt lat="43.0427967" lon="13.1141083"><ele>740.0</ele><time>2026-03-22T14:42:26.414Z</time></trkpt><trkpt lat="43.04278" lon="13.1141917"><ele>740.0</ele><time>2026-03-22T14:42:27.347Z</time></trkpt><trkpt lat="43.0427733" lon="13.1142783"><ele>739.9999999999999</ele><time>2026-03-22T14:42:28.346Z</time></trkpt><trkpt lat="43.0427717" lon="13.1143817"><ele>740.0</ele><time>2026-03-22T14:42:29.352Z</time></trkpt><trkpt lat="43.042795" lon="13.1144717"><ele>737.8333333333333</ele><time>2026-03-22T14:42:30.354Z</time></trkpt><trkpt lat="43.0428333" lon="13.1145967"><ele>735.6666666666666</ele><time>2026-03-22T14:42:32.403Z</time></trkpt><trkpt lat="43.04286" lon="13.1146967"><ele>733.5</ele><time>2026-03-22T14:48:52.354Z</time></trkpt><trkpt lat="43.0427867" lon="13.1147167"><ele>731.3333333333334</ele><time>2026-03-22T14:48:58.352Z</time></trkpt><trkpt lat="43.04271" lon="13.1147133"><ele>729.1666666666667</ele><time>2026-03-22T14:49:00.362Z</time></trkpt><trkpt lat="43.0426317" lon="13.1147117"><ele>727.0</ele><time>2026-03-22T14:49:03.352Z</time></trkpt><trkpt lat="43.0425933" lon="13.1146267"><ele>727.0</ele><time>2026-03-22T14:49:06.363Z</time></trkpt><trkpt lat="43.0424867" lon="13.1145233"><ele>727.0</ele><time>2026-03-22T14:49:20.402Z</time></trkpt><trkpt lat="43.0424283" lon="13.11447"><ele>727.0</ele><time>2026-03-22T14:49:22.362Z</time></trkpt><trkpt lat="43.0423633" lon="13.1144317"><ele>727.0</ele><time>2026-03-22T14:49:24.347Z</time></trkpt><trkpt lat="43.0422933" lon="13.1143983"><ele>727.0</ele><time>2026-03-22T14:49:35.34Z</time></trkpt><trkpt lat="43.0423017" lon="13.1146133"><ele>730.5</ele><time>2026-03-22T14:51:50.409Z</time></trkpt><trkpt lat="43.0422467" lon="13.11446"><ele>734.0</ele><time>2026-03-22T14:51:57.344Z</time></trkpt><trkpt lat="43.042165" lon="13.1144017"><ele>737.5</ele><time>2026-03-22T14:51:59.35Z</time></trkpt><trkpt lat="43.042125" lon="13.1143317"><ele>741.0</ele><time>2026-03-22T14:52:01.352Z</time></trkpt><trkpt lat="43.0421983" lon="13.1143017"><ele>744.5</ele><time>2026-03-22T14:52:22.35Z</time></trkpt><trkpt lat="43.0421833" lon="13.1143967"><ele>748.0</ele><time>2026-03-22T14:52:46.365Z</time></trkpt><trkpt lat="43.0422467" lon="13.1143367"><ele>748.0</ele><time>2026-03-22T14:53:08.394Z</time></trkpt><trkpt lat="43.0422783" lon="13.11424"><ele>748.0</ele><time>2026-03-22T14:53:12.35Z</time></trkpt><trkpt lat="43.042335" lon="13.1141817"><ele>748.0</ele><time>2026-03-22T14:53:14.394Z</time></trkpt><trkpt lat="43.0423883" lon="13.1141217"><ele>748.0</ele><time>2026-03-22T14:53:16.348Z</time></trkpt><trkpt lat="43.042465" lon="13.1140783"><ele>748.0</ele><time>2026-03-22T14:53:25.355Z</time></trkpt><trkpt lat="43.0424767" lon="13.1139633"><ele>748.0</ele><time>2026-03-22T14:53:37.36Z</time></trkpt><trkpt lat="43.042375" lon="13.1139567"><ele>750.0</ele><time>2026-03-22T14:54:07.359Z</time></trkpt><trkpt lat="43.0423" lon="13.113955"><ele>752.0</ele><time>2026-03-22T14:54:11.352Z</time></trkpt><trkpt lat="43.04223" lon="13.1139333"><ele>754.0</ele><time>2026-03-22T14:54:14.401Z</time></trkpt><trkpt lat="43.0421117" lon="13.1139183"><ele>756.0</ele><time>2026-03-22T14:54:24.354Z</time></trkpt><trkpt lat="43.0420433" lon="13.1139383"><ele>758.0</ele><time>2026-03-22T14:54:27.349Z</time></trkpt><trkpt lat="43.0419733" lon="13.1139267"><ele>760.0</ele><time>2026-03-22T14:54:30.358Z</time></trkpt><trkpt lat="43.0418983" lon="13.1139267"><ele>760.0</ele><time>2026-03-22T14:54:33.354Z</time></trkpt><trkpt lat="43.0418283" lon="13.113925"><ele>760.0</ele><time>2026-03-22T14:54:36.361Z</time></trkpt><trkpt lat="43.0417433" lon="13.113895"><ele>760.0</ele><time>2026-03-22T14:54:39.355Z</time></trkpt><trkpt lat="43.0416667" lon="13.1138367"><ele>760.0</ele><time>2026-03-22T14:54:42.344Z</time></trkpt><trkpt lat="43.0415967" lon="13.113775"><ele>760.0</ele><time>2026-03-22T14:54:45.331Z</time></trkpt><trkpt lat="43.0415417" lon="13.1137167"><ele>760.0</ele><time>2026-03-22T14:54:47.329Z</time></trkpt><trkpt lat="43.0414933" lon="13.113635"><ele>760.8571428571429</ele><time>2026-03-22T14:54:50.385Z</time></trkpt><trkpt lat="43.0414317" lon="13.1135717"><ele>761.7142857142858</ele><time>2026-03-22T14:54:52.34Z</time></trkpt><trkpt lat="43.04137" lon="13.1135233"><ele>762.5714285714286</ele><time>2026-03-22T14:54:54.343Z</time></trkpt><trkpt lat="43.0413067" lon="13.1134667"><ele>763.4285714285714</ele><time>2026-03-22T14:54:56.392Z</time></trkpt><trkpt lat="43.0412367" lon="13.1134233"><ele>764.2857142857142</ele><time>2026-03-22T14:54:58.35Z</time></trkpt><trkpt lat="43.0411717" lon="13.1133917"><ele>765.1428571428571</ele><time>2026-03-22T14:55:00.35Z</time></trkpt><trkpt lat="43.0411083" lon="13.11335"><ele>766.0</ele><time>2026-03-22T14:55:02.392Z</time></trkpt><trkpt lat="43.0410483" lon="13.1132883"><ele>766.0</ele><time>2026-03-22T14:55:04.349Z</time></trkpt><trkpt lat="43.0409917" lon="13.1132433"><ele>766.0</ele><time>2026-03-22T14:55:06.35Z</time></trkpt><trkpt lat="43.0409217" lon="13.1132067"><ele>766.0</ele><time>2026-03-22T14:55:08.387Z</time></trkpt><trkpt lat="43.0408517" lon="13.1131467"><ele>766.0</ele><time>2026-03-22T14:55:10.349Z</time></trkpt><trkpt lat="43.0407883" lon="13.1130533"><ele>766.0</ele><time>2026-03-22T14:55:12.349Z</time></trkpt><trkpt lat="43.0407367" lon="13.11299"><ele>766.0</ele><time>2026-03-22T14:55:14.394Z</time></trkpt><trkpt lat="43.0406667" lon="13.112955"><ele>768.0</ele><time>2026-03-22T14:55:16.351Z</time></trkpt><trkpt lat="43.0405583" lon="13.1129133"><ele>770.0</ele><time>2026-03-22T14:55:18.36Z</time></trkpt><trkpt lat="43.0404933" lon="13.1128683"><ele>772.0</ele><time>2026-03-22T14:55:19.372Z</time></trkpt><trkpt lat="43.0404217" lon="13.1128167"><ele>774.0</ele><time>2026-03-22T14:55:20.398Z</time></trkpt><trkpt lat="43.0403467" lon="13.1127583"><ele>775.9999999999999</ele><time>2026-03-22T14:55:21.363Z</time></trkpt><trkpt lat="43.0402717" lon="13.112695"><ele>778.0</ele><time>2026-03-22T14:55:22.37Z</time></trkpt><trkpt lat="43.04019" lon="13.1126283"><ele>777.9999999999999</ele><time>2026-03-22T14:55:23.372Z</time></trkpt><trkpt lat="43.04011" lon="13.11256"><ele>778.0</ele><time>2026-03-22T14:55:24.375Z</time></trkpt><trkpt lat="43.0400367" lon="13.1124983"><ele>778.0</ele><time>2026-03-22T14:55:25.337Z</time></trkpt><trkpt lat="43.039965" lon="13.1124317"><ele>778.0</ele><time>2026-03-22T14:55:26.422Z</time></trkpt><trkpt lat="43.0398917" lon="13.1123683"><ele>777.9999999999999</ele><time>2026-03-22T14:55:27.357Z</time></trkpt><trkpt lat="43.0398117" lon="13.112305"><ele>778.0</ele><time>2026-03-22T14:55:28.364Z</time></trkpt><trkpt lat="43.0397267" lon="13.1122467"><ele>779.8333333333333</ele><time>2026-03-22T14:55:29.375Z</time></trkpt><trkpt lat="43.0396433" lon="13.1122017"><ele>781.6666666666666</ele><time>2026-03-22T14:55:30.368Z</time></trkpt><trkpt lat="43.03956" lon="13.112175"><ele>783.5</ele><time>2026-03-22T14:55:31.369Z</time></trkpt><trkpt lat="43.0394767" lon="13.1121767"><ele>785.3333333333333</ele><time>2026-03-22T14:55:32.408Z</time></trkpt><trkpt lat="43.03939" lon="13.1122033"><ele>787.1666666666666</ele><time>2026-03-22T14:55:33.362Z</time></trkpt><trkpt lat="43.0393067" lon="13.1122467"><ele>789.0</ele><time>2026-03-22T14:55:34.37Z</time></trkpt><trkpt lat="43.0392283" lon="13.1123067"><ele>789.0</ele><time>2026-03-22T14:55:35.355Z</time></trkpt><trkpt lat="43.0391567" lon="13.1123933"><ele>789.0</ele><time>2026-03-22T14:55:36.364Z</time></trkpt><trkpt lat="43.0390917" lon="13.1124633"><ele>789.0</ele><time>2026-03-22T14:55:37.37Z</time></trkpt><trkpt lat="43.0390233" lon="13.11252"><ele>789.0</ele><time>2026-03-22T14:55:38.408Z</time></trkpt><trkpt lat="43.0389383" lon="13.1125683"><ele>789.0</ele><time>2026-03-22T14:55:39.362Z</time></trkpt><trkpt lat="43.0388383" lon="13.11261"><ele>792.25</ele><time>2026-03-22T14:55:40.368Z</time></trkpt><trkpt lat="43.0387233" lon="13.11265"><ele>795.5</ele><time>2026-03-22T14:55:41.363Z</time></trkpt><trkpt lat="43.0386" lon="13.1126867"><ele>798.75</ele><time>2026-03-22T14:55:42.344Z</time></trkpt><trkpt lat="43.03847" lon="13.1127083"><ele>802.0</ele><time>2026-03-22T14:55:43.352Z</time></trkpt><trkpt lat="43.03833" lon="13.112715"><ele>803.4999999999999</ele><time>2026-03-22T14:55:44.388Z</time></trkpt><trkpt lat="43.0382033" lon="13.1127083"><ele>805.0</ele><time>2026-03-22T14:55:45.356Z</time></trkpt><trkpt lat="43.0381067" lon="13.11269"><ele>806.5</ele><time>2026-03-22T14:55:46.37Z</time></trkpt><trkpt lat="43.03803" lon="13.11267"><ele>808.0</ele><time>2026-03-22T14:55:47.373Z</time></trkpt><trkpt lat="43.0379567" lon="13.112665"><ele>809.4999999999999</ele><time>2026-03-22T14:55:48.37Z</time></trkpt><trkpt lat="43.0378867" lon="13.1126833"><ele>811.0</ele><time>2026-03-22T14:55:49.368Z</time></trkpt><trkpt lat="43.0378067" lon="13.1127283"><ele>811.0</ele><time>2026-03-22T14:55:50.404Z</time></trkpt><trkpt lat="43.037725" lon="13.1128167"><ele>811.0</ele><time>2026-03-22T14:55:51.35Z</time></trkpt><trkpt lat="43.0376483" lon="13.112945"><ele>811.0</ele><time>2026-03-22T14:55:52.362Z</time></trkpt><trkpt lat="43.037585" lon="13.1130817"><ele>811.0</ele><time>2026-03-22T14:55:53.362Z</time></trkpt><trkpt lat="43.0375367" lon="13.1131983"><ele>811.0</ele><time>2026-03-22T14:55:54.373Z</time></trkpt><trkpt lat="43.0375" lon="13.1132967"><ele>813.1999999999999</ele><time>2026-03-22T14:55:55.366Z</time></trkpt><trkpt lat="43.03746" lon="13.113435"><ele>815.4</ele><time>2026-03-22T14:55:57.359Z</time></trkpt><trkpt lat="43.03742" lon="13.113545"><ele>817.6</ele><time>2026-03-22T15:01:59.359Z</time></trkpt><trkpt lat="43.03738" lon="13.1137017"><ele>819.8</ele><time>2026-03-22T15:02:14.409Z</time></trkpt><trkpt lat="43.0373467" lon="13.1138717"><ele>822.0</ele><time>2026-03-22T15:02:17.363Z</time></trkpt><trkpt lat="43.03732" lon="13.1140133"><ele>822.0</ele><time>2026-03-22T15:02:18.365Z</time></trkpt><trkpt lat="43.0373" lon="13.1141483"><ele>822.0</ele><time>2026-03-22T15:02:19.352Z</time></trkpt><trkpt lat="43.0372767" lon="13.11428"><ele>822.0</ele><time>2026-03-22T15:02:20.401Z</time></trkpt><trkpt lat="43.03724" lon="13.114395"><ele>822.0</ele><time>2026-03-22T15:02:21.356Z</time></trkpt><trkpt lat="43.0372033" lon="13.11451"><ele>822.0</ele><time>2026-03-22T15:02:22.366Z</time></trkpt><trkpt lat="43.0371517" lon="13.1146417"><ele>822.0</ele><time>2026-03-22T15:02:23.365Z</time></trkpt><trkpt lat="43.0371" lon="13.1147583"><ele>822.0</ele><time>2026-03-22T15:02:24.363Z</time></trkpt><trkpt lat="43.037035" lon="13.1148617"><ele>822.0</ele><time>2026-03-22T15:02:25.363Z</time></trkpt><trkpt lat="43.0369733" lon="13.1149583"><ele>822.0</ele><time>2026-03-22T15:02:26.41Z</time></trkpt><trkpt lat="43.0369133" lon="13.1150567"><ele>822.0</ele><time>2026-03-22T15:02:27.358Z</time></trkpt><trkpt lat="43.0368583" lon="13.1151467"><ele>822.1428571428571</ele><time>2026-03-22T15:02:28.366Z</time></trkpt><trkpt lat="43.03681" lon="13.1152317"><ele>822.2857142857142</ele><time>2026-03-22T15:02:29.363Z</time></trkpt><trkpt lat="43.0367667" lon="13.1153133"><ele>822.4285714285714</ele><time>2026-03-22T15:02:30.352Z</time></trkpt><trkpt lat="43.036725" lon="13.115395"><ele>822.5714285714286</ele><time>2026-03-22T15:02:31.351Z</time></trkpt><trkpt lat="43.0366833" lon="13.1154733"><ele>822.7142857142858</ele><time>2026-03-22T15:02:32.406Z</time></trkpt><trkpt lat="43.0366433" lon="13.1155467"><ele>822.8571428571429</ele><time>2026-03-22T15:02:33.363Z</time></trkpt><trkpt lat="43.0366017" lon="13.11563"><ele>823.0</ele><time>2026-03-22T15:02:34.353Z</time></trkpt><trkpt lat="43.0365533" lon="13.1157133"><ele>826.0</ele><time>2026-03-22T15:02:35.359Z</time></trkpt><trkpt lat="43.036505" lon="13.1157967"><ele>829.0</ele><time>2026-03-22T15:02:36.357Z</time></trkpt><trkpt lat="43.03646" lon="13.11589"><ele>832.0</ele><time>2026-03-22T15:02:37.359Z</time></trkpt><trkpt lat="43.0364083" lon="13.1159983"><ele>835.0</ele><time>2026-03-22T15:02:38.392Z</time></trkpt><trkpt lat="43.03635" lon="13.1161167"><ele>838.0</ele><time>2026-03-22T15:02:39.353Z</time></trkpt><trkpt lat="43.0362933" lon="13.1162283"><ele>837.9999999999999</ele><time>2026-03-22T15:02:40.364Z</time></trkpt><trkpt lat="43.036245" lon="13.11632"><ele>838.0</ele><time>2026-03-22T15:02:41.364Z</time></trkpt><trkpt lat="43.03621" lon="13.116405"><ele>838.0</ele><time>2026-03-22T15:02:42.369Z</time></trkpt><trkpt lat="43.0361883" lon="13.11649"><ele>838.0</ele><time>2026-03-22T15:02:43.369Z</time></trkpt><trkpt lat="43.03623" lon="13.116645"><ele>837.9999999999999</ele><time>2026-03-22T15:02:45.379Z</time></trkpt><trkpt lat="43.03628" lon="13.1167383"><ele>838.0</ele><time>2026-03-22T15:02:46.372Z</time></trkpt><trkpt lat="43.0363233" lon="13.1168533"><ele>838.0</ele><time>2026-03-22T15:02:47.344Z</time></trkpt><trkpt lat="43.03637" lon="13.1170033"><ele>838.0</ele><time>2026-03-22T15:02:48.361Z</time></trkpt><trkpt lat="43.0364167" lon="13.117165"><ele>838.0</ele><time>2026-03-22T15:02:49.357Z</time></trkpt><trkpt lat="43.0364617" lon="13.117315"><ele>838.0</ele><time>2026-03-22T15:02:50.396Z</time></trkpt><trkpt lat="43.0365067" lon="13.1174383"><ele>839.2</ele><time>2026-03-22T15:02:51.356Z</time></trkpt><trkpt lat="43.03656" lon="13.1175417"><ele>840.4</ele><time>2026-03-22T15:02:52.359Z</time></trkpt><trkpt lat="43.0366283" lon="13.1176267"><ele>841.6</ele><time>2026-03-22T15:02:53.351Z</time></trkpt><trkpt lat="43.0367117" lon="13.1176883"><ele>842.8000000000001</ele><time>2026-03-22T15:02:54.368Z</time></trkpt><trkpt lat="43.0367933" lon="13.11775"><ele>844.0</ele><time>2026-03-22T15:02:55.366Z</time></trkpt><trkpt lat="43.0368683" lon="13.11782"><ele>842.3333333333333</ele><time>2026-03-22T15:02:56.397Z</time></trkpt><trkpt lat="43.03693" lon="13.1178983"><ele>840.6666666666666</ele><time>2026-03-22T15:02:57.362Z</time></trkpt><trkpt lat="43.0369817" lon="13.1179867"><ele>839.0</ele><time>2026-03-22T15:02:58.373Z</time></trkpt><trkpt lat="43.0370283" lon="13.1180833"><ele>837.3333333333333</ele><time>2026-03-22T15:02:59.367Z</time></trkpt><trkpt lat="43.037065" lon="13.1181683"><ele>835.6666666666666</ele><time>2026-03-22T15:03:00.344Z</time></trkpt><trkpt lat="43.0370933" lon="13.1182483"><ele>834.0</ele><time>2026-03-22T15:03:01.35Z</time></trkpt><trkpt lat="43.0371233" lon="13.118335"><ele>834.0</ele><time>2026-03-22T15:03:02.406Z</time></trkpt><trkpt lat="43.0371383" lon="13.11845"><ele>834.0</ele><time>2026-03-22T15:03:03.377Z</time></trkpt><trkpt lat="43.0371467" lon="13.118565"><ele>834.0</ele><time>2026-03-22T15:03:04.368Z</time></trkpt><trkpt lat="43.03714" lon="13.1186717"><ele>834.0</ele><time>2026-03-22T15:03:05.373Z</time></trkpt><trkpt lat="43.03712" lon="13.1187717"><ele>834.0</ele><time>2026-03-22T15:03:06.362Z</time></trkpt><trkpt lat="43.0371" lon="13.1188617"><ele>834.0</ele><time>2026-03-22T15:03:07.359Z</time></trkpt><trkpt lat="43.0370933" lon="13.1189583"><ele>834.2</ele><time>2026-03-22T15:03:08.406Z</time></trkpt><trkpt lat="43.0370967" lon="13.119075"><ele>834.4000000000001</ele><time>2026-03-22T15:03:09.367Z</time></trkpt><trkpt lat="43.0371033" lon="13.11921"><ele>834.6</ele><time>2026-03-22T15:03:10.354Z</time></trkpt><trkpt lat="43.0371067" lon="13.1193533"><ele>834.8</ele><time>2026-03-22T15:03:11.368Z</time></trkpt><trkpt lat="43.0371133" lon="13.1195083"><ele>835.0</ele><time>2026-03-22T15:03:12.342Z</time></trkpt><trkpt lat="43.0371217" lon="13.119665"><ele>835.0</ele><time>2026-03-22T15:03:13.367Z</time></trkpt><trkpt lat="43.0371283" lon="13.119805"><ele>835.0</ele><time>2026-03-22T15:03:14.414Z</time></trkpt><trkpt lat="43.037135" lon="13.1199283"><ele>835.0</ele><time>2026-03-22T15:03:15.361Z</time></trkpt><trkpt lat="43.0371417" lon="13.12005"><ele>835.0</ele><time>2026-03-22T15:03:16.341Z</time></trkpt><trkpt lat="43.03714" lon="13.1201717"><ele>835.0</ele><time>2026-03-22T15:03:17.352Z</time></trkpt><trkpt lat="43.0371383" lon="13.120285"><ele>835.4999999999999</ele><time>2026-03-22T15:03:18.362Z</time></trkpt><trkpt lat="43.0371517" lon="13.12037"><ele>836.0</ele><time>2026-03-22T15:03:19.348Z</time></trkpt><trkpt lat="43.0372083" lon="13.1204967"><ele>836.5</ele><time>2026-03-22T15:03:21.356Z</time></trkpt><trkpt lat="43.0372933" lon="13.1205483"><ele>837.0</ele><time>2026-03-22T15:03:23.368Z</time></trkpt><trkpt lat="43.0373933" lon="13.1205283"><ele>837.4999999999999</ele><time>2026-03-22T15:03:25.364Z</time></trkpt><trkpt lat="43.03746" lon="13.1204733"><ele>838.0</ele><time>2026-03-22T15:03:27.355Z</time></trkpt><trkpt lat="43.0375317" lon="13.1203667"><ele>835.8333333333333</ele><time>2026-03-22T15:03:49.359Z</time></trkpt><trkpt lat="43.0375933" lon="13.1203"><ele>833.6666666666666</ele><time>2026-03-22T15:03:51.358Z</time></trkpt><trkpt lat="43.0376533" lon="13.12024"><ele>831.5</ele><time>2026-03-22T15:03:53.36Z</time></trkpt><trkpt lat="43.0377183" lon="13.120175"><ele>829.3333333333333</ele><time>2026-03-22T15:03:56.399Z</time></trkpt><trkpt lat="43.037645" lon="13.120235"><ele>827.1666666666666</ele><time>2026-03-22T15:04:10.363Z</time></trkpt><trkpt lat="43.03755" lon="13.1203283"><ele>825.0</ele><time>2026-03-22T15:04:12.365Z</time></trkpt><trkpt lat="43.03749" lon="13.1203617"><ele>827.6</ele><time>2026-03-22T15:04:13.361Z</time></trkpt><trkpt lat="43.0374183" lon="13.12038"><ele>830.2</ele><time>2026-03-22T15:04:14.399Z</time></trkpt><trkpt lat="43.0372983" lon="13.1203667"><ele>832.8</ele><time>2026-03-22T15:04:16.35Z</time></trkpt><trkpt lat="43.0372117" lon="13.1203"><ele>835.4</ele><time>2026-03-22T15:04:18.369Z</time></trkpt><trkpt lat="43.0371467" lon="13.12027"><ele>838.0</ele><time>2026-03-22T15:04:20.386Z</time></trkpt><trkpt lat="43.037075" lon="13.1203517"><ele>837.9999999999999</ele><time>2026-03-22T15:04:22.364Z</time></trkpt><trkpt lat="43.0370417" lon="13.120435"><ele>838.0</ele><time>2026-03-22T15:04:23.365Z</time></trkpt><trkpt lat="43.0370233" lon="13.120535"><ele>838.0</ele><time>2026-03-22T15:04:24.366Z</time></trkpt><trkpt lat="43.0370133" lon="13.1206533"><ele>838.0</ele><time>2026-03-22T15:04:25.362Z</time></trkpt><trkpt lat="43.0370083" lon="13.12076"><ele>837.9999999999999</ele><time>2026-03-22T15:04:26.407Z</time></trkpt><trkpt lat="43.036995" lon="13.120865"><ele>838.0</ele><time>2026-03-22T15:04:27.359Z</time></trkpt><trkpt lat="43.0369833" lon="13.12099"><ele>839.2</ele><time>2026-03-22T15:04:28.358Z</time></trkpt><trkpt lat="43.0369767" lon="13.1211367"><ele>840.4</ele><time>2026-03-22T15:04:29.37Z</time></trkpt><trkpt lat="43.0369717" lon="13.121295"><ele>841.6</ele><time>2026-03-22T15:04:30.378Z</time></trkpt><trkpt lat="43.0369717" lon="13.12144"><ele>842.8000000000001</ele><time>2026-03-22T15:04:31.336Z</time></trkpt><trkpt lat="43.0369667" lon="13.1215617"><ele>844.0</ele><time>2026-03-22T15:04:32.4Z</time></trkpt><trkpt lat="43.0369617" lon="13.1216633"><ele>845.2</ele><time>2026-03-22T15:04:33.353Z</time></trkpt><trkpt lat="43.03694" lon="13.1217733"><ele>846.4000000000001</ele><time>2026-03-22T15:04:34.34Z</time></trkpt><trkpt lat="43.0369233" lon="13.12189"><ele>847.6</ele><time>2026-03-22T15:04:35.341Z</time></trkpt><trkpt lat="43.0369217" lon="13.1220267"><ele>848.8</ele><time>2026-03-22T15:04:36.35Z</time></trkpt><trkpt lat="43.0369267" lon="13.1221833"><ele>850.0</ele><time>2026-03-22T15:04:37.356Z</time></trkpt><trkpt lat="43.0369367" lon="13.1223433"><ele>850.6666666666666</ele><time>2026-03-22T15:04:38.387Z</time></trkpt><trkpt lat="43.0369383" lon="13.12249"><ele>851.3333333333333</ele><time>2026-03-22T15:04:39.351Z</time></trkpt><trkpt lat="43.0369417" lon="13.1226233"><ele>852.0</ele><time>2026-03-22T15:04:40.37Z</time></trkpt><trkpt lat="43.03693" lon="13.12274"><ele>852.6666666666667</ele><time>2026-03-22T15:04:41.347Z</time></trkpt><trkpt lat="43.0369183" lon="13.1228317"><ele>853.3333333333334</ele><time>2026-03-22T15:04:42.359Z</time></trkpt><trkpt lat="43.0369133" lon="13.122935"><ele>854.0</ele><time>2026-03-22T15:04:43.358Z</time></trkpt><trkpt lat="43.0369233" lon="13.1230733"><ele>854.5</ele><time>2026-03-22T15:04:44.4Z</time></trkpt><trkpt lat="43.0369283" lon="13.1232333"><ele>855.0</ele><time>2026-03-22T15:04:45.359Z</time></trkpt><trkpt lat="43.03694" lon="13.1234133"><ele>855.5</ele><time>2026-03-22T15:04:46.366Z</time></trkpt><trkpt lat="43.03695" lon="13.1235917"><ele>856.0</ele><time>2026-03-22T15:04:47.361Z</time></trkpt><trkpt lat="43.0369533" lon="13.1237783"><ele>856.0</ele><time>2026-03-22T15:04:48.363Z</time></trkpt><trkpt lat="43.0369417" lon="13.1239733"><ele>856.0</ele><time>2026-03-22T15:04:49.354Z</time></trkpt><trkpt lat="43.0369133" lon="13.1241617"><ele>856.0</ele><time>2026-03-22T15:04:50.403Z</time></trkpt><trkpt lat="43.0368717" lon="13.124345"><ele>856.0</ele><time>2026-03-22T15:04:51.359Z</time></trkpt><trkpt lat="43.0368333" lon="13.124535"><ele>856.0</ele><time>2026-03-22T15:04:52.363Z</time></trkpt><trkpt lat="43.0368033" lon="13.1247333"><ele>856.0</ele><time>2026-03-22T15:04:53.349Z</time></trkpt><trkpt lat="43.036785" lon="13.1249383"><ele>856.0</ele><time>2026-03-22T15:04:54.358Z</time></trkpt><trkpt lat="43.0367833" lon="13.1251517"><ele>856.0</ele><time>2026-03-22T15:04:55.351Z</time></trkpt><trkpt lat="43.0368067" lon="13.1253617"><ele>856.0</ele><time>2026-03-22T15:04:56.414Z</time></trkpt><trkpt lat="43.0368517" lon="13.1255733"><ele>856.0</ele><time>2026-03-22T15:04:57.357Z</time></trkpt><trkpt lat="43.0369083" lon="13.1257783"><ele>856.5</ele><time>2026-03-22T15:04:58.364Z</time></trkpt><trkpt lat="43.036965" lon="13.12597"><ele>857.0</ele><time>2026-03-22T15:04:59.366Z</time></trkpt><trkpt lat="43.0370083" lon="13.1261433"><ele>857.5</ele><time>2026-03-22T15:05:00.366Z</time></trkpt><trkpt lat="43.03705" lon="13.1262983"><ele>858.0</ele><time>2026-03-22T15:05:01.362Z</time></trkpt><trkpt lat="43.037095" lon="13.1264367"><ele>858.0</ele><time>2026-03-22T15:05:02.413Z</time></trkpt><trkpt lat="43.0371417" lon="13.1265617"><ele>858.0</ele><time>2026-03-22T15:05:03.359Z</time></trkpt><trkpt lat="43.0372" lon="13.1266767"><ele>858.0</ele><time>2026-03-22T15:05:04.363Z</time></trkpt><trkpt lat="43.037265" lon="13.1267917"><ele>858.0</ele><time>2026-03-22T15:05:05.346Z</time></trkpt><trkpt lat="43.0373433" lon="13.1269067"><ele>858.0</ele><time>2026-03-22T15:05:06.363Z</time></trkpt><trkpt lat="43.037425" lon="13.12703"><ele>858.0</ele><time>2026-03-22T15:05:07.364Z</time></trkpt><trkpt lat="43.0375083" lon="13.1271617"><ele>858.0</ele><time>2026-03-22T15:05:08.399Z</time></trkpt><trkpt lat="43.0375983" lon="13.1273067"><ele>858.0</ele><time>2026-03-22T15:05:09.35Z</time></trkpt><trkpt lat="43.0376967" lon="13.127465"><ele>858.0</ele><time>2026-03-22T15:05:10.365Z</time></trkpt><trkpt lat="43.0378" lon="13.1276333"><ele>858.0</ele><time>2026-03-22T15:05:11.363Z</time></trkpt><trkpt lat="43.0379067" lon="13.12781"><ele>858.0</ele><time>2026-03-22T15:05:12.362Z</time></trkpt><trkpt lat="43.038025" lon="13.1279967"><ele>858.0</ele><time>2026-03-22T15:05:13.348Z</time></trkpt><trkpt lat="43.03815" lon="13.1281867"><ele>858.3333333333333</ele><time>2026-03-22T15:05:14.398Z</time></trkpt><trkpt lat="43.03829" lon="13.128375"><ele>858.6666666666666</ele><time>2026-03-22T15:05:15.356Z</time></trkpt><trkpt lat="43.0384383" lon="13.1285617"><ele>859.0</ele><time>2026-03-22T15:05:16.361Z</time></trkpt><trkpt lat="43.0385883" lon="13.12875"><ele>857.0</ele><time>2026-03-22T15:05:17.357Z</time></trkpt><trkpt lat="43.03874" lon="13.12894"><ele>855.0</ele><time>2026-03-22T15:05:18.362Z</time></trkpt><trkpt lat="43.03889" lon="13.12913"><ele>853.0</ele><time>2026-03-22T15:05:19.361Z</time></trkpt><trkpt lat="43.0390467" lon="13.1293217"><ele>851.6666666666666</ele><time>2026-03-22T15:05:20.399Z</time></trkpt><trkpt lat="43.0392067" lon="13.1295133"><ele>850.3333333333333</ele><time>2026-03-22T15:05:21.359Z</time></trkpt><trkpt lat="43.039365" lon="13.1297033"><ele>849.0</ele><time>2026-03-22T15:05:22.364Z</time></trkpt><trkpt lat="43.0395167" lon="13.129885"><ele>848.0</ele><time>2026-03-22T15:05:23.369Z</time></trkpt><trkpt lat="43.039655" lon="13.1300533"><ele>847.0</ele><time>2026-03-22T15:05:24.364Z</time></trkpt><trkpt lat="43.0397883" lon="13.1302167"><ele>846.0</ele><time>2026-03-22T15:05:25.364Z</time></trkpt><trkpt lat="43.0399133" lon="13.1303667"><ele>846.6666666666667</ele><time>2026-03-22T15:05:26.423Z</time></trkpt><trkpt lat="43.0400367" lon="13.1304983"><ele>847.3333333333334</ele><time>2026-03-22T15:05:27.36Z</time></trkpt><trkpt lat="43.040165" lon="13.1306117"><ele>848.0</ele><time>2026-03-22T15:05:28.36Z</time></trkpt><trkpt lat="43.0402983" lon="13.1306983"><ele>845.6666666666667</ele><time>2026-03-22T15:05:29.362Z</time></trkpt><trkpt lat="43.04045" lon="13.13075"><ele>843.3333333333333</ele><time>2026-03-22T15:05:30.357Z</time></trkpt><trkpt lat="43.0406167" lon="13.130775"><ele>841.0</ele><time>2026-03-22T15:05:31.362Z</time></trkpt><trkpt lat="43.0407833" lon="13.1308033"><ele>840.6666666666666</ele><time>2026-03-22T15:05:32.407Z</time></trkpt><trkpt lat="43.0409417" lon="13.13084"><ele>840.3333333333333</ele><time>2026-03-22T15:05:33.358Z</time></trkpt><trkpt lat="43.041095" lon="13.130875"><ele>840.0</ele><time>2026-03-22T15:05:34.364Z</time></trkpt><trkpt lat="43.0412433" lon="13.1308967"><ele>840.0</ele><time>2026-03-22T15:05:35.364Z</time></trkpt><trkpt lat="43.0413833" lon="13.13091"><ele>840.0</ele><time>2026-03-22T15:05:36.363Z</time></trkpt><trkpt lat="43.041515" lon="13.1309067"><ele>840.0</ele><time>2026-03-22T15:05:37.362Z</time></trkpt><trkpt lat="43.0416417" lon="13.130885"><ele>840.0</ele><time>2026-03-22T15:05:38.381Z</time></trkpt><trkpt lat="43.0417667" lon="13.1308417"><ele>839.4</ele><time>2026-03-22T15:05:39.364Z</time></trkpt><trkpt lat="43.0418733" lon="13.1307583"><ele>838.8</ele><time>2026-03-22T15:05:40.342Z</time></trkpt><trkpt lat="43.0419667" lon="13.13066"><ele>838.2</ele><time>2026-03-22T15:05:41.344Z</time></trkpt><trkpt lat="43.04206" lon="13.1306133"><ele>837.6</ele><time>2026-03-22T15:05:42.355Z</time></trkpt><trkpt lat="43.042145" lon="13.13064"><ele>837.0</ele><time>2026-03-22T15:05:43.351Z</time></trkpt><trkpt lat="43.0422033" lon="13.1307583"><ele>837.0</ele><time>2026-03-22T15:05:44.396Z</time></trkpt><trkpt lat="43.0422283" lon="13.1309633"><ele>837.0</ele><time>2026-03-22T15:05:45.359Z</time></trkpt><trkpt lat="43.0422217" lon="13.13121"><ele>837.0</ele><time>2026-03-22T15:05:46.366Z</time></trkpt><trkpt lat="43.0421933" lon="13.13144"><ele>834.0</ele><time>2026-03-22T15:05:47.36Z</time></trkpt><trkpt lat="43.042175" lon="13.13166"><ele>831.0</ele><time>2026-03-22T15:05:48.358Z</time></trkpt><trkpt lat="43.042165" lon="13.1318783"><ele>828.0</ele><time>2026-03-22T15:05:49.341Z</time></trkpt><trkpt lat="43.0421633" lon="13.1320883"><ele>828.0</ele><time>2026-03-22T15:05:50.419Z</time></trkpt><trkpt lat="43.0421867" lon="13.1322783"><ele>828.0</ele><time>2026-03-22T15:05:51.356Z</time></trkpt><trkpt lat="43.042225" lon="13.1324433"><ele>828.0</ele><time>2026-03-22T15:05:52.363Z</time></trkpt><trkpt lat="43.042295" lon="13.1325717"><ele>828.0</ele><time>2026-03-22T15:05:53.361Z</time></trkpt><trkpt lat="43.0423883" lon="13.13268"><ele>827.75</ele><time>2026-03-22T15:05:54.363Z</time></trkpt><trkpt lat="43.042475" lon="13.1328"><ele>827.5</ele><time>2026-03-22T15:05:55.36Z</time></trkpt><trkpt lat="43.0425383" lon="13.13294"><ele>827.25</ele><time>2026-03-22T15:05:56.393Z</time></trkpt><trkpt lat="43.04255" lon="13.1331"><ele>827.0</ele><time>2026-03-22T15:05:57.359Z</time></trkpt><trkpt lat="43.0425133" lon="13.1332683"><ele>824.5</ele><time>2026-03-22T15:05:58.359Z</time></trkpt><trkpt lat="43.0424433" lon="13.1334217"><ele>822.0</ele><time>2026-03-22T15:05:59.364Z</time></trkpt><trkpt lat="43.0423517" lon="13.1335583"><ele>819.5</ele><time>2026-03-22T15:06:00.359Z</time></trkpt><trkpt lat="43.042255" lon="13.133675"><ele>817.0</ele><time>2026-03-22T15:06:01.359Z</time></trkpt><trkpt lat="43.04215" lon="13.1337767"><ele>817.0</ele><time>2026-03-22T15:06:02.406Z</time></trkpt><trkpt lat="43.0420583" lon="13.1338817"><ele>817.0</ele><time>2026-03-22T15:06:03.359Z</time></trkpt><trkpt lat="43.0419833" lon="13.1340067"><ele>817.0</ele><time>2026-03-22T15:06:04.35Z</time></trkpt><trkpt lat="43.0419267" lon="13.1341567"><ele>817.0</ele><time>2026-03-22T15:06:05.36Z</time></trkpt><trkpt lat="43.041875" lon="13.1343217"><ele>815.75</ele><time>2026-03-22T15:06:06.363Z</time></trkpt><trkpt lat="43.0418233" lon="13.134495"><ele>814.5</ele><time>2026-03-22T15:06:07.36Z</time></trkpt><trkpt lat="43.04178" lon="13.1346767"><ele>813.25</ele><time>2026-03-22T15:06:08.399Z</time></trkpt><trkpt lat="43.0417533" lon="13.1348667"><ele>812.0</ele><time>2026-03-22T15:06:09.359Z</time></trkpt><trkpt lat="43.041735" lon="13.13506"><ele>811.5</ele><time>2026-03-22T15:06:10.342Z</time></trkpt><trkpt lat="43.0417167" lon="13.1352483"><ele>811.0</ele><time>2026-03-22T15:06:11.346Z</time></trkpt><trkpt lat="43.0416833" lon="13.13543"><ele>810.5</ele><time>2026-03-22T15:06:12.36Z</time></trkpt><trkpt lat="43.0416317" lon="13.1355983"><ele>810.0</ele><time>2026-03-22T15:06:13.364Z</time></trkpt><trkpt lat="43.041545" lon="13.1357433"><ele>807.0</ele><time>2026-03-22T15:06:14.407Z</time></trkpt><trkpt lat="43.0414583" lon="13.1358867"><ele>804.0</ele><time>2026-03-22T15:06:15.359Z</time></trkpt><trkpt lat="43.0413817" lon="13.136035"><ele>801.0</ele><time>2026-03-22T15:06:16.358Z</time></trkpt><trkpt lat="43.041335" lon="13.1362033"><ele>798.0</ele><time>2026-03-22T15:06:17.356Z</time></trkpt><trkpt lat="43.0413133" lon="13.1363917"><ele>798.0</ele><time>2026-03-22T15:06:18.356Z</time></trkpt><trkpt lat="43.0413133" lon="13.1366017"><ele>798.0</ele><time>2026-03-22T15:06:19.366Z</time></trkpt><trkpt lat="43.04132" lon="13.1368133"><ele>798.0</ele><time>2026-03-22T15:06:20.412Z</time></trkpt><trkpt lat="43.0413333" lon="13.1370333"><ele>798.0</ele><time>2026-03-22T15:06:21.362Z</time></trkpt><trkpt lat="43.041345" lon="13.1372567"><ele>798.0</ele><time>2026-03-22T15:06:22.357Z</time></trkpt><trkpt lat="43.0413583" lon="13.1374833"><ele>798.0</ele><time>2026-03-22T15:06:23.364Z</time></trkpt><trkpt lat="43.0413767" lon="13.1377083"><ele>796.75</ele><time>2026-03-22T15:06:24.363Z</time></trkpt><trkpt lat="43.041395" lon="13.137925"><ele>795.5</ele><time>2026-03-22T15:06:25.362Z</time></trkpt><trkpt lat="43.0414067" lon="13.13813"><ele>794.25</ele><time>2026-03-22T15:06:26.412Z</time></trkpt><trkpt lat="43.04141" lon="13.1383183"><ele>793.0</ele><time>2026-03-22T15:06:27.357Z</time></trkpt><trkpt lat="43.0414067" lon="13.1385017"><ele>792.25</ele><time>2026-03-22T15:06:28.369Z</time></trkpt><trkpt lat="43.0414033" lon="13.138675"><ele>791.5</ele><time>2026-03-22T15:06:29.364Z</time></trkpt><trkpt lat="43.0413983" lon="13.1388417"><ele>790.75</ele><time>2026-03-22T15:06:30.357Z</time></trkpt><trkpt lat="43.0414033" lon="13.139"><ele>790.0</ele><time>2026-03-22T15:06:31.362Z</time></trkpt><trkpt lat="43.0414183" lon="13.1391517"><ele>789.2</ele><time>2026-03-22T15:06:32.407Z</time></trkpt><trkpt lat="43.041435" lon="13.1392983"><ele>788.4</ele><time>2026-03-22T15:06:33.358Z</time></trkpt><trkpt lat="43.0414433" lon="13.139445"><ele>787.5999999999999</ele><time>2026-03-22T15:06:34.364Z</time></trkpt><trkpt lat="43.0414383" lon="13.13959"><ele>786.8</ele><time>2026-03-22T15:06:35.36Z</time></trkpt><trkpt lat="43.0414233" lon="13.1397283"><ele>786.0</ele><time>2026-03-22T15:06:36.364Z</time></trkpt><trkpt lat="43.0414033" lon="13.1398517"><ele>784.8333333333334</ele><time>2026-03-22T15:06:37.37Z</time></trkpt><trkpt lat="43.0413767" lon="13.1399567"><ele>783.6666666666667</ele><time>2026-03-22T15:06:38.407Z</time></trkpt><trkpt lat="43.041355" lon="13.14005"><ele>782.5</ele><time>2026-03-22T15:06:39.358Z</time></trkpt><trkpt lat="43.041335" lon="13.1401883"><ele>781.3333333333334</ele><time>2026-03-22T15:06:41.352Z</time></trkpt><trkpt lat="43.041305" lon="13.1403317"><ele>780.1666666666667</ele><time>2026-03-22T15:06:43.367Z</time></trkpt><trkpt lat="43.0412817" lon="13.1404133"><ele>779.0</ele><time>2026-03-22T15:06:44.401Z</time></trkpt><trkpt lat="43.0412467" lon="13.140485"><ele>779.0000000000001</ele><time>2026-03-22T15:06:45.361Z</time></trkpt><trkpt lat="43.0411817" lon="13.1405783"><ele>779.0</ele><time>2026-03-22T15:06:47.363Z</time></trkpt><trkpt lat="43.0411183" lon="13.1406383"><ele>779.0</ele><time>2026-03-22T15:06:49.365Z</time></trkpt><trkpt lat="43.0410567" lon="13.1407317"><ele>779.0</ele><time>2026-03-22T15:06:51.355Z</time></trkpt><trkpt lat="43.041035" lon="13.14084"><ele>779.0000000000001</ele><time>2026-03-22T15:06:53.36Z</time></trkpt><trkpt lat="43.0409583" lon="13.1408717"><ele>779.0</ele><time>2026-03-22T15:06:56.414Z</time></trkpt><trkpt lat="43.04087" lon="13.1408267"><ele>779.1666666666667</ele><time>2026-03-22T15:06:58.359Z</time></trkpt><trkpt lat="43.0408017" lon="13.1408417"><ele>779.3333333333334</ele><time>2026-03-22T15:07:00.367Z</time></trkpt><trkpt lat="43.04074" lon="13.1409283"><ele>779.5</ele><time>2026-03-22T15:07:03.358Z</time></trkpt><trkpt lat="43.040715" lon="13.1410233"><ele>779.6666666666667</ele><time>2026-03-22T15:07:05.358Z</time></trkpt><trkpt lat="43.04068" lon="13.1411233"><ele>779.8333333333334</ele><time>2026-03-22T15:07:07.369Z</time></trkpt><trkpt lat="43.0406417" lon="13.1412183"><ele>780.0</ele><time>2026-03-22T15:07:09.36Z</time></trkpt><trkpt lat="43.04061" lon="13.1413067"><ele>778.6666666666666</ele><time>2026-03-22T15:07:11.362Z</time></trkpt><trkpt lat="43.0405967" lon="13.141395"><ele>777.3333333333333</ele><time>2026-03-22T15:07:14.403Z</time></trkpt><trkpt lat="43.04059" lon="13.141505"><ele>776.0</ele><time>2026-03-22T15:07:18.353Z</time></trkpt><trkpt lat="43.0406017" lon="13.14165"><ele>774.6666666666666</ele><time>2026-03-22T15:07:53.361Z</time></trkpt><trkpt lat="43.0405917" lon="13.1417683"><ele>773.3333333333333</ele><time>2026-03-22T15:07:57.358Z</time></trkpt><trkpt lat="43.0405867" lon="13.1418567"><ele>772.0</ele><time>2026-03-22T15:07:59.359Z</time></trkpt><trkpt lat="43.0405633" lon="13.1419583"><ele>771.8333333333333</ele><time>2026-03-22T15:08:02.403Z</time></trkpt><trkpt lat="43.0405567" lon="13.142075"><ele>771.6666666666666</ele><time>2026-03-22T15:08:05.361Z</time></trkpt><trkpt lat="43.040545" lon="13.14219"><ele>771.5</ele><time>2026-03-22T15:08:08.394Z</time></trkpt><trkpt lat="43.040525" lon="13.142305"><ele>771.3333333333333</ele><time>2026-03-22T15:08:11.367Z</time></trkpt><trkpt lat="43.0404767" lon="13.142415"><ele>771.1666666666666</ele><time>2026-03-22T15:08:14.398Z</time></trkpt><trkpt lat="43.0404267" lon="13.1424767"><ele>771.0</ele><time>2026-03-22T15:08:16.357Z</time></trkpt><trkpt lat="43.0403817" lon="13.1425517"><ele>768.2857142857143</ele><time>2026-03-22T15:08:19.362Z</time></trkpt><trkpt lat="43.040445" lon="13.142585"><ele>765.5714285714286</ele><time>2026-03-22T15:08:24.364Z</time></trkpt><trkpt lat="43.0405083" lon="13.142515"><ele>762.8571428571429</ele><time>2026-03-22T15:08:27.358Z</time></trkpt><trkpt lat="43.04056" lon="13.142445"><ele>760.1428571428571</ele><time>2026-03-22T15:08:33.355Z</time></trkpt><trkpt lat="43.0406133" lon="13.1423883"><ele>757.4285714285713</ele><time>2026-03-22T15:08:37.362Z</time></trkpt><trkpt lat="43.0406533" lon="13.1424567"><ele>754.7142857142857</ele><time>2026-03-22T15:08:43.361Z</time></trkpt><trkpt lat="43.04063" lon="13.1425417"><ele>752.0</ele><time>2026-03-22T15:08:47.361Z</time></trkpt><trkpt lat="43.040605" lon="13.1426317"><ele>752.0</ele><time>2026-03-22T15:08:51.354Z</time></trkpt><trkpt lat="43.040595" lon="13.142725"><ele>752.0</ele><time>2026-03-22T15:08:54.364Z</time></trkpt><trkpt lat="43.0405917" lon="13.1428383"><ele>752.0</ele><time>2026-03-22T15:08:57.362Z</time></trkpt><trkpt lat="43.0405617" lon="13.1429383"><ele>752.0</ele><time>2026-03-22T15:09:00.36Z</time></trkpt><trkpt lat="43.040545" lon="13.143045"><ele>752.0</ele><time>2026-03-22T15:09:04.364Z</time></trkpt><trkpt lat="43.040525" lon="13.1431417"><ele>752.0</ele><time>2026-03-22T15:09:08.402Z</time></trkpt><trkpt lat="43.0404733" lon="13.14322"><ele>747.6666666666666</ele><time>2026-03-22T15:09:11.344Z</time></trkpt><trkpt lat="43.040445" lon="13.1433083"><ele>743.3333333333333</ele><time>2026-03-22T15:09:13.361Z</time></trkpt><trkpt lat="43.0404167" lon="13.1433967"><ele>739.0</ele><time>2026-03-22T15:09:15.358Z</time></trkpt><trkpt lat="43.040355" lon="13.1434983"><ele>734.6666666666666</ele><time>2026-03-22T15:09:18.358Z</time></trkpt><trkpt lat="43.0403017" lon="13.1435767"><ele>730.3333333333334</ele><time>2026-03-22T15:09:20.386Z</time></trkpt><trkpt lat="43.040245" lon="13.1436317"><ele>726.0</ele><time>2026-03-22T15:09:22.371Z</time></trkpt><trkpt lat="43.0401817" lon="13.1436983"><ele>726.0</ele><time>2026-03-22T15:09:25.365Z</time></trkpt><trkpt lat="43.0401183" lon="13.1437683"><ele>726.0</ele><time>2026-03-22T15:09:28.361Z</time></trkpt><trkpt lat="43.0400583" lon="13.1438233"><ele>726.0</ele><time>2026-03-22T15:09:30.353Z</time></trkpt><trkpt lat="43.0399983" lon="13.1438867"><ele>726.0</ele><time>2026-03-22T15:09:32.407Z</time></trkpt><trkpt lat="43.039955" lon="13.144"><ele>726.0</ele><time>2026-03-22T15:09:35.361Z</time></trkpt><trkpt lat="43.0399217" lon="13.1440817"><ele>726.0</ele><time>2026-03-22T15:09:37.359Z</time></trkpt><trkpt lat="43.0398483" lon="13.144185"><ele>726.3333333333334</ele><time>2026-03-22T15:09:39.358Z</time></trkpt><trkpt lat="43.03982" lon="13.1442667"><ele>726.6666666666666</ele><time>2026-03-22T15:09:40.361Z</time></trkpt><trkpt lat="43.0398083" lon="13.1443633"><ele>727.0</ele><time>2026-03-22T15:09:41.363Z</time></trkpt><trkpt lat="43.0398133" lon="13.1444633"><ele>727.3333333333333</ele><time>2026-03-22T15:09:42.357Z</time></trkpt><trkpt lat="43.0398433" lon="13.14456"><ele>727.6666666666666</ele><time>2026-03-22T15:09:43.361Z</time></trkpt><trkpt lat="43.0398917" lon="13.1446583"><ele>728.0</ele><time>2026-03-22T15:09:44.403Z</time></trkpt><trkpt lat="43.0399433" lon="13.1447567"><ele>724.4</ele><time>2026-03-22T15:09:45.359Z</time></trkpt><trkpt lat="43.0399917" lon="13.14486"><ele>720.8</ele><time>2026-03-22T15:09:46.358Z</time></trkpt><trkpt lat="43.0400417" lon="13.1449833"><ele>717.2</ele><time>2026-03-22T15:09:47.363Z</time></trkpt><trkpt lat="43.04008" lon="13.1451283"><ele>713.6</ele><time>2026-03-22T15:09:48.363Z</time></trkpt><trkpt lat="43.040085" lon="13.1452883"><ele>710.0</ele><time>2026-03-22T15:09:49.363Z</time></trkpt><trkpt lat="43.0400667" lon="13.145435"><ele>710.0</ele><time>2026-03-22T15:09:50.391Z</time></trkpt><trkpt lat="43.0400183" lon="13.145575"><ele>710.0</ele><time>2026-03-22T15:09:51.356Z</time></trkpt><trkpt lat="43.0399517" lon="13.145705"><ele>710.0</ele><time>2026-03-22T15:09:52.358Z</time></trkpt><trkpt lat="43.03988" lon="13.145825"><ele>710.0</ele><time>2026-03-22T15:09:53.372Z</time></trkpt><trkpt lat="43.0398233" lon="13.14594"><ele>710.0</ele><time>2026-03-22T15:09:54.362Z</time></trkpt><trkpt lat="43.03978" lon="13.146045"><ele>715.0</ele><time>2026-03-22T15:09:55.364Z</time></trkpt><trkpt lat="43.039755" lon="13.1461467"><ele>720.0</ele><time>2026-03-22T15:09:56.418Z</time></trkpt><trkpt lat="43.0397683" lon="13.1463017"><ele>725.0</ele><time>2026-03-22T15:09:58.36Z</time></trkpt><trkpt lat="43.0398017" lon="13.1464533"><ele>730.0</ele><time>2026-03-22T15:10:00.365Z</time></trkpt><trkpt lat="43.039745" lon="13.1466333"><ele>730.0</ele><time>2026-03-22T15:10:02.404Z</time></trkpt><trkpt lat="43.0396817" lon="13.1467483"><ele>730.0</ele><time>2026-03-22T15:10:03.357Z</time></trkpt><trkpt lat="43.0396083" lon="13.1468733"><ele>730.0</ele><time>2026-03-22T15:10:04.36Z</time></trkpt><trkpt lat="43.0395417" lon="13.1470017"><ele>730.0</ele><time>2026-03-22T15:10:05.361Z</time></trkpt><trkpt lat="43.0394783" lon="13.1471333"><ele>730.0</ele><time>2026-03-22T15:10:06.365Z</time></trkpt><trkpt lat="43.03941" lon="13.1472633"><ele>730.0</ele><time>2026-03-22T15:10:07.366Z</time></trkpt><trkpt lat="43.039335" lon="13.1473883"><ele>730.0</ele><time>2026-03-22T15:10:08.404Z</time></trkpt><trkpt lat="43.0392467" lon="13.1475067"><ele>730.0</ele><time>2026-03-22T15:10:09.357Z</time></trkpt><trkpt lat="43.0391483" lon="13.1476067"><ele>731.75</ele><time>2026-03-22T15:10:10.357Z</time></trkpt><trkpt lat="43.03904" lon="13.1476967"><ele>733.5</ele><time>2026-03-22T15:10:11.359Z</time></trkpt><trkpt lat="43.0389267" lon="13.1477817"><ele>735.25</ele><time>2026-03-22T15:10:12.364Z</time></trkpt><trkpt lat="43.0388217" lon="13.1478717"><ele>737.0</ele><time>2026-03-22T15:10:13.358Z</time></trkpt><trkpt lat="43.03873" lon="13.1479783"><ele>737.0</ele><time>2026-03-22T15:10:14.401Z</time></trkpt><trkpt lat="43.038675" lon="13.14812"><ele>737.0</ele><time>2026-03-22T15:10:15.356Z</time></trkpt><trkpt lat="43.038645" lon="13.14827"><ele>737.0</ele><time>2026-03-22T15:10:16.357Z</time></trkpt><trkpt lat="43.0386617" lon="13.1484267"><ele>737.0</ele><time>2026-03-22T15:10:17.36Z</time></trkpt><trkpt lat="43.038715" lon="13.1485833"><ele>737.75</ele><time>2026-03-22T15:10:18.37Z</time></trkpt><trkpt lat="43.038785" lon="13.148735"><ele>738.5</ele><time>2026-03-22T15:10:19.357Z</time></trkpt><trkpt lat="43.0388583" lon="13.1488867"><ele>739.25</ele><time>2026-03-22T15:10:20.402Z</time></trkpt><trkpt lat="43.038925" lon="13.1490333"><ele>740.0</ele><time>2026-03-22T15:10:21.363Z</time></trkpt><trkpt lat="43.038975" lon="13.1491783"><ele>740.0</ele><time>2026-03-22T15:10:22.366Z</time></trkpt><trkpt lat="43.038995" lon="13.1493167"><ele>740.0</ele><time>2026-03-22T15:10:23.362Z</time></trkpt><trkpt lat="43.0389767" lon="13.1494417"><ele>740.0</ele><time>2026-03-22T15:10:24.361Z</time></trkpt><trkpt lat="43.0389133" lon="13.1495533"><ele>740.0</ele><time>2026-03-22T15:10:25.362Z</time></trkpt><trkpt lat="43.0388317" lon="13.1496633"><ele>740.0</ele><time>2026-03-22T15:10:26.405Z</time></trkpt><trkpt lat="43.03876" lon="13.14979"><ele>737.25</ele><time>2026-03-22T15:10:27.357Z</time></trkpt><trkpt lat="43.0386917" lon="13.1499383"><ele>734.5</ele><time>2026-03-22T15:10:28.364Z</time></trkpt><trkpt lat="43.03863" lon="13.1501017"><ele>731.75</ele><time>2026-03-22T15:10:29.364Z</time></trkpt><trkpt lat="43.0385667" lon="13.15027"><ele>729.0</ele><time>2026-03-22T15:10:30.359Z</time></trkpt><trkpt lat="43.0385067" lon="13.15044"><ele>729.0</ele><time>2026-03-22T15:10:31.356Z</time></trkpt><trkpt lat="43.0384583" lon="13.1506083"><ele>729.0</ele><time>2026-03-22T15:10:32.407Z</time></trkpt><trkpt lat="43.0384267" lon="13.1507717"><ele>729.0</ele><time>2026-03-22T15:10:33.358Z</time></trkpt><trkpt lat="43.0384133" lon="13.1509167"><ele>729.0</ele><time>2026-03-22T15:10:34.361Z</time></trkpt><trkpt lat="43.0384283" lon="13.1510417"><ele>728.8000000000001</ele><time>2026-03-22T15:10:35.358Z</time></trkpt><trkpt lat="43.0384683" lon="13.1511433"><ele>728.6</ele><time>2026-03-22T15:10:36.36Z</time></trkpt><trkpt lat="43.0385283" lon="13.1512417"><ele>728.4</ele><time>2026-03-22T15:10:37.363Z</time></trkpt><trkpt lat="43.0385783" lon="13.1513483"><ele>728.2</ele><time>2026-03-22T15:10:38.404Z</time></trkpt><trkpt lat="43.0386167" lon="13.1514683"><ele>728.0</ele><time>2026-03-22T15:10:39.355Z</time></trkpt><trkpt lat="43.0386417" lon="13.1516033"><ele>728.0</ele><time>2026-03-22T15:10:40.359Z</time></trkpt><trkpt lat="43.0386367" lon="13.1517467"><ele>728.0</ele><time>2026-03-22T15:10:41.362Z</time></trkpt><trkpt lat="43.0386133" lon="13.1519"><ele>728.0</ele><time>2026-03-22T15:10:42.37Z</time></trkpt><trkpt lat="43.0385883" lon="13.1520583"><ele>728.0</ele><time>2026-03-22T15:10:43.362Z</time></trkpt><trkpt lat="43.03857" lon="13.1522117"><ele>728.0</ele><time>2026-03-22T15:10:44.399Z</time></trkpt><trkpt lat="43.0385583" lon="13.152355"><ele>728.0</ele><time>2026-03-22T15:10:45.365Z</time></trkpt><trkpt lat="43.038545" lon="13.1524983"><ele>728.0</ele><time>2026-03-22T15:10:46.339Z</time></trkpt><trkpt lat="43.03853" lon="13.152645"><ele>728.0</ele><time>2026-03-22T15:10:47.361Z</time></trkpt><trkpt lat="43.03851" lon="13.1527967"><ele>728.0</ele><time>2026-03-22T15:10:48.363Z</time></trkpt><trkpt lat="43.038485" lon="13.1529483"><ele>727.5</ele><time>2026-03-22T15:10:49.36Z</time></trkpt><trkpt lat="43.03845" lon="13.1531"><ele>727.0</ele><time>2026-03-22T15:10:50.388Z</time></trkpt><trkpt lat="43.038395" lon="13.153245"><ele>726.5</ele><time>2026-03-22T15:10:51.353Z</time></trkpt><trkpt lat="43.0383083" lon="13.15337"><ele>726.0</ele><time>2026-03-22T15:10:52.364Z</time></trkpt><trkpt lat="43.0381983" lon="13.15347"><ele>727.75</ele><time>2026-03-22T15:10:53.365Z</time></trkpt><trkpt lat="43.0380717" lon="13.1535283"><ele>729.5</ele><time>2026-03-22T15:10:54.366Z</time></trkpt><trkpt lat="43.0379367" lon="13.1535483"><ele>731.25</ele><time>2026-03-22T15:10:55.363Z</time></trkpt><trkpt lat="43.0378167" lon="13.1535183"><ele>733.0</ele><time>2026-03-22T15:10:56.425Z</time></trkpt><trkpt lat="43.0377167" lon="13.1534617"><ele>733.0</ele><time>2026-03-22T15:10:57.362Z</time></trkpt><trkpt lat="43.03762" lon="13.1534"><ele>733.0</ele><time>2026-03-22T15:10:58.359Z</time></trkpt><trkpt lat="43.037525" lon="13.1533533"><ele>733.0</ele><time>2026-03-22T15:10:59.358Z</time></trkpt><trkpt lat="43.0374267" lon="13.1533167"><ele>733.0</ele><time>2026-03-22T15:11:00.368Z</time></trkpt><trkpt lat="43.037325" lon="13.1532983"><ele>733.0</ele><time>2026-03-22T15:11:01.343Z</time></trkpt><trkpt lat="43.0372217" lon="13.153305"><ele>735.4</ele><time>2026-03-22T15:11:02.412Z</time></trkpt><trkpt lat="43.037125" lon="13.15333"><ele>737.8</ele><time>2026-03-22T15:11:03.358Z</time></trkpt><trkpt lat="43.0370533" lon="13.1534167"><ele>740.2</ele><time>2026-03-22T15:11:04.369Z</time></trkpt><trkpt lat="43.0370067" lon="13.153535"><ele>742.6</ele><time>2026-03-22T15:11:05.364Z</time></trkpt><trkpt lat="43.0369917" lon="13.15369"><ele>745.0</ele><time>2026-03-22T15:11:06.36Z</time></trkpt><trkpt lat="43.0369817" lon="13.153855"><ele>745.0</ele><time>2026-03-22T15:11:07.364Z</time></trkpt><trkpt lat="43.0369483" lon="13.1540133"><ele>745.0</ele><time>2026-03-22T15:11:08.403Z</time></trkpt><trkpt lat="43.0369033" lon="13.154165"><ele>745.0</ele><time>2026-03-22T15:11:09.356Z</time></trkpt><trkpt lat="43.036855" lon="13.1543283"><ele>745.0</ele><time>2026-03-22T15:11:10.369Z</time></trkpt><trkpt lat="43.0368083" lon="13.1544933"><ele>742.75</ele><time>2026-03-22T15:11:11.367Z</time></trkpt><trkpt lat="43.0367633" lon="13.1546617"><ele>740.5</ele><time>2026-03-22T15:11:12.364Z</time></trkpt><trkpt lat="43.036725" lon="13.1548317"><ele>738.25</ele><time>2026-03-22T15:11:13.365Z</time></trkpt><trkpt lat="43.03669" lon="13.1549967"><ele>736.0</ele><time>2026-03-22T15:11:14.398Z</time></trkpt><trkpt lat="43.0366567" lon="13.1551717"><ele>736.0</ele><time>2026-03-22T15:11:15.363Z</time></trkpt><trkpt lat="43.0366217" lon="13.155355"><ele>736.0</ele><time>2026-03-22T15:11:16.362Z</time></trkpt><trkpt lat="43.0365883" lon="13.15555"><ele>736.0</ele><time>2026-03-22T15:11:17.356Z</time></trkpt><trkpt lat="43.0365533" lon="13.15575"><ele>736.0</ele><time>2026-03-22T15:11:18.36Z</time></trkpt><trkpt lat="43.036515" lon="13.1559567"><ele>736.0</ele><time>2026-03-22T15:11:19.359Z</time></trkpt><trkpt lat="43.0364733" lon="13.1561683"><ele>736.0</ele><time>2026-03-22T15:11:20.402Z</time></trkpt><trkpt lat="43.03643" lon="13.1563833"><ele>736.0</ele><time>2026-03-22T15:11:21.359Z</time></trkpt><trkpt lat="43.0363867" lon="13.1566033"><ele>736.0</ele><time>2026-03-22T15:11:22.364Z</time></trkpt><trkpt lat="43.0363467" lon="13.1568167"><ele>736.0</ele><time>2026-03-22T15:11:23.338Z</time></trkpt><trkpt lat="43.03631" lon="13.1570183"><ele>736.0</ele><time>2026-03-22T15:11:24.37Z</time></trkpt><trkpt lat="43.036285" lon="13.1572083"><ele>734.75</ele><time>2026-03-22T15:11:25.368Z</time></trkpt><trkpt lat="43.0362817" lon="13.1573983"><ele>733.5</ele><time>2026-03-22T15:11:26.414Z</time></trkpt><trkpt lat="43.0362967" lon="13.157585"><ele>732.25</ele><time>2026-03-22T15:11:27.354Z</time></trkpt><trkpt lat="43.0363217" lon="13.1577733"><ele>731.0</ele><time>2026-03-22T15:11:28.363Z</time></trkpt><trkpt lat="43.0363517" lon="13.1579617"><ele>731.0</ele><time>2026-03-22T15:11:29.351Z</time></trkpt><trkpt lat="43.0363833" lon="13.15814"><ele>731.0</ele><time>2026-03-22T15:11:30.354Z</time></trkpt><trkpt lat="43.0364133" lon="13.1582983"><ele>731.0</ele><time>2026-03-22T15:11:31.362Z</time></trkpt><trkpt lat="43.0364517" lon="13.1584383"><ele>731.0</ele><time>2026-03-22T15:11:32.402Z</time></trkpt><trkpt lat="43.0364917" lon="13.1585567"><ele>728.8333333333333</ele><time>2026-03-22T15:11:33.357Z</time></trkpt><trkpt lat="43.03653" lon="13.158655"><ele>726.6666666666666</ele><time>2026-03-22T15:11:34.364Z</time></trkpt><trkpt lat="43.036565" lon="13.1587417"><ele>724.5</ele><time>2026-03-22T15:11:35.365Z</time></trkpt><trkpt lat="43.0366167" lon="13.1588883"><ele>722.3333333333334</ele><time>2026-03-22T15:11:37.365Z</time></trkpt><trkpt lat="43.036635" lon="13.15898"><ele>720.1666666666667</ele><time>2026-03-22T15:11:38.409Z</time></trkpt><trkpt lat="43.0366567" lon="13.1590817"><ele>718.0</ele><time>2026-03-22T15:11:39.369Z</time></trkpt><trkpt lat="43.0366767" lon="13.1591783"><ele>718.0</ele><time>2026-03-22T15:11:40.36Z</time></trkpt><trkpt lat="43.0366983" lon="13.159265"><ele>718.0</ele><time>2026-03-22T15:11:41.363Z</time></trkpt><trkpt lat="43.0367267" lon="13.1593533"><ele>718.0</ele><time>2026-03-22T15:11:42.363Z</time></trkpt><trkpt lat="43.0367567" lon="13.15945"><ele>718.0</ele><time>2026-03-22T15:11:43.362Z</time></trkpt><trkpt lat="43.0367867" lon="13.159545"><ele>718.0</ele><time>2026-03-22T15:11:44.403Z</time></trkpt><trkpt lat="43.03681" lon="13.1596433"><ele>718.0</ele><time>2026-03-22T15:11:45.358Z</time></trkpt><trkpt lat="43.036835" lon="13.159745"><ele>718.0</ele><time>2026-03-22T15:11:46.361Z</time></trkpt><trkpt lat="43.0368483" lon="13.1598583"><ele>715.8333333333334</ele><time>2026-03-22T15:11:47.363Z</time></trkpt><trkpt lat="43.0368533" lon="13.1599767"><ele>713.6666666666667</ele><time>2026-03-22T15:11:48.361Z</time></trkpt><trkpt lat="43.0368533" lon="13.1601"><ele>711.5</ele><time>2026-03-22T15:11:49.359Z</time></trkpt><trkpt lat="43.0368517" lon="13.160225"><ele>709.3333333333334</ele><time>2026-03-22T15:11:50.401Z</time></trkpt><trkpt lat="43.0368467" lon="13.16035"><ele>707.1666666666666</ele><time>2026-03-22T15:11:51.36Z</time></trkpt><trkpt lat="43.0368517" lon="13.1604717"><ele>705.0</ele><time>2026-03-22T15:11:52.361Z</time></trkpt><trkpt lat="43.036865" lon="13.16059"><ele>702.8333333333334</ele><time>2026-03-22T15:11:53.36Z</time></trkpt><trkpt lat="43.0368683" lon="13.16071"><ele>700.6666666666666</ele><time>2026-03-22T15:11:54.364Z</time></trkpt><trkpt lat="43.0368533" lon="13.160825"><ele>698.5</ele><time>2026-03-22T15:11:55.361Z</time></trkpt><trkpt lat="43.03683" lon="13.16093"><ele>696.3333333333333</ele><time>2026-03-22T15:11:56.414Z</time></trkpt><trkpt lat="43.0368" lon="13.16102"><ele>694.1666666666666</ele><time>2026-03-22T15:11:57.355Z</time></trkpt><trkpt lat="43.0367733" lon="13.161105"><ele>692.0</ele><time>2026-03-22T15:11:58.363Z</time></trkpt><trkpt lat="43.0367" lon="13.1612017"><ele>692.0</ele><time>2026-03-22T15:12:00.344Z</time></trkpt><trkpt lat="43.03664" lon="13.1612467"><ele>692.0</ele><time>2026-03-22T15:12:01.37Z</time></trkpt><trkpt lat="43.036575" lon="13.1613117"><ele>692.0</ele><time>2026-03-22T15:12:02.405Z</time></trkpt><trkpt lat="43.0365083" lon="13.1613933"><ele>692.0</ele><time>2026-03-22T15:12:03.348Z</time></trkpt><trkpt lat="43.0364467" lon="13.161505"><ele>692.0</ele><time>2026-03-22T15:12:04.354Z</time></trkpt><trkpt lat="43.03639" lon="13.1616267"><ele>692.0</ele><time>2026-03-22T15:12:05.369Z</time></trkpt><trkpt lat="43.036335" lon="13.16175"><ele>687.2</ele><time>2026-03-22T15:12:06.376Z</time></trkpt><trkpt lat="43.0362833" lon="13.1618733"><ele>682.4000000000001</ele><time>2026-03-22T15:12:07.363Z</time></trkpt><trkpt lat="43.0362367" lon="13.1619883"><ele>677.5999999999999</ele><time>2026-03-22T15:12:08.402Z</time></trkpt><trkpt lat="43.0361967" lon="13.162105"><ele>672.8</ele><time>2026-03-22T15:12:09.361Z</time></trkpt><trkpt lat="43.0361617" lon="13.1621967"><ele>668.0</ele><time>2026-03-22T15:12:10.35Z</time></trkpt><trkpt lat="43.03613" lon="13.16231"><ele>668.0</ele><time>2026-03-22T15:12:12.359Z</time></trkpt><trkpt lat="43.036055" lon="13.1622883"><ele>668.0</ele><time>2026-03-22T15:12:15.358Z</time></trkpt><trkpt lat="43.0359917" lon="13.1623033"><ele>668.0</ele><time>2026-03-22T15:12:17.35Z</time></trkpt><trkpt lat="43.0359533" lon="13.162465"><ele>668.0</ele><time>2026-03-22T15:12:19.355Z</time></trkpt><trkpt lat="43.03595" lon="13.1626017"><ele>668.0</ele><time>2026-03-22T15:12:20.398Z</time></trkpt><trkpt lat="43.0359633" lon="13.1627483"><ele>666.8</ele><time>2026-03-22T15:12:21.369Z</time></trkpt><trkpt lat="43.0359867" lon="13.1628817"><ele>665.5999999999999</ele><time>2026-03-22T15:12:22.366Z</time></trkpt><trkpt lat="43.0360183" lon="13.163005"><ele>664.4000000000001</ele><time>2026-03-22T15:12:23.364Z</time></trkpt><trkpt lat="43.0360567" lon="13.1631283"><ele>663.2</ele><time>2026-03-22T15:12:24.36Z</time></trkpt><trkpt lat="43.03611" lon="13.163245"><ele>662.0</ele><time>2026-03-22T15:12:25.37Z</time></trkpt><trkpt lat="43.0361633" lon="13.1633583"><ele>660.0</ele><time>2026-03-22T15:12:26.411Z</time></trkpt><trkpt lat="43.036215" lon="13.1634667"><ele>658.0</ele><time>2026-03-22T15:12:27.358Z</time></trkpt><trkpt lat="43.0362633" lon="13.1635767"><ele>656.0</ele><time>2026-03-22T15:12:28.363Z</time></trkpt><trkpt lat="43.036315" lon="13.1636833"><ele>654.0</ele><time>2026-03-22T15:12:29.362Z</time></trkpt><trkpt lat="43.03637" lon="13.16378"><ele>652.0</ele><time>2026-03-22T15:12:30.358Z</time></trkpt><trkpt lat="43.036435" lon="13.1638633"><ele>652.0</ele><time>2026-03-22T15:12:31.372Z</time></trkpt><trkpt lat="43.0365033" lon="13.16393"><ele>652.0</ele><time>2026-03-22T15:12:32.409Z</time></trkpt><trkpt lat="43.036585" lon="13.16397"><ele>652.0</ele><time>2026-03-22T15:12:33.365Z</time></trkpt><trkpt lat="43.0366667" lon="13.16398"><ele>652.0</ele><time>2026-03-22T15:12:34.368Z</time></trkpt><trkpt lat="43.03676" lon="13.1639717"><ele>652.0</ele><time>2026-03-22T15:12:35.364Z</time></trkpt><trkpt lat="43.0368633" lon="13.1639567"><ele>654.2</ele><time>2026-03-22T15:12:36.365Z</time></trkpt><trkpt lat="43.036975" lon="13.1639433"><ele>656.4000000000001</ele><time>2026-03-22T15:12:37.363Z</time></trkpt><trkpt lat="43.037085" lon="13.1639283"><ele>658.5999999999999</ele><time>2026-03-22T15:12:38.397Z</time></trkpt><trkpt lat="43.037185" lon="13.1639167"><ele>660.8</ele><time>2026-03-22T15:12:39.364Z</time></trkpt><trkpt lat="43.03728" lon="13.1639017"><ele>663.0</ele><time>2026-03-22T15:12:40.367Z</time></trkpt><trkpt lat="43.03737" lon="13.1638867"><ele>663.0</ele><time>2026-03-22T15:12:41.365Z</time></trkpt><trkpt lat="43.0374517" lon="13.1638733"><ele>663.0</ele><time>2026-03-22T15:12:42.359Z</time></trkpt><trkpt lat="43.0375283" lon="13.163865"><ele>663.0</ele><time>2026-03-22T15:12:43.364Z</time></trkpt><trkpt lat="43.0375933" lon="13.1638683"><ele>663.0</ele><time>2026-03-22T15:12:44.399Z</time></trkpt><trkpt lat="43.03769" lon="13.1639433"><ele>663.0</ele><time>2026-03-22T15:12:46.368Z</time></trkpt><trkpt lat="43.0377217" lon="13.1640433"><ele>663.0</ele><time>2026-03-22T15:12:47.363Z</time></trkpt><trkpt lat="43.0377633" lon="13.1641717"><ele>657.25</ele><time>2026-03-22T15:12:48.36Z</time></trkpt><trkpt lat="43.0378233" lon="13.1643117"><ele>651.5</ele><time>2026-03-22T15:12:49.356Z</time></trkpt><trkpt lat="43.037895" lon="13.164455"><ele>645.75</ele><time>2026-03-22T15:12:50.406Z</time></trkpt><trkpt lat="43.0379667" lon="13.164605"><ele>640.0</ele><time>2026-03-22T15:12:51.356Z</time></trkpt><trkpt lat="43.038045" lon="13.164755"><ele>639.5</ele><time>2026-03-22T15:12:52.362Z</time></trkpt><trkpt lat="43.0381217" lon="13.164895"><ele>639.0</ele><time>2026-03-22T15:12:53.365Z</time></trkpt><trkpt lat="43.0382" lon="13.1650183"><ele>638.5</ele><time>2026-03-22T15:12:54.36Z</time></trkpt><trkpt lat="43.0382817" lon="13.1651217"><ele>638.0</ele><time>2026-03-22T15:12:55.357Z</time></trkpt><trkpt lat="43.038375" lon="13.1652"><ele>639.0</ele><time>2026-03-22T15:12:56.413Z</time></trkpt><trkpt lat="43.0384717" lon="13.1652383"><ele>640.0</ele><time>2026-03-22T15:12:57.361Z</time></trkpt><trkpt lat="43.0385717" lon="13.1652617"><ele>641.0</ele><time>2026-03-22T15:12:58.362Z</time></trkpt><trkpt lat="43.0386783" lon="13.1653033"><ele>642.0</ele><time>2026-03-22T15:12:59.36Z</time></trkpt><trkpt lat="43.0387683" lon="13.1653667"><ele>643.0</ele><time>2026-03-22T15:13:00.353Z</time></trkpt><trkpt lat="43.03882" lon="13.1654533"><ele>643.0</ele><time>2026-03-22T15:13:01.362Z</time></trkpt><trkpt lat="43.038815" lon="13.1655483"><ele>643.0</ele><time>2026-03-22T15:13:02.405Z</time></trkpt><trkpt lat="43.0387717" lon="13.1656333"><ele>643.0</ele><time>2026-03-22T15:13:03.358Z</time></trkpt><trkpt lat="43.038675" lon="13.1657"><ele>643.0</ele><time>2026-03-22T15:13:04.375Z</time></trkpt><trkpt lat="43.0385233" lon="13.1657517"><ele>643.0</ele><time>2026-03-22T15:13:05.348Z</time></trkpt><trkpt lat="43.0383583" lon="13.1657867"><ele>645.5</ele><time>2026-03-22T15:13:06.348Z</time></trkpt><trkpt lat="43.0382133" lon="13.1658233"><ele>648.0</ele><time>2026-03-22T15:13:07.349Z</time></trkpt><trkpt lat="43.038075" lon="13.165865"><ele>650.5</ele><time>2026-03-22T15:13:08.418Z</time></trkpt><trkpt lat="43.0379467" lon="13.165905"><ele>653.0</ele><time>2026-03-22T15:13:09.344Z</time></trkpt><trkpt lat="43.0378167" lon="13.165955"><ele>653.0</ele><time>2026-03-22T15:13:10.361Z</time></trkpt><trkpt lat="43.03769" lon="13.166015"><ele>653.0</ele><time>2026-03-22T15:13:11.361Z</time></trkpt><trkpt lat="43.0375583" lon="13.1660917"><ele>653.0</ele><time>2026-03-22T15:13:12.364Z</time></trkpt><trkpt lat="43.037425" lon="13.1661783"><ele>653.0</ele><time>2026-03-22T15:13:13.368Z</time></trkpt><trkpt lat="43.037295" lon="13.1662633"><ele>651.5999999999999</ele><time>2026-03-22T15:13:14.397Z</time></trkpt><trkpt lat="43.0371833" lon="13.166345"><ele>650.1999999999999</ele><time>2026-03-22T15:13:15.362Z</time></trkpt><trkpt lat="43.0370917" lon="13.16641"><ele>648.8</ele><time>2026-03-22T15:13:16.343Z</time></trkpt><trkpt lat="43.0370117" lon="13.16646"><ele>647.4</ele><time>2026-03-22T15:13:17.335Z</time></trkpt><trkpt lat="43.0369483" lon="13.1665033"><ele>646.0</ele><time>2026-03-22T15:13:18.363Z</time></trkpt><trkpt lat="43.036875" lon="13.1665733"><ele>649.4</ele><time>2026-03-22T15:13:20.406Z</time></trkpt><trkpt lat="43.0368733" lon="13.1666733"><ele>652.8</ele><time>2026-03-22T15:13:22.363Z</time></trkpt><trkpt lat="43.03696" lon="13.1668367"><ele>656.1999999999999</ele><time>2026-03-22T15:13:24.345Z</time></trkpt><trkpt lat="43.0370067" lon="13.166945"><ele>659.5999999999999</ele><time>2026-03-22T15:13:25.362Z</time></trkpt><trkpt lat="43.0370517" lon="13.1670583"><ele>663.0</ele><time>2026-03-22T15:13:26.393Z</time></trkpt><trkpt lat="43.0370833" lon="13.1671783"><ele>663.0</ele><time>2026-03-22T15:13:27.342Z</time></trkpt><trkpt lat="43.037105" lon="13.1673083"><ele>663.0</ele><time>2026-03-22T15:13:28.364Z</time></trkpt><trkpt lat="43.037115" lon="13.1674483"><ele>663.0</ele><time>2026-03-22T15:13:29.37Z</time></trkpt><trkpt lat="43.03711" lon="13.1675967"><ele>663.0</ele><time>2026-03-22T15:13:30.354Z</time></trkpt><trkpt lat="43.0370983" lon="13.1677483"><ele>663.0</ele><time>2026-03-22T15:13:31.374Z</time></trkpt><trkpt lat="43.0370883" lon="13.1679"><ele>665.0</ele><time>2026-03-22T15:13:32.422Z</time></trkpt><trkpt lat="43.037085" lon="13.168045"><ele>667.0</ele><time>2026-03-22T15:13:33.369Z</time></trkpt><trkpt lat="43.0370883" lon="13.168185"><ele>669.0</ele><time>2026-03-22T15:13:34.364Z</time></trkpt><trkpt lat="43.03711" lon="13.1683217"><ele>671.0</ele><time>2026-03-22T15:13:35.357Z</time></trkpt><trkpt lat="43.0371433" lon="13.16845"><ele>673.0</ele><time>2026-03-22T15:13:36.362Z</time></trkpt><trkpt lat="43.037205" lon="13.1685733"><ele>673.25</ele><time>2026-03-22T15:13:37.368Z</time></trkpt><trkpt lat="43.03729" lon="13.1686867"><ele>673.5</ele><time>2026-03-22T15:13:38.405Z</time></trkpt><trkpt lat="43.0373967" lon="13.1687833"><ele>673.75</ele><time>2026-03-22T15:13:39.363Z</time></trkpt><trkpt lat="43.03751" lon="13.1688733"><ele>674.0</ele><time>2026-03-22T15:13:40.373Z</time></trkpt><trkpt lat="43.037635" lon="13.16896"><ele>674.0</ele><time>2026-03-22T15:13:41.371Z</time></trkpt><trkpt lat="43.037765" lon="13.1690433"><ele>674.0</ele><time>2026-03-22T15:13:42.377Z</time></trkpt><trkpt lat="43.0379033" lon="13.16912"><ele>674.0</ele><time>2026-03-22T15:13:43.366Z</time></trkpt><trkpt lat="43.03805" lon="13.16919"><ele>674.0</ele><time>2026-03-22T15:13:44.407Z</time></trkpt><trkpt lat="43.0381883" lon="13.169255"><ele>676.25</ele><time>2026-03-22T15:13:45.367Z</time></trkpt><trkpt lat="43.0383117" lon="13.1693283"><ele>678.5</ele><time>2026-03-22T15:13:46.372Z</time></trkpt><trkpt lat="43.03842" lon="13.1694083"><ele>680.75</ele><time>2026-03-22T15:13:47.372Z</time></trkpt><trkpt lat="43.0385017" lon="13.1694967"><ele>683.0</ele><time>2026-03-22T15:13:48.366Z</time></trkpt><trkpt lat="43.0385817" lon="13.1695683"><ele>683.0</ele><time>2026-03-22T15:13:49.383Z</time></trkpt><trkpt lat="43.0386717" lon="13.16962"><ele>683.0</ele><time>2026-03-22T15:13:50.406Z</time></trkpt><trkpt lat="43.038775" lon="13.1696467"><ele>683.0</ele><time>2026-03-22T15:13:51.357Z</time></trkpt><trkpt lat="43.038875" lon="13.169685"><ele>683.0</ele><time>2026-03-22T15:13:52.371Z</time></trkpt><trkpt lat="43.038965" lon="13.169745"><ele>683.0</ele><time>2026-03-22T15:13:53.369Z</time></trkpt><trkpt lat="43.039035" lon="13.1698333"><ele>686.25</ele><time>2026-03-22T15:13:54.375Z</time></trkpt><trkpt lat="43.039065" lon="13.169965"><ele>689.5</ele><time>2026-03-22T15:13:55.363Z</time></trkpt><trkpt lat="43.039065" lon="13.1701217"><ele>692.75</ele><time>2026-03-22T15:13:56.415Z</time></trkpt><trkpt lat="43.0390617" lon="13.1702967"><ele>696.0</ele><time>2026-03-22T15:13:57.367Z</time></trkpt><trkpt lat="43.0390867" lon="13.1704733"><ele>696.0</ele><time>2026-03-22T15:13:58.36Z</time></trkpt><trkpt lat="43.03911" lon="13.170645"><ele>696.0</ele><time>2026-03-22T15:13:59.367Z</time></trkpt><trkpt lat="43.03914" lon="13.170815"><ele>696.0</ele><time>2026-03-22T15:14:00.366Z</time></trkpt><trkpt lat="43.03916" lon="13.170975"><ele>696.0</ele><time>2026-03-22T15:14:01.366Z</time></trkpt><trkpt lat="43.0391783" lon="13.1711417"><ele>700.0</ele><time>2026-03-22T15:14:02.406Z</time></trkpt><trkpt lat="43.039195" lon="13.1713133"><ele>704.0</ele><time>2026-03-22T15:14:03.365Z</time></trkpt><trkpt lat="43.0392233" lon="13.171485"><ele>708.0</ele><time>2026-03-22T15:14:04.359Z</time></trkpt><trkpt lat="43.0392633" lon="13.1716583"><ele>712.0</ele><time>2026-03-22T15:14:05.386Z</time></trkpt><trkpt lat="43.0393117" lon="13.171825"><ele>714.75</ele><time>2026-03-22T15:14:06.369Z</time></trkpt><trkpt lat="43.0393667" lon="13.1719833"><ele>717.5</ele><time>2026-03-22T15:14:07.365Z</time></trkpt><trkpt lat="43.0394283" lon="13.1721283"><ele>720.25</ele><time>2026-03-22T15:14:08.413Z</time></trkpt><trkpt lat="43.039505" lon="13.1722583"><ele>723.0</ele><time>2026-03-22T15:14:09.368Z</time></trkpt><trkpt lat="43.0396" lon="13.1723817"><ele>725.75</ele><time>2026-03-22T15:14:10.374Z</time></trkpt><trkpt lat="43.0396933" lon="13.1725017"><ele>728.5</ele><time>2026-03-22T15:14:11.372Z</time></trkpt><trkpt lat="43.0397967" lon="13.1726233"><ele>731.25</ele><time>2026-03-22T15:14:12.371Z</time></trkpt><trkpt lat="43.0399117" lon="13.1727433"><ele>734.0</ele><time>2026-03-22T15:14:13.372Z</time></trkpt><trkpt lat="43.04003" lon="13.1728617"><ele>734.0</ele><time>2026-03-22T15:14:14.408Z</time></trkpt><trkpt lat="43.0401467" lon="13.1729783"><ele>734.0</ele><time>2026-03-22T15:14:15.363Z</time></trkpt><trkpt lat="43.0402667" lon="13.1730917"><ele>734.0</ele><time>2026-03-22T15:14:16.371Z</time></trkpt><trkpt lat="43.040385" lon="13.17321"><ele>734.0</ele><time>2026-03-22T15:14:17.365Z</time></trkpt><trkpt lat="43.0405067" lon="13.173315"><ele>737.25</ele><time>2026-03-22T15:14:18.364Z</time></trkpt><trkpt lat="43.04064" lon="13.17341"><ele>740.5</ele><time>2026-03-22T15:14:19.364Z</time></trkpt><trkpt lat="43.040775" lon="13.1734933"><ele>743.75</ele><time>2026-03-22T15:14:20.406Z</time></trkpt><trkpt lat="43.0409017" lon="13.1735583"><ele>747.0</ele><time>2026-03-22T15:14:21.362Z</time></trkpt><trkpt lat="43.041025" lon="13.173615"><ele>747.5</ele><time>2026-03-22T15:14:22.364Z</time></trkpt><trkpt lat="43.0411317" lon="13.1736667"><ele>748.0</ele><time>2026-03-22T15:14:23.366Z</time></trkpt><trkpt lat="43.0412233" lon="13.1737183"><ele>748.5</ele><time>2026-03-22T15:14:24.374Z</time></trkpt><trkpt lat="43.041295" lon="13.1737767"><ele>749.0</ele><time>2026-03-22T15:14:25.371Z</time></trkpt><trkpt lat="43.0413483" lon="13.1738433"><ele>749.5</ele><time>2026-03-22T15:14:26.42Z</time></trkpt><trkpt lat="43.0413817" lon="13.1739383"><ele>750.0</ele><time>2026-03-22T15:14:27.363Z</time></trkpt><trkpt lat="43.0414217" lon="13.1740333"><ele>753.1666666666666</ele><time>2026-03-22T15:14:28.37Z</time></trkpt><trkpt lat="43.0414683" lon="13.1741133"><ele>756.3333333333333</ele><time>2026-03-22T15:14:29.359Z</time></trkpt><trkpt lat="43.0415283" lon="13.1741833"><ele>759.5</ele><time>2026-03-22T15:14:30.355Z</time></trkpt><trkpt lat="43.0416017" lon="13.17425"><ele>762.6666666666666</ele><time>2026-03-22T15:14:31.371Z</time></trkpt><trkpt lat="43.0416767" lon="13.174325"><ele>765.8333333333333</ele><time>2026-03-22T15:14:32.41Z</time></trkpt><trkpt lat="43.0417433" lon="13.1744133"><ele>769.0</ele><time>2026-03-22T15:14:33.361Z</time></trkpt><trkpt lat="43.0418033" lon="13.1745083"><ele>769.0</ele><time>2026-03-22T15:14:34.375Z</time></trkpt><trkpt lat="43.0418583" lon="13.1746017"><ele>769.0</ele><time>2026-03-22T15:14:35.369Z</time></trkpt><trkpt lat="43.0419083" lon="13.1747067"><ele>769.0</ele><time>2026-03-22T15:14:36.367Z</time></trkpt><trkpt lat="43.0419567" lon="13.17483"><ele>769.0</ele><time>2026-03-22T15:14:37.369Z</time></trkpt><trkpt lat="43.042015" lon="13.1749417"><ele>769.0</ele><time>2026-03-22T15:14:38.403Z</time></trkpt><trkpt lat="43.0420733" lon="13.1750433"><ele>771.9999999999999</ele><time>2026-03-22T15:14:39.363Z</time></trkpt><trkpt lat="43.0421367" lon="13.1751217"><ele>775.0</ele><time>2026-03-22T15:14:40.367Z</time></trkpt><trkpt lat="43.0422" lon="13.1752"><ele>778.0</ele><time>2026-03-22T15:14:41.37Z</time></trkpt><trkpt lat="43.042275" lon="13.1752517"><ele>781.0</ele><time>2026-03-22T15:14:42.362Z</time></trkpt><trkpt lat="43.0423633" lon="13.17529"><ele>783.9999999999999</ele><time>2026-03-22T15:14:43.371Z</time></trkpt><trkpt lat="43.04245" lon="13.17533"><ele>787.0</ele><time>2026-03-22T15:14:44.412Z</time></trkpt><trkpt lat="43.0425333" lon="13.1753767"><ele>787.0</ele><time>2026-03-22T15:14:45.37Z</time></trkpt><trkpt lat="43.0426" lon="13.1754417"><ele>787.0</ele><time>2026-03-22T15:14:46.363Z</time></trkpt><trkpt lat="43.0426733" lon="13.1755117"><ele>787.0</ele><time>2026-03-22T15:14:47.365Z</time></trkpt><trkpt lat="43.0427383" lon="13.175595"><ele>787.0</ele><time>2026-03-22T15:14:48.37Z</time></trkpt><trkpt lat="43.0428033" lon="13.1756883"><ele>787.0</ele><time>2026-03-22T15:14:49.372Z</time></trkpt><trkpt lat="43.0428667" lon="13.1757917"><ele>791.8</ele><time>2026-03-22T15:14:50.413Z</time></trkpt><trkpt lat="43.04293" lon="13.1759083"><ele>796.6</ele><time>2026-03-22T15:14:51.37Z</time></trkpt><trkpt lat="43.0429917" lon="13.1760217"><ele>801.4</ele><time>2026-03-22T15:14:52.373Z</time></trkpt><trkpt lat="43.0430567" lon="13.1761217"><ele>806.1999999999999</ele><time>2026-03-22T15:14:53.37Z</time></trkpt><trkpt lat="43.0431133" lon="13.1762117"><ele>811.0</ele><time>2026-03-22T15:14:54.373Z</time></trkpt><trkpt lat="43.043175" lon="13.1762817"><ele>811.0</ele><time>2026-03-22T15:14:55.372Z</time></trkpt><trkpt lat="43.0432417" lon="13.17635"><ele>811.0</ele><time>2026-03-22T15:14:56.419Z</time></trkpt><trkpt lat="43.0433067" lon="13.176425"><ele>811.0</ele><time>2026-03-22T15:14:57.367Z</time></trkpt><trkpt lat="43.0433683" lon="13.1765117"><ele>811.0</ele><time>2026-03-22T15:14:58.368Z</time></trkpt><trkpt lat="43.043425" lon="13.17662"><ele>811.0</ele><time>2026-03-22T15:14:59.354Z</time></trkpt><trkpt lat="43.04349" lon="13.1767317"><ele>814.8</ele><time>2026-03-22T15:15:00.371Z</time></trkpt><trkpt lat="43.043565" lon="13.17685"><ele>818.5999999999999</ele><time>2026-03-22T15:15:01.357Z</time></trkpt><trkpt lat="43.043645" lon="13.17697"><ele>822.4</ele><time>2026-03-22T15:15:02.409Z</time></trkpt><trkpt lat="43.043725" lon="13.1770833"><ele>826.2</ele><time>2026-03-22T15:15:03.358Z</time></trkpt><trkpt lat="43.0437933" lon="13.1771833"><ele>830.0</ele><time>2026-03-22T15:15:04.359Z</time></trkpt><trkpt lat="43.0438717" lon="13.1772683"><ele>830.0</ele><time>2026-03-22T15:15:05.361Z</time></trkpt><trkpt lat="43.0439667" lon="13.1773317"><ele>830.0</ele><time>2026-03-22T15:15:06.362Z</time></trkpt><trkpt lat="43.0440667" lon="13.1773783"><ele>830.0</ele><time>2026-03-22T15:15:07.362Z</time></trkpt><trkpt lat="43.0441517" lon="13.17744"><ele>830.0</ele><time>2026-03-22T15:15:08.422Z</time></trkpt><trkpt lat="43.044235" lon="13.1775133"><ele>830.0</ele><time>2026-03-22T15:15:09.359Z</time></trkpt><trkpt lat="43.0443067" lon="13.177595"><ele>832.0000000000001</ele><time>2026-03-22T15:15:10.357Z</time></trkpt><trkpt lat="43.0443633" lon="13.1776733"><ele>834.0</ele><time>2026-03-22T15:15:11.361Z</time></trkpt><trkpt lat="43.044405" lon="13.1777533"><ele>836.0</ele><time>2026-03-22T15:15:12.36Z</time></trkpt><trkpt lat="43.0444417" lon="13.1778517"><ele>838.0</ele><time>2026-03-22T15:15:13.368Z</time></trkpt><trkpt lat="43.0444717" lon="13.1779817"><ele>840.0000000000001</ele><time>2026-03-22T15:15:14.411Z</time></trkpt><trkpt lat="43.0444917" lon="13.1781333"><ele>842.0</ele><time>2026-03-22T15:15:15.358Z</time></trkpt><trkpt lat="43.0445133" lon="13.1782983"><ele>845.4000000000001</ele><time>2026-03-22T15:15:16.349Z</time></trkpt><trkpt lat="43.0445283" lon="13.178465"><ele>848.8000000000001</ele><time>2026-03-22T15:15:17.382Z</time></trkpt><trkpt lat="43.0445367" lon="13.17862"><ele>852.2</ele><time>2026-03-22T15:15:18.368Z</time></trkpt><trkpt lat="43.0445383" lon="13.1787533"><ele>855.6</ele><time>2026-03-22T15:15:19.373Z</time></trkpt><trkpt lat="43.0445333" lon="13.1788617"><ele>859.0</ele><time>2026-03-22T15:15:20.403Z</time></trkpt><trkpt lat="43.0445283" lon="13.178985"><ele>859.0</ele><time>2026-03-22T15:15:22.37Z</time></trkpt><trkpt lat="43.0446183" lon="13.1789983"><ele>859.0000000000001</ele><time>2026-03-22T15:15:25.366Z</time></trkpt><trkpt lat="43.0446783" lon="13.1789533"><ele>859.0000000000001</ele><time>2026-03-22T15:15:26.409Z</time></trkpt><trkpt lat="43.04475" lon="13.1788617"><ele>859.0</ele><time>2026-03-22T15:15:27.363Z</time></trkpt><trkpt lat="43.044835" lon="13.1787233"><ele>859.0</ele><time>2026-03-22T15:15:28.362Z</time></trkpt><trkpt lat="43.044915" lon="13.1786167"><ele>858.0</ele><time>2026-03-22T15:15:29.371Z</time></trkpt><trkpt lat="43.0449817" lon="13.1785167"><ele>857.0000000000001</ele><time>2026-03-22T15:15:30.355Z</time></trkpt><trkpt lat="43.0450533" lon="13.17843"><ele>856.0000000000001</ele><time>2026-03-22T15:15:31.373Z</time></trkpt><trkpt lat="43.045135" lon="13.1783483"><ele>855.0</ele><time>2026-03-22T15:15:32.409Z</time></trkpt><trkpt lat="43.04521" lon="13.1782783"><ele>854.0</ele><time>2026-03-22T15:15:33.371Z</time></trkpt><trkpt lat="43.0452717" lon="13.1782317"><ele>854.0000000000001</ele><time>2026-03-22T15:15:34.368Z</time></trkpt><trkpt lat="43.04534" lon="13.1782183"><ele>854.0</ele><time>2026-03-22T15:15:35.369Z</time></trkpt><trkpt lat="43.04545" lon="13.1782817"><ele>854.0</ele><time>2026-03-22T15:15:37.375Z</time></trkpt><trkpt lat="43.04549" lon="13.1783533"><ele>854.0</ele><time>2026-03-22T15:15:38.396Z</time></trkpt><trkpt lat="43.0455033" lon="13.1784533"><ele>854.0000000000001</ele><time>2026-03-22T15:15:39.36Z</time></trkpt><trkpt lat="43.04551" lon="13.1785717"><ele>854.0</ele><time>2026-03-22T15:15:40.375Z</time></trkpt><trkpt lat="43.045535" lon="13.17869"><ele>854.0</ele><time>2026-03-22T15:15:41.367Z</time></trkpt><trkpt lat="43.0455783" lon="13.17881"><ele>854.0000000000001</ele><time>2026-03-22T15:15:42.364Z</time></trkpt><trkpt lat="43.04564" lon="13.1789417"><ele>854.0000000000001</ele><time>2026-03-22T15:15:43.372Z</time></trkpt><trkpt lat="43.04571" lon="13.1790733"><ele>854.0</ele><time>2026-03-22T15:15:44.414Z</time></trkpt><trkpt lat="43.04579" lon="13.1791917"><ele>854.0</ele><time>2026-03-22T15:15:45.372Z</time></trkpt><trkpt lat="43.045865" lon="13.1792983"><ele>858.8000000000001</ele><time>2026-03-22T15:15:46.347Z</time></trkpt><trkpt lat="43.0459283" lon="13.179385"><ele>863.6000000000001</ele><time>2026-03-22T15:15:47.351Z</time></trkpt><trkpt lat="43.0459967" lon="13.179455"><ele>868.4</ele><time>2026-03-22T15:15:48.357Z</time></trkpt><trkpt lat="43.0460733" lon="13.17952"><ele>873.2</ele><time>2026-03-22T15:15:49.375Z</time></trkpt><trkpt lat="43.046155" lon="13.1795983"><ele>878.0</ele><time>2026-03-22T15:15:50.41Z</time></trkpt><trkpt lat="43.04624" lon="13.1796933"><ele>878.0</ele><time>2026-03-22T15:15:51.36Z</time></trkpt><trkpt lat="43.0463233" lon="13.1798"><ele>878.0</ele><time>2026-03-22T15:15:52.37Z</time></trkpt><trkpt lat="43.0464083" lon="13.17991"><ele>878.0</ele><time>2026-03-22T15:15:53.369Z</time></trkpt><trkpt lat="43.0464833" lon="13.18002"><ele>878.0</ele><time>2026-03-22T15:15:54.356Z</time></trkpt><trkpt lat="43.046545" lon="13.1801267"><ele>878.0</ele><time>2026-03-22T15:15:55.356Z</time></trkpt><trkpt lat="43.0465917" lon="13.1802267"><ele>879.2</ele><time>2026-03-22T15:15:56.404Z</time></trkpt><trkpt lat="43.04663" lon="13.1803217"><ele>880.4</ele><time>2026-03-22T15:15:57.355Z</time></trkpt><trkpt lat="43.0466483" lon="13.1804067"><ele>881.6000000000001</ele><time>2026-03-22T15:15:58.361Z</time></trkpt><trkpt lat="43.046635" lon="13.180545"><ele>882.8000000000001</ele><time>2026-03-22T15:16:00.341Z</time></trkpt><trkpt lat="43.046555" lon="13.1806917"><ele>884.0</ele><time>2026-03-22T15:16:02.397Z</time></trkpt><trkpt lat="43.046495" lon="13.1807733"><ele>887.8000000000001</ele><time>2026-03-22T15:16:03.339Z</time></trkpt><trkpt lat="43.0464217" lon="13.1808667"><ele>891.6000000000001</ele><time>2026-03-22T15:16:04.349Z</time></trkpt><trkpt lat="43.0463483" lon="13.1809667"><ele>895.4</ele><time>2026-03-22T15:16:05.35Z</time></trkpt><trkpt lat="43.0462817" lon="13.1810733"><ele>899.2</ele><time>2026-03-22T15:16:06.356Z</time></trkpt><trkpt lat="43.046215" lon="13.1811883"><ele>903.0</ele><time>2026-03-22T15:16:07.352Z</time></trkpt><trkpt lat="43.04615" lon="13.18131"><ele>903.0</ele><time>2026-03-22T15:16:08.395Z</time></trkpt><trkpt lat="43.0460817" lon="13.18143"><ele>903.0</ele><time>2026-03-22T15:16:09.355Z</time></trkpt><trkpt lat="43.0460217" lon="13.1815467"><ele>903.0</ele><time>2026-03-22T15:16:10.356Z</time></trkpt><trkpt lat="43.0459567" lon="13.1816467"><ele>903.0</ele><time>2026-03-22T15:16:11.355Z</time></trkpt><trkpt lat="43.045885" lon="13.1817383"><ele>903.0</ele><time>2026-03-22T15:16:12.359Z</time></trkpt><trkpt lat="43.0458083" lon="13.1818367"><ele>905.2</ele><time>2026-03-22T15:16:13.359Z</time></trkpt><trkpt lat="43.045735" lon="13.1819333"><ele>907.4</ele><time>2026-03-22T15:16:14.398Z</time></trkpt><trkpt lat="43.0456833" lon="13.1820217"><ele>909.6000000000001</ele><time>2026-03-22T15:16:15.352Z</time></trkpt><trkpt lat="43.0456567" lon="13.1821"><ele>911.8000000000001</ele><time>2026-03-22T15:16:16.355Z</time></trkpt><trkpt lat="43.04566" lon="13.1822633"><ele>914.0</ele><time>2026-03-22T15:16:18.365Z</time></trkpt><trkpt lat="43.0456733" lon="13.18242"><ele>914.0</ele><time>2026-03-22T15:16:20.398Z</time></trkpt><trkpt lat="43.0456433" lon="13.1825883"><ele>914.0000000000001</ele><time>2026-03-22T15:16:22.368Z</time></trkpt><trkpt lat="43.04561" lon="13.1826933"><ele>914.0000000000001</ele><time>2026-03-22T15:16:23.354Z</time></trkpt><trkpt lat="43.0455817" lon="13.18281"><ele>914.0</ele><time>2026-03-22T15:16:24.354Z</time></trkpt><trkpt lat="43.0455583" lon="13.1829367"><ele>914.0</ele><time>2026-03-22T15:16:25.362Z</time></trkpt><trkpt lat="43.0455367" lon="13.183065"><ele>912.8000000000001</ele><time>2026-03-22T15:16:26.404Z</time></trkpt><trkpt lat="43.0455117" lon="13.1831867"><ele>911.6000000000001</ele><time>2026-03-22T15:16:27.354Z</time></trkpt><trkpt lat="43.0454783" lon="13.183305"><ele>910.4</ele><time>2026-03-22T15:16:28.357Z</time></trkpt><trkpt lat="43.045435" lon="13.1834417"><ele>909.2</ele><time>2026-03-22T15:16:29.356Z</time></trkpt><trkpt lat="43.0453933" lon="13.1835933"><ele>908.0</ele><time>2026-03-22T15:16:30.359Z</time></trkpt><trkpt lat="43.0453583" lon="13.1837483"><ele>908.0</ele><time>2026-03-22T15:16:31.37Z</time></trkpt><trkpt lat="43.0453317" lon="13.1839"><ele>908.0</ele><time>2026-03-22T15:16:32.416Z</time></trkpt><trkpt lat="43.045315" lon="13.1840517"><ele>908.0</ele><time>2026-03-22T15:16:33.366Z</time></trkpt><trkpt lat="43.045305" lon="13.1842067"><ele>908.0</ele><time>2026-03-22T15:16:34.373Z</time></trkpt><trkpt lat="43.0452983" lon="13.1843767"><ele>907.5999999999999</ele><time>2026-03-22T15:16:35.356Z</time></trkpt><trkpt lat="43.0452967" lon="13.184555"><ele>907.1999999999999</ele><time>2026-03-22T15:16:36.358Z</time></trkpt><trkpt lat="43.0453017" lon="13.1847217"><ele>906.8</ele><time>2026-03-22T15:16:37.356Z</time></trkpt><trkpt lat="43.045315" lon="13.18486"><ele>906.4</ele><time>2026-03-22T15:16:38.401Z</time></trkpt><trkpt lat="43.0453067" lon="13.184975"><ele>906.0</ele><time>2026-03-22T15:16:39.352Z</time></trkpt><trkpt lat="43.0452833" lon="13.1850967"><ele>906.0</ele><time>2026-03-22T15:16:40.356Z</time></trkpt><trkpt lat="43.0452617" lon="13.185235"><ele>906.0</ele><time>2026-03-22T15:16:41.356Z</time></trkpt><trkpt lat="43.045245" lon="13.1853833"><ele>906.0</ele><time>2026-03-22T15:16:42.349Z</time></trkpt><trkpt lat="43.0452367" lon="13.1855517"><ele>906.0</ele><time>2026-03-22T15:16:43.356Z</time></trkpt><trkpt lat="43.04524" lon="13.1857367"><ele>908.25</ele><time>2026-03-22T15:16:44.391Z</time></trkpt><trkpt lat="43.04525" lon="13.1859183"><ele>910.5</ele><time>2026-03-22T15:16:45.35Z</time></trkpt><trkpt lat="43.0452683" lon="13.1860967"><ele>912.75</ele><time>2026-03-22T15:16:46.366Z</time></trkpt><trkpt lat="43.0452917" lon="13.1862717"><ele>915.0</ele><time>2026-03-22T15:16:47.369Z</time></trkpt><trkpt lat="43.0453167" lon="13.18643"><ele>916.6</ele><time>2026-03-22T15:16:48.37Z</time></trkpt><trkpt lat="43.04534" lon="13.1865833"><ele>918.2</ele><time>2026-03-22T15:16:49.365Z</time></trkpt><trkpt lat="43.0453617" lon="13.1867333"><ele>919.8</ele><time>2026-03-22T15:16:50.398Z</time></trkpt><trkpt lat="43.0453733" lon="13.1868717"><ele>921.4</ele><time>2026-03-22T15:16:51.362Z</time></trkpt><trkpt lat="43.04538" lon="13.187"><ele>923.0</ele><time>2026-03-22T15:16:52.365Z</time></trkpt><trkpt lat="43.0453883" lon="13.1871183"><ele>923.0000000000001</ele><time>2026-03-22T15:16:53.369Z</time></trkpt><trkpt lat="43.0453983" lon="13.187225"><ele>923.0</ele><time>2026-03-22T15:16:54.361Z</time></trkpt><trkpt lat="43.0454033" lon="13.1873267"><ele>923.0</ele><time>2026-03-22T15:16:55.367Z</time></trkpt><trkpt lat="43.0454067" lon="13.187435"><ele>923.0</ele><time>2026-03-22T15:16:56.413Z</time></trkpt><trkpt lat="43.0454083" lon="13.187545"><ele>923.0000000000001</ele><time>2026-03-22T15:16:57.359Z</time></trkpt><trkpt lat="43.0454067" lon="13.18765"><ele>923.0</ele><time>2026-03-22T15:16:58.368Z</time></trkpt><trkpt lat="43.0454" lon="13.187755"><ele>923.8571428571429</ele><time>2026-03-22T15:16:59.374Z</time></trkpt><trkpt lat="43.045395" lon="13.18786"><ele>924.7142857142858</ele><time>2026-03-22T15:17:00.37Z</time></trkpt><trkpt lat="43.0453933" lon="13.1879683"><ele>925.5714285714287</ele><time>2026-03-22T15:17:01.369Z</time></trkpt><trkpt lat="43.0453967" lon="13.1880733"><ele>926.4285714285714</ele><time>2026-03-22T15:17:02.411Z</time></trkpt><trkpt lat="43.04541" lon="13.1881733"><ele>927.2857142857144</ele><time>2026-03-22T15:17:03.361Z</time></trkpt><trkpt lat="43.0454283" lon="13.1882683"><ele>928.1428571428572</ele><time>2026-03-22T15:17:04.363Z</time></trkpt><trkpt lat="43.0454417" lon="13.1883617"><ele>929.0</ele><time>2026-03-22T15:17:05.37Z</time></trkpt><trkpt lat="43.0454483" lon="13.188465"><ele>929.8333333333334</ele><time>2026-03-22T15:17:06.359Z</time></trkpt><trkpt lat="43.0454483" lon="13.18858"><ele>930.6666666666667</ele><time>2026-03-22T15:17:07.368Z</time></trkpt><trkpt lat="43.0454483" lon="13.1887067"><ele>931.5</ele><time>2026-03-22T15:17:08.401Z</time></trkpt><trkpt lat="43.0454433" lon="13.1888367"><ele>932.3333333333333</ele><time>2026-03-22T15:17:09.361Z</time></trkpt><trkpt lat="43.0454367" lon="13.1889617"><ele>933.1666666666666</ele><time>2026-03-22T15:17:10.371Z</time></trkpt><trkpt lat="43.045435" lon="13.1890783"><ele>934.0</ele><time>2026-03-22T15:17:11.372Z</time></trkpt><trkpt lat="43.045445" lon="13.1891833"><ele>935.9999999999999</ele><time>2026-03-22T15:17:12.362Z</time></trkpt><trkpt lat="43.0454633" lon="13.1892817"><ele>938.0</ele><time>2026-03-22T15:17:13.369Z</time></trkpt><trkpt lat="43.0454917" lon="13.1893667"><ele>940.0</ele><time>2026-03-22T15:17:14.406Z</time></trkpt><trkpt lat="43.0455367" lon="13.1894383"><ele>942.0</ele><time>2026-03-22T15:17:15.361Z</time></trkpt><trkpt lat="43.0455733" lon="13.1895417"><ele>943.9999999999999</ele><time>2026-03-22T15:17:17.367Z</time></trkpt><trkpt lat="43.04558" lon="13.1896683"><ele>946.0</ele><time>2026-03-22T15:17:20.398Z</time></trkpt><trkpt lat="43.0456217" lon="13.1897817"><ele>949.4</ele><time>2026-03-22T15:17:22.363Z</time></trkpt><trkpt lat="43.0457083" lon="13.189915"><ele>952.8</ele><time>2026-03-22T15:17:24.347Z</time></trkpt><trkpt lat="43.0457567" lon="13.1899883"><ele>956.1999999999999</ele><time>2026-03-22T15:17:25.373Z</time></trkpt><trkpt lat="43.0458" lon="13.1900633"><ele>959.5999999999999</ele><time>2026-03-22T15:17:26.416Z</time></trkpt><trkpt lat="43.04589" lon="13.1901667"><ele>963.0</ele><time>2026-03-22T15:17:28.362Z</time></trkpt><trkpt lat="43.0459433" lon="13.1902133"><ele>963.1666666666666</ele><time>2026-03-22T15:17:29.363Z</time></trkpt><trkpt lat="43.0459983" lon="13.190265"><ele>963.3333333333333</ele><time>2026-03-22T15:17:30.366Z</time></trkpt><trkpt lat="43.04605" lon="13.190325"><ele>963.5</ele><time>2026-03-22T15:17:31.356Z</time></trkpt><trkpt lat="43.04611" lon="13.19039"><ele>963.6666666666666</ele><time>2026-03-22T15:17:32.404Z</time></trkpt><trkpt lat="43.0461717" lon="13.1904617"><ele>963.8333333333333</ele><time>2026-03-22T15:17:33.357Z</time></trkpt><trkpt lat="43.04623" lon="13.190545"><ele>964.0</ele><time>2026-03-22T15:17:34.369Z</time></trkpt><trkpt lat="43.0462833" lon="13.19064"><ele>966.9999999999999</ele><time>2026-03-22T15:17:35.372Z</time></trkpt><trkpt lat="43.0463217" lon="13.1907367"><ele>970.0</ele><time>2026-03-22T15:17:36.372Z</time></trkpt><trkpt lat="43.0463633" lon="13.1908217"><ele>973.0</ele><time>2026-03-22T15:17:37.373Z</time></trkpt><trkpt lat="43.04641" lon="13.190905"><ele>976.0</ele><time>2026-03-22T15:17:38.404Z</time></trkpt><trkpt lat="43.0464617" lon="13.19098"><ele>978.9999999999999</ele><time>2026-03-22T15:17:39.361Z</time></trkpt><trkpt lat="43.0465217" lon="13.1910667"><ele>982.0</ele><time>2026-03-22T15:17:40.364Z</time></trkpt><trkpt lat="43.0465883" lon="13.1911533"><ele>986.25</ele><time>2026-03-22T15:17:41.369Z</time></trkpt><trkpt lat="43.0466583" lon="13.1912517"><ele>990.5</ele><time>2026-03-22T15:17:42.37Z</time></trkpt><trkpt lat="43.046735" lon="13.1913617"><ele>994.75</ele><time>2026-03-22T15:17:43.365Z</time></trkpt><trkpt lat="43.0468183" lon="13.1914817"><ele>999.0</ele><time>2026-03-22T15:17:44.402Z</time></trkpt><trkpt lat="43.0469" lon="13.1915967"><ele>1000.6</ele><time>2026-03-22T15:17:45.361Z</time></trkpt><trkpt lat="43.04698" lon="13.1917017"><ele>1002.2</ele><time>2026-03-22T15:17:46.373Z</time></trkpt><trkpt lat="43.0470567" lon="13.1917967"><ele>1003.8000000000001</ele><time>2026-03-22T15:17:47.351Z</time></trkpt><trkpt lat="43.0471367" lon="13.1918833"><ele>1005.4000000000001</ele><time>2026-03-22T15:17:48.37Z</time></trkpt><trkpt lat="43.0472133" lon="13.1919633"><ele>1007.0</ele><time>2026-03-22T15:17:49.37Z</time></trkpt><trkpt lat="43.0472917" lon="13.1920383"><ele>1007.0</ele><time>2026-03-22T15:17:50.409Z</time></trkpt><trkpt lat="43.0473817" lon="13.1921167"><ele>1007.0</ele><time>2026-03-22T15:17:51.37Z</time></trkpt><trkpt lat="43.0474583" lon="13.192195"><ele>1007.0</ele><time>2026-03-22T15:17:52.365Z</time></trkpt><trkpt lat="43.047535" lon="13.192265"><ele>1007.0</ele><time>2026-03-22T15:17:53.362Z</time></trkpt><trkpt lat="43.0476067" lon="13.192325"><ele>1007.0</ele><time>2026-03-22T15:17:54.368Z</time></trkpt><trkpt lat="43.0476833" lon="13.1923767"><ele>1010.2</ele><time>2026-03-22T15:17:55.349Z</time></trkpt><trkpt lat="43.04777" lon="13.1924233"><ele>1013.4000000000001</ele><time>2026-03-22T15:17:56.421Z</time></trkpt><trkpt lat="43.047875" lon="13.1924683"><ele>1016.5999999999999</ele><time>2026-03-22T15:17:57.36Z</time></trkpt><trkpt lat="43.0479867" lon="13.192515"><ele>1019.8</ele><time>2026-03-22T15:17:58.371Z</time></trkpt><trkpt lat="43.04809" lon="13.1925567"><ele>1023.0</ele><time>2026-03-22T15:17:59.356Z</time></trkpt><trkpt lat="43.0481817" lon="13.1925933"><ele>1023.0</ele><time>2026-03-22T15:18:00.361Z</time></trkpt><trkpt lat="43.0482567" lon="13.1926383"><ele>1023.0</ele><time>2026-03-22T15:18:01.369Z</time></trkpt><trkpt lat="43.0483217" lon="13.1926867"><ele>1023.0</ele><time>2026-03-22T15:18:02.401Z</time></trkpt><trkpt lat="43.0484083" lon="13.1927583"><ele>1023.0</ele><time>2026-03-22T15:18:04.359Z</time></trkpt><trkpt lat="43.0484917" lon="13.1928317"><ele>1023.0</ele><time>2026-03-22T15:19:05.359Z</time></trkpt><trkpt lat="43.048555" lon="13.192885"><ele>1023.0</ele><time>2026-03-22T15:19:06.358Z</time></trkpt><trkpt lat="43.0486417" lon="13.192955"><ele>1023.5</ele><time>2026-03-22T15:19:07.354Z</time></trkpt><trkpt lat="43.0487233" lon="13.1930333"><ele>1024.0</ele><time>2026-03-22T15:19:08.408Z</time></trkpt><trkpt lat="43.0487983" lon="13.1931133"><ele>1024.5</ele><time>2026-03-22T15:19:09.356Z</time></trkpt><trkpt lat="43.048865" lon="13.1931933"><ele>1025.0</ele><time>2026-03-22T15:19:10.35Z</time></trkpt><trkpt lat="43.0489267" lon="13.19327"><ele>1025.5</ele><time>2026-03-22T15:19:11.345Z</time></trkpt><trkpt lat="43.048985" lon="13.1933417"><ele>1026.0</ele><time>2026-03-22T15:19:12.362Z</time></trkpt><trkpt lat="43.0490383" lon="13.1934133"><ele>1026.4285714285716</ele><time>2026-03-22T15:19:13.363Z</time></trkpt><trkpt lat="43.0490867" lon="13.1934883"><ele>1026.857142857143</ele><time>2026-03-22T15:19:14.409Z</time></trkpt><trkpt lat="43.0491283" lon="13.193565"><ele>1027.2857142857142</ele><time>2026-03-22T15:19:15.349Z</time></trkpt><trkpt lat="43.0491667" lon="13.1936383"><ele>1027.7142857142858</ele><time>2026-03-22T15:19:16.369Z</time></trkpt><trkpt lat="43.0492" lon="13.1937167"><ele>1028.142857142857</ele><time>2026-03-22T15:19:17.371Z</time></trkpt><trkpt lat="43.0492183" lon="13.193805"><ele>1028.5714285714287</ele><time>2026-03-22T15:19:18.368Z</time></trkpt><trkpt lat="43.0492217" lon="13.1938983"><ele>1029.0</ele><time>2026-03-22T15:19:19.359Z</time></trkpt><trkpt lat="43.0492183" lon="13.1939967"><ele>1027.0</ele><time>2026-03-22T15:19:20.411Z</time></trkpt><trkpt lat="43.0492183" lon="13.1941067"><ele>1025.0</ele><time>2026-03-22T15:19:21.361Z</time></trkpt><trkpt lat="43.0492233" lon="13.1942183"><ele>1023.0</ele><time>2026-03-22T15:19:22.372Z</time></trkpt><trkpt lat="43.049235" lon="13.194335"><ele>1021.0</ele><time>2026-03-22T15:19:23.369Z</time></trkpt><trkpt lat="43.0492483" lon="13.1944517"><ele>1019.0</ele><time>2026-03-22T15:19:24.357Z</time></trkpt><trkpt lat="43.0492617" lon="13.1945717"><ele>1017.0</ele><time>2026-03-22T15:19:25.366Z</time></trkpt><trkpt lat="43.0492767" lon="13.194685"><ele>1017.0</ele><time>2026-03-22T15:19:26.419Z</time></trkpt><trkpt lat="43.0492967" lon="13.1947917"><ele>1017.0</ele><time>2026-03-22T15:19:27.364Z</time></trkpt><trkpt lat="43.0493183" lon="13.1948933"><ele>1017.0</ele><time>2026-03-22T15:19:28.371Z</time></trkpt><trkpt lat="43.0493433" lon="13.1949983"><ele>1017.0</ele><time>2026-03-22T15:19:29.367Z</time></trkpt><trkpt lat="43.0493667" lon="13.19511"><ele>1017.0</ele><time>2026-03-22T15:19:30.367Z</time></trkpt><trkpt lat="43.0493817" lon="13.195225"><ele>1017.0</ele><time>2026-03-22T15:19:31.347Z</time></trkpt><trkpt lat="43.0493983" lon="13.1953417"><ele>1017.3333333333334</ele><time>2026-03-22T15:19:32.408Z</time></trkpt><trkpt lat="43.049425" lon="13.195455"><ele>1017.6666666666667</ele><time>2026-03-22T15:19:33.368Z</time></trkpt><trkpt lat="43.0494517" lon="13.1955683"><ele>1018.0</ele><time>2026-03-22T15:19:34.368Z</time></trkpt><trkpt lat="43.0494767" lon="13.1956817"><ele>1018.3333333333334</ele><time>2026-03-22T15:19:35.342Z</time></trkpt><trkpt lat="43.0495033" lon="13.1957983"><ele>1018.6666666666667</ele><time>2026-03-22T15:19:36.358Z</time></trkpt><trkpt lat="43.0495317" lon="13.1959183"><ele>1019.0</ele><time>2026-03-22T15:19:37.348Z</time></trkpt><trkpt lat="43.04956" lon="13.1960467"><ele>1019.8000000000001</ele><time>2026-03-22T15:19:38.411Z</time></trkpt><trkpt lat="43.0495933" lon="13.196185"><ele>1020.6000000000001</ele><time>2026-03-22T15:19:39.36Z</time></trkpt><trkpt lat="43.0496217" lon="13.1963317"><ele>1021.4</ele><time>2026-03-22T15:19:40.367Z</time></trkpt><trkpt lat="43.04964" lon="13.196475"><ele>1022.2</ele><time>2026-03-22T15:19:41.361Z</time></trkpt><trkpt lat="43.049665" lon="13.1966033"><ele>1023.0</ele><time>2026-03-22T15:19:42.366Z</time></trkpt><trkpt lat="43.0496733" lon="13.1967267"><ele>1023.3333333333334</ele><time>2026-03-22T15:19:43.366Z</time></trkpt><trkpt lat="43.0496833" lon="13.1968383"><ele>1023.6666666666667</ele><time>2026-03-22T15:19:44.412Z</time></trkpt><trkpt lat="43.049695" lon="13.1969383"><ele>1024.0</ele><time>2026-03-22T15:19:45.368Z</time></trkpt><trkpt lat="43.0497183" lon="13.1970383"><ele>1024.3333333333335</ele><time>2026-03-22T15:19:46.363Z</time></trkpt><trkpt lat="43.0497417" lon="13.1971417"><ele>1024.6666666666667</ele><time>2026-03-22T15:19:47.368Z</time></trkpt><trkpt lat="43.0497583" lon="13.197255"><ele>1025.0</ele><time>2026-03-22T15:19:48.372Z</time></trkpt><trkpt lat="43.049775" lon="13.1973817"><ele>1026.5</ele><time>2026-03-22T15:19:49.369Z</time></trkpt><trkpt lat="43.0497883" lon="13.19751"><ele>1028.0</ele><time>2026-03-22T15:19:50.407Z</time></trkpt><trkpt lat="43.0497983" lon="13.19764"><ele>1029.5</ele><time>2026-03-22T15:19:51.358Z</time></trkpt><trkpt lat="43.0498017" lon="13.1977617"><ele>1031.0</ele><time>2026-03-22T15:19:52.367Z</time></trkpt><trkpt lat="43.0498017" lon="13.1978683"><ele>1032.5</ele><time>2026-03-22T15:19:53.368Z</time></trkpt><trkpt lat="43.04981" lon="13.197965"><ele>1034.0</ele><time>2026-03-22T15:19:54.357Z</time></trkpt><trkpt lat="43.0498283" lon="13.1980483"><ele>1034.8</ele><time>2026-03-22T15:19:55.367Z</time></trkpt><trkpt lat="43.0498867" lon="13.1981683"><ele>1035.6000000000001</ele><time>2026-03-22T15:19:57.359Z</time></trkpt><trkpt lat="43.0499483" lon="13.1983383"><ele>1036.4</ele><time>2026-03-22T15:19:59.368Z</time></trkpt><trkpt lat="43.04998" lon="13.1984467"><ele>1037.2</ele><time>2026-03-22T15:20:00.368Z</time></trkpt><trkpt lat="43.0500133" lon="13.1985633"><ele>1038.0</ele><time>2026-03-22T15:20:01.345Z</time></trkpt><trkpt lat="43.0500417" lon="13.1986867"><ele>1029.2857142857142</ele><time>2026-03-22T15:20:02.41Z</time></trkpt><trkpt lat="43.0500767" lon="13.1987917"><ele>1020.5714285714284</ele><time>2026-03-22T15:20:03.358Z</time></trkpt><trkpt lat="43.0501183" lon="13.198875"><ele>1011.8571428571429</ele><time>2026-03-22T15:20:04.369Z</time></trkpt><trkpt lat="43.0501617" lon="13.1989533"><ele>1003.1428571428571</ele><time>2026-03-22T15:20:05.36Z</time></trkpt><trkpt lat="43.0501967" lon="13.1990417"><ele>994.4285714285714</ele><time>2026-03-22T15:20:06.365Z</time></trkpt><trkpt lat="43.0502283" lon="13.19913"><ele>985.7142857142858</ele><time>2026-03-22T15:20:07.372Z</time></trkpt><trkpt lat="43.050255" lon="13.1992167"><ele>977.0000000000001</ele><time>2026-03-22T15:20:08.41Z</time></trkpt><trkpt lat="43.0503083" lon="13.19937"><ele>977.0</ele><time>2026-03-22T15:20:10.364Z</time></trkpt><trkpt lat="43.0503517" lon="13.1995183"><ele>977.0</ele><time>2026-03-22T15:20:12.358Z</time></trkpt><trkpt lat="43.05039" lon="13.1996717"><ele>977.0</ele><time>2026-03-22T15:20:14.412Z</time></trkpt><trkpt lat="43.0504333" lon="13.1998317"><ele>977.0</ele><time>2026-03-22T15:20:16.37Z</time></trkpt><trkpt lat="43.0504783" lon="13.1999867"><ele>978.3333333333334</ele><time>2026-03-22T15:20:18.366Z</time></trkpt><trkpt lat="43.050495" lon="13.2000733"><ele>979.6666666666667</ele><time>2026-03-22T15:20:19.364Z</time></trkpt><trkpt lat="43.0505183" lon="13.2002317"><ele>981.0</ele><time>2026-03-22T15:20:21.356Z</time></trkpt><trkpt lat="43.0505333" lon="13.2003567"><ele>982.3333333333333</ele><time>2026-03-22T15:20:23.367Z</time></trkpt><trkpt lat="43.05055" lon="13.20046"><ele>983.6666666666666</ele><time>2026-03-22T15:20:25.351Z</time></trkpt><trkpt lat="43.050585" lon="13.200535"><ele>985.0</ele><time>2026-03-22T15:20:27.36Z</time></trkpt><trkpt lat="43.05063" lon="13.2006333"><ele>983.6</ele><time>2026-03-22T15:20:29.367Z</time></trkpt><trkpt lat="43.0506767" lon="13.20079"><ele>982.2</ele><time>2026-03-22T15:20:31.347Z</time></trkpt><trkpt lat="43.0507033" lon="13.200875"><ele>980.8</ele><time>2026-03-22T15:20:32.412Z</time></trkpt><trkpt lat="43.0507317" lon="13.201025"><ele>979.4</ele><time>2026-03-22T15:20:34.366Z</time></trkpt><trkpt lat="43.0507333" lon="13.2011617"><ele>978.0</ele><time>2026-03-22T15:20:36.371Z</time></trkpt><trkpt lat="43.0507133" lon="13.2013033"><ele>978.0</ele><time>2026-03-22T15:20:38.416Z</time></trkpt><trkpt lat="43.0507117" lon="13.201435"><ele>978.0</ele><time>2026-03-22T15:20:40.358Z</time></trkpt><trkpt lat="43.0507533" lon="13.2015167"><ele>978.0</ele><time>2026-03-22T15:20:42.358Z</time></trkpt><trkpt lat="43.0508417" lon="13.2015467"><ele>978.0</ele><time>2026-03-22T15:20:44.404Z</time></trkpt><trkpt lat="43.05092" lon="13.2015333"><ele>978.0</ele><time>2026-03-22T15:20:46.369Z</time></trkpt><trkpt lat="43.0509833" lon="13.20151"><ele>978.0</ele><time>2026-03-22T15:20:48.362Z</time></trkpt><trkpt lat="43.0510417" lon="13.20155"><ele>967.0</ele><time>2026-03-22T15:20:50.408Z</time></trkpt><trkpt lat="43.0510783" lon="13.2016283"><ele>956.0</ele><time>2026-03-22T15:20:52.364Z</time></trkpt><trkpt lat="43.0511017" lon="13.2018017"><ele>945.0</ele><time>2026-03-22T15:20:54.365Z</time></trkpt><trkpt lat="43.0511567" lon="13.2019517"><ele>934.0</ele><time>2026-03-22T15:20:56.384Z</time></trkpt><trkpt lat="43.0512433" lon="13.20207"><ele>923.0</ele><time>2026-03-22T15:20:58.382Z</time></trkpt><trkpt lat="43.0512933" lon="13.2021233"><ele>923.0000000000001</ele><time>2026-03-22T15:20:59.367Z</time></trkpt><trkpt lat="43.05134" lon="13.2021817"><ele>923.0</ele><time>2026-03-22T15:21:00.368Z</time></trkpt><trkpt lat="43.0514183" lon="13.202295"><ele>923.0</ele><time>2026-03-22T15:21:02.414Z</time></trkpt><trkpt lat="43.0514933" lon="13.2024317"><ele>923.0</ele><time>2026-03-22T15:21:04.371Z</time></trkpt><trkpt lat="43.0515217" lon="13.2025183"><ele>923.0000000000001</ele><time>2026-03-22T15:21:05.341Z</time></trkpt><trkpt lat="43.0515367" lon="13.20261"><ele>923.0</ele><time>2026-03-22T15:21:06.371Z</time></trkpt><trkpt lat="43.051535" lon="13.2027033"><ele>924.3333333333334</ele><time>2026-03-22T15:21:07.341Z</time></trkpt><trkpt lat="43.0514883" lon="13.2028417"><ele>925.6666666666667</ele><time>2026-03-22T15:21:09.344Z</time></trkpt><trkpt lat="43.051425" lon="13.2029333"><ele>927.0</ele><time>2026-03-22T15:21:11.379Z</time></trkpt><trkpt lat="43.051365" lon="13.203"><ele>928.3333333333333</ele><time>2026-03-22T15:21:14.395Z</time></trkpt><trkpt lat="43.0513633" lon="13.2030967"><ele>929.6666666666666</ele><time>2026-03-22T15:21:17.361Z</time></trkpt><trkpt lat="43.051355" lon="13.2032183"><ele>931.0</ele><time>2026-03-22T15:21:19.363Z</time></trkpt><trkpt lat="43.0513517" lon="13.2033583"><ele>931.4999999999999</ele><time>2026-03-22T15:21:21.366Z</time></trkpt><trkpt lat="43.0513367" lon="13.2034967"><ele>932.0</ele><time>2026-03-22T15:21:23.361Z</time></trkpt><trkpt lat="43.0513267" lon="13.2036033"><ele>932.5</ele><time>2026-03-22T15:21:25.354Z</time></trkpt><trkpt lat="43.051305" lon="13.20369"><ele>933.0</ele><time>2026-03-22T15:21:27.355Z</time></trkpt><trkpt lat="43.051275" lon="13.2037817"><ele>933.4999999999999</ele><time>2026-03-22T15:21:29.365Z</time></trkpt><trkpt lat="43.05124" lon="13.2038917"><ele>934.0</ele><time>2026-03-22T15:21:31.357Z</time></trkpt><trkpt lat="43.0512133" lon="13.204015"><ele>935.8000000000001</ele><time>2026-03-22T15:21:33.353Z</time></trkpt><trkpt lat="43.051175" lon="13.2041633"><ele>937.6000000000001</ele><time>2026-03-22T15:21:35.371Z</time></trkpt><trkpt lat="43.0511383" lon="13.2043067"><ele>939.4</ele><time>2026-03-22T15:21:37.361Z</time></trkpt><trkpt lat="43.0511033" lon="13.204445"><ele>941.2</ele><time>2026-03-22T15:21:39.359Z</time></trkpt><trkpt lat="43.0510667" lon="13.2045583"><ele>943.0</ele><time>2026-03-22T15:21:41.371Z</time></trkpt><trkpt lat="43.0510167" lon="13.204705"><ele>947.5999999999999</ele><time>2026-03-22T15:21:43.363Z</time></trkpt><trkpt lat="43.0509667" lon="13.2048417"><ele>952.1999999999999</ele><time>2026-03-22T15:21:45.359Z</time></trkpt><trkpt lat="43.0509283" lon="13.20496"><ele>956.8</ele><time>2026-03-22T15:21:47.368Z</time></trkpt><trkpt lat="43.0509217" lon="13.2050533"><ele>961.4</ele><time>2026-03-22T15:21:49.359Z</time></trkpt><trkpt lat="43.05092" lon="13.2051767"><ele>966.0</ele><time>2026-03-22T15:21:51.358Z</time></trkpt><trkpt lat="43.0508917" lon="13.2052933"><ele>966.0</ele><time>2026-03-22T15:21:53.36Z</time></trkpt><trkpt lat="43.0508267" lon="13.20533"><ele>965.9999999999999</ele><time>2026-03-22T15:21:55.359Z</time></trkpt><trkpt lat="43.050725" lon="13.205315"><ele>965.9999999999999</ele><time>2026-03-22T15:21:57.359Z</time></trkpt><trkpt lat="43.0505933" lon="13.2053133"><ele>966.0</ele><time>2026-03-22T15:21:59.361Z</time></trkpt><trkpt lat="43.05053" lon="13.2053233"><ele>966.0</ele><time>2026-03-22T15:22:00.362Z</time></trkpt><trkpt lat="43.0504067" lon="13.20535"><ele>964.8571428571429</ele><time>2026-03-22T15:22:02.407Z</time></trkpt><trkpt lat="43.0503267" lon="13.20536"><ele>963.7142857142858</ele><time>2026-03-22T15:22:03.361Z</time></trkpt><trkpt lat="43.05026" lon="13.2053767"><ele>962.5714285714286</ele><time>2026-03-22T15:22:04.353Z</time></trkpt><trkpt lat="43.050195" lon="13.2054033"><ele>961.4285714285714</ele><time>2026-03-22T15:22:05.362Z</time></trkpt><trkpt lat="43.050135" lon="13.2054433"><ele>960.2857142857143</ele><time>2026-03-22T15:22:06.358Z</time></trkpt><trkpt lat="43.05007" lon="13.2054883"><ele>959.1428571428571</ele><time>2026-03-22T15:22:07.363Z</time></trkpt><trkpt lat="43.050015" lon="13.2055417"><ele>958.0</ele><time>2026-03-22T15:22:08.391Z</time></trkpt><trkpt lat="43.04996" lon="13.2056017"><ele>959.9999999999999</ele><time>2026-03-22T15:22:09.351Z</time></trkpt><trkpt lat="43.0499133" lon="13.2056717"><ele>962.0</ele><time>2026-03-22T15:22:10.358Z</time></trkpt><trkpt lat="43.0498283" lon="13.2057917"><ele>964.0</ele><time>2026-03-22T15:22:12.351Z</time></trkpt><trkpt lat="43.049785" lon="13.2058567"><ele>966.0</ele><time>2026-03-22T15:22:13.355Z</time></trkpt><trkpt lat="43.0497483" lon="13.2059333"><ele>967.9999999999999</ele><time>2026-03-22T15:22:14.409Z</time></trkpt><trkpt lat="43.0497117" lon="13.2060167"><ele>970.0</ele><time>2026-03-22T15:22:15.364Z</time></trkpt><trkpt lat="43.049685" lon="13.2061017"><ele>970.0000000000001</ele><time>2026-03-22T15:22:16.359Z</time></trkpt><trkpt lat="43.049665" lon="13.2061933"><ele>970.0</ele><time>2026-03-22T15:22:17.361Z</time></trkpt><trkpt lat="43.049645" lon="13.20629"><ele>970.0000000000001</ele><time>2026-03-22T15:22:18.369Z</time></trkpt><trkpt lat="43.049625" lon="13.2063883"><ele>970.0000000000001</ele><time>2026-03-22T15:22:19.367Z</time></trkpt><trkpt lat="43.0496033" lon="13.2064783"><ele>970.0</ele><time>2026-03-22T15:22:20.415Z</time></trkpt><trkpt lat="43.0495767" lon="13.20657"><ele>970.0000000000001</ele><time>2026-03-22T15:22:21.364Z</time></trkpt><trkpt lat="43.04955" lon="13.2066567"><ele>970.0000000000001</ele><time>2026-03-22T15:22:22.369Z</time></trkpt><trkpt lat="43.049525" lon="13.2067383"><ele>972.8</ele><time>2026-03-22T15:22:23.363Z</time></trkpt><trkpt lat="43.0494783" lon="13.2068867"><ele>975.6</ele><time>2026-03-22T15:22:25.359Z</time></trkpt><trkpt lat="43.0494167" lon="13.207025"><ele>978.4000000000001</ele><time>2026-03-22T15:22:27.361Z</time></trkpt><trkpt lat="43.049375" lon="13.2071"><ele>981.2</ele><time>2026-03-22T15:22:28.357Z</time></trkpt><trkpt lat="43.04933" lon="13.2071833"><ele>984.0</ele><time>2026-03-22T15:22:29.374Z</time></trkpt><trkpt lat="43.0492833" lon="13.2072717"><ele>986.0</ele><time>2026-03-22T15:22:30.358Z</time></trkpt><trkpt lat="43.0492333" lon="13.2073567"><ele>988.0</ele><time>2026-03-22T15:22:31.34Z</time></trkpt><trkpt lat="43.0491867" lon="13.207435"><ele>990.0</ele><time>2026-03-22T15:22:32.407Z</time></trkpt><trkpt lat="43.0491467" lon="13.2075067"><ele>992.0</ele><time>2026-03-22T15:22:33.362Z</time></trkpt><trkpt lat="43.0490817" lon="13.20762"><ele>994.0</ele><time>2026-03-22T15:22:35.357Z</time></trkpt><trkpt lat="43.0490233" lon="13.20775"><ele>996.0</ele><time>2026-03-22T15:22:37.369Z</time></trkpt><trkpt lat="43.0489917" lon="13.2078317"><ele>998.6666666666666</ele><time>2026-03-22T15:22:38.413Z</time></trkpt><trkpt lat="43.04896" lon="13.20791"><ele>1001.3333333333333</ele><time>2026-03-22T15:22:39.353Z</time></trkpt><trkpt lat="43.0489217" lon="13.20803"><ele>1004.0</ele><time>2026-03-22T15:22:41.368Z</time></trkpt><trkpt lat="43.04889" lon="13.20816"><ele>1006.6666666666666</ele><time>2026-03-22T15:22:43.366Z</time></trkpt><trkpt lat="43.0488633" lon="13.2082417"><ele>1009.3333333333333</ele><time>2026-03-22T15:22:44.41Z</time></trkpt><trkpt lat="43.048835" lon="13.2083267"><ele>1012.0</ele><time>2026-03-22T15:22:45.361Z</time></trkpt><trkpt lat="43.048805" lon="13.2084083"><ele>1012.0</ele><time>2026-03-22T15:22:46.365Z</time></trkpt><trkpt lat="43.0487733" lon="13.20849"><ele>1012.0</ele><time>2026-03-22T15:22:47.367Z</time></trkpt><trkpt lat="43.0487417" lon="13.2085667"><ele>1012.0</ele><time>2026-03-22T15:22:48.358Z</time></trkpt><trkpt lat="43.0486883" lon="13.208705"><ele>1012.0</ele><time>2026-03-22T15:22:50.408Z</time></trkpt><trkpt lat="43.0486517" lon="13.208855"><ele>1012.0</ele><time>2026-03-22T15:22:52.353Z</time></trkpt><trkpt lat="43.0485933" lon="13.2089917"><ele>1013.3333333333333</ele><time>2026-03-22T15:22:54.345Z</time></trkpt><trkpt lat="43.048525" lon="13.209125"><ele>1014.6666666666666</ele><time>2026-03-22T15:22:56.405Z</time></trkpt><trkpt lat="43.0484883" lon="13.209235"><ele>1016.0</ele><time>2026-03-22T15:22:58.341Z</time></trkpt><trkpt lat="43.0484717" lon="13.209335"><ele>1017.3333333333333</ele><time>2026-03-22T15:23:01.357Z</time></trkpt><trkpt lat="43.0484417" lon="13.20942"><ele>1018.6666666666666</ele><time>2026-03-22T15:23:04.357Z</time></trkpt><trkpt lat="43.0483967" lon="13.2094983"><ele>1020.0</ele><time>2026-03-22T15:23:06.356Z</time></trkpt><trkpt lat="43.04837" lon="13.2096017"><ele>1020.0</ele><time>2026-03-22T15:23:08.399Z</time></trkpt><trkpt lat="43.0483433" lon="13.2096867"><ele>1020.0</ele><time>2026-03-22T15:23:10.359Z</time></trkpt><trkpt lat="43.04831" lon="13.2097967"><ele>1020.0</ele><time>2026-03-22T15:23:12.365Z</time></trkpt><trkpt lat="43.048265" lon="13.2099133"><ele>1020.0</ele><time>2026-03-22T15:23:14.412Z</time></trkpt><trkpt lat="43.0482067" lon="13.2100517"><ele>1020.0</ele><time>2026-03-22T15:23:16.354Z</time></trkpt><trkpt lat="43.0481683" lon="13.2101283"><ele>1020.0</ele><time>2026-03-22T15:23:17.365Z</time></trkpt><trkpt lat="43.0481267" lon="13.210205"><ele>1024.0</ele><time>2026-03-22T15:23:18.355Z</time></trkpt><trkpt lat="43.048085" lon="13.2102783"><ele>1028.0</ele><time>2026-03-22T15:23:19.358Z</time></trkpt><trkpt lat="43.0480467" lon="13.21035"><ele>1032.0</ele><time>2026-03-22T15:23:20.402Z</time></trkpt><trkpt lat="43.047995" lon="13.2104883"><ele>1036.0</ele><time>2026-03-22T15:23:22.369Z</time></trkpt><trkpt lat="43.047965" lon="13.21059"><ele>1040.0</ele><time>2026-03-22T15:23:24.346Z</time></trkpt><trkpt lat="43.047925" lon="13.2106733"><ele>1044.0</ele><time>2026-03-22T15:23:26.413Z</time></trkpt><trkpt lat="43.0478717" lon="13.21078"><ele>1045.6000000000001</ele><time>2026-03-22T15:23:28.349Z</time></trkpt><trkpt lat="43.0478367" lon="13.2109167"><ele>1047.2</ele><time>2026-03-22T15:23:30.375Z</time></trkpt><trkpt lat="43.047815" lon="13.2110467"><ele>1048.8000000000002</ele><time>2026-03-22T15:23:32.415Z</time></trkpt><trkpt lat="43.0478" lon="13.2111683"><ele>1050.4</ele><time>2026-03-22T15:23:34.373Z</time></trkpt><trkpt lat="43.0477933" lon="13.2112917"><ele>1052.0</ele><time>2026-03-22T15:23:36.357Z</time></trkpt><trkpt lat="43.0477917" lon="13.2113917"><ele>1052.0</ele><time>2026-03-22T15:23:38.397Z</time></trkpt><trkpt lat="43.0477967" lon="13.2114867"><ele>1052.0</ele><time>2026-03-22T15:23:40.358Z</time></trkpt><trkpt lat="43.0477967" lon="13.2115783"><ele>1052.0</ele><time>2026-03-22T15:23:42.363Z</time></trkpt><trkpt lat="43.04778" lon="13.211685"><ele>1052.0</ele><time>2026-03-22T15:23:44.403Z</time></trkpt><trkpt lat="43.0477533" lon="13.2118133"><ele>1052.0</ele><time>2026-03-22T15:23:46.36Z</time></trkpt><trkpt lat="43.0477383" lon="13.211945"><ele>1052.0</ele><time>2026-03-22T15:23:48.366Z</time></trkpt><trkpt lat="43.0477267" lon="13.2120683"><ele>1054.8</ele><time>2026-03-22T15:23:50.409Z</time></trkpt><trkpt lat="43.0477083" lon="13.2122067"><ele>1057.6</ele><time>2026-03-22T15:23:52.37Z</time></trkpt><trkpt lat="43.0476867" lon="13.2123383"><ele>1060.3999999999999</ele><time>2026-03-22T15:23:54.37Z</time></trkpt><trkpt lat="43.0476733" lon="13.2124467"><ele>1063.2</ele><time>2026-03-22T15:23:56.417Z</time></trkpt><trkpt lat="43.0476883" lon="13.2125767"><ele>1066.0</ele><time>2026-03-22T15:25:28.36Z</time></trkpt><trkpt lat="43.0476667" lon="13.2126933"><ele>1068.5</ele><time>2026-03-22T15:25:30.362Z</time></trkpt><trkpt lat="43.0476183" lon="13.2127933"><ele>1071.0</ele><time>2026-03-22T15:25:32.409Z</time></trkpt><trkpt lat="43.0475683" lon="13.2128717"><ele>1073.5</ele><time>2026-03-22T15:25:34.36Z</time></trkpt><trkpt lat="43.0475267" lon="13.2129767"><ele>1076.0</ele><time>2026-03-22T15:25:36.354Z</time></trkpt><trkpt lat="43.0475217" lon="13.2130833"><ele>1078.5</ele><time>2026-03-22T15:25:38.395Z</time></trkpt><trkpt lat="43.0475267" lon="13.2131917"><ele>1081.0</ele><time>2026-03-22T15:25:40.364Z</time></trkpt><trkpt lat="43.0475067" lon="13.213275"><ele>1083.6666666666665</ele><time>2026-03-22T15:25:42.361Z</time></trkpt><trkpt lat="43.0475017" lon="13.21339"><ele>1086.3333333333333</ele><time>2026-03-22T15:25:45.363Z</time></trkpt><trkpt lat="43.0474967" lon="13.2134933"><ele>1089.0</ele><time>2026-03-22T15:25:47.36Z</time></trkpt><trkpt lat="43.0474867" lon="13.2136333"><ele>1091.6666666666667</ele><time>2026-03-22T15:25:49.374Z</time></trkpt><trkpt lat="43.0474867" lon="13.2137483"><ele>1094.3333333333335</ele><time>2026-03-22T15:25:51.369Z</time></trkpt><trkpt lat="43.0475" lon="13.2138567"><ele>1097.0</ele><time>2026-03-22T15:25:54.352Z</time></trkpt><trkpt lat="43.04751" lon="13.21395"><ele>1099.8333333333335</ele><time>2026-03-22T15:25:56.407Z</time></trkpt><trkpt lat="43.0475267" lon="13.2140617"><ele>1102.6666666666667</ele><time>2026-03-22T15:25:58.355Z</time></trkpt><trkpt lat="43.0475317" lon="13.2141733"><ele>1105.5</ele><time>2026-03-22T15:26:00.366Z</time></trkpt><trkpt lat="43.0475417" lon="13.21427"><ele>1108.3333333333333</ele><time>2026-03-22T15:26:02.415Z</time></trkpt><trkpt lat="43.0475467" lon="13.2143717"><ele>1111.1666666666665</ele><time>2026-03-22T15:26:04.361Z</time></trkpt><trkpt lat="43.0475633" lon="13.2144967"><ele>1114.0</ele><time>2026-03-22T15:26:07.358Z</time></trkpt><trkpt lat="43.0475633" lon="13.2145983"><ele>1114.0</ele><time>2026-03-22T15:26:10.368Z</time></trkpt><trkpt lat="43.0474633" lon="13.2146067"><ele>1114.0</ele><time>2026-03-22T15:29:03.386Z</time></trkpt><trkpt lat="43.047505" lon="13.2146717"><ele>1114.0</ele><time>2026-03-22T15:29:51.402Z</time></trkpt><trkpt lat="43.0475033" lon="13.2148133"><ele>1114.0</ele><time>2026-03-22T15:29:54.382Z</time></trkpt><trkpt lat="43.0475183" lon="13.2149217"><ele>1114.0</ele><time>2026-03-22T15:29:56.44Z</time></trkpt><trkpt lat="43.0475333" lon="13.2150217"><ele>1114.0</ele><time>2026-03-22T15:29:58.474Z</time></trkpt><trkpt lat="43.047565" lon="13.215135"><ele>1117.5</ele><time>2026-03-22T15:30:01.38Z</time></trkpt><trkpt lat="43.047595" lon="13.215225"><ele>1121.0</ele><time>2026-03-22T15:30:03.402Z</time></trkpt><trkpt lat="43.0476233" lon="13.2153283"><ele>1124.5</ele><time>2026-03-22T15:30:05.426Z</time></trkpt><trkpt lat="43.0476467" lon="13.2154383"><ele>1128.0</ele><time>2026-03-22T15:30:07.44Z</time></trkpt><trkpt lat="43.04768" lon="13.2155533"><ele>1131.5</ele><time>2026-03-22T15:30:09.436Z</time></trkpt><trkpt lat="43.0477217" lon="13.2156583"><ele>1135.0</ele><time>2026-03-22T15:30:11.378Z</time></trkpt><trkpt lat="43.0477667" lon="13.21576"><ele>1139.8333333333333</ele><time>2026-03-22T15:30:13.383Z</time></trkpt><trkpt lat="43.0478067" lon="13.2158417"><ele>1144.6666666666665</ele><time>2026-03-22T15:30:15.457Z</time></trkpt><trkpt lat="43.047855" lon="13.2159217"><ele>1149.5</ele><time>2026-03-22T15:30:17.509Z</time></trkpt><trkpt lat="43.0479083" lon="13.2160033"><ele>1154.3333333333333</ele><time>2026-03-22T15:30:19.504Z</time></trkpt><trkpt lat="43.04796" lon="13.2160817"><ele>1159.1666666666667</ele><time>2026-03-22T15:30:22.399Z</time></trkpt><trkpt lat="43.048025" lon="13.216165"><ele>1164.0</ele><time>2026-03-22T15:30:25.407Z</time></trkpt><trkpt lat="43.0480683" lon="13.2162283"><ele>1164.0</ele><time>2026-03-22T15:30:27.546Z</time></trkpt><trkpt lat="43.0481267" lon="13.2163033"><ele>1164.0</ele><time>2026-03-22T15:30:29.466Z</time></trkpt><trkpt lat="43.0481867" lon="13.2163883"><ele>1164.0</ele><time>2026-03-22T15:30:31.414Z</time></trkpt><trkpt lat="43.0482683" lon="13.21649"><ele>1164.0</ele><time>2026-03-22T15:30:34.464Z</time></trkpt><trkpt lat="43.0483367" lon="13.2165483"><ele>1164.0</ele><time>2026-03-22T15:30:38.486Z</time></trkpt><trkpt lat="43.0483783" lon="13.2166483"><ele>1164.0</ele><time>2026-03-22T15:32:33.379Z</time></trkpt><trkpt lat="43.0484383" lon="13.2167767"><ele>1166.5</ele><time>2026-03-22T15:32:35.386Z</time></trkpt><trkpt lat="43.04848" lon="13.2169217"><ele>1169.0</ele><time>2026-03-22T15:32:37.385Z</time></trkpt><trkpt lat="43.048515" lon="13.2170217"><ele>1171.5</ele><time>2026-03-22T15:32:39.367Z</time></trkpt><trkpt lat="43.0485433" lon="13.2171117"><ele>1174.0</ele><time>2026-03-22T15:32:41.388Z</time></trkpt><trkpt lat="43.0485867" lon="13.217185"><ele>1176.5</ele><time>2026-03-22T15:32:44.425Z</time></trkpt><trkpt lat="43.0486167" lon="13.217275"><ele>1179.0</ele><time>2026-03-22T15:32:48.362Z</time></trkpt><trkpt lat="43.0486417" lon="13.2173617"><ele>1182.1666666666667</ele><time>2026-03-22T15:33:12.372Z</time></trkpt><trkpt lat="43.0487033" lon="13.2174233"><ele>1185.3333333333333</ele><time>2026-03-22T15:33:15.377Z</time></trkpt><trkpt lat="43.0487683" lon="13.217505"><ele>1188.5</ele><time>2026-03-22T15:33:18.379Z</time></trkpt><trkpt lat="43.0488083" lon="13.2175817"><ele>1191.6666666666665</ele><time>2026-03-22T15:33:20.425Z</time></trkpt><trkpt lat="43.0488483" lon="13.21767"><ele>1194.8333333333333</ele><time>2026-03-22T15:33:22.369Z</time></trkpt><trkpt lat="43.0488883" lon="13.2177617"><ele>1198.0</ele><time>2026-03-22T15:33:24.374Z</time></trkpt><trkpt lat="43.04892" lon="13.2178617"><ele>1198.0</ele><time>2026-03-22T15:33:26.408Z</time></trkpt><trkpt lat="43.0489417" lon="13.2179633"><ele>1198.0</ele><time>2026-03-22T15:33:28.38Z</time></trkpt><trkpt lat="43.0489617" lon="13.2180583"><ele>1198.0</ele><time>2026-03-22T15:33:31.379Z</time></trkpt><trkpt lat="43.0489767" lon="13.2181633"><ele>1198.0</ele><time>2026-03-22T15:33:34.381Z</time></trkpt><trkpt lat="43.0489933" lon="13.2182617"><ele>1198.0</ele><time>2026-03-22T15:33:36.366Z</time></trkpt><trkpt lat="43.0490083" lon="13.2183617"><ele>1198.0</ele><time>2026-03-22T15:33:38.429Z</time></trkpt><trkpt lat="43.0490283" lon="13.2184917"><ele>1198.2</ele><time>2026-03-22T15:33:50.415Z</time></trkpt><trkpt lat="43.0490517" lon="13.2185917"><ele>1198.4</ele><time>2026-03-22T15:33:53.366Z</time></trkpt><trkpt lat="43.0490767" lon="13.2186983"><ele>1198.6000000000001</ele><time>2026-03-22T15:33:56.44Z</time></trkpt><trkpt lat="43.0491183" lon="13.21881"><ele>1198.8</ele><time>2026-03-22T15:33:59.377Z</time></trkpt><trkpt lat="43.0491567" lon="13.2189167"><ele>1199.0</ele><time>2026-03-22T15:34:02.426Z</time></trkpt><trkpt lat="43.0492167" lon="13.2190817"><ele>1201.1666666666667</ele><time>2026-03-22T15:34:14.414Z</time></trkpt><trkpt lat="43.04924" lon="13.2191883"><ele>1203.3333333333335</ele><time>2026-03-22T15:34:16.379Z</time></trkpt><trkpt lat="43.0492583" lon="13.2192733"><ele>1205.5</ele><time>2026-03-22T15:34:18.377Z</time></trkpt><trkpt lat="43.04929" lon="13.21939"><ele>1207.6666666666667</ele><time>2026-03-22T15:34:21.38Z</time></trkpt><trkpt lat="43.0493233" lon="13.2194883"><ele>1209.8333333333333</ele><time>2026-03-22T15:34:24.387Z</time></trkpt><trkpt lat="43.0493333" lon="13.219595"><ele>1212.0</ele><time>2026-03-22T15:34:28.381Z</time></trkpt><trkpt lat="43.0493083" lon="13.219695"><ele>1212.0</ele><time>2026-03-22T15:34:31.374Z</time></trkpt><trkpt lat="43.04927" lon="13.2197733"><ele>1212.0</ele><time>2026-03-22T15:34:33.375Z</time></trkpt><trkpt lat="43.0492" lon="13.21983"><ele>1212.0</ele><time>2026-03-22T15:34:36.38Z</time></trkpt><trkpt lat="43.0490983" lon="13.21988"><ele>1212.0</ele><time>2026-03-22T15:34:44.416Z</time></trkpt><trkpt lat="43.0490367" lon="13.21991"><ele>1212.0</ele><time>2026-03-22T15:34:47.379Z</time></trkpt><trkpt lat="43.0489767" lon="13.21994"><ele>1212.0</ele><time>2026-03-22T15:34:50.425Z</time></trkpt><trkpt lat="43.048885" lon="13.2199617"><ele>1216.0</ele><time>2026-03-22T15:34:53.379Z</time></trkpt><trkpt lat="43.0488033" lon="13.2199917"><ele>1220.0</ele><time>2026-03-22T15:34:56.42Z</time></trkpt><trkpt lat="43.04873" lon="13.2200333"><ele>1224.0</ele><time>2026-03-22T15:34:58.379Z</time></trkpt><trkpt lat="43.048665" lon="13.22007"><ele>1228.0</ele><time>2026-03-22T15:35:00.38Z</time></trkpt><trkpt lat="43.048585" lon="13.2201083"><ele>1232.0</ele><time>2026-03-22T15:35:03.381Z</time></trkpt><trkpt lat="43.0485183" lon="13.2201283"><ele>1236.0</ele><time>2026-03-22T15:35:19.38Z</time></trkpt><trkpt lat="43.0484483" lon="13.2201467"><ele>1236.0</ele><time>2026-03-22T15:35:21.379Z</time></trkpt><trkpt lat="43.0483783" lon="13.2201733"><ele>1236.0</ele><time>2026-03-22T15:35:23.382Z</time></trkpt><trkpt lat="43.0483083" lon="13.2202033"><ele>1236.0</ele><time>2026-03-22T15:35:25.38Z</time></trkpt><trkpt lat="43.0482383" lon="13.2202433"><ele>1236.0</ele><time>2026-03-22T15:35:27.355Z</time></trkpt><trkpt lat="43.0481617" lon="13.22029"><ele>1236.0</ele><time>2026-03-22T15:35:29.38Z</time></trkpt><trkpt lat="43.04809" lon="13.2203217"><ele>1236.0</ele><time>2026-03-22T15:35:31.37Z</time></trkpt><trkpt lat="43.0480167" lon="13.2203483"><ele>1237.5</ele><time>2026-03-22T15:35:33.377Z</time></trkpt><trkpt lat="43.0479433" lon="13.2203783"><ele>1239.0</ele><time>2026-03-22T15:35:35.377Z</time></trkpt><trkpt lat="43.0478467" lon="13.2204183"><ele>1240.5</ele><time>2026-03-22T15:35:38.429Z</time></trkpt><trkpt lat="43.0477767" lon="13.220455"><ele>1242.0</ele><time>2026-03-22T15:35:40.381Z</time></trkpt><trkpt lat="43.0477017" lon="13.2205"><ele>1243.5</ele><time>2026-03-22T15:35:43.377Z</time></trkpt><trkpt lat="43.0476367" lon="13.2205483"><ele>1245.0</ele><time>2026-03-22T15:35:47.381Z</time></trkpt><trkpt lat="43.0475867" lon="13.220635"><ele>1245.6666666666667</ele><time>2026-03-22T15:35:50.424Z</time></trkpt><trkpt lat="43.047555" lon="13.22074"><ele>1246.3333333333333</ele><time>2026-03-22T15:35:53.368Z</time></trkpt><trkpt lat="43.0475217" lon="13.2208717"><ele>1247.0</ele><time>2026-03-22T15:36:32.415Z</time></trkpt><trkpt lat="43.0474283" lon="13.2208917"><ele>1247.6666666666665</ele><time>2026-03-22T15:36:39.366Z</time></trkpt><trkpt lat="43.0473383" lon="13.2208683"><ele>1248.3333333333333</ele><time>2026-03-22T15:36:43.382Z</time></trkpt><trkpt lat="43.0472617" lon="13.2208717"><ele>1249.0</ele><time>2026-03-22T15:36:45.38Z</time></trkpt><trkpt lat="43.0472" lon="13.2209"><ele>1251.2857142857142</ele><time>2026-03-22T15:36:47.382Z</time></trkpt><trkpt lat="43.0471367" lon="13.2209317"><ele>1253.5714285714284</ele><time>2026-03-22T15:36:50.427Z</time></trkpt><trkpt lat="43.0470783" lon="13.22099"><ele>1255.8571428571427</ele><time>2026-03-22T15:36:53.379Z</time></trkpt><trkpt lat="43.0470283" lon="13.2210583"><ele>1258.142857142857</ele><time>2026-03-22T15:36:57.378Z</time></trkpt><trkpt lat="43.0470417" lon="13.2211517"><ele>1260.4285714285716</ele><time>2026-03-22T15:38:21.372Z</time></trkpt><trkpt lat="43.0470983" lon="13.2212267"><ele>1262.7142857142856</ele><time>2026-03-22T15:38:23.376Z</time></trkpt><trkpt lat="43.0471683" lon="13.2212983"><ele>1265.0</ele><time>2026-03-22T15:38:25.379Z</time></trkpt><trkpt lat="43.04722" lon="13.22137"><ele>1265.0</ele><time>2026-03-22T15:38:27.372Z</time></trkpt><trkpt lat="43.0472617" lon="13.2214433"><ele>1265.0</ele><time>2026-03-22T15:38:29.373Z</time></trkpt><trkpt lat="43.0473167" lon="13.22152"><ele>1265.0</ele><time>2026-03-22T15:38:31.367Z</time></trkpt><trkpt lat="43.0473767" lon="13.2215933"><ele>1265.0</ele><time>2026-03-22T15:38:33.375Z</time></trkpt><trkpt lat="43.0474367" lon="13.2216717"><ele>1265.0</ele><time>2026-03-22T15:38:35.381Z</time></trkpt><trkpt lat="43.0474967" lon="13.2217517"><ele>1265.0</ele><time>2026-03-22T15:38:37.376Z</time></trkpt><trkpt lat="43.0475633" lon="13.2218433"><ele>1261.8</ele><time>2026-03-22T15:38:39.374Z</time></trkpt><trkpt lat="43.0476217" lon="13.2219433"><ele>1258.6</ele><time>2026-03-22T15:38:41.386Z</time></trkpt><trkpt lat="43.0476583" lon="13.222065"><ele>1255.4</ele><time>2026-03-22T15:38:43.372Z</time></trkpt><trkpt lat="43.047685" lon="13.2221983"><ele>1252.2</ele><time>2026-03-22T15:38:45.384Z</time></trkpt><trkpt lat="43.0477033" lon="13.2223517"><ele>1249.0</ele><time>2026-03-22T15:38:47.39Z</time></trkpt><trkpt lat="43.0477067" lon="13.2225117"><ele>1249.0</ele><time>2026-03-22T15:38:49.381Z</time></trkpt><trkpt lat="43.0477133" lon="13.2226733"><ele>1249.0</ele><time>2026-03-22T15:38:51.369Z</time></trkpt><trkpt lat="43.0477167" lon="13.22276"><ele>1249.0</ele><time>2026-03-22T15:38:52.384Z</time></trkpt><trkpt lat="43.0477217" lon="13.2228483"><ele>1249.0</ele><time>2026-03-22T15:38:53.382Z</time></trkpt><trkpt lat="43.0477233" lon="13.2229417"><ele>1249.0</ele><time>2026-03-22T15:38:54.386Z</time></trkpt><trkpt lat="43.04772" lon="13.2230367"><ele>1249.0</ele><time>2026-03-22T15:38:55.386Z</time></trkpt><trkpt lat="43.0477183" lon="13.2231367"><ele>1248.5714285714284</ele><time>2026-03-22T15:38:56.421Z</time></trkpt><trkpt lat="43.0477217" lon="13.2232333"><ele>1248.142857142857</ele><time>2026-03-22T15:38:57.38Z</time></trkpt><trkpt lat="43.0477283" lon="13.22332"><ele>1247.7142857142858</ele><time>2026-03-22T15:38:58.384Z</time></trkpt><trkpt lat="43.0477417" lon="13.223405"><ele>1247.2857142857142</ele><time>2026-03-22T15:38:59.361Z</time></trkpt><trkpt lat="43.0477567" lon="13.2234933"><ele>1246.857142857143</ele><time>2026-03-22T15:39:00.385Z</time></trkpt><trkpt lat="43.0477733" lon="13.2235817"><ele>1246.4285714285713</ele><time>2026-03-22T15:39:01.385Z</time></trkpt><trkpt lat="43.0477867" lon="13.2236667"><ele>1246.0</ele><time>2026-03-22T15:39:02.428Z</time></trkpt><trkpt lat="43.0477983" lon="13.2238283"><ele>1245.0</ele><time>2026-03-22T15:39:04.384Z</time></trkpt><trkpt lat="43.0478083" lon="13.223985"><ele>1244.0</ele><time>2026-03-22T15:39:06.385Z</time></trkpt><trkpt lat="43.04782" lon="13.2241467"><ele>1243.0</ele><time>2026-03-22T15:39:08.414Z</time></trkpt><trkpt lat="43.0478233" lon="13.2242833"><ele>1242.0</ele><time>2026-03-22T15:39:10.381Z</time></trkpt><trkpt lat="43.0477983" lon="13.2244133"><ele>1241.0</ele><time>2026-03-22T15:39:12.389Z</time></trkpt><trkpt lat="43.0477667" lon="13.2245617"><ele>1241.0</ele><time>2026-03-22T15:39:14.427Z</time></trkpt><trkpt lat="43.04774" lon="13.2247217"><ele>1241.0</ele><time>2026-03-22T15:39:16.36Z</time></trkpt><trkpt lat="43.0477233" lon="13.2248833"><ele>1241.0</ele><time>2026-03-22T15:39:18.387Z</time></trkpt><trkpt lat="43.04769" lon="13.2250383"><ele>1241.0</ele><time>2026-03-22T15:39:20.427Z</time></trkpt><trkpt lat="43.0476667" lon="13.22519"><ele>1239.6666666666667</ele><time>2026-03-22T15:39:22.384Z</time></trkpt><trkpt lat="43.04765" lon="13.22534"><ele>1238.3333333333335</ele><time>2026-03-22T15:39:24.377Z</time></trkpt><trkpt lat="43.0476517" lon="13.225515"><ele>1237.0</ele><time>2026-03-22T15:39:26.427Z</time></trkpt><trkpt lat="43.0476583" lon="13.2256017"><ele>1235.6666666666667</ele><time>2026-03-22T15:39:27.381Z</time></trkpt><trkpt lat="43.0476683" lon="13.22569"><ele>1234.3333333333333</ele><time>2026-03-22T15:39:28.383Z</time></trkpt><trkpt lat="43.04768" lon="13.2257783"><ele>1233.0</ele><time>2026-03-22T15:39:29.384Z</time></trkpt><trkpt lat="43.047695" lon="13.225865"><ele>1231.3333333333333</ele><time>2026-03-22T15:39:30.387Z</time></trkpt><trkpt lat="43.047725" lon="13.22602"><ele>1229.6666666666667</ele><time>2026-03-22T15:39:32.431Z</time></trkpt><trkpt lat="43.047745" lon="13.226145"><ele>1228.0</ele><time>2026-03-22T15:39:34.383Z</time></trkpt><trkpt lat="43.047765" lon="13.2262483"><ele>1226.3333333333335</ele><time>2026-03-22T15:39:36.378Z</time></trkpt><trkpt lat="43.047785" lon="13.22634"><ele>1224.6666666666667</ele><time>2026-03-22T15:39:39.375Z</time></trkpt><trkpt lat="43.0478233" lon="13.2264283"><ele>1223.0</ele><time>2026-03-22T15:39:42.364Z</time></trkpt><trkpt lat="43.0478933" lon="13.2265533"><ele>1221.4</ele><time>2026-03-22T15:39:50.41Z</time></trkpt><trkpt lat="43.0479717" lon="13.22658"><ele>1219.8</ele><time>2026-03-22T15:39:53.376Z</time></trkpt><trkpt lat="43.048065" lon="13.226555"><ele>1218.2</ele><time>2026-03-22T15:39:55.377Z</time></trkpt><trkpt lat="43.04817" lon="13.22652"><ele>1216.6</ele><time>2026-03-22T15:39:57.379Z</time></trkpt><trkpt lat="43.0482683" lon="13.2264967"><ele>1215.0</ele><time>2026-03-22T15:39:59.388Z</time></trkpt><trkpt lat="43.0483633" lon="13.2264717"><ele>1214.4</ele><time>2026-03-22T15:40:01.387Z</time></trkpt><trkpt lat="43.0484533" lon="13.2264483"><ele>1213.8</ele><time>2026-03-22T15:40:03.376Z</time></trkpt><trkpt lat="43.0485583" lon="13.2264217"><ele>1213.2</ele><time>2026-03-22T15:40:05.382Z</time></trkpt><trkpt lat="43.04867" lon="13.2263883"><ele>1212.6</ele><time>2026-03-22T15:40:07.376Z</time></trkpt><trkpt lat="43.0487933" lon="13.22636"><ele>1212.0</ele><time>2026-03-22T15:40:09.385Z</time></trkpt><trkpt lat="43.0488567" lon="13.2263433"><ele>1212.0</ele><time>2026-03-22T15:40:10.383Z</time></trkpt><trkpt lat="43.0489817" lon="13.226315"><ele>1212.0</ele><time>2026-03-22T15:40:12.384Z</time></trkpt><trkpt lat="43.049045" lon="13.2262983"><ele>1212.0</ele><time>2026-03-22T15:40:13.385Z</time></trkpt><trkpt lat="43.0491083" lon="13.2262867"><ele>1212.0</ele><time>2026-03-22T15:40:14.425Z</time></trkpt><trkpt lat="43.049175" lon="13.2262733"><ele>1212.0</ele><time>2026-03-22T15:40:15.387Z</time></trkpt><trkpt lat="43.0492467" lon="13.22626"><ele>1212.0</ele><time>2026-03-22T15:40:16.372Z</time></trkpt><trkpt lat="43.04931" lon="13.2262483"><ele>1210.3333333333333</ele><time>2026-03-22T15:40:17.383Z</time></trkpt><trkpt lat="43.0494317" lon="13.226215"><ele>1208.6666666666667</ele><time>2026-03-22T15:40:19.381Z</time></trkpt><trkpt lat="43.0494967" lon="13.2261883"><ele>1207.0</ele><time>2026-03-22T15:40:20.432Z</time></trkpt><trkpt lat="43.049565" lon="13.2261567"><ele>1205.3333333333335</ele><time>2026-03-22T15:40:21.38Z</time></trkpt><trkpt lat="43.0496333" lon="13.2261217"><ele>1203.6666666666667</ele><time>2026-03-22T15:40:22.372Z</time></trkpt><trkpt lat="43.0497017" lon="13.2260883"><ele>1202.0</ele><time>2026-03-22T15:40:23.387Z</time></trkpt><trkpt lat="43.0497733" lon="13.22605"><ele>1202.0</ele><time>2026-03-22T15:40:24.387Z</time></trkpt><trkpt lat="43.04985" lon="13.22601"><ele>1202.0</ele><time>2026-03-22T15:40:25.389Z</time></trkpt><trkpt lat="43.049925" lon="13.2259683"><ele>1202.0</ele><time>2026-03-22T15:40:26.432Z</time></trkpt><trkpt lat="43.0499967" lon="13.225925"><ele>1202.0</ele><time>2026-03-22T15:40:27.374Z</time></trkpt><trkpt lat="43.0500683" lon="13.22588"><ele>1202.0</ele><time>2026-03-22T15:40:28.384Z</time></trkpt><trkpt lat="43.0501383" lon="13.2258367"><ele>1202.0</ele><time>2026-03-22T15:40:29.384Z</time></trkpt><trkpt lat="43.0502117" lon="13.2257967"><ele>1201.1666666666667</ele><time>2026-03-22T15:40:30.384Z</time></trkpt><trkpt lat="43.050285" lon="13.2257583"><ele>1200.3333333333335</ele><time>2026-03-22T15:40:31.361Z</time></trkpt><trkpt lat="43.0503583" lon="13.22572"><ele>1199.5</ele><time>2026-03-22T15:40:32.433Z</time></trkpt><trkpt lat="43.0504283" lon="13.2256867"><ele>1198.6666666666667</ele><time>2026-03-22T15:40:33.378Z</time></trkpt><trkpt lat="43.0504967" lon="13.2256517"><ele>1197.8333333333333</ele><time>2026-03-22T15:40:34.382Z</time></trkpt><trkpt lat="43.0505667" lon="13.2256167"><ele>1197.0</ele><time>2026-03-22T15:40:35.385Z</time></trkpt><trkpt lat="43.0506417" lon="13.225575"><ele>1197.0</ele><time>2026-03-22T15:40:36.385Z</time></trkpt><trkpt lat="43.0507167" lon="13.225525"><ele>1197.0</ele><time>2026-03-22T15:40:37.386Z</time></trkpt><trkpt lat="43.0507883" lon="13.2254683"><ele>1197.0</ele><time>2026-03-22T15:40:38.432Z</time></trkpt><trkpt lat="43.0508567" lon="13.22541"><ele>1197.0</ele><time>2026-03-22T15:40:39.38Z</time></trkpt><trkpt lat="43.0509233" lon="13.22536"><ele>1197.0</ele><time>2026-03-22T15:40:40.384Z</time></trkpt><trkpt lat="43.0509867" lon="13.2253117"><ele>1197.0</ele><time>2026-03-22T15:40:41.367Z</time></trkpt><trkpt lat="43.051045" lon="13.225265"><ele>1194.3333333333333</ele><time>2026-03-22T15:40:42.354Z</time></trkpt><trkpt lat="43.0511033" lon="13.2252183"><ele>1191.6666666666667</ele><time>2026-03-22T15:40:43.343Z</time></trkpt><trkpt lat="43.0511583" lon="13.2251733"><ele>1189.0</ele><time>2026-03-22T15:40:44.401Z</time></trkpt><trkpt lat="43.0512133" lon="13.22513"><ele>1186.3333333333335</ele><time>2026-03-22T15:40:45.349Z</time></trkpt><trkpt lat="43.0513167" lon="13.2250417"><ele>1183.6666666666667</ele><time>2026-03-22T15:40:47.359Z</time></trkpt><trkpt lat="43.0514117" lon="13.2249767"><ele>1181.0</ele><time>2026-03-22T15:40:49.355Z</time></trkpt><trkpt lat="43.0514917" lon="13.2249417"><ele>1181.0</ele><time>2026-03-22T15:40:51.346Z</time></trkpt><trkpt lat="43.0515867" lon="13.224955"><ele>1181.0</ele><time>2026-03-22T15:40:53.379Z</time></trkpt><trkpt lat="43.0516433" lon="13.22504"><ele>1181.0</ele><time>2026-03-22T15:40:55.382Z</time></trkpt><trkpt lat="43.05166" lon="13.2252"><ele>1181.0</ele><time>2026-03-22T15:40:57.373Z</time></trkpt><trkpt lat="43.0516433" lon="13.2252833"><ele>1181.0</ele><time>2026-03-22T15:40:58.356Z</time></trkpt><trkpt lat="43.0516067" lon="13.2253617"><ele>1181.0</ele><time>2026-03-22T15:40:59.381Z</time></trkpt><trkpt lat="43.0515667" lon="13.22544"><ele>1181.0</ele><time>2026-03-22T15:41:00.382Z</time></trkpt><trkpt lat="43.0515233" lon="13.2255133"><ele>1181.0</ele><time>2026-03-22T15:41:01.384Z</time></trkpt><trkpt lat="43.0514767" lon="13.2255933"><ele>1181.0</ele><time>2026-03-22T15:41:02.432Z</time></trkpt><trkpt lat="43.0514267" lon="13.2256767"><ele>1181.0</ele><time>2026-03-22T15:41:03.378Z</time></trkpt><trkpt lat="43.051375" lon="13.2257683"><ele>1181.0</ele><time>2026-03-22T15:41:04.375Z</time></trkpt><trkpt lat="43.05132" lon="13.22587"><ele>1181.0</ele><time>2026-03-22T15:41:05.384Z</time></trkpt><trkpt lat="43.05126" lon="13.2259767"><ele>1179.25</ele><time>2026-03-22T15:41:06.384Z</time></trkpt><trkpt lat="43.0512" lon="13.2260933"><ele>1177.5</ele><time>2026-03-22T15:41:07.369Z</time></trkpt><trkpt lat="43.0511333" lon="13.2262183"><ele>1175.75</ele><time>2026-03-22T15:41:08.423Z</time></trkpt><trkpt lat="43.0510617" lon="13.2263533"><ele>1174.0</ele><time>2026-03-22T15:41:09.374Z</time></trkpt><trkpt lat="43.050985" lon="13.2264983"><ele>1174.25</ele><time>2026-03-22T15:41:10.367Z</time></trkpt><trkpt lat="43.0509033" lon="13.226645"><ele>1174.5</ele><time>2026-03-22T15:41:11.371Z</time></trkpt><trkpt lat="43.0508217" lon="13.2267967"><ele>1174.75</ele><time>2026-03-22T15:41:12.346Z</time></trkpt><trkpt lat="43.05074" lon="13.2269467"><ele>1175.0</ele><time>2026-03-22T15:41:13.371Z</time></trkpt><trkpt lat="43.05066" lon="13.2270933"><ele>1175.0</ele><time>2026-03-22T15:41:14.429Z</time></trkpt><trkpt lat="43.0505867" lon="13.2272367"><ele>1175.0</ele><time>2026-03-22T15:41:15.385Z</time></trkpt><trkpt lat="43.0505117" lon="13.2273733"><ele>1175.0</ele><time>2026-03-22T15:41:16.384Z</time></trkpt><trkpt lat="43.05044" lon="13.2275"><ele>1175.0</ele><time>2026-03-22T15:41:17.374Z</time></trkpt><trkpt lat="43.0503733" lon="13.2276183"><ele>1171.75</ele><time>2026-03-22T15:41:18.378Z</time></trkpt><trkpt lat="43.0503017" lon="13.2277333"><ele>1168.5</ele><time>2026-03-22T15:41:19.385Z</time></trkpt><trkpt lat="43.0502317" lon="13.2278483"><ele>1165.25</ele><time>2026-03-22T15:41:20.426Z</time></trkpt><trkpt lat="43.05016" lon="13.2279683"><ele>1162.0</ele><time>2026-03-22T15:41:21.379Z</time></trkpt><trkpt lat="43.0500833" lon="13.228095"><ele>1162.25</ele><time>2026-03-22T15:41:22.385Z</time></trkpt><trkpt lat="43.0500083" lon="13.2282267"><ele>1162.5</ele><time>2026-03-22T15:41:23.385Z</time></trkpt><trkpt lat="43.049935" lon="13.2283617"><ele>1162.75</ele><time>2026-03-22T15:41:24.386Z</time></trkpt><trkpt lat="43.04986" lon="13.2285017"><ele>1163.0</ele><time>2026-03-22T15:41:25.384Z</time></trkpt><trkpt lat="43.0497867" lon="13.2286383"><ele>1163.0</ele><time>2026-03-22T15:41:26.43Z</time></trkpt><trkpt lat="43.0497133" lon="13.228765"><ele>1163.0</ele><time>2026-03-22T15:41:27.379Z</time></trkpt><trkpt lat="43.0496383" lon="13.228885"><ele>1163.0</ele><time>2026-03-22T15:41:28.376Z</time></trkpt><trkpt lat="43.04956" lon="13.22899"><ele>1163.0</ele><time>2026-03-22T15:41:29.369Z</time></trkpt><trkpt lat="43.0494783" lon="13.22908"><ele>1163.0</ele><time>2026-03-22T15:41:30.376Z</time></trkpt><trkpt lat="43.0493967" lon="13.22916"><ele>1161.8333333333335</ele><time>2026-03-22T15:41:31.383Z</time></trkpt><trkpt lat="43.049315" lon="13.2292317"><ele>1160.6666666666667</ele><time>2026-03-22T15:41:32.436Z</time></trkpt><trkpt lat="43.0492433" lon="13.2292983"><ele>1159.5</ele><time>2026-03-22T15:41:33.38Z</time></trkpt><trkpt lat="43.0491867" lon="13.2293667"><ele>1158.3333333333333</ele><time>2026-03-22T15:41:34.381Z</time></trkpt><trkpt lat="43.049145" lon="13.2294367"><ele>1157.1666666666665</ele><time>2026-03-22T15:41:35.381Z</time></trkpt><trkpt lat="43.0491067" lon="13.2295683"><ele>1156.0</ele><time>2026-03-22T15:41:37.384Z</time></trkpt><trkpt lat="43.04919" lon="13.229635"><ele>1153.25</ele><time>2026-03-22T15:41:39.367Z</time></trkpt><trkpt lat="43.0493167" lon="13.2295967"><ele>1150.5</ele><time>2026-03-22T15:41:40.381Z</time></trkpt><trkpt lat="43.0494483" lon="13.2295183"><ele>1147.75</ele><time>2026-03-22T15:41:41.381Z</time></trkpt><trkpt lat="43.049575" lon="13.22942"><ele>1145.0</ele><time>2026-03-22T15:41:42.384Z</time></trkpt><trkpt lat="43.04969" lon="13.2293383"><ele>1145.0</ele><time>2026-03-22T15:41:43.386Z</time></trkpt><trkpt lat="43.049805" lon="13.22926"><ele>1145.0</ele><time>2026-03-22T15:41:44.431Z</time></trkpt><trkpt lat="43.0499183" lon="13.229175"><ele>1145.0</ele><time>2026-03-22T15:41:45.371Z</time></trkpt><trkpt lat="43.0500283" lon="13.229095"><ele>1145.0</ele><time>2026-03-22T15:41:46.374Z</time></trkpt><trkpt lat="43.0501417" lon="13.2290233"><ele>1146.0</ele><time>2026-03-22T15:41:47.371Z</time></trkpt><trkpt lat="43.0502583" lon="13.2289517"><ele>1147.0</ele><time>2026-03-22T15:41:48.364Z</time></trkpt><trkpt lat="43.0503767" lon="13.2288767"><ele>1148.0</ele><time>2026-03-22T15:41:49.366Z</time></trkpt><trkpt lat="43.0504967" lon="13.2288033"><ele>1149.0</ele><time>2026-03-22T15:41:50.404Z</time></trkpt><trkpt lat="43.05062" lon="13.2287333"><ele>1149.0</ele><time>2026-03-22T15:41:51.378Z</time></trkpt><trkpt lat="43.0507417" lon="13.2286617"><ele>1149.0</ele><time>2026-03-22T15:41:52.38Z</time></trkpt><trkpt lat="43.05086" lon="13.22859"><ele>1149.0</ele><time>2026-03-22T15:41:53.382Z</time></trkpt><trkpt lat="43.0509833" lon="13.2285217"><ele>1149.0</ele><time>2026-03-22T15:41:54.393Z</time></trkpt><trkpt lat="43.0511067" lon="13.2284583"><ele>1143.75</ele><time>2026-03-22T15:41:55.384Z</time></trkpt><trkpt lat="43.0512333" lon="13.2283983"><ele>1138.5</ele><time>2026-03-22T15:41:56.433Z</time></trkpt><trkpt lat="43.05136" lon="13.2283383"><ele>1133.25</ele><time>2026-03-22T15:41:57.381Z</time></trkpt><trkpt lat="43.0514883" lon="13.2282833"><ele>1128.0</ele><time>2026-03-22T15:41:58.382Z</time></trkpt><trkpt lat="43.0516167" lon="13.2282333"><ele>1127.0</ele><time>2026-03-22T15:41:59.384Z</time></trkpt><trkpt lat="43.0517467" lon="13.228185"><ele>1126.0</ele><time>2026-03-22T15:42:00.383Z</time></trkpt><trkpt lat="43.0518717" lon="13.22814"><ele>1125.0</ele><time>2026-03-22T15:42:01.383Z</time></trkpt><trkpt lat="43.05199" lon="13.228095"><ele>1124.0</ele><time>2026-03-22T15:42:02.434Z</time></trkpt><trkpt lat="43.052105" lon="13.228055"><ele>1124.0</ele><time>2026-03-22T15:42:03.379Z</time></trkpt><trkpt lat="43.0522233" lon="13.2280183"><ele>1124.0</ele><time>2026-03-22T15:42:04.382Z</time></trkpt><trkpt lat="43.05234" lon="13.2279783"><ele>1124.0</ele><time>2026-03-22T15:42:05.383Z</time></trkpt><trkpt lat="43.0524567" lon="13.227935"><ele>1124.0</ele><time>2026-03-22T15:42:06.385Z</time></trkpt><trkpt lat="43.0525683" lon="13.2278933"><ele>1121.2</ele><time>2026-03-22T15:42:07.374Z</time></trkpt><trkpt lat="43.0526783" lon="13.2278533"><ele>1118.4</ele><time>2026-03-22T15:42:08.412Z</time></trkpt><trkpt lat="43.0527833" lon="13.2278117"><ele>1115.6</ele><time>2026-03-22T15:42:09.364Z</time></trkpt><trkpt lat="43.0528833" lon="13.2277583"><ele>1112.8</ele><time>2026-03-22T15:42:10.38Z</time></trkpt><trkpt lat="43.0529783" lon="13.2276883"><ele>1110.0</ele><time>2026-03-22T15:42:11.383Z</time></trkpt><trkpt lat="43.0530633" lon="13.2276"><ele>1110.0</ele><time>2026-03-22T15:42:12.384Z</time></trkpt><trkpt lat="43.0531417" lon="13.2274983"><ele>1110.0</ele><time>2026-03-22T15:42:13.384Z</time></trkpt><trkpt lat="43.0532067" lon="13.2273783"><ele>1110.0</ele><time>2026-03-22T15:42:14.429Z</time></trkpt><trkpt lat="43.0532517" lon="13.2272433"><ele>1110.0</ele><time>2026-03-22T15:42:15.37Z</time></trkpt><trkpt lat="43.053285" lon="13.227095"><ele>1110.0</ele><time>2026-03-22T15:42:16.383Z</time></trkpt><trkpt lat="43.0533033" lon="13.2269367"><ele>1102.5</ele><time>2026-03-22T15:42:17.383Z</time></trkpt><trkpt lat="43.0533167" lon="13.2267717"><ele>1095.0</ele><time>2026-03-22T15:42:18.386Z</time></trkpt><trkpt lat="43.0533267" lon="13.2266033"><ele>1087.5</ele><time>2026-03-22T15:42:19.386Z</time></trkpt><trkpt lat="43.053335" lon="13.2264317"><ele>1080.0</ele><time>2026-03-22T15:42:20.432Z</time></trkpt><trkpt lat="43.0533367" lon="13.226255"><ele>1078.0</ele><time>2026-03-22T15:42:21.383Z</time></trkpt><trkpt lat="43.0533317" lon="13.2260783"><ele>1076.0</ele><time>2026-03-22T15:42:22.383Z</time></trkpt><trkpt lat="43.053315" lon="13.2259033"><ele>1074.0</ele><time>2026-03-22T15:42:23.385Z</time></trkpt><trkpt lat="43.0532883" lon="13.2257283"><ele>1072.0</ele><time>2026-03-22T15:42:24.383Z</time></trkpt><trkpt lat="43.0532533" lon="13.2255567"><ele>1083.25</ele><time>2026-03-22T15:42:25.374Z</time></trkpt><trkpt lat="43.0532133" lon="13.2253933"><ele>1094.5</ele><time>2026-03-22T15:42:26.444Z</time></trkpt><trkpt lat="43.0531733" lon="13.2252433"><ele>1105.75</ele><time>2026-03-22T15:42:27.381Z</time></trkpt><trkpt lat="43.053135" lon="13.2251017"><ele>1117.0</ele><time>2026-03-22T15:42:28.373Z</time></trkpt><trkpt lat="43.0530967" lon="13.2249567"><ele>1115.0</ele><time>2026-03-22T15:42:29.378Z</time></trkpt><trkpt lat="43.05306" lon="13.22481"><ele>1113.0</ele><time>2026-03-22T15:42:30.381Z</time></trkpt><trkpt lat="43.0530233" lon="13.2246717"><ele>1111.0</ele><time>2026-03-22T15:42:31.383Z</time></trkpt><trkpt lat="43.05298" lon="13.2245417"><ele>1109.0</ele><time>2026-03-22T15:42:32.433Z</time></trkpt><trkpt lat="43.0529267" lon="13.2244217"><ele>1107.0</ele><time>2026-03-22T15:42:33.381Z</time></trkpt><trkpt lat="43.0528633" lon="13.2243067"><ele>1107.0</ele><time>2026-03-22T15:42:34.382Z</time></trkpt><trkpt lat="43.0527967" lon="13.224195"><ele>1107.0</ele><time>2026-03-22T15:42:35.38Z</time></trkpt><trkpt lat="43.0527417" lon="13.224085"><ele>1107.0</ele><time>2026-03-22T15:42:36.372Z</time></trkpt><trkpt lat="43.0527" lon="13.2239717"><ele>1107.0</ele><time>2026-03-22T15:42:37.385Z</time></trkpt><trkpt lat="43.0526667" lon="13.223855"><ele>1107.0</ele><time>2026-03-22T15:42:38.426Z</time></trkpt><trkpt lat="43.05265" lon="13.2237317"><ele>1105.6</ele><time>2026-03-22T15:42:39.381Z</time></trkpt><trkpt lat="43.0526467" lon="13.2235967"><ele>1104.2</ele><time>2026-03-22T15:42:40.382Z</time></trkpt><trkpt lat="43.05267" lon="13.223465"><ele>1102.8</ele><time>2026-03-22T15:42:41.384Z</time></trkpt><trkpt lat="43.052735" lon="13.22334"><ele>1101.4</ele><time>2026-03-22T15:42:42.386Z</time></trkpt><trkpt lat="43.0528083" lon="13.223225"><ele>1100.0</ele><time>2026-03-22T15:42:43.379Z</time></trkpt><trkpt lat="43.0528767" lon="13.22311"><ele>1099.25</ele><time>2026-03-22T15:42:44.426Z</time></trkpt><trkpt lat="43.052935" lon="13.2229917"><ele>1098.5</ele><time>2026-03-22T15:42:45.381Z</time></trkpt><trkpt lat="43.0529783" lon="13.222855"><ele>1097.75</ele><time>2026-03-22T15:42:46.38Z</time></trkpt><trkpt lat="43.05302" lon="13.2227067"><ele>1097.0</ele><time>2026-03-22T15:42:47.379Z</time></trkpt><trkpt lat="43.05305" lon="13.2225467"><ele>1097.0</ele><time>2026-03-22T15:42:48.369Z</time></trkpt><trkpt lat="43.053075" lon="13.2223833"><ele>1097.0</ele><time>2026-03-22T15:42:49.383Z</time></trkpt><trkpt lat="43.0530867" lon="13.2222233"><ele>1097.0</ele><time>2026-03-22T15:42:50.429Z</time></trkpt><trkpt lat="43.053095" lon="13.2220583"><ele>1097.0</ele><time>2026-03-22T15:42:51.378Z</time></trkpt><trkpt lat="43.0531017" lon="13.22189"><ele>1096.5</ele><time>2026-03-22T15:42:52.385Z</time></trkpt><trkpt lat="43.0531117" lon="13.221715"><ele>1096.0</ele><time>2026-03-22T15:42:53.378Z</time></trkpt><trkpt lat="43.0531233" lon="13.22153"><ele>1095.5</ele><time>2026-03-22T15:42:54.383Z</time></trkpt><trkpt lat="43.0531317" lon="13.2213383"><ele>1095.0</ele><time>2026-03-22T15:42:55.384Z</time></trkpt><trkpt lat="43.0531367" lon="13.221155"><ele>1093.8</ele><time>2026-03-22T15:42:56.444Z</time></trkpt><trkpt lat="43.0531367" lon="13.221"><ele>1092.6</ele><time>2026-03-22T15:42:57.378Z</time></trkpt><trkpt lat="43.05313" lon="13.2208733"><ele>1091.4</ele><time>2026-03-22T15:42:58.38Z</time></trkpt><trkpt lat="43.0531517" lon="13.2207483"><ele>1090.2</ele><time>2026-03-22T15:43:00.387Z</time></trkpt><trkpt lat="43.0532183" lon="13.22069"><ele>1089.0</ele><time>2026-03-22T15:43:02.426Z</time></trkpt><trkpt lat="43.0533117" lon="13.2205967"><ele>1080.8</ele><time>2026-03-22T15:43:04.38Z</time></trkpt><trkpt lat="43.0534183" lon="13.220565"><ele>1072.6000000000001</ele><time>2026-03-22T15:43:06.371Z</time></trkpt><trkpt lat="43.05352" lon="13.220615"><ele>1064.4</ele><time>2026-03-22T15:43:08.423Z</time></trkpt><trkpt lat="43.0535767" lon="13.2206583"><ele>1056.2</ele><time>2026-03-22T15:43:09.378Z</time></trkpt><trkpt lat="43.05363" lon="13.2207067"><ele>1048.0</ele><time>2026-03-22T15:43:10.383Z</time></trkpt><trkpt lat="43.0537217" lon="13.2207983"><ele>1048.0</ele><time>2026-03-22T15:43:12.366Z</time></trkpt><trkpt lat="43.0538117" lon="13.2208767"><ele>1048.0</ele><time>2026-03-22T15:43:14.428Z</time></trkpt><trkpt lat="43.0539117" lon="13.22093"><ele>1048.0</ele><time>2026-03-22T15:43:16.355Z</time></trkpt><trkpt lat="43.0540117" lon="13.220985"><ele>1048.0</ele><time>2026-03-22T15:43:18.387Z</time></trkpt><trkpt lat="43.0540933" lon="13.22101"><ele>1048.0</ele><time>2026-03-22T15:43:20.426Z</time></trkpt><trkpt lat="43.0541583" lon="13.22103"><ele>1044.0</ele><time>2026-03-22T15:43:22.379Z</time></trkpt><trkpt lat="43.05422" lon="13.2211317"><ele>1040.0</ele><time>2026-03-22T15:43:25.372Z</time></trkpt><trkpt lat="43.0542467" lon="13.22122"><ele>1036.0</ele><time>2026-03-22T15:43:27.377Z</time></trkpt><trkpt lat="43.0542717" lon="13.2213"><ele>1032.0</ele><time>2026-03-22T15:43:29.358Z</time></trkpt><trkpt lat="43.0543117" lon="13.221395"><ele>1028.0</ele><time>2026-03-22T15:43:32.429Z</time></trkpt><trkpt lat="43.05439" lon="13.2213933"><ele>1024.0</ele><time>2026-03-22T15:44:22.374Z</time></trkpt><trkpt lat="43.0544033" lon="13.22128"><ele>1023.9999999999999</ele><time>2026-03-22T15:44:25.376Z</time></trkpt><trkpt lat="43.0544467" lon="13.2211683"><ele>1024.0</ele><time>2026-03-22T15:44:27.373Z</time></trkpt><trkpt lat="43.0544833" lon="13.2210483"><ele>1024.0</ele><time>2026-03-22T15:44:29.386Z</time></trkpt><trkpt lat="43.0545117" lon="13.2209483"><ele>1024.0</ele><time>2026-03-22T15:44:31.359Z</time></trkpt><trkpt lat="43.0545483" lon="13.2208533"><ele>1023.9999999999999</ele><time>2026-03-22T15:44:34.377Z</time></trkpt><trkpt lat="43.0546067" lon="13.2208033"><ele>1024.0</ele><time>2026-03-22T15:44:37.384Z</time></trkpt><trkpt lat="43.054695" lon="13.2207733"><ele>1024.0</ele><time>2026-03-22T15:44:40.358Z</time></trkpt><trkpt lat="43.0547683" lon="13.22076"><ele>1024.0</ele><time>2026-03-22T15:44:42.38Z</time></trkpt><trkpt lat="43.0548333" lon="13.2207867"><ele>1024.0</ele><time>2026-03-22T15:44:44.424Z</time></trkpt><trkpt lat="43.0549" lon="13.2208033"><ele>1024.0</ele><time>2026-03-22T15:44:46.378Z</time></trkpt><trkpt lat="43.0550383" lon="13.220785"><ele>1024.0</ele><time>2026-03-22T15:44:48.385Z</time></trkpt><trkpt lat="43.055145" lon="13.220765"><ele>1016.4000000000001</ele><time>2026-03-22T15:44:49.383Z</time></trkpt><trkpt lat="43.0552517" lon="13.2207433"><ele>1008.8000000000001</ele><time>2026-03-22T15:44:50.433Z</time></trkpt><trkpt lat="43.0553567" lon="13.2207283"><ele>1001.1999999999999</ele><time>2026-03-22T15:44:51.386Z</time></trkpt><trkpt lat="43.0554583" lon="13.220725"><ele>993.5999999999999</ele><time>2026-03-22T15:44:52.375Z</time></trkpt><trkpt lat="43.0555567" lon="13.2207333"><ele>986.0</ele><time>2026-03-22T15:44:53.386Z</time></trkpt><trkpt lat="43.0556467" lon="13.220755"><ele>986.0000000000001</ele><time>2026-03-22T15:44:54.386Z</time></trkpt><trkpt lat="43.05573" lon="13.2207883"><ele>986.0</ele><time>2026-03-22T15:44:55.385Z</time></trkpt><trkpt lat="43.05581" lon="13.22083"><ele>986.0</ele><time>2026-03-22T15:44:56.429Z</time></trkpt><trkpt lat="43.0558933" lon="13.220875"><ele>986.0</ele><time>2026-03-22T15:44:57.375Z</time></trkpt><trkpt lat="43.0559733" lon="13.2209233"><ele>986.0000000000001</ele><time>2026-03-22T15:44:58.384Z</time></trkpt><trkpt lat="43.0560433" lon="13.2209733"><ele>986.0</ele><time>2026-03-22T15:44:59.386Z</time></trkpt><trkpt lat="43.0561117" lon="13.221015"><ele>984.3333333333334</ele><time>2026-03-22T15:45:00.384Z</time></trkpt><trkpt lat="43.0561817" lon="13.2210517"><ele>982.6666666666667</ele><time>2026-03-22T15:45:01.385Z</time></trkpt><trkpt lat="43.05625" lon="13.2210917"><ele>981.0</ele><time>2026-03-22T15:45:02.433Z</time></trkpt><trkpt lat="43.05632" lon="13.2211333"><ele>979.3333333333333</ele><time>2026-03-22T15:45:03.378Z</time></trkpt><trkpt lat="43.05639" lon="13.2211783"><ele>977.6666666666666</ele><time>2026-03-22T15:45:04.384Z</time></trkpt><trkpt lat="43.05646" lon="13.221225"><ele>976.0</ele><time>2026-03-22T15:45:05.383Z</time></trkpt><trkpt lat="43.0565333" lon="13.2212717"><ele>975.9999999999999</ele><time>2026-03-22T15:45:06.385Z</time></trkpt><trkpt lat="43.0566017" lon="13.2213217"><ele>976.0</ele><time>2026-03-22T15:45:07.384Z</time></trkpt><trkpt lat="43.056665" lon="13.2213733"><ele>976.0</ele><time>2026-03-22T15:45:08.431Z</time></trkpt><trkpt lat="43.0567317" lon="13.221425"><ele>976.0</ele><time>2026-03-22T15:45:09.385Z</time></trkpt><trkpt lat="43.0568017" lon="13.2214733"><ele>975.9999999999999</ele><time>2026-03-22T15:45:10.383Z</time></trkpt><trkpt lat="43.0568667" lon="13.221525"><ele>976.0</ele><time>2026-03-22T15:45:11.384Z</time></trkpt><trkpt lat="43.0569283" lon="13.2215817"><ele>975.4285714285713</ele><time>2026-03-22T15:45:12.383Z</time></trkpt><trkpt lat="43.0569767" lon="13.2216467"><ele>974.8571428571429</ele><time>2026-03-22T15:45:13.374Z</time></trkpt><trkpt lat="43.0570283" lon="13.2217017"><ele>974.2857142857142</ele><time>2026-03-22T15:45:14.415Z</time></trkpt><trkpt lat="43.057085" lon="13.22175"><ele>973.7142857142857</ele><time>2026-03-22T15:45:15.365Z</time></trkpt><trkpt lat="43.0571567" lon="13.2217833"><ele>973.1428571428571</ele><time>2026-03-22T15:45:16.374Z</time></trkpt><trkpt lat="43.0572367" lon="13.2217933"><ele>972.5714285714286</ele><time>2026-03-22T15:45:17.375Z</time></trkpt><trkpt lat="43.057325" lon="13.2217733"><ele>972.0</ele><time>2026-03-22T15:45:18.382Z</time></trkpt><trkpt lat="43.0574117" lon="13.22174"><ele>971.2</ele><time>2026-03-22T15:45:19.384Z</time></trkpt><trkpt lat="43.05749" lon="13.2216983"><ele>970.4000000000001</ele><time>2026-03-22T15:45:20.421Z</time></trkpt><trkpt lat="43.057565" lon="13.2216433"><ele>969.5999999999999</ele><time>2026-03-22T15:45:21.368Z</time></trkpt><trkpt lat="43.0576383" lon="13.2215683"><ele>968.8</ele><time>2026-03-22T15:45:22.377Z</time></trkpt><trkpt lat="43.057715" lon="13.2214833"><ele>968.0</ele><time>2026-03-22T15:45:23.378Z</time></trkpt><trkpt lat="43.0577883" lon="13.2214033"><ele>966.8333333333334</ele><time>2026-03-22T15:45:24.382Z</time></trkpt><trkpt lat="43.0578633" lon="13.2213383"><ele>965.6666666666667</ele><time>2026-03-22T15:45:25.382Z</time></trkpt><trkpt lat="43.0579433" lon="13.2212983"><ele>964.5</ele><time>2026-03-22T15:45:26.443Z</time></trkpt><trkpt lat="43.0580283" lon="13.2212867"><ele>963.3333333333333</ele><time>2026-03-22T15:45:27.379Z</time></trkpt><trkpt lat="43.05812" lon="13.221295"><ele>962.1666666666666</ele><time>2026-03-22T15:45:28.385Z</time></trkpt><trkpt lat="43.0582083" lon="13.2213117"><ele>961.0</ele><time>2026-03-22T15:45:29.381Z</time></trkpt><trkpt lat="43.0582967" lon="13.2213367"><ele>961.0</ele><time>2026-03-22T15:45:30.38Z</time></trkpt><trkpt lat="43.058385" lon="13.221375"><ele>960.9999999999999</ele><time>2026-03-22T15:45:31.383Z</time></trkpt><trkpt lat="43.0584783" lon="13.22144"><ele>960.9999999999999</ele><time>2026-03-22T15:45:32.436Z</time></trkpt><trkpt lat="43.0585767" lon="13.2215233"><ele>961.0</ele><time>2026-03-22T15:45:33.384Z</time></trkpt><trkpt lat="43.05867" lon="13.2216133"><ele>961.0</ele><time>2026-03-22T15:45:34.386Z</time></trkpt><trkpt lat="43.0587533" lon="13.2216983"><ele>961.5999999999999</ele><time>2026-03-22T15:45:35.385Z</time></trkpt><trkpt lat="43.0588267" lon="13.2217967"><ele>962.1999999999999</ele><time>2026-03-22T15:45:36.383Z</time></trkpt><trkpt lat="43.0589017" lon="13.2219033"><ele>962.8000000000001</ele><time>2026-03-22T15:45:37.384Z</time></trkpt><trkpt lat="43.0589783" lon="13.2220083"><ele>963.4000000000001</ele><time>2026-03-22T15:45:38.41Z</time></trkpt><trkpt lat="43.05905" lon="13.222115"><ele>964.0</ele><time>2026-03-22T15:45:39.378Z</time></trkpt><trkpt lat="43.0591267" lon="13.22221"><ele>963.4000000000001</ele><time>2026-03-22T15:45:40.385Z</time></trkpt><trkpt lat="43.0592083" lon="13.2222883"><ele>962.8000000000001</ele><time>2026-03-22T15:45:41.384Z</time></trkpt><trkpt lat="43.0592917" lon="13.22235"><ele>962.1999999999999</ele><time>2026-03-22T15:45:42.359Z</time></trkpt><trkpt lat="43.0593783" lon="13.2224117"><ele>961.5999999999999</ele><time>2026-03-22T15:45:43.383Z</time></trkpt><trkpt lat="43.059455" lon="13.2224933"><ele>961.0</ele><time>2026-03-22T15:45:44.427Z</time></trkpt><trkpt lat="43.0595333" lon="13.2225733"><ele>961.0</ele><time>2026-03-22T15:45:45.385Z</time></trkpt><trkpt lat="43.0596117" lon="13.2226533"><ele>960.9999999999999</ele><time>2026-03-22T15:45:46.381Z</time></trkpt><trkpt lat="43.059695" lon="13.22271"><ele>960.9999999999999</ele><time>2026-03-22T15:45:47.385Z</time></trkpt><trkpt lat="43.0597833" lon="13.2227417"><ele>961.0</ele><time>2026-03-22T15:45:48.383Z</time></trkpt><trkpt lat="43.0598767" lon="13.2227567"><ele>961.0</ele><time>2026-03-22T15:45:49.381Z</time></trkpt><trkpt lat="43.0599633" lon="13.2227633"><ele>961.8</ele><time>2026-03-22T15:45:50.414Z</time></trkpt><trkpt lat="43.060055" lon="13.2227517"><ele>962.5999999999999</ele><time>2026-03-22T15:45:51.357Z</time></trkpt><trkpt lat="43.0601417" lon="13.22271"><ele>963.4</ele><time>2026-03-22T15:45:52.36Z</time></trkpt><trkpt lat="43.060235" lon="13.2226717"><ele>964.2</ele><time>2026-03-22T15:45:53.381Z</time></trkpt><trkpt lat="43.0603333" lon="13.2226283"><ele>965.0</ele><time>2026-03-22T15:45:54.377Z</time></trkpt><trkpt lat="43.0604183" lon="13.2225783"><ele>965.0</ele><time>2026-03-22T15:45:55.36Z</time></trkpt><trkpt lat="43.060505" lon="13.222525"><ele>965.0</ele><time>2026-03-22T15:45:56.408Z</time></trkpt><trkpt lat="43.0605917" lon="13.2224517"><ele>965.0</ele><time>2026-03-22T15:45:57.38Z</time></trkpt><trkpt lat="43.060675" lon="13.2223933"><ele>965.0</ele><time>2026-03-22T15:45:58.379Z</time></trkpt><trkpt lat="43.06076" lon="13.2223317"><ele>965.0</ele><time>2026-03-22T15:45:59.379Z</time></trkpt><trkpt lat="43.0608433" lon="13.222275"><ele>962.4</ele><time>2026-03-22T15:46:00.371Z</time></trkpt><trkpt lat="43.0609217" lon="13.2222233"><ele>959.8</ele><time>2026-03-22T15:46:01.381Z</time></trkpt><trkpt lat="43.0609967" lon="13.2221967"><ele>957.2</ele><time>2026-03-22T15:46:02.431Z</time></trkpt><trkpt lat="43.0611267" lon="13.2222217"><ele>954.6</ele><time>2026-03-22T15:46:04.373Z</time></trkpt><trkpt lat="43.0612033" lon="13.2223167"><ele>952.0</ele><time>2026-03-22T15:46:06.384Z</time></trkpt><trkpt lat="43.0612417" lon="13.222425"><ele>952.0</ele><time>2026-03-22T15:46:07.383Z</time></trkpt><trkpt lat="43.0612633" lon="13.2225617"><ele>952.0</ele><time>2026-03-22T15:46:08.403Z</time></trkpt><trkpt lat="43.0612683" lon="13.2227117"><ele>952.0</ele><time>2026-03-22T15:46:09.376Z</time></trkpt><trkpt lat="43.06127" lon="13.2228617"><ele>952.0</ele><time>2026-03-22T15:46:10.384Z</time></trkpt><trkpt lat="43.0612767" lon="13.22299"><ele>952.0</ele><time>2026-03-22T15:46:11.367Z</time></trkpt><trkpt lat="43.0613067" lon="13.2231017"><ele>952.1666666666666</ele><time>2026-03-22T15:46:12.375Z</time></trkpt><trkpt lat="43.0613483" lon="13.2232017"><ele>952.3333333333333</ele><time>2026-03-22T15:46:13.383Z</time></trkpt><trkpt lat="43.0614017" lon="13.22329"><ele>952.5</ele><time>2026-03-22T15:46:14.426Z</time></trkpt><trkpt lat="43.06147" lon="13.22337"><ele>952.6666666666667</ele><time>2026-03-22T15:46:15.375Z</time></trkpt><trkpt lat="43.0615483" lon="13.2234417"><ele>952.8333333333334</ele><time>2026-03-22T15:46:16.376Z</time></trkpt><trkpt lat="43.06163" lon="13.2234983"><ele>953.0</ele><time>2026-03-22T15:46:17.386Z</time></trkpt><trkpt lat="43.061695" lon="13.2235433"><ele>953.0000000000001</ele><time>2026-03-22T15:46:18.374Z</time></trkpt><trkpt lat="43.0617683" lon="13.2236383"><ele>953.0</ele><time>2026-03-22T15:46:20.421Z</time></trkpt><trkpt lat="43.0618267" lon="13.223765"><ele>953.0</ele><time>2026-03-22T15:46:22.382Z</time></trkpt><trkpt lat="43.0618983" lon="13.223865"><ele>953.0</ele><time>2026-03-22T15:46:24.376Z</time></trkpt><trkpt lat="43.061955" lon="13.223905"><ele>953.0000000000001</ele><time>2026-03-22T15:46:25.378Z</time></trkpt><trkpt lat="43.0620117" lon="13.2239517"><ele>953.0</ele><time>2026-03-22T15:46:26.445Z</time></trkpt><trkpt lat="43.06212" lon="13.22401"><ele>951.0</ele><time>2026-03-22T15:46:28.371Z</time></trkpt><trkpt lat="43.0621883" lon="13.22401"><ele>949.0</ele><time>2026-03-22T15:46:29.384Z</time></trkpt><trkpt lat="43.062255" lon="13.2240067"><ele>947.0</ele><time>2026-03-22T15:46:30.386Z</time></trkpt><trkpt lat="43.0623583" lon="13.22404"><ele>945.0</ele><time>2026-03-22T15:46:32.426Z</time></trkpt><trkpt lat="43.0624117" lon="13.2241517"><ele>943.0</ele><time>2026-03-22T15:46:34.38Z</time></trkpt><trkpt lat="43.06243" lon="13.2243067"><ele>943.9999999999999</ele><time>2026-03-22T15:46:36.384Z</time></trkpt><trkpt lat="43.0624583" lon="13.2244383"><ele>945.0</ele><time>2026-03-22T15:46:38.422Z</time></trkpt><trkpt lat="43.0624817" lon="13.2245183"><ele>946.0</ele><time>2026-03-22T15:46:39.38Z</time></trkpt><trkpt lat="43.0625033" lon="13.2246083"><ele>947.0</ele><time>2026-03-22T15:46:40.387Z</time></trkpt><trkpt lat="43.06252" lon="13.2246917"><ele>947.9999999999999</ele><time>2026-03-22T15:46:41.385Z</time></trkpt><trkpt lat="43.0625117" lon="13.2248683"><ele>949.0</ele><time>2026-03-22T15:46:43.382Z</time></trkpt><trkpt lat="43.0625083" lon="13.22498"><ele>948.9999999999999</ele><time>2026-03-22T15:46:44.429Z</time></trkpt><trkpt lat="43.0625017" lon="13.2250867"><ele>949.0</ele><time>2026-03-22T15:46:45.382Z</time></trkpt><trkpt lat="43.0624883" lon="13.22518"><ele>949.0</ele><time>2026-03-22T15:46:46.384Z</time></trkpt><trkpt lat="43.0624383" lon="13.2253217"><ele>949.0</ele><time>2026-03-22T15:46:48.385Z</time></trkpt><trkpt lat="43.0624133" lon="13.2254267"><ele>948.9999999999999</ele><time>2026-03-22T15:46:50.41Z</time></trkpt><trkpt lat="43.0624467" lon="13.2255"><ele>949.0</ele><time>2026-03-22T15:46:52.371Z</time></trkpt><trkpt lat="43.0625383" lon="13.2254883"><ele>949.0000000000001</ele><time>2026-03-22T15:46:54.378Z</time></trkpt><trkpt lat="43.0626017" lon="13.225475"><ele>949.0</ele><time>2026-03-22T15:46:55.379Z</time></trkpt><trkpt lat="43.0626767" lon="13.2254867"><ele>949.0000000000001</ele><time>2026-03-22T15:46:56.444Z</time></trkpt><trkpt lat="43.0627533" lon="13.225505"><ele>949.0000000000001</ele><time>2026-03-22T15:46:57.381Z</time></trkpt><trkpt lat="43.0628233" lon="13.2255317"><ele>949.0</ele><time>2026-03-22T15:46:58.372Z</time></trkpt><trkpt lat="43.0628817" lon="13.225575"><ele>949.0000000000001</ele><time>2026-03-22T15:46:59.385Z</time></trkpt><trkpt lat="43.0629267" lon="13.2256467"><ele>949.0000000000001</ele><time>2026-03-22T15:47:00.382Z</time></trkpt><trkpt lat="43.06297" lon="13.2257283"><ele>948.3333333333333</ele><time>2026-03-22T15:47:01.382Z</time></trkpt><trkpt lat="43.0630183" lon="13.2258067"><ele>947.6666666666666</ele><time>2026-03-22T15:47:02.432Z</time></trkpt><trkpt lat="43.0630633" lon="13.22588"><ele>947.0</ele><time>2026-03-22T15:47:03.376Z</time></trkpt><trkpt lat="43.0631083" lon="13.2259517"><ele>946.3333333333333</ele><time>2026-03-22T15:47:04.383Z</time></trkpt><trkpt lat="43.06317" lon="13.226085"><ele>945.6666666666666</ele><time>2026-03-22T15:47:06.382Z</time></trkpt><trkpt lat="43.0631933" lon="13.2262333"><ele>945.0</ele><time>2026-03-22T15:47:08.428Z</time></trkpt><trkpt lat="43.063245" lon="13.22638"><ele>943.8</ele><time>2026-03-22T15:47:10.382Z</time></trkpt><trkpt lat="43.0633133" lon="13.2264867"><ele>942.6</ele><time>2026-03-22T15:47:12.376Z</time></trkpt><trkpt lat="43.06339" lon="13.2265367"><ele>941.4000000000001</ele><time>2026-03-22T15:47:14.422Z</time></trkpt><trkpt lat="43.06348" lon="13.22656"><ele>940.2</ele><time>2026-03-22T15:47:16.382Z</time></trkpt><trkpt lat="43.0635417" lon="13.2266533"><ele>939.0</ele><time>2026-03-22T15:47:18.376Z</time></trkpt><trkpt lat="43.0636133" lon="13.226775"><ele>939.0</ele><time>2026-03-22T15:47:20.432Z</time></trkpt><trkpt lat="43.0636817" lon="13.2269067"><ele>939.0000000000001</ele><time>2026-03-22T15:47:22.381Z</time></trkpt><trkpt lat="43.0637383" lon="13.2270133"><ele>939.0000000000001</ele><time>2026-03-22T15:47:24.385Z</time></trkpt><trkpt lat="43.0637983" lon="13.2270933"><ele>939.0</ele><time>2026-03-22T15:47:26.427Z</time></trkpt><trkpt lat="43.0638517" lon="13.2272367"><ele>939.0</ele><time>2026-03-22T15:47:28.366Z</time></trkpt><trkpt lat="43.0639183" lon="13.2273933"><ele>937.8333333333334</ele><time>2026-03-22T15:47:30.387Z</time></trkpt><trkpt lat="43.0639367" lon="13.227495"><ele>936.6666666666667</ele><time>2026-03-22T15:47:32.429Z</time></trkpt><trkpt lat="43.063985" lon="13.2275717"><ele>935.5</ele><time>2026-03-22T15:47:34.363Z</time></trkpt><trkpt lat="43.0640283" lon="13.227665"><ele>934.3333333333334</ele><time>2026-03-22T15:47:37.356Z</time></trkpt><trkpt lat="43.064095" lon="13.2276867"><ele>933.1666666666667</ele><time>2026-03-22T15:47:40.361Z</time></trkpt><trkpt lat="43.06416" lon="13.2276883"><ele>932.0</ele><time>2026-03-22T15:47:42.344Z</time></trkpt><trkpt lat="43.0642533" lon="13.2276683"><ele>932.0000000000001</ele><time>2026-03-22T15:47:45.371Z</time></trkpt><trkpt lat="43.064325" lon="13.2276517"><ele>932.0</ele><time>2026-03-22T15:47:48.38Z</time></trkpt><trkpt lat="43.0643967" lon="13.2276917"><ele>932.0</ele><time>2026-03-22T15:47:52.368Z</time></trkpt><trkpt lat="43.0644733" lon="13.2277517"><ele>932.0</ele><time>2026-03-22T15:47:58.375Z</time></trkpt><trkpt lat="43.0645583" lon="13.2277717"><ele>932.0000000000001</ele><time>2026-03-22T15:48:01.375Z</time></trkpt><trkpt lat="43.064645" lon="13.2277567"><ele>932.0</ele><time>2026-03-22T15:48:03.375Z</time></trkpt><trkpt lat="43.064755" lon="13.2277433"><ele>932.0000000000001</ele><time>2026-03-22T15:48:05.373Z</time></trkpt><trkpt lat="43.0648183" lon="13.22773"><ele>932.0</ele><time>2026-03-22T15:48:06.38Z</time></trkpt><trkpt lat="43.0649283" lon="13.227705"><ele>932.0</ele><time>2026-03-22T15:48:08.414Z</time></trkpt><trkpt lat="43.06502" lon="13.2277067"><ele>932.0</ele><time>2026-03-22T15:48:10.373Z</time></trkpt><trkpt lat="43.0651" lon="13.22771"><ele>932.0000000000001</ele><time>2026-03-22T15:48:12.371Z</time></trkpt><trkpt lat="43.0651683" lon="13.2277333"><ele>932.0</ele><time>2026-03-22T15:48:14.403Z</time></trkpt><trkpt lat="43.0651883" lon="13.22783"><ele>929.6666666666667</ele><time>2026-03-22T15:48:18.356Z</time></trkpt><trkpt lat="43.0651617" lon="13.2279367"><ele>927.3333333333334</ele><time>2026-03-22T15:48:21.373Z</time></trkpt><trkpt lat="43.0651117" lon="13.2280167"><ele>925.0</ele><time>2026-03-22T15:48:24.375Z</time></trkpt><trkpt lat="43.0650967" lon="13.2281033"><ele>922.6666666666667</ele><time>2026-03-22T15:48:27.372Z</time></trkpt><trkpt lat="43.0650867" lon="13.2282067"><ele>920.3333333333334</ele><time>2026-03-22T15:48:29.369Z</time></trkpt><trkpt lat="43.0650717" lon="13.2283233"><ele>918.0</ele><time>2026-03-22T15:48:31.367Z</time></trkpt><trkpt lat="43.06506" lon="13.2284583"><ele>911.5999999999999</ele><time>2026-03-22T15:48:33.363Z</time></trkpt><trkpt lat="43.0650517" lon="13.228575"><ele>905.1999999999999</ele><time>2026-03-22T15:48:35.374Z</time></trkpt><trkpt lat="43.0650567" lon="13.2287017"><ele>898.8</ele><time>2026-03-22T15:48:37.37Z</time></trkpt><trkpt lat="43.065075" lon="13.2288217"><ele>892.4</ele><time>2026-03-22T15:48:39.372Z</time></trkpt><trkpt lat="43.0650717" lon="13.22895"><ele>886.0</ele><time>2026-03-22T15:48:41.369Z</time></trkpt><trkpt lat="43.0650267" lon="13.229075"><ele>880.1666666666666</ele><time>2026-03-22T15:48:43.36Z</time></trkpt><trkpt lat="43.0649567" lon="13.229165"><ele>874.3333333333333</ele><time>2026-03-22T15:48:45.354Z</time></trkpt><trkpt lat="43.0648767" lon="13.2292267"><ele>868.5</ele><time>2026-03-22T15:48:47.358Z</time></trkpt><trkpt lat="43.0647967" lon="13.2292467"><ele>862.6666666666667</ele><time>2026-03-22T15:48:49.363Z</time></trkpt><trkpt lat="43.064735" lon="13.2292867"><ele>856.8333333333334</ele><time>2026-03-22T15:48:51.37Z</time></trkpt><trkpt lat="43.06472" lon="13.2293967"><ele>851.0</ele><time>2026-03-22T15:48:54.362Z</time></trkpt><trkpt lat="43.0647717" lon="13.2295033"><ele>851.0000000000001</ele><time>2026-03-22T15:48:57.36Z</time></trkpt><trkpt lat="43.06484" lon="13.229575"><ele>851.0</ele><time>2026-03-22T15:48:59.374Z</time></trkpt><trkpt lat="43.0649017" lon="13.2296117"><ele>851.0</ele><time>2026-03-22T15:49:01.368Z</time></trkpt><trkpt lat="43.06498" lon="13.2296417"><ele>851.0</ele><time>2026-03-22T15:49:03.369Z</time></trkpt><trkpt lat="43.0650333" lon="13.22974"><ele>851.0000000000001</ele><time>2026-03-22T15:49:06.375Z</time></trkpt><trkpt lat="43.0650183" lon="13.2298267"><ele>851.0</ele><time>2026-03-22T15:49:08.403Z</time></trkpt><trkpt lat="43.0649917" lon="13.2299383"><ele>846.1666666666667</ele><time>2026-03-22T15:49:11.369Z</time></trkpt><trkpt lat="43.06498" lon="13.2300267"><ele>841.3333333333334</ele><time>2026-03-22T15:49:13.368Z</time></trkpt><trkpt lat="43.0649467" lon="13.2301517"><ele>836.5</ele><time>2026-03-22T15:49:16.361Z</time></trkpt><trkpt lat="43.0649033" lon="13.2302417"><ele>831.6666666666667</ele><time>2026-03-22T15:49:18.36Z</time></trkpt><trkpt lat="43.0648233" lon="13.23028"><ele>826.8333333333334</ele><time>2026-03-22T15:49:20.414Z</time></trkpt><trkpt lat="43.0647317" lon="13.2303283"><ele>822.0</ele><time>2026-03-22T15:49:22.368Z</time></trkpt><trkpt lat="43.0646683" lon="13.2303433"><ele>819.1666666666666</ele><time>2026-03-22T15:49:24.369Z</time></trkpt><trkpt lat="43.0646633" lon="13.230455"><ele>816.3333333333333</ele><time>2026-03-22T15:49:28.371Z</time></trkpt><trkpt lat="43.0647167" lon="13.2305267"><ele>813.5</ele><time>2026-03-22T15:49:30.37Z</time></trkpt><trkpt lat="43.06478" lon="13.2306483"><ele>810.6666666666666</ele><time>2026-03-22T15:49:32.43Z</time></trkpt><trkpt lat="43.0648117" lon="13.2307383"><ele>807.8333333333333</ele><time>2026-03-22T15:49:33.373Z</time></trkpt><trkpt lat="43.064845" lon="13.2308333"><ele>805.0</ele><time>2026-03-22T15:49:34.363Z</time></trkpt><trkpt lat="43.0648867" lon="13.230925"><ele>801.9999999999999</ele><time>2026-03-22T15:49:35.378Z</time></trkpt><trkpt lat="43.064925" lon="13.23102"><ele>799.0</ele><time>2026-03-22T15:49:36.373Z</time></trkpt><trkpt lat="43.06496" lon="13.23111"><ele>796.0</ele><time>2026-03-22T15:49:37.375Z</time></trkpt><trkpt lat="43.0649917" lon="13.231185"><ele>793.0</ele><time>2026-03-22T15:49:38.413Z</time></trkpt><trkpt lat="43.06507" lon="13.2313017"><ele>789.9999999999999</ele><time>2026-03-22T15:49:40.368Z</time></trkpt><trkpt lat="43.06517" lon="13.2313767"><ele>787.0</ele><time>2026-03-22T15:49:42.377Z</time></trkpt><trkpt lat="43.0652283" lon="13.2314133"><ele>786.9999999999999</ele><time>2026-03-22T15:49:43.383Z</time></trkpt><trkpt lat="43.06529" lon="13.2314483"><ele>787.0</ele><time>2026-03-22T15:49:44.415Z</time></trkpt><trkpt lat="43.0653517" lon="13.2314833"><ele>787.0</ele><time>2026-03-22T15:49:45.374Z</time></trkpt><trkpt lat="43.06541" lon="13.2315267"><ele>787.0</ele><time>2026-03-22T15:49:46.375Z</time></trkpt><trkpt lat="43.0654767" lon="13.2316617"><ele>786.9999999999999</ele><time>2026-03-22T15:49:48.375Z</time></trkpt><trkpt lat="43.0654767" lon="13.231755"><ele>787.0</ele><time>2026-03-22T15:49:49.375Z</time></trkpt><trkpt lat="43.0654517" lon="13.23186"><ele>782.8</ele><time>2026-03-22T15:49:50.414Z</time></trkpt><trkpt lat="43.0654167" lon="13.23197"><ele>778.6</ele><time>2026-03-22T15:49:51.373Z</time></trkpt><trkpt lat="43.0653567" lon="13.2321"><ele>774.4</ele><time>2026-03-22T15:49:52.37Z</time></trkpt><trkpt lat="43.0652983" lon="13.2322267"><ele>770.1999999999999</ele><time>2026-03-22T15:49:53.358Z</time></trkpt><trkpt lat="43.0652433" lon="13.2323317"><ele>766.0</ele><time>2026-03-22T15:49:54.362Z</time></trkpt><trkpt lat="43.0651967" lon="13.2324167"><ele>761.8</ele><time>2026-03-22T15:49:55.379Z</time></trkpt><trkpt lat="43.065155" lon="13.2324867"><ele>757.5999999999999</ele><time>2026-03-22T15:49:56.431Z</time></trkpt><trkpt lat="43.06509" lon="13.23259"><ele>753.4</ele><time>2026-03-22T15:49:58.375Z</time></trkpt><trkpt lat="43.065195" lon="13.2326633"><ele>749.2</ele><time>2026-03-22T15:50:02.428Z</time></trkpt><trkpt lat="43.06528" lon="13.2326767"><ele>745.0</ele><time>2026-03-22T15:50:03.377Z</time></trkpt><trkpt lat="43.06537" lon="13.2326717"><ele>745.0</ele><time>2026-03-22T15:50:04.364Z</time></trkpt><trkpt lat="43.0654533" lon="13.2326533"><ele>745.0</ele><time>2026-03-22T15:50:05.373Z</time></trkpt><trkpt lat="43.065535" lon="13.2326183"><ele>745.0</ele><time>2026-03-22T15:50:06.378Z</time></trkpt><trkpt lat="43.06562" lon="13.2325817"><ele>745.0</ele><time>2026-03-22T15:50:07.378Z</time></trkpt><trkpt lat="43.0657017" lon="13.2325483"><ele>745.0</ele><time>2026-03-22T15:50:08.409Z</time></trkpt><trkpt lat="43.0657817" lon="13.23252"><ele>745.0</ele><time>2026-03-22T15:50:09.373Z</time></trkpt><trkpt lat="43.0658583" lon="13.2324933"><ele>746.0</ele><time>2026-03-22T15:50:10.375Z</time></trkpt><trkpt lat="43.0659267" lon="13.232465"><ele>747.0</ele><time>2026-03-22T15:50:11.381Z</time></trkpt><trkpt lat="43.065995" lon="13.23243"><ele>748.0</ele><time>2026-03-22T15:50:12.362Z</time></trkpt><trkpt lat="43.066065" lon="13.232385"><ele>749.0</ele><time>2026-03-22T15:50:13.364Z</time></trkpt><trkpt lat="43.0661333" lon="13.232335"><ele>750.0</ele><time>2026-03-22T15:50:14.41Z</time></trkpt><trkpt lat="43.0661967" lon="13.2322833"><ele>751.0</ele><time>2026-03-22T15:50:15.373Z</time></trkpt><trkpt lat="43.06626" lon="13.2322183"><ele>751.0</ele><time>2026-03-22T15:50:16.354Z</time></trkpt><trkpt lat="43.066325" lon="13.2321583"><ele>751.0</ele><time>2026-03-22T15:50:17.367Z</time></trkpt><trkpt lat="43.06639" lon="13.2320983"><ele>751.0</ele><time>2026-03-22T15:50:18.368Z</time></trkpt><trkpt lat="43.06645" lon="13.23203"><ele>751.0</ele><time>2026-03-22T15:50:19.378Z</time></trkpt><trkpt lat="43.0665167" lon="13.2319667"><ele>751.0</ele><time>2026-03-22T15:50:20.399Z</time></trkpt><trkpt lat="43.0665767" lon="13.2319017"><ele>751.0</ele><time>2026-03-22T15:50:21.374Z</time></trkpt><trkpt lat="43.06663" lon="13.231845"><ele>751.0</ele><time>2026-03-22T15:50:22.375Z</time></trkpt><trkpt lat="43.0667283" lon="13.2318267"><ele>751.0</ele><time>2026-03-22T15:50:24.369Z</time></trkpt><trkpt lat="43.0667583" lon="13.2319333"><ele>751.0</ele><time>2026-03-22T15:50:26.423Z</time></trkpt><trkpt lat="43.066675" lon="13.232085"><ele>751.0</ele><time>2026-03-22T15:50:28.362Z</time></trkpt><trkpt lat="43.06661" lon="13.2321717"><ele>751.0</ele><time>2026-03-22T15:50:29.356Z</time></trkpt><trkpt lat="43.0665467" lon="13.2322483"><ele>746.8</ele><time>2026-03-22T15:50:30.372Z</time></trkpt><trkpt lat="43.0664967" lon="13.2323167"><ele>742.5999999999999</ele><time>2026-03-22T15:50:31.374Z</time></trkpt><trkpt lat="43.06642" lon="13.23244"><ele>738.4</ele><time>2026-03-22T15:50:33.366Z</time></trkpt><trkpt lat="43.0663917" lon="13.2325367"><ele>734.2</ele><time>2026-03-22T15:50:35.354Z</time></trkpt><trkpt lat="43.0664617" lon="13.23267"><ele>730.0</ele><time>2026-03-22T15:50:48.366Z</time></trkpt><trkpt lat="43.0665083" lon="13.2327617"><ele>730.0</ele><time>2026-03-22T15:50:50.4Z</time></trkpt><trkpt lat="43.066565" lon="13.2328617"><ele>730.0</ele><time>2026-03-22T15:50:52.36Z</time></trkpt><trkpt lat="43.0666283" lon="13.2329667"><ele>730.0</ele><time>2026-03-22T15:50:54.372Z</time></trkpt><trkpt lat="43.0667133" lon="13.2330717"><ele>730.0</ele><time>2026-03-22T15:50:56.42Z</time></trkpt><trkpt lat="43.0668133" lon="13.23318"><ele>730.0</ele><time>2026-03-22T15:50:58.367Z</time></trkpt><trkpt lat="43.066865" lon="13.2332317"><ele>725.7142857142858</ele><time>2026-03-22T15:50:59.373Z</time></trkpt><trkpt lat="43.0669183" lon="13.23328"><ele>721.4285714285714</ele><time>2026-03-22T15:51:00.367Z</time></trkpt><trkpt lat="43.066975" lon="13.2333267"><ele>717.1428571428571</ele><time>2026-03-22T15:51:01.381Z</time></trkpt><trkpt lat="43.0670333" lon="13.2333817"><ele>712.8571428571429</ele><time>2026-03-22T15:51:02.418Z</time></trkpt><trkpt lat="43.067095" lon="13.233435"><ele>708.5714285714286</ele><time>2026-03-22T15:51:03.373Z</time></trkpt><trkpt lat="43.06716" lon="13.2334867"><ele>704.2857142857143</ele><time>2026-03-22T15:51:04.383Z</time></trkpt><trkpt lat="43.0672233" lon="13.2335367"><ele>700.0</ele><time>2026-03-22T15:51:05.384Z</time></trkpt><trkpt lat="43.0672867" lon="13.2335833"><ele>700.0</ele><time>2026-03-22T15:51:06.374Z</time></trkpt><trkpt lat="43.067375" lon="13.233675"><ele>700.0</ele><time>2026-03-22T15:51:08.419Z</time></trkpt><trkpt lat="43.0674033" lon="13.2337983"><ele>700.0</ele><time>2026-03-22T15:51:10.364Z</time></trkpt><trkpt lat="43.0673933" lon="13.2339683"><ele>700.0</ele><time>2026-03-22T15:51:12.382Z</time></trkpt><trkpt lat="43.0673767" lon="13.234055"><ele>700.0</ele><time>2026-03-22T15:51:13.376Z</time></trkpt><trkpt lat="43.0673617" lon="13.2341517"><ele>698.5</ele><time>2026-03-22T15:51:14.417Z</time></trkpt><trkpt lat="43.06734" lon="13.2342533"><ele>697.0</ele><time>2026-03-22T15:51:15.372Z</time></trkpt><trkpt lat="43.0673167" lon="13.23435"><ele>695.5</ele><time>2026-03-22T15:51:16.374Z</time></trkpt><trkpt lat="43.0673017" lon="13.2344383"><ele>694.0</ele><time>2026-03-22T15:51:17.375Z</time></trkpt><trkpt lat="43.06729" lon="13.2345617"><ele>692.5</ele><time>2026-03-22T15:51:19.377Z</time></trkpt><trkpt lat="43.0673583" lon="13.2345583"><ele>691.0</ele><time>2026-03-22T15:51:23.373Z</time></trkpt><trkpt lat="43.067375" lon="13.2344583"><ele>691.0</ele><time>2026-03-22T15:51:24.375Z</time></trkpt><trkpt lat="43.0674033" lon="13.2343433"><ele>691.0</ele><time>2026-03-22T15:51:25.372Z</time></trkpt><trkpt lat="43.0674467" lon="13.2342333"><ele>691.0</ele><time>2026-03-22T15:51:26.422Z</time></trkpt><trkpt lat="43.0674983" lon="13.2341233"><ele>691.0</ele><time>2026-03-22T15:51:27.381Z</time></trkpt><trkpt lat="43.0675533" lon="13.2340167"><ele>691.0</ele><time>2026-03-22T15:51:28.375Z</time></trkpt><trkpt lat="43.06761" lon="13.2339017"><ele>690.1999999999999</ele><time>2026-03-22T15:51:29.381Z</time></trkpt><trkpt lat="43.067665" lon="13.2337817"><ele>689.4</ele><time>2026-03-22T15:51:30.381Z</time></trkpt><trkpt lat="43.0677267" lon="13.2336733"><ele>688.6</ele><time>2026-03-22T15:51:31.379Z</time></trkpt><trkpt lat="43.0677867" lon="13.233575"><ele>687.8</ele><time>2026-03-22T15:51:32.414Z</time></trkpt><trkpt lat="43.0678433" lon="13.23349"><ele>687.0</ele><time>2026-03-22T15:51:33.365Z</time></trkpt><trkpt lat="43.0678883" lon="13.2334183"><ele>687.0</ele><time>2026-03-22T15:51:34.379Z</time></trkpt><trkpt lat="43.0679417" lon="13.2333267"><ele>687.0</ele><time>2026-03-22T15:51:36.364Z</time></trkpt><trkpt lat="43.0680317" lon="13.2332667"><ele>687.0</ele><time>2026-03-22T15:51:39.357Z</time></trkpt><trkpt lat="43.0681167" lon="13.2332733"><ele>687.0</ele><time>2026-03-22T15:51:41.372Z</time></trkpt><trkpt lat="43.0681917" lon="13.2333283"><ele>687.0</ele><time>2026-03-22T15:51:43.374Z</time></trkpt><trkpt lat="43.0682433" lon="13.23341"><ele>687.0</ele><time>2026-03-22T15:51:45.368Z</time></trkpt><trkpt lat="43.0683033" lon="13.233445"><ele>683.7142857142858</ele><time>2026-03-22T15:51:47.372Z</time></trkpt><trkpt lat="43.0683733" lon="13.2334317"><ele>680.4285714285713</ele><time>2026-03-22T15:51:49.374Z</time></trkpt><trkpt lat="43.0684483" lon="13.2334"><ele>677.1428571428571</ele><time>2026-03-22T15:51:51.372Z</time></trkpt><trkpt lat="43.06852" lon="13.233355"><ele>673.8571428571429</ele><time>2026-03-22T15:51:53.374Z</time></trkpt><trkpt lat="43.0685817" lon="13.23332"><ele>670.5714285714287</ele><time>2026-03-22T15:51:55.375Z</time></trkpt><trkpt lat="43.068645" lon="13.23335"><ele>667.2857142857142</ele><time>2026-03-22T15:51:57.357Z</time></trkpt><trkpt lat="43.0686967" lon="13.2334067"><ele>664.0</ele><time>2026-03-22T15:51:58.364Z</time></trkpt><trkpt lat="43.0687683" lon="13.2335"><ele>664.0</ele><time>2026-03-22T15:51:59.371Z</time></trkpt><trkpt lat="43.068855" lon="13.2336017"><ele>664.0</ele><time>2026-03-22T15:52:00.372Z</time></trkpt><trkpt lat="43.0689483" lon="13.233705"><ele>664.0</ele><time>2026-03-22T15:52:01.378Z</time></trkpt><trkpt lat="43.0690317" lon="13.23381"><ele>664.0</ele><time>2026-03-22T15:52:02.426Z</time></trkpt><trkpt lat="43.069095" lon="13.2339317"><ele>660.0</ele><time>2026-03-22T15:52:03.374Z</time></trkpt><trkpt lat="43.0691333" lon="13.234055"><ele>656.0</ele><time>2026-03-22T15:52:04.373Z</time></trkpt><trkpt lat="43.0691583" lon="13.2341767"><ele>652.0</ele><time>2026-03-22T15:52:05.374Z</time></trkpt><trkpt lat="43.0691667" lon="13.234285"><ele>648.0</ele><time>2026-03-22T15:52:06.383Z</time></trkpt><trkpt lat="43.0691733" lon="13.234375"><ele>644.0</ele><time>2026-03-22T15:52:07.381Z</time></trkpt><trkpt lat="43.0692183" lon="13.2345117"><ele>640.0</ele><time>2026-03-22T15:52:09.376Z</time></trkpt><trkpt lat="43.0692833" lon="13.2345517"><ele>640.0</ele><time>2026-03-22T15:52:10.376Z</time></trkpt><trkpt lat="43.0693683" lon="13.2345767"><ele>640.0</ele><time>2026-03-22T15:52:11.381Z</time></trkpt><trkpt lat="43.069465" lon="13.2345983"><ele>640.0</ele><time>2026-03-22T15:52:12.381Z</time></trkpt><trkpt lat="43.0695617" lon="13.234615"><ele>640.0</ele><time>2026-03-22T15:52:13.374Z</time></trkpt><trkpt lat="43.0696617" lon="13.2346283"><ele>640.0</ele><time>2026-03-22T15:52:14.419Z</time></trkpt><trkpt lat="43.0697617" lon="13.2346217"><ele>640.0</ele><time>2026-03-22T15:52:15.375Z</time></trkpt><trkpt lat="43.0698567" lon="13.2346"><ele>640.0</ele><time>2026-03-22T15:52:16.377Z</time></trkpt><trkpt lat="43.06995" lon="13.2345783"><ele>640.0</ele><time>2026-03-22T15:52:17.379Z</time></trkpt><trkpt lat="43.07005" lon="13.23457"><ele>640.0</ele><time>2026-03-22T15:52:18.369Z</time></trkpt><trkpt lat="43.07015" lon="13.23458"><ele>640.0</ele><time>2026-03-22T15:52:19.378Z</time></trkpt><trkpt lat="43.070255" lon="13.2346167"><ele>638.25</ele><time>2026-03-22T15:52:20.407Z</time></trkpt><trkpt lat="43.0703583" lon="13.2346733"><ele>636.5</ele><time>2026-03-22T15:52:21.375Z</time></trkpt><trkpt lat="43.0704483" lon="13.23476"><ele>634.75</ele><time>2026-03-22T15:52:22.371Z</time></trkpt><trkpt lat="43.0705267" lon="13.2348683"><ele>633.0</ele><time>2026-03-22T15:52:23.375Z</time></trkpt><trkpt lat="43.0705983" lon="13.234995"><ele>633.0</ele><time>2026-03-22T15:52:24.369Z</time></trkpt><trkpt lat="43.0706683" lon="13.2351267"><ele>633.0</ele><time>2026-03-22T15:52:25.379Z</time></trkpt><trkpt lat="43.0707283" lon="13.2352717"><ele>633.0</ele><time>2026-03-22T15:52:26.429Z</time></trkpt><trkpt lat="43.070785" lon="13.2354267"><ele>633.0</ele><time>2026-03-22T15:52:27.377Z</time></trkpt><trkpt lat="43.070845" lon="13.235585"><ele>623.5</ele><time>2026-03-22T15:52:28.373Z</time></trkpt><trkpt lat="43.0709133" lon="13.2357417"><ele>614.0</ele><time>2026-03-22T15:52:29.373Z</time></trkpt><trkpt lat="43.0709717" lon="13.235895"><ele>604.5</ele><time>2026-03-22T15:52:30.38Z</time></trkpt><trkpt lat="43.0710117" lon="13.236045"><ele>595.0</ele><time>2026-03-22T15:52:31.352Z</time></trkpt><trkpt lat="43.0710417" lon="13.236195"><ele>595.0</ele><time>2026-03-22T15:52:32.42Z</time></trkpt><trkpt lat="43.0710633" lon="13.2363483"><ele>595.0</ele><time>2026-03-22T15:52:33.367Z</time></trkpt><trkpt lat="43.0710783" lon="13.2365033"><ele>595.0</ele><time>2026-03-22T15:52:34.372Z</time></trkpt><trkpt lat="43.071075" lon="13.23666"><ele>595.0</ele><time>2026-03-22T15:52:35.378Z</time></trkpt><trkpt lat="43.0710767" lon="13.23682"><ele>594.75</ele><time>2026-03-22T15:52:36.38Z</time></trkpt><trkpt lat="43.0710767" lon="13.2369883"><ele>594.5</ele><time>2026-03-22T15:52:37.353Z</time></trkpt><trkpt lat="43.0710733" lon="13.2371667"><ele>594.25</ele><time>2026-03-22T15:52:38.419Z</time></trkpt><trkpt lat="43.071075" lon="13.2373517"><ele>594.0</ele><time>2026-03-22T15:52:39.371Z</time></trkpt><trkpt lat="43.071085" lon="13.2375433"><ele>592.75</ele><time>2026-03-22T15:52:40.376Z</time></trkpt><trkpt lat="43.0710883" lon="13.2377383"><ele>591.5</ele><time>2026-03-22T15:52:41.376Z</time></trkpt><trkpt lat="43.071085" lon="13.2379383"><ele>590.25</ele><time>2026-03-22T15:52:42.375Z</time></trkpt><trkpt lat="43.0710817" lon="13.238125"><ele>589.0</ele><time>2026-03-22T15:52:43.378Z</time></trkpt><trkpt lat="43.0710783" lon="13.23829"><ele>585.8</ele><time>2026-03-22T15:52:44.414Z</time></trkpt><trkpt lat="43.0710583" lon="13.2384333"><ele>582.5999999999999</ele><time>2026-03-22T15:52:45.373Z</time></trkpt><trkpt lat="43.0710367" lon="13.2385567"><ele>579.4</ele><time>2026-03-22T15:52:46.375Z</time></trkpt><trkpt lat="43.0710267" lon="13.2386667"><ele>576.1999999999999</ele><time>2026-03-22T15:52:47.38Z</time></trkpt><trkpt lat="43.071025" lon="13.2387633"><ele>573.0</ele><time>2026-03-22T15:52:48.371Z</time></trkpt><trkpt lat="43.0710283" lon="13.2389117"><ele>567.6</ele><time>2026-03-22T15:52:50.419Z</time></trkpt><trkpt lat="43.071015" lon="13.2390367"><ele>562.1999999999999</ele><time>2026-03-22T15:52:52.363Z</time></trkpt><trkpt lat="43.0710017" lon="13.239175"><ele>556.8</ele><time>2026-03-22T15:52:54.372Z</time></trkpt><trkpt lat="43.0710117" lon="13.23932"><ele>551.4</ele><time>2026-03-22T15:52:56.417Z</time></trkpt><trkpt lat="43.0710483" lon="13.2394433"><ele>546.0</ele><time>2026-03-22T15:52:58.368Z</time></trkpt><trkpt lat="43.071085" lon="13.2395383"><ele>546.0</ele><time>2026-03-22T15:53:00.352Z</time></trkpt><trkpt lat="43.0711233" lon="13.2396367"><ele>546.0</ele><time>2026-03-22T15:53:02.422Z</time></trkpt><trkpt lat="43.0711517" lon="13.2397267"><ele>546.0</ele><time>2026-03-22T15:53:04.371Z</time></trkpt><trkpt lat="43.0711783" lon="13.2398183"><ele>546.0</ele><time>2026-03-22T15:53:06.361Z</time></trkpt><trkpt lat="43.0711933" lon="13.2399033"><ele>546.0</ele><time>2026-03-22T15:53:08.41Z</time></trkpt><trkpt lat="43.0712133" lon="13.2399933"><ele>546.0</ele><time>2026-03-22T15:53:10.368Z</time></trkpt><trkpt lat="43.071255" lon="13.2400983"><ele>546.0</ele><time>2026-03-22T15:53:12.367Z</time></trkpt><trkpt lat="43.0712983" lon="13.2401783"><ele>541.6666666666666</ele><time>2026-03-22T15:53:14.412Z</time></trkpt><trkpt lat="43.0713133" lon="13.2402633"><ele>537.3333333333334</ele><time>2026-03-22T15:53:16.354Z</time></trkpt><trkpt lat="43.0712717" lon="13.2403467"><ele>533.0</ele><time>2026-03-22T15:53:18.357Z</time></trkpt><trkpt lat="43.0712017" lon="13.2404083"><ele>528.6666666666667</ele><time>2026-03-22T15:53:20.408Z</time></trkpt><trkpt lat="43.0711183" lon="13.2404117"><ele>524.3333333333334</ele><time>2026-03-22T15:53:22.364Z</time></trkpt><trkpt lat="43.0710267" lon="13.240365"><ele>520.0</ele><time>2026-03-22T15:53:24.362Z</time></trkpt><trkpt lat="43.0709417" lon="13.2402933"><ele>520.0</ele><time>2026-03-22T15:53:26.42Z</time></trkpt><trkpt lat="43.0708333" lon="13.24024"><ele>520.0</ele><time>2026-03-22T15:53:28.381Z</time></trkpt><trkpt lat="43.070725" lon="13.2401983"><ele>520.0</ele><time>2026-03-22T15:53:30.38Z</time></trkpt><trkpt lat="43.0706217" lon="13.24015"><ele>520.0</ele><time>2026-03-22T15:53:32.42Z</time></trkpt><trkpt lat="43.0705117" lon="13.24012"><ele>520.0</ele><time>2026-03-22T15:53:34.376Z</time></trkpt><trkpt lat="43.070395" lon="13.240125"><ele>517.3333333333334</ele><time>2026-03-22T15:53:36.375Z</time></trkpt><trkpt lat="43.070295" lon="13.2401283"><ele>514.6666666666667</ele><time>2026-03-22T15:53:38.42Z</time></trkpt><trkpt lat="43.07022" lon="13.2401317"><ele>512.0</ele><time>2026-03-22T15:53:40.378Z</time></trkpt><trkpt lat="43.0701717" lon="13.2401883"><ele>509.33333333333337</ele><time>2026-03-22T15:53:43.375Z</time></trkpt><trkpt lat="43.0702133" lon="13.240285"><ele>506.6666666666667</ele><time>2026-03-22T15:53:46.376Z</time></trkpt><trkpt lat="43.0702967" lon="13.2403333"><ele>504.0</ele><time>2026-03-22T15:53:49.379Z</time></trkpt><trkpt lat="43.070465" lon="13.2404383"><ele>504.0</ele><time>2026-03-22T15:53:51.38Z</time></trkpt><trkpt lat="43.07052" lon="13.2405133"><ele>504.0</ele><time>2026-03-22T15:53:52.375Z</time></trkpt><trkpt lat="43.0706" lon="13.2406233"><ele>504.0</ele><time>2026-03-22T15:53:54.38Z</time></trkpt><trkpt lat="43.0706633" lon="13.2407867"><ele>504.0</ele><time>2026-03-22T15:53:56.42Z</time></trkpt><trkpt lat="43.0707017" lon="13.240865"><ele>504.0</ele><time>2026-03-22T15:53:57.379Z</time></trkpt><trkpt lat="43.0707417" lon="13.2409383"><ele>505.0</ele><time>2026-03-22T15:53:58.378Z</time></trkpt><trkpt lat="43.0707867" lon="13.2410117"><ele>506.0</ele><time>2026-03-22T15:53:59.381Z</time></trkpt><trkpt lat="43.0708217" lon="13.2411033"><ele>507.0</ele><time>2026-03-22T15:54:00.391Z</time></trkpt><trkpt lat="43.0708617" lon="13.2412017"><ele>508.0</ele><time>2026-03-22T15:54:01.38Z</time></trkpt><trkpt lat="43.0709067" lon="13.2413083"><ele>509.0</ele><time>2026-03-22T15:54:02.421Z</time></trkpt><trkpt lat="43.07096" lon="13.2414067"><ele>510.0</ele><time>2026-03-22T15:54:03.38Z</time></trkpt><trkpt lat="43.0709967" lon="13.24151"><ele>510.0</ele><time>2026-03-22T15:54:04.378Z</time></trkpt><trkpt lat="43.0710433" lon="13.241605"><ele>510.0</ele><time>2026-03-22T15:54:05.377Z</time></trkpt><trkpt lat="43.07109" lon="13.2417017"><ele>510.0</ele><time>2026-03-22T15:54:06.381Z</time></trkpt><trkpt lat="43.0711383" lon="13.2418183"><ele>510.0</ele><time>2026-03-22T15:54:07.381Z</time></trkpt><trkpt lat="43.0711867" lon="13.24194"><ele>510.0</ele><time>2026-03-22T15:54:08.392Z</time></trkpt><trkpt lat="43.0712267" lon="13.2420567"><ele>510.0</ele><time>2026-03-22T15:54:09.367Z</time></trkpt><trkpt lat="43.07127" lon="13.2421617"><ele>510.0</ele><time>2026-03-22T15:54:10.376Z</time></trkpt><trkpt lat="43.0713117" lon="13.2422433"><ele>510.0</ele><time>2026-03-22T15:54:11.379Z</time></trkpt><trkpt lat="43.0713633" lon="13.2423833"><ele>510.0</ele><time>2026-03-22T15:54:13.378Z</time></trkpt><trkpt lat="43.0713867" lon="13.242535"><ele>510.0</ele><time>2026-03-22T15:54:15.378Z</time></trkpt><trkpt lat="43.0713967" lon="13.2427017"><ele>514.5</ele><time>2026-03-22T15:54:17.38Z</time></trkpt><trkpt lat="43.071405" lon="13.24279"><ele>519.0</ele><time>2026-03-22T15:54:18.382Z</time></trkpt><trkpt lat="43.0714133" lon="13.24288"><ele>523.5</ele><time>2026-03-22T15:54:19.364Z</time></trkpt><trkpt lat="43.0714267" lon="13.242965"><ele>528.0</ele><time>2026-03-22T15:54:20.415Z</time></trkpt><trkpt lat="43.0714433" lon="13.2430483"><ele>532.5</ele><time>2026-03-22T15:54:21.38Z</time></trkpt><trkpt lat="43.071485" lon="13.2432067"><ele>537.0</ele><time>2026-03-22T15:54:23.381Z</time></trkpt><trkpt lat="43.0715167" lon="13.2433633"><ele>539.6666666666666</ele><time>2026-03-22T15:54:25.376Z</time></trkpt><trkpt lat="43.0715433" lon="13.24353"><ele>542.3333333333334</ele><time>2026-03-22T15:54:27.37Z</time></trkpt><trkpt lat="43.07156" lon="13.2436167"><ele>545.0</ele><time>2026-03-22T15:54:28.377Z</time></trkpt><trkpt lat="43.0715817" lon="13.243745"><ele>547.6666666666667</ele><time>2026-03-22T15:54:30.381Z</time></trkpt><trkpt lat="43.0715917" lon="13.2438517"><ele>550.3333333333334</ele><time>2026-03-22T15:54:32.402Z</time></trkpt><trkpt lat="43.0716017" lon="13.2439617"><ele>553.0</ele><time>2026-03-22T15:54:34.376Z</time></trkpt><trkpt lat="43.0716333" lon="13.2440533"><ele>546.6666666666667</ele><time>2026-03-22T15:54:36.367Z</time></trkpt><trkpt lat="43.0716633" lon="13.2441483"><ele>540.3333333333334</ele><time>2026-03-22T15:54:39.354Z</time></trkpt><trkpt lat="43.0716917" lon="13.24423"><ele>534.0</ele><time>2026-03-22T15:54:41.369Z</time></trkpt><trkpt lat="43.0717133" lon="13.2443117"><ele>527.6666666666666</ele><time>2026-03-22T15:54:43.372Z</time></trkpt><trkpt lat="43.0717467" lon="13.2444267"><ele>521.3333333333333</ele><time>2026-03-22T15:54:46.375Z</time></trkpt><trkpt lat="43.071775" lon="13.24454"><ele>515.0</ele><time>2026-03-22T15:54:49.36Z</time></trkpt><trkpt lat="43.0717867" lon="13.24463"><ele>515.0</ele><time>2026-03-22T15:54:51.369Z</time></trkpt><trkpt lat="43.0718083" lon="13.2447267"><ele>515.0</ele><time>2026-03-22T15:54:53.371Z</time></trkpt><trkpt lat="43.0718267" lon="13.244835"><ele>515.0</ele><time>2026-03-22T15:54:55.373Z</time></trkpt><trkpt lat="43.0718567" lon="13.2449567"><ele>515.0</ele><time>2026-03-22T15:54:57.376Z</time></trkpt><trkpt lat="43.0718933" lon="13.245085"><ele>515.0</ele><time>2026-03-22T15:54:59.373Z</time></trkpt><trkpt lat="43.0719267" lon="13.2452117"><ele>515.0</ele><time>2026-03-22T15:55:01.379Z</time></trkpt><trkpt lat="43.0719567" lon="13.24533"><ele>514.8333333333333</ele><time>2026-03-22T15:55:03.357Z</time></trkpt><trkpt lat="43.0719967" lon="13.2454317"><ele>514.6666666666666</ele><time>2026-03-22T15:55:05.374Z</time></trkpt><trkpt lat="43.0720433" lon="13.2455133"><ele>514.5</ele><time>2026-03-22T15:55:07.375Z</time></trkpt><trkpt lat="43.072085" lon="13.2455983"><ele>514.3333333333334</ele><time>2026-03-22T15:55:10.367Z</time></trkpt><trkpt lat="43.0721433" lon="13.24565"><ele>514.1666666666667</ele><time>2026-03-22T15:55:19.36Z</time></trkpt><trkpt lat="43.0721917" lon="13.245735"><ele>514.0</ele><time>2026-03-22T15:55:21.374Z</time></trkpt><trkpt lat="43.072265" lon="13.2458317"><ele>514.0</ele><time>2026-03-22T15:55:23.37Z</time></trkpt><trkpt lat="43.07233" lon="13.2459383"><ele>514.0</ele><time>2026-03-22T15:55:25.372Z</time></trkpt><trkpt lat="43.072385" lon="13.246025"><ele>514.0</ele><time>2026-03-22T15:55:27.371Z</time></trkpt><trkpt lat="43.0724517" lon="13.2460767"><ele>514.0</ele><time>2026-03-22T15:55:29.373Z</time></trkpt><trkpt lat="43.0725333" lon="13.246095"><ele>514.0</ele><time>2026-03-22T15:55:31.372Z</time></trkpt><trkpt lat="43.072615" lon="13.24606"><ele>514.0</ele><time>2026-03-22T15:55:33.37Z</time></trkpt><trkpt lat="43.0726817" lon="13.24606"><ele>509.6</ele><time>2026-03-22T15:55:36.374Z</time></trkpt><trkpt lat="43.072645" lon="13.2461883"><ele>505.2</ele><time>2026-03-22T15:55:39.36Z</time></trkpt><trkpt lat="43.0725967" lon="13.2462917"><ele>500.80000000000007</ele><time>2026-03-22T15:55:41.371Z</time></trkpt><trkpt lat="43.0725433" lon="13.2463933"><ele>496.40000000000003</ele><time>2026-03-22T15:55:43.367Z</time></trkpt><trkpt lat="43.072455" lon="13.2464817"><ele>492.0</ele><time>2026-03-22T15:55:45.374Z</time></trkpt><trkpt lat="43.072375" lon="13.24655"><ele>492.0</ele><time>2026-03-22T15:55:47.378Z</time></trkpt><trkpt lat="43.0723133" lon="13.246605"><ele>492.0</ele><time>2026-03-22T15:55:49.36Z</time></trkpt><trkpt lat="43.0722383" lon="13.2466617"><ele>492.0</ele><time>2026-03-22T15:55:52.371Z</time></trkpt><trkpt lat="43.0721733" lon="13.2466783"><ele>492.0</ele><time>2026-03-22T15:55:54.373Z</time></trkpt><trkpt lat="43.0721167" lon="13.2466317"><ele>492.0</ele><time>2026-03-22T15:55:57.369Z</time></trkpt><trkpt lat="43.07205" lon="13.2467017"><ele>492.0</ele><time>2026-03-22T15:56:15.358Z</time></trkpt><trkpt lat="43.07199" lon="13.2467733"><ele>492.0</ele><time>2026-03-22T15:56:17.368Z</time></trkpt><trkpt lat="43.0720317" lon="13.24686"><ele>492.0</ele><time>2026-03-22T15:56:23.337Z</time></trkpt><trkpt lat="43.0721033" lon="13.246935"><ele>492.0</ele><time>2026-03-22T15:56:26.422Z</time></trkpt><trkpt lat="43.0721867" lon="13.2469817"><ele>492.0</ele><time>2026-03-22T15:56:28.371Z</time></trkpt><trkpt lat="43.0722683" lon="13.2470067"><ele>492.0</ele><time>2026-03-22T15:56:30.372Z</time></trkpt><trkpt lat="43.0723667" lon="13.2470133"><ele>492.0</ele><time>2026-03-22T15:56:32.407Z</time></trkpt><trkpt lat="43.072475" lon="13.2470367"><ele>488.0</ele><time>2026-03-22T15:56:34.361Z</time></trkpt><trkpt lat="43.07256" lon="13.2470567"><ele>484.00000000000006</ele><time>2026-03-22T15:56:36.38Z</time></trkpt><trkpt lat="43.07265" lon="13.2470933"><ele>480.00000000000006</ele><time>2026-03-22T15:56:38.39Z</time></trkpt><trkpt lat="43.0727283" lon="13.2471217"><ele>476.0</ele><time>2026-03-22T15:56:40.369Z</time></trkpt><trkpt lat="43.0728317" lon="13.247195"><ele>472.0</ele><time>2026-03-22T15:56:42.371Z</time></trkpt><trkpt lat="43.0729433" lon="13.247255"><ele>472.00000000000006</ele><time>2026-03-22T15:56:44.403Z</time></trkpt><trkpt lat="43.0730233" lon="13.2472817"><ele>472.0</ele><time>2026-03-22T15:56:46.361Z</time></trkpt><trkpt lat="43.073105" lon="13.24734"><ele>472.0</ele><time>2026-03-22T15:56:58.374Z</time></trkpt><trkpt lat="43.0731767" lon="13.2473933"><ele>472.0</ele><time>2026-03-22T15:57:01.373Z</time></trkpt><trkpt lat="43.0732283" lon="13.2474733"><ele>472.00000000000006</ele><time>2026-03-22T15:57:04.371Z</time></trkpt><trkpt lat="43.0732583" lon="13.2476233"><ele>472.0</ele><time>2026-03-22T15:57:06.382Z</time></trkpt><trkpt lat="43.073285" lon="13.2477317"><ele>474.33333333333337</ele><time>2026-03-22T15:57:07.377Z</time></trkpt><trkpt lat="43.0733233" lon="13.2478417"><ele>476.6666666666667</ele><time>2026-03-22T15:57:08.412Z</time></trkpt><trkpt lat="43.0733633" lon="13.2479467"><ele>479.0</ele><time>2026-03-22T15:57:09.383Z</time></trkpt><trkpt lat="43.0733983" lon="13.2480417"><ele>481.33333333333337</ele><time>2026-03-22T15:57:10.378Z</time></trkpt><trkpt lat="43.07343" lon="13.2481317"><ele>483.6666666666667</ele><time>2026-03-22T15:57:11.367Z</time></trkpt><trkpt lat="43.07346" lon="13.2482367"><ele>486.0</ele><time>2026-03-22T15:57:12.372Z</time></trkpt><trkpt lat="43.0734967" lon="13.2483483"><ele>488.3333333333333</ele><time>2026-03-22T15:57:13.376Z</time></trkpt><trkpt lat="43.0735433" lon="13.2484583"><ele>490.66666666666663</ele><time>2026-03-22T15:57:14.412Z</time></trkpt><trkpt lat="43.0735883" lon="13.2485617"><ele>493.0</ele><time>2026-03-22T15:57:15.373Z</time></trkpt><trkpt lat="43.0736333" lon="13.2486583"><ele>495.3333333333333</ele><time>2026-03-22T15:57:16.376Z</time></trkpt><trkpt lat="43.07367" lon="13.2487483"><ele>497.66666666666663</ele><time>2026-03-22T15:57:17.381Z</time></trkpt><trkpt lat="43.0737033" lon="13.2488217"><ele>500.0</ele><time>2026-03-22T15:57:18.379Z</time></trkpt><trkpt lat="43.0737783" lon="13.2489733"><ele>503.4</ele><time>2026-03-22T15:57:20.417Z</time></trkpt><trkpt lat="43.07382" lon="13.2490633"><ele>506.8</ele><time>2026-03-22T15:57:21.377Z</time></trkpt><trkpt lat="43.07386" lon="13.24917"><ele>510.20000000000005</ele><time>2026-03-22T15:57:22.38Z</time></trkpt><trkpt lat="43.0739033" lon="13.249295"><ele>513.6</ele><time>2026-03-22T15:57:23.37Z</time></trkpt><trkpt lat="43.0739433" lon="13.24944"><ele>517.0</ele><time>2026-03-22T15:57:24.383Z</time></trkpt><trkpt lat="43.07398" lon="13.2495867"><ele>517.0</ele><time>2026-03-22T15:57:25.378Z</time></trkpt><trkpt lat="43.074" lon="13.249725"><ele>517.0</ele><time>2026-03-22T15:57:26.429Z</time></trkpt><trkpt lat="43.0740183" lon="13.2498583"><ele>517.0</ele><time>2026-03-22T15:57:27.378Z</time></trkpt><trkpt lat="43.074035" lon="13.2499933"><ele>517.0</ele><time>2026-03-22T15:57:28.377Z</time></trkpt><trkpt lat="43.0740533" lon="13.2501233"><ele>517.0</ele><time>2026-03-22T15:57:29.378Z</time></trkpt><trkpt lat="43.07407" lon="13.2502567"><ele>515.4</ele><time>2026-03-22T15:57:30.382Z</time></trkpt><trkpt lat="43.0740833" lon="13.2503867"><ele>513.8000000000001</ele><time>2026-03-22T15:57:31.381Z</time></trkpt><trkpt lat="43.0741" lon="13.2505183"><ele>512.2</ele><time>2026-03-22T15:57:32.407Z</time></trkpt><trkpt lat="43.0741233" lon="13.25065"><ele>510.6</ele><time>2026-03-22T15:57:33.373Z</time></trkpt><trkpt lat="43.0741567" lon="13.2507817"><ele>509.0</ele><time>2026-03-22T15:57:34.371Z</time></trkpt><trkpt lat="43.0742" lon="13.2509183"><ele>509.0</ele><time>2026-03-22T15:57:35.375Z</time></trkpt><trkpt lat="43.0742467" lon="13.251045"><ele>509.0</ele><time>2026-03-22T15:57:36.381Z</time></trkpt><trkpt lat="43.0742883" lon="13.251165"><ele>509.0</ele><time>2026-03-22T15:57:37.38Z</time></trkpt><trkpt lat="43.07433" lon="13.2512783"><ele>509.0</ele><time>2026-03-22T15:57:38.393Z</time></trkpt><trkpt lat="43.0743717" lon="13.2513917"><ele>509.0</ele><time>2026-03-22T15:57:39.375Z</time></trkpt><trkpt lat="43.0744117" lon="13.2515033"><ele>511.2</ele><time>2026-03-22T15:57:40.378Z</time></trkpt><trkpt lat="43.074435" lon="13.2516083"><ele>513.4</ele><time>2026-03-22T15:57:41.382Z</time></trkpt><trkpt lat="43.0744533" lon="13.25172"><ele>515.6</ele><time>2026-03-22T15:57:42.379Z</time></trkpt><trkpt lat="43.0744667" lon="13.25185"><ele>517.8</ele><time>2026-03-22T15:57:43.379Z</time></trkpt><trkpt lat="43.074475" lon="13.252"><ele>520.0</ele><time>2026-03-22T15:57:44.412Z</time></trkpt><trkpt lat="43.0744833" lon="13.252165"><ele>520.8333333333334</ele><time>2026-03-22T15:57:45.38Z</time></trkpt><trkpt lat="43.0744933" lon="13.2523217"><ele>521.6666666666667</ele><time>2026-03-22T15:57:46.382Z</time></trkpt><trkpt lat="43.074505" lon="13.2524533"><ele>522.5</ele><time>2026-03-22T15:57:47.381Z</time></trkpt><trkpt lat="43.0745133" lon="13.25257"><ele>523.3333333333334</ele><time>2026-03-22T15:57:48.382Z</time></trkpt><trkpt lat="43.0745217" lon="13.252675"><ele>524.1666666666666</ele><time>2026-03-22T15:57:49.384Z</time></trkpt><trkpt lat="43.074525" lon="13.2527717"><ele>525.0</ele><time>2026-03-22T15:57:50.418Z</time></trkpt><trkpt lat="43.0745167" lon="13.252865"><ele>525.0</ele><time>2026-03-22T15:57:51.376Z</time></trkpt><trkpt lat="43.074495" lon="13.2529467"><ele>525.0</ele><time>2026-03-22T15:57:52.359Z</time></trkpt><trkpt lat="43.074445" lon="13.2531067"><ele>525.0</ele><time>2026-03-22T15:57:54.378Z</time></trkpt><trkpt lat="43.0744067" lon="13.2532167"><ele>525.0</ele><time>2026-03-22T15:57:55.382Z</time></trkpt><trkpt lat="43.07436" lon="13.2533517"><ele>525.0</ele><time>2026-03-22T15:57:56.433Z</time></trkpt><trkpt lat="43.07431" lon="13.2534917"><ele>525.2</ele><time>2026-03-22T15:57:57.377Z</time></trkpt><trkpt lat="43.0742617" lon="13.2536333"><ele>525.4</ele><time>2026-03-22T15:57:58.381Z</time></trkpt><trkpt lat="43.07422" lon="13.2537667"><ele>525.6</ele><time>2026-03-22T15:57:59.38Z</time></trkpt><trkpt lat="43.074185" lon="13.2539"><ele>525.8</ele><time>2026-03-22T15:58:00.382Z</time></trkpt><trkpt lat="43.07416" lon="13.2540267"><ele>526.0</ele><time>2026-03-22T15:58:01.382Z</time></trkpt><trkpt lat="43.0741483" lon="13.2541533"><ele>526.6</ele><time>2026-03-22T15:58:02.417Z</time></trkpt><trkpt lat="43.07416" lon="13.2542717"><ele>527.2</ele><time>2026-03-22T15:58:03.382Z</time></trkpt><trkpt lat="43.074195" lon="13.2543867"><ele>527.8</ele><time>2026-03-22T15:58:04.372Z</time></trkpt><trkpt lat="43.0742633" lon="13.2544817"><ele>528.4</ele><time>2026-03-22T15:58:05.378Z</time></trkpt><trkpt lat="43.074365" lon="13.2545333"><ele>529.0</ele><time>2026-03-22T15:58:06.383Z</time></trkpt><trkpt lat="43.0745" lon="13.2545533"><ele>529.0</ele><time>2026-03-22T15:58:07.369Z</time></trkpt><trkpt lat="43.074655" lon="13.254555"><ele>529.0</ele><time>2026-03-22T15:58:08.411Z</time></trkpt><trkpt lat="43.0748083" lon="13.2545883"><ele>529.0</ele><time>2026-03-22T15:58:09.379Z</time></trkpt><trkpt lat="43.0749533" lon="13.25466"><ele>529.75</ele><time>2026-03-22T15:58:10.383Z</time></trkpt><trkpt lat="43.0750767" lon="13.2547633"><ele>530.5</ele><time>2026-03-22T15:58:11.364Z</time></trkpt><trkpt lat="43.0751883" lon="13.2548767"><ele>531.25</ele><time>2026-03-22T15:58:12.378Z</time></trkpt><trkpt lat="43.075295" lon="13.25499"><ele>532.0</ele><time>2026-03-22T15:58:13.38Z</time></trkpt><trkpt lat="43.075405" lon="13.255095"><ele>532.0</ele><time>2026-03-22T15:58:14.412Z</time></trkpt><trkpt lat="43.075515" lon="13.2551867"><ele>532.0</ele><time>2026-03-22T15:58:15.378Z</time></trkpt><trkpt lat="43.0756117" lon="13.2552867"><ele>532.0</ele><time>2026-03-22T15:58:16.359Z</time></trkpt><trkpt lat="43.0757117" lon="13.2553917"><ele>532.0</ele><time>2026-03-22T15:58:17.346Z</time></trkpt><trkpt lat="43.075815" lon="13.255505"><ele>528.0</ele><time>2026-03-22T15:58:18.37Z</time></trkpt><trkpt lat="43.075915" lon="13.255635"><ele>524.0</ele><time>2026-03-22T15:58:19.38Z</time></trkpt><trkpt lat="43.0760083" lon="13.255785"><ele>520.0</ele><time>2026-03-22T15:58:20.409Z</time></trkpt><trkpt lat="43.0760833" lon="13.2559517"><ele>516.0</ele><time>2026-03-22T15:58:21.365Z</time></trkpt><trkpt lat="43.0761633" lon="13.25612"><ele>516.0</ele><time>2026-03-22T15:58:22.376Z</time></trkpt><trkpt lat="43.0762383" lon="13.2562883"><ele>516.0</ele><time>2026-03-22T15:58:23.38Z</time></trkpt><trkpt lat="43.0763033" lon="13.25645"><ele>516.0</ele><time>2026-03-22T15:58:24.364Z</time></trkpt><trkpt lat="43.0763833" lon="13.256595"><ele>516.0</ele><time>2026-03-22T15:58:25.378Z</time></trkpt><trkpt lat="43.0764617" lon="13.2567233"><ele>553.0</ele><time>2026-03-22T15:58:26.393Z</time></trkpt></trkseg></trk></gpx>